<?xml version="1.0" encoding="UTF-8" standalone="no" ?>
<gpx xmlns="http://www.topografix.com/GPX/1/1" xmlns:xsi="http://www.w3.org/2001/XMLSchema-instance" xsi:schemaLocation="http://www.topografix.com/GPX/1/1 http://www.topografix.com/GPX/1/1/gpx.xsd" version="1.1" creator="VisuGPX - https://www.visugpx.com">
  <metadata>
    <name>Tramjurassienne 2013</name>
    <desc><![CDATA[Tramjurassienne 2013]]></desc>
  </metadata>
  <trk>
    <name><![CDATA[Bob]]></name>
    <trkseg>
      <trkpt lat="46.57492" lon="5.95174">
        <ele>963.86712646484</ele>
        <time>2013-06-30T06:51:44.296Z</time>
      </trkpt>
      <trkpt lat="46.57485" lon="5.95174">
        <ele>967.07348632812</ele>
        <time>2013-06-30T06:51:58.000Z</time>
      </trkpt>
      <trkpt lat="46.57489" lon="5.95169">
        <ele>969.47595214844</ele>
        <time>2013-06-30T06:52:00.000Z</time>
      </trkpt>
      <trkpt lat="46.57495" lon="5.95161">
        <ele>971.90466308594</ele>
        <time>2013-06-30T06:52:02.000Z</time>
      </trkpt>
      <trkpt lat="46.57502" lon="5.95157">
        <ele>957.4921875</ele>
        <time>2013-06-30T06:53:14.000Z</time>
      </trkpt>
      <trkpt lat="46.57507" lon="5.95154">
        <ele>957.79992675781</ele>
        <time>2013-06-30T06:53:16.000Z</time>
      </trkpt>
      <trkpt lat="46.57512" lon="5.95148">
        <ele>958.06872558594</ele>
        <time>2013-06-30T06:53:18.000Z</time>
      </trkpt>
      <trkpt lat="46.57516" lon="5.95144">
        <ele>958.36834716797</ele>
        <time>2013-06-30T06:53:20.000Z</time>
      </trkpt>
      <trkpt lat="46.57523" lon="5.95141">
        <ele>958.58605957031</ele>
        <time>2013-06-30T06:53:22.000Z</time>
      </trkpt>
      <trkpt lat="46.5753" lon="5.95137">
        <ele>958.68048095703</ele>
        <time>2013-06-30T06:53:24.000Z</time>
      </trkpt>
      <trkpt lat="46.57535" lon="5.95134">
        <ele>958.72943115234</ele>
        <time>2013-06-30T06:53:26.000Z</time>
      </trkpt>
      <trkpt lat="46.5754" lon="5.95132">
        <ele>958.74230957031</ele>
        <time>2013-06-30T06:53:28.000Z</time>
      </trkpt>
      <trkpt lat="46.57546" lon="5.95129">
        <ele>958.79058837891</ele>
        <time>2013-06-30T06:53:30.000Z</time>
      </trkpt>
      <trkpt lat="46.5755" lon="5.95125">
        <ele>958.98651123047</ele>
        <time>2013-06-30T06:53:32.000Z</time>
      </trkpt>
      <trkpt lat="46.57554" lon="5.95121">
        <ele>959.31365966797</ele>
        <time>2013-06-30T06:53:34.000Z</time>
      </trkpt>
      <trkpt lat="46.57558" lon="5.95117">
        <ele>959.56311035156</ele>
        <time>2013-06-30T06:53:36.000Z</time>
      </trkpt>
      <trkpt lat="46.57563" lon="5.95112">
        <ele>959.82458496094</ele>
        <time>2013-06-30T06:53:39.000Z</time>
      </trkpt>
      <trkpt lat="46.57567" lon="5.9511">
        <ele>959.91687011719</ele>
        <time>2013-06-30T06:53:41.000Z</time>
      </trkpt>
      <trkpt lat="46.57573" lon="5.95104">
        <ele>959.91046142578</ele>
        <time>2013-06-30T06:53:44.000Z</time>
      </trkpt>
      <trkpt lat="46.57573" lon="5.95098">
        <ele>959.90167236328</ele>
        <time>2013-06-30T06:53:46.000Z</time>
      </trkpt>
      <trkpt lat="46.57573" lon="5.95091">
        <ele>959.90277099609</ele>
        <time>2013-06-30T06:53:48.000Z</time>
      </trkpt>
      <trkpt lat="46.57573" lon="5.95082">
        <ele>959.92242431641</ele>
        <time>2013-06-30T06:53:51.000Z</time>
      </trkpt>
      <trkpt lat="46.57573" lon="5.95074">
        <ele>959.84259033203</ele>
        <time>2013-06-30T06:53:54.000Z</time>
      </trkpt>
      <trkpt lat="46.57572" lon="5.95067">
        <ele>959.73626708984</ele>
        <time>2013-06-30T06:53:57.000Z</time>
      </trkpt>
      <trkpt lat="46.57571" lon="5.95058">
        <ele>959.56213378906</ele>
        <time>2013-06-30T06:54:00.000Z</time>
      </trkpt>
      <trkpt lat="46.57567" lon="5.95055">
        <ele>959.50787353516</ele>
        <time>2013-06-30T06:54:02.000Z</time>
      </trkpt>
      <trkpt lat="46.5756" lon="5.95053">
        <ele>959.39831542969</ele>
        <time>2013-06-30T06:54:05.000Z</time>
      </trkpt>
      <trkpt lat="46.57554" lon="5.95056">
        <ele>959.47473144531</ele>
        <time>2013-06-30T06:54:07.000Z</time>
      </trkpt>
      <trkpt lat="46.57547" lon="5.95059">
        <ele>959.59124755859</ele>
        <time>2013-06-30T06:54:09.000Z</time>
      </trkpt>
      <trkpt lat="46.5754" lon="5.95063">
        <ele>959.61773681641</ele>
        <time>2013-06-30T06:54:11.000Z</time>
      </trkpt>
      <trkpt lat="46.57534" lon="5.95065">
        <ele>959.61297607422</ele>
        <time>2013-06-30T06:54:13.000Z</time>
      </trkpt>
      <trkpt lat="46.57527" lon="5.95068">
        <ele>959.60498046875</ele>
        <time>2013-06-30T06:54:15.000Z</time>
      </trkpt>
      <trkpt lat="46.57521" lon="5.9507">
        <ele>959.59942626953</ele>
        <time>2013-06-30T06:54:17.000Z</time>
      </trkpt>
      <trkpt lat="46.57515" lon="5.95073">
        <ele>959.52307128906</ele>
        <time>2013-06-30T06:54:19.000Z</time>
      </trkpt>
      <trkpt lat="46.57508" lon="5.95076">
        <ele>959.48034667969</ele>
        <time>2013-06-30T06:54:21.000Z</time>
      </trkpt>
      <trkpt lat="46.57501" lon="5.95079">
        <ele>959.51049804688</ele>
        <time>2013-06-30T06:54:23.000Z</time>
      </trkpt>
      <trkpt lat="46.57495" lon="5.95082">
        <ele>959.57861328125</ele>
        <time>2013-06-30T06:54:25.000Z</time>
      </trkpt>
      <trkpt lat="46.57489" lon="5.95084">
        <ele>959.65637207031</ele>
        <time>2013-06-30T06:54:27.000Z</time>
      </trkpt>
      <trkpt lat="46.57482" lon="5.95085">
        <ele>959.70220947266</ele>
        <time>2013-06-30T06:54:29.000Z</time>
      </trkpt>
      <trkpt lat="46.57476" lon="5.95083">
        <ele>959.69390869141</ele>
        <time>2013-06-30T06:54:31.000Z</time>
      </trkpt>
      <trkpt lat="46.57469" lon="5.95079">
        <ele>959.66973876953</ele>
        <time>2013-06-30T06:54:33.000Z</time>
      </trkpt>
      <trkpt lat="46.57464" lon="5.95073">
        <ele>959.69744873047</ele>
        <time>2013-06-30T06:54:35.000Z</time>
      </trkpt>
      <trkpt lat="46.57462" lon="5.95064">
        <ele>959.75482177734</ele>
        <time>2013-06-30T06:54:37.000Z</time>
      </trkpt>
      <trkpt lat="46.57459" lon="5.95053">
        <ele>959.85345458984</ele>
        <time>2013-06-30T06:54:39.000Z</time>
      </trkpt>
      <trkpt lat="46.57456" lon="5.95043">
        <ele>959.90008544922</ele>
        <time>2013-06-30T06:54:41.000Z</time>
      </trkpt>
      <trkpt lat="46.57454" lon="5.95033">
        <ele>959.96228027344</ele>
        <time>2013-06-30T06:54:43.000Z</time>
      </trkpt>
      <trkpt lat="46.57453" lon="5.95024">
        <ele>960.11596679688</ele>
        <time>2013-06-30T06:54:45.000Z</time>
      </trkpt>
      <trkpt lat="46.57451" lon="5.95013">
        <ele>960.29974365234</ele>
        <time>2013-06-30T06:54:47.000Z</time>
      </trkpt>
      <trkpt lat="46.57449" lon="5.95003">
        <ele>960.45928955078</ele>
        <time>2013-06-30T06:54:49.000Z</time>
      </trkpt>
      <trkpt lat="46.57447" lon="5.94992">
        <ele>960.60607910156</ele>
        <time>2013-06-30T06:54:51.000Z</time>
      </trkpt>
      <trkpt lat="46.57447" lon="5.94983">
        <ele>960.74499511719</ele>
        <time>2013-06-30T06:54:53.000Z</time>
      </trkpt>
      <trkpt lat="46.57447" lon="5.94973">
        <ele>960.84851074219</ele>
        <time>2013-06-30T06:54:55.000Z</time>
      </trkpt>
      <trkpt lat="46.57448" lon="5.94962">
        <ele>960.93609619141</ele>
        <time>2013-06-30T06:54:57.000Z</time>
      </trkpt>
      <trkpt lat="46.57447" lon="5.94951">
        <ele>961.00592041016</ele>
        <time>2013-06-30T06:54:59.000Z</time>
      </trkpt>
      <trkpt lat="46.57445" lon="5.94941">
        <ele>961.05511474609</ele>
        <time>2013-06-30T06:55:01.000Z</time>
      </trkpt>
      <trkpt lat="46.57443" lon="5.94932">
        <ele>961.10015869141</ele>
        <time>2013-06-30T06:55:03.000Z</time>
      </trkpt>
      <trkpt lat="46.5744" lon="5.94921">
        <ele>961.30432128906</ele>
        <time>2013-06-30T06:55:05.000Z</time>
      </trkpt>
      <trkpt lat="46.57437" lon="5.94906">
        <ele>961.76446533203</ele>
        <time>2013-06-30T06:55:07.000Z</time>
      </trkpt>
      <trkpt lat="46.57432" lon="5.94889">
        <ele>961.76654052734</ele>
        <time>2013-06-30T06:55:09.000Z</time>
      </trkpt>
      <trkpt lat="46.57427" lon="5.94873">
        <ele>961.49694824219</ele>
        <time>2013-06-30T06:55:11.000Z</time>
      </trkpt>
      <trkpt lat="46.57424" lon="5.94859">
        <ele>960.93438720703</ele>
        <time>2013-06-30T06:55:13.000Z</time>
      </trkpt>
      <trkpt lat="46.5742" lon="5.94845">
        <ele>960.40490722656</ele>
        <time>2013-06-30T06:55:15.000Z</time>
      </trkpt>
      <trkpt lat="46.57417" lon="5.94831">
        <ele>960.04663085938</ele>
        <time>2013-06-30T06:55:17.000Z</time>
      </trkpt>
      <trkpt lat="46.57413" lon="5.94818">
        <ele>960.28015136719</ele>
        <time>2013-06-30T06:55:19.000Z</time>
      </trkpt>
      <trkpt lat="46.57409" lon="5.94805">
        <ele>960.337890625</ele>
        <time>2013-06-30T06:55:21.000Z</time>
      </trkpt>
      <trkpt lat="46.57406" lon="5.94793">
        <ele>960.81762695312</ele>
        <time>2013-06-30T06:55:23.000Z</time>
      </trkpt>
      <trkpt lat="46.57404" lon="5.94783">
        <ele>960.99755859375</ele>
        <time>2013-06-30T06:55:25.000Z</time>
      </trkpt>
      <trkpt lat="46.57401" lon="5.94774">
        <ele>960.92608642578</ele>
        <time>2013-06-30T06:55:27.000Z</time>
      </trkpt>
      <trkpt lat="46.57398" lon="5.94763">
        <ele>961.01257324219</ele>
        <time>2013-06-30T06:55:29.000Z</time>
      </trkpt>
      <trkpt lat="46.57394" lon="5.94753">
        <ele>961.46392822266</ele>
        <time>2013-06-30T06:55:31.000Z</time>
      </trkpt>
      <trkpt lat="46.5739" lon="5.9474">
        <ele>961.95318603516</ele>
        <time>2013-06-30T06:55:33.000Z</time>
      </trkpt>
      <trkpt lat="46.57385" lon="5.94726">
        <ele>962.49664306641</ele>
        <time>2013-06-30T06:55:35.000Z</time>
      </trkpt>
      <trkpt lat="46.57381" lon="5.94713">
        <ele>963.3125</ele>
        <time>2013-06-30T06:55:37.000Z</time>
      </trkpt>
      <trkpt lat="46.57376" lon="5.947">
        <ele>963.78656005859</ele>
        <time>2013-06-30T06:55:39.000Z</time>
      </trkpt>
      <trkpt lat="46.57371" lon="5.94686">
        <ele>962.96673583984</ele>
        <time>2013-06-30T06:55:41.000Z</time>
      </trkpt>
      <trkpt lat="46.57368" lon="5.94674">
        <ele>962.19805908203</ele>
        <time>2013-06-30T06:55:43.000Z</time>
      </trkpt>
      <trkpt lat="46.57363" lon="5.94663">
        <ele>962.35266113281</ele>
        <time>2013-06-30T06:55:45.000Z</time>
      </trkpt>
      <trkpt lat="46.57358" lon="5.9465">
        <ele>962.27166748047</ele>
        <time>2013-06-30T06:55:47.000Z</time>
      </trkpt>
      <trkpt lat="46.57353" lon="5.94639">
        <ele>961.93933105469</ele>
        <time>2013-06-30T06:55:49.000Z</time>
      </trkpt>
      <trkpt lat="46.57349" lon="5.94627">
        <ele>961.52331542969</ele>
        <time>2013-06-30T06:55:51.000Z</time>
      </trkpt>
      <trkpt lat="46.57344" lon="5.94616">
        <ele>961.78668212891</ele>
        <time>2013-06-30T06:55:53.000Z</time>
      </trkpt>
      <trkpt lat="46.57339" lon="5.94605">
        <ele>961.89788818359</ele>
        <time>2013-06-30T06:55:55.000Z</time>
      </trkpt>
      <trkpt lat="46.57334" lon="5.94594">
        <ele>961.59429931641</ele>
        <time>2013-06-30T06:55:57.000Z</time>
      </trkpt>
      <trkpt lat="46.5733" lon="5.94584">
        <ele>961.66394042969</ele>
        <time>2013-06-30T06:55:59.000Z</time>
      </trkpt>
      <trkpt lat="46.57325" lon="5.94574">
        <ele>961.65844726562</ele>
        <time>2013-06-30T06:56:01.000Z</time>
      </trkpt>
      <trkpt lat="46.57322" lon="5.94566">
        <ele>961.70385742188</ele>
        <time>2013-06-30T06:56:03.000Z</time>
      </trkpt>
      <trkpt lat="46.57319" lon="5.9456">
        <ele>961.75970458984</ele>
        <time>2013-06-30T06:56:05.000Z</time>
      </trkpt>
      <trkpt lat="46.57316" lon="5.94553">
        <ele>961.80041503906</ele>
        <time>2013-06-30T06:56:07.000Z</time>
      </trkpt>
      <trkpt lat="46.57312" lon="5.94545">
        <ele>961.86993408203</ele>
        <time>2013-06-30T06:56:09.000Z</time>
      </trkpt>
      <trkpt lat="46.57308" lon="5.94534">
        <ele>962.63031005859</ele>
        <time>2013-06-30T06:56:11.000Z</time>
      </trkpt>
      <trkpt lat="46.57304" lon="5.94521">
        <ele>962.44757080078</ele>
        <time>2013-06-30T06:56:13.000Z</time>
      </trkpt>
      <trkpt lat="46.57301" lon="5.9451">
        <ele>961.68206787109</ele>
        <time>2013-06-30T06:56:14.999Z</time>
      </trkpt>
      <trkpt lat="46.57298" lon="5.94497">
        <ele>960.75915527344</ele>
        <time>2013-06-30T06:56:16.999Z</time>
      </trkpt>
      <trkpt lat="46.57296" lon="5.94486">
        <ele>959.67156982422</ele>
        <time>2013-06-30T06:56:18.999Z</time>
      </trkpt>
      <trkpt lat="46.57293" lon="5.94473">
        <ele>959.45660400391</ele>
        <time>2013-06-30T06:56:20.999Z</time>
      </trkpt>
      <trkpt lat="46.57288" lon="5.94456">
        <ele>958.87939453125</ele>
        <time>2013-06-30T06:56:22.999Z</time>
      </trkpt>
      <trkpt lat="46.57284" lon="5.9444">
        <ele>958.05932617188</ele>
        <time>2013-06-30T06:56:24.999Z</time>
      </trkpt>
      <trkpt lat="46.5728" lon="5.94425">
        <ele>956.95739746094</ele>
        <time>2013-06-30T06:56:26.999Z</time>
      </trkpt>
      <trkpt lat="46.57279" lon="5.94418">
        <ele>956.90246582031</ele>
        <time>2013-06-30T06:56:28.999Z</time>
      </trkpt>
      <trkpt lat="46.57279" lon="5.94411">
        <ele>956.63165283203</ele>
        <time>2013-06-30T06:56:34.999Z</time>
      </trkpt>
      <trkpt lat="46.5728" lon="5.94402">
        <ele>956.42846679688</ele>
        <time>2013-06-30T06:56:37.999Z</time>
      </trkpt>
      <trkpt lat="46.57279" lon="5.94395">
        <ele>956.29968261719</ele>
        <time>2013-06-30T06:56:39.999Z</time>
      </trkpt>
      <trkpt lat="46.57278" lon="5.94387">
        <ele>956.18640136719</ele>
        <time>2013-06-30T06:56:41.999Z</time>
      </trkpt>
      <trkpt lat="46.57277" lon="5.9438">
        <ele>956.08099365234</ele>
        <time>2013-06-30T06:56:43.999Z</time>
      </trkpt>
      <trkpt lat="46.57277" lon="5.94372">
        <ele>955.97076416016</ele>
        <time>2013-06-30T06:56:45.999Z</time>
      </trkpt>
      <trkpt lat="46.57275" lon="5.94363">
        <ele>955.83544921875</ele>
        <time>2013-06-30T06:56:47.999Z</time>
      </trkpt>
      <trkpt lat="46.57274" lon="5.94354">
        <ele>955.69976806641</ele>
        <time>2013-06-30T06:56:49.999Z</time>
      </trkpt>
      <trkpt lat="46.57273" lon="5.94342">
        <ele>955.53369140625</ele>
        <time>2013-06-30T06:56:51.999Z</time>
      </trkpt>
      <trkpt lat="46.57272" lon="5.9433">
        <ele>955.42456054688</ele>
        <time>2013-06-30T06:56:53.999Z</time>
      </trkpt>
      <trkpt lat="46.57272" lon="5.94319">
        <ele>955.30975341797</ele>
        <time>2013-06-30T06:56:55.999Z</time>
      </trkpt>
      <trkpt lat="46.57273" lon="5.94308">
        <ele>955.23498535156</ele>
        <time>2013-06-30T06:56:57.999Z</time>
      </trkpt>
      <trkpt lat="46.57272" lon="5.94298">
        <ele>955.16052246094</ele>
        <time>2013-06-30T06:56:59.999Z</time>
      </trkpt>
      <trkpt lat="46.57271" lon="5.94288">
        <ele>955.13830566406</ele>
        <time>2013-06-30T06:57:01.999Z</time>
      </trkpt>
      <trkpt lat="46.5727" lon="5.94277">
        <ele>955.19854736328</ele>
        <time>2013-06-30T06:57:03.999Z</time>
      </trkpt>
      <trkpt lat="46.5727" lon="5.94267">
        <ele>955.27435302734</ele>
        <time>2013-06-30T06:57:05.999Z</time>
      </trkpt>
      <trkpt lat="46.5727" lon="5.94258">
        <ele>955.41448974609</ele>
        <time>2013-06-30T06:57:07.999Z</time>
      </trkpt>
      <trkpt lat="46.5727" lon="5.94249">
        <ele>955.61126708984</ele>
        <time>2013-06-30T06:57:09.999Z</time>
      </trkpt>
      <trkpt lat="46.5727" lon="5.9424">
        <ele>955.77313232422</ele>
        <time>2013-06-30T06:57:11.999Z</time>
      </trkpt>
      <trkpt lat="46.57269" lon="5.9423">
        <ele>955.89080810547</ele>
        <time>2013-06-30T06:57:13.999Z</time>
      </trkpt>
      <trkpt lat="46.57267" lon="5.9422">
        <ele>955.99859619141</ele>
        <time>2013-06-30T06:57:15.999Z</time>
      </trkpt>
      <trkpt lat="46.57264" lon="5.9421">
        <ele>956.08831787109</ele>
        <time>2013-06-30T06:57:17.999Z</time>
      </trkpt>
      <trkpt lat="46.57263" lon="5.94198">
        <ele>956.97857666016</ele>
        <time>2013-06-30T06:57:19.999Z</time>
      </trkpt>
      <trkpt lat="46.57263" lon="5.94184">
        <ele>957.73071289062</ele>
        <time>2013-06-30T06:57:21.999Z</time>
      </trkpt>
      <trkpt lat="46.57262" lon="5.94169">
        <ele>957.97894287109</ele>
        <time>2013-06-30T06:57:23.999Z</time>
      </trkpt>
      <trkpt lat="46.57259" lon="5.94154">
        <ele>958.59692382812</ele>
        <time>2013-06-30T06:57:25.999Z</time>
      </trkpt>
      <trkpt lat="46.57256" lon="5.94139">
        <ele>958.16442871094</ele>
        <time>2013-06-30T06:57:27.999Z</time>
      </trkpt>
      <trkpt lat="46.57255" lon="5.94124">
        <ele>957.14892578125</ele>
        <time>2013-06-30T06:57:29.999Z</time>
      </trkpt>
      <trkpt lat="46.57252" lon="5.9411">
        <ele>956.57415771484</ele>
        <time>2013-06-30T06:57:31.999Z</time>
      </trkpt>
      <trkpt lat="46.57246" lon="5.94098">
        <ele>956.61602783203</ele>
        <time>2013-06-30T06:57:33.999Z</time>
      </trkpt>
      <trkpt lat="46.5724" lon="5.94087">
        <ele>957.427734375</ele>
        <time>2013-06-30T06:57:35.999Z</time>
      </trkpt>
      <trkpt lat="46.57237" lon="5.94076">
        <ele>958.11120605469</ele>
        <time>2013-06-30T06:57:37.999Z</time>
      </trkpt>
      <trkpt lat="46.57235" lon="5.94065">
        <ele>958.59680175781</ele>
        <time>2013-06-30T06:57:39.999Z</time>
      </trkpt>
      <trkpt lat="46.57232" lon="5.94054">
        <ele>958.61395263672</ele>
        <time>2013-06-30T06:57:41.999Z</time>
      </trkpt>
      <trkpt lat="46.57229" lon="5.94043">
        <ele>958.31927490234</ele>
        <time>2013-06-30T06:57:43.999Z</time>
      </trkpt>
      <trkpt lat="46.57225" lon="5.94033">
        <ele>958.36724853516</ele>
        <time>2013-06-30T06:57:45.999Z</time>
      </trkpt>
      <trkpt lat="46.5722" lon="5.94022">
        <ele>959.39447021484</ele>
        <time>2013-06-30T06:57:47.999Z</time>
      </trkpt>
      <trkpt lat="46.57214" lon="5.94009">
        <ele>960.30535888672</ele>
        <time>2013-06-30T06:57:49.999Z</time>
      </trkpt>
      <trkpt lat="46.57206" lon="5.93996">
        <ele>961.1181640625</ele>
        <time>2013-06-30T06:57:51.999Z</time>
      </trkpt>
      <trkpt lat="46.57199" lon="5.93985">
        <ele>961.41717529297</ele>
        <time>2013-06-30T06:57:53.999Z</time>
      </trkpt>
      <trkpt lat="46.57192" lon="5.93975">
        <ele>961.57067871094</ele>
        <time>2013-06-30T06:57:55.999Z</time>
      </trkpt>
      <trkpt lat="46.57184" lon="5.93963">
        <ele>961.40417480469</ele>
        <time>2013-06-30T06:57:57.999Z</time>
      </trkpt>
      <trkpt lat="46.57177" lon="5.93951">
        <ele>960.99273681641</ele>
        <time>2013-06-30T06:57:59.999Z</time>
      </trkpt>
      <trkpt lat="46.5717" lon="5.93941">
        <ele>960.61614990234</ele>
        <time>2013-06-30T06:58:01.999Z</time>
      </trkpt>
      <trkpt lat="46.57162" lon="5.93935">
        <ele>960.39807128906</ele>
        <time>2013-06-30T06:58:03.999Z</time>
      </trkpt>
      <trkpt lat="46.57154" lon="5.93929">
        <ele>959.99206542969</ele>
        <time>2013-06-30T06:58:05.999Z</time>
      </trkpt>
      <trkpt lat="46.57147" lon="5.93924">
        <ele>959.43890380859</ele>
        <time>2013-06-30T06:58:07.999Z</time>
      </trkpt>
      <trkpt lat="46.57138" lon="5.9392">
        <ele>959.21270751953</ele>
        <time>2013-06-30T06:58:09.999Z</time>
      </trkpt>
      <trkpt lat="46.5713" lon="5.93916">
        <ele>959.23626708984</ele>
        <time>2013-06-30T06:58:11.999Z</time>
      </trkpt>
      <trkpt lat="46.57122" lon="5.93912">
        <ele>959.50335693359</ele>
        <time>2013-06-30T06:58:13.999Z</time>
      </trkpt>
      <trkpt lat="46.57113" lon="5.93907">
        <ele>959.74310302734</ele>
        <time>2013-06-30T06:58:15.999Z</time>
      </trkpt>
      <trkpt lat="46.57104" lon="5.93901">
        <ele>959.14086914062</ele>
        <time>2013-06-30T06:58:17.999Z</time>
      </trkpt>
      <trkpt lat="46.57096" lon="5.93896">
        <ele>958.63885498047</ele>
        <time>2013-06-30T06:58:19.999Z</time>
      </trkpt>
      <trkpt lat="46.57087" lon="5.9389">
        <ele>958.94879150391</ele>
        <time>2013-06-30T06:58:21.999Z</time>
      </trkpt>
      <trkpt lat="46.57079" lon="5.93886">
        <ele>960.33935546875</ele>
        <time>2013-06-30T06:58:23.999Z</time>
      </trkpt>
      <trkpt lat="46.57072" lon="5.93881">
        <ele>961.17431640625</ele>
        <time>2013-06-30T06:58:25.999Z</time>
      </trkpt>
      <trkpt lat="46.57065" lon="5.93876">
        <ele>961.68603515625</ele>
        <time>2013-06-30T06:58:27.999Z</time>
      </trkpt>
      <trkpt lat="46.57057" lon="5.93871">
        <ele>962.24688720703</ele>
        <time>2013-06-30T06:58:29.999Z</time>
      </trkpt>
      <trkpt lat="46.57049" lon="5.93867">
        <ele>962.42590332031</ele>
        <time>2013-06-30T06:58:31.999Z</time>
      </trkpt>
      <trkpt lat="46.57041" lon="5.93863">
        <ele>962.78540039062</ele>
        <time>2013-06-30T06:58:33.999Z</time>
      </trkpt>
      <trkpt lat="46.57032" lon="5.93858">
        <ele>963.33142089844</ele>
        <time>2013-06-30T06:58:35.999Z</time>
      </trkpt>
      <trkpt lat="46.57024" lon="5.93854">
        <ele>963.65612792969</ele>
        <time>2013-06-30T06:58:37.999Z</time>
      </trkpt>
      <trkpt lat="46.57014" lon="5.93849">
        <ele>963.74395751953</ele>
        <time>2013-06-30T06:58:39.999Z</time>
      </trkpt>
      <trkpt lat="46.57004" lon="5.93845">
        <ele>964.03326416016</ele>
        <time>2013-06-30T06:58:41.999Z</time>
      </trkpt>
      <trkpt lat="46.56994" lon="5.93841">
        <ele>963.53778076172</ele>
        <time>2013-06-30T06:58:43.999Z</time>
      </trkpt>
      <trkpt lat="46.56984" lon="5.93836">
        <ele>963.00079345703</ele>
        <time>2013-06-30T06:58:45.999Z</time>
      </trkpt>
      <trkpt lat="46.56975" lon="5.93833">
        <ele>963.10357666016</ele>
        <time>2013-06-30T06:58:47.999Z</time>
      </trkpt>
      <trkpt lat="46.56966" lon="5.93829">
        <ele>963.03857421875</ele>
        <time>2013-06-30T06:58:49.999Z</time>
      </trkpt>
      <trkpt lat="46.56958" lon="5.93827">
        <ele>963.41412353516</ele>
        <time>2013-06-30T06:58:51.999Z</time>
      </trkpt>
      <trkpt lat="46.56949" lon="5.93824">
        <ele>963.62780761719</ele>
        <time>2013-06-30T06:58:53.999Z</time>
      </trkpt>
      <trkpt lat="46.56938" lon="5.9382">
        <ele>963.30541992188</ele>
        <time>2013-06-30T06:58:55.999Z</time>
      </trkpt>
      <trkpt lat="46.56927" lon="5.93814">
        <ele>963.51177978516</ele>
        <time>2013-06-30T06:58:57.999Z</time>
      </trkpt>
      <trkpt lat="46.56915" lon="5.93808">
        <ele>964.39801025391</ele>
        <time>2013-06-30T06:58:59.999Z</time>
      </trkpt>
      <trkpt lat="46.56905" lon="5.93801">
        <ele>963.15905761719</ele>
        <time>2013-06-30T06:59:01.999Z</time>
      </trkpt>
      <trkpt lat="46.56892" lon="5.93795">
        <ele>962.27685546875</ele>
        <time>2013-06-30T06:59:03.999Z</time>
      </trkpt>
      <trkpt lat="46.56882" lon="5.9379">
        <ele>961.05029296875</ele>
        <time>2013-06-30T06:59:05.999Z</time>
      </trkpt>
      <trkpt lat="46.5687" lon="5.93782">
        <ele>960.29260253906</ele>
        <time>2013-06-30T06:59:07.999Z</time>
      </trkpt>
      <trkpt lat="46.56859" lon="5.93778">
        <ele>960.18182373047</ele>
        <time>2013-06-30T06:59:09.999Z</time>
      </trkpt>
      <trkpt lat="46.56848" lon="5.93773">
        <ele>960.09802246094</ele>
        <time>2013-06-30T06:59:11.999Z</time>
      </trkpt>
      <trkpt lat="46.56838" lon="5.93769">
        <ele>960.33654785156</ele>
        <time>2013-06-30T06:59:13.999Z</time>
      </trkpt>
      <trkpt lat="46.5683" lon="5.93762">
        <ele>960.47857666016</ele>
        <time>2013-06-30T06:59:15.999Z</time>
      </trkpt>
      <trkpt lat="46.56822" lon="5.93753">
        <ele>962.16448974609</ele>
        <time>2013-06-30T06:59:17.999Z</time>
      </trkpt>
      <trkpt lat="46.56816" lon="5.93743">
        <ele>962.25750732422</ele>
        <time>2013-06-30T06:59:19.999Z</time>
      </trkpt>
      <trkpt lat="46.5681" lon="5.93734">
        <ele>962.28857421875</ele>
        <time>2013-06-30T06:59:21.999Z</time>
      </trkpt>
      <trkpt lat="46.56804" lon="5.93723">
        <ele>962.29437255859</ele>
        <time>2013-06-30T06:59:23.999Z</time>
      </trkpt>
      <trkpt lat="46.56798" lon="5.93715">
        <ele>962.22418212891</ele>
        <time>2013-06-30T06:59:25.999Z</time>
      </trkpt>
      <trkpt lat="46.56792" lon="5.93709">
        <ele>960.16314697266</ele>
        <time>2013-06-30T06:59:27.999Z</time>
      </trkpt>
      <trkpt lat="46.56786" lon="5.93705">
        <ele>957.66973876953</ele>
        <time>2013-06-30T06:59:29.999Z</time>
      </trkpt>
      <trkpt lat="46.5678" lon="5.93703">
        <ele>957.36773681641</ele>
        <time>2013-06-30T06:59:31.999Z</time>
      </trkpt>
      <trkpt lat="46.56773" lon="5.93699">
        <ele>957.09851074219</ele>
        <time>2013-06-30T06:59:33.999Z</time>
      </trkpt>
      <trkpt lat="46.56765" lon="5.93696">
        <ele>956.87860107422</ele>
        <time>2013-06-30T06:59:35.999Z</time>
      </trkpt>
      <trkpt lat="46.56758" lon="5.93693">
        <ele>956.47802734375</ele>
        <time>2013-06-30T06:59:37.999Z</time>
      </trkpt>
      <trkpt lat="46.56748" lon="5.9369">
        <ele>953.59167480469</ele>
        <time>2013-06-30T06:59:39.999Z</time>
      </trkpt>
      <trkpt lat="46.56739" lon="5.93687">
        <ele>951.5283203125</ele>
        <time>2013-06-30T06:59:41.999Z</time>
      </trkpt>
      <trkpt lat="46.5673" lon="5.93684">
        <ele>949.71917724609</ele>
        <time>2013-06-30T06:59:43.999Z</time>
      </trkpt>
      <trkpt lat="46.56721" lon="5.93681">
        <ele>948.08178710938</ele>
        <time>2013-06-30T06:59:45.999Z</time>
      </trkpt>
      <trkpt lat="46.5671" lon="5.93677">
        <ele>946.80419921875</ele>
        <time>2013-06-30T06:59:47.999Z</time>
      </trkpt>
      <trkpt lat="46.567" lon="5.93673">
        <ele>946.42803955078</ele>
        <time>2013-06-30T06:59:49.999Z</time>
      </trkpt>
      <trkpt lat="46.56689" lon="5.9367">
        <ele>946.06274414062</ele>
        <time>2013-06-30T06:59:51.999Z</time>
      </trkpt>
      <trkpt lat="46.56676" lon="5.93666">
        <ele>945.37512207031</ele>
        <time>2013-06-30T06:59:53.999Z</time>
      </trkpt>
      <trkpt lat="46.56665" lon="5.93663">
        <ele>944.63830566406</ele>
        <time>2013-06-30T06:59:55.999Z</time>
      </trkpt>
      <trkpt lat="46.56655" lon="5.93661">
        <ele>944.1142578125</ele>
        <time>2013-06-30T06:59:57.999Z</time>
      </trkpt>
      <trkpt lat="46.56648" lon="5.93659">
        <ele>944.08801269531</ele>
        <time>2013-06-30T06:59:59.999Z</time>
      </trkpt>
      <trkpt lat="46.56641" lon="5.93658">
        <ele>944.10729980469</ele>
        <time>2013-06-30T07:00:01.999Z</time>
      </trkpt>
      <trkpt lat="46.56635" lon="5.93656">
        <ele>944.10131835938</ele>
        <time>2013-06-30T07:00:03.999Z</time>
      </trkpt>
      <trkpt lat="46.56629" lon="5.93653">
        <ele>944.08374023438</ele>
        <time>2013-06-30T07:00:05.999Z</time>
      </trkpt>
      <trkpt lat="46.56621" lon="5.9365">
        <ele>943.95703125</ele>
        <time>2013-06-30T07:00:07.999Z</time>
      </trkpt>
      <trkpt lat="46.56614" lon="5.93648">
        <ele>944.00378417969</ele>
        <time>2013-06-30T07:00:09.999Z</time>
      </trkpt>
      <trkpt lat="46.56607" lon="5.93646">
        <ele>944.51123046875</ele>
        <time>2013-06-30T07:00:11.999Z</time>
      </trkpt>
      <trkpt lat="46.566" lon="5.93645">
        <ele>944.62017822266</ele>
        <time>2013-06-30T07:00:13.999Z</time>
      </trkpt>
      <trkpt lat="46.56593" lon="5.93644">
        <ele>944.70349121094</ele>
        <time>2013-06-30T07:00:15.999Z</time>
      </trkpt>
      <trkpt lat="46.56587" lon="5.93642">
        <ele>944.77062988281</ele>
        <time>2013-06-30T07:00:17.999Z</time>
      </trkpt>
      <trkpt lat="46.56579" lon="5.93639">
        <ele>945.59020996094</ele>
        <time>2013-06-30T07:00:19.999Z</time>
      </trkpt>
      <trkpt lat="46.56571" lon="5.93635">
        <ele>946.86138916016</ele>
        <time>2013-06-30T07:00:21.999Z</time>
      </trkpt>
      <trkpt lat="46.56563" lon="5.93632">
        <ele>947.80621337891</ele>
        <time>2013-06-30T07:00:23.999Z</time>
      </trkpt>
      <trkpt lat="46.56555" lon="5.93628">
        <ele>948.2177734375</ele>
        <time>2013-06-30T07:00:25.999Z</time>
      </trkpt>
      <trkpt lat="46.56547" lon="5.93623">
        <ele>948.58386230469</ele>
        <time>2013-06-30T07:00:27.999Z</time>
      </trkpt>
      <trkpt lat="46.56539" lon="5.93619">
        <ele>949.02288818359</ele>
        <time>2013-06-30T07:00:29.999Z</time>
      </trkpt>
      <trkpt lat="46.56533" lon="5.93614">
        <ele>949.02923583984</ele>
        <time>2013-06-30T07:00:31.999Z</time>
      </trkpt>
      <trkpt lat="46.56525" lon="5.9361">
        <ele>949.05352783203</ele>
        <time>2013-06-30T07:00:33.999Z</time>
      </trkpt>
      <trkpt lat="46.56517" lon="5.93608">
        <ele>949.05242919922</ele>
        <time>2013-06-30T07:00:35.999Z</time>
      </trkpt>
      <trkpt lat="46.56508" lon="5.93607">
        <ele>949.02429199219</ele>
        <time>2013-06-30T07:00:37.999Z</time>
      </trkpt>
      <trkpt lat="46.565" lon="5.93607">
        <ele>948.95318603516</ele>
        <time>2013-06-30T07:00:39.999Z</time>
      </trkpt>
      <trkpt lat="46.56493" lon="5.93607">
        <ele>948.10986328125</ele>
        <time>2013-06-30T07:00:41.999Z</time>
      </trkpt>
      <trkpt lat="46.56485" lon="5.93607">
        <ele>947.70666503906</ele>
        <time>2013-06-30T07:00:43.999Z</time>
      </trkpt>
      <trkpt lat="46.56477" lon="5.93607">
        <ele>947.7119140625</ele>
        <time>2013-06-30T07:00:45.999Z</time>
      </trkpt>
      <trkpt lat="46.56471" lon="5.93604">
        <ele>947.75</ele>
        <time>2013-06-30T07:00:47.999Z</time>
      </trkpt>
      <trkpt lat="46.56466" lon="5.93601">
        <ele>947.82641601562</ele>
        <time>2013-06-30T07:00:49.999Z</time>
      </trkpt>
      <trkpt lat="46.5646" lon="5.93596">
        <ele>947.87359619141</ele>
        <time>2013-06-30T07:00:51.999Z</time>
      </trkpt>
      <trkpt lat="46.56453" lon="5.93592">
        <ele>947.89440917969</ele>
        <time>2013-06-30T07:00:53.999Z</time>
      </trkpt>
      <trkpt lat="46.56446" lon="5.93588">
        <ele>947.93664550781</ele>
        <time>2013-06-30T07:00:55.999Z</time>
      </trkpt>
      <trkpt lat="46.56439" lon="5.93585">
        <ele>947.99157714844</ele>
        <time>2013-06-30T07:00:57.999Z</time>
      </trkpt>
      <trkpt lat="46.56432" lon="5.93582">
        <ele>948.27648925781</ele>
        <time>2013-06-30T07:00:59.999Z</time>
      </trkpt>
      <trkpt lat="46.56425" lon="5.93581">
        <ele>948.36041259766</ele>
        <time>2013-06-30T07:01:01.999Z</time>
      </trkpt>
      <trkpt lat="46.56419" lon="5.9358">
        <ele>948.46734619141</ele>
        <time>2013-06-30T07:01:03.999Z</time>
      </trkpt>
      <trkpt lat="46.56413" lon="5.93581">
        <ele>948.60278320312</ele>
        <time>2013-06-30T07:01:05.999Z</time>
      </trkpt>
      <trkpt lat="46.56407" lon="5.93583">
        <ele>948.75537109375</ele>
        <time>2013-06-30T07:01:07.999Z</time>
      </trkpt>
      <trkpt lat="46.56402" lon="5.93586">
        <ele>948.93762207031</ele>
        <time>2013-06-30T07:01:09.999Z</time>
      </trkpt>
      <trkpt lat="46.56397" lon="5.93591">
        <ele>949.13763427734</ele>
        <time>2013-06-30T07:01:11.999Z</time>
      </trkpt>
      <trkpt lat="46.56393" lon="5.93599">
        <ele>949.345703125</ele>
        <time>2013-06-30T07:01:13.999Z</time>
      </trkpt>
      <trkpt lat="46.56389" lon="5.93606">
        <ele>949.53936767578</ele>
        <time>2013-06-30T07:01:15.999Z</time>
      </trkpt>
      <trkpt lat="46.56385" lon="5.93613">
        <ele>949.72821044922</ele>
        <time>2013-06-30T07:01:17.999Z</time>
      </trkpt>
      <trkpt lat="46.56381" lon="5.9362">
        <ele>949.91741943359</ele>
        <time>2013-06-30T07:01:19.999Z</time>
      </trkpt>
      <trkpt lat="46.56378" lon="5.93626">
        <ele>950.12322998047</ele>
        <time>2013-06-30T07:01:21.999Z</time>
      </trkpt>
      <trkpt lat="46.56374" lon="5.93632">
        <ele>950.34185791016</ele>
        <time>2013-06-30T07:01:23.999Z</time>
      </trkpt>
      <trkpt lat="46.56371" lon="5.93638">
        <ele>950.57397460938</ele>
        <time>2013-06-30T07:01:25.999Z</time>
      </trkpt>
      <trkpt lat="46.56367" lon="5.93644">
        <ele>950.82086181641</ele>
        <time>2013-06-30T07:01:27.999Z</time>
      </trkpt>
      <trkpt lat="46.56364" lon="5.9365">
        <ele>951.05859375</ele>
        <time>2013-06-30T07:01:29.999Z</time>
      </trkpt>
      <trkpt lat="46.5636" lon="5.93655">
        <ele>951.29772949219</ele>
        <time>2013-06-30T07:01:31.999Z</time>
      </trkpt>
      <trkpt lat="46.56357" lon="5.93661">
        <ele>951.54229736328</ele>
        <time>2013-06-30T07:01:33.999Z</time>
      </trkpt>
      <trkpt lat="46.56354" lon="5.93665">
        <ele>951.79162597656</ele>
        <time>2013-06-30T07:01:35.999Z</time>
      </trkpt>
      <trkpt lat="46.5635" lon="5.9367">
        <ele>952.08508300781</ele>
        <time>2013-06-30T07:01:37.999Z</time>
      </trkpt>
      <trkpt lat="46.56346" lon="5.93674">
        <ele>952.36871337891</ele>
        <time>2013-06-30T07:01:39.999Z</time>
      </trkpt>
      <trkpt lat="46.56341" lon="5.93678">
        <ele>952.64459228516</ele>
        <time>2013-06-30T07:01:41.999Z</time>
      </trkpt>
      <trkpt lat="46.56336" lon="5.93682">
        <ele>952.92218017578</ele>
        <time>2013-06-30T07:01:43.999Z</time>
      </trkpt>
      <trkpt lat="46.56332" lon="5.93685">
        <ele>953.19354248047</ele>
        <time>2013-06-30T07:01:45.999Z</time>
      </trkpt>
      <trkpt lat="46.56327" lon="5.93688">
        <ele>953.45544433594</ele>
        <time>2013-06-30T07:01:47.999Z</time>
      </trkpt>
      <trkpt lat="46.56322" lon="5.93691">
        <ele>953.71105957031</ele>
        <time>2013-06-30T07:01:49.999Z</time>
      </trkpt>
      <trkpt lat="46.56318" lon="5.93694">
        <ele>953.98284912109</ele>
        <time>2013-06-30T07:01:51.999Z</time>
      </trkpt>
      <trkpt lat="46.56314" lon="5.93697">
        <ele>954.26043701172</ele>
        <time>2013-06-30T07:01:53.999Z</time>
      </trkpt>
      <trkpt lat="46.56309" lon="5.937">
        <ele>954.54632568359</ele>
        <time>2013-06-30T07:01:55.999Z</time>
      </trkpt>
      <trkpt lat="46.56305" lon="5.93703">
        <ele>954.86206054688</ele>
        <time>2013-06-30T07:01:57.999Z</time>
      </trkpt>
      <trkpt lat="46.56301" lon="5.93707">
        <ele>955.19055175781</ele>
        <time>2013-06-30T07:01:59.999Z</time>
      </trkpt>
      <trkpt lat="46.56297" lon="5.9371">
        <ele>955.51727294922</ele>
        <time>2013-06-30T07:02:01.999Z</time>
      </trkpt>
      <trkpt lat="46.56293" lon="5.93714">
        <ele>955.84631347656</ele>
        <time>2013-06-30T07:02:03.999Z</time>
      </trkpt>
      <trkpt lat="46.56288" lon="5.93718">
        <ele>956.17291259766</ele>
        <time>2013-06-30T07:02:05.999Z</time>
      </trkpt>
      <trkpt lat="46.56284" lon="5.93723">
        <ele>956.501953125</ele>
        <time>2013-06-30T07:02:07.999Z</time>
      </trkpt>
      <trkpt lat="46.56281" lon="5.93727">
        <ele>956.83538818359</ele>
        <time>2013-06-30T07:02:09.999Z</time>
      </trkpt>
      <trkpt lat="46.56277" lon="5.93735">
        <ele>957.36505126953</ele>
        <time>2013-06-30T07:02:12.999Z</time>
      </trkpt>
      <trkpt lat="46.56274" lon="5.9374">
        <ele>957.75988769531</ele>
        <time>2013-06-30T07:02:14.999Z</time>
      </trkpt>
      <trkpt lat="46.56271" lon="5.93745">
        <ele>958.21026611328</ele>
        <time>2013-06-30T07:02:16.999Z</time>
      </trkpt>
      <trkpt lat="46.56266" lon="5.93752">
        <ele>958.90173339844</ele>
        <time>2013-06-30T07:02:19.999Z</time>
      </trkpt>
      <trkpt lat="46.56262" lon="5.93758">
        <ele>959.5234375</ele>
        <time>2013-06-30T07:02:22.999Z</time>
      </trkpt>
      <trkpt lat="46.56258" lon="5.93762">
        <ele>959.89666748047</ele>
        <time>2013-06-30T07:02:24.999Z</time>
      </trkpt>
      <trkpt lat="46.56253" lon="5.93768">
        <ele>960.45330810547</ele>
        <time>2013-06-30T07:02:27.999Z</time>
      </trkpt>
      <trkpt lat="46.56248" lon="5.93771">
        <ele>960.80334472656</ele>
        <time>2013-06-30T07:02:29.999Z</time>
      </trkpt>
      <trkpt lat="46.56244" lon="5.93775">
        <ele>961.12518310547</ele>
        <time>2013-06-30T07:02:31.999Z</time>
      </trkpt>
      <trkpt lat="46.5624" lon="5.93778">
        <ele>961.43475341797</ele>
        <time>2013-06-30T07:02:33.999Z</time>
      </trkpt>
      <trkpt lat="46.56236" lon="5.93782">
        <ele>961.75555419922</ele>
        <time>2013-06-30T07:02:35.999Z</time>
      </trkpt>
      <trkpt lat="46.56231" lon="5.93786">
        <ele>962.27117919922</ele>
        <time>2013-06-30T07:02:38.999Z</time>
      </trkpt>
      <trkpt lat="46.56226" lon="5.93789">
        <ele>962.58825683594</ele>
        <time>2013-06-30T07:02:40.999Z</time>
      </trkpt>
      <trkpt lat="46.56222" lon="5.93792">
        <ele>962.88903808594</ele>
        <time>2013-06-30T07:02:42.999Z</time>
      </trkpt>
      <trkpt lat="46.56216" lon="5.93796">
        <ele>963.34588623047</ele>
        <time>2013-06-30T07:02:45.999Z</time>
      </trkpt>
      <trkpt lat="46.56212" lon="5.938">
        <ele>963.66351318359</ele>
        <time>2013-06-30T07:02:47.999Z</time>
      </trkpt>
      <trkpt lat="46.56206" lon="5.93805">
        <ele>964.15209960938</ele>
        <time>2013-06-30T07:02:50.999Z</time>
      </trkpt>
      <trkpt lat="46.56201" lon="5.93809">
        <ele>964.69769287109</ele>
        <time>2013-06-30T07:02:53.999Z</time>
      </trkpt>
      <trkpt lat="46.56196" lon="5.93812">
        <ele>965.07684326172</ele>
        <time>2013-06-30T07:02:55.999Z</time>
      </trkpt>
      <trkpt lat="46.56191" lon="5.93814">
        <ele>965.45874023438</ele>
        <time>2013-06-30T07:02:57.999Z</time>
      </trkpt>
      <trkpt lat="46.56187" lon="5.93817">
        <ele>965.83526611328</ele>
        <time>2013-06-30T07:02:59.999Z</time>
      </trkpt>
      <trkpt lat="46.56182" lon="5.93819">
        <ele>966.21813964844</ele>
        <time>2013-06-30T07:03:01.999Z</time>
      </trkpt>
      <trkpt lat="46.56178" lon="5.93821">
        <ele>966.60388183594</ele>
        <time>2013-06-30T07:03:03.999Z</time>
      </trkpt>
      <trkpt lat="46.56173" lon="5.93823">
        <ele>966.9931640625</ele>
        <time>2013-06-30T07:03:05.999Z</time>
      </trkpt>
      <trkpt lat="46.56169" lon="5.93826">
        <ele>967.38592529297</ele>
        <time>2013-06-30T07:03:07.999Z</time>
      </trkpt>
      <trkpt lat="46.56164" lon="5.93828">
        <ele>967.77551269531</ele>
        <time>2013-06-30T07:03:09.999Z</time>
      </trkpt>
      <trkpt lat="46.5616" lon="5.9383">
        <ele>968.16534423828</ele>
        <time>2013-06-30T07:03:11.999Z</time>
      </trkpt>
      <trkpt lat="46.56155" lon="5.93833">
        <ele>968.55749511719</ele>
        <time>2013-06-30T07:03:13.999Z</time>
      </trkpt>
      <trkpt lat="46.5615" lon="5.93837">
        <ele>969.14465332031</ele>
        <time>2013-06-30T07:03:16.999Z</time>
      </trkpt>
      <trkpt lat="46.56144" lon="5.93841">
        <ele>969.74884033203</ele>
        <time>2013-06-30T07:03:19.999Z</time>
      </trkpt>
      <trkpt lat="46.56139" lon="5.93844">
        <ele>970.14300537109</ele>
        <time>2013-06-30T07:03:21.999Z</time>
      </trkpt>
      <trkpt lat="46.56135" lon="5.93847">
        <ele>970.54266357422</ele>
        <time>2013-06-30T07:03:23.999Z</time>
      </trkpt>
      <trkpt lat="46.56131" lon="5.9385">
        <ele>970.95306396484</ele>
        <time>2013-06-30T07:03:25.999Z</time>
      </trkpt>
      <trkpt lat="46.56126" lon="5.93852">
        <ele>971.37329101562</ele>
        <time>2013-06-30T07:03:27.999Z</time>
      </trkpt>
      <trkpt lat="46.5612" lon="5.93856">
        <ele>972.00653076172</ele>
        <time>2013-06-30T07:03:30.999Z</time>
      </trkpt>
      <trkpt lat="46.56116" lon="5.93858">
        <ele>972.42742919922</ele>
        <time>2013-06-30T07:03:32.999Z</time>
      </trkpt>
      <trkpt lat="46.56109" lon="5.93862">
        <ele>973.04107666016</ele>
        <time>2013-06-30T07:03:35.999Z</time>
      </trkpt>
      <trkpt lat="46.56103" lon="5.93866">
        <ele>973.64373779297</ele>
        <time>2013-06-30T07:03:38.999Z</time>
      </trkpt>
      <trkpt lat="46.56099" lon="5.93868">
        <ele>974.04455566406</ele>
        <time>2013-06-30T07:03:40.999Z</time>
      </trkpt>
      <trkpt lat="46.56094" lon="5.93871">
        <ele>974.4443359375</ele>
        <time>2013-06-30T07:03:42.999Z</time>
      </trkpt>
      <trkpt lat="46.5609" lon="5.93875">
        <ele>974.83819580078</ele>
        <time>2013-06-30T07:03:44.999Z</time>
      </trkpt>
      <trkpt lat="46.56085" lon="5.93879">
        <ele>975.22607421875</ele>
        <time>2013-06-30T07:03:46.999Z</time>
      </trkpt>
      <trkpt lat="46.56081" lon="5.93883">
        <ele>975.60906982422</ele>
        <time>2013-06-30T07:03:48.999Z</time>
      </trkpt>
      <trkpt lat="46.56077" lon="5.93888">
        <ele>975.99401855469</ele>
        <time>2013-06-30T07:03:50.999Z</time>
      </trkpt>
      <trkpt lat="46.56073" lon="5.93892">
        <ele>976.39489746094</ele>
        <time>2013-06-30T07:03:52.999Z</time>
      </trkpt>
      <trkpt lat="46.56069" lon="5.93897">
        <ele>976.77142333984</ele>
        <time>2013-06-30T07:03:54.999Z</time>
      </trkpt>
      <trkpt lat="46.56065" lon="5.93903">
        <ele>977.37322998047</ele>
        <time>2013-06-30T07:03:57.999Z</time>
      </trkpt>
      <trkpt lat="46.56062" lon="5.93908">
        <ele>977.78155517578</ele>
        <time>2013-06-30T07:03:59.999Z</time>
      </trkpt>
      <trkpt lat="46.56059" lon="5.93913">
        <ele>978.14801025391</ele>
        <time>2013-06-30T07:04:01.999Z</time>
      </trkpt>
      <trkpt lat="46.56055" lon="5.93919">
        <ele>978.49041748047</ele>
        <time>2013-06-30T07:04:03.999Z</time>
      </trkpt>
      <trkpt lat="46.56052" lon="5.93924">
        <ele>978.826171875</ele>
        <time>2013-06-30T07:04:05.999Z</time>
      </trkpt>
      <trkpt lat="46.56048" lon="5.93931">
        <ele>979.16937255859</ele>
        <time>2013-06-30T07:04:07.999Z</time>
      </trkpt>
      <trkpt lat="46.56043" lon="5.93938">
        <ele>979.53424072266</ele>
        <time>2013-06-30T07:04:09.999Z</time>
      </trkpt>
      <trkpt lat="46.56037" lon="5.93948">
        <ele>981.2939453125</ele>
        <time>2013-06-30T07:04:11.999Z</time>
      </trkpt>
      <trkpt lat="46.5603" lon="5.93958">
        <ele>983.32861328125</ele>
        <time>2013-06-30T07:04:13.999Z</time>
      </trkpt>
      <trkpt lat="46.56023" lon="5.93968">
        <ele>984.15270996094</ele>
        <time>2013-06-30T07:04:15.999Z</time>
      </trkpt>
      <trkpt lat="46.56015" lon="5.93981">
        <ele>984.17785644531</ele>
        <time>2013-06-30T07:04:17.999Z</time>
      </trkpt>
      <trkpt lat="46.56007" lon="5.93993">
        <ele>983.60119628906</ele>
        <time>2013-06-30T07:04:19.999Z</time>
      </trkpt>
      <trkpt lat="46.56" lon="5.94007">
        <ele>982.80950927734</ele>
        <time>2013-06-30T07:04:21.999Z</time>
      </trkpt>
      <trkpt lat="46.55994" lon="5.94019">
        <ele>982.03570556641</ele>
        <time>2013-06-30T07:04:23.999Z</time>
      </trkpt>
      <trkpt lat="46.55989" lon="5.9403">
        <ele>980.86413574219</ele>
        <time>2013-06-30T07:04:25.999Z</time>
      </trkpt>
      <trkpt lat="46.55983" lon="5.94036">
        <ele>980.37103271484</ele>
        <time>2013-06-30T07:04:27.999Z</time>
      </trkpt>
      <trkpt lat="46.55974" lon="5.94032">
        <ele>980.42810058594</ele>
        <time>2013-06-30T07:04:29.999Z</time>
      </trkpt>
      <trkpt lat="46.55969" lon="5.94021">
        <ele>981.15966796875</ele>
        <time>2013-06-30T07:04:31.999Z</time>
      </trkpt>
      <trkpt lat="46.55962" lon="5.94012">
        <ele>981.74243164062</ele>
        <time>2013-06-30T07:04:33.999Z</time>
      </trkpt>
      <trkpt lat="46.55956" lon="5.94004">
        <ele>982.48937988281</ele>
        <time>2013-06-30T07:04:35.999Z</time>
      </trkpt>
      <trkpt lat="46.5595" lon="5.93996">
        <ele>983.16088867188</ele>
        <time>2013-06-30T07:04:37.999Z</time>
      </trkpt>
      <trkpt lat="46.55944" lon="5.93987">
        <ele>983.61199951172</ele>
        <time>2013-06-30T07:04:39.999Z</time>
      </trkpt>
      <trkpt lat="46.55937" lon="5.93978">
        <ele>984.17163085938</ele>
        <time>2013-06-30T07:04:41.999Z</time>
      </trkpt>
      <trkpt lat="46.5593" lon="5.9397">
        <ele>984.47735595703</ele>
        <time>2013-06-30T07:04:43.999Z</time>
      </trkpt>
      <trkpt lat="46.55923" lon="5.93963">
        <ele>984.56616210938</ele>
        <time>2013-06-30T07:04:45.999Z</time>
      </trkpt>
      <trkpt lat="46.55914" lon="5.93959">
        <ele>984.43426513672</ele>
        <time>2013-06-30T07:04:47.999Z</time>
      </trkpt>
      <trkpt lat="46.55905" lon="5.93958">
        <ele>984.22131347656</ele>
        <time>2013-06-30T07:04:49.999Z</time>
      </trkpt>
      <trkpt lat="46.55897" lon="5.93959">
        <ele>983.93902587891</ele>
        <time>2013-06-30T07:04:51.999Z</time>
      </trkpt>
      <trkpt lat="46.5589" lon="5.93959">
        <ele>983.92950439453</ele>
        <time>2013-06-30T07:04:53.999Z</time>
      </trkpt>
      <trkpt lat="46.55884" lon="5.9396">
        <ele>983.95434570312</ele>
        <time>2013-06-30T07:04:55.999Z</time>
      </trkpt>
      <trkpt lat="46.55877" lon="5.93959">
        <ele>984.00543212891</ele>
        <time>2013-06-30T07:04:57.999Z</time>
      </trkpt>
      <trkpt lat="46.5587" lon="5.93959">
        <ele>984.06243896484</ele>
        <time>2013-06-30T07:04:59.999Z</time>
      </trkpt>
      <trkpt lat="46.55863" lon="5.93958">
        <ele>984.12084960938</ele>
        <time>2013-06-30T07:05:01.999Z</time>
      </trkpt>
      <trkpt lat="46.55856" lon="5.93957">
        <ele>984.31793212891</ele>
        <time>2013-06-30T07:05:03.999Z</time>
      </trkpt>
      <trkpt lat="46.55847" lon="5.93955">
        <ele>984.37799072266</ele>
        <time>2013-06-30T07:05:05.999Z</time>
      </trkpt>
      <trkpt lat="46.55839" lon="5.93951">
        <ele>984.16479492188</ele>
        <time>2013-06-30T07:05:07.999Z</time>
      </trkpt>
      <trkpt lat="46.55831" lon="5.93945">
        <ele>984.22155761719</ele>
        <time>2013-06-30T07:05:09.999Z</time>
      </trkpt>
      <trkpt lat="46.55824" lon="5.93937">
        <ele>984.79168701172</ele>
        <time>2013-06-30T07:05:11.999Z</time>
      </trkpt>
      <trkpt lat="46.55816" lon="5.93928">
        <ele>985.44061279297</ele>
        <time>2013-06-30T07:05:13.999Z</time>
      </trkpt>
      <trkpt lat="46.55808" lon="5.93917">
        <ele>985.63397216797</ele>
        <time>2013-06-30T07:05:15.999Z</time>
      </trkpt>
      <trkpt lat="46.55799" lon="5.93907">
        <ele>985.37634277344</ele>
        <time>2013-06-30T07:05:17.999Z</time>
      </trkpt>
      <trkpt lat="46.5579" lon="5.93898">
        <ele>984.88800048828</ele>
        <time>2013-06-30T07:05:19.999Z</time>
      </trkpt>
      <trkpt lat="46.55781" lon="5.9389">
        <ele>984.23736572266</ele>
        <time>2013-06-30T07:05:21.999Z</time>
      </trkpt>
      <trkpt lat="46.55773" lon="5.93876">
        <ele>984.02996826172</ele>
        <time>2013-06-30T07:05:23.999Z</time>
      </trkpt>
      <trkpt lat="46.55768" lon="5.93857">
        <ele>983.35552978516</ele>
        <time>2013-06-30T07:05:25.999Z</time>
      </trkpt>
      <trkpt lat="46.55765" lon="5.93834">
        <ele>981.9375</ele>
        <time>2013-06-30T07:05:27.999Z</time>
      </trkpt>
      <trkpt lat="46.55764" lon="5.93813">
        <ele>980.2216796875</ele>
        <time>2013-06-30T07:05:29.999Z</time>
      </trkpt>
      <trkpt lat="46.55766" lon="5.93796">
        <ele>977.84851074219</ele>
        <time>2013-06-30T07:05:31.999Z</time>
      </trkpt>
      <trkpt lat="46.55769" lon="5.93777">
        <ele>976.10455322266</ele>
        <time>2013-06-30T07:05:33.999Z</time>
      </trkpt>
      <trkpt lat="46.55763" lon="5.93762">
        <ele>975.33532714844</ele>
        <time>2013-06-30T07:05:35.999Z</time>
      </trkpt>
      <trkpt lat="46.55753" lon="5.93753">
        <ele>974.78771972656</ele>
        <time>2013-06-30T07:05:37.999Z</time>
      </trkpt>
      <trkpt lat="46.5574" lon="5.93752">
        <ele>974.12329101562</ele>
        <time>2013-06-30T07:05:39.999Z</time>
      </trkpt>
      <trkpt lat="46.55726" lon="5.93759">
        <ele>974.28216552734</ele>
        <time>2013-06-30T07:05:41.999Z</time>
      </trkpt>
      <trkpt lat="46.55712" lon="5.93767">
        <ele>974.38751220703</ele>
        <time>2013-06-30T07:05:43.999Z</time>
      </trkpt>
      <trkpt lat="46.557" lon="5.93776">
        <ele>973.98736572266</ele>
        <time>2013-06-30T07:05:45.999Z</time>
      </trkpt>
      <trkpt lat="46.55688" lon="5.93784">
        <ele>973.8681640625</ele>
        <time>2013-06-30T07:05:47.999Z</time>
      </trkpt>
      <trkpt lat="46.55675" lon="5.93789">
        <ele>973.4853515625</ele>
        <time>2013-06-30T07:05:49.999Z</time>
      </trkpt>
      <trkpt lat="46.55661" lon="5.93792">
        <ele>972.21185302734</ele>
        <time>2013-06-30T07:05:51.999Z</time>
      </trkpt>
      <trkpt lat="46.55646" lon="5.93793">
        <ele>971.173828125</ele>
        <time>2013-06-30T07:05:53.999Z</time>
      </trkpt>
      <trkpt lat="46.5563" lon="5.93792">
        <ele>970.27661132812</ele>
        <time>2013-06-30T07:05:55.999Z</time>
      </trkpt>
      <trkpt lat="46.55612" lon="5.93789">
        <ele>970.02117919922</ele>
        <time>2013-06-30T07:05:57.999Z</time>
      </trkpt>
      <trkpt lat="46.55594" lon="5.93782">
        <ele>969.70068359375</ele>
        <time>2013-06-30T07:05:59.999Z</time>
      </trkpt>
      <trkpt lat="46.55575" lon="5.93773">
        <ele>969.07202148438</ele>
        <time>2013-06-30T07:06:01.999Z</time>
      </trkpt>
      <trkpt lat="46.55557" lon="5.93763">
        <ele>968.16833496094</ele>
        <time>2013-06-30T07:06:03.999Z</time>
      </trkpt>
      <trkpt lat="46.55537" lon="5.93752">
        <ele>967.26586914062</ele>
        <time>2013-06-30T07:06:05.999Z</time>
      </trkpt>
      <trkpt lat="46.55518" lon="5.93741">
        <ele>966.306640625</ele>
        <time>2013-06-30T07:06:07.999Z</time>
      </trkpt>
      <trkpt lat="46.55498" lon="5.9373">
        <ele>965.29235839844</ele>
        <time>2013-06-30T07:06:09.999Z</time>
      </trkpt>
      <trkpt lat="46.55477" lon="5.93718">
        <ele>964.23089599609</ele>
        <time>2013-06-30T07:06:11.999Z</time>
      </trkpt>
      <trkpt lat="46.55455" lon="5.93705">
        <ele>962.90002441406</ele>
        <time>2013-06-30T07:06:13.999Z</time>
      </trkpt>
      <trkpt lat="46.55434" lon="5.93692">
        <ele>961.15020751953</ele>
        <time>2013-06-30T07:06:15.999Z</time>
      </trkpt>
      <trkpt lat="46.55413" lon="5.93681">
        <ele>959.6572265625</ele>
        <time>2013-06-30T07:06:17.999Z</time>
      </trkpt>
      <trkpt lat="46.55393" lon="5.93675">
        <ele>958.85821533203</ele>
        <time>2013-06-30T07:06:19.999Z</time>
      </trkpt>
      <trkpt lat="46.55375" lon="5.93669">
        <ele>958.3818359375</ele>
        <time>2013-06-30T07:06:21.999Z</time>
      </trkpt>
      <trkpt lat="46.55361" lon="5.93661">
        <ele>958.2470703125</ele>
        <time>2013-06-30T07:06:23.999Z</time>
      </trkpt>
      <trkpt lat="46.55349" lon="5.93649">
        <ele>958.80883789062</ele>
        <time>2013-06-30T07:06:25.999Z</time>
      </trkpt>
      <trkpt lat="46.55338" lon="5.93635">
        <ele>959.5390625</ele>
        <time>2013-06-30T07:06:27.999Z</time>
      </trkpt>
      <trkpt lat="46.55328" lon="5.93622">
        <ele>960.28381347656</ele>
        <time>2013-06-30T07:06:29.999Z</time>
      </trkpt>
      <trkpt lat="46.55317" lon="5.93608">
        <ele>960.78033447266</ele>
        <time>2013-06-30T07:06:31.999Z</time>
      </trkpt>
      <trkpt lat="46.55307" lon="5.93595">
        <ele>961.14385986328</ele>
        <time>2013-06-30T07:06:33.999Z</time>
      </trkpt>
      <trkpt lat="46.55297" lon="5.93582">
        <ele>961.10327148438</ele>
        <time>2013-06-30T07:06:35.999Z</time>
      </trkpt>
      <trkpt lat="46.55287" lon="5.93571">
        <ele>960.67169189453</ele>
        <time>2013-06-30T07:06:37.999Z</time>
      </trkpt>
      <trkpt lat="46.55278" lon="5.9356">
        <ele>960.62738037109</ele>
        <time>2013-06-30T07:06:39.999Z</time>
      </trkpt>
      <trkpt lat="46.55268" lon="5.93551">
        <ele>960.83172607422</ele>
        <time>2013-06-30T07:06:41.999Z</time>
      </trkpt>
      <trkpt lat="46.55258" lon="5.93543">
        <ele>961.03894042969</ele>
        <time>2013-06-30T07:06:43.999Z</time>
      </trkpt>
      <trkpt lat="46.55246" lon="5.93538">
        <ele>961.45343017578</ele>
        <time>2013-06-30T07:06:45.999Z</time>
      </trkpt>
      <trkpt lat="46.55234" lon="5.93533">
        <ele>961.86480712891</ele>
        <time>2013-06-30T07:06:47.999Z</time>
      </trkpt>
      <trkpt lat="46.55222" lon="5.93528">
        <ele>962.29852294922</ele>
        <time>2013-06-30T07:06:49.999Z</time>
      </trkpt>
      <trkpt lat="46.55211" lon="5.93524">
        <ele>962.634765625</ele>
        <time>2013-06-30T07:06:51.999Z</time>
      </trkpt>
      <trkpt lat="46.552" lon="5.93519">
        <ele>962.81225585938</ele>
        <time>2013-06-30T07:06:53.999Z</time>
      </trkpt>
      <trkpt lat="46.55189" lon="5.93515">
        <ele>962.96783447266</ele>
        <time>2013-06-30T07:06:55.999Z</time>
      </trkpt>
      <trkpt lat="46.55177" lon="5.9351">
        <ele>963.0654296875</ele>
        <time>2013-06-30T07:06:57.999Z</time>
      </trkpt>
      <trkpt lat="46.55166" lon="5.93505">
        <ele>963.21722412109</ele>
        <time>2013-06-30T07:06:59.999Z</time>
      </trkpt>
      <trkpt lat="46.55154" lon="5.93499">
        <ele>963.38726806641</ele>
        <time>2013-06-30T07:07:01.999Z</time>
      </trkpt>
      <trkpt lat="46.55142" lon="5.93493">
        <ele>963.68701171875</ele>
        <time>2013-06-30T07:07:03.999Z</time>
      </trkpt>
      <trkpt lat="46.5513" lon="5.9349">
        <ele>963.89044189453</ele>
        <time>2013-06-30T07:07:05.999Z</time>
      </trkpt>
      <trkpt lat="46.55117" lon="5.93492">
        <ele>963.97644042969</ele>
        <time>2013-06-30T07:07:07.999Z</time>
      </trkpt>
      <trkpt lat="46.55103" lon="5.93495">
        <ele>963.88079833984</ele>
        <time>2013-06-30T07:07:09.999Z</time>
      </trkpt>
      <trkpt lat="46.55089" lon="5.935">
        <ele>963.76171875</ele>
        <time>2013-06-30T07:07:11.999Z</time>
      </trkpt>
      <trkpt lat="46.55074" lon="5.93504">
        <ele>963.53833007812</ele>
        <time>2013-06-30T07:07:13.999Z</time>
      </trkpt>
      <trkpt lat="46.55057" lon="5.93506">
        <ele>963.22729492188</ele>
        <time>2013-06-30T07:07:15.999Z</time>
      </trkpt>
      <trkpt lat="46.55039" lon="5.93505">
        <ele>962.7744140625</ele>
        <time>2013-06-30T07:07:17.999Z</time>
      </trkpt>
      <trkpt lat="46.55021" lon="5.93497">
        <ele>962.36871337891</ele>
        <time>2013-06-30T07:07:19.999Z</time>
      </trkpt>
      <trkpt lat="46.55002" lon="5.93484">
        <ele>961.80712890625</ele>
        <time>2013-06-30T07:07:21.999Z</time>
      </trkpt>
      <trkpt lat="46.54987" lon="5.93466">
        <ele>961.07232666016</ele>
        <time>2013-06-30T07:07:23.999Z</time>
      </trkpt>
      <trkpt lat="46.54972" lon="5.93445">
        <ele>960.16424560547</ele>
        <time>2013-06-30T07:07:25.999Z</time>
      </trkpt>
      <trkpt lat="46.54959" lon="5.93424">
        <ele>959.81079101562</ele>
        <time>2013-06-30T07:07:27.999Z</time>
      </trkpt>
      <trkpt lat="46.54949" lon="5.93403">
        <ele>959.96392822266</ele>
        <time>2013-06-30T07:07:29.999Z</time>
      </trkpt>
      <trkpt lat="46.54939" lon="5.93384">
        <ele>960.16412353516</ele>
        <time>2013-06-30T07:07:31.999Z</time>
      </trkpt>
      <trkpt lat="46.5493" lon="5.93367">
        <ele>959.83160400391</ele>
        <time>2013-06-30T07:07:33.999Z</time>
      </trkpt>
      <trkpt lat="46.54922" lon="5.93352">
        <ele>959.72485351562</ele>
        <time>2013-06-30T07:07:35.999Z</time>
      </trkpt>
      <trkpt lat="46.54916" lon="5.93339">
        <ele>960.20458984375</ele>
        <time>2013-06-30T07:07:37.999Z</time>
      </trkpt>
      <trkpt lat="46.5491" lon="5.93328">
        <ele>960.84533691406</ele>
        <time>2013-06-30T07:07:39.999Z</time>
      </trkpt>
      <trkpt lat="46.54905" lon="5.93318">
        <ele>961.91925048828</ele>
        <time>2013-06-30T07:07:41.999Z</time>
      </trkpt>
      <trkpt lat="46.549" lon="5.93308">
        <ele>962.77661132812</ele>
        <time>2013-06-30T07:07:43.999Z</time>
      </trkpt>
      <trkpt lat="46.54894" lon="5.93298">
        <ele>963.63909912109</ele>
        <time>2013-06-30T07:07:45.999Z</time>
      </trkpt>
      <trkpt lat="46.54889" lon="5.93297">
        <ele>963.69458007812</ele>
        <time>2013-06-30T07:07:47.999Z</time>
      </trkpt>
      <trkpt lat="46.54884" lon="5.93303">
        <ele>964.1787109375</ele>
        <time>2013-06-30T07:08:01.999Z</time>
      </trkpt>
      <trkpt lat="46.54881" lon="5.93309">
        <ele>964.5703125</ele>
        <time>2013-06-30T07:08:03.999Z</time>
      </trkpt>
      <trkpt lat="46.54877" lon="5.93317">
        <ele>965.00854492188</ele>
        <time>2013-06-30T07:08:05.999Z</time>
      </trkpt>
      <trkpt lat="46.54875" lon="5.93324">
        <ele>965.29931640625</ele>
        <time>2013-06-30T07:08:07.999Z</time>
      </trkpt>
      <trkpt lat="46.54872" lon="5.93332">
        <ele>965.44769287109</ele>
        <time>2013-06-30T07:08:09.999Z</time>
      </trkpt>
      <trkpt lat="46.54868" lon="5.93341">
        <ele>965.57098388672</ele>
        <time>2013-06-30T07:08:11.999Z</time>
      </trkpt>
      <trkpt lat="46.54863" lon="5.9335">
        <ele>965.9521484375</ele>
        <time>2013-06-30T07:08:13.999Z</time>
      </trkpt>
      <trkpt lat="46.54857" lon="5.9336">
        <ele>966.55578613281</ele>
        <time>2013-06-30T07:08:15.999Z</time>
      </trkpt>
      <trkpt lat="46.54852" lon="5.93369">
        <ele>966.79534912109</ele>
        <time>2013-06-30T07:08:17.999Z</time>
      </trkpt>
      <trkpt lat="46.54846" lon="5.93381">
        <ele>966.76983642578</ele>
        <time>2013-06-30T07:08:19.999Z</time>
      </trkpt>
      <trkpt lat="46.5484" lon="5.93392">
        <ele>966.49188232422</ele>
        <time>2013-06-30T07:08:21.999Z</time>
      </trkpt>
      <trkpt lat="46.54834" lon="5.93403">
        <ele>966.08062744141</ele>
        <time>2013-06-30T07:08:23.999Z</time>
      </trkpt>
      <trkpt lat="46.54828" lon="5.93415">
        <ele>965.603515625</ele>
        <time>2013-06-30T07:08:25.999Z</time>
      </trkpt>
      <trkpt lat="46.54821" lon="5.93428">
        <ele>965.09509277344</ele>
        <time>2013-06-30T07:08:27.999Z</time>
      </trkpt>
      <trkpt lat="46.54815" lon="5.9344">
        <ele>964.63006591797</ele>
        <time>2013-06-30T07:08:29.999Z</time>
      </trkpt>
      <trkpt lat="46.54808" lon="5.93453">
        <ele>964.05603027344</ele>
        <time>2013-06-30T07:08:31.999Z</time>
      </trkpt>
      <trkpt lat="46.54801" lon="5.93466">
        <ele>963.56195068359</ele>
        <time>2013-06-30T07:08:33.999Z</time>
      </trkpt>
      <trkpt lat="46.54793" lon="5.93477">
        <ele>962.98852539062</ele>
        <time>2013-06-30T07:08:35.999Z</time>
      </trkpt>
      <trkpt lat="46.54782" lon="5.93485">
        <ele>962.24066162109</ele>
        <time>2013-06-30T07:08:37.999Z</time>
      </trkpt>
      <trkpt lat="46.54772" lon="5.93487">
        <ele>961.85827636719</ele>
        <time>2013-06-30T07:08:39.999Z</time>
      </trkpt>
      <trkpt lat="46.54761" lon="5.93487">
        <ele>961.72863769531</ele>
        <time>2013-06-30T07:08:41.999Z</time>
      </trkpt>
      <trkpt lat="46.5475" lon="5.93486">
        <ele>961.36291503906</ele>
        <time>2013-06-30T07:08:43.999Z</time>
      </trkpt>
      <trkpt lat="46.5474" lon="5.93486">
        <ele>961.07983398438</ele>
        <time>2013-06-30T07:08:45.999Z</time>
      </trkpt>
      <trkpt lat="46.5473" lon="5.93485">
        <ele>960.88793945312</ele>
        <time>2013-06-30T07:08:47.999Z</time>
      </trkpt>
      <trkpt lat="46.5472" lon="5.93484">
        <ele>960.84979248047</ele>
        <time>2013-06-30T07:08:49.999Z</time>
      </trkpt>
      <trkpt lat="46.5471" lon="5.93485">
        <ele>960.98443603516</ele>
        <time>2013-06-30T07:08:51.999Z</time>
      </trkpt>
      <trkpt lat="46.54701" lon="5.93487">
        <ele>961.32067871094</ele>
        <time>2013-06-30T07:08:53.999Z</time>
      </trkpt>
      <trkpt lat="46.54691" lon="5.93493">
        <ele>961.68414306641</ele>
        <time>2013-06-30T07:08:55.999Z</time>
      </trkpt>
      <trkpt lat="46.54681" lon="5.93501">
        <ele>961.72711181641</ele>
        <time>2013-06-30T07:08:57.999Z</time>
      </trkpt>
      <trkpt lat="46.54673" lon="5.9351">
        <ele>961.64001464844</ele>
        <time>2013-06-30T07:08:59.999Z</time>
      </trkpt>
      <trkpt lat="46.54666" lon="5.93518">
        <ele>961.71649169922</ele>
        <time>2013-06-30T07:09:01.999Z</time>
      </trkpt>
      <trkpt lat="46.54659" lon="5.93525">
        <ele>961.90185546875</ele>
        <time>2013-06-30T07:09:03.999Z</time>
      </trkpt>
      <trkpt lat="46.54652" lon="5.93532">
        <ele>962.22149658203</ele>
        <time>2013-06-30T07:09:05.999Z</time>
      </trkpt>
      <trkpt lat="46.54645" lon="5.93537">
        <ele>962.69885253906</ele>
        <time>2013-06-30T07:09:07.999Z</time>
      </trkpt>
      <trkpt lat="46.54637" lon="5.93541">
        <ele>962.95355224609</ele>
        <time>2013-06-30T07:09:09.999Z</time>
      </trkpt>
      <trkpt lat="46.5463" lon="5.93543">
        <ele>963.31817626953</ele>
        <time>2013-06-30T07:09:11.999Z</time>
      </trkpt>
      <trkpt lat="46.54623" lon="5.93545">
        <ele>963.75073242188</ele>
        <time>2013-06-30T07:09:13.999Z</time>
      </trkpt>
      <trkpt lat="46.54615" lon="5.93546">
        <ele>964.04241943359</ele>
        <time>2013-06-30T07:09:15.999Z</time>
      </trkpt>
      <trkpt lat="46.54609" lon="5.93546">
        <ele>964.10339355469</ele>
        <time>2013-06-30T07:09:17.999Z</time>
      </trkpt>
      <trkpt lat="46.54603" lon="5.93547">
        <ele>964.21472167969</ele>
        <time>2013-06-30T07:09:19.999Z</time>
      </trkpt>
      <trkpt lat="46.54596" lon="5.93548">
        <ele>964.36102294922</ele>
        <time>2013-06-30T07:09:21.999Z</time>
      </trkpt>
      <trkpt lat="46.5459" lon="5.93553">
        <ele>964.52453613281</ele>
        <time>2013-06-30T07:09:23.999Z</time>
      </trkpt>
      <trkpt lat="46.54584" lon="5.93559">
        <ele>964.68585205078</ele>
        <time>2013-06-30T07:09:25.999Z</time>
      </trkpt>
      <trkpt lat="46.5458" lon="5.93566">
        <ele>964.84912109375</ele>
        <time>2013-06-30T07:09:27.999Z</time>
      </trkpt>
      <trkpt lat="46.54577" lon="5.93575">
        <ele>965.02404785156</ele>
        <time>2013-06-30T07:09:29.999Z</time>
      </trkpt>
      <trkpt lat="46.54576" lon="5.93585">
        <ele>965.19476318359</ele>
        <time>2013-06-30T07:09:31.999Z</time>
      </trkpt>
      <trkpt lat="46.54577" lon="5.93594">
        <ele>965.39605712891</ele>
        <time>2013-06-30T07:09:33.999Z</time>
      </trkpt>
      <trkpt lat="46.54579" lon="5.93602">
        <ele>965.65112304688</ele>
        <time>2013-06-30T07:09:35.999Z</time>
      </trkpt>
      <trkpt lat="46.54579" lon="5.93612">
        <ele>965.89923095703</ele>
        <time>2013-06-30T07:09:37.999Z</time>
      </trkpt>
      <trkpt lat="46.5458" lon="5.93621">
        <ele>966.17993164062</ele>
        <time>2013-06-30T07:09:39.999Z</time>
      </trkpt>
      <trkpt lat="46.54581" lon="5.9363">
        <ele>966.44274902344</ele>
        <time>2013-06-30T07:09:41.999Z</time>
      </trkpt>
      <trkpt lat="46.54582" lon="5.93639">
        <ele>966.70928955078</ele>
        <time>2013-06-30T07:09:43.999Z</time>
      </trkpt>
      <trkpt lat="46.54585" lon="5.93647">
        <ele>967.05548095703</ele>
        <time>2013-06-30T07:09:45.999Z</time>
      </trkpt>
      <trkpt lat="46.54587" lon="5.93654">
        <ele>967.51446533203</ele>
        <time>2013-06-30T07:09:47.999Z</time>
      </trkpt>
      <trkpt lat="46.54592" lon="5.93661">
        <ele>967.98272705078</ele>
        <time>2013-06-30T07:09:49.999Z</time>
      </trkpt>
      <trkpt lat="46.54595" lon="5.93667">
        <ele>968.42120361328</ele>
        <time>2013-06-30T07:09:51.999Z</time>
      </trkpt>
      <trkpt lat="46.546" lon="5.93674">
        <ele>968.92663574219</ele>
        <time>2013-06-30T07:09:53.999Z</time>
      </trkpt>
      <trkpt lat="46.54603" lon="5.93679">
        <ele>969.52484130859</ele>
        <time>2013-06-30T07:09:55.999Z</time>
      </trkpt>
      <trkpt lat="46.54607" lon="5.93686">
        <ele>970.20275878906</ele>
        <time>2013-06-30T07:09:57.999Z</time>
      </trkpt>
      <trkpt lat="46.5461" lon="5.93692">
        <ele>970.98394775391</ele>
        <time>2013-06-30T07:09:59.999Z</time>
      </trkpt>
      <trkpt lat="46.54612" lon="5.937">
        <ele>971.78631591797</ele>
        <time>2013-06-30T07:10:01.999Z</time>
      </trkpt>
      <trkpt lat="46.54614" lon="5.93709">
        <ele>972.56475830078</ele>
        <time>2013-06-30T07:10:03.999Z</time>
      </trkpt>
      <trkpt lat="46.54613" lon="5.93716">
        <ele>973.35498046875</ele>
        <time>2013-06-30T07:10:05.999Z</time>
      </trkpt>
      <trkpt lat="46.5461" lon="5.93722">
        <ele>974.0888671875</ele>
        <time>2013-06-30T07:10:07.999Z</time>
      </trkpt>
      <trkpt lat="46.54606" lon="5.93728">
        <ele>974.80676269531</ele>
        <time>2013-06-30T07:10:09.999Z</time>
      </trkpt>
      <trkpt lat="46.54601" lon="5.93733">
        <ele>975.34002685547</ele>
        <time>2013-06-30T07:10:11.999Z</time>
      </trkpt>
      <trkpt lat="46.54595" lon="5.93737">
        <ele>975.76538085938</ele>
        <time>2013-06-30T07:10:13.999Z</time>
      </trkpt>
      <trkpt lat="46.54589" lon="5.9374">
        <ele>976.19927978516</ele>
        <time>2013-06-30T07:10:15.999Z</time>
      </trkpt>
      <trkpt lat="46.54584" lon="5.93743">
        <ele>976.60998535156</ele>
        <time>2013-06-30T07:10:17.999Z</time>
      </trkpt>
      <trkpt lat="46.54579" lon="5.93745">
        <ele>976.98236083984</ele>
        <time>2013-06-30T07:10:19.999Z</time>
      </trkpt>
      <trkpt lat="46.54574" lon="5.93748">
        <ele>977.32580566406</ele>
        <time>2013-06-30T07:10:21.999Z</time>
      </trkpt>
      <trkpt lat="46.54569" lon="5.9375">
        <ele>977.68994140625</ele>
        <time>2013-06-30T07:10:23.999Z</time>
      </trkpt>
      <trkpt lat="46.54563" lon="5.93752">
        <ele>978.05340576172</ele>
        <time>2013-06-30T07:10:25.999Z</time>
      </trkpt>
      <trkpt lat="46.54557" lon="5.93754">
        <ele>978.40838623047</ele>
        <time>2013-06-30T07:10:27.999Z</time>
      </trkpt>
      <trkpt lat="46.54551" lon="5.93757">
        <ele>978.73803710938</ele>
        <time>2013-06-30T07:10:29.999Z</time>
      </trkpt>
      <trkpt lat="46.54546" lon="5.93758">
        <ele>979.05419921875</ele>
        <time>2013-06-30T07:10:31.999Z</time>
      </trkpt>
      <trkpt lat="46.5454" lon="5.93761">
        <ele>979.38922119141</ele>
        <time>2013-06-30T07:10:33.999Z</time>
      </trkpt>
      <trkpt lat="46.54535" lon="5.93763">
        <ele>979.73156738281</ele>
        <time>2013-06-30T07:10:35.999Z</time>
      </trkpt>
      <trkpt lat="46.54529" lon="5.93762">
        <ele>980.06726074219</ele>
        <time>2013-06-30T07:10:37.999Z</time>
      </trkpt>
      <trkpt lat="46.54523" lon="5.93761">
        <ele>980.38879394531</ele>
        <time>2013-06-30T07:10:39.999Z</time>
      </trkpt>
      <trkpt lat="46.54517" lon="5.93758">
        <ele>980.703125</ele>
        <time>2013-06-30T07:10:41.999Z</time>
      </trkpt>
      <trkpt lat="46.54511" lon="5.93753">
        <ele>981.021484375</ele>
        <time>2013-06-30T07:10:43.999Z</time>
      </trkpt>
      <trkpt lat="46.54507" lon="5.93747">
        <ele>981.32635498047</ele>
        <time>2013-06-30T07:10:45.999Z</time>
      </trkpt>
      <trkpt lat="46.54503" lon="5.9374">
        <ele>981.57366943359</ele>
        <time>2013-06-30T07:10:47.999Z</time>
      </trkpt>
      <trkpt lat="46.54498" lon="5.93732">
        <ele>981.91644287109</ele>
        <time>2013-06-30T07:10:49.999Z</time>
      </trkpt>
      <trkpt lat="46.54495" lon="5.93726">
        <ele>982.35064697266</ele>
        <time>2013-06-30T07:10:51.999Z</time>
      </trkpt>
      <trkpt lat="46.54492" lon="5.9372">
        <ele>982.76538085938</ele>
        <time>2013-06-30T07:10:53.999Z</time>
      </trkpt>
      <trkpt lat="46.54488" lon="5.93713">
        <ele>983.17858886719</ele>
        <time>2013-06-30T07:10:55.999Z</time>
      </trkpt>
      <trkpt lat="46.54483" lon="5.93706">
        <ele>983.64764404297</ele>
        <time>2013-06-30T07:10:57.999Z</time>
      </trkpt>
      <trkpt lat="46.54478" lon="5.937">
        <ele>984.06317138672</ele>
        <time>2013-06-30T07:10:59.999Z</time>
      </trkpt>
      <trkpt lat="46.54474" lon="5.93694">
        <ele>984.49401855469</ele>
        <time>2013-06-30T07:11:01.999Z</time>
      </trkpt>
      <trkpt lat="46.54469" lon="5.93688">
        <ele>984.99395751953</ele>
        <time>2013-06-30T07:11:03.999Z</time>
      </trkpt>
      <trkpt lat="46.54464" lon="5.93684">
        <ele>985.47900390625</ele>
        <time>2013-06-30T07:11:05.999Z</time>
      </trkpt>
      <trkpt lat="46.5446" lon="5.93681">
        <ele>985.931640625</ele>
        <time>2013-06-30T07:11:07.999Z</time>
      </trkpt>
      <trkpt lat="46.54454" lon="5.93675">
        <ele>986.71038818359</ele>
        <time>2013-06-30T07:11:10.999Z</time>
      </trkpt>
      <trkpt lat="46.54449" lon="5.93671">
        <ele>987.232421875</ele>
        <time>2013-06-30T07:11:12.999Z</time>
      </trkpt>
      <trkpt lat="46.54443" lon="5.93666">
        <ele>987.73516845703</ele>
        <time>2013-06-30T07:11:14.999Z</time>
      </trkpt>
      <trkpt lat="46.54437" lon="5.93659">
        <ele>988.20220947266</ele>
        <time>2013-06-30T07:11:16.999Z</time>
      </trkpt>
      <trkpt lat="46.54433" lon="5.93651">
        <ele>988.70251464844</ele>
        <time>2013-06-30T07:11:18.999Z</time>
      </trkpt>
      <trkpt lat="46.54431" lon="5.93644">
        <ele>989.17730712891</ele>
        <time>2013-06-30T07:11:20.999Z</time>
      </trkpt>
      <trkpt lat="46.5443" lon="5.93636">
        <ele>989.59210205078</ele>
        <time>2013-06-30T07:11:22.999Z</time>
      </trkpt>
      <trkpt lat="46.5443" lon="5.93629">
        <ele>989.95025634766</ele>
        <time>2013-06-30T07:11:24.999Z</time>
      </trkpt>
      <trkpt lat="46.54431" lon="5.93621">
        <ele>990.25006103516</ele>
        <time>2013-06-30T07:11:26.999Z</time>
      </trkpt>
      <trkpt lat="46.54433" lon="5.93613">
        <ele>990.58587646484</ele>
        <time>2013-06-30T07:11:28.999Z</time>
      </trkpt>
      <trkpt lat="46.54434" lon="5.93606">
        <ele>991.04351806641</ele>
        <time>2013-06-30T07:11:30.999Z</time>
      </trkpt>
      <trkpt lat="46.54435" lon="5.93599">
        <ele>991.57635498047</ele>
        <time>2013-06-30T07:11:32.999Z</time>
      </trkpt>
      <trkpt lat="46.54434" lon="5.93592">
        <ele>992.158203125</ele>
        <time>2013-06-30T07:11:34.999Z</time>
      </trkpt>
      <trkpt lat="46.54433" lon="5.93584">
        <ele>992.85345458984</ele>
        <time>2013-06-30T07:11:36.999Z</time>
      </trkpt>
      <trkpt lat="46.54431" lon="5.93578">
        <ele>993.56561279297</ele>
        <time>2013-06-30T07:11:38.999Z</time>
      </trkpt>
      <trkpt lat="46.54428" lon="5.9357">
        <ele>994.60180664062</ele>
        <time>2013-06-30T07:11:41.999Z</time>
      </trkpt>
      <trkpt lat="46.54424" lon="5.93564">
        <ele>995.59112548828</ele>
        <time>2013-06-30T07:11:44.999Z</time>
      </trkpt>
      <trkpt lat="46.54421" lon="5.9356">
        <ele>996.27429199219</ele>
        <time>2013-06-30T07:11:46.999Z</time>
      </trkpt>
      <trkpt lat="46.54416" lon="5.93556">
        <ele>996.935546875</ele>
        <time>2013-06-30T07:11:48.999Z</time>
      </trkpt>
      <trkpt lat="46.5441" lon="5.93553">
        <ele>997.54638671875</ele>
        <time>2013-06-30T07:11:50.999Z</time>
      </trkpt>
      <trkpt lat="46.54406" lon="5.93552">
        <ele>998.20080566406</ele>
        <time>2013-06-30T07:11:52.999Z</time>
      </trkpt>
      <trkpt lat="46.54399" lon="5.93549">
        <ele>999.04437255859</ele>
        <time>2013-06-30T07:11:55.999Z</time>
      </trkpt>
      <trkpt lat="46.54393" lon="5.93547">
        <ele>999.53820800781</ele>
        <time>2013-06-30T07:11:57.999Z</time>
      </trkpt>
      <trkpt lat="46.54386" lon="5.93546">
        <ele>1000.0932006836</ele>
        <time>2013-06-30T07:11:59.999Z</time>
      </trkpt>
      <trkpt lat="46.54379" lon="5.93544">
        <ele>1000.6533203125</ele>
        <time>2013-06-30T07:12:01.999Z</time>
      </trkpt>
      <trkpt lat="46.54371" lon="5.93541">
        <ele>1001.1504516602</ele>
        <time>2013-06-30T07:12:03.999Z</time>
      </trkpt>
      <trkpt lat="46.54362" lon="5.9354">
        <ele>1001.4876708984</ele>
        <time>2013-06-30T07:12:05.999Z</time>
      </trkpt>
      <trkpt lat="46.54357" lon="5.9354">
        <ele>1001.787902832</ele>
        <time>2013-06-30T07:12:07.999Z</time>
      </trkpt>
      <trkpt lat="46.54352" lon="5.93539">
        <ele>1002.1567993164</ele>
        <time>2013-06-30T07:12:09.999Z</time>
      </trkpt>
      <trkpt lat="46.54345" lon="5.93538">
        <ele>1002.6245727539</ele>
        <time>2013-06-30T07:12:12.999Z</time>
      </trkpt>
      <trkpt lat="46.5434" lon="5.93537">
        <ele>1002.9325561523</ele>
        <time>2013-06-30T07:12:14.999Z</time>
      </trkpt>
      <trkpt lat="46.54334" lon="5.93537">
        <ele>1003.2052001953</ele>
        <time>2013-06-30T07:12:16.999Z</time>
      </trkpt>
      <trkpt lat="46.54329" lon="5.93537">
        <ele>1003.370300293</ele>
        <time>2013-06-30T07:12:18.999Z</time>
      </trkpt>
      <trkpt lat="46.54321" lon="5.93535">
        <ele>1003.7299194336</ele>
        <time>2013-06-30T07:12:20.999Z</time>
      </trkpt>
      <trkpt lat="46.54312" lon="5.9353">
        <ele>1004.0986328125</ele>
        <time>2013-06-30T07:12:22.999Z</time>
      </trkpt>
      <trkpt lat="46.54302" lon="5.93524">
        <ele>1004.4590454102</ele>
        <time>2013-06-30T07:12:24.999Z</time>
      </trkpt>
      <trkpt lat="46.54296" lon="5.93521">
        <ele>1004.8325805664</ele>
        <time>2013-06-30T07:12:26.999Z</time>
      </trkpt>
      <trkpt lat="46.54289" lon="5.93516">
        <ele>1005.1895751953</ele>
        <time>2013-06-30T07:12:28.999Z</time>
      </trkpt>
      <trkpt lat="46.54283" lon="5.9351">
        <ele>1005.4470825195</ele>
        <time>2013-06-30T07:12:30.999Z</time>
      </trkpt>
      <trkpt lat="46.54277" lon="5.93503">
        <ele>1005.7747802734</ele>
        <time>2013-06-30T07:12:32.999Z</time>
      </trkpt>
      <trkpt lat="46.54271" lon="5.93496">
        <ele>1006.0104980469</ele>
        <time>2013-06-30T07:12:34.999Z</time>
      </trkpt>
      <trkpt lat="46.54265" lon="5.93488">
        <ele>1007.7232055664</ele>
        <time>2013-06-30T07:12:36.999Z</time>
      </trkpt>
      <trkpt lat="46.54258" lon="5.9348">
        <ele>1008.1799926758</ele>
        <time>2013-06-30T07:12:38.999Z</time>
      </trkpt>
      <trkpt lat="46.54252" lon="5.93473">
        <ele>1008.7305908203</ele>
        <time>2013-06-30T07:12:40.999Z</time>
      </trkpt>
      <trkpt lat="46.54246" lon="5.93465">
        <ele>1008.7023925781</ele>
        <time>2013-06-30T07:12:42.999Z</time>
      </trkpt>
      <trkpt lat="46.54241" lon="5.93458">
        <ele>1008.8958740234</ele>
        <time>2013-06-30T07:12:44.999Z</time>
      </trkpt>
      <trkpt lat="46.54234" lon="5.93452">
        <ele>1008.7032470703</ele>
        <time>2013-06-30T07:12:46.999Z</time>
      </trkpt>
      <trkpt lat="46.54225" lon="5.93444">
        <ele>1007.8922729492</ele>
        <time>2013-06-30T07:12:48.999Z</time>
      </trkpt>
      <trkpt lat="46.54215" lon="5.93434">
        <ele>1007.0971679688</ele>
        <time>2013-06-30T07:12:50.999Z</time>
      </trkpt>
      <trkpt lat="46.54206" lon="5.93425">
        <ele>1006.2064819336</ele>
        <time>2013-06-30T07:12:52.999Z</time>
      </trkpt>
      <trkpt lat="46.54198" lon="5.93416">
        <ele>1005.5859985352</ele>
        <time>2013-06-30T07:12:54.999Z</time>
      </trkpt>
      <trkpt lat="46.54189" lon="5.93408">
        <ele>1005.5395507812</ele>
        <time>2013-06-30T07:12:56.999Z</time>
      </trkpt>
      <trkpt lat="46.5418" lon="5.93398">
        <ele>1006.4003295898</ele>
        <time>2013-06-30T07:12:58.999Z</time>
      </trkpt>
      <trkpt lat="46.54172" lon="5.93387">
        <ele>1006.4495849609</ele>
        <time>2013-06-30T07:13:00.999Z</time>
      </trkpt>
      <trkpt lat="46.54165" lon="5.93376">
        <ele>1005.4706420898</ele>
        <time>2013-06-30T07:13:02.999Z</time>
      </trkpt>
      <trkpt lat="46.54159" lon="5.93364">
        <ele>1004.4387817383</ele>
        <time>2013-06-30T07:13:04.999Z</time>
      </trkpt>
      <trkpt lat="46.54149" lon="5.93349">
        <ele>1005.1151123047</ele>
        <time>2013-06-30T07:13:06.999Z</time>
      </trkpt>
      <trkpt lat="46.54133" lon="5.93332">
        <ele>1005.3085327148</ele>
        <time>2013-06-30T07:13:08.999Z</time>
      </trkpt>
      <trkpt lat="46.54117" lon="5.93317">
        <ele>1005.376159668</ele>
        <time>2013-06-30T07:13:10.999Z</time>
      </trkpt>
      <trkpt lat="46.54104" lon="5.93304">
        <ele>1005.4599609375</ele>
        <time>2013-06-30T07:13:12.999Z</time>
      </trkpt>
      <trkpt lat="46.54092" lon="5.93291">
        <ele>1004.6502685547</ele>
        <time>2013-06-30T07:13:14.999Z</time>
      </trkpt>
      <trkpt lat="46.5408" lon="5.93279">
        <ele>1003.561340332</ele>
        <time>2013-06-30T07:13:16.999Z</time>
      </trkpt>
      <trkpt lat="46.5407" lon="5.93267">
        <ele>1003.0260009766</ele>
        <time>2013-06-30T07:13:18.999Z</time>
      </trkpt>
      <trkpt lat="46.54061" lon="5.93255">
        <ele>1003.2283935547</ele>
        <time>2013-06-30T07:13:20.999Z</time>
      </trkpt>
      <trkpt lat="46.54054" lon="5.9324">
        <ele>1003.4003295898</ele>
        <time>2013-06-30T07:13:22.999Z</time>
      </trkpt>
      <trkpt lat="46.54051" lon="5.93224">
        <ele>1002.8944091797</ele>
        <time>2013-06-30T07:13:24.999Z</time>
      </trkpt>
      <trkpt lat="46.54051" lon="5.93208">
        <ele>1002.1730957031</ele>
        <time>2013-06-30T07:13:26.999Z</time>
      </trkpt>
      <trkpt lat="46.54048" lon="5.93194">
        <ele>1001.3078613281</ele>
        <time>2013-06-30T07:13:28.999Z</time>
      </trkpt>
      <trkpt lat="46.54041" lon="5.93176">
        <ele>1001.0717163086</ele>
        <time>2013-06-30T07:13:30.999Z</time>
      </trkpt>
      <trkpt lat="46.54029" lon="5.93153">
        <ele>1001.0410766602</ele>
        <time>2013-06-30T07:13:32.999Z</time>
      </trkpt>
      <trkpt lat="46.54017" lon="5.93135">
        <ele>1000.4252929688</ele>
        <time>2013-06-30T07:13:34.999Z</time>
      </trkpt>
      <trkpt lat="46.54003" lon="5.93116">
        <ele>999.89111328125</ele>
        <time>2013-06-30T07:13:36.999Z</time>
      </trkpt>
      <trkpt lat="46.53987" lon="5.93094">
        <ele>999.7900390625</ele>
        <time>2013-06-30T07:13:38.999Z</time>
      </trkpt>
      <trkpt lat="46.53972" lon="5.93073">
        <ele>998.84393310547</ele>
        <time>2013-06-30T07:13:40.999Z</time>
      </trkpt>
      <trkpt lat="46.53957" lon="5.93052">
        <ele>997.14038085938</ele>
        <time>2013-06-30T07:13:42.999Z</time>
      </trkpt>
      <trkpt lat="46.53942" lon="5.93029">
        <ele>996.03405761719</ele>
        <time>2013-06-30T07:13:44.999Z</time>
      </trkpt>
      <trkpt lat="46.53927" lon="5.93001">
        <ele>993.61102294922</ele>
        <time>2013-06-30T07:13:46.999Z</time>
      </trkpt>
      <trkpt lat="46.53912" lon="5.92975">
        <ele>990.65539550781</ele>
        <time>2013-06-30T07:13:48.999Z</time>
      </trkpt>
      <trkpt lat="46.53898" lon="5.92949">
        <ele>987.70684814453</ele>
        <time>2013-06-30T07:13:50.999Z</time>
      </trkpt>
      <trkpt lat="46.53883" lon="5.92921">
        <ele>985.1318359375</ele>
        <time>2013-06-30T07:13:52.999Z</time>
      </trkpt>
      <trkpt lat="46.53868" lon="5.92891">
        <ele>981.32446289062</ele>
        <time>2013-06-30T07:13:54.999Z</time>
      </trkpt>
      <trkpt lat="46.53852" lon="5.92861">
        <ele>977.58703613281</ele>
        <time>2013-06-30T07:13:56.999Z</time>
      </trkpt>
      <trkpt lat="46.53835" lon="5.9283">
        <ele>974.8369140625</ele>
        <time>2013-06-30T07:13:58.999Z</time>
      </trkpt>
      <trkpt lat="46.53821" lon="5.92799">
        <ele>972.21832275391</ele>
        <time>2013-06-30T07:14:00.999Z</time>
      </trkpt>
      <trkpt lat="46.53811" lon="5.92768">
        <ele>969.841796875</ele>
        <time>2013-06-30T07:14:02.999Z</time>
      </trkpt>
      <trkpt lat="46.5381" lon="5.92736">
        <ele>967.24578857422</ele>
        <time>2013-06-30T07:14:04.999Z</time>
      </trkpt>
      <trkpt lat="46.5381" lon="5.92705">
        <ele>964.55029296875</ele>
        <time>2013-06-30T07:14:06.999Z</time>
      </trkpt>
      <trkpt lat="46.53805" lon="5.92678">
        <ele>962.68804931641</ele>
        <time>2013-06-30T07:14:08.999Z</time>
      </trkpt>
      <trkpt lat="46.53796" lon="5.92651">
        <ele>961.07269287109</ele>
        <time>2013-06-30T07:14:10.999Z</time>
      </trkpt>
      <trkpt lat="46.53785" lon="5.92623">
        <ele>958.62573242188</ele>
        <time>2013-06-30T07:14:12.999Z</time>
      </trkpt>
      <trkpt lat="46.53778" lon="5.92594">
        <ele>956.79168701172</ele>
        <time>2013-06-30T07:14:14.999Z</time>
      </trkpt>
      <trkpt lat="46.53775" lon="5.9256">
        <ele>954.27337646484</ele>
        <time>2013-06-30T07:14:16.999Z</time>
      </trkpt>
      <trkpt lat="46.53776" lon="5.92528">
        <ele>951.98645019531</ele>
        <time>2013-06-30T07:14:18.999Z</time>
      </trkpt>
      <trkpt lat="46.53783" lon="5.92494">
        <ele>949.94018554688</ele>
        <time>2013-06-30T07:14:20.999Z</time>
      </trkpt>
      <trkpt lat="46.53792" lon="5.92461">
        <ele>947.54235839844</ele>
        <time>2013-06-30T07:14:22.999Z</time>
      </trkpt>
      <trkpt lat="46.53801" lon="5.92429">
        <ele>945.36785888672</ele>
        <time>2013-06-30T07:14:24.999Z</time>
      </trkpt>
      <trkpt lat="46.53809" lon="5.92399">
        <ele>943.63427734375</ele>
        <time>2013-06-30T07:14:26.999Z</time>
      </trkpt>
      <trkpt lat="46.53817" lon="5.9237">
        <ele>942.25628662109</ele>
        <time>2013-06-30T07:14:28.999Z</time>
      </trkpt>
      <trkpt lat="46.53824" lon="5.92343">
        <ele>941.14416503906</ele>
        <time>2013-06-30T07:14:30.999Z</time>
      </trkpt>
      <trkpt lat="46.53828" lon="5.92325">
        <ele>940.35095214844</ele>
        <time>2013-06-30T07:14:32.999Z</time>
      </trkpt>
      <trkpt lat="46.53826" lon="5.92311">
        <ele>939.93853759766</ele>
        <time>2013-06-30T07:14:34.999Z</time>
      </trkpt>
      <trkpt lat="46.53819" lon="5.92298">
        <ele>939.50671386719</ele>
        <time>2013-06-30T07:14:36.999Z</time>
      </trkpt>
      <trkpt lat="46.53809" lon="5.92288">
        <ele>939.11987304688</ele>
        <time>2013-06-30T07:14:38.999Z</time>
      </trkpt>
      <trkpt lat="46.53799" lon="5.92282">
        <ele>938.96166992188</ele>
        <time>2013-06-30T07:14:40.999Z</time>
      </trkpt>
      <trkpt lat="46.53788" lon="5.92276">
        <ele>939.15936279297</ele>
        <time>2013-06-30T07:14:42.999Z</time>
      </trkpt>
      <trkpt lat="46.53777" lon="5.92269">
        <ele>939.18878173828</ele>
        <time>2013-06-30T07:14:44.999Z</time>
      </trkpt>
      <trkpt lat="46.53765" lon="5.92261">
        <ele>938.52813720703</ele>
        <time>2013-06-30T07:14:46.999Z</time>
      </trkpt>
      <trkpt lat="46.53753" lon="5.92253">
        <ele>937.69226074219</ele>
        <time>2013-06-30T07:14:48.999Z</time>
      </trkpt>
      <trkpt lat="46.53739" lon="5.92246">
        <ele>936.91912841797</ele>
        <time>2013-06-30T07:14:50.999Z</time>
      </trkpt>
      <trkpt lat="46.53725" lon="5.92238">
        <ele>936.14196777344</ele>
        <time>2013-06-30T07:14:52.999Z</time>
      </trkpt>
      <trkpt lat="46.5371" lon="5.9223">
        <ele>935.31915283203</ele>
        <time>2013-06-30T07:14:54.999Z</time>
      </trkpt>
      <trkpt lat="46.53695" lon="5.92221">
        <ele>934.49981689453</ele>
        <time>2013-06-30T07:14:56.999Z</time>
      </trkpt>
      <trkpt lat="46.5368" lon="5.9221">
        <ele>933.67974853516</ele>
        <time>2013-06-30T07:14:58.999Z</time>
      </trkpt>
      <trkpt lat="46.53665" lon="5.92198">
        <ele>932.82586669922</ele>
        <time>2013-06-30T07:15:00.999Z</time>
      </trkpt>
      <trkpt lat="46.53652" lon="5.92186">
        <ele>932.00140380859</ele>
        <time>2013-06-30T07:15:02.999Z</time>
      </trkpt>
      <trkpt lat="46.53645" lon="5.92176">
        <ele>931.46569824219</ele>
        <time>2013-06-30T07:15:04.999Z</time>
      </trkpt>
      <trkpt lat="46.53641" lon="5.9217">
        <ele>931.46630859375</ele>
        <time>2013-06-30T07:15:06.999Z</time>
      </trkpt>
      <trkpt lat="46.53636" lon="5.92165">
        <ele>931.404296875</ele>
        <time>2013-06-30T07:15:08.999Z</time>
      </trkpt>
      <trkpt lat="46.5363" lon="5.92168">
        <ele>931.36633300781</ele>
        <time>2013-06-30T07:15:10.999Z</time>
      </trkpt>
      <trkpt lat="46.53625" lon="5.92172">
        <ele>931.42791748047</ele>
        <time>2013-06-30T07:15:16.999Z</time>
      </trkpt>
      <trkpt lat="46.5362" lon="5.92175">
        <ele>931.46765136719</ele>
        <time>2013-06-30T07:15:18.999Z</time>
      </trkpt>
      <trkpt lat="46.53613" lon="5.92178">
        <ele>931.46142578125</ele>
        <time>2013-06-30T07:15:20.999Z</time>
      </trkpt>
      <trkpt lat="46.53605" lon="5.92182">
        <ele>931.34466552734</ele>
        <time>2013-06-30T07:15:22.999Z</time>
      </trkpt>
      <trkpt lat="46.53595" lon="5.92185">
        <ele>931.38983154297</ele>
        <time>2013-06-30T07:15:24.999Z</time>
      </trkpt>
      <trkpt lat="46.53585" lon="5.92188">
        <ele>931.84631347656</ele>
        <time>2013-06-30T07:15:26.999Z</time>
      </trkpt>
      <trkpt lat="46.53577" lon="5.92191">
        <ele>932.02734375</ele>
        <time>2013-06-30T07:15:28.999Z</time>
      </trkpt>
      <trkpt lat="46.53569" lon="5.92195">
        <ele>931.36077880859</ele>
        <time>2013-06-30T07:15:30.999Z</time>
      </trkpt>
      <trkpt lat="46.53559" lon="5.92198">
        <ele>930.49700927734</ele>
        <time>2013-06-30T07:15:32.999Z</time>
      </trkpt>
      <trkpt lat="46.53551" lon="5.92199">
        <ele>929.46636962891</ele>
        <time>2013-06-30T07:15:34.999Z</time>
      </trkpt>
      <trkpt lat="46.53542" lon="5.922">
        <ele>928.53405761719</ele>
        <time>2013-06-30T07:15:36.999Z</time>
      </trkpt>
      <trkpt lat="46.53531" lon="5.922">
        <ele>927.77258300781</ele>
        <time>2013-06-30T07:15:38.999Z</time>
      </trkpt>
      <trkpt lat="46.5352" lon="5.92198">
        <ele>927.49188232422</ele>
        <time>2013-06-30T07:15:40.999Z</time>
      </trkpt>
      <trkpt lat="46.53509" lon="5.92196">
        <ele>927.50091552734</ele>
        <time>2013-06-30T07:15:42.999Z</time>
      </trkpt>
      <trkpt lat="46.53499" lon="5.92192">
        <ele>927.47430419922</ele>
        <time>2013-06-30T07:15:44.999Z</time>
      </trkpt>
      <trkpt lat="46.53489" lon="5.92186">
        <ele>927.29217529297</ele>
        <time>2013-06-30T07:15:46.999Z</time>
      </trkpt>
      <trkpt lat="46.53479" lon="5.9218">
        <ele>926.81799316406</ele>
        <time>2013-06-30T07:15:48.999Z</time>
      </trkpt>
      <trkpt lat="46.53468" lon="5.92173">
        <ele>926.80444335938</ele>
        <time>2013-06-30T07:15:50.999Z</time>
      </trkpt>
      <trkpt lat="46.53458" lon="5.92165">
        <ele>927.09936523438</ele>
        <time>2013-06-30T07:15:52.999Z</time>
      </trkpt>
      <trkpt lat="46.53447" lon="5.92158">
        <ele>927.44750976562</ele>
        <time>2013-06-30T07:15:54.999Z</time>
      </trkpt>
      <trkpt lat="46.53436" lon="5.9215">
        <ele>927.33288574219</ele>
        <time>2013-06-30T07:15:56.999Z</time>
      </trkpt>
      <trkpt lat="46.53425" lon="5.92142">
        <ele>927.04089355469</ele>
        <time>2013-06-30T07:15:58.999Z</time>
      </trkpt>
      <trkpt lat="46.53414" lon="5.92135">
        <ele>927.29376220703</ele>
        <time>2013-06-30T07:16:00.999Z</time>
      </trkpt>
      <trkpt lat="46.53404" lon="5.92127">
        <ele>927.34893798828</ele>
        <time>2013-06-30T07:16:02.999Z</time>
      </trkpt>
      <trkpt lat="46.53393" lon="5.9212">
        <ele>927.81274414062</ele>
        <time>2013-06-30T07:16:04.999Z</time>
      </trkpt>
      <trkpt lat="46.53383" lon="5.92114">
        <ele>929.12347412109</ele>
        <time>2013-06-30T07:16:06.999Z</time>
      </trkpt>
      <trkpt lat="46.53373" lon="5.92108">
        <ele>929.93743896484</ele>
        <time>2013-06-30T07:16:08.999Z</time>
      </trkpt>
      <trkpt lat="46.53362" lon="5.92101">
        <ele>930.01257324219</ele>
        <time>2013-06-30T07:16:10.999Z</time>
      </trkpt>
      <trkpt lat="46.53352" lon="5.92094">
        <ele>929.68469238281</ele>
        <time>2013-06-30T07:16:12.999Z</time>
      </trkpt>
      <trkpt lat="46.53342" lon="5.92087">
        <ele>929.34185791016</ele>
        <time>2013-06-30T07:16:14.999Z</time>
      </trkpt>
      <trkpt lat="46.53333" lon="5.92079">
        <ele>929.40209960938</ele>
        <time>2013-06-30T07:16:16.999Z</time>
      </trkpt>
      <trkpt lat="46.53322" lon="5.92068">
        <ele>929.6484375</ele>
        <time>2013-06-30T07:16:18.999Z</time>
      </trkpt>
      <trkpt lat="46.53311" lon="5.92057">
        <ele>930.27600097656</ele>
        <time>2013-06-30T07:16:20.999Z</time>
      </trkpt>
      <trkpt lat="46.533" lon="5.92044">
        <ele>930.68212890625</ele>
        <time>2013-06-30T07:16:22.999Z</time>
      </trkpt>
      <trkpt lat="46.5329" lon="5.9203">
        <ele>930.30865478516</ele>
        <time>2013-06-30T07:16:24.999Z</time>
      </trkpt>
      <trkpt lat="46.53281" lon="5.92017">
        <ele>930.44976806641</ele>
        <time>2013-06-30T07:16:26.999Z</time>
      </trkpt>
      <trkpt lat="46.53272" lon="5.92004">
        <ele>930.59686279297</ele>
        <time>2013-06-30T07:16:28.999Z</time>
      </trkpt>
      <trkpt lat="46.53263" lon="5.91991">
        <ele>930.55822753906</ele>
        <time>2013-06-30T07:16:30.999Z</time>
      </trkpt>
      <trkpt lat="46.53255" lon="5.91979">
        <ele>931.04998779297</ele>
        <time>2013-06-30T07:16:32.999Z</time>
      </trkpt>
      <trkpt lat="46.53246" lon="5.91967">
        <ele>931.62585449219</ele>
        <time>2013-06-30T07:16:34.999Z</time>
      </trkpt>
      <trkpt lat="46.53238" lon="5.91955">
        <ele>931.75567626953</ele>
        <time>2013-06-30T07:16:36.999Z</time>
      </trkpt>
      <trkpt lat="46.53229" lon="5.91942">
        <ele>931.38214111328</ele>
        <time>2013-06-30T07:16:38.999Z</time>
      </trkpt>
      <trkpt lat="46.53221" lon="5.91928">
        <ele>930.74542236328</ele>
        <time>2013-06-30T07:16:40.999Z</time>
      </trkpt>
      <trkpt lat="46.53212" lon="5.91914">
        <ele>930.25299072266</ele>
        <time>2013-06-30T07:16:42.999Z</time>
      </trkpt>
      <trkpt lat="46.53205" lon="5.91901">
        <ele>929.97351074219</ele>
        <time>2013-06-30T07:16:44.999Z</time>
      </trkpt>
      <trkpt lat="46.53198" lon="5.91887">
        <ele>929.875</ele>
        <time>2013-06-30T07:16:46.999Z</time>
      </trkpt>
      <trkpt lat="46.53191" lon="5.91872">
        <ele>929.61767578125</ele>
        <time>2013-06-30T07:16:48.999Z</time>
      </trkpt>
      <trkpt lat="46.53184" lon="5.91855">
        <ele>929.30773925781</ele>
        <time>2013-06-30T07:16:50.999Z</time>
      </trkpt>
      <trkpt lat="46.53177" lon="5.91839">
        <ele>928.74157714844</ele>
        <time>2013-06-30T07:16:52.999Z</time>
      </trkpt>
      <trkpt lat="46.53168" lon="5.91822">
        <ele>928.16290283203</ele>
        <time>2013-06-30T07:16:54.999Z</time>
      </trkpt>
      <trkpt lat="46.5316" lon="5.91805">
        <ele>927.55035400391</ele>
        <time>2013-06-30T07:16:56.999Z</time>
      </trkpt>
      <trkpt lat="46.53153" lon="5.91789">
        <ele>926.75720214844</ele>
        <time>2013-06-30T07:16:58.999Z</time>
      </trkpt>
      <trkpt lat="46.53146" lon="5.91774">
        <ele>925.91345214844</ele>
        <time>2013-06-30T07:17:00.999Z</time>
      </trkpt>
      <trkpt lat="46.53138" lon="5.91763">
        <ele>925.63519287109</ele>
        <time>2013-06-30T07:17:02.999Z</time>
      </trkpt>
      <trkpt lat="46.53131" lon="5.91755">
        <ele>925.96008300781</ele>
        <time>2013-06-30T07:17:04.999Z</time>
      </trkpt>
      <trkpt lat="46.53123" lon="5.91749">
        <ele>926.99658203125</ele>
        <time>2013-06-30T07:17:06.999Z</time>
      </trkpt>
      <trkpt lat="46.53114" lon="5.91748">
        <ele>927.27429199219</ele>
        <time>2013-06-30T07:17:08.999Z</time>
      </trkpt>
      <trkpt lat="46.53107" lon="5.91746">
        <ele>926.68383789062</ele>
        <time>2013-06-30T07:17:10.999Z</time>
      </trkpt>
      <trkpt lat="46.531" lon="5.91741">
        <ele>926.58227539062</ele>
        <time>2013-06-30T07:17:12.999Z</time>
      </trkpt>
      <trkpt lat="46.53093" lon="5.91733">
        <ele>926.97479248047</ele>
        <time>2013-06-30T07:17:14.999Z</time>
      </trkpt>
      <trkpt lat="46.53086" lon="5.91725">
        <ele>927.69226074219</ele>
        <time>2013-06-30T07:17:16.999Z</time>
      </trkpt>
      <trkpt lat="46.5308" lon="5.91717">
        <ele>928.45275878906</ele>
        <time>2013-06-30T07:17:18.999Z</time>
      </trkpt>
      <trkpt lat="46.53075" lon="5.91711">
        <ele>928.51312255859</ele>
        <time>2013-06-30T07:17:20.999Z</time>
      </trkpt>
      <trkpt lat="46.53069" lon="5.91706">
        <ele>928.58990478516</ele>
        <time>2013-06-30T07:17:22.999Z</time>
      </trkpt>
      <trkpt lat="46.53063" lon="5.917">
        <ele>928.64013671875</ele>
        <time>2013-06-30T07:17:24.999Z</time>
      </trkpt>
      <trkpt lat="46.53058" lon="5.91695">
        <ele>928.66302490234</ele>
        <time>2013-06-30T07:17:26.999Z</time>
      </trkpt>
      <trkpt lat="46.53053" lon="5.91693">
        <ele>928.74194335938</ele>
        <time>2013-06-30T07:17:28.999Z</time>
      </trkpt>
      <trkpt lat="46.53045" lon="5.91691">
        <ele>928.81335449219</ele>
        <time>2013-06-30T07:17:30.999Z</time>
      </trkpt>
      <trkpt lat="46.53037" lon="5.91684">
        <ele>929.43420410156</ele>
        <time>2013-06-30T07:17:32.999Z</time>
      </trkpt>
      <trkpt lat="46.5303" lon="5.91676">
        <ele>930.35339355469</ele>
        <time>2013-06-30T07:17:34.999Z</time>
      </trkpt>
      <trkpt lat="46.53024" lon="5.91669">
        <ele>931.53039550781</ele>
        <time>2013-06-30T07:17:36.999Z</time>
      </trkpt>
      <trkpt lat="46.53017" lon="5.91659">
        <ele>931.810546875</ele>
        <time>2013-06-30T07:17:38.999Z</time>
      </trkpt>
      <trkpt lat="46.53011" lon="5.9165">
        <ele>931.78973388672</ele>
        <time>2013-06-30T07:17:40.999Z</time>
      </trkpt>
      <trkpt lat="46.53006" lon="5.91643">
        <ele>931.80749511719</ele>
        <time>2013-06-30T07:17:42.999Z</time>
      </trkpt>
      <trkpt lat="46.53" lon="5.91635">
        <ele>931.80639648438</ele>
        <time>2013-06-30T07:17:44.999Z</time>
      </trkpt>
      <trkpt lat="46.52995" lon="5.91628">
        <ele>931.84600830078</ele>
        <time>2013-06-30T07:17:46.999Z</time>
      </trkpt>
      <trkpt lat="46.52989" lon="5.91621">
        <ele>931.86236572266</ele>
        <time>2013-06-30T07:17:48.999Z</time>
      </trkpt>
      <trkpt lat="46.52983" lon="5.91614">
        <ele>931.79614257812</ele>
        <time>2013-06-30T07:17:50.999Z</time>
      </trkpt>
      <trkpt lat="46.52977" lon="5.91605">
        <ele>931.66375732422</ele>
        <time>2013-06-30T07:17:52.999Z</time>
      </trkpt>
      <trkpt lat="46.5297" lon="5.91596">
        <ele>931.09979248047</ele>
        <time>2013-06-30T07:17:54.999Z</time>
      </trkpt>
      <trkpt lat="46.52962" lon="5.91586">
        <ele>930.89660644531</ele>
        <time>2013-06-30T07:17:56.999Z</time>
      </trkpt>
      <trkpt lat="46.52956" lon="5.91577">
        <ele>930.64697265625</ele>
        <time>2013-06-30T07:17:58.999Z</time>
      </trkpt>
      <trkpt lat="46.5295" lon="5.91569">
        <ele>930.28131103516</ele>
        <time>2013-06-30T07:18:00.999Z</time>
      </trkpt>
      <trkpt lat="46.52945" lon="5.91562">
        <ele>929.71746826172</ele>
        <time>2013-06-30T07:18:02.999Z</time>
      </trkpt>
      <trkpt lat="46.52939" lon="5.91555">
        <ele>929.78826904297</ele>
        <time>2013-06-30T07:18:04.999Z</time>
      </trkpt>
      <trkpt lat="46.52933" lon="5.91547">
        <ele>929.78948974609</ele>
        <time>2013-06-30T07:18:06.999Z</time>
      </trkpt>
      <trkpt lat="46.52928" lon="5.9154">
        <ele>929.21691894531</ele>
        <time>2013-06-30T07:18:08.999Z</time>
      </trkpt>
      <trkpt lat="46.52921" lon="5.91531">
        <ele>928.24102783203</ele>
        <time>2013-06-30T07:18:10.999Z</time>
      </trkpt>
      <trkpt lat="46.52915" lon="5.91522">
        <ele>927.52386474609</ele>
        <time>2013-06-30T07:18:12.999Z</time>
      </trkpt>
      <trkpt lat="46.5291" lon="5.91515">
        <ele>927.08288574219</ele>
        <time>2013-06-30T07:18:14.999Z</time>
      </trkpt>
      <trkpt lat="46.52903" lon="5.91506">
        <ele>927.29174804688</ele>
        <time>2013-06-30T07:18:16.999Z</time>
      </trkpt>
      <trkpt lat="46.52897" lon="5.91498">
        <ele>928.13842773438</ele>
        <time>2013-06-30T07:18:18.999Z</time>
      </trkpt>
      <trkpt lat="46.52891" lon="5.91491">
        <ele>928.29705810547</ele>
        <time>2013-06-30T07:18:20.999Z</time>
      </trkpt>
      <trkpt lat="46.52886" lon="5.91483">
        <ele>928.41320800781</ele>
        <time>2013-06-30T07:18:22.999Z</time>
      </trkpt>
      <trkpt lat="46.52882" lon="5.91476">
        <ele>928.50549316406</ele>
        <time>2013-06-30T07:18:24.999Z</time>
      </trkpt>
      <trkpt lat="46.52878" lon="5.91471">
        <ele>928.55059814453</ele>
        <time>2013-06-30T07:18:26.999Z</time>
      </trkpt>
      <trkpt lat="46.52873" lon="5.91465">
        <ele>928.56085205078</ele>
        <time>2013-06-30T07:18:28.999Z</time>
      </trkpt>
      <trkpt lat="46.52869" lon="5.9146">
        <ele>928.59497070312</ele>
        <time>2013-06-30T07:18:30.999Z</time>
      </trkpt>
      <trkpt lat="46.52863" lon="5.91453">
        <ele>928.72094726562</ele>
        <time>2013-06-30T07:18:32.999Z</time>
      </trkpt>
      <trkpt lat="46.52858" lon="5.91444">
        <ele>928.82360839844</ele>
        <time>2013-06-30T07:18:34.999Z</time>
      </trkpt>
      <trkpt lat="46.52852" lon="5.91435">
        <ele>929.59155273438</ele>
        <time>2013-06-30T07:18:36.999Z</time>
      </trkpt>
      <trkpt lat="46.52847" lon="5.91424">
        <ele>929.69635009766</ele>
        <time>2013-06-30T07:18:38.999Z</time>
      </trkpt>
      <trkpt lat="46.52841" lon="5.91414">
        <ele>929.60211181641</ele>
        <time>2013-06-30T07:18:40.999Z</time>
      </trkpt>
      <trkpt lat="46.52835" lon="5.91405">
        <ele>929.80279541016</ele>
        <time>2013-06-30T07:18:42.999Z</time>
      </trkpt>
      <trkpt lat="46.52827" lon="5.91395">
        <ele>929.91485595703</ele>
        <time>2013-06-30T07:18:44.999Z</time>
      </trkpt>
      <trkpt lat="46.52821" lon="5.91386">
        <ele>929.96014404297</ele>
        <time>2013-06-30T07:18:46.999Z</time>
      </trkpt>
      <trkpt lat="46.52814" lon="5.91377">
        <ele>930.86932373047</ele>
        <time>2013-06-30T07:18:48.999Z</time>
      </trkpt>
      <trkpt lat="46.52807" lon="5.91366">
        <ele>931.34967041016</ele>
        <time>2013-06-30T07:18:50.999Z</time>
      </trkpt>
      <trkpt lat="46.52799" lon="5.91354">
        <ele>931.14080810547</ele>
        <time>2013-06-30T07:18:52.999Z</time>
      </trkpt>
      <trkpt lat="46.5279" lon="5.91342">
        <ele>930.61010742188</ele>
        <time>2013-06-30T07:18:54.999Z</time>
      </trkpt>
      <trkpt lat="46.52783" lon="5.91332">
        <ele>930.40734863281</ele>
        <time>2013-06-30T07:18:56.999Z</time>
      </trkpt>
      <trkpt lat="46.52776" lon="5.9132">
        <ele>930.02563476562</ele>
        <time>2013-06-30T07:18:58.999Z</time>
      </trkpt>
      <trkpt lat="46.52769" lon="5.91308">
        <ele>929.18804931641</ele>
        <time>2013-06-30T07:19:00.999Z</time>
      </trkpt>
      <trkpt lat="46.52762" lon="5.91295">
        <ele>928.67926025391</ele>
        <time>2013-06-30T07:19:02.999Z</time>
      </trkpt>
      <trkpt lat="46.52754" lon="5.91283">
        <ele>928.55316162109</ele>
        <time>2013-06-30T07:19:04.999Z</time>
      </trkpt>
      <trkpt lat="46.52746" lon="5.91271">
        <ele>928.22271728516</ele>
        <time>2013-06-30T07:19:06.999Z</time>
      </trkpt>
      <trkpt lat="46.52739" lon="5.91258">
        <ele>927.90545654297</ele>
        <time>2013-06-30T07:19:08.999Z</time>
      </trkpt>
      <trkpt lat="46.52732" lon="5.91245">
        <ele>927.63702392578</ele>
        <time>2013-06-30T07:19:10.999Z</time>
      </trkpt>
      <trkpt lat="46.52726" lon="5.91231">
        <ele>927.20001220703</ele>
        <time>2013-06-30T07:19:12.999Z</time>
      </trkpt>
      <trkpt lat="46.5272" lon="5.91217">
        <ele>927.08367919922</ele>
        <time>2013-06-30T07:19:14.999Z</time>
      </trkpt>
      <trkpt lat="46.52713" lon="5.91204">
        <ele>927.02783203125</ele>
        <time>2013-06-30T07:19:16.999Z</time>
      </trkpt>
      <trkpt lat="46.52707" lon="5.9119">
        <ele>926.81457519531</ele>
        <time>2013-06-30T07:19:18.999Z</time>
      </trkpt>
      <trkpt lat="46.527" lon="5.91176">
        <ele>926.55798339844</ele>
        <time>2013-06-30T07:19:20.999Z</time>
      </trkpt>
      <trkpt lat="46.52694" lon="5.91163">
        <ele>926.49401855469</ele>
        <time>2013-06-30T07:19:22.999Z</time>
      </trkpt>
      <trkpt lat="46.52687" lon="5.9115">
        <ele>926.32354736328</ele>
        <time>2013-06-30T07:19:24.999Z</time>
      </trkpt>
      <trkpt lat="46.5268" lon="5.91137">
        <ele>925.99908447266</ele>
        <time>2013-06-30T07:19:26.999Z</time>
      </trkpt>
      <trkpt lat="46.52673" lon="5.91124">
        <ele>925.51684570312</ele>
        <time>2013-06-30T07:19:28.999Z</time>
      </trkpt>
      <trkpt lat="46.52666" lon="5.91113">
        <ele>925.32104492188</ele>
        <time>2013-06-30T07:19:30.999Z</time>
      </trkpt>
      <trkpt lat="46.5266" lon="5.91101">
        <ele>925.50799560547</ele>
        <time>2013-06-30T07:19:32.999Z</time>
      </trkpt>
      <trkpt lat="46.52652" lon="5.91089">
        <ele>925.53057861328</ele>
        <time>2013-06-30T07:19:34.999Z</time>
      </trkpt>
      <trkpt lat="46.52644" lon="5.91076">
        <ele>925.17840576172</ele>
        <time>2013-06-30T07:19:36.999Z</time>
      </trkpt>
      <trkpt lat="46.52636" lon="5.91064">
        <ele>924.84295654297</ele>
        <time>2013-06-30T07:19:38.999Z</time>
      </trkpt>
      <trkpt lat="46.5263" lon="5.91052">
        <ele>925.06030273438</ele>
        <time>2013-06-30T07:19:40.999Z</time>
      </trkpt>
      <trkpt lat="46.52623" lon="5.91039">
        <ele>925.36779785156</ele>
        <time>2013-06-30T07:19:42.999Z</time>
      </trkpt>
      <trkpt lat="46.52615" lon="5.91027">
        <ele>925.56561279297</ele>
        <time>2013-06-30T07:19:44.999Z</time>
      </trkpt>
      <trkpt lat="46.52607" lon="5.91015">
        <ele>925.75555419922</ele>
        <time>2013-06-30T07:19:46.999Z</time>
      </trkpt>
      <trkpt lat="46.526" lon="5.91004">
        <ele>926.22021484375</ele>
        <time>2013-06-30T07:19:48.999Z</time>
      </trkpt>
      <trkpt lat="46.52592" lon="5.90992">
        <ele>926.3046875</ele>
        <time>2013-06-30T07:19:50.999Z</time>
      </trkpt>
      <trkpt lat="46.52586" lon="5.90981">
        <ele>926.77099609375</ele>
        <time>2013-06-30T07:19:52.999Z</time>
      </trkpt>
      <trkpt lat="46.52578" lon="5.9097">
        <ele>927.64227294922</ele>
        <time>2013-06-30T07:19:54.999Z</time>
      </trkpt>
      <trkpt lat="46.5257" lon="5.90957">
        <ele>927.78289794922</ele>
        <time>2013-06-30T07:19:56.999Z</time>
      </trkpt>
      <trkpt lat="46.52562" lon="5.90944">
        <ele>927.38641357422</ele>
        <time>2013-06-30T07:19:58.999Z</time>
      </trkpt>
      <trkpt lat="46.52554" lon="5.90931">
        <ele>926.75720214844</ele>
        <time>2013-06-30T07:20:00.999Z</time>
      </trkpt>
      <trkpt lat="46.52545" lon="5.90918">
        <ele>925.98760986328</ele>
        <time>2013-06-30T07:20:02.999Z</time>
      </trkpt>
      <trkpt lat="46.52537" lon="5.90906">
        <ele>925.41009521484</ele>
        <time>2013-06-30T07:20:04.999Z</time>
      </trkpt>
      <trkpt lat="46.52528" lon="5.90893">
        <ele>925.23162841797</ele>
        <time>2013-06-30T07:20:06.999Z</time>
      </trkpt>
      <trkpt lat="46.5252" lon="5.9088">
        <ele>925.25030517578</ele>
        <time>2013-06-30T07:20:08.999Z</time>
      </trkpt>
      <trkpt lat="46.52511" lon="5.90868">
        <ele>925.52172851562</ele>
        <time>2013-06-30T07:20:10.999Z</time>
      </trkpt>
      <trkpt lat="46.52503" lon="5.90854">
        <ele>925.71704101562</ele>
        <time>2013-06-30T07:20:12.999Z</time>
      </trkpt>
      <trkpt lat="46.52495" lon="5.9084">
        <ele>925.31958007812</ele>
        <time>2013-06-30T07:20:14.999Z</time>
      </trkpt>
      <trkpt lat="46.52487" lon="5.90827">
        <ele>925.43206787109</ele>
        <time>2013-06-30T07:20:16.999Z</time>
      </trkpt>
      <trkpt lat="46.5248" lon="5.90813">
        <ele>925.24584960938</ele>
        <time>2013-06-30T07:20:18.999Z</time>
      </trkpt>
      <trkpt lat="46.52473" lon="5.90796">
        <ele>925.04022216797</ele>
        <time>2013-06-30T07:20:20.999Z</time>
      </trkpt>
      <trkpt lat="46.52467" lon="5.9078">
        <ele>924.60546875</ele>
        <time>2013-06-30T07:20:22.999Z</time>
      </trkpt>
      <trkpt lat="46.52461" lon="5.90764">
        <ele>924.51916503906</ele>
        <time>2013-06-30T07:20:24.999Z</time>
      </trkpt>
      <trkpt lat="46.52454" lon="5.90747">
        <ele>925.23028564453</ele>
        <time>2013-06-30T07:20:26.999Z</time>
      </trkpt>
      <trkpt lat="46.52449" lon="5.90731">
        <ele>925.24041748047</ele>
        <time>2013-06-30T07:20:28.999Z</time>
      </trkpt>
      <trkpt lat="46.52442" lon="5.90716">
        <ele>925.31744384766</ele>
        <time>2013-06-30T07:20:30.999Z</time>
      </trkpt>
      <trkpt lat="46.52434" lon="5.907">
        <ele>925.54907226562</ele>
        <time>2013-06-30T07:20:32.999Z</time>
      </trkpt>
      <trkpt lat="46.52427" lon="5.90685">
        <ele>925.36700439453</ele>
        <time>2013-06-30T07:20:34.999Z</time>
      </trkpt>
      <trkpt lat="46.52421" lon="5.90673">
        <ele>925.39215087891</ele>
        <time>2013-06-30T07:20:36.999Z</time>
      </trkpt>
      <trkpt lat="46.52414" lon="5.9066">
        <ele>925.75469970703</ele>
        <time>2013-06-30T07:20:38.999Z</time>
      </trkpt>
      <trkpt lat="46.52408" lon="5.90648">
        <ele>926.13220214844</ele>
        <time>2013-06-30T07:20:40.999Z</time>
      </trkpt>
      <trkpt lat="46.52402" lon="5.90635">
        <ele>925.87377929688</ele>
        <time>2013-06-30T07:20:42.999Z</time>
      </trkpt>
      <trkpt lat="46.52396" lon="5.90624">
        <ele>925.59045410156</ele>
        <time>2013-06-30T07:20:44.999Z</time>
      </trkpt>
      <trkpt lat="46.52391" lon="5.90612">
        <ele>925.14739990234</ele>
        <time>2013-06-30T07:20:46.999Z</time>
      </trkpt>
      <trkpt lat="46.52386" lon="5.90599">
        <ele>924.71710205078</ele>
        <time>2013-06-30T07:20:48.999Z</time>
      </trkpt>
      <trkpt lat="46.5238" lon="5.90586">
        <ele>924.61334228516</ele>
        <time>2013-06-30T07:20:50.999Z</time>
      </trkpt>
      <trkpt lat="46.52375" lon="5.90572">
        <ele>924.72808837891</ele>
        <time>2013-06-30T07:20:52.999Z</time>
      </trkpt>
      <trkpt lat="46.5237" lon="5.90558">
        <ele>924.32556152344</ele>
        <time>2013-06-30T07:20:54.999Z</time>
      </trkpt>
      <trkpt lat="46.52363" lon="5.90543">
        <ele>924.48950195312</ele>
        <time>2013-06-30T07:20:56.999Z</time>
      </trkpt>
      <trkpt lat="46.52356" lon="5.90529">
        <ele>924.62127685547</ele>
        <time>2013-06-30T07:20:58.999Z</time>
      </trkpt>
      <trkpt lat="46.52349" lon="5.90514">
        <ele>924.71966552734</ele>
        <time>2013-06-30T07:21:00.999Z</time>
      </trkpt>
      <trkpt lat="46.52341" lon="5.905">
        <ele>924.36755371094</ele>
        <time>2013-06-30T07:21:02.999Z</time>
      </trkpt>
      <trkpt lat="46.52334" lon="5.90485">
        <ele>923.52746582031</ele>
        <time>2013-06-30T07:21:04.999Z</time>
      </trkpt>
      <trkpt lat="46.52326" lon="5.9047">
        <ele>922.81707763672</ele>
        <time>2013-06-30T07:21:06.999Z</time>
      </trkpt>
      <trkpt lat="46.52319" lon="5.90455">
        <ele>922.96710205078</ele>
        <time>2013-06-30T07:21:08.999Z</time>
      </trkpt>
      <trkpt lat="46.52312" lon="5.90441">
        <ele>923.45446777344</ele>
        <time>2013-06-30T07:21:10.999Z</time>
      </trkpt>
      <trkpt lat="46.52306" lon="5.90426">
        <ele>924.16381835938</ele>
        <time>2013-06-30T07:21:12.999Z</time>
      </trkpt>
      <trkpt lat="46.52299" lon="5.90412">
        <ele>924.41552734375</ele>
        <time>2013-06-30T07:21:14.999Z</time>
      </trkpt>
      <trkpt lat="46.52292" lon="5.90399">
        <ele>924.4580078125</ele>
        <time>2013-06-30T07:21:16.999Z</time>
      </trkpt>
      <trkpt lat="46.52286" lon="5.90385">
        <ele>924.67407226562</ele>
        <time>2013-06-30T07:21:18.999Z</time>
      </trkpt>
      <trkpt lat="46.5228" lon="5.90372">
        <ele>924.86102294922</ele>
        <time>2013-06-30T07:21:20.999Z</time>
      </trkpt>
      <trkpt lat="46.52273" lon="5.90359">
        <ele>925.12084960938</ele>
        <time>2013-06-30T07:21:22.999Z</time>
      </trkpt>
      <trkpt lat="46.52267" lon="5.90345">
        <ele>925.32049560547</ele>
        <time>2013-06-30T07:21:24.999Z</time>
      </trkpt>
      <trkpt lat="46.5226" lon="5.90331">
        <ele>925.73364257812</ele>
        <time>2013-06-30T07:21:26.999Z</time>
      </trkpt>
      <trkpt lat="46.52254" lon="5.90317">
        <ele>925.50988769531</ele>
        <time>2013-06-30T07:21:28.999Z</time>
      </trkpt>
      <trkpt lat="46.52248" lon="5.90302">
        <ele>925.31823730469</ele>
        <time>2013-06-30T07:21:30.999Z</time>
      </trkpt>
      <trkpt lat="46.52241" lon="5.90289">
        <ele>925.18316650391</ele>
        <time>2013-06-30T07:21:32.999Z</time>
      </trkpt>
      <trkpt lat="46.52235" lon="5.90275">
        <ele>924.95294189453</ele>
        <time>2013-06-30T07:21:34.999Z</time>
      </trkpt>
      <trkpt lat="46.52228" lon="5.90261">
        <ele>924.68627929688</ele>
        <time>2013-06-30T07:21:36.999Z</time>
      </trkpt>
      <trkpt lat="46.52222" lon="5.90248">
        <ele>924.9501953125</ele>
        <time>2013-06-30T07:21:38.999Z</time>
      </trkpt>
      <trkpt lat="46.52216" lon="5.90235">
        <ele>925.54833984375</ele>
        <time>2013-06-30T07:21:40.999Z</time>
      </trkpt>
      <trkpt lat="46.52211" lon="5.90221">
        <ele>926.14935302734</ele>
        <time>2013-06-30T07:21:42.999Z</time>
      </trkpt>
      <trkpt lat="46.52207" lon="5.90206">
        <ele>926.40600585938</ele>
        <time>2013-06-30T07:21:44.999Z</time>
      </trkpt>
      <trkpt lat="46.52203" lon="5.9019">
        <ele>926.44201660156</ele>
        <time>2013-06-30T07:21:46.999Z</time>
      </trkpt>
      <trkpt lat="46.52201" lon="5.90174">
        <ele>926.3046875</ele>
        <time>2013-06-30T07:21:48.999Z</time>
      </trkpt>
      <trkpt lat="46.52198" lon="5.90159">
        <ele>926.34301757812</ele>
        <time>2013-06-30T07:21:50.999Z</time>
      </trkpt>
      <trkpt lat="46.52196" lon="5.90144">
        <ele>926.65563964844</ele>
        <time>2013-06-30T07:21:52.999Z</time>
      </trkpt>
      <trkpt lat="46.52193" lon="5.90128">
        <ele>927.01226806641</ele>
        <time>2013-06-30T07:21:54.999Z</time>
      </trkpt>
      <trkpt lat="46.52191" lon="5.90112">
        <ele>927.01159667969</ele>
        <time>2013-06-30T07:21:56.999Z</time>
      </trkpt>
      <trkpt lat="46.52188" lon="5.90095">
        <ele>927.04943847656</ele>
        <time>2013-06-30T07:21:58.999Z</time>
      </trkpt>
      <trkpt lat="46.52186" lon="5.90079">
        <ele>927.44018554688</ele>
        <time>2013-06-30T07:22:00.999Z</time>
      </trkpt>
      <trkpt lat="46.52185" lon="5.90062">
        <ele>928.01342773438</ele>
        <time>2013-06-30T07:22:02.999Z</time>
      </trkpt>
      <trkpt lat="46.52185" lon="5.90044">
        <ele>928.35070800781</ele>
        <time>2013-06-30T07:22:04.999Z</time>
      </trkpt>
      <trkpt lat="46.52186" lon="5.90027">
        <ele>928.58410644531</ele>
        <time>2013-06-30T07:22:06.999Z</time>
      </trkpt>
      <trkpt lat="46.52189" lon="5.90009">
        <ele>928.80621337891</ele>
        <time>2013-06-30T07:22:08.999Z</time>
      </trkpt>
      <trkpt lat="46.52194" lon="5.89994">
        <ele>928.68383789062</ele>
        <time>2013-06-30T07:22:10.999Z</time>
      </trkpt>
      <trkpt lat="46.52199" lon="5.89978">
        <ele>928.35302734375</ele>
        <time>2013-06-30T07:22:12.999Z</time>
      </trkpt>
      <trkpt lat="46.52204" lon="5.89963">
        <ele>928.10400390625</ele>
        <time>2013-06-30T07:22:14.999Z</time>
      </trkpt>
      <trkpt lat="46.52209" lon="5.89949">
        <ele>927.82696533203</ele>
        <time>2013-06-30T07:22:16.999Z</time>
      </trkpt>
      <trkpt lat="46.52212" lon="5.89934">
        <ele>927.57623291016</ele>
        <time>2013-06-30T07:22:18.999Z</time>
      </trkpt>
      <trkpt lat="46.52214" lon="5.89919">
        <ele>927.64123535156</ele>
        <time>2013-06-30T07:22:20.999Z</time>
      </trkpt>
      <trkpt lat="46.52216" lon="5.89906">
        <ele>928.16528320312</ele>
        <time>2013-06-30T07:22:22.999Z</time>
      </trkpt>
      <trkpt lat="46.52217" lon="5.89892">
        <ele>928.701171875</ele>
        <time>2013-06-30T07:22:24.999Z</time>
      </trkpt>
      <trkpt lat="46.52218" lon="5.8988">
        <ele>929.24969482422</ele>
        <time>2013-06-30T07:22:26.999Z</time>
      </trkpt>
      <trkpt lat="46.52219" lon="5.89868">
        <ele>929.88531494141</ele>
        <time>2013-06-30T07:22:28.999Z</time>
      </trkpt>
      <trkpt lat="46.5222" lon="5.89855">
        <ele>930.36212158203</ele>
        <time>2013-06-30T07:22:30.999Z</time>
      </trkpt>
      <trkpt lat="46.52222" lon="5.89843">
        <ele>930.94378662109</ele>
        <time>2013-06-30T07:22:32.999Z</time>
      </trkpt>
      <trkpt lat="46.52224" lon="5.89831">
        <ele>931.51263427734</ele>
        <time>2013-06-30T07:22:34.999Z</time>
      </trkpt>
      <trkpt lat="46.52228" lon="5.89819">
        <ele>931.75225830078</ele>
        <time>2013-06-30T07:22:36.999Z</time>
      </trkpt>
      <trkpt lat="46.52235" lon="5.89804">
        <ele>931.61724853516</ele>
        <time>2013-06-30T07:22:38.999Z</time>
      </trkpt>
      <trkpt lat="46.52243" lon="5.89788">
        <ele>931.46472167969</ele>
        <time>2013-06-30T07:22:40.999Z</time>
      </trkpt>
      <trkpt lat="46.52252" lon="5.89772">
        <ele>931.24548339844</ele>
        <time>2013-06-30T07:22:42.999Z</time>
      </trkpt>
      <trkpt lat="46.52261" lon="5.89757">
        <ele>930.86712646484</ele>
        <time>2013-06-30T07:22:44.999Z</time>
      </trkpt>
      <trkpt lat="46.52271" lon="5.89741">
        <ele>930.44177246094</ele>
        <time>2013-06-30T07:22:46.999Z</time>
      </trkpt>
      <trkpt lat="46.52283" lon="5.89729">
        <ele>929.97216796875</ele>
        <time>2013-06-30T07:22:48.999Z</time>
      </trkpt>
      <trkpt lat="46.52296" lon="5.8972">
        <ele>929.70709228516</ele>
        <time>2013-06-30T07:22:50.999Z</time>
      </trkpt>
      <trkpt lat="46.52307" lon="5.89713">
        <ele>929.84790039062</ele>
        <time>2013-06-30T07:22:52.999Z</time>
      </trkpt>
      <trkpt lat="46.52318" lon="5.89705">
        <ele>929.78033447266</ele>
        <time>2013-06-30T07:22:54.999Z</time>
      </trkpt>
      <trkpt lat="46.52326" lon="5.89693">
        <ele>929.35180664062</ele>
        <time>2013-06-30T07:22:56.999Z</time>
      </trkpt>
      <trkpt lat="46.52333" lon="5.89678">
        <ele>929.02990722656</ele>
        <time>2013-06-30T07:22:58.999Z</time>
      </trkpt>
      <trkpt lat="46.52338" lon="5.89663">
        <ele>928.84857177734</ele>
        <time>2013-06-30T07:23:00.999Z</time>
      </trkpt>
      <trkpt lat="46.52343" lon="5.89648">
        <ele>928.8046875</ele>
        <time>2013-06-30T07:23:02.999Z</time>
      </trkpt>
      <trkpt lat="46.52348" lon="5.89633">
        <ele>928.89178466797</ele>
        <time>2013-06-30T07:23:04.999Z</time>
      </trkpt>
      <trkpt lat="46.52352" lon="5.89618">
        <ele>929.27301025391</ele>
        <time>2013-06-30T07:23:06.999Z</time>
      </trkpt>
      <trkpt lat="46.52358" lon="5.89604">
        <ele>929.72033691406</ele>
        <time>2013-06-30T07:23:08.999Z</time>
      </trkpt>
      <trkpt lat="46.52364" lon="5.89591">
        <ele>930.10565185547</ele>
        <time>2013-06-30T07:23:10.999Z</time>
      </trkpt>
      <trkpt lat="46.52369" lon="5.8958">
        <ele>930.91632080078</ele>
        <time>2013-06-30T07:23:12.999Z</time>
      </trkpt>
      <trkpt lat="46.52376" lon="5.89567">
        <ele>931.44018554688</ele>
        <time>2013-06-30T07:23:14.999Z</time>
      </trkpt>
      <trkpt lat="46.52382" lon="5.89556">
        <ele>932.14947509766</ele>
        <time>2013-06-30T07:23:16.999Z</time>
      </trkpt>
      <trkpt lat="46.52389" lon="5.89544">
        <ele>932.34246826172</ele>
        <time>2013-06-30T07:23:18.999Z</time>
      </trkpt>
      <trkpt lat="46.52395" lon="5.89535">
        <ele>932.75201416016</ele>
        <time>2013-06-30T07:23:20.999Z</time>
      </trkpt>
      <trkpt lat="46.52401" lon="5.89527">
        <ele>933.49157714844</ele>
        <time>2013-06-30T07:23:22.999Z</time>
      </trkpt>
      <trkpt lat="46.52408" lon="5.89525">
        <ele>934.33795166016</ele>
        <time>2013-06-30T07:23:24.999Z</time>
      </trkpt>
      <trkpt lat="46.52415" lon="5.89527">
        <ele>934.56890869141</ele>
        <time>2013-06-30T07:23:26.999Z</time>
      </trkpt>
      <trkpt lat="46.5242" lon="5.89533">
        <ele>934.59393310547</ele>
        <time>2013-06-30T07:23:28.999Z</time>
      </trkpt>
      <trkpt lat="46.52424" lon="5.89539">
        <ele>934.63488769531</ele>
        <time>2013-06-30T07:23:30.999Z</time>
      </trkpt>
      <trkpt lat="46.52429" lon="5.89546">
        <ele>934.68621826172</ele>
        <time>2013-06-30T07:23:32.999Z</time>
      </trkpt>
      <trkpt lat="46.52433" lon="5.89551">
        <ele>934.75787353516</ele>
        <time>2013-06-30T07:23:34.999Z</time>
      </trkpt>
      <trkpt lat="46.52436" lon="5.89557">
        <ele>934.87445068359</ele>
        <time>2013-06-30T07:23:36.999Z</time>
      </trkpt>
      <trkpt lat="46.5244" lon="5.89562">
        <ele>935.0244140625</ele>
        <time>2013-06-30T07:23:38.999Z</time>
      </trkpt>
      <trkpt lat="46.52445" lon="5.89569">
        <ele>935.16540527344</ele>
        <time>2013-06-30T07:23:40.999Z</time>
      </trkpt>
      <trkpt lat="46.52449" lon="5.89575">
        <ele>935.31243896484</ele>
        <time>2013-06-30T07:23:42.999Z</time>
      </trkpt>
      <trkpt lat="46.52452" lon="5.89582">
        <ele>935.48547363281</ele>
        <time>2013-06-30T07:23:44.999Z</time>
      </trkpt>
      <trkpt lat="46.52456" lon="5.89588">
        <ele>935.68304443359</ele>
        <time>2013-06-30T07:23:46.999Z</time>
      </trkpt>
      <trkpt lat="46.52461" lon="5.89596">
        <ele>935.85876464844</ele>
        <time>2013-06-30T07:23:48.999Z</time>
      </trkpt>
      <trkpt lat="46.52465" lon="5.89605">
        <ele>935.98883056641</ele>
        <time>2013-06-30T07:23:50.999Z</time>
      </trkpt>
      <trkpt lat="46.5247" lon="5.89614">
        <ele>936.08624267578</ele>
        <time>2013-06-30T07:23:52.999Z</time>
      </trkpt>
      <trkpt lat="46.52475" lon="5.89624">
        <ele>936.85552978516</ele>
        <time>2013-06-30T07:23:54.999Z</time>
      </trkpt>
      <trkpt lat="46.5248" lon="5.89634">
        <ele>937.34521484375</ele>
        <time>2013-06-30T07:23:56.999Z</time>
      </trkpt>
      <trkpt lat="46.52487" lon="5.89647">
        <ele>937.4560546875</ele>
        <time>2013-06-30T07:23:58.999Z</time>
      </trkpt>
      <trkpt lat="46.52493" lon="5.89658">
        <ele>937.48315429688</ele>
        <time>2013-06-30T07:24:00.999Z</time>
      </trkpt>
      <trkpt lat="46.525" lon="5.8967">
        <ele>937.50189208984</ele>
        <time>2013-06-30T07:24:02.999Z</time>
      </trkpt>
      <trkpt lat="46.52509" lon="5.89678">
        <ele>937.27740478516</ele>
        <time>2013-06-30T07:24:04.999Z</time>
      </trkpt>
      <trkpt lat="46.52519" lon="5.89683">
        <ele>937.08215332031</ele>
        <time>2013-06-30T07:24:06.999Z</time>
      </trkpt>
      <trkpt lat="46.52529" lon="5.89687">
        <ele>936.93542480469</ele>
        <time>2013-06-30T07:24:08.999Z</time>
      </trkpt>
      <trkpt lat="46.5254" lon="5.89692">
        <ele>936.81616210938</ele>
        <time>2013-06-30T07:24:10.999Z</time>
      </trkpt>
      <trkpt lat="46.5255" lon="5.89698">
        <ele>936.82653808594</ele>
        <time>2013-06-30T07:24:12.999Z</time>
      </trkpt>
      <trkpt lat="46.5256" lon="5.89705">
        <ele>936.72747802734</ele>
        <time>2013-06-30T07:24:14.999Z</time>
      </trkpt>
      <trkpt lat="46.5257" lon="5.89713">
        <ele>936.68902587891</ele>
        <time>2013-06-30T07:24:16.999Z</time>
      </trkpt>
      <trkpt lat="46.52579" lon="5.89722">
        <ele>936.66284179688</ele>
        <time>2013-06-30T07:24:18.999Z</time>
      </trkpt>
      <trkpt lat="46.52587" lon="5.89733">
        <ele>936.85180664062</ele>
        <time>2013-06-30T07:24:20.999Z</time>
      </trkpt>
      <trkpt lat="46.52595" lon="5.89744">
        <ele>936.92205810547</ele>
        <time>2013-06-30T07:24:22.999Z</time>
      </trkpt>
      <trkpt lat="46.52602" lon="5.89755">
        <ele>936.97320556641</ele>
        <time>2013-06-30T07:24:24.999Z</time>
      </trkpt>
      <trkpt lat="46.52609" lon="5.89765">
        <ele>937.17651367188</ele>
        <time>2013-06-30T07:24:26.999Z</time>
      </trkpt>
      <trkpt lat="46.52616" lon="5.89774">
        <ele>937.29541015625</ele>
        <time>2013-06-30T07:24:28.999Z</time>
      </trkpt>
      <trkpt lat="46.52624" lon="5.89784">
        <ele>937.09869384766</ele>
        <time>2013-06-30T07:24:30.999Z</time>
      </trkpt>
      <trkpt lat="46.52632" lon="5.89792">
        <ele>936.95849609375</ele>
        <time>2013-06-30T07:24:32.999Z</time>
      </trkpt>
      <trkpt lat="46.5264" lon="5.898">
        <ele>937.00970458984</ele>
        <time>2013-06-30T07:24:34.999Z</time>
      </trkpt>
      <trkpt lat="46.52649" lon="5.89807">
        <ele>937.02099609375</ele>
        <time>2013-06-30T07:24:36.999Z</time>
      </trkpt>
      <trkpt lat="46.52659" lon="5.89812">
        <ele>937.05090332031</ele>
        <time>2013-06-30T07:24:38.999Z</time>
      </trkpt>
      <trkpt lat="46.52667" lon="5.89815">
        <ele>937.01507568359</ele>
        <time>2013-06-30T07:24:40.999Z</time>
      </trkpt>
      <trkpt lat="46.52675" lon="5.89816">
        <ele>937.26696777344</ele>
        <time>2013-06-30T07:24:42.999Z</time>
      </trkpt>
      <trkpt lat="46.52682" lon="5.89818">
        <ele>938.17309570312</ele>
        <time>2013-06-30T07:24:44.999Z</time>
      </trkpt>
      <trkpt lat="46.5269" lon="5.89814">
        <ele>940.01220703125</ele>
        <time>2013-06-30T07:24:46.999Z</time>
      </trkpt>
      <trkpt lat="46.52699" lon="5.89808">
        <ele>941.03521728516</ele>
        <time>2013-06-30T07:24:48.999Z</time>
      </trkpt>
      <trkpt lat="46.52708" lon="5.898">
        <ele>941.03814697266</ele>
        <time>2013-06-30T07:24:50.999Z</time>
      </trkpt>
      <trkpt lat="46.52717" lon="5.89795">
        <ele>940.17572021484</ele>
        <time>2013-06-30T07:24:52.999Z</time>
      </trkpt>
      <trkpt lat="46.52725" lon="5.89792">
        <ele>939.89367675781</ele>
        <time>2013-06-30T07:24:54.999Z</time>
      </trkpt>
      <trkpt lat="46.52734" lon="5.89791">
        <ele>939.98651123047</ele>
        <time>2013-06-30T07:24:56.999Z</time>
      </trkpt>
      <trkpt lat="46.52741" lon="5.89792">
        <ele>940.07940673828</ele>
        <time>2013-06-30T07:24:58.999Z</time>
      </trkpt>
      <trkpt lat="46.52747" lon="5.89792">
        <ele>940.24591064453</ele>
        <time>2013-06-30T07:25:00.999Z</time>
      </trkpt>
      <trkpt lat="46.52752" lon="5.89789">
        <ele>940.47430419922</ele>
        <time>2013-06-30T07:25:02.999Z</time>
      </trkpt>
      <trkpt lat="46.52756" lon="5.89782">
        <ele>940.58953857422</ele>
        <time>2013-06-30T07:25:04.999Z</time>
      </trkpt>
      <trkpt lat="46.52759" lon="5.89773">
        <ele>940.58154296875</ele>
        <time>2013-06-30T07:25:06.999Z</time>
      </trkpt>
      <trkpt lat="46.52761" lon="5.89764">
        <ele>940.59149169922</ele>
        <time>2013-06-30T07:25:08.999Z</time>
      </trkpt>
      <trkpt lat="46.52766" lon="5.89758">
        <ele>940.68475341797</ele>
        <time>2013-06-30T07:25:10.999Z</time>
      </trkpt>
      <trkpt lat="46.52774" lon="5.8976">
        <ele>940.79095458984</ele>
        <time>2013-06-30T07:25:12.999Z</time>
      </trkpt>
      <trkpt lat="46.52779" lon="5.89763">
        <ele>940.93334960938</ele>
        <time>2013-06-30T07:25:14.999Z</time>
      </trkpt>
      <trkpt lat="46.52786" lon="5.89768">
        <ele>941.09454345703</ele>
        <time>2013-06-30T07:25:16.999Z</time>
      </trkpt>
      <trkpt lat="46.52793" lon="5.89772">
        <ele>942.19537353516</ele>
        <time>2013-06-30T07:25:18.999Z</time>
      </trkpt>
      <trkpt lat="46.52801" lon="5.89777">
        <ele>943.11401367188</ele>
        <time>2013-06-30T07:25:20.999Z</time>
      </trkpt>
      <trkpt lat="46.52809" lon="5.8978">
        <ele>943.86645507812</ele>
        <time>2013-06-30T07:25:22.999Z</time>
      </trkpt>
      <trkpt lat="46.52817" lon="5.89783">
        <ele>944.91912841797</ele>
        <time>2013-06-30T07:25:24.999Z</time>
      </trkpt>
      <trkpt lat="46.52824" lon="5.89785">
        <ele>945.90521240234</ele>
        <time>2013-06-30T07:25:26.999Z</time>
      </trkpt>
      <trkpt lat="46.52832" lon="5.89788">
        <ele>946.94934082031</ele>
        <time>2013-06-30T07:25:28.999Z</time>
      </trkpt>
      <trkpt lat="46.52841" lon="5.8979">
        <ele>947.35546875</ele>
        <time>2013-06-30T07:25:30.999Z</time>
      </trkpt>
      <trkpt lat="46.5285" lon="5.89791">
        <ele>947.20288085938</ele>
        <time>2013-06-30T07:25:32.999Z</time>
      </trkpt>
      <trkpt lat="46.5286" lon="5.89793">
        <ele>946.99468994141</ele>
        <time>2013-06-30T07:25:34.999Z</time>
      </trkpt>
      <trkpt lat="46.52871" lon="5.89794">
        <ele>947.22900390625</ele>
        <time>2013-06-30T07:25:36.999Z</time>
      </trkpt>
      <trkpt lat="46.52881" lon="5.89797">
        <ele>947.47497558594</ele>
        <time>2013-06-30T07:25:38.999Z</time>
      </trkpt>
      <trkpt lat="46.52891" lon="5.89799">
        <ele>947.96069335938</ele>
        <time>2013-06-30T07:25:40.999Z</time>
      </trkpt>
      <trkpt lat="46.52901" lon="5.89802">
        <ele>948.79193115234</ele>
        <time>2013-06-30T07:25:42.999Z</time>
      </trkpt>
      <trkpt lat="46.52911" lon="5.89806">
        <ele>949.33203125</ele>
        <time>2013-06-30T07:25:44.999Z</time>
      </trkpt>
      <trkpt lat="46.52922" lon="5.8981">
        <ele>949.37054443359</ele>
        <time>2013-06-30T07:25:46.999Z</time>
      </trkpt>
      <trkpt lat="46.52933" lon="5.89814">
        <ele>949.15057373047</ele>
        <time>2013-06-30T07:25:48.999Z</time>
      </trkpt>
      <trkpt lat="46.52942" lon="5.89818">
        <ele>948.95574951172</ele>
        <time>2013-06-30T07:25:50.999Z</time>
      </trkpt>
      <trkpt lat="46.52952" lon="5.89823">
        <ele>948.94213867188</ele>
        <time>2013-06-30T07:25:52.999Z</time>
      </trkpt>
      <trkpt lat="46.5296" lon="5.89827">
        <ele>949.06726074219</ele>
        <time>2013-06-30T07:25:54.999Z</time>
      </trkpt>
      <trkpt lat="46.52969" lon="5.89828">
        <ele>949.41809082031</ele>
        <time>2013-06-30T07:25:56.999Z</time>
      </trkpt>
      <trkpt lat="46.52978" lon="5.89822">
        <ele>948.53607177734</ele>
        <time>2013-06-30T07:25:58.999Z</time>
      </trkpt>
      <trkpt lat="46.52988" lon="5.89813">
        <ele>948.94866943359</ele>
        <time>2013-06-30T07:26:00.999Z</time>
      </trkpt>
      <trkpt lat="46.52998" lon="5.89801">
        <ele>949.20495605469</ele>
        <time>2013-06-30T07:26:02.999Z</time>
      </trkpt>
      <trkpt lat="46.53009" lon="5.89788">
        <ele>948.45886230469</ele>
        <time>2013-06-30T07:26:04.999Z</time>
      </trkpt>
      <trkpt lat="46.5302" lon="5.89777">
        <ele>947.55725097656</ele>
        <time>2013-06-30T07:26:06.999Z</time>
      </trkpt>
      <trkpt lat="46.53032" lon="5.89775">
        <ele>946.95892333984</ele>
        <time>2013-06-30T07:26:08.999Z</time>
      </trkpt>
      <trkpt lat="46.53044" lon="5.89783">
        <ele>946.65063476562</ele>
        <time>2013-06-30T07:26:10.999Z</time>
      </trkpt>
      <trkpt lat="46.53056" lon="5.89794">
        <ele>945.95660400391</ele>
        <time>2013-06-30T07:26:12.999Z</time>
      </trkpt>
      <trkpt lat="46.53067" lon="5.89804">
        <ele>945.42687988281</ele>
        <time>2013-06-30T07:26:14.999Z</time>
      </trkpt>
      <trkpt lat="46.5308" lon="5.89801">
        <ele>945.41717529297</ele>
        <time>2013-06-30T07:26:16.999Z</time>
      </trkpt>
      <trkpt lat="46.53093" lon="5.89792">
        <ele>944.50170898438</ele>
        <time>2013-06-30T07:26:18.999Z</time>
      </trkpt>
      <trkpt lat="46.53108" lon="5.89779">
        <ele>942.83740234375</ele>
        <time>2013-06-30T07:26:20.999Z</time>
      </trkpt>
      <trkpt lat="46.53123" lon="5.89777">
        <ele>942.10827636719</ele>
        <time>2013-06-30T07:26:22.999Z</time>
      </trkpt>
      <trkpt lat="46.53139" lon="5.89774">
        <ele>941.15655517578</ele>
        <time>2013-06-30T07:26:24.999Z</time>
      </trkpt>
      <trkpt lat="46.53152" lon="5.8976">
        <ele>940.37103271484</ele>
        <time>2013-06-30T07:26:26.999Z</time>
      </trkpt>
      <trkpt lat="46.53162" lon="5.8974">
        <ele>939.39202880859</ele>
        <time>2013-06-30T07:26:28.999Z</time>
      </trkpt>
      <trkpt lat="46.53172" lon="5.89718">
        <ele>938.05865478516</ele>
        <time>2013-06-30T07:26:30.999Z</time>
      </trkpt>
      <trkpt lat="46.53182" lon="5.89694">
        <ele>936.23895263672</ele>
        <time>2013-06-30T07:26:32.999Z</time>
      </trkpt>
      <trkpt lat="46.53193" lon="5.89672">
        <ele>934.32623291016</ele>
        <time>2013-06-30T07:26:34.999Z</time>
      </trkpt>
      <trkpt lat="46.53207" lon="5.89662">
        <ele>933.18579101562</ele>
        <time>2013-06-30T07:26:36.999Z</time>
      </trkpt>
      <trkpt lat="46.53224" lon="5.89661">
        <ele>931.68463134766</ele>
        <time>2013-06-30T07:26:38.999Z</time>
      </trkpt>
      <trkpt lat="46.53239" lon="5.89665">
        <ele>930.69262695312</ele>
        <time>2013-06-30T07:26:40.999Z</time>
      </trkpt>
      <trkpt lat="46.53255" lon="5.89669">
        <ele>929.99066162109</ele>
        <time>2013-06-30T07:26:42.999Z</time>
      </trkpt>
      <trkpt lat="46.5327" lon="5.89674">
        <ele>929.70196533203</ele>
        <time>2013-06-30T07:26:44.999Z</time>
      </trkpt>
      <trkpt lat="46.53285" lon="5.89679">
        <ele>929.57073974609</ele>
        <time>2013-06-30T07:26:46.999Z</time>
      </trkpt>
      <trkpt lat="46.53301" lon="5.89678">
        <ele>929.63409423828</ele>
        <time>2013-06-30T07:26:48.999Z</time>
      </trkpt>
      <trkpt lat="46.53313" lon="5.89665">
        <ele>929.41778564453</ele>
        <time>2013-06-30T07:26:50.999Z</time>
      </trkpt>
      <trkpt lat="46.53323" lon="5.89646">
        <ele>928.767578125</ele>
        <time>2013-06-30T07:26:52.999Z</time>
      </trkpt>
      <trkpt lat="46.5333" lon="5.89626">
        <ele>928.68670654297</ele>
        <time>2013-06-30T07:26:54.999Z</time>
      </trkpt>
      <trkpt lat="46.53337" lon="5.89609">
        <ele>928.89050292969</ele>
        <time>2013-06-30T07:26:56.999Z</time>
      </trkpt>
      <trkpt lat="46.53344" lon="5.89597">
        <ele>929.08129882812</ele>
        <time>2013-06-30T07:26:58.999Z</time>
      </trkpt>
      <trkpt lat="46.53351" lon="5.89587">
        <ele>929.3779296875</ele>
        <time>2013-06-30T07:27:00.999Z</time>
      </trkpt>
      <trkpt lat="46.53356" lon="5.89578">
        <ele>930.01550292969</ele>
        <time>2013-06-30T07:27:02.999Z</time>
      </trkpt>
      <trkpt lat="46.53362" lon="5.89569">
        <ele>930.54779052734</ele>
        <time>2013-06-30T07:27:04.999Z</time>
      </trkpt>
      <trkpt lat="46.53368" lon="5.8956">
        <ele>931.08447265625</ele>
        <time>2013-06-30T07:27:06.999Z</time>
      </trkpt>
      <trkpt lat="46.53373" lon="5.89551">
        <ele>931.71496582031</ele>
        <time>2013-06-30T07:27:08.999Z</time>
      </trkpt>
      <trkpt lat="46.53378" lon="5.89542">
        <ele>932.40893554688</ele>
        <time>2013-06-30T07:27:10.999Z</time>
      </trkpt>
      <trkpt lat="46.53383" lon="5.89534">
        <ele>933.23358154297</ele>
        <time>2013-06-30T07:27:12.999Z</time>
      </trkpt>
      <trkpt lat="46.53387" lon="5.89524">
        <ele>933.76965332031</ele>
        <time>2013-06-30T07:27:14.999Z</time>
      </trkpt>
      <trkpt lat="46.53392" lon="5.89515">
        <ele>934.33740234375</ele>
        <time>2013-06-30T07:27:16.999Z</time>
      </trkpt>
      <trkpt lat="46.53398" lon="5.89506">
        <ele>934.91644287109</ele>
        <time>2013-06-30T07:27:18.999Z</time>
      </trkpt>
      <trkpt lat="46.53404" lon="5.89499">
        <ele>936.17572021484</ele>
        <time>2013-06-30T07:27:20.999Z</time>
      </trkpt>
      <trkpt lat="46.5341" lon="5.89493">
        <ele>937.18585205078</ele>
        <time>2013-06-30T07:27:22.999Z</time>
      </trkpt>
      <trkpt lat="46.53416" lon="5.89485">
        <ele>937.61456298828</ele>
        <time>2013-06-30T07:27:24.999Z</time>
      </trkpt>
      <trkpt lat="46.53423" lon="5.89477">
        <ele>937.70440673828</ele>
        <time>2013-06-30T07:27:26.999Z</time>
      </trkpt>
      <trkpt lat="46.53429" lon="5.89469">
        <ele>937.81689453125</ele>
        <time>2013-06-30T07:27:28.999Z</time>
      </trkpt>
      <trkpt lat="46.53435" lon="5.89462">
        <ele>938.08660888672</ele>
        <time>2013-06-30T07:27:30.999Z</time>
      </trkpt>
      <trkpt lat="46.53441" lon="5.89456">
        <ele>938.69702148438</ele>
        <time>2013-06-30T07:27:32.999Z</time>
      </trkpt>
      <trkpt lat="46.53447" lon="5.89451">
        <ele>938.90258789062</ele>
        <time>2013-06-30T07:27:34.999Z</time>
      </trkpt>
      <trkpt lat="46.53452" lon="5.89447">
        <ele>939.23034667969</ele>
        <time>2013-06-30T07:27:36.999Z</time>
      </trkpt>
      <trkpt lat="46.53456" lon="5.89439">
        <ele>939.5439453125</ele>
        <time>2013-06-30T07:27:38.999Z</time>
      </trkpt>
      <trkpt lat="46.53459" lon="5.89428">
        <ele>940.912109375</ele>
        <time>2013-06-30T07:27:40.999Z</time>
      </trkpt>
      <trkpt lat="46.5346" lon="5.89417">
        <ele>941.13702392578</ele>
        <time>2013-06-30T07:27:42.999Z</time>
      </trkpt>
      <trkpt lat="46.53458" lon="5.89403">
        <ele>941.38653564453</ele>
        <time>2013-06-30T07:27:44.999Z</time>
      </trkpt>
      <trkpt lat="46.53456" lon="5.8939">
        <ele>941.68182373047</ele>
        <time>2013-06-30T07:27:46.999Z</time>
      </trkpt>
      <trkpt lat="46.53454" lon="5.89374">
        <ele>942.49481201172</ele>
        <time>2013-06-30T07:27:48.999Z</time>
      </trkpt>
      <trkpt lat="46.53452" lon="5.89359">
        <ele>942.88372802734</ele>
        <time>2013-06-30T07:27:50.999Z</time>
      </trkpt>
      <trkpt lat="46.53451" lon="5.89345">
        <ele>943.45617675781</ele>
        <time>2013-06-30T07:27:52.999Z</time>
      </trkpt>
      <trkpt lat="46.5345" lon="5.8933">
        <ele>944.44677734375</ele>
        <time>2013-06-30T07:27:54.999Z</time>
      </trkpt>
      <trkpt lat="46.53451" lon="5.89316">
        <ele>945.52319335938</ele>
        <time>2013-06-30T07:27:56.999Z</time>
      </trkpt>
      <trkpt lat="46.53452" lon="5.89301">
        <ele>946.04193115234</ele>
        <time>2013-06-30T07:27:58.999Z</time>
      </trkpt>
      <trkpt lat="46.53454" lon="5.89289">
        <ele>946.44482421875</ele>
        <time>2013-06-30T07:28:00.999Z</time>
      </trkpt>
      <trkpt lat="46.53455" lon="5.89277">
        <ele>946.68328857422</ele>
        <time>2013-06-30T07:28:02.999Z</time>
      </trkpt>
      <trkpt lat="46.53456" lon="5.89265">
        <ele>946.60754394531</ele>
        <time>2013-06-30T07:28:04.999Z</time>
      </trkpt>
      <trkpt lat="46.53456" lon="5.89255">
        <ele>946.98449707031</ele>
        <time>2013-06-30T07:28:06.999Z</time>
      </trkpt>
      <trkpt lat="46.53455" lon="5.89243">
        <ele>947.65167236328</ele>
        <time>2013-06-30T07:28:08.999Z</time>
      </trkpt>
      <trkpt lat="46.53455" lon="5.89227">
        <ele>947.98651123047</ele>
        <time>2013-06-30T07:28:10.999Z</time>
      </trkpt>
      <trkpt lat="46.53454" lon="5.89208">
        <ele>947.43804931641</ele>
        <time>2013-06-30T07:28:12.999Z</time>
      </trkpt>
      <trkpt lat="46.53453" lon="5.89188">
        <ele>946.51940917969</ele>
        <time>2013-06-30T07:28:14.999Z</time>
      </trkpt>
      <trkpt lat="46.53454" lon="5.89168">
        <ele>945.50592041016</ele>
        <time>2013-06-30T07:28:16.999Z</time>
      </trkpt>
      <trkpt lat="46.5346" lon="5.89151">
        <ele>944.76513671875</ele>
        <time>2013-06-30T07:28:18.999Z</time>
      </trkpt>
      <trkpt lat="46.53468" lon="5.89136">
        <ele>944.08081054688</ele>
        <time>2013-06-30T07:28:20.999Z</time>
      </trkpt>
      <trkpt lat="46.53479" lon="5.89124">
        <ele>943.67413330078</ele>
        <time>2013-06-30T07:28:22.999Z</time>
      </trkpt>
      <trkpt lat="46.53493" lon="5.89115">
        <ele>943.12341308594</ele>
        <time>2013-06-30T07:28:24.999Z</time>
      </trkpt>
      <trkpt lat="46.53505" lon="5.89109">
        <ele>942.65478515625</ele>
        <time>2013-06-30T07:28:26.999Z</time>
      </trkpt>
      <trkpt lat="46.53513" lon="5.89103">
        <ele>942.68518066406</ele>
        <time>2013-06-30T07:28:28.999Z</time>
      </trkpt>
      <trkpt lat="46.53518" lon="5.89095">
        <ele>942.71789550781</ele>
        <time>2013-06-30T07:28:30.999Z</time>
      </trkpt>
      <trkpt lat="46.53517" lon="5.89079">
        <ele>942.61846923828</ele>
        <time>2013-06-30T07:28:32.999Z</time>
      </trkpt>
      <trkpt lat="46.53511" lon="5.89066">
        <ele>943.12780761719</ele>
        <time>2013-06-30T07:28:34.999Z</time>
      </trkpt>
      <trkpt lat="46.53503" lon="5.89051">
        <ele>944.09625244141</ele>
        <time>2013-06-30T07:28:36.999Z</time>
      </trkpt>
      <trkpt lat="46.53494" lon="5.89035">
        <ele>944.859375</ele>
        <time>2013-06-30T07:28:38.999Z</time>
      </trkpt>
      <trkpt lat="46.53488" lon="5.89017">
        <ele>946.51141357422</ele>
        <time>2013-06-30T07:28:40.999Z</time>
      </trkpt>
      <trkpt lat="46.53484" lon="5.88997">
        <ele>947.77862548828</ele>
        <time>2013-06-30T07:28:42.999Z</time>
      </trkpt>
      <trkpt lat="46.53481" lon="5.8898">
        <ele>947.64678955078</ele>
        <time>2013-06-30T07:28:44.999Z</time>
      </trkpt>
      <trkpt lat="46.53479" lon="5.88967">
        <ele>947.29547119141</ele>
        <time>2013-06-30T07:28:46.999Z</time>
      </trkpt>
      <trkpt lat="46.53479" lon="5.88956">
        <ele>947.01953125</ele>
        <time>2013-06-30T07:28:48.999Z</time>
      </trkpt>
      <trkpt lat="46.53478" lon="5.88945">
        <ele>946.92742919922</ele>
        <time>2013-06-30T07:28:50.999Z</time>
      </trkpt>
      <trkpt lat="46.5348" lon="5.88936">
        <ele>946.86804199219</ele>
        <time>2013-06-30T07:28:52.999Z</time>
      </trkpt>
      <trkpt lat="46.53484" lon="5.88929">
        <ele>946.83587646484</ele>
        <time>2013-06-30T07:28:54.999Z</time>
      </trkpt>
      <trkpt lat="46.5349" lon="5.88924">
        <ele>946.876953125</ele>
        <time>2013-06-30T07:28:56.999Z</time>
      </trkpt>
      <trkpt lat="46.53497" lon="5.8892">
        <ele>946.94055175781</ele>
        <time>2013-06-30T07:28:58.999Z</time>
      </trkpt>
      <trkpt lat="46.53503" lon="5.88918">
        <ele>947.08551025391</ele>
        <time>2013-06-30T07:29:00.999Z</time>
      </trkpt>
      <trkpt lat="46.53509" lon="5.88918">
        <ele>947.34387207031</ele>
        <time>2013-06-30T07:29:02.999Z</time>
      </trkpt>
      <trkpt lat="46.53515" lon="5.88917">
        <ele>947.71826171875</ele>
        <time>2013-06-30T07:29:04.999Z</time>
      </trkpt>
      <trkpt lat="46.53523" lon="5.88914">
        <ele>950.09033203125</ele>
        <time>2013-06-30T07:29:06.999Z</time>
      </trkpt>
      <trkpt lat="46.53528" lon="5.88909">
        <ele>950.57135009766</ele>
        <time>2013-06-30T07:29:08.999Z</time>
      </trkpt>
      <trkpt lat="46.53532" lon="5.88901">
        <ele>951.05444335938</ele>
        <time>2013-06-30T07:29:10.999Z</time>
      </trkpt>
      <trkpt lat="46.53534" lon="5.88889">
        <ele>953.30786132812</ele>
        <time>2013-06-30T07:29:12.999Z</time>
      </trkpt>
      <trkpt lat="46.53534" lon="5.88874">
        <ele>955.14428710938</ele>
        <time>2013-06-30T07:29:14.999Z</time>
      </trkpt>
      <trkpt lat="46.53532" lon="5.8886">
        <ele>955.48474121094</ele>
        <time>2013-06-30T07:29:16.999Z</time>
      </trkpt>
      <trkpt lat="46.53527" lon="5.88849">
        <ele>955.52752685547</ele>
        <time>2013-06-30T07:29:18.999Z</time>
      </trkpt>
      <trkpt lat="46.53521" lon="5.8884">
        <ele>955.75787353516</ele>
        <time>2013-06-30T07:29:20.999Z</time>
      </trkpt>
      <trkpt lat="46.53514" lon="5.88831">
        <ele>956.02398681641</ele>
        <time>2013-06-30T07:29:22.999Z</time>
      </trkpt>
      <trkpt lat="46.53506" lon="5.88821">
        <ele>955.97290039062</ele>
        <time>2013-06-30T07:29:24.999Z</time>
      </trkpt>
      <trkpt lat="46.53498" lon="5.8881">
        <ele>955.85626220703</ele>
        <time>2013-06-30T07:29:26.999Z</time>
      </trkpt>
      <trkpt lat="46.53491" lon="5.88799">
        <ele>956.23431396484</ele>
        <time>2013-06-30T07:29:28.999Z</time>
      </trkpt>
      <trkpt lat="46.53485" lon="5.88788">
        <ele>956.37292480469</ele>
        <time>2013-06-30T07:29:30.999Z</time>
      </trkpt>
      <trkpt lat="46.5348" lon="5.88774">
        <ele>956.77362060547</ele>
        <time>2013-06-30T07:29:32.999Z</time>
      </trkpt>
      <trkpt lat="46.53476" lon="5.88758">
        <ele>956.99298095703</ele>
        <time>2013-06-30T07:29:34.999Z</time>
      </trkpt>
      <trkpt lat="46.53476" lon="5.8874">
        <ele>957.18432617188</ele>
        <time>2013-06-30T07:29:36.999Z</time>
      </trkpt>
      <trkpt lat="46.53478" lon="5.88717">
        <ele>956.76550292969</ele>
        <time>2013-06-30T07:29:38.999Z</time>
      </trkpt>
      <trkpt lat="46.53481" lon="5.88698">
        <ele>955.12451171875</ele>
        <time>2013-06-30T07:29:40.999Z</time>
      </trkpt>
      <trkpt lat="46.53483" lon="5.88682">
        <ele>953.65130615234</ele>
        <time>2013-06-30T07:29:42.999Z</time>
      </trkpt>
      <trkpt lat="46.53485" lon="5.88668">
        <ele>953.08758544922</ele>
        <time>2013-06-30T07:29:44.999Z</time>
      </trkpt>
      <trkpt lat="46.53483" lon="5.88653">
        <ele>952.62847900391</ele>
        <time>2013-06-30T07:29:46.999Z</time>
      </trkpt>
      <trkpt lat="46.53481" lon="5.88639">
        <ele>952.21215820312</ele>
        <time>2013-06-30T07:29:48.999Z</time>
      </trkpt>
      <trkpt lat="46.53477" lon="5.88624">
        <ele>952.62951660156</ele>
        <time>2013-06-30T07:29:50.999Z</time>
      </trkpt>
      <trkpt lat="46.53474" lon="5.88611">
        <ele>953.3681640625</ele>
        <time>2013-06-30T07:29:52.999Z</time>
      </trkpt>
      <trkpt lat="46.53471" lon="5.88597">
        <ele>953.49395751953</ele>
        <time>2013-06-30T07:29:54.999Z</time>
      </trkpt>
      <trkpt lat="46.53467" lon="5.88584">
        <ele>953.60321044922</ele>
        <time>2013-06-30T07:29:56.999Z</time>
      </trkpt>
      <trkpt lat="46.53463" lon="5.88569">
        <ele>953.71020507812</ele>
        <time>2013-06-30T07:29:58.999Z</time>
      </trkpt>
      <trkpt lat="46.53459" lon="5.88553">
        <ele>953.49017333984</ele>
        <time>2013-06-30T07:30:00.999Z</time>
      </trkpt>
      <trkpt lat="46.53454" lon="5.88536">
        <ele>953.31909179688</ele>
        <time>2013-06-30T07:30:02.999Z</time>
      </trkpt>
      <trkpt lat="46.5345" lon="5.88519">
        <ele>953.24615478516</ele>
        <time>2013-06-30T07:30:04.999Z</time>
      </trkpt>
      <trkpt lat="46.53447" lon="5.88502">
        <ele>953.58843994141</ele>
        <time>2013-06-30T07:30:06.999Z</time>
      </trkpt>
      <trkpt lat="46.53449" lon="5.88485">
        <ele>953.54626464844</ele>
        <time>2013-06-30T07:30:08.999Z</time>
      </trkpt>
      <trkpt lat="46.53456" lon="5.88468">
        <ele>953.06146240234</ele>
        <time>2013-06-30T07:30:10.999Z</time>
      </trkpt>
      <trkpt lat="46.53466" lon="5.88453">
        <ele>952.31005859375</ele>
        <time>2013-06-30T07:30:12.999Z</time>
      </trkpt>
      <trkpt lat="46.53478" lon="5.88439">
        <ele>952.40979003906</ele>
        <time>2013-06-30T07:30:14.999Z</time>
      </trkpt>
      <trkpt lat="46.53488" lon="5.8842">
        <ele>952.19921875</ele>
        <time>2013-06-30T07:30:16.999Z</time>
      </trkpt>
      <trkpt lat="46.53495" lon="5.88401">
        <ele>951.02783203125</ele>
        <time>2013-06-30T07:30:18.999Z</time>
      </trkpt>
      <trkpt lat="46.53501" lon="5.88381">
        <ele>949.77166748047</ele>
        <time>2013-06-30T07:30:20.999Z</time>
      </trkpt>
      <trkpt lat="46.53505" lon="5.88359">
        <ele>948.64965820312</ele>
        <time>2013-06-30T07:30:22.999Z</time>
      </trkpt>
      <trkpt lat="46.53509" lon="5.88338">
        <ele>947.83673095703</ele>
        <time>2013-06-30T07:30:24.999Z</time>
      </trkpt>
      <trkpt lat="46.53512" lon="5.88318">
        <ele>947.40478515625</ele>
        <time>2013-06-30T07:30:26.999Z</time>
      </trkpt>
      <trkpt lat="46.53515" lon="5.88302">
        <ele>948.02545166016</ele>
        <time>2013-06-30T07:30:28.999Z</time>
      </trkpt>
      <trkpt lat="46.53518" lon="5.88284">
        <ele>948.66949462891</ele>
        <time>2013-06-30T07:30:30.999Z</time>
      </trkpt>
      <trkpt lat="46.53521" lon="5.88267">
        <ele>949.31530761719</ele>
        <time>2013-06-30T07:30:32.999Z</time>
      </trkpt>
      <trkpt lat="46.53525" lon="5.88251">
        <ele>949.83056640625</ele>
        <time>2013-06-30T07:30:34.999Z</time>
      </trkpt>
      <trkpt lat="46.53531" lon="5.88235">
        <ele>950.12969970703</ele>
        <time>2013-06-30T07:30:36.999Z</time>
      </trkpt>
      <trkpt lat="46.53537" lon="5.88219">
        <ele>950.44030761719</ele>
        <time>2013-06-30T07:30:38.999Z</time>
      </trkpt>
      <trkpt lat="46.53543" lon="5.88204">
        <ele>950.51312255859</ele>
        <time>2013-06-30T07:30:40.999Z</time>
      </trkpt>
      <trkpt lat="46.5355" lon="5.88189">
        <ele>950.48309326172</ele>
        <time>2013-06-30T07:30:42.999Z</time>
      </trkpt>
      <trkpt lat="46.53553" lon="5.88174">
        <ele>950.84515380859</ele>
        <time>2013-06-30T07:30:44.999Z</time>
      </trkpt>
      <trkpt lat="46.53553" lon="5.88156">
        <ele>950.50561523438</ele>
        <time>2013-06-30T07:30:46.999Z</time>
      </trkpt>
      <trkpt lat="46.5355" lon="5.88141">
        <ele>950.33142089844</ele>
        <time>2013-06-30T07:30:48.999Z</time>
      </trkpt>
      <trkpt lat="46.53547" lon="5.88127">
        <ele>950.24377441406</ele>
        <time>2013-06-30T07:30:50.999Z</time>
      </trkpt>
      <trkpt lat="46.53544" lon="5.88113">
        <ele>950.90838623047</ele>
        <time>2013-06-30T07:30:52.999Z</time>
      </trkpt>
      <trkpt lat="46.5354" lon="5.881">
        <ele>951.29046630859</ele>
        <time>2013-06-30T07:30:54.999Z</time>
      </trkpt>
      <trkpt lat="46.53536" lon="5.88085">
        <ele>951.58563232422</ele>
        <time>2013-06-30T07:30:56.999Z</time>
      </trkpt>
      <trkpt lat="46.53531" lon="5.88069">
        <ele>952.89044189453</ele>
        <time>2013-06-30T07:30:58.999Z</time>
      </trkpt>
      <trkpt lat="46.53527" lon="5.88055">
        <ele>953.60540771484</ele>
        <time>2013-06-30T07:31:00.999Z</time>
      </trkpt>
      <trkpt lat="46.53524" lon="5.88039">
        <ele>953.65161132812</ele>
        <time>2013-06-30T07:31:02.999Z</time>
      </trkpt>
      <trkpt lat="46.53521" lon="5.88024">
        <ele>954.18328857422</ele>
        <time>2013-06-30T07:31:04.999Z</time>
      </trkpt>
      <trkpt lat="46.53519" lon="5.8801">
        <ele>954.38592529297</ele>
        <time>2013-06-30T07:31:06.999Z</time>
      </trkpt>
      <trkpt lat="46.5352" lon="5.87998">
        <ele>954.20349121094</ele>
        <time>2013-06-30T07:31:08.999Z</time>
      </trkpt>
      <trkpt lat="46.53522" lon="5.87987">
        <ele>954.26904296875</ele>
        <time>2013-06-30T07:31:10.999Z</time>
      </trkpt>
      <trkpt lat="46.53526" lon="5.87978">
        <ele>954.82281494141</ele>
        <time>2013-06-30T07:31:12.999Z</time>
      </trkpt>
      <trkpt lat="46.53531" lon="5.8797">
        <ele>955.51690673828</ele>
        <time>2013-06-30T07:31:14.999Z</time>
      </trkpt>
      <trkpt lat="46.53536" lon="5.87962">
        <ele>955.64678955078</ele>
        <time>2013-06-30T07:31:16.999Z</time>
      </trkpt>
      <trkpt lat="46.53542" lon="5.87956">
        <ele>955.73645019531</ele>
        <time>2013-06-30T07:31:18.999Z</time>
      </trkpt>
      <trkpt lat="46.53547" lon="5.87952">
        <ele>955.71374511719</ele>
        <time>2013-06-30T07:31:20.999Z</time>
      </trkpt>
      <trkpt lat="46.53553" lon="5.87948">
        <ele>955.73303222656</ele>
        <time>2013-06-30T07:31:22.999Z</time>
      </trkpt>
      <trkpt lat="46.53559" lon="5.87942">
        <ele>955.8837890625</ele>
        <time>2013-06-30T07:31:24.999Z</time>
      </trkpt>
      <trkpt lat="46.53564" lon="5.87937">
        <ele>956.02221679688</ele>
        <time>2013-06-30T07:31:26.999Z</time>
      </trkpt>
      <trkpt lat="46.53571" lon="5.87931">
        <ele>956.25555419922</ele>
        <time>2013-06-30T07:31:29.999Z</time>
      </trkpt>
      <trkpt lat="46.53575" lon="5.87927">
        <ele>956.14202880859</ele>
        <time>2013-06-30T07:32:26.999Z</time>
      </trkpt>
      <trkpt lat="46.53578" lon="5.87925">
        <ele>956.25744628906</ele>
        <time>2013-06-30T07:32:28.999Z</time>
      </trkpt>
      <trkpt lat="46.53584" lon="5.87922">
        <ele>956.37408447266</ele>
        <time>2013-06-30T07:32:30.999Z</time>
      </trkpt>
      <trkpt lat="46.53591" lon="5.87919">
        <ele>956.49377441406</ele>
        <time>2013-06-30T07:32:32.999Z</time>
      </trkpt>
      <trkpt lat="46.53596" lon="5.8792">
        <ele>956.70452880859</ele>
        <time>2013-06-30T07:32:34.999Z</time>
      </trkpt>
      <trkpt lat="46.53601" lon="5.87922">
        <ele>957.07275390625</ele>
        <time>2013-06-30T07:32:36.999Z</time>
      </trkpt>
      <trkpt lat="46.53607" lon="5.87924">
        <ele>957.44702148438</ele>
        <time>2013-06-30T07:32:38.999Z</time>
      </trkpt>
      <trkpt lat="46.53613" lon="5.87921">
        <ele>957.83917236328</ele>
        <time>2013-06-30T07:32:41.999Z</time>
      </trkpt>
      <trkpt lat="46.53618" lon="5.8792">
        <ele>958.23834228516</ele>
        <time>2013-06-30T07:32:43.999Z</time>
      </trkpt>
      <trkpt lat="46.53623" lon="5.87919">
        <ele>958.52258300781</ele>
        <time>2013-06-30T07:32:45.999Z</time>
      </trkpt>
      <trkpt lat="46.53628" lon="5.87917">
        <ele>958.72338867188</ele>
        <time>2013-06-30T07:32:47.999Z</time>
      </trkpt>
      <trkpt lat="46.53633" lon="5.87915">
        <ele>958.79534912109</ele>
        <time>2013-06-30T07:32:49.999Z</time>
      </trkpt>
      <trkpt lat="46.53639" lon="5.87912">
        <ele>959.14825439453</ele>
        <time>2013-06-30T07:32:51.999Z</time>
      </trkpt>
      <trkpt lat="46.53645" lon="5.87908">
        <ele>959.63446044922</ele>
        <time>2013-06-30T07:32:53.999Z</time>
      </trkpt>
      <trkpt lat="46.5365" lon="5.87905">
        <ele>960.21612548828</ele>
        <time>2013-06-30T07:32:55.999Z</time>
      </trkpt>
      <trkpt lat="46.53656" lon="5.87903">
        <ele>960.99084472656</ele>
        <time>2013-06-30T07:32:58.999Z</time>
      </trkpt>
      <trkpt lat="46.53662" lon="5.87902">
        <ele>961.76184082031</ele>
        <time>2013-06-30T07:33:00.999Z</time>
      </trkpt>
      <trkpt lat="46.53669" lon="5.87903">
        <ele>962.87756347656</ele>
        <time>2013-06-30T07:33:03.999Z</time>
      </trkpt>
      <trkpt lat="46.53673" lon="5.87905">
        <ele>963.51025390625</ele>
        <time>2013-06-30T07:33:06.999Z</time>
      </trkpt>
      <trkpt lat="46.5368" lon="5.87903">
        <ele>963.92095947266</ele>
        <time>2013-06-30T07:33:08.999Z</time>
      </trkpt>
      <trkpt lat="46.53686" lon="5.87898">
        <ele>964.44885253906</ele>
        <time>2013-06-30T07:33:10.999Z</time>
      </trkpt>
      <trkpt lat="46.53693" lon="5.87892">
        <ele>964.94342041016</ele>
        <time>2013-06-30T07:33:12.999Z</time>
      </trkpt>
      <trkpt lat="46.537" lon="5.87887">
        <ele>965.41796875</ele>
        <time>2013-06-30T07:33:14.999Z</time>
      </trkpt>
      <trkpt lat="46.53707" lon="5.87885">
        <ele>965.92535400391</ele>
        <time>2013-06-30T07:33:16.999Z</time>
      </trkpt>
      <trkpt lat="46.53713" lon="5.87885">
        <ele>966.546875</ele>
        <time>2013-06-30T07:33:18.999Z</time>
      </trkpt>
      <trkpt lat="46.5372" lon="5.87889">
        <ele>967.10852050781</ele>
        <time>2013-06-30T07:33:20.999Z</time>
      </trkpt>
      <trkpt lat="46.53727" lon="5.87893">
        <ele>967.72436523438</ele>
        <time>2013-06-30T07:33:22.999Z</time>
      </trkpt>
      <trkpt lat="46.53734" lon="5.87897">
        <ele>968.35760498047</ele>
        <time>2013-06-30T07:33:24.999Z</time>
      </trkpt>
      <trkpt lat="46.53739" lon="5.879">
        <ele>969.06719970703</ele>
        <time>2013-06-30T07:33:26.999Z</time>
      </trkpt>
      <trkpt lat="46.53744" lon="5.87903">
        <ele>969.58203125</ele>
        <time>2013-06-30T07:33:28.999Z</time>
      </trkpt>
      <trkpt lat="46.53752" lon="5.87907">
        <ele>970.06243896484</ele>
        <time>2013-06-30T07:33:30.999Z</time>
      </trkpt>
      <trkpt lat="46.53758" lon="5.8791">
        <ele>970.65045166016</ele>
        <time>2013-06-30T07:33:32.999Z</time>
      </trkpt>
      <trkpt lat="46.53766" lon="5.87915">
        <ele>971.20300292969</ele>
        <time>2013-06-30T07:33:34.999Z</time>
      </trkpt>
      <trkpt lat="46.53773" lon="5.87919">
        <ele>971.78442382812</ele>
        <time>2013-06-30T07:33:36.999Z</time>
      </trkpt>
      <trkpt lat="46.53779" lon="5.87923">
        <ele>972.38897705078</ele>
        <time>2013-06-30T07:33:38.999Z</time>
      </trkpt>
      <trkpt lat="46.53784" lon="5.87926">
        <ele>972.95574951172</ele>
        <time>2013-06-30T07:33:40.999Z</time>
      </trkpt>
      <trkpt lat="46.5379" lon="5.87928">
        <ele>973.53375244141</ele>
        <time>2013-06-30T07:33:42.999Z</time>
      </trkpt>
      <trkpt lat="46.53796" lon="5.87931">
        <ele>974.16046142578</ele>
        <time>2013-06-30T07:33:44.999Z</time>
      </trkpt>
      <trkpt lat="46.53803" lon="5.87935">
        <ele>974.93902587891</ele>
        <time>2013-06-30T07:33:46.999Z</time>
      </trkpt>
      <trkpt lat="46.53812" lon="5.87937">
        <ele>975.70208740234</ele>
        <time>2013-06-30T07:33:48.999Z</time>
      </trkpt>
      <trkpt lat="46.5382" lon="5.8794">
        <ele>976.46765136719</ele>
        <time>2013-06-30T07:33:50.999Z</time>
      </trkpt>
      <trkpt lat="46.53827" lon="5.8794">
        <ele>977.29089355469</ele>
        <time>2013-06-30T07:33:52.999Z</time>
      </trkpt>
      <trkpt lat="46.53834" lon="5.87941">
        <ele>978.04907226562</ele>
        <time>2013-06-30T07:33:54.999Z</time>
      </trkpt>
      <trkpt lat="46.53841" lon="5.87944">
        <ele>978.72473144531</ele>
        <time>2013-06-30T07:33:56.999Z</time>
      </trkpt>
      <trkpt lat="46.53849" lon="5.87944">
        <ele>979.39935302734</ele>
        <time>2013-06-30T07:33:58.999Z</time>
      </trkpt>
      <trkpt lat="46.53856" lon="5.87947">
        <ele>980.03723144531</ele>
        <time>2013-06-30T07:34:00.999Z</time>
      </trkpt>
      <trkpt lat="46.53861" lon="5.8795">
        <ele>980.41723632812</ele>
        <time>2013-06-30T07:34:02.999Z</time>
      </trkpt>
      <trkpt lat="46.53867" lon="5.87953">
        <ele>981.24920654297</ele>
        <time>2013-06-30T07:34:05.999Z</time>
      </trkpt>
      <trkpt lat="46.53872" lon="5.87954">
        <ele>981.87463378906</ele>
        <time>2013-06-30T07:34:07.999Z</time>
      </trkpt>
      <trkpt lat="46.53879" lon="5.87954">
        <ele>982.63549804688</ele>
        <time>2013-06-30T07:34:09.999Z</time>
      </trkpt>
      <trkpt lat="46.53887" lon="5.87955">
        <ele>983.43341064453</ele>
        <time>2013-06-30T07:34:11.999Z</time>
      </trkpt>
      <trkpt lat="46.53896" lon="5.87952">
        <ele>984.09600830078</ele>
        <time>2013-06-30T07:34:13.999Z</time>
      </trkpt>
      <trkpt lat="46.53905" lon="5.87948">
        <ele>984.69390869141</ele>
        <time>2013-06-30T07:34:15.999Z</time>
      </trkpt>
      <trkpt lat="46.53913" lon="5.87947">
        <ele>985.26330566406</ele>
        <time>2013-06-30T07:34:17.999Z</time>
      </trkpt>
      <trkpt lat="46.53921" lon="5.87945">
        <ele>985.79541015625</ele>
        <time>2013-06-30T07:34:19.999Z</time>
      </trkpt>
      <trkpt lat="46.53929" lon="5.87944">
        <ele>986.37127685547</ele>
        <time>2013-06-30T07:34:21.999Z</time>
      </trkpt>
      <trkpt lat="46.53936" lon="5.87943">
        <ele>989.61614990234</ele>
        <time>2013-06-30T07:34:23.999Z</time>
      </trkpt>
      <trkpt lat="46.53947" lon="5.87942">
        <ele>991.83612060547</ele>
        <time>2013-06-30T07:34:25.999Z</time>
      </trkpt>
      <trkpt lat="46.53956" lon="5.87941">
        <ele>992.45184326172</ele>
        <time>2013-06-30T07:34:27.999Z</time>
      </trkpt>
      <trkpt lat="46.53965" lon="5.87941">
        <ele>992.58776855469</ele>
        <time>2013-06-30T07:34:29.999Z</time>
      </trkpt>
      <trkpt lat="46.53972" lon="5.87939">
        <ele>992.67309570312</ele>
        <time>2013-06-30T07:34:31.999Z</time>
      </trkpt>
      <trkpt lat="46.5398" lon="5.87934">
        <ele>992.81335449219</ele>
        <time>2013-06-30T07:34:33.999Z</time>
      </trkpt>
      <trkpt lat="46.5399" lon="5.87929">
        <ele>994.91229248047</ele>
        <time>2013-06-30T07:34:35.999Z</time>
      </trkpt>
      <trkpt lat="46.54002" lon="5.87924">
        <ele>996.41198730469</ele>
        <time>2013-06-30T07:34:37.999Z</time>
      </trkpt>
      <trkpt lat="46.54013" lon="5.87921">
        <ele>996.21600341797</ele>
        <time>2013-06-30T07:34:39.999Z</time>
      </trkpt>
      <trkpt lat="46.54024" lon="5.87916">
        <ele>995.28204345703</ele>
        <time>2013-06-30T07:34:41.999Z</time>
      </trkpt>
      <trkpt lat="46.54035" lon="5.87915">
        <ele>995.39868164062</ele>
        <time>2013-06-30T07:34:43.999Z</time>
      </trkpt>
      <trkpt lat="46.54045" lon="5.87916">
        <ele>995.95324707031</ele>
        <time>2013-06-30T07:34:45.999Z</time>
      </trkpt>
      <trkpt lat="46.54054" lon="5.87917">
        <ele>996.22406005859</ele>
        <time>2013-06-30T07:34:47.999Z</time>
      </trkpt>
      <trkpt lat="46.54065" lon="5.87921">
        <ele>996.49548339844</ele>
        <time>2013-06-30T07:34:49.999Z</time>
      </trkpt>
      <trkpt lat="46.54076" lon="5.87928">
        <ele>997.49530029297</ele>
        <time>2013-06-30T07:34:51.999Z</time>
      </trkpt>
      <trkpt lat="46.54085" lon="5.87936">
        <ele>998.95050048828</ele>
        <time>2013-06-30T07:34:53.999Z</time>
      </trkpt>
      <trkpt lat="46.54092" lon="5.87942">
        <ele>998.50909423828</ele>
        <time>2013-06-30T07:34:55.999Z</time>
      </trkpt>
      <trkpt lat="46.541" lon="5.87947">
        <ele>998.91717529297</ele>
        <time>2013-06-30T07:34:57.999Z</time>
      </trkpt>
      <trkpt lat="46.54112" lon="5.87952">
        <ele>1000.0735473633</ele>
        <time>2013-06-30T07:34:59.999Z</time>
      </trkpt>
      <trkpt lat="46.54125" lon="5.87958">
        <ele>1000.5171508789</ele>
        <time>2013-06-30T07:35:01.999Z</time>
      </trkpt>
      <trkpt lat="46.54135" lon="5.87965">
        <ele>1000.3807373047</ele>
        <time>2013-06-30T07:35:03.999Z</time>
      </trkpt>
      <trkpt lat="46.54145" lon="5.87972">
        <ele>999.73406982422</ele>
        <time>2013-06-30T07:35:05.999Z</time>
      </trkpt>
      <trkpt lat="46.54157" lon="5.87983">
        <ele>999.80859375</ele>
        <time>2013-06-30T07:35:07.999Z</time>
      </trkpt>
      <trkpt lat="46.54167" lon="5.87992">
        <ele>999.56823730469</ele>
        <time>2013-06-30T07:35:09.999Z</time>
      </trkpt>
      <trkpt lat="46.54177" lon="5.88001">
        <ele>999.28045654297</ele>
        <time>2013-06-30T07:35:11.999Z</time>
      </trkpt>
      <trkpt lat="46.54188" lon="5.88011">
        <ele>998.39971923828</ele>
        <time>2013-06-30T07:35:13.999Z</time>
      </trkpt>
      <trkpt lat="46.54196" lon="5.8802">
        <ele>997.97180175781</ele>
        <time>2013-06-30T07:35:15.999Z</time>
      </trkpt>
      <trkpt lat="46.54205" lon="5.88031">
        <ele>996.93176269531</ele>
        <time>2013-06-30T07:35:17.999Z</time>
      </trkpt>
      <trkpt lat="46.54213" lon="5.88043">
        <ele>995.0517578125</ele>
        <time>2013-06-30T07:35:19.999Z</time>
      </trkpt>
      <trkpt lat="46.54223" lon="5.88054">
        <ele>993.45922851562</ele>
        <time>2013-06-30T07:35:21.999Z</time>
      </trkpt>
      <trkpt lat="46.54233" lon="5.88066">
        <ele>992.65606689453</ele>
        <time>2013-06-30T07:35:23.999Z</time>
      </trkpt>
      <trkpt lat="46.54241" lon="5.88079">
        <ele>991.98120117188</ele>
        <time>2013-06-30T07:35:25.999Z</time>
      </trkpt>
      <trkpt lat="46.54245" lon="5.88096">
        <ele>991.81585693359</ele>
        <time>2013-06-30T07:35:27.999Z</time>
      </trkpt>
      <trkpt lat="46.54246" lon="5.88111">
        <ele>992.10400390625</ele>
        <time>2013-06-30T07:35:29.999Z</time>
      </trkpt>
      <trkpt lat="46.54248" lon="5.88126">
        <ele>992.41436767578</ele>
        <time>2013-06-30T07:35:31.999Z</time>
      </trkpt>
      <trkpt lat="46.54253" lon="5.88142">
        <ele>992.71026611328</ele>
        <time>2013-06-30T07:35:33.999Z</time>
      </trkpt>
      <trkpt lat="46.54259" lon="5.88154">
        <ele>993.31671142578</ele>
        <time>2013-06-30T07:35:35.999Z</time>
      </trkpt>
      <trkpt lat="46.54266" lon="5.88168">
        <ele>993.95849609375</ele>
        <time>2013-06-30T07:35:37.999Z</time>
      </trkpt>
      <trkpt lat="46.54274" lon="5.88184">
        <ele>994.18505859375</ele>
        <time>2013-06-30T07:35:39.999Z</time>
      </trkpt>
      <trkpt lat="46.54282" lon="5.88198">
        <ele>993.71728515625</ele>
        <time>2013-06-30T07:35:41.999Z</time>
      </trkpt>
      <trkpt lat="46.54288" lon="5.88211">
        <ele>992.34344482422</ele>
        <time>2013-06-30T07:35:43.999Z</time>
      </trkpt>
      <trkpt lat="46.54295" lon="5.88225">
        <ele>991.93927001953</ele>
        <time>2013-06-30T07:35:45.999Z</time>
      </trkpt>
      <trkpt lat="46.54301" lon="5.88237">
        <ele>991.94879150391</ele>
        <time>2013-06-30T07:35:47.999Z</time>
      </trkpt>
      <trkpt lat="46.5431" lon="5.88245">
        <ele>991.69970703125</ele>
        <time>2013-06-30T07:35:49.999Z</time>
      </trkpt>
      <trkpt lat="46.54317" lon="5.88253">
        <ele>991.75646972656</ele>
        <time>2013-06-30T07:35:51.999Z</time>
      </trkpt>
      <trkpt lat="46.54324" lon="5.88265">
        <ele>992.88977050781</ele>
        <time>2013-06-30T07:35:53.999Z</time>
      </trkpt>
      <trkpt lat="46.54331" lon="5.88277">
        <ele>992.94873046875</ele>
        <time>2013-06-30T07:35:55.999Z</time>
      </trkpt>
      <trkpt lat="46.54337" lon="5.88289">
        <ele>992.35711669922</ele>
        <time>2013-06-30T07:35:57.999Z</time>
      </trkpt>
      <trkpt lat="46.54343" lon="5.88303">
        <ele>990.64862060547</ele>
        <time>2013-06-30T07:35:59.999Z</time>
      </trkpt>
      <trkpt lat="46.5435" lon="5.88317">
        <ele>989.12127685547</ele>
        <time>2013-06-30T07:36:01.999Z</time>
      </trkpt>
      <trkpt lat="46.54356" lon="5.8833">
        <ele>988.26721191406</ele>
        <time>2013-06-30T07:36:03.999Z</time>
      </trkpt>
      <trkpt lat="46.54361" lon="5.88344">
        <ele>988.18536376953</ele>
        <time>2013-06-30T07:36:05.999Z</time>
      </trkpt>
      <trkpt lat="46.54367" lon="5.88358">
        <ele>988.11645507812</ele>
        <time>2013-06-30T07:36:07.999Z</time>
      </trkpt>
      <trkpt lat="46.54372" lon="5.88372">
        <ele>987.44976806641</ele>
        <time>2013-06-30T07:36:09.999Z</time>
      </trkpt>
      <trkpt lat="46.54378" lon="5.88385">
        <ele>986.64910888672</ele>
        <time>2013-06-30T07:36:11.999Z</time>
      </trkpt>
      <trkpt lat="46.54384" lon="5.88391">
        <ele>986.56695556641</ele>
        <time>2013-06-30T07:36:13.999Z</time>
      </trkpt>
      <trkpt lat="46.54389" lon="5.88393">
        <ele>986.73376464844</ele>
        <time>2013-06-30T07:36:15.999Z</time>
      </trkpt>
      <trkpt lat="46.54395" lon="5.88393">
        <ele>987.03295898438</ele>
        <time>2013-06-30T07:36:17.999Z</time>
      </trkpt>
      <trkpt lat="46.544" lon="5.88395">
        <ele>987.38848876953</ele>
        <time>2013-06-30T07:36:19.999Z</time>
      </trkpt>
      <trkpt lat="46.54406" lon="5.88397">
        <ele>987.70672607422</ele>
        <time>2013-06-30T07:36:21.999Z</time>
      </trkpt>
      <trkpt lat="46.54412" lon="5.88401">
        <ele>987.95227050781</ele>
        <time>2013-06-30T07:36:23.999Z</time>
      </trkpt>
      <trkpt lat="46.54418" lon="5.88404">
        <ele>988.10162353516</ele>
        <time>2013-06-30T07:36:25.999Z</time>
      </trkpt>
      <trkpt lat="46.54425" lon="5.88407">
        <ele>988.04272460938</ele>
        <time>2013-06-30T07:36:27.999Z</time>
      </trkpt>
      <trkpt lat="46.54432" lon="5.88408">
        <ele>988.08843994141</ele>
        <time>2013-06-30T07:36:29.999Z</time>
      </trkpt>
      <trkpt lat="46.54438" lon="5.88409">
        <ele>988.26196289062</ele>
        <time>2013-06-30T07:36:31.999Z</time>
      </trkpt>
      <trkpt lat="46.54444" lon="5.88412">
        <ele>988.4560546875</ele>
        <time>2013-06-30T07:36:33.999Z</time>
      </trkpt>
      <trkpt lat="46.5445" lon="5.88415">
        <ele>988.82873535156</ele>
        <time>2013-06-30T07:36:35.999Z</time>
      </trkpt>
      <trkpt lat="46.54457" lon="5.88416">
        <ele>989.15667724609</ele>
        <time>2013-06-30T07:36:37.999Z</time>
      </trkpt>
      <trkpt lat="46.54462" lon="5.88418">
        <ele>989.52819824219</ele>
        <time>2013-06-30T07:36:39.999Z</time>
      </trkpt>
      <trkpt lat="46.54469" lon="5.88419">
        <ele>990.03228759766</ele>
        <time>2013-06-30T07:36:41.999Z</time>
      </trkpt>
      <trkpt lat="46.54475" lon="5.88417">
        <ele>990.54553222656</ele>
        <time>2013-06-30T07:36:43.999Z</time>
      </trkpt>
      <trkpt lat="46.54481" lon="5.88416">
        <ele>991.18048095703</ele>
        <time>2013-06-30T07:36:45.999Z</time>
      </trkpt>
      <trkpt lat="46.54487" lon="5.88416">
        <ele>991.84149169922</ele>
        <time>2013-06-30T07:36:47.999Z</time>
      </trkpt>
      <trkpt lat="46.54493" lon="5.88415">
        <ele>992.37487792969</ele>
        <time>2013-06-30T07:36:49.999Z</time>
      </trkpt>
      <trkpt lat="46.545" lon="5.88416">
        <ele>992.86749267578</ele>
        <time>2013-06-30T07:36:51.999Z</time>
      </trkpt>
      <trkpt lat="46.54508" lon="5.88415">
        <ele>993.51391601562</ele>
        <time>2013-06-30T07:36:53.999Z</time>
      </trkpt>
      <trkpt lat="46.54515" lon="5.88412">
        <ele>994.07604980469</ele>
        <time>2013-06-30T07:36:55.999Z</time>
      </trkpt>
      <trkpt lat="46.54521" lon="5.88408">
        <ele>994.63214111328</ele>
        <time>2013-06-30T07:36:57.999Z</time>
      </trkpt>
      <trkpt lat="46.54525" lon="5.88403">
        <ele>995.078125</ele>
        <time>2013-06-30T07:36:59.999Z</time>
      </trkpt>
      <trkpt lat="46.54528" lon="5.88396">
        <ele>995.71136474609</ele>
        <time>2013-06-30T07:37:02.999Z</time>
      </trkpt>
      <trkpt lat="46.54528" lon="5.88389">
        <ele>996.34332275391</ele>
        <time>2013-06-30T07:37:05.999Z</time>
      </trkpt>
      <trkpt lat="46.54525" lon="5.88382">
        <ele>996.83172607422</ele>
        <time>2013-06-30T07:37:08.999Z</time>
      </trkpt>
      <trkpt lat="46.54521" lon="5.88377">
        <ele>996.95471191406</ele>
        <time>2013-06-30T07:37:10.999Z</time>
      </trkpt>
      <trkpt lat="46.54514" lon="5.88374">
        <ele>997.13470458984</ele>
        <time>2013-06-30T07:37:12.999Z</time>
      </trkpt>
      <trkpt lat="46.54508" lon="5.8837">
        <ele>997.21917724609</ele>
        <time>2013-06-30T07:37:14.999Z</time>
      </trkpt>
      <trkpt lat="46.54501" lon="5.88366">
        <ele>997.18005371094</ele>
        <time>2013-06-30T07:37:16.999Z</time>
      </trkpt>
      <trkpt lat="46.54496" lon="5.88362">
        <ele>997.12615966797</ele>
        <time>2013-06-30T07:37:18.999Z</time>
      </trkpt>
      <trkpt lat="46.54491" lon="5.8836">
        <ele>997.21417236328</ele>
        <time>2013-06-30T07:37:20.999Z</time>
      </trkpt>
      <trkpt lat="46.54486" lon="5.88359">
        <ele>997.39373779297</ele>
        <time>2013-06-30T07:37:22.999Z</time>
      </trkpt>
      <trkpt lat="46.54479" lon="5.88355">
        <ele>997.85565185547</ele>
        <time>2013-06-30T07:37:25.999Z</time>
      </trkpt>
      <trkpt lat="46.54474" lon="5.88348">
        <ele>998.64465332031</ele>
        <time>2013-06-30T07:37:28.999Z</time>
      </trkpt>
      <trkpt lat="46.54468" lon="5.88343">
        <ele>999.20892333984</ele>
        <time>2013-06-30T07:37:30.999Z</time>
      </trkpt>
      <trkpt lat="46.54464" lon="5.88335">
        <ele>999.59515380859</ele>
        <time>2013-06-30T07:37:32.999Z</time>
      </trkpt>
      <trkpt lat="46.54461" lon="5.88326">
        <ele>999.83184814453</ele>
        <time>2013-06-30T07:37:34.999Z</time>
      </trkpt>
      <trkpt lat="46.5446" lon="5.88318">
        <ele>1000.0588989258</ele>
        <time>2013-06-30T07:37:36.999Z</time>
      </trkpt>
      <trkpt lat="46.54458" lon="5.88311">
        <ele>1000.2942504883</ele>
        <time>2013-06-30T07:37:38.999Z</time>
      </trkpt>
      <trkpt lat="46.54457" lon="5.88302">
        <ele>1000.5584106445</ele>
        <time>2013-06-30T07:37:41.999Z</time>
      </trkpt>
      <trkpt lat="46.54455" lon="5.88295">
        <ele>1000.8546142578</ele>
        <time>2013-06-30T07:37:43.999Z</time>
      </trkpt>
      <trkpt lat="46.54451" lon="5.88287">
        <ele>1001.408996582</ele>
        <time>2013-06-30T07:37:46.999Z</time>
      </trkpt>
      <trkpt lat="46.54448" lon="5.88281">
        <ele>1001.9340820312</ele>
        <time>2013-06-30T07:37:48.999Z</time>
      </trkpt>
      <trkpt lat="46.54445" lon="5.88275">
        <ele>1002.5119628906</ele>
        <time>2013-06-30T07:37:50.999Z</time>
      </trkpt>
      <trkpt lat="46.54443" lon="5.88268">
        <ele>1003.1106567383</ele>
        <time>2013-06-30T07:37:52.999Z</time>
      </trkpt>
      <trkpt lat="46.5444" lon="5.88261">
        <ele>1003.6435546875</ele>
        <time>2013-06-30T07:37:54.999Z</time>
      </trkpt>
      <trkpt lat="46.54436" lon="5.88254">
        <ele>1004.033996582</ele>
        <time>2013-06-30T07:37:56.999Z</time>
      </trkpt>
      <trkpt lat="46.54433" lon="5.88246">
        <ele>1004.4077148438</ele>
        <time>2013-06-30T07:37:58.999Z</time>
      </trkpt>
      <trkpt lat="46.54431" lon="5.8824">
        <ele>1004.7033081055</ele>
        <time>2013-06-30T07:38:00.999Z</time>
      </trkpt>
      <trkpt lat="46.5443" lon="5.88234">
        <ele>1004.9197387695</ele>
        <time>2013-06-30T07:38:02.999Z</time>
      </trkpt>
      <trkpt lat="46.54428" lon="5.88225">
        <ele>1005.0791625977</ele>
        <time>2013-06-30T07:38:04.999Z</time>
      </trkpt>
      <trkpt lat="46.54426" lon="5.88218">
        <ele>1005.315612793</ele>
        <time>2013-06-30T07:38:06.999Z</time>
      </trkpt>
      <trkpt lat="46.54423" lon="5.8821">
        <ele>1005.8110351562</ele>
        <time>2013-06-30T07:38:08.999Z</time>
      </trkpt>
      <trkpt lat="46.5442" lon="5.88202">
        <ele>1006.4721679688</ele>
        <time>2013-06-30T07:38:10.999Z</time>
      </trkpt>
      <trkpt lat="46.54416" lon="5.88194">
        <ele>1007.1614990234</ele>
        <time>2013-06-30T07:38:12.999Z</time>
      </trkpt>
      <trkpt lat="46.54412" lon="5.88185">
        <ele>1007.8272705078</ele>
        <time>2013-06-30T07:38:14.999Z</time>
      </trkpt>
      <trkpt lat="46.54408" lon="5.88174">
        <ele>1008.3924560547</ele>
        <time>2013-06-30T07:38:16.999Z</time>
      </trkpt>
      <trkpt lat="46.54404" lon="5.88165">
        <ele>1008.9275512695</ele>
        <time>2013-06-30T07:38:18.999Z</time>
      </trkpt>
      <trkpt lat="46.54402" lon="5.88156">
        <ele>1009.475769043</ele>
        <time>2013-06-30T07:38:20.999Z</time>
      </trkpt>
      <trkpt lat="46.54401" lon="5.88148">
        <ele>1009.9508666992</ele>
        <time>2013-06-30T07:38:22.999Z</time>
      </trkpt>
      <trkpt lat="46.544" lon="5.8814">
        <ele>1010.3359985352</ele>
        <time>2013-06-30T07:38:24.999Z</time>
      </trkpt>
      <trkpt lat="46.544" lon="5.88131">
        <ele>1010.6538696289</ele>
        <time>2013-06-30T07:38:26.999Z</time>
      </trkpt>
      <trkpt lat="46.54399" lon="5.88122">
        <ele>1011.0064697266</ele>
        <time>2013-06-30T07:38:28.999Z</time>
      </trkpt>
      <trkpt lat="46.54396" lon="5.88113">
        <ele>1011.3823852539</ele>
        <time>2013-06-30T07:38:30.999Z</time>
      </trkpt>
      <trkpt lat="46.54392" lon="5.88109">
        <ele>1011.7924804688</ele>
        <time>2013-06-30T07:38:32.999Z</time>
      </trkpt>
      <trkpt lat="46.54388" lon="5.88102">
        <ele>1012.3970336914</ele>
        <time>2013-06-30T07:38:34.999Z</time>
      </trkpt>
      <trkpt lat="46.54382" lon="5.88095">
        <ele>1012.9932861328</ele>
        <time>2013-06-30T07:38:36.999Z</time>
      </trkpt>
      <trkpt lat="46.54378" lon="5.88089">
        <ele>1013.6885986328</ele>
        <time>2013-06-30T07:38:38.999Z</time>
      </trkpt>
      <trkpt lat="46.54374" lon="5.88084">
        <ele>1014.4313964844</ele>
        <time>2013-06-30T07:38:40.999Z</time>
      </trkpt>
      <trkpt lat="46.54371" lon="5.88079">
        <ele>1015.0684814453</ele>
        <time>2013-06-30T07:38:42.999Z</time>
      </trkpt>
      <trkpt lat="46.54366" lon="5.8807">
        <ele>1015.6904296875</ele>
        <time>2013-06-30T07:38:44.999Z</time>
      </trkpt>
      <trkpt lat="46.54362" lon="5.8806">
        <ele>1016.2386474609</ele>
        <time>2013-06-30T07:38:46.999Z</time>
      </trkpt>
      <trkpt lat="46.54358" lon="5.88051">
        <ele>1016.5388183594</ele>
        <time>2013-06-30T07:38:48.999Z</time>
      </trkpt>
      <trkpt lat="46.54355" lon="5.88044">
        <ele>1016.8137817383</ele>
        <time>2013-06-30T07:38:50.999Z</time>
      </trkpt>
      <trkpt lat="46.54351" lon="5.88037">
        <ele>1017.1006469727</ele>
        <time>2013-06-30T07:38:52.999Z</time>
      </trkpt>
      <trkpt lat="46.54347" lon="5.88029">
        <ele>1017.3588867188</ele>
        <time>2013-06-30T07:38:54.999Z</time>
      </trkpt>
      <trkpt lat="46.54343" lon="5.88024">
        <ele>1017.5257568359</ele>
        <time>2013-06-30T07:38:56.999Z</time>
      </trkpt>
      <trkpt lat="46.54339" lon="5.88015">
        <ele>1017.8862304688</ele>
        <time>2013-06-30T07:38:59.999Z</time>
      </trkpt>
      <trkpt lat="46.54335" lon="5.8801">
        <ele>1018.2419433594</ele>
        <time>2013-06-30T07:39:01.999Z</time>
      </trkpt>
      <trkpt lat="46.54331" lon="5.88004">
        <ele>1018.7376708984</ele>
        <time>2013-06-30T07:39:03.999Z</time>
      </trkpt>
      <trkpt lat="46.54327" lon="5.87995">
        <ele>1019.3139648438</ele>
        <time>2013-06-30T07:39:05.999Z</time>
      </trkpt>
      <trkpt lat="46.54323" lon="5.8799">
        <ele>1019.8785400391</ele>
        <time>2013-06-30T07:39:07.999Z</time>
      </trkpt>
      <trkpt lat="46.54318" lon="5.87982">
        <ele>1020.3829345703</ele>
        <time>2013-06-30T07:39:09.999Z</time>
      </trkpt>
      <trkpt lat="46.54314" lon="5.87971">
        <ele>1020.9626464844</ele>
        <time>2013-06-30T07:39:11.999Z</time>
      </trkpt>
      <trkpt lat="46.54312" lon="5.87963">
        <ele>1021.4431762695</ele>
        <time>2013-06-30T07:39:13.999Z</time>
      </trkpt>
      <trkpt lat="46.54309" lon="5.87956">
        <ele>1021.8276367188</ele>
        <time>2013-06-30T07:39:15.999Z</time>
      </trkpt>
      <trkpt lat="46.54307" lon="5.87949">
        <ele>1022.2548217773</ele>
        <time>2013-06-30T07:39:17.999Z</time>
      </trkpt>
      <trkpt lat="46.54303" lon="5.87942">
        <ele>1022.7268066406</ele>
        <time>2013-06-30T07:39:19.999Z</time>
      </trkpt>
      <trkpt lat="46.54299" lon="5.87933">
        <ele>1023.0527954102</ele>
        <time>2013-06-30T07:39:21.999Z</time>
      </trkpt>
      <trkpt lat="46.54295" lon="5.87923">
        <ele>1023.3474121094</ele>
        <time>2013-06-30T07:39:23.999Z</time>
      </trkpt>
      <trkpt lat="46.54291" lon="5.87914">
        <ele>1023.64453125</ele>
        <time>2013-06-30T07:39:25.999Z</time>
      </trkpt>
      <trkpt lat="46.54287" lon="5.87906">
        <ele>1023.8811035156</ele>
        <time>2013-06-30T07:39:27.999Z</time>
      </trkpt>
      <trkpt lat="46.54284" lon="5.879">
        <ele>1023.9638671875</ele>
        <time>2013-06-30T07:39:29.999Z</time>
      </trkpt>
      <trkpt lat="46.54281" lon="5.87892">
        <ele>1024.0135498047</ele>
        <time>2013-06-30T07:39:31.999Z</time>
      </trkpt>
      <trkpt lat="46.54279" lon="5.8788">
        <ele>1024.0302734375</ele>
        <time>2013-06-30T07:39:33.999Z</time>
      </trkpt>
      <trkpt lat="46.54277" lon="5.87868">
        <ele>1024.0634765625</ele>
        <time>2013-06-30T07:39:35.999Z</time>
      </trkpt>
      <trkpt lat="46.54275" lon="5.87861">
        <ele>1024.1796875</ele>
        <time>2013-06-30T07:39:37.999Z</time>
      </trkpt>
      <trkpt lat="46.54273" lon="5.87854">
        <ele>1024.4763183594</ele>
        <time>2013-06-30T07:39:40.999Z</time>
      </trkpt>
      <trkpt lat="46.54271" lon="5.87845">
        <ele>1025.0734863281</ele>
        <time>2013-06-30T07:39:43.999Z</time>
      </trkpt>
      <trkpt lat="46.54271" lon="5.87837">
        <ele>1025.7109375</ele>
        <time>2013-06-30T07:39:45.999Z</time>
      </trkpt>
      <trkpt lat="46.54271" lon="5.87829">
        <ele>1026.3618164062</ele>
        <time>2013-06-30T07:39:47.999Z</time>
      </trkpt>
      <trkpt lat="46.54271" lon="5.87817">
        <ele>1026.8916015625</ele>
        <time>2013-06-30T07:39:49.999Z</time>
      </trkpt>
      <trkpt lat="46.54272" lon="5.87806">
        <ele>1027.4406738281</ele>
        <time>2013-06-30T07:39:51.999Z</time>
      </trkpt>
      <trkpt lat="46.54272" lon="5.87796">
        <ele>1027.9069824219</ele>
        <time>2013-06-30T07:39:53.999Z</time>
      </trkpt>
      <trkpt lat="46.54272" lon="5.87786">
        <ele>1028.1982421875</ele>
        <time>2013-06-30T07:39:55.999Z</time>
      </trkpt>
      <trkpt lat="46.54269" lon="5.87776">
        <ele>1028.4826660156</ele>
        <time>2013-06-30T07:39:57.999Z</time>
      </trkpt>
      <trkpt lat="46.54266" lon="5.8777">
        <ele>1028.8365478516</ele>
        <time>2013-06-30T07:39:59.999Z</time>
      </trkpt>
      <trkpt lat="46.54262" lon="5.87763">
        <ele>1029.3350830078</ele>
        <time>2013-06-30T07:40:01.999Z</time>
      </trkpt>
      <trkpt lat="46.54258" lon="5.87758">
        <ele>1029.9321289062</ele>
        <time>2013-06-30T07:40:03.999Z</time>
      </trkpt>
      <trkpt lat="46.54255" lon="5.87752">
        <ele>1030.5036621094</ele>
        <time>2013-06-30T07:40:05.999Z</time>
      </trkpt>
      <trkpt lat="46.54251" lon="5.87745">
        <ele>1031.07421875</ele>
        <time>2013-06-30T07:40:07.999Z</time>
      </trkpt>
      <trkpt lat="46.54247" lon="5.87738">
        <ele>1031.6254882812</ele>
        <time>2013-06-30T07:40:09.999Z</time>
      </trkpt>
      <trkpt lat="46.54242" lon="5.8773">
        <ele>1032.1160888672</ele>
        <time>2013-06-30T07:40:11.999Z</time>
      </trkpt>
      <trkpt lat="46.54238" lon="5.87723">
        <ele>1032.4351806641</ele>
        <time>2013-06-30T07:40:13.999Z</time>
      </trkpt>
      <trkpt lat="46.54232" lon="5.87715">
        <ele>1032.7225341797</ele>
        <time>2013-06-30T07:40:15.999Z</time>
      </trkpt>
      <trkpt lat="46.54229" lon="5.87707">
        <ele>1032.9881591797</ele>
        <time>2013-06-30T07:40:17.999Z</time>
      </trkpt>
      <trkpt lat="46.54225" lon="5.87699">
        <ele>1033.1475830078</ele>
        <time>2013-06-30T07:40:19.999Z</time>
      </trkpt>
      <trkpt lat="46.54221" lon="5.87693">
        <ele>1033.3533935547</ele>
        <time>2013-06-30T07:40:21.999Z</time>
      </trkpt>
      <trkpt lat="46.54216" lon="5.87687">
        <ele>1033.6044921875</ele>
        <time>2013-06-30T07:40:23.999Z</time>
      </trkpt>
      <trkpt lat="46.54211" lon="5.87679">
        <ele>1034.0382080078</ele>
        <time>2013-06-30T07:40:25.999Z</time>
      </trkpt>
      <trkpt lat="46.54208" lon="5.8767">
        <ele>1034.5634765625</ele>
        <time>2013-06-30T07:40:27.999Z</time>
      </trkpt>
      <trkpt lat="46.54205" lon="5.87663">
        <ele>1035.0797119141</ele>
        <time>2013-06-30T07:40:29.999Z</time>
      </trkpt>
      <trkpt lat="46.54202" lon="5.87656">
        <ele>1035.5897216797</ele>
        <time>2013-06-30T07:40:31.999Z</time>
      </trkpt>
      <trkpt lat="46.54198" lon="5.87648">
        <ele>1036.0318603516</ele>
        <time>2013-06-30T07:40:33.999Z</time>
      </trkpt>
      <trkpt lat="46.54194" lon="5.8764">
        <ele>1036.4444580078</ele>
        <time>2013-06-30T07:40:35.999Z</time>
      </trkpt>
      <trkpt lat="46.54189" lon="5.87635">
        <ele>1036.8271484375</ele>
        <time>2013-06-30T07:40:37.999Z</time>
      </trkpt>
      <trkpt lat="46.54183" lon="5.87632">
        <ele>1037.2889404297</ele>
        <time>2013-06-30T07:40:39.999Z</time>
      </trkpt>
      <trkpt lat="46.54178" lon="5.87631">
        <ele>1037.8441162109</ele>
        <time>2013-06-30T07:40:41.999Z</time>
      </trkpt>
      <trkpt lat="46.54173" lon="5.87631">
        <ele>1038.3823242188</ele>
        <time>2013-06-30T07:40:43.999Z</time>
      </trkpt>
      <trkpt lat="46.54167" lon="5.87633">
        <ele>1038.9770507812</ele>
        <time>2013-06-30T07:40:45.999Z</time>
      </trkpt>
      <trkpt lat="46.54161" lon="5.87635">
        <ele>1039.9372558594</ele>
        <time>2013-06-30T07:40:48.999Z</time>
      </trkpt>
      <trkpt lat="46.54155" lon="5.87637">
        <ele>1040.5070800781</ele>
        <time>2013-06-30T07:40:50.999Z</time>
      </trkpt>
      <trkpt lat="46.54148" lon="5.87639">
        <ele>1041.1190185547</ele>
        <time>2013-06-30T07:40:52.999Z</time>
      </trkpt>
      <trkpt lat="46.54143" lon="5.87639">
        <ele>1041.6402587891</ele>
        <time>2013-06-30T07:40:54.999Z</time>
      </trkpt>
      <trkpt lat="46.54135" lon="5.87639">
        <ele>1042.1232910156</ele>
        <time>2013-06-30T07:40:56.999Z</time>
      </trkpt>
      <trkpt lat="46.54128" lon="5.87636">
        <ele>1042.5407714844</ele>
        <time>2013-06-30T07:40:58.999Z</time>
      </trkpt>
      <trkpt lat="46.54118" lon="5.8763">
        <ele>1042.8618164062</ele>
        <time>2013-06-30T07:41:00.999Z</time>
      </trkpt>
      <trkpt lat="46.54113" lon="5.87624">
        <ele>1042.9992675781</ele>
        <time>2013-06-30T07:41:02.999Z</time>
      </trkpt>
      <trkpt lat="46.54116" lon="5.87616">
        <ele>1043.1788330078</ele>
        <time>2013-06-30T07:41:04.999Z</time>
      </trkpt>
      <trkpt lat="46.54122" lon="5.87607">
        <ele>1043.5014648438</ele>
        <time>2013-06-30T07:41:06.999Z</time>
      </trkpt>
      <trkpt lat="46.54126" lon="5.876">
        <ele>1043.84765625</ele>
        <time>2013-06-30T07:41:08.999Z</time>
      </trkpt>
      <trkpt lat="46.54131" lon="5.87595">
        <ele>1044.2580566406</ele>
        <time>2013-06-30T07:41:10.999Z</time>
      </trkpt>
      <trkpt lat="46.54136" lon="5.87593">
        <ele>1044.7219238281</ele>
        <time>2013-06-30T07:41:12.999Z</time>
      </trkpt>
      <trkpt lat="46.54141" lon="5.87592">
        <ele>1045.2205810547</ele>
        <time>2013-06-30T07:41:14.999Z</time>
      </trkpt>
      <trkpt lat="46.54147" lon="5.87588">
        <ele>1045.6842041016</ele>
        <time>2013-06-30T07:41:16.999Z</time>
      </trkpt>
      <trkpt lat="46.54154" lon="5.87586">
        <ele>1046.6148681641</ele>
        <time>2013-06-30T07:41:19.999Z</time>
      </trkpt>
      <trkpt lat="46.5416" lon="5.87583">
        <ele>1047.2659912109</ele>
        <time>2013-06-30T07:41:21.999Z</time>
      </trkpt>
      <trkpt lat="46.54167" lon="5.8758">
        <ele>1047.7947998047</ele>
        <time>2013-06-30T07:41:23.999Z</time>
      </trkpt>
      <trkpt lat="46.54172" lon="5.87578">
        <ele>1048.3198242188</ele>
        <time>2013-06-30T07:41:25.999Z</time>
      </trkpt>
      <trkpt lat="46.54177" lon="5.87574">
        <ele>1048.7524414062</ele>
        <time>2013-06-30T07:41:27.999Z</time>
      </trkpt>
      <trkpt lat="46.54183" lon="5.8757">
        <ele>1049.2315673828</ele>
        <time>2013-06-30T07:41:29.999Z</time>
      </trkpt>
      <trkpt lat="46.54188" lon="5.87566">
        <ele>1049.8131103516</ele>
        <time>2013-06-30T07:41:31.999Z</time>
      </trkpt>
      <trkpt lat="46.54193" lon="5.87562">
        <ele>1050.4708251953</ele>
        <time>2013-06-30T07:41:33.999Z</time>
      </trkpt>
      <trkpt lat="46.54198" lon="5.87559">
        <ele>1051.0366210938</ele>
        <time>2013-06-30T07:41:35.999Z</time>
      </trkpt>
      <trkpt lat="46.54203" lon="5.87556">
        <ele>1051.6846923828</ele>
        <time>2013-06-30T07:41:37.999Z</time>
      </trkpt>
      <trkpt lat="46.54209" lon="5.87554">
        <ele>1052.2916259766</ele>
        <time>2013-06-30T07:41:39.999Z</time>
      </trkpt>
      <trkpt lat="46.54216" lon="5.87553">
        <ele>1052.9571533203</ele>
        <time>2013-06-30T07:41:41.999Z</time>
      </trkpt>
      <trkpt lat="46.54222" lon="5.87552">
        <ele>1053.6362304688</ele>
        <time>2013-06-30T07:41:43.999Z</time>
      </trkpt>
      <trkpt lat="46.54227" lon="5.87552">
        <ele>1054.3414306641</ele>
        <time>2013-06-30T07:41:45.999Z</time>
      </trkpt>
      <trkpt lat="46.54233" lon="5.87551">
        <ele>1054.9655761719</ele>
        <time>2013-06-30T07:41:47.999Z</time>
      </trkpt>
      <trkpt lat="46.5424" lon="5.87551">
        <ele>1055.4291992188</ele>
        <time>2013-06-30T07:41:49.999Z</time>
      </trkpt>
      <trkpt lat="46.54245" lon="5.87553">
        <ele>1055.9030761719</ele>
        <time>2013-06-30T07:41:51.999Z</time>
      </trkpt>
      <trkpt lat="46.5425" lon="5.87555">
        <ele>1056.3585205078</ele>
        <time>2013-06-30T07:41:53.999Z</time>
      </trkpt>
      <trkpt lat="46.54254" lon="5.87557">
        <ele>1056.8824462891</ele>
        <time>2013-06-30T07:41:55.999Z</time>
      </trkpt>
      <trkpt lat="46.54259" lon="5.8756">
        <ele>1057.4420166016</ele>
        <time>2013-06-30T07:41:57.999Z</time>
      </trkpt>
      <trkpt lat="46.54265" lon="5.87563">
        <ele>1058.3918457031</ele>
        <time>2013-06-30T07:42:00.999Z</time>
      </trkpt>
      <trkpt lat="46.5427" lon="5.87565">
        <ele>1059.0408935547</ele>
        <time>2013-06-30T07:42:02.999Z</time>
      </trkpt>
      <trkpt lat="46.54275" lon="5.87565">
        <ele>1059.6199951172</ele>
        <time>2013-06-30T07:42:04.999Z</time>
      </trkpt>
      <trkpt lat="46.54281" lon="5.87566">
        <ele>1060.2108154297</ele>
        <time>2013-06-30T07:42:06.999Z</time>
      </trkpt>
      <trkpt lat="46.54286" lon="5.87567">
        <ele>1060.9172363281</ele>
        <time>2013-06-30T07:42:08.999Z</time>
      </trkpt>
      <trkpt lat="46.5429" lon="5.87565">
        <ele>1061.6441650391</ele>
        <time>2013-06-30T07:42:10.999Z</time>
      </trkpt>
      <trkpt lat="46.54296" lon="5.87563">
        <ele>1062.2973632812</ele>
        <time>2013-06-30T07:42:12.999Z</time>
      </trkpt>
      <trkpt lat="46.54301" lon="5.87559">
        <ele>1062.7143554688</ele>
        <time>2013-06-30T07:42:14.999Z</time>
      </trkpt>
      <trkpt lat="46.54307" lon="5.87554">
        <ele>1063.1741943359</ele>
        <time>2013-06-30T07:42:16.999Z</time>
      </trkpt>
      <trkpt lat="46.54312" lon="5.87549">
        <ele>1063.7088623047</ele>
        <time>2013-06-30T07:42:18.999Z</time>
      </trkpt>
      <trkpt lat="46.54318" lon="5.87545">
        <ele>1064.1380615234</ele>
        <time>2013-06-30T07:42:20.999Z</time>
      </trkpt>
      <trkpt lat="46.54323" lon="5.8754">
        <ele>1064.3874511719</ele>
        <time>2013-06-30T07:42:22.999Z</time>
      </trkpt>
      <trkpt lat="46.54328" lon="5.87536">
        <ele>1064.6354980469</ele>
        <time>2013-06-30T07:42:24.999Z</time>
      </trkpt>
      <trkpt lat="46.54332" lon="5.87529">
        <ele>1064.900390625</ele>
        <time>2013-06-30T07:42:27.999Z</time>
      </trkpt>
      <trkpt lat="46.54335" lon="5.87523">
        <ele>1064.9899902344</ele>
        <time>2013-06-30T07:42:29.999Z</time>
      </trkpt>
      <trkpt lat="46.54338" lon="5.87516">
        <ele>1065.1534423828</ele>
        <time>2013-06-30T07:42:31.999Z</time>
      </trkpt>
      <trkpt lat="46.54341" lon="5.87508">
        <ele>1065.4735107422</ele>
        <time>2013-06-30T07:42:33.999Z</time>
      </trkpt>
      <trkpt lat="46.54344" lon="5.87499">
        <ele>1065.9663085938</ele>
        <time>2013-06-30T07:42:35.999Z</time>
      </trkpt>
      <trkpt lat="46.54347" lon="5.8749">
        <ele>1066.5333251953</ele>
        <time>2013-06-30T07:42:37.999Z</time>
      </trkpt>
      <trkpt lat="46.54349" lon="5.87482">
        <ele>1066.9650878906</ele>
        <time>2013-06-30T07:42:39.999Z</time>
      </trkpt>
      <trkpt lat="46.54351" lon="5.87475">
        <ele>1067.4113769531</ele>
        <time>2013-06-30T07:42:41.999Z</time>
      </trkpt>
      <trkpt lat="46.54353" lon="5.87467">
        <ele>1067.9447021484</ele>
        <time>2013-06-30T07:42:43.999Z</time>
      </trkpt>
      <trkpt lat="46.54357" lon="5.87458">
        <ele>1068.4080810547</ele>
        <time>2013-06-30T07:42:45.999Z</time>
      </trkpt>
      <trkpt lat="46.5436" lon="5.87451">
        <ele>1068.8560791016</ele>
        <time>2013-06-30T07:42:47.999Z</time>
      </trkpt>
      <trkpt lat="46.54363" lon="5.87446">
        <ele>1069.2380371094</ele>
        <time>2013-06-30T07:42:49.999Z</time>
      </trkpt>
      <trkpt lat="46.54369" lon="5.87439">
        <ele>1069.6684570312</ele>
        <time>2013-06-30T07:42:51.999Z</time>
      </trkpt>
      <trkpt lat="46.54376" lon="5.87432">
        <ele>1070.1818847656</ele>
        <time>2013-06-30T07:42:53.999Z</time>
      </trkpt>
      <trkpt lat="46.54387" lon="5.87427">
        <ele>1070.6047363281</ele>
        <time>2013-06-30T07:42:55.999Z</time>
      </trkpt>
      <trkpt lat="46.54399" lon="5.87419">
        <ele>1073.1042480469</ele>
        <time>2013-06-30T07:42:57.999Z</time>
      </trkpt>
      <trkpt lat="46.54413" lon="5.8741">
        <ele>1075.7506103516</ele>
        <time>2013-06-30T07:42:59.999Z</time>
      </trkpt>
      <trkpt lat="46.54429" lon="5.874">
        <ele>1077.5379638672</ele>
        <time>2013-06-30T07:43:01.999Z</time>
      </trkpt>
      <trkpt lat="46.54444" lon="5.8739">
        <ele>1078.3140869141</ele>
        <time>2013-06-30T07:43:03.999Z</time>
      </trkpt>
      <trkpt lat="46.54458" lon="5.87382">
        <ele>1078.4581298828</ele>
        <time>2013-06-30T07:43:05.999Z</time>
      </trkpt>
      <trkpt lat="46.54472" lon="5.87375">
        <ele>1079.1361083984</ele>
        <time>2013-06-30T07:43:07.999Z</time>
      </trkpt>
      <trkpt lat="46.54484" lon="5.87372">
        <ele>1079.6778564453</ele>
        <time>2013-06-30T07:43:09.999Z</time>
      </trkpt>
      <trkpt lat="46.54498" lon="5.87371">
        <ele>1079.9996337891</ele>
        <time>2013-06-30T07:43:11.999Z</time>
      </trkpt>
      <trkpt lat="46.54511" lon="5.87371">
        <ele>1080.0107421875</ele>
        <time>2013-06-30T07:43:13.999Z</time>
      </trkpt>
      <trkpt lat="46.54524" lon="5.87373">
        <ele>1079.4990234375</ele>
        <time>2013-06-30T07:43:15.999Z</time>
      </trkpt>
      <trkpt lat="46.54532" lon="5.87371">
        <ele>1079.0709228516</ele>
        <time>2013-06-30T07:43:17.999Z</time>
      </trkpt>
      <trkpt lat="46.54537" lon="5.87365">
        <ele>1079.0378417969</ele>
        <time>2013-06-30T07:43:19.999Z</time>
      </trkpt>
      <trkpt lat="46.54538" lon="5.87355">
        <ele>1078.8859863281</ele>
        <time>2013-06-30T07:43:21.999Z</time>
      </trkpt>
      <trkpt lat="46.54535" lon="5.87346">
        <ele>1078.6279296875</ele>
        <time>2013-06-30T07:43:23.999Z</time>
      </trkpt>
      <trkpt lat="46.54525" lon="5.87342">
        <ele>1074.5476074219</ele>
        <time>2013-06-30T07:43:25.999Z</time>
      </trkpt>
      <trkpt lat="46.54515" lon="5.87344">
        <ele>1074.0693359375</ele>
        <time>2013-06-30T07:43:27.999Z</time>
      </trkpt>
      <trkpt lat="46.54502" lon="5.87347">
        <ele>1071.6892089844</ele>
        <time>2013-06-30T07:43:29.999Z</time>
      </trkpt>
      <trkpt lat="46.54488" lon="5.87349">
        <ele>1067.8549804688</ele>
        <time>2013-06-30T07:43:31.999Z</time>
      </trkpt>
      <trkpt lat="46.54472" lon="5.87353">
        <ele>1064.7713623047</ele>
        <time>2013-06-30T07:43:33.999Z</time>
      </trkpt>
      <trkpt lat="46.54453" lon="5.87358">
        <ele>1062.4669189453</ele>
        <time>2013-06-30T07:43:35.999Z</time>
      </trkpt>
      <trkpt lat="46.54436" lon="5.87364">
        <ele>1060.3645019531</ele>
        <time>2013-06-30T07:43:37.999Z</time>
      </trkpt>
      <trkpt lat="46.5442" lon="5.87369">
        <ele>1058.4565429688</ele>
        <time>2013-06-30T07:43:39.999Z</time>
      </trkpt>
      <trkpt lat="46.54408" lon="5.87367">
        <ele>1058.1424560547</ele>
        <time>2013-06-30T07:43:41.999Z</time>
      </trkpt>
      <trkpt lat="46.544" lon="5.8736">
        <ele>1058.86328125</ele>
        <time>2013-06-30T07:43:43.999Z</time>
      </trkpt>
      <trkpt lat="46.54391" lon="5.87342">
        <ele>1059.8525390625</ele>
        <time>2013-06-30T07:43:45.999Z</time>
      </trkpt>
      <trkpt lat="46.54384" lon="5.87325">
        <ele>1059.8988037109</ele>
        <time>2013-06-30T07:43:47.999Z</time>
      </trkpt>
      <trkpt lat="46.54378" lon="5.87303">
        <ele>1060.6505126953</ele>
        <time>2013-06-30T07:43:49.999Z</time>
      </trkpt>
      <trkpt lat="46.54373" lon="5.8728">
        <ele>1058.9108886719</ele>
        <time>2013-06-30T07:43:51.999Z</time>
      </trkpt>
      <trkpt lat="46.54366" lon="5.87262">
        <ele>1056.3491210938</ele>
        <time>2013-06-30T07:43:53.999Z</time>
      </trkpt>
      <trkpt lat="46.54357" lon="5.87248">
        <ele>1054.4575195312</ele>
        <time>2013-06-30T07:43:55.999Z</time>
      </trkpt>
      <trkpt lat="46.54347" lon="5.87231">
        <ele>1052.7032470703</ele>
        <time>2013-06-30T07:43:57.999Z</time>
      </trkpt>
      <trkpt lat="46.54335" lon="5.87211">
        <ele>1051.2106933594</ele>
        <time>2013-06-30T07:43:59.999Z</time>
      </trkpt>
      <trkpt lat="46.54319" lon="5.87194">
        <ele>1048.3195800781</ele>
        <time>2013-06-30T07:44:01.999Z</time>
      </trkpt>
      <trkpt lat="46.54303" lon="5.87175">
        <ele>1046.2250976562</ele>
        <time>2013-06-30T07:44:03.999Z</time>
      </trkpt>
      <trkpt lat="46.54288" lon="5.87155">
        <ele>1043.4541015625</ele>
        <time>2013-06-30T07:44:05.999Z</time>
      </trkpt>
      <trkpt lat="46.54274" lon="5.87129">
        <ele>1040.0971679688</ele>
        <time>2013-06-30T07:44:07.999Z</time>
      </trkpt>
      <trkpt lat="46.54259" lon="5.87105">
        <ele>1036.2492675781</ele>
        <time>2013-06-30T07:44:09.999Z</time>
      </trkpt>
      <trkpt lat="46.54245" lon="5.87085">
        <ele>1033.8006591797</ele>
        <time>2013-06-30T07:44:11.999Z</time>
      </trkpt>
      <trkpt lat="46.54231" lon="5.87069">
        <ele>1033.1015625</ele>
        <time>2013-06-30T07:44:13.999Z</time>
      </trkpt>
      <trkpt lat="46.54217" lon="5.87053">
        <ele>1032.4013671875</ele>
        <time>2013-06-30T07:44:15.999Z</time>
      </trkpt>
      <trkpt lat="46.54204" lon="5.87034">
        <ele>1031.9609375</ele>
        <time>2013-06-30T07:44:17.999Z</time>
      </trkpt>
      <trkpt lat="46.54206" lon="5.87013">
        <ele>1032.1333007812</ele>
        <time>2013-06-30T07:44:19.999Z</time>
      </trkpt>
      <trkpt lat="46.54214" lon="5.86999">
        <ele>1031.4517822266</ele>
        <time>2013-06-30T07:44:21.999Z</time>
      </trkpt>
      <trkpt lat="46.54229" lon="5.86993">
        <ele>1028.6625976562</ele>
        <time>2013-06-30T07:44:23.999Z</time>
      </trkpt>
      <trkpt lat="46.54239" lon="5.86997">
        <ele>1025.4506835938</ele>
        <time>2013-06-30T07:44:25.999Z</time>
      </trkpt>
      <trkpt lat="46.54247" lon="5.87012">
        <ele>1022.6521606445</ele>
        <time>2013-06-30T07:44:27.999Z</time>
      </trkpt>
      <trkpt lat="46.54257" lon="5.8703">
        <ele>1020.62109375</ele>
        <time>2013-06-30T07:44:29.999Z</time>
      </trkpt>
      <trkpt lat="46.54269" lon="5.87043">
        <ele>1018.5709838867</ele>
        <time>2013-06-30T07:44:31.999Z</time>
      </trkpt>
      <trkpt lat="46.54285" lon="5.87046">
        <ele>1017.1215209961</ele>
        <time>2013-06-30T07:44:33.999Z</time>
      </trkpt>
      <trkpt lat="46.543" lon="5.87042">
        <ele>1016.119140625</ele>
        <time>2013-06-30T07:44:35.999Z</time>
      </trkpt>
      <trkpt lat="46.54316" lon="5.87035">
        <ele>1015.4622192383</ele>
        <time>2013-06-30T07:44:37.999Z</time>
      </trkpt>
      <trkpt lat="46.54331" lon="5.87025">
        <ele>1014.5327148438</ele>
        <time>2013-06-30T07:44:39.999Z</time>
      </trkpt>
      <trkpt lat="46.54345" lon="5.87014">
        <ele>1013.3412475586</ele>
        <time>2013-06-30T07:44:41.999Z</time>
      </trkpt>
      <trkpt lat="46.54354" lon="5.86994">
        <ele>1012.1389770508</ele>
        <time>2013-06-30T07:44:43.999Z</time>
      </trkpt>
      <trkpt lat="46.5436" lon="5.86971">
        <ele>1010.8076171875</ele>
        <time>2013-06-30T07:44:45.999Z</time>
      </trkpt>
      <trkpt lat="46.54364" lon="5.86946">
        <ele>1009.2889404297</ele>
        <time>2013-06-30T07:44:47.999Z</time>
      </trkpt>
      <trkpt lat="46.54368" lon="5.86921">
        <ele>1007.8817138672</ele>
        <time>2013-06-30T07:44:49.999Z</time>
      </trkpt>
      <trkpt lat="46.54372" lon="5.86898">
        <ele>1006.7588500977</ele>
        <time>2013-06-30T07:44:51.999Z</time>
      </trkpt>
      <trkpt lat="46.54375" lon="5.86876">
        <ele>1006.0591430664</ele>
        <time>2013-06-30T07:44:53.999Z</time>
      </trkpt>
      <trkpt lat="46.54378" lon="5.86856">
        <ele>1005.6964111328</ele>
        <time>2013-06-30T07:44:55.999Z</time>
      </trkpt>
      <trkpt lat="46.54385" lon="5.86836">
        <ele>1005.1441040039</ele>
        <time>2013-06-30T07:44:57.999Z</time>
      </trkpt>
      <trkpt lat="46.54394" lon="5.86818">
        <ele>1004.4879150391</ele>
        <time>2013-06-30T07:44:59.999Z</time>
      </trkpt>
      <trkpt lat="46.54402" lon="5.86804">
        <ele>1004.4058837891</ele>
        <time>2013-06-30T07:45:01.999Z</time>
      </trkpt>
      <trkpt lat="46.54408" lon="5.86794">
        <ele>1004.8204345703</ele>
        <time>2013-06-30T07:45:03.999Z</time>
      </trkpt>
      <trkpt lat="46.54412" lon="5.86788">
        <ele>1005.3526000977</ele>
        <time>2013-06-30T07:45:05.999Z</time>
      </trkpt>
      <trkpt lat="46.54418" lon="5.86783">
        <ele>1005.4608154297</ele>
        <time>2013-06-30T07:45:07.999Z</time>
      </trkpt>
      <trkpt lat="46.54423" lon="5.86778">
        <ele>1005.6024169922</ele>
        <time>2013-06-30T07:45:09.999Z</time>
      </trkpt>
      <trkpt lat="46.5443" lon="5.86774">
        <ele>1005.8471679688</ele>
        <time>2013-06-30T07:45:11.999Z</time>
      </trkpt>
      <trkpt lat="46.54435" lon="5.86771">
        <ele>1006.1275024414</ele>
        <time>2013-06-30T07:45:13.999Z</time>
      </trkpt>
      <trkpt lat="46.54441" lon="5.86769">
        <ele>1006.4372558594</ele>
        <time>2013-06-30T07:45:15.999Z</time>
      </trkpt>
      <trkpt lat="46.54446" lon="5.86766">
        <ele>1006.7647094727</ele>
        <time>2013-06-30T07:45:17.999Z</time>
      </trkpt>
      <trkpt lat="46.54451" lon="5.86764">
        <ele>1007.0764770508</ele>
        <time>2013-06-30T07:45:19.999Z</time>
      </trkpt>
      <trkpt lat="46.54457" lon="5.86762">
        <ele>1007.4280395508</ele>
        <time>2013-06-30T07:45:21.999Z</time>
      </trkpt>
      <trkpt lat="46.54463" lon="5.8676">
        <ele>1007.9978637695</ele>
        <time>2013-06-30T07:45:24.999Z</time>
      </trkpt>
      <trkpt lat="46.54469" lon="5.86762">
        <ele>1009.1112060547</ele>
        <time>2013-06-30T07:45:27.999Z</time>
      </trkpt>
      <trkpt lat="46.54474" lon="5.86762">
        <ele>1010.1002807617</ele>
        <time>2013-06-30T07:45:30.999Z</time>
      </trkpt>
      <trkpt lat="46.54479" lon="5.86759">
        <ele>1010.6914672852</ele>
        <time>2013-06-30T07:45:32.999Z</time>
      </trkpt>
      <trkpt lat="46.54484" lon="5.86759">
        <ele>1011.3756713867</ele>
        <time>2013-06-30T07:45:34.999Z</time>
      </trkpt>
      <trkpt lat="46.54491" lon="5.86758">
        <ele>1012.2229003906</ele>
        <time>2013-06-30T07:45:36.999Z</time>
      </trkpt>
      <trkpt lat="46.54497" lon="5.86757">
        <ele>1012.9699707031</ele>
        <time>2013-06-30T07:45:38.999Z</time>
      </trkpt>
      <trkpt lat="46.54504" lon="5.86758">
        <ele>1014.0217895508</ele>
        <time>2013-06-30T07:45:41.999Z</time>
      </trkpt>
      <trkpt lat="46.54508" lon="5.8676">
        <ele>1014.7272338867</ele>
        <time>2013-06-30T07:45:43.999Z</time>
      </trkpt>
      <trkpt lat="46.54513" lon="5.86762">
        <ele>1015.6122436523</ele>
        <time>2013-06-30T07:45:45.999Z</time>
      </trkpt>
      <trkpt lat="46.54518" lon="5.86763">
        <ele>1016.505065918</ele>
        <time>2013-06-30T07:45:47.999Z</time>
      </trkpt>
      <trkpt lat="46.54524" lon="5.86765">
        <ele>1017.3139038086</ele>
        <time>2013-06-30T07:45:49.999Z</time>
      </trkpt>
      <trkpt lat="46.5453" lon="5.86768">
        <ele>1018.5783081055</ele>
        <time>2013-06-30T07:45:52.999Z</time>
      </trkpt>
      <trkpt lat="46.54533" lon="5.86768">
        <ele>1019.5870361328</ele>
        <time>2013-06-30T07:45:54.999Z</time>
      </trkpt>
      <trkpt lat="46.54539" lon="5.86766">
        <ele>1020.6418457031</ele>
        <time>2013-06-30T07:45:56.999Z</time>
      </trkpt>
      <trkpt lat="46.54546" lon="5.86766">
        <ele>1022.1220703125</ele>
        <time>2013-06-30T07:45:59.999Z</time>
      </trkpt>
      <trkpt lat="46.54553" lon="5.86766">
        <ele>1023.5484008789</ele>
        <time>2013-06-30T07:46:02.999Z</time>
      </trkpt>
      <trkpt lat="46.54558" lon="5.86766">
        <ele>1024.34375</ele>
        <time>2013-06-30T07:46:04.999Z</time>
      </trkpt>
      <trkpt lat="46.54563" lon="5.86766">
        <ele>1025.1743164062</ele>
        <time>2013-06-30T07:46:06.999Z</time>
      </trkpt>
      <trkpt lat="46.54568" lon="5.86766">
        <ele>1026.7318115234</ele>
        <time>2013-06-30T07:46:09.999Z</time>
      </trkpt>
      <trkpt lat="46.54573" lon="5.86766">
        <ele>1027.7093505859</ele>
        <time>2013-06-30T07:46:11.999Z</time>
      </trkpt>
      <trkpt lat="46.5458" lon="5.86768">
        <ele>1028.6251220703</ele>
        <time>2013-06-30T07:46:13.999Z</time>
      </trkpt>
      <trkpt lat="46.54585" lon="5.86765">
        <ele>1029.4208984375</ele>
        <time>2013-06-30T07:46:15.999Z</time>
      </trkpt>
      <trkpt lat="46.54591" lon="5.86759">
        <ele>1030.01171875</ele>
        <time>2013-06-30T07:46:17.999Z</time>
      </trkpt>
      <trkpt lat="46.54597" lon="5.8675">
        <ele>1030.4306640625</ele>
        <time>2013-06-30T07:46:19.999Z</time>
      </trkpt>
      <trkpt lat="46.54602" lon="5.86745">
        <ele>1030.8143310547</ele>
        <time>2013-06-30T07:46:21.999Z</time>
      </trkpt>
      <trkpt lat="46.54607" lon="5.86741">
        <ele>1031.2156982422</ele>
        <time>2013-06-30T07:46:23.999Z</time>
      </trkpt>
      <trkpt lat="46.54612" lon="5.86738">
        <ele>1031.6254882812</ele>
        <time>2013-06-30T07:46:25.999Z</time>
      </trkpt>
      <trkpt lat="46.54618" lon="5.86737">
        <ele>1031.9720458984</ele>
        <time>2013-06-30T07:46:27.999Z</time>
      </trkpt>
      <trkpt lat="46.54624" lon="5.86736">
        <ele>1032.3465576172</ele>
        <time>2013-06-30T07:46:29.999Z</time>
      </trkpt>
      <trkpt lat="46.5463" lon="5.86734">
        <ele>1032.7230224609</ele>
        <time>2013-06-30T07:46:31.999Z</time>
      </trkpt>
      <trkpt lat="46.54635" lon="5.86732">
        <ele>1033.1284179688</ele>
        <time>2013-06-30T07:46:33.999Z</time>
      </trkpt>
      <trkpt lat="46.5464" lon="5.8673">
        <ele>1033.5970458984</ele>
        <time>2013-06-30T07:46:35.999Z</time>
      </trkpt>
      <trkpt lat="46.54645" lon="5.86728">
        <ele>1034.0791015625</ele>
        <time>2013-06-30T07:46:37.999Z</time>
      </trkpt>
      <trkpt lat="46.54652" lon="5.86724">
        <ele>1034.4512939453</ele>
        <time>2013-06-30T07:46:39.999Z</time>
      </trkpt>
      <trkpt lat="46.54658" lon="5.86721">
        <ele>1034.8891601562</ele>
        <time>2013-06-30T07:46:41.999Z</time>
      </trkpt>
      <trkpt lat="46.54663" lon="5.86717">
        <ele>1035.3928222656</ele>
        <time>2013-06-30T07:46:43.999Z</time>
      </trkpt>
      <trkpt lat="46.5467" lon="5.86714">
        <ele>1035.7443847656</ele>
        <time>2013-06-30T07:46:45.999Z</time>
      </trkpt>
      <trkpt lat="46.54678" lon="5.86711">
        <ele>1035.9420166016</ele>
        <time>2013-06-30T07:46:47.999Z</time>
      </trkpt>
      <trkpt lat="46.54686" lon="5.8671">
        <ele>1036.1577148438</ele>
        <time>2013-06-30T07:46:49.999Z</time>
      </trkpt>
      <trkpt lat="46.54695" lon="5.8671">
        <ele>1036.4144287109</ele>
        <time>2013-06-30T07:46:51.999Z</time>
      </trkpt>
      <trkpt lat="46.54703" lon="5.8671">
        <ele>1036.6495361328</ele>
        <time>2013-06-30T07:46:53.999Z</time>
      </trkpt>
      <trkpt lat="46.54712" lon="5.8671">
        <ele>1036.9327392578</ele>
        <time>2013-06-30T07:46:55.999Z</time>
      </trkpt>
      <trkpt lat="46.54719" lon="5.8671">
        <ele>1037.3402099609</ele>
        <time>2013-06-30T07:46:57.999Z</time>
      </trkpt>
      <trkpt lat="46.54726" lon="5.8671">
        <ele>1037.8143310547</ele>
        <time>2013-06-30T07:46:59.999Z</time>
      </trkpt>
      <trkpt lat="46.54732" lon="5.86709">
        <ele>1038.2600097656</ele>
        <time>2013-06-30T07:47:01.999Z</time>
      </trkpt>
      <trkpt lat="46.54737" lon="5.86708">
        <ele>1038.6575927734</ele>
        <time>2013-06-30T07:47:03.999Z</time>
      </trkpt>
      <trkpt lat="46.54745" lon="5.86709">
        <ele>1039.0640869141</ele>
        <time>2013-06-30T07:47:05.999Z</time>
      </trkpt>
      <trkpt lat="46.54753" lon="5.8671">
        <ele>1039.3562011719</ele>
        <time>2013-06-30T07:47:07.999Z</time>
      </trkpt>
      <trkpt lat="46.5476" lon="5.86712">
        <ele>1039.5118408203</ele>
        <time>2013-06-30T07:47:09.999Z</time>
      </trkpt>
      <trkpt lat="46.54768" lon="5.86717">
        <ele>1039.6508789062</ele>
        <time>2013-06-30T07:47:11.999Z</time>
      </trkpt>
      <trkpt lat="46.54777" lon="5.86722">
        <ele>1039.8901367188</ele>
        <time>2013-06-30T07:47:13.999Z</time>
      </trkpt>
      <trkpt lat="46.54783" lon="5.86727">
        <ele>1040.1013183594</ele>
        <time>2013-06-30T07:47:15.999Z</time>
      </trkpt>
      <trkpt lat="46.5479" lon="5.86732">
        <ele>1040.4259033203</ele>
        <time>2013-06-30T07:47:17.999Z</time>
      </trkpt>
      <trkpt lat="46.54795" lon="5.86736">
        <ele>1040.8542480469</ele>
        <time>2013-06-30T07:47:19.999Z</time>
      </trkpt>
      <trkpt lat="46.548" lon="5.86739">
        <ele>1041.3258056641</ele>
        <time>2013-06-30T07:47:21.999Z</time>
      </trkpt>
      <trkpt lat="46.54806" lon="5.86743">
        <ele>1041.7418212891</ele>
        <time>2013-06-30T07:47:23.999Z</time>
      </trkpt>
      <trkpt lat="46.54811" lon="5.86746">
        <ele>1042.2131347656</ele>
        <time>2013-06-30T07:47:25.999Z</time>
      </trkpt>
      <trkpt lat="46.54817" lon="5.8675">
        <ele>1042.9517822266</ele>
        <time>2013-06-30T07:47:27.999Z</time>
      </trkpt>
      <trkpt lat="46.54823" lon="5.86754">
        <ele>1043.859375</ele>
        <time>2013-06-30T07:47:29.999Z</time>
      </trkpt>
      <trkpt lat="46.54831" lon="5.86757">
        <ele>1044.6478271484</ele>
        <time>2013-06-30T07:47:31.999Z</time>
      </trkpt>
      <trkpt lat="46.54838" lon="5.86759">
        <ele>1045.3347167969</ele>
        <time>2013-06-30T07:47:33.999Z</time>
      </trkpt>
      <trkpt lat="46.54843" lon="5.86759">
        <ele>1046.0137939453</ele>
        <time>2013-06-30T07:47:35.999Z</time>
      </trkpt>
      <trkpt lat="46.54848" lon="5.86759">
        <ele>1046.7454833984</ele>
        <time>2013-06-30T07:47:37.999Z</time>
      </trkpt>
      <trkpt lat="46.54853" lon="5.86757">
        <ele>1047.4895019531</ele>
        <time>2013-06-30T07:47:39.999Z</time>
      </trkpt>
      <trkpt lat="46.54858" lon="5.86755">
        <ele>1048.3009033203</ele>
        <time>2013-06-30T07:47:41.999Z</time>
      </trkpt>
      <trkpt lat="46.54864" lon="5.86755">
        <ele>1049.0969238281</ele>
        <time>2013-06-30T07:47:43.999Z</time>
      </trkpt>
      <trkpt lat="46.54869" lon="5.86754">
        <ele>1049.8771972656</ele>
        <time>2013-06-30T07:47:45.999Z</time>
      </trkpt>
      <trkpt lat="46.54873" lon="5.86752">
        <ele>1050.623046875</ele>
        <time>2013-06-30T07:47:47.999Z</time>
      </trkpt>
      <trkpt lat="46.54879" lon="5.86749">
        <ele>1051.1273193359</ele>
        <time>2013-06-30T07:47:49.999Z</time>
      </trkpt>
      <trkpt lat="46.54884" lon="5.86747">
        <ele>1051.4947509766</ele>
        <time>2013-06-30T07:47:51.999Z</time>
      </trkpt>
      <trkpt lat="46.5489" lon="5.86745">
        <ele>1051.8662109375</ele>
        <time>2013-06-30T07:47:53.999Z</time>
      </trkpt>
      <trkpt lat="46.54895" lon="5.86743">
        <ele>1052.1510009766</ele>
        <time>2013-06-30T07:47:55.999Z</time>
      </trkpt>
      <trkpt lat="46.549" lon="5.86741">
        <ele>1052.3822021484</ele>
        <time>2013-06-30T07:47:57.999Z</time>
      </trkpt>
      <trkpt lat="46.54905" lon="5.86738">
        <ele>1052.5079345703</ele>
        <time>2013-06-30T07:47:59.999Z</time>
      </trkpt>
      <trkpt lat="46.54911" lon="5.86735">
        <ele>1052.6337890625</ele>
        <time>2013-06-30T07:48:01.999Z</time>
      </trkpt>
      <trkpt lat="46.54919" lon="5.86733">
        <ele>1052.7302246094</ele>
        <time>2013-06-30T07:48:03.999Z</time>
      </trkpt>
      <trkpt lat="46.54925" lon="5.86732">
        <ele>1052.8284912109</ele>
        <time>2013-06-30T07:48:05.999Z</time>
      </trkpt>
      <trkpt lat="46.5493" lon="5.86732">
        <ele>1053.0080566406</ele>
        <time>2013-06-30T07:48:07.999Z</time>
      </trkpt>
      <trkpt lat="46.54935" lon="5.86732">
        <ele>1053.328125</ele>
        <time>2013-06-30T07:48:09.999Z</time>
      </trkpt>
      <trkpt lat="46.54941" lon="5.86732">
        <ele>1053.6854248047</ele>
        <time>2013-06-30T07:48:11.999Z</time>
      </trkpt>
      <trkpt lat="46.54948" lon="5.86733">
        <ele>1054.0115966797</ele>
        <time>2013-06-30T07:48:13.999Z</time>
      </trkpt>
      <trkpt lat="46.54955" lon="5.86732">
        <ele>1054.2452392578</ele>
        <time>2013-06-30T07:48:15.999Z</time>
      </trkpt>
      <trkpt lat="46.5496" lon="5.86732">
        <ele>1054.6008300781</ele>
        <time>2013-06-30T07:48:17.999Z</time>
      </trkpt>
      <trkpt lat="46.54964" lon="5.86734">
        <ele>1055.1192626953</ele>
        <time>2013-06-30T07:48:19.999Z</time>
      </trkpt>
      <trkpt lat="46.54969" lon="5.86733">
        <ele>1055.5430908203</ele>
        <time>2013-06-30T07:48:21.999Z</time>
      </trkpt>
      <trkpt lat="46.54975" lon="5.86733">
        <ele>1055.8181152344</ele>
        <time>2013-06-30T07:48:23.999Z</time>
      </trkpt>
      <trkpt lat="46.54981" lon="5.86734">
        <ele>1056.1036376953</ele>
        <time>2013-06-30T07:48:25.999Z</time>
      </trkpt>
      <trkpt lat="46.54986" lon="5.86738">
        <ele>1056.7254638672</ele>
        <time>2013-06-30T07:48:28.999Z</time>
      </trkpt>
      <trkpt lat="46.54992" lon="5.86739">
        <ele>1057.1732177734</ele>
        <time>2013-06-30T07:48:30.999Z</time>
      </trkpt>
      <trkpt lat="46.54998" lon="5.86741">
        <ele>1057.5483398438</ele>
        <time>2013-06-30T07:48:32.999Z</time>
      </trkpt>
      <trkpt lat="46.55002" lon="5.86744">
        <ele>1057.8732910156</ele>
        <time>2013-06-30T07:48:34.999Z</time>
      </trkpt>
      <trkpt lat="46.55007" lon="5.86748">
        <ele>1058.2448730469</ele>
        <time>2013-06-30T07:48:36.999Z</time>
      </trkpt>
      <trkpt lat="46.55013" lon="5.86753">
        <ele>1058.4868164062</ele>
        <time>2013-06-30T07:48:38.999Z</time>
      </trkpt>
      <trkpt lat="46.55018" lon="5.86756">
        <ele>1058.5659179688</ele>
        <time>2013-06-30T07:48:40.999Z</time>
      </trkpt>
      <trkpt lat="46.55023" lon="5.86762">
        <ele>1058.6184082031</ele>
        <time>2013-06-30T07:48:42.999Z</time>
      </trkpt>
      <trkpt lat="46.55028" lon="5.86769">
        <ele>1058.7392578125</ele>
        <time>2013-06-30T07:48:44.999Z</time>
      </trkpt>
      <trkpt lat="46.55035" lon="5.86777">
        <ele>1058.9229736328</ele>
        <time>2013-06-30T07:48:46.999Z</time>
      </trkpt>
      <trkpt lat="46.5504" lon="5.86782">
        <ele>1059.0374755859</ele>
        <time>2013-06-30T07:48:48.999Z</time>
      </trkpt>
      <trkpt lat="46.55046" lon="5.86785">
        <ele>1059.1606445312</ele>
        <time>2013-06-30T07:48:50.999Z</time>
      </trkpt>
      <trkpt lat="46.55052" lon="5.86787">
        <ele>1059.4468994141</ele>
        <time>2013-06-30T07:48:52.999Z</time>
      </trkpt>
      <trkpt lat="46.55056" lon="5.8679">
        <ele>1059.7978515625</ele>
        <time>2013-06-30T07:48:54.999Z</time>
      </trkpt>
      <trkpt lat="46.55062" lon="5.86791">
        <ele>1060.0369873047</ele>
        <time>2013-06-30T07:48:56.999Z</time>
      </trkpt>
      <trkpt lat="46.55068" lon="5.86793">
        <ele>1060.267578125</ele>
        <time>2013-06-30T07:48:58.999Z</time>
      </trkpt>
      <trkpt lat="46.55074" lon="5.86796">
        <ele>1060.3220214844</ele>
        <time>2013-06-30T07:49:00.999Z</time>
      </trkpt>
      <trkpt lat="46.55079" lon="5.86799">
        <ele>1060.3414306641</ele>
        <time>2013-06-30T07:49:02.999Z</time>
      </trkpt>
      <trkpt lat="46.55085" lon="5.86802">
        <ele>1060.3797607422</ele>
        <time>2013-06-30T07:49:04.999Z</time>
      </trkpt>
      <trkpt lat="46.5509" lon="5.86805">
        <ele>1060.5789794922</ele>
        <time>2013-06-30T07:49:06.999Z</time>
      </trkpt>
      <trkpt lat="46.55094" lon="5.86812">
        <ele>1060.8994140625</ele>
        <time>2013-06-30T07:49:08.999Z</time>
      </trkpt>
      <trkpt lat="46.55098" lon="5.8682">
        <ele>1061.3208007812</ele>
        <time>2013-06-30T07:49:10.999Z</time>
      </trkpt>
      <trkpt lat="46.55101" lon="5.86827">
        <ele>1061.6763916016</ele>
        <time>2013-06-30T07:49:12.999Z</time>
      </trkpt>
      <trkpt lat="46.55105" lon="5.86833">
        <ele>1062.0279541016</ele>
        <time>2013-06-30T07:49:14.999Z</time>
      </trkpt>
      <trkpt lat="46.55111" lon="5.86838">
        <ele>1062.3394775391</ele>
        <time>2013-06-30T07:49:16.999Z</time>
      </trkpt>
      <trkpt lat="46.55116" lon="5.86842">
        <ele>1062.5815429688</ele>
        <time>2013-06-30T07:49:18.999Z</time>
      </trkpt>
      <trkpt lat="46.55121" lon="5.86845">
        <ele>1062.6923828125</ele>
        <time>2013-06-30T07:49:20.999Z</time>
      </trkpt>
      <trkpt lat="46.55127" lon="5.86847">
        <ele>1062.7117919922</ele>
        <time>2013-06-30T07:49:22.999Z</time>
      </trkpt>
      <trkpt lat="46.55137" lon="5.86851">
        <ele>1062.7546386719</ele>
        <time>2013-06-30T07:49:24.999Z</time>
      </trkpt>
      <trkpt lat="46.55147" lon="5.86855">
        <ele>1062.8397216797</ele>
        <time>2013-06-30T07:49:26.999Z</time>
      </trkpt>
      <trkpt lat="46.55154" lon="5.86859">
        <ele>1062.9483642578</ele>
        <time>2013-06-30T07:49:28.999Z</time>
      </trkpt>
      <trkpt lat="46.55158" lon="5.86863">
        <ele>1062.9619140625</ele>
        <time>2013-06-30T07:49:30.999Z</time>
      </trkpt>
      <trkpt lat="46.55164" lon="5.86867">
        <ele>1062.8388671875</ele>
        <time>2013-06-30T07:49:32.999Z</time>
      </trkpt>
      <trkpt lat="46.55169" lon="5.86871">
        <ele>1062.7412109375</ele>
        <time>2013-06-30T07:49:34.999Z</time>
      </trkpt>
      <trkpt lat="46.55176" lon="5.86872">
        <ele>1062.6453857422</ele>
        <time>2013-06-30T07:49:37.999Z</time>
      </trkpt>
      <trkpt lat="46.55182" lon="5.86873">
        <ele>1062.6407470703</ele>
        <time>2013-06-30T07:49:39.999Z</time>
      </trkpt>
      <trkpt lat="46.55187" lon="5.86876">
        <ele>1062.6611328125</ele>
        <time>2013-06-30T07:49:41.999Z</time>
      </trkpt>
      <trkpt lat="46.55191" lon="5.86881">
        <ele>1062.7443847656</ele>
        <time>2013-06-30T07:49:43.999Z</time>
      </trkpt>
      <trkpt lat="46.55198" lon="5.86887">
        <ele>1062.8385009766</ele>
        <time>2013-06-30T07:49:45.999Z</time>
      </trkpt>
      <trkpt lat="46.55203" lon="5.86893">
        <ele>1062.9324951172</ele>
        <time>2013-06-30T07:49:47.999Z</time>
      </trkpt>
      <trkpt lat="46.55209" lon="5.86897">
        <ele>1063.0693359375</ele>
        <time>2013-06-30T07:49:49.999Z</time>
      </trkpt>
      <trkpt lat="46.55213" lon="5.869">
        <ele>1063.2845458984</ele>
        <time>2013-06-30T07:49:51.999Z</time>
      </trkpt>
      <trkpt lat="46.55218" lon="5.86903">
        <ele>1063.6469726562</ele>
        <time>2013-06-30T07:49:53.999Z</time>
      </trkpt>
      <trkpt lat="46.55222" lon="5.86905">
        <ele>1064.1456298828</ele>
        <time>2013-06-30T07:49:55.999Z</time>
      </trkpt>
      <trkpt lat="46.55226" lon="5.86909">
        <ele>1064.6892089844</ele>
        <time>2013-06-30T07:49:57.999Z</time>
      </trkpt>
      <trkpt lat="46.5523" lon="5.86911">
        <ele>1065.1899414062</ele>
        <time>2013-06-30T07:49:59.999Z</time>
      </trkpt>
      <trkpt lat="46.55236" lon="5.86914">
        <ele>1065.6313476562</ele>
        <time>2013-06-30T07:50:01.999Z</time>
      </trkpt>
      <trkpt lat="46.55241" lon="5.86919">
        <ele>1065.9909667969</ele>
        <time>2013-06-30T07:50:03.999Z</time>
      </trkpt>
      <trkpt lat="46.55247" lon="5.86924">
        <ele>1066.3917236328</ele>
        <time>2013-06-30T07:50:05.999Z</time>
      </trkpt>
      <trkpt lat="46.55254" lon="5.86931">
        <ele>1066.8127441406</ele>
        <time>2013-06-30T07:50:07.999Z</time>
      </trkpt>
      <trkpt lat="46.55262" lon="5.86938">
        <ele>1067.2397460938</ele>
        <time>2013-06-30T07:50:09.999Z</time>
      </trkpt>
      <trkpt lat="46.55269" lon="5.86944">
        <ele>1067.63671875</ele>
        <time>2013-06-30T07:50:11.999Z</time>
      </trkpt>
      <trkpt lat="46.55275" lon="5.86948">
        <ele>1068.0333251953</ele>
        <time>2013-06-30T07:50:13.999Z</time>
      </trkpt>
      <trkpt lat="46.55279" lon="5.86953">
        <ele>1068.45703125</ele>
        <time>2013-06-30T07:50:15.999Z</time>
      </trkpt>
      <trkpt lat="46.55284" lon="5.86955">
        <ele>1068.9553222656</ele>
        <time>2013-06-30T07:50:17.999Z</time>
      </trkpt>
      <trkpt lat="46.55289" lon="5.86956">
        <ele>1069.5423583984</ele>
        <time>2013-06-30T07:50:19.999Z</time>
      </trkpt>
      <trkpt lat="46.55295" lon="5.86959">
        <ele>1070.1575927734</ele>
        <time>2013-06-30T07:50:21.999Z</time>
      </trkpt>
      <trkpt lat="46.55302" lon="5.86961">
        <ele>1070.7032470703</ele>
        <time>2013-06-30T07:50:23.999Z</time>
      </trkpt>
      <trkpt lat="46.55307" lon="5.86965">
        <ele>1071.1888427734</ele>
        <time>2013-06-30T07:50:25.999Z</time>
      </trkpt>
      <trkpt lat="46.55312" lon="5.8697">
        <ele>1071.5576171875</ele>
        <time>2013-06-30T07:50:27.999Z</time>
      </trkpt>
      <trkpt lat="46.55317" lon="5.86973">
        <ele>1071.8815917969</ele>
        <time>2013-06-30T07:50:29.999Z</time>
      </trkpt>
      <trkpt lat="46.55322" lon="5.86977">
        <ele>1072.2231445312</ele>
        <time>2013-06-30T07:50:31.999Z</time>
      </trkpt>
      <trkpt lat="46.55327" lon="5.86981">
        <ele>1072.6414794922</ele>
        <time>2013-06-30T07:50:33.999Z</time>
      </trkpt>
      <trkpt lat="46.55333" lon="5.86985">
        <ele>1073.1068115234</ele>
        <time>2013-06-30T07:50:35.999Z</time>
      </trkpt>
      <trkpt lat="46.55338" lon="5.8699">
        <ele>1073.5001220703</ele>
        <time>2013-06-30T07:50:37.999Z</time>
      </trkpt>
      <trkpt lat="46.55344" lon="5.86994">
        <ele>1073.7142333984</ele>
        <time>2013-06-30T07:50:39.999Z</time>
      </trkpt>
      <trkpt lat="46.55351" lon="5.87001">
        <ele>1073.9523925781</ele>
        <time>2013-06-30T07:50:41.999Z</time>
      </trkpt>
      <trkpt lat="46.55357" lon="5.87006">
        <ele>1074.2047119141</ele>
        <time>2013-06-30T07:50:43.999Z</time>
      </trkpt>
      <trkpt lat="46.55362" lon="5.8701">
        <ele>1074.4665527344</ele>
        <time>2013-06-30T07:50:45.999Z</time>
      </trkpt>
      <trkpt lat="46.55367" lon="5.87011">
        <ele>1074.7766113281</ele>
        <time>2013-06-30T07:50:47.999Z</time>
      </trkpt>
      <trkpt lat="46.55373" lon="5.87013">
        <ele>1075.1348876953</ele>
        <time>2013-06-30T07:50:49.999Z</time>
      </trkpt>
      <trkpt lat="46.55379" lon="5.87015">
        <ele>1075.5056152344</ele>
        <time>2013-06-30T07:50:51.999Z</time>
      </trkpt>
      <trkpt lat="46.55384" lon="5.87017">
        <ele>1076.0526123047</ele>
        <time>2013-06-30T07:50:53.999Z</time>
      </trkpt>
      <trkpt lat="46.55388" lon="5.8702">
        <ele>1076.7126464844</ele>
        <time>2013-06-30T07:50:55.999Z</time>
      </trkpt>
      <trkpt lat="46.55394" lon="5.87024">
        <ele>1077.4398193359</ele>
        <time>2013-06-30T07:50:57.999Z</time>
      </trkpt>
      <trkpt lat="46.554" lon="5.87028">
        <ele>1078.1640625</ele>
        <time>2013-06-30T07:50:59.999Z</time>
      </trkpt>
      <trkpt lat="46.55405" lon="5.87032">
        <ele>1078.7855224609</ele>
        <time>2013-06-30T07:51:01.999Z</time>
      </trkpt>
      <trkpt lat="46.55409" lon="5.87035">
        <ele>1079.4107666016</ele>
        <time>2013-06-30T07:51:03.999Z</time>
      </trkpt>
      <trkpt lat="46.55415" lon="5.8704">
        <ele>1080.0714111328</ele>
        <time>2013-06-30T07:51:05.999Z</time>
      </trkpt>
      <trkpt lat="46.55422" lon="5.87046">
        <ele>1080.6247558594</ele>
        <time>2013-06-30T07:51:07.999Z</time>
      </trkpt>
      <trkpt lat="46.55426" lon="5.87051">
        <ele>1081.166015625</ele>
        <time>2013-06-30T07:51:09.999Z</time>
      </trkpt>
      <trkpt lat="46.55431" lon="5.87055">
        <ele>1081.8909912109</ele>
        <time>2013-06-30T07:51:12.999Z</time>
      </trkpt>
      <trkpt lat="46.55434" lon="5.87058">
        <ele>1082.4344482422</ele>
        <time>2013-06-30T07:51:14.999Z</time>
      </trkpt>
      <trkpt lat="46.5544" lon="5.87062">
        <ele>1083.3690185547</ele>
        <time>2013-06-30T07:51:17.999Z</time>
      </trkpt>
      <trkpt lat="46.55445" lon="5.87065">
        <ele>1083.9421386719</ele>
        <time>2013-06-30T07:51:19.999Z</time>
      </trkpt>
      <trkpt lat="46.5545" lon="5.8707">
        <ele>1084.3719482422</ele>
        <time>2013-06-30T07:51:21.999Z</time>
      </trkpt>
      <trkpt lat="46.55454" lon="5.87074">
        <ele>1084.7397460938</ele>
        <time>2013-06-30T07:51:23.999Z</time>
      </trkpt>
      <trkpt lat="46.55458" lon="5.87079">
        <ele>1085.1000976562</ele>
        <time>2013-06-30T07:51:25.999Z</time>
      </trkpt>
      <trkpt lat="46.55463" lon="5.87086">
        <ele>1085.3635253906</ele>
        <time>2013-06-30T07:51:27.999Z</time>
      </trkpt>
      <trkpt lat="46.55469" lon="5.87093">
        <ele>1085.5893554688</ele>
        <time>2013-06-30T07:51:29.999Z</time>
      </trkpt>
      <trkpt lat="46.55476" lon="5.87101">
        <ele>1085.8319091797</ele>
        <time>2013-06-30T07:51:31.999Z</time>
      </trkpt>
      <trkpt lat="46.55484" lon="5.87111">
        <ele>1086.1164550781</ele>
        <time>2013-06-30T07:51:33.999Z</time>
      </trkpt>
      <trkpt lat="46.55489" lon="5.87121">
        <ele>1086.3278808594</ele>
        <time>2013-06-30T07:51:35.999Z</time>
      </trkpt>
      <trkpt lat="46.55493" lon="5.8713">
        <ele>1086.462890625</ele>
        <time>2013-06-30T07:51:37.999Z</time>
      </trkpt>
      <trkpt lat="46.55497" lon="5.87138">
        <ele>1086.5361328125</ele>
        <time>2013-06-30T07:51:39.999Z</time>
      </trkpt>
      <trkpt lat="46.555" lon="5.87148">
        <ele>1086.6749267578</ele>
        <time>2013-06-30T07:51:41.999Z</time>
      </trkpt>
      <trkpt lat="46.55505" lon="5.87157">
        <ele>1086.9348144531</ele>
        <time>2013-06-30T07:51:43.999Z</time>
      </trkpt>
      <trkpt lat="46.55508" lon="5.87165">
        <ele>1087.1643066406</ele>
        <time>2013-06-30T07:51:45.999Z</time>
      </trkpt>
      <trkpt lat="46.55511" lon="5.87172">
        <ele>1087.3533935547</ele>
        <time>2013-06-30T07:51:47.999Z</time>
      </trkpt>
      <trkpt lat="46.55514" lon="5.87177">
        <ele>1087.4840087891</ele>
        <time>2013-06-30T07:51:49.999Z</time>
      </trkpt>
      <trkpt lat="46.55517" lon="5.87183">
        <ele>1087.650390625</ele>
        <time>2013-06-30T07:51:51.999Z</time>
      </trkpt>
      <trkpt lat="46.5552" lon="5.87188">
        <ele>1087.7672119141</ele>
        <time>2013-06-30T07:51:53.999Z</time>
      </trkpt>
      <trkpt lat="46.55524" lon="5.87193">
        <ele>1087.7706298828</ele>
        <time>2013-06-30T07:51:55.999Z</time>
      </trkpt>
      <trkpt lat="46.55528" lon="5.87197">
        <ele>1087.6728515625</ele>
        <time>2013-06-30T07:51:57.999Z</time>
      </trkpt>
      <trkpt lat="46.55533" lon="5.87204">
        <ele>1087.5578613281</ele>
        <time>2013-06-30T07:52:00.999Z</time>
      </trkpt>
      <trkpt lat="46.55537" lon="5.87209">
        <ele>1087.5151367188</ele>
        <time>2013-06-30T07:52:02.999Z</time>
      </trkpt>
      <trkpt lat="46.55541" lon="5.87214">
        <ele>1087.3238525391</ele>
        <time>2013-06-30T07:52:06.999Z</time>
      </trkpt>
      <trkpt lat="46.55543" lon="5.87221">
        <ele>1087.0600585938</ele>
        <time>2013-06-30T07:52:11.999Z</time>
      </trkpt>
      <trkpt lat="46.55539" lon="5.87225">
        <ele>1086.6040039062</ele>
        <time>2013-06-30T07:52:24.999Z</time>
      </trkpt>
      <trkpt lat="46.55544" lon="5.87223">
        <ele>1085.0246582031</ele>
        <time>2013-06-30T07:54:17.999Z</time>
      </trkpt>
      <trkpt lat="46.55548" lon="5.87224">
        <ele>1086.6137695312</ele>
        <time>2013-06-30T07:56:18.999Z</time>
      </trkpt>
      <trkpt lat="46.55553" lon="5.87225">
        <ele>1086.6335449219</ele>
        <time>2013-06-30T07:56:23.999Z</time>
      </trkpt>
      <trkpt lat="46.55555" lon="5.8723">
        <ele>1086.2452392578</ele>
        <time>2013-06-30T07:57:04.999Z</time>
      </trkpt>
      <trkpt lat="46.55551" lon="5.87226">
        <ele>1086.5480957031</ele>
        <time>2013-06-30T07:57:50.999Z</time>
      </trkpt>
      <trkpt lat="46.55546" lon="5.87224">
        <ele>1086.0657958984</ele>
        <time>2013-06-30T07:58:26.999Z</time>
      </trkpt>
      <trkpt lat="46.55542" lon="5.87227">
        <ele>1086.4439697266</ele>
        <time>2013-06-30T07:58:42.999Z</time>
      </trkpt>
      <trkpt lat="46.55546" lon="5.87223">
        <ele>1085.1508789062</ele>
        <time>2013-06-30T07:59:18.999Z</time>
      </trkpt>
      <trkpt lat="46.5555" lon="5.87226">
        <ele>1083.6712646484</ele>
        <time>2013-06-30T08:00:33.999Z</time>
      </trkpt>
      <trkpt lat="46.55546" lon="5.8723">
        <ele>1083.4592285156</ele>
        <time>2013-06-30T08:01:19.999Z</time>
      </trkpt>
      <trkpt lat="46.55549" lon="5.87224">
        <ele>1081.1384277344</ele>
        <time>2013-06-30T08:02:31.999Z</time>
      </trkpt>
      <trkpt lat="46.55548" lon="5.87218">
        <ele>1081.3198242188</ele>
        <time>2013-06-30T08:02:55.999Z</time>
      </trkpt>
      <trkpt lat="46.55551" lon="5.87223">
        <ele>1085.9586181641</ele>
        <time>2013-06-30T08:05:41.999Z</time>
      </trkpt>
      <trkpt lat="46.55546" lon="5.87221">
        <ele>1085.7886962891</ele>
        <time>2013-06-30T08:06:18.999Z</time>
      </trkpt>
      <trkpt lat="46.55542" lon="5.87225">
        <ele>1086.5036621094</ele>
        <time>2013-06-30T08:06:29.999Z</time>
      </trkpt>
      <trkpt lat="46.55547" lon="5.87226">
        <ele>1085.3662109375</ele>
        <time>2013-06-30T08:06:42.999Z</time>
      </trkpt>
      <trkpt lat="46.55552" lon="5.87226">
        <ele>1084.0755615234</ele>
        <time>2013-06-30T08:06:50.999Z</time>
      </trkpt>
      <trkpt lat="46.55557" lon="5.87226">
        <ele>1083.3947753906</ele>
        <time>2013-06-30T08:07:01.999Z</time>
      </trkpt>
      <trkpt lat="46.55561" lon="5.87225">
        <ele>1083.3823242188</ele>
        <time>2013-06-30T08:07:07.999Z</time>
      </trkpt>
      <trkpt lat="46.55566" lon="5.87222">
        <ele>1083.9412841797</ele>
        <time>2013-06-30T08:07:15.999Z</time>
      </trkpt>
      <trkpt lat="46.5557" lon="5.87225">
        <ele>1085.0714111328</ele>
        <time>2013-06-30T08:07:47.999Z</time>
      </trkpt>
      <trkpt lat="46.55567" lon="5.8722">
        <ele>1086.6351318359</ele>
        <time>2013-06-30T08:08:14.999Z</time>
      </trkpt>
      <trkpt lat="46.55564" lon="5.87216">
        <ele>1088.2175292969</ele>
        <time>2013-06-30T08:08:32.999Z</time>
      </trkpt>
      <trkpt lat="46.55567" lon="5.87221">
        <ele>1090.2947998047</ele>
        <time>2013-06-30T08:09:03.000Z</time>
      </trkpt>
      <trkpt lat="46.55568" lon="5.87228">
        <ele>1090.6400146484</ele>
        <time>2013-06-30T08:09:09.000Z</time>
      </trkpt>
      <trkpt lat="46.55575" lon="5.8723">
        <ele>1091.6708984375</ele>
        <time>2013-06-30T08:09:14.000Z</time>
      </trkpt>
      <trkpt lat="46.55582" lon="5.87232">
        <ele>1092.1481933594</ele>
        <time>2013-06-30T08:09:17.000Z</time>
      </trkpt>
      <trkpt lat="46.55588" lon="5.87233">
        <ele>1092.4725341797</ele>
        <time>2013-06-30T08:09:19.000Z</time>
      </trkpt>
      <trkpt lat="46.55595" lon="5.87235">
        <ele>1092.7404785156</ele>
        <time>2013-06-30T08:09:21.000Z</time>
      </trkpt>
      <trkpt lat="46.55602" lon="5.87236">
        <ele>1092.9831542969</ele>
        <time>2013-06-30T08:09:23.000Z</time>
      </trkpt>
      <trkpt lat="46.5561" lon="5.87238">
        <ele>1093.2191162109</ele>
        <time>2013-06-30T08:09:25.000Z</time>
      </trkpt>
      <trkpt lat="46.55618" lon="5.8724">
        <ele>1093.3271484375</ele>
        <time>2013-06-30T08:09:27.000Z</time>
      </trkpt>
      <trkpt lat="46.55627" lon="5.87245">
        <ele>1093.2561035156</ele>
        <time>2013-06-30T08:09:29.000Z</time>
      </trkpt>
      <trkpt lat="46.55633" lon="5.87249">
        <ele>1093.1865234375</ele>
        <time>2013-06-30T08:09:31.000Z</time>
      </trkpt>
      <trkpt lat="46.55637" lon="5.8725">
        <ele>1093.1887207031</ele>
        <time>2013-06-30T08:09:33.000Z</time>
      </trkpt>
      <trkpt lat="46.55644" lon="5.87253">
        <ele>1093.095703125</ele>
        <time>2013-06-30T08:09:35.000Z</time>
      </trkpt>
      <trkpt lat="46.55651" lon="5.87259">
        <ele>1092.7863769531</ele>
        <time>2013-06-30T08:09:37.000Z</time>
      </trkpt>
      <trkpt lat="46.55658" lon="5.87266">
        <ele>1092.38671875</ele>
        <time>2013-06-30T08:09:39.000Z</time>
      </trkpt>
      <trkpt lat="46.55664" lon="5.87273">
        <ele>1092.0329589844</ele>
        <time>2013-06-30T08:09:41.000Z</time>
      </trkpt>
      <trkpt lat="46.5567" lon="5.87279">
        <ele>1091.6937255859</ele>
        <time>2013-06-30T08:09:43.000Z</time>
      </trkpt>
      <trkpt lat="46.55676" lon="5.87285">
        <ele>1091.3304443359</ele>
        <time>2013-06-30T08:09:45.000Z</time>
      </trkpt>
      <trkpt lat="46.55684" lon="5.8729">
        <ele>1090.9346923828</ele>
        <time>2013-06-30T08:09:47.000Z</time>
      </trkpt>
      <trkpt lat="46.55691" lon="5.87295">
        <ele>1090.5216064453</ele>
        <time>2013-06-30T08:09:49.000Z</time>
      </trkpt>
      <trkpt lat="46.55698" lon="5.873">
        <ele>1090.1102294922</ele>
        <time>2013-06-30T08:09:51.000Z</time>
      </trkpt>
      <trkpt lat="46.55705" lon="5.87307">
        <ele>1088.7325439453</ele>
        <time>2013-06-30T08:09:53.000Z</time>
      </trkpt>
      <trkpt lat="46.55713" lon="5.87315">
        <ele>1087.6651611328</ele>
        <time>2013-06-30T08:09:55.000Z</time>
      </trkpt>
      <trkpt lat="46.55719" lon="5.87322">
        <ele>1087.2850341797</ele>
        <time>2013-06-30T08:09:57.000Z</time>
      </trkpt>
      <trkpt lat="46.55726" lon="5.87329">
        <ele>1086.6000976562</ele>
        <time>2013-06-30T08:09:59.000Z</time>
      </trkpt>
      <trkpt lat="46.55734" lon="5.87335">
        <ele>1085.7525634766</ele>
        <time>2013-06-30T08:10:01.000Z</time>
      </trkpt>
      <trkpt lat="46.55744" lon="5.87341">
        <ele>1086.0430908203</ele>
        <time>2013-06-30T08:10:03.000Z</time>
      </trkpt>
      <trkpt lat="46.55752" lon="5.87345">
        <ele>1086.0921630859</ele>
        <time>2013-06-30T08:10:05.000Z</time>
      </trkpt>
      <trkpt lat="46.55759" lon="5.8735">
        <ele>1086.1048583984</ele>
        <time>2013-06-30T08:10:07.000Z</time>
      </trkpt>
      <trkpt lat="46.55767" lon="5.87355">
        <ele>1084.3781738281</ele>
        <time>2013-06-30T08:10:09.000Z</time>
      </trkpt>
      <trkpt lat="46.55775" lon="5.87362">
        <ele>1084.5739746094</ele>
        <time>2013-06-30T08:10:11.000Z</time>
      </trkpt>
      <trkpt lat="46.55781" lon="5.87369">
        <ele>1084.6892089844</ele>
        <time>2013-06-30T08:10:13.000Z</time>
      </trkpt>
      <trkpt lat="46.55785" lon="5.87373">
        <ele>1084.9592285156</ele>
        <time>2013-06-30T08:10:15.000Z</time>
      </trkpt>
      <trkpt lat="46.55792" lon="5.87381">
        <ele>1085.1550292969</ele>
        <time>2013-06-30T08:10:17.000Z</time>
      </trkpt>
      <trkpt lat="46.55802" lon="5.87391">
        <ele>1085.1240234375</ele>
        <time>2013-06-30T08:10:19.000Z</time>
      </trkpt>
      <trkpt lat="46.5581" lon="5.87397">
        <ele>1085.0382080078</ele>
        <time>2013-06-30T08:10:21.000Z</time>
      </trkpt>
      <trkpt lat="46.55817" lon="5.87401">
        <ele>1084.9560546875</ele>
        <time>2013-06-30T08:10:23.000Z</time>
      </trkpt>
      <trkpt lat="46.55824" lon="5.87407">
        <ele>1084.951171875</ele>
        <time>2013-06-30T08:10:25.000Z</time>
      </trkpt>
      <trkpt lat="46.55828" lon="5.87414">
        <ele>1084.9350585938</ele>
        <time>2013-06-30T08:10:27.000Z</time>
      </trkpt>
      <trkpt lat="46.55832" lon="5.87421">
        <ele>1084.9683837891</ele>
        <time>2013-06-30T08:10:29.000Z</time>
      </trkpt>
      <trkpt lat="46.55841" lon="5.8743">
        <ele>1085.1193847656</ele>
        <time>2013-06-30T08:10:31.000Z</time>
      </trkpt>
      <trkpt lat="46.55851" lon="5.87436">
        <ele>1085.447265625</ele>
        <time>2013-06-30T08:10:33.000Z</time>
      </trkpt>
      <trkpt lat="46.55858" lon="5.87438">
        <ele>1085.8448486328</ele>
        <time>2013-06-30T08:10:35.000Z</time>
      </trkpt>
      <trkpt lat="46.55866" lon="5.87438">
        <ele>1086.2749023438</ele>
        <time>2013-06-30T08:10:37.000Z</time>
      </trkpt>
      <trkpt lat="46.55871" lon="5.87435">
        <ele>1086.6820068359</ele>
        <time>2013-06-30T08:10:39.000Z</time>
      </trkpt>
      <trkpt lat="46.55877" lon="5.87434">
        <ele>1086.9320068359</ele>
        <time>2013-06-30T08:10:41.000Z</time>
      </trkpt>
      <trkpt lat="46.55882" lon="5.87429">
        <ele>1087.3687744141</ele>
        <time>2013-06-30T08:10:45.000Z</time>
      </trkpt>
      <trkpt lat="46.55884" lon="5.87421">
        <ele>1087.7366943359</ele>
        <time>2013-06-30T08:10:49.000Z</time>
      </trkpt>
      <trkpt lat="46.55883" lon="5.87413">
        <ele>1088.3422851562</ele>
        <time>2013-06-30T08:10:52.000Z</time>
      </trkpt>
      <trkpt lat="46.55884" lon="5.87406">
        <ele>1088.8974609375</ele>
        <time>2013-06-30T08:10:54.000Z</time>
      </trkpt>
      <trkpt lat="46.55886" lon="5.87398">
        <ele>1089.3942871094</ele>
        <time>2013-06-30T08:10:56.000Z</time>
      </trkpt>
      <trkpt lat="46.5589" lon="5.8739">
        <ele>1089.9055175781</ele>
        <time>2013-06-30T08:10:59.000Z</time>
      </trkpt>
      <trkpt lat="46.55893" lon="5.87386">
        <ele>1090.4141845703</ele>
        <time>2013-06-30T08:11:02.000Z</time>
      </trkpt>
      <trkpt lat="46.55897" lon="5.87381">
        <ele>1090.5668945312</ele>
        <time>2013-06-30T08:11:04.000Z</time>
      </trkpt>
      <trkpt lat="46.55902" lon="5.87375">
        <ele>1090.5451660156</ele>
        <time>2013-06-30T08:11:06.000Z</time>
      </trkpt>
      <trkpt lat="46.55906" lon="5.8737">
        <ele>1090.5352783203</ele>
        <time>2013-06-30T08:11:08.000Z</time>
      </trkpt>
      <trkpt lat="46.55911" lon="5.87367">
        <ele>1090.5560302734</ele>
        <time>2013-06-30T08:11:10.000Z</time>
      </trkpt>
      <trkpt lat="46.55916" lon="5.87363">
        <ele>1090.8552246094</ele>
        <time>2013-06-30T08:11:13.000Z</time>
      </trkpt>
      <trkpt lat="46.55922" lon="5.8736">
        <ele>1091.2694091797</ele>
        <time>2013-06-30T08:11:16.000Z</time>
      </trkpt>
      <trkpt lat="46.55928" lon="5.87359">
        <ele>1091.5068359375</ele>
        <time>2013-06-30T08:11:18.000Z</time>
      </trkpt>
      <trkpt lat="46.55935" lon="5.87359">
        <ele>1091.607421875</ele>
        <time>2013-06-30T08:11:20.000Z</time>
      </trkpt>
      <trkpt lat="46.55941" lon="5.87362">
        <ele>1091.5968017578</ele>
        <time>2013-06-30T08:11:22.000Z</time>
      </trkpt>
      <trkpt lat="46.55947" lon="5.87363">
        <ele>1091.5727539062</ele>
        <time>2013-06-30T08:11:24.000Z</time>
      </trkpt>
      <trkpt lat="46.55953" lon="5.87366">
        <ele>1091.5120849609</ele>
        <time>2013-06-30T08:11:26.000Z</time>
      </trkpt>
      <trkpt lat="46.55958" lon="5.87368">
        <ele>1091.5451660156</ele>
        <time>2013-06-30T08:11:28.000Z</time>
      </trkpt>
      <trkpt lat="46.55963" lon="5.87372">
        <ele>1091.6813964844</ele>
        <time>2013-06-30T08:11:30.000Z</time>
      </trkpt>
      <trkpt lat="46.55968" lon="5.87376">
        <ele>1091.8536376953</ele>
        <time>2013-06-30T08:11:32.000Z</time>
      </trkpt>
      <trkpt lat="46.55973" lon="5.8738">
        <ele>1092.0616455078</ele>
        <time>2013-06-30T08:11:34.000Z</time>
      </trkpt>
      <trkpt lat="46.55978" lon="5.87384">
        <ele>1092.3021240234</ele>
        <time>2013-06-30T08:11:36.000Z</time>
      </trkpt>
      <trkpt lat="46.55984" lon="5.87387">
        <ele>1092.5230712891</ele>
        <time>2013-06-30T08:11:38.000Z</time>
      </trkpt>
      <trkpt lat="46.55991" lon="5.87391">
        <ele>1092.7154541016</ele>
        <time>2013-06-30T08:11:40.000Z</time>
      </trkpt>
      <trkpt lat="46.55998" lon="5.87394">
        <ele>1092.8765869141</ele>
        <time>2013-06-30T08:11:42.000Z</time>
      </trkpt>
      <trkpt lat="46.56004" lon="5.87397">
        <ele>1092.9753417969</ele>
        <time>2013-06-30T08:11:44.000Z</time>
      </trkpt>
      <trkpt lat="46.5601" lon="5.874">
        <ele>1093.0653076172</ele>
        <time>2013-06-30T08:11:46.000Z</time>
      </trkpt>
      <trkpt lat="46.56016" lon="5.87402">
        <ele>1093.2647705078</ele>
        <time>2013-06-30T08:11:48.000Z</time>
      </trkpt>
      <trkpt lat="46.56021" lon="5.87403">
        <ele>1093.5717773438</ele>
        <time>2013-06-30T08:11:50.000Z</time>
      </trkpt>
      <trkpt lat="46.56026" lon="5.87407">
        <ele>1093.8601074219</ele>
        <time>2013-06-30T08:11:52.000Z</time>
      </trkpt>
      <trkpt lat="46.56032" lon="5.87412">
        <ele>1094.3630371094</ele>
        <time>2013-06-30T08:11:55.000Z</time>
      </trkpt>
      <trkpt lat="46.56036" lon="5.87417">
        <ele>1094.7769775391</ele>
        <time>2013-06-30T08:11:57.000Z</time>
      </trkpt>
      <trkpt lat="46.56041" lon="5.87423">
        <ele>1095.1473388672</ele>
        <time>2013-06-30T08:11:59.000Z</time>
      </trkpt>
      <trkpt lat="46.56045" lon="5.8743">
        <ele>1095.7303466797</ele>
        <time>2013-06-30T08:12:04.000Z</time>
      </trkpt>
      <trkpt lat="46.56047" lon="5.87433">
        <ele>1095.9244384766</ele>
        <time>2013-06-30T08:12:06.000Z</time>
      </trkpt>
      <trkpt lat="46.56053" lon="5.87442">
        <ele>1096.0146484375</ele>
        <time>2013-06-30T08:12:08.000Z</time>
      </trkpt>
      <trkpt lat="46.56061" lon="5.87455">
        <ele>1096.2308349609</ele>
        <time>2013-06-30T08:12:10.000Z</time>
      </trkpt>
      <trkpt lat="46.56068" lon="5.87464">
        <ele>1096.4343261719</ele>
        <time>2013-06-30T08:12:12.000Z</time>
      </trkpt>
      <trkpt lat="46.56075" lon="5.87469">
        <ele>1096.6649169922</ele>
        <time>2013-06-30T08:12:14.000Z</time>
      </trkpt>
      <trkpt lat="46.5608" lon="5.87472">
        <ele>1096.9202880859</ele>
        <time>2013-06-30T08:12:16.000Z</time>
      </trkpt>
      <trkpt lat="46.56085" lon="5.87477">
        <ele>1097.1157226562</ele>
        <time>2013-06-30T08:12:18.000Z</time>
      </trkpt>
      <trkpt lat="46.56092" lon="5.87485">
        <ele>1097.1826171875</ele>
        <time>2013-06-30T08:12:20.000Z</time>
      </trkpt>
      <trkpt lat="46.56097" lon="5.8749">
        <ele>1097.3981933594</ele>
        <time>2013-06-30T08:12:22.000Z</time>
      </trkpt>
      <trkpt lat="46.56101" lon="5.87495">
        <ele>1097.6779785156</ele>
        <time>2013-06-30T08:12:24.000Z</time>
      </trkpt>
      <trkpt lat="46.56106" lon="5.87501">
        <ele>1097.9582519531</ele>
        <time>2013-06-30T08:12:26.000Z</time>
      </trkpt>
      <trkpt lat="46.56111" lon="5.87505">
        <ele>1098.2265625</ele>
        <time>2013-06-30T08:12:28.000Z</time>
      </trkpt>
      <trkpt lat="46.56116" lon="5.87509">
        <ele>1098.5645751953</ele>
        <time>2013-06-30T08:12:30.000Z</time>
      </trkpt>
      <trkpt lat="46.5612" lon="5.87512">
        <ele>1098.8997802734</ele>
        <time>2013-06-30T08:12:32.000Z</time>
      </trkpt>
      <trkpt lat="46.56125" lon="5.87513">
        <ele>1099.0667724609</ele>
        <time>2013-06-30T08:12:34.000Z</time>
      </trkpt>
      <trkpt lat="46.5613" lon="5.87515">
        <ele>1099.3662109375</ele>
        <time>2013-06-30T08:12:36.000Z</time>
      </trkpt>
      <trkpt lat="46.56135" lon="5.87514">
        <ele>1099.5656738281</ele>
        <time>2013-06-30T08:12:38.000Z</time>
      </trkpt>
      <trkpt lat="46.56142" lon="5.87512">
        <ele>1099.6790771484</ele>
        <time>2013-06-30T08:12:41.000Z</time>
      </trkpt>
      <trkpt lat="46.56147" lon="5.87512">
        <ele>1099.6577148438</ele>
        <time>2013-06-30T08:12:43.000Z</time>
      </trkpt>
      <trkpt lat="46.56155" lon="5.87512">
        <ele>1099.6379394531</ele>
        <time>2013-06-30T08:12:45.000Z</time>
      </trkpt>
      <trkpt lat="46.56163" lon="5.87515">
        <ele>1099.6369628906</ele>
        <time>2013-06-30T08:12:47.000Z</time>
      </trkpt>
      <trkpt lat="46.56168" lon="5.87517">
        <ele>1099.7237548828</ele>
        <time>2013-06-30T08:12:49.000Z</time>
      </trkpt>
      <trkpt lat="46.56173" lon="5.87522">
        <ele>1099.9699707031</ele>
        <time>2013-06-30T08:12:52.000Z</time>
      </trkpt>
      <trkpt lat="46.56178" lon="5.87528">
        <ele>1100.0756835938</ele>
        <time>2013-06-30T08:12:54.000Z</time>
      </trkpt>
      <trkpt lat="46.56183" lon="5.87532">
        <ele>1100.1967773438</ele>
        <time>2013-06-30T08:12:56.000Z</time>
      </trkpt>
      <trkpt lat="46.56189" lon="5.87538">
        <ele>1100.4049072266</ele>
        <time>2013-06-30T08:12:58.000Z</time>
      </trkpt>
      <trkpt lat="46.56194" lon="5.87542">
        <ele>1100.6348876953</ele>
        <time>2013-06-30T08:13:00.000Z</time>
      </trkpt>
      <trkpt lat="46.56198" lon="5.87544">
        <ele>1100.6928710938</ele>
        <time>2013-06-30T08:13:02.000Z</time>
      </trkpt>
      <trkpt lat="46.56205" lon="5.87547">
        <ele>1100.8732910156</ele>
        <time>2013-06-30T08:13:04.000Z</time>
      </trkpt>
      <trkpt lat="46.56211" lon="5.87548">
        <ele>1101.1193847656</ele>
        <time>2013-06-30T08:13:06.000Z</time>
      </trkpt>
      <trkpt lat="46.56216" lon="5.87548">
        <ele>1101.3701171875</ele>
        <time>2013-06-30T08:13:08.000Z</time>
      </trkpt>
      <trkpt lat="46.56222" lon="5.87545">
        <ele>1101.7777099609</ele>
        <time>2013-06-30T08:13:11.000Z</time>
      </trkpt>
      <trkpt lat="46.56227" lon="5.87541">
        <ele>1102.5601806641</ele>
        <time>2013-06-30T08:13:15.000Z</time>
      </trkpt>
      <trkpt lat="46.56233" lon="5.87534">
        <ele>1103.2094726562</ele>
        <time>2013-06-30T08:13:18.000Z</time>
      </trkpt>
      <trkpt lat="46.56238" lon="5.87527">
        <ele>1103.6251220703</ele>
        <time>2013-06-30T08:13:20.000Z</time>
      </trkpt>
      <trkpt lat="46.56242" lon="5.87521">
        <ele>1103.9993896484</ele>
        <time>2013-06-30T08:13:22.000Z</time>
      </trkpt>
      <trkpt lat="46.56247" lon="5.87512">
        <ele>1104.4232177734</ele>
        <time>2013-06-30T08:13:24.000Z</time>
      </trkpt>
      <trkpt lat="46.56252" lon="5.87504">
        <ele>1104.7661132812</ele>
        <time>2013-06-30T08:13:26.000Z</time>
      </trkpt>
      <trkpt lat="46.56256" lon="5.87496">
        <ele>1105.1293945312</ele>
        <time>2013-06-30T08:13:28.000Z</time>
      </trkpt>
      <trkpt lat="46.5626" lon="5.8749">
        <ele>1105.4039306641</ele>
        <time>2013-06-30T08:13:30.000Z</time>
      </trkpt>
      <trkpt lat="46.56266" lon="5.87483">
        <ele>1105.8022460938</ele>
        <time>2013-06-30T08:13:33.000Z</time>
      </trkpt>
      <trkpt lat="46.56271" lon="5.87479">
        <ele>1105.9963378906</ele>
        <time>2013-06-30T08:13:35.000Z</time>
      </trkpt>
      <trkpt lat="46.56276" lon="5.87478">
        <ele>1106.1511230469</ele>
        <time>2013-06-30T08:13:37.000Z</time>
      </trkpt>
      <trkpt lat="46.56281" lon="5.87476">
        <ele>1106.2476806641</ele>
        <time>2013-06-30T08:13:39.000Z</time>
      </trkpt>
      <trkpt lat="46.56287" lon="5.87472">
        <ele>1106.2160644531</ele>
        <time>2013-06-30T08:13:41.000Z</time>
      </trkpt>
      <trkpt lat="46.56291" lon="5.87465">
        <ele>1106.2044677734</ele>
        <time>2013-06-30T08:13:43.000Z</time>
      </trkpt>
      <trkpt lat="46.56295" lon="5.87457">
        <ele>1106.2248535156</ele>
        <time>2013-06-30T08:13:45.000Z</time>
      </trkpt>
      <trkpt lat="46.56298" lon="5.87449">
        <ele>1106.2762451172</ele>
        <time>2013-06-30T08:13:47.000Z</time>
      </trkpt>
      <trkpt lat="46.56301" lon="5.8744">
        <ele>1106.357421875</ele>
        <time>2013-06-30T08:13:49.000Z</time>
      </trkpt>
      <trkpt lat="46.56304" lon="5.87433">
        <ele>1106.478515625</ele>
        <time>2013-06-30T08:13:51.000Z</time>
      </trkpt>
      <trkpt lat="46.56307" lon="5.87426">
        <ele>1106.6607666016</ele>
        <time>2013-06-30T08:13:53.000Z</time>
      </trkpt>
      <trkpt lat="46.56309" lon="5.87417">
        <ele>1106.8187255859</ele>
        <time>2013-06-30T08:13:55.000Z</time>
      </trkpt>
      <trkpt lat="46.56312" lon="5.8741">
        <ele>1106.9768066406</ele>
        <time>2013-06-30T08:13:57.000Z</time>
      </trkpt>
      <trkpt lat="46.56314" lon="5.87403">
        <ele>1107.2265625</ele>
        <time>2013-06-30T08:14:00.000Z</time>
      </trkpt>
      <trkpt lat="46.56316" lon="5.87392">
        <ele>1107.4195556641</ele>
        <time>2013-06-30T08:14:03.000Z</time>
      </trkpt>
      <trkpt lat="46.56319" lon="5.87383">
        <ele>1107.5086669922</ele>
        <time>2013-06-30T08:14:05.000Z</time>
      </trkpt>
      <trkpt lat="46.56324" lon="5.87373">
        <ele>1107.6634521484</ele>
        <time>2013-06-30T08:14:07.000Z</time>
      </trkpt>
      <trkpt lat="46.56329" lon="5.87365">
        <ele>1109.5128173828</ele>
        <time>2013-06-30T08:14:09.000Z</time>
      </trkpt>
      <trkpt lat="46.56335" lon="5.87353">
        <ele>1110.9677734375</ele>
        <time>2013-06-30T08:14:11.000Z</time>
      </trkpt>
      <trkpt lat="46.56339" lon="5.87339">
        <ele>1111.4088134766</ele>
        <time>2013-06-30T08:14:13.000Z</time>
      </trkpt>
      <trkpt lat="46.5634" lon="5.87328">
        <ele>1111.4738769531</ele>
        <time>2013-06-30T08:14:15.000Z</time>
      </trkpt>
      <trkpt lat="46.56341" lon="5.87318">
        <ele>1111.5379638672</ele>
        <time>2013-06-30T08:14:17.000Z</time>
      </trkpt>
      <trkpt lat="46.56345" lon="5.87308">
        <ele>1111.5101318359</ele>
        <time>2013-06-30T08:14:19.000Z</time>
      </trkpt>
      <trkpt lat="46.5635" lon="5.87298">
        <ele>1110.0064697266</ele>
        <time>2013-06-30T08:14:21.000Z</time>
      </trkpt>
      <trkpt lat="46.56357" lon="5.87294">
        <ele>1108.7374267578</ele>
        <time>2013-06-30T08:14:23.000Z</time>
      </trkpt>
      <trkpt lat="46.56364" lon="5.87292">
        <ele>1108.5828857422</ele>
        <time>2013-06-30T08:14:25.000Z</time>
      </trkpt>
      <trkpt lat="46.56374" lon="5.87287">
        <ele>1107.8758544922</ele>
        <time>2013-06-30T08:14:27.000Z</time>
      </trkpt>
      <trkpt lat="46.56383" lon="5.87283">
        <ele>1106.8875732422</ele>
        <time>2013-06-30T08:14:29.000Z</time>
      </trkpt>
      <trkpt lat="46.56391" lon="5.87279">
        <ele>1106.7716064453</ele>
        <time>2013-06-30T08:14:31.000Z</time>
      </trkpt>
      <trkpt lat="46.56398" lon="5.87272">
        <ele>1106.6820068359</ele>
        <time>2013-06-30T08:14:33.000Z</time>
      </trkpt>
      <trkpt lat="46.56403" lon="5.87262">
        <ele>1106.5554199219</ele>
        <time>2013-06-30T08:14:35.000Z</time>
      </trkpt>
      <trkpt lat="46.56406" lon="5.87253">
        <ele>1106.3039550781</ele>
        <time>2013-06-30T08:14:37.000Z</time>
      </trkpt>
      <trkpt lat="46.56408" lon="5.87244">
        <ele>1106.0313720703</ele>
        <time>2013-06-30T08:14:39.000Z</time>
      </trkpt>
      <trkpt lat="46.56409" lon="5.87236">
        <ele>1105.8361816406</ele>
        <time>2013-06-30T08:14:41.000Z</time>
      </trkpt>
      <trkpt lat="46.5641" lon="5.87226">
        <ele>1105.5751953125</ele>
        <time>2013-06-30T08:14:44.000Z</time>
      </trkpt>
      <trkpt lat="46.56415" lon="5.87223">
        <ele>1105.0263671875</ele>
        <time>2013-06-30T08:14:48.000Z</time>
      </trkpt>
      <trkpt lat="46.5642" lon="5.87222">
        <ele>1104.6534423828</ele>
        <time>2013-06-30T08:14:50.000Z</time>
      </trkpt>
      <trkpt lat="46.56426" lon="5.8722">
        <ele>1104.2661132812</ele>
        <time>2013-06-30T08:14:52.000Z</time>
      </trkpt>
      <trkpt lat="46.56433" lon="5.87219">
        <ele>1103.8406982422</ele>
        <time>2013-06-30T08:14:54.000Z</time>
      </trkpt>
      <trkpt lat="46.56441" lon="5.87215">
        <ele>1103.3529052734</ele>
        <time>2013-06-30T08:14:56.000Z</time>
      </trkpt>
      <trkpt lat="46.56446" lon="5.87211">
        <ele>1102.7669677734</ele>
        <time>2013-06-30T08:14:58.000Z</time>
      </trkpt>
      <trkpt lat="46.56452" lon="5.87205">
        <ele>1102.1652832031</ele>
        <time>2013-06-30T08:15:00.000Z</time>
      </trkpt>
      <trkpt lat="46.56457" lon="5.87198">
        <ele>1101.5212402344</ele>
        <time>2013-06-30T08:15:02.000Z</time>
      </trkpt>
      <trkpt lat="46.56461" lon="5.87192">
        <ele>1100.8421630859</ele>
        <time>2013-06-30T08:15:04.000Z</time>
      </trkpt>
      <trkpt lat="46.56467" lon="5.87185">
        <ele>1100.2515869141</ele>
        <time>2013-06-30T08:15:06.000Z</time>
      </trkpt>
      <trkpt lat="46.56472" lon="5.87178">
        <ele>1099.7030029297</ele>
        <time>2013-06-30T08:15:08.000Z</time>
      </trkpt>
      <trkpt lat="46.56476" lon="5.87171">
        <ele>1099.1661376953</ele>
        <time>2013-06-30T08:15:10.000Z</time>
      </trkpt>
      <trkpt lat="46.5648" lon="5.87165">
        <ele>1098.6625976562</ele>
        <time>2013-06-30T08:15:12.000Z</time>
      </trkpt>
      <trkpt lat="46.56484" lon="5.87159">
        <ele>1098.1799316406</ele>
        <time>2013-06-30T08:15:14.000Z</time>
      </trkpt>
      <trkpt lat="46.5649" lon="5.87154">
        <ele>1097.4945068359</ele>
        <time>2013-06-30T08:15:17.000Z</time>
      </trkpt>
      <trkpt lat="46.56494" lon="5.87153">
        <ele>1096.5401611328</ele>
        <time>2013-06-30T08:15:20.000Z</time>
      </trkpt>
      <trkpt lat="46.56499" lon="5.87156">
        <ele>1095.1673583984</ele>
        <time>2013-06-30T08:15:24.000Z</time>
      </trkpt>
      <trkpt lat="46.56503" lon="5.87162">
        <ele>1094.5388183594</ele>
        <time>2013-06-30T08:15:26.000Z</time>
      </trkpt>
      <trkpt lat="46.56507" lon="5.8717">
        <ele>1093.8599853516</ele>
        <time>2013-06-30T08:15:28.000Z</time>
      </trkpt>
      <trkpt lat="46.56512" lon="5.8718">
        <ele>1093.2019042969</ele>
        <time>2013-06-30T08:15:30.000Z</time>
      </trkpt>
      <trkpt lat="46.56516" lon="5.87189">
        <ele>1092.5203857422</ele>
        <time>2013-06-30T08:15:32.000Z</time>
      </trkpt>
      <trkpt lat="46.56519" lon="5.87198">
        <ele>1091.8294677734</ele>
        <time>2013-06-30T08:15:34.000Z</time>
      </trkpt>
      <trkpt lat="46.56519" lon="5.87207">
        <ele>1091.2397460938</ele>
        <time>2013-06-30T08:15:36.000Z</time>
      </trkpt>
      <trkpt lat="46.56521" lon="5.87216">
        <ele>1090.7270507812</ele>
        <time>2013-06-30T08:15:38.000Z</time>
      </trkpt>
      <trkpt lat="46.56523" lon="5.87225">
        <ele>1090.1846923828</ele>
        <time>2013-06-30T08:15:40.000Z</time>
      </trkpt>
      <trkpt lat="46.56525" lon="5.87232">
        <ele>1089.6018066406</ele>
        <time>2013-06-30T08:15:42.000Z</time>
      </trkpt>
      <trkpt lat="46.56527" lon="5.87239">
        <ele>1089.0234375</ele>
        <time>2013-06-30T08:15:44.000Z</time>
      </trkpt>
      <trkpt lat="46.56529" lon="5.87245">
        <ele>1088.5181884766</ele>
        <time>2013-06-30T08:15:46.000Z</time>
      </trkpt>
      <trkpt lat="46.56531" lon="5.8725">
        <ele>1088.0838623047</ele>
        <time>2013-06-30T08:15:48.000Z</time>
      </trkpt>
      <trkpt lat="46.56536" lon="5.8726">
        <ele>1086.0708007812</ele>
        <time>2013-06-30T08:15:50.000Z</time>
      </trkpt>
      <trkpt lat="46.56544" lon="5.87277">
        <ele>1082.5787353516</ele>
        <time>2013-06-30T08:15:52.000Z</time>
      </trkpt>
      <trkpt lat="46.56555" lon="5.87295">
        <ele>1079.1350097656</ele>
        <time>2013-06-30T08:15:54.000Z</time>
      </trkpt>
      <trkpt lat="46.56568" lon="5.87313">
        <ele>1076.0815429688</ele>
        <time>2013-06-30T08:15:56.000Z</time>
      </trkpt>
      <trkpt lat="46.56582" lon="5.87327">
        <ele>1073.4125976562</ele>
        <time>2013-06-30T08:15:58.000Z</time>
      </trkpt>
      <trkpt lat="46.56598" lon="5.87336">
        <ele>1070.13671875</ele>
        <time>2013-06-30T08:16:00.000Z</time>
      </trkpt>
      <trkpt lat="46.56613" lon="5.87346">
        <ele>1067.8995361328</ele>
        <time>2013-06-30T08:16:02.000Z</time>
      </trkpt>
      <trkpt lat="46.56626" lon="5.87358">
        <ele>1066.474609375</ele>
        <time>2013-06-30T08:16:04.000Z</time>
      </trkpt>
      <trkpt lat="46.56636" lon="5.87374">
        <ele>1065.5570068359</ele>
        <time>2013-06-30T08:16:06.000Z</time>
      </trkpt>
      <trkpt lat="46.56646" lon="5.8739">
        <ele>1064.6737060547</ele>
        <time>2013-06-30T08:16:08.000Z</time>
      </trkpt>
      <trkpt lat="46.56655" lon="5.87402">
        <ele>1063.0386962891</ele>
        <time>2013-06-30T08:16:10.000Z</time>
      </trkpt>
      <trkpt lat="46.56661" lon="5.87406">
        <ele>1062.8723144531</ele>
        <time>2013-06-30T08:16:12.000Z</time>
      </trkpt>
      <trkpt lat="46.56666" lon="5.87408">
        <ele>1062.4930419922</ele>
        <time>2013-06-30T08:16:16.000Z</time>
      </trkpt>
      <trkpt lat="46.56671" lon="5.8741">
        <ele>1061.9232177734</ele>
        <time>2013-06-30T08:16:23.000Z</time>
      </trkpt>
      <trkpt lat="46.56677" lon="5.87416">
        <ele>1061.5687255859</ele>
        <time>2013-06-30T08:16:28.000Z</time>
      </trkpt>
      <trkpt lat="46.56682" lon="5.87418">
        <ele>1061.3670654297</ele>
        <time>2013-06-30T08:16:30.000Z</time>
      </trkpt>
      <trkpt lat="46.56687" lon="5.8742">
        <ele>1061.1591796875</ele>
        <time>2013-06-30T08:16:32.000Z</time>
      </trkpt>
      <trkpt lat="46.56692" lon="5.87421">
        <ele>1061.0161132812</ele>
        <time>2013-06-30T08:16:34.000Z</time>
      </trkpt>
      <trkpt lat="46.56697" lon="5.87419">
        <ele>1060.8836669922</ele>
        <time>2013-06-30T08:16:36.000Z</time>
      </trkpt>
      <trkpt lat="46.56703" lon="5.87418">
        <ele>1060.6892089844</ele>
        <time>2013-06-30T08:16:38.000Z</time>
      </trkpt>
      <trkpt lat="46.56709" lon="5.87416">
        <ele>1060.4168701172</ele>
        <time>2013-06-30T08:16:40.000Z</time>
      </trkpt>
      <trkpt lat="46.56715" lon="5.87413">
        <ele>1060.3178710938</ele>
        <time>2013-06-30T08:16:42.000Z</time>
      </trkpt>
      <trkpt lat="46.56721" lon="5.87411">
        <ele>1060.3289794922</ele>
        <time>2013-06-30T08:16:44.000Z</time>
      </trkpt>
      <trkpt lat="46.56726" lon="5.87406">
        <ele>1060.3286132812</ele>
        <time>2013-06-30T08:16:46.000Z</time>
      </trkpt>
      <trkpt lat="46.56734" lon="5.87396">
        <ele>1060.2922363281</ele>
        <time>2013-06-30T08:16:48.000Z</time>
      </trkpt>
      <trkpt lat="46.56739" lon="5.87389">
        <ele>1060.1844482422</ele>
        <time>2013-06-30T08:16:50.000Z</time>
      </trkpt>
      <trkpt lat="46.56746" lon="5.87381">
        <ele>1060.0728759766</ele>
        <time>2013-06-30T08:16:52.000Z</time>
      </trkpt>
      <trkpt lat="46.56752" lon="5.87375">
        <ele>1059.8685302734</ele>
        <time>2013-06-30T08:16:54.000Z</time>
      </trkpt>
      <trkpt lat="46.56757" lon="5.87371">
        <ele>1059.5755615234</ele>
        <time>2013-06-30T08:16:56.000Z</time>
      </trkpt>
      <trkpt lat="46.56762" lon="5.87366">
        <ele>1059.3204345703</ele>
        <time>2013-06-30T08:16:58.000Z</time>
      </trkpt>
      <trkpt lat="46.56769" lon="5.87363">
        <ele>1059.0207519531</ele>
        <time>2013-06-30T08:17:00.000Z</time>
      </trkpt>
      <trkpt lat="46.56775" lon="5.8736">
        <ele>1058.5301513672</ele>
        <time>2013-06-30T08:17:02.000Z</time>
      </trkpt>
      <trkpt lat="46.56784" lon="5.87357">
        <ele>1057.9558105469</ele>
        <time>2013-06-30T08:17:04.000Z</time>
      </trkpt>
      <trkpt lat="46.56792" lon="5.87353">
        <ele>1057.3670654297</ele>
        <time>2013-06-30T08:17:06.000Z</time>
      </trkpt>
      <trkpt lat="46.56801" lon="5.87353">
        <ele>1056.8231201172</ele>
        <time>2013-06-30T08:17:08.000Z</time>
      </trkpt>
      <trkpt lat="46.56809" lon="5.87355">
        <ele>1056.3049316406</ele>
        <time>2013-06-30T08:17:10.000Z</time>
      </trkpt>
      <trkpt lat="46.56817" lon="5.87357">
        <ele>1055.9172363281</ele>
        <time>2013-06-30T08:17:12.000Z</time>
      </trkpt>
      <trkpt lat="46.56826" lon="5.87361">
        <ele>1052.4926757812</ele>
        <time>2013-06-30T08:17:14.000Z</time>
      </trkpt>
      <trkpt lat="46.56835" lon="5.87366">
        <ele>1050.8331298828</ele>
        <time>2013-06-30T08:17:16.000Z</time>
      </trkpt>
      <trkpt lat="46.56845" lon="5.87371">
        <ele>1050.4580078125</ele>
        <time>2013-06-30T08:17:18.000Z</time>
      </trkpt>
      <trkpt lat="46.56855" lon="5.87375">
        <ele>1049.8283691406</ele>
        <time>2013-06-30T08:17:20.000Z</time>
      </trkpt>
      <trkpt lat="46.56871" lon="5.87382">
        <ele>1050.9664306641</ele>
        <time>2013-06-30T08:17:22.000Z</time>
      </trkpt>
      <trkpt lat="46.56884" lon="5.87386">
        <ele>1052.6535644531</ele>
        <time>2013-06-30T08:17:24.000Z</time>
      </trkpt>
      <trkpt lat="46.56895" lon="5.87389">
        <ele>1053.6296386719</ele>
        <time>2013-06-30T08:17:26.000Z</time>
      </trkpt>
      <trkpt lat="46.56906" lon="5.87392">
        <ele>1054.4704589844</ele>
        <time>2013-06-30T08:17:28.000Z</time>
      </trkpt>
      <trkpt lat="46.56915" lon="5.87398">
        <ele>1055.7055664062</ele>
        <time>2013-06-30T08:17:30.000Z</time>
      </trkpt>
      <trkpt lat="46.56924" lon="5.87404">
        <ele>1056.9455566406</ele>
        <time>2013-06-30T08:17:32.000Z</time>
      </trkpt>
      <trkpt lat="46.56931" lon="5.8741">
        <ele>1057.0657958984</ele>
        <time>2013-06-30T08:17:34.000Z</time>
      </trkpt>
      <trkpt lat="46.56936" lon="5.87416">
        <ele>1057.1038818359</ele>
        <time>2013-06-30T08:17:36.000Z</time>
      </trkpt>
      <trkpt lat="46.5694" lon="5.87424">
        <ele>1057.0776367188</ele>
        <time>2013-06-30T08:17:38.000Z</time>
      </trkpt>
      <trkpt lat="46.56945" lon="5.87431">
        <ele>1057.0272216797</ele>
        <time>2013-06-30T08:17:40.000Z</time>
      </trkpt>
      <trkpt lat="46.5695" lon="5.87436">
        <ele>1057.0322265625</ele>
        <time>2013-06-30T08:17:42.000Z</time>
      </trkpt>
      <trkpt lat="46.5696" lon="5.87447">
        <ele>1057.1242675781</ele>
        <time>2013-06-30T08:17:44.000Z</time>
      </trkpt>
      <trkpt lat="46.5697" lon="5.87458">
        <ele>1058.5368652344</ele>
        <time>2013-06-30T08:17:46.000Z</time>
      </trkpt>
      <trkpt lat="46.56977" lon="5.87466">
        <ele>1059.3291015625</ele>
        <time>2013-06-30T08:17:48.000Z</time>
      </trkpt>
      <trkpt lat="46.56986" lon="5.87471">
        <ele>1059.337890625</ele>
        <time>2013-06-30T08:17:50.000Z</time>
      </trkpt>
      <trkpt lat="46.56996" lon="5.87472">
        <ele>1059.01953125</ele>
        <time>2013-06-30T08:17:52.000Z</time>
      </trkpt>
      <trkpt lat="46.57006" lon="5.87473">
        <ele>1058.0054931641</ele>
        <time>2013-06-30T08:17:54.000Z</time>
      </trkpt>
      <trkpt lat="46.57018" lon="5.87473">
        <ele>1057.6756591797</ele>
        <time>2013-06-30T08:17:56.000Z</time>
      </trkpt>
      <trkpt lat="46.57032" lon="5.87473">
        <ele>1057.1184082031</ele>
        <time>2013-06-30T08:17:58.000Z</time>
      </trkpt>
      <trkpt lat="46.57047" lon="5.87473">
        <ele>1055.7294921875</ele>
        <time>2013-06-30T08:18:00.000Z</time>
      </trkpt>
      <trkpt lat="46.5706" lon="5.87476">
        <ele>1053.6430664062</ele>
        <time>2013-06-30T08:18:02.000Z</time>
      </trkpt>
      <trkpt lat="46.57077" lon="5.87481">
        <ele>1050.8775634766</ele>
        <time>2013-06-30T08:18:04.000Z</time>
      </trkpt>
      <trkpt lat="46.57096" lon="5.87489">
        <ele>1046.8835449219</ele>
        <time>2013-06-30T08:18:06.000Z</time>
      </trkpt>
      <trkpt lat="46.57118" lon="5.87499">
        <ele>1043.57421875</ele>
        <time>2013-06-30T08:18:08.000Z</time>
      </trkpt>
      <trkpt lat="46.57141" lon="5.87507">
        <ele>1040.3228759766</ele>
        <time>2013-06-30T08:18:10.000Z</time>
      </trkpt>
      <trkpt lat="46.57162" lon="5.87513">
        <ele>1038.8620605469</ele>
        <time>2013-06-30T08:18:12.000Z</time>
      </trkpt>
      <trkpt lat="46.57181" lon="5.87518">
        <ele>1037.6424560547</ele>
        <time>2013-06-30T08:18:14.000Z</time>
      </trkpt>
      <trkpt lat="46.57197" lon="5.87523">
        <ele>1036.6304931641</ele>
        <time>2013-06-30T08:18:16.000Z</time>
      </trkpt>
      <trkpt lat="46.57215" lon="5.87529">
        <ele>1036.6046142578</ele>
        <time>2013-06-30T08:18:18.000Z</time>
      </trkpt>
      <trkpt lat="46.57235" lon="5.87534">
        <ele>1037.1225585938</ele>
        <time>2013-06-30T08:18:20.000Z</time>
      </trkpt>
      <trkpt lat="46.57254" lon="5.87543">
        <ele>1036.0773925781</ele>
        <time>2013-06-30T08:18:22.000Z</time>
      </trkpt>
      <trkpt lat="46.57268" lon="5.87554">
        <ele>1035.0823974609</ele>
        <time>2013-06-30T08:18:24.000Z</time>
      </trkpt>
      <trkpt lat="46.57283" lon="5.87564">
        <ele>1034.1810302734</ele>
        <time>2013-06-30T08:18:26.000Z</time>
      </trkpt>
      <trkpt lat="46.57297" lon="5.87569">
        <ele>1033.1998291016</ele>
        <time>2013-06-30T08:18:28.000Z</time>
      </trkpt>
      <trkpt lat="46.57309" lon="5.87572">
        <ele>1031.8645019531</ele>
        <time>2013-06-30T08:18:30.000Z</time>
      </trkpt>
      <trkpt lat="46.57319" lon="5.87572">
        <ele>1031.3126220703</ele>
        <time>2013-06-30T08:18:32.000Z</time>
      </trkpt>
      <trkpt lat="46.57331" lon="5.87572">
        <ele>1030.2717285156</ele>
        <time>2013-06-30T08:18:34.000Z</time>
      </trkpt>
      <trkpt lat="46.57342" lon="5.87574">
        <ele>1029.716796875</ele>
        <time>2013-06-30T08:18:36.000Z</time>
      </trkpt>
      <trkpt lat="46.57354" lon="5.87576">
        <ele>1030.0349121094</ele>
        <time>2013-06-30T08:18:38.000Z</time>
      </trkpt>
      <trkpt lat="46.57369" lon="5.87578">
        <ele>1029.3194580078</ele>
        <time>2013-06-30T08:18:40.000Z</time>
      </trkpt>
      <trkpt lat="46.57381" lon="5.87581">
        <ele>1028.4416503906</ele>
        <time>2013-06-30T08:18:42.000Z</time>
      </trkpt>
      <trkpt lat="46.57393" lon="5.87586">
        <ele>1027.5159912109</ele>
        <time>2013-06-30T08:18:44.000Z</time>
      </trkpt>
      <trkpt lat="46.57405" lon="5.87593">
        <ele>1026.9711914062</ele>
        <time>2013-06-30T08:18:46.000Z</time>
      </trkpt>
      <trkpt lat="46.57418" lon="5.87597">
        <ele>1026.2058105469</ele>
        <time>2013-06-30T08:18:48.000Z</time>
      </trkpt>
      <trkpt lat="46.57428" lon="5.87598">
        <ele>1026.1147460938</ele>
        <time>2013-06-30T08:18:50.000Z</time>
      </trkpt>
      <trkpt lat="46.57433" lon="5.87597">
        <ele>1026.0810546875</ele>
        <time>2013-06-30T08:18:52.000Z</time>
      </trkpt>
      <trkpt lat="46.5744" lon="5.87587">
        <ele>1026.0617675781</ele>
        <time>2013-06-30T08:18:55.000Z</time>
      </trkpt>
      <trkpt lat="46.57444" lon="5.87581">
        <ele>1026.0314941406</ele>
        <time>2013-06-30T08:18:57.000Z</time>
      </trkpt>
      <trkpt lat="46.57449" lon="5.87575">
        <ele>1026.0614013672</ele>
        <time>2013-06-30T08:18:59.000Z</time>
      </trkpt>
      <trkpt lat="46.57453" lon="5.8757">
        <ele>1026.0458984375</ele>
        <time>2013-06-30T08:19:01.000Z</time>
      </trkpt>
      <trkpt lat="46.57458" lon="5.87565">
        <ele>1025.9265136719</ele>
        <time>2013-06-30T08:19:04.000Z</time>
      </trkpt>
      <trkpt lat="46.57466" lon="5.87559">
        <ele>1025.7309570312</ele>
        <time>2013-06-30T08:19:07.000Z</time>
      </trkpt>
      <trkpt lat="46.57471" lon="5.87558">
        <ele>1025.3590087891</ele>
        <time>2013-06-30T08:19:10.000Z</time>
      </trkpt>
      <trkpt lat="46.57476" lon="5.87557">
        <ele>1025.0344238281</ele>
        <time>2013-06-30T08:19:12.000Z</time>
      </trkpt>
      <trkpt lat="46.57488" lon="5.87554">
        <ele>1024.5294189453</ele>
        <time>2013-06-30T08:19:14.000Z</time>
      </trkpt>
      <trkpt lat="46.57496" lon="5.87551">
        <ele>1023.8734741211</ele>
        <time>2013-06-30T08:19:16.000Z</time>
      </trkpt>
      <trkpt lat="46.57505" lon="5.87548">
        <ele>1023.1204223633</ele>
        <time>2013-06-30T08:19:18.000Z</time>
      </trkpt>
      <trkpt lat="46.57521" lon="5.87545">
        <ele>1016.5004882812</ele>
        <time>2013-06-30T08:19:20.000Z</time>
      </trkpt>
      <trkpt lat="46.57532" lon="5.87544">
        <ele>1012.4255981445</ele>
        <time>2013-06-30T08:19:22.000Z</time>
      </trkpt>
      <trkpt lat="46.57544" lon="5.87543">
        <ele>1009.9321289062</ele>
        <time>2013-06-30T08:19:24.000Z</time>
      </trkpt>
      <trkpt lat="46.5756" lon="5.87543">
        <ele>1009.5672607422</ele>
        <time>2013-06-30T08:19:26.000Z</time>
      </trkpt>
      <trkpt lat="46.57573" lon="5.87543">
        <ele>1009.1022338867</ele>
        <time>2013-06-30T08:19:28.000Z</time>
      </trkpt>
      <trkpt lat="46.57585" lon="5.87542">
        <ele>1008.2893066406</ele>
        <time>2013-06-30T08:19:30.000Z</time>
      </trkpt>
      <trkpt lat="46.576" lon="5.87544">
        <ele>1007.5840454102</ele>
        <time>2013-06-30T08:19:32.000Z</time>
      </trkpt>
      <trkpt lat="46.57619" lon="5.87551">
        <ele>1009.9120483398</ele>
        <time>2013-06-30T08:19:34.000Z</time>
      </trkpt>
      <trkpt lat="46.57635" lon="5.8756">
        <ele>1015.411315918</ele>
        <time>2013-06-30T08:19:36.000Z</time>
      </trkpt>
      <trkpt lat="46.57648" lon="5.87569">
        <ele>1017.555480957</ele>
        <time>2013-06-30T08:19:38.000Z</time>
      </trkpt>
      <trkpt lat="46.5766" lon="5.87574">
        <ele>1019.1063842773</ele>
        <time>2013-06-30T08:19:40.000Z</time>
      </trkpt>
      <trkpt lat="46.57671" lon="5.87578">
        <ele>1019.3983764648</ele>
        <time>2013-06-30T08:19:42.000Z</time>
      </trkpt>
      <trkpt lat="46.57683" lon="5.87577">
        <ele>1019.7779541016</ele>
        <time>2013-06-30T08:19:44.000Z</time>
      </trkpt>
      <trkpt lat="46.57697" lon="5.87569">
        <ele>1020.2584838867</ele>
        <time>2013-06-30T08:19:46.000Z</time>
      </trkpt>
      <trkpt lat="46.5771" lon="5.87559">
        <ele>1020.6757202148</ele>
        <time>2013-06-30T08:19:48.000Z</time>
      </trkpt>
      <trkpt lat="46.57724" lon="5.87549">
        <ele>1021.0442504883</ele>
        <time>2013-06-30T08:19:50.000Z</time>
      </trkpt>
      <trkpt lat="46.57734" lon="5.87544">
        <ele>1021.2971191406</ele>
        <time>2013-06-30T08:19:52.000Z</time>
      </trkpt>
      <trkpt lat="46.57739" lon="5.87542">
        <ele>1021.5999755859</ele>
        <time>2013-06-30T08:19:54.000Z</time>
      </trkpt>
      <trkpt lat="46.57744" lon="5.87541">
        <ele>1022.0267944336</ele>
        <time>2013-06-30T08:19:56.000Z</time>
      </trkpt>
      <trkpt lat="46.57752" lon="5.87541">
        <ele>1022.3773193359</ele>
        <time>2013-06-30T08:19:58.000Z</time>
      </trkpt>
      <trkpt lat="46.57762" lon="5.87538">
        <ele>1022.4991455078</ele>
        <time>2013-06-30T08:20:00.000Z</time>
      </trkpt>
      <trkpt lat="46.57772" lon="5.87532">
        <ele>1022.6115722656</ele>
        <time>2013-06-30T08:20:02.000Z</time>
      </trkpt>
      <trkpt lat="46.5778" lon="5.87526">
        <ele>1022.6682128906</ele>
        <time>2013-06-30T08:20:04.000Z</time>
      </trkpt>
      <trkpt lat="46.57787" lon="5.87519">
        <ele>1022.6915893555</ele>
        <time>2013-06-30T08:20:06.000Z</time>
      </trkpt>
      <trkpt lat="46.57802" lon="5.87503">
        <ele>1022.6331176758</ele>
        <time>2013-06-30T08:20:10.000Z</time>
      </trkpt>
      <trkpt lat="46.57814" lon="5.87493">
        <ele>1022.7269287109</ele>
        <time>2013-06-30T08:20:19.000Z</time>
      </trkpt>
      <trkpt lat="46.5782" lon="5.8748">
        <ele>1022.3955688477</ele>
        <time>2013-06-30T08:20:25.000Z</time>
      </trkpt>
      <trkpt lat="46.57832" lon="5.8748">
        <ele>1022.1484375</ele>
        <time>2013-06-30T08:21:03.000Z</time>
      </trkpt>
      <trkpt lat="46.57838" lon="5.8748">
        <ele>1022.0352172852</ele>
        <time>2013-06-30T08:21:09.000Z</time>
      </trkpt>
      <trkpt lat="46.57843" lon="5.87479">
        <ele>1021.924621582</ele>
        <time>2013-06-30T08:21:12.000Z</time>
      </trkpt>
      <trkpt lat="46.57853" lon="5.87479">
        <ele>1020.5733642578</ele>
        <time>2013-06-30T08:21:22.000Z</time>
      </trkpt>
      <trkpt lat="46.57857" lon="5.87474">
        <ele>1020.4621582031</ele>
        <time>2013-06-30T08:21:27.000Z</time>
      </trkpt>
      <trkpt lat="46.57861" lon="5.87469">
        <ele>1020.2790527344</ele>
        <time>2013-06-30T08:21:30.000Z</time>
      </trkpt>
      <trkpt lat="46.57864" lon="5.87463">
        <ele>1020.4783325195</ele>
        <time>2013-06-30T08:21:37.000Z</time>
      </trkpt>
      <trkpt lat="46.5787" lon="5.87459">
        <ele>1020.6254272461</ele>
        <time>2013-06-30T08:21:40.000Z</time>
      </trkpt>
      <trkpt lat="46.57877" lon="5.87451">
        <ele>1020.1616821289</ele>
        <time>2013-06-30T08:21:52.000Z</time>
      </trkpt>
      <trkpt lat="46.57883" lon="5.87445">
        <ele>1020.4478759766</ele>
        <time>2013-06-30T08:21:55.000Z</time>
      </trkpt>
      <trkpt lat="46.57887" lon="5.8744">
        <ele>1020.7708129883</ele>
        <time>2013-06-30T08:21:57.000Z</time>
      </trkpt>
      <trkpt lat="46.57892" lon="5.87435">
        <ele>1021.0373535156</ele>
        <time>2013-06-30T08:21:59.000Z</time>
      </trkpt>
      <trkpt lat="46.57896" lon="5.8743">
        <ele>1021.1640014648</ele>
        <time>2013-06-30T08:22:01.000Z</time>
      </trkpt>
      <trkpt lat="46.57901" lon="5.87423">
        <ele>1021.3329467773</ele>
        <time>2013-06-30T08:22:03.000Z</time>
      </trkpt>
      <trkpt lat="46.57905" lon="5.87416">
        <ele>1021.467956543</ele>
        <time>2013-06-30T08:22:05.000Z</time>
      </trkpt>
      <trkpt lat="46.57909" lon="5.87411">
        <ele>1021.5825805664</ele>
        <time>2013-06-30T08:22:07.000Z</time>
      </trkpt>
      <trkpt lat="46.57913" lon="5.87404">
        <ele>1021.7028808594</ele>
        <time>2013-06-30T08:22:09.000Z</time>
      </trkpt>
      <trkpt lat="46.57918" lon="5.87396">
        <ele>1021.8532714844</ele>
        <time>2013-06-30T08:22:11.000Z</time>
      </trkpt>
      <trkpt lat="46.57922" lon="5.8739">
        <ele>1021.9495849609</ele>
        <time>2013-06-30T08:22:13.000Z</time>
      </trkpt>
      <trkpt lat="46.57927" lon="5.87385">
        <ele>1022.1307373047</ele>
        <time>2013-06-30T08:22:15.000Z</time>
      </trkpt>
      <trkpt lat="46.5793" lon="5.87379">
        <ele>1022.375</ele>
        <time>2013-06-30T08:22:17.000Z</time>
      </trkpt>
      <trkpt lat="46.57933" lon="5.87372">
        <ele>1022.6517333984</ele>
        <time>2013-06-30T08:22:19.000Z</time>
      </trkpt>
      <trkpt lat="46.57936" lon="5.87364">
        <ele>1023.0452880859</ele>
        <time>2013-06-30T08:22:22.000Z</time>
      </trkpt>
      <trkpt lat="46.57939" lon="5.87358">
        <ele>1023.1450195312</ele>
        <time>2013-06-30T08:22:24.000Z</time>
      </trkpt>
      <trkpt lat="46.57941" lon="5.87352">
        <ele>1023.0645141602</ele>
        <time>2013-06-30T08:22:26.000Z</time>
      </trkpt>
      <trkpt lat="46.57944" lon="5.87345">
        <ele>1022.6268920898</ele>
        <time>2013-06-30T08:22:29.000Z</time>
      </trkpt>
      <trkpt lat="46.57943" lon="5.87338">
        <ele>1021.2609863281</ele>
        <time>2013-06-30T08:22:34.000Z</time>
      </trkpt>
      <trkpt lat="46.57947" lon="5.87334">
        <ele>1020.3361816406</ele>
        <time>2013-06-30T08:22:38.000Z</time>
      </trkpt>
      <trkpt lat="46.57956" lon="5.87332">
        <ele>1019.0999145508</ele>
        <time>2013-06-30T08:22:44.000Z</time>
      </trkpt>
      <trkpt lat="46.57961" lon="5.87331">
        <ele>1018.5591430664</ele>
        <time>2013-06-30T08:22:47.000Z</time>
      </trkpt>
      <trkpt lat="46.57965" lon="5.87329">
        <ele>1017.9183349609</ele>
        <time>2013-06-30T08:22:50.000Z</time>
      </trkpt>
      <trkpt lat="46.57971" lon="5.87327">
        <ele>1017.1622314453</ele>
        <time>2013-06-30T08:22:53.000Z</time>
      </trkpt>
      <trkpt lat="46.57976" lon="5.87325">
        <ele>1016.6768188477</ele>
        <time>2013-06-30T08:22:55.000Z</time>
      </trkpt>
      <trkpt lat="46.57983" lon="5.87324">
        <ele>1016.1234130859</ele>
        <time>2013-06-30T08:22:58.000Z</time>
      </trkpt>
      <trkpt lat="46.57988" lon="5.87324">
        <ele>1015.7308349609</ele>
        <time>2013-06-30T08:23:00.000Z</time>
      </trkpt>
      <trkpt lat="46.57995" lon="5.87326">
        <ele>1015.2951049805</ele>
        <time>2013-06-30T08:23:02.000Z</time>
      </trkpt>
      <trkpt lat="46.58004" lon="5.87329">
        <ele>1014.8790283203</ele>
        <time>2013-06-30T08:23:04.000Z</time>
      </trkpt>
      <trkpt lat="46.58013" lon="5.8733">
        <ele>1014.4626464844</ele>
        <time>2013-06-30T08:23:06.000Z</time>
      </trkpt>
      <trkpt lat="46.58021" lon="5.87331">
        <ele>1013.9887695312</ele>
        <time>2013-06-30T08:23:08.000Z</time>
      </trkpt>
      <trkpt lat="46.58027" lon="5.87334">
        <ele>1013.5932006836</ele>
        <time>2013-06-30T08:23:10.000Z</time>
      </trkpt>
      <trkpt lat="46.58034" lon="5.87338">
        <ele>1012.9906616211</ele>
        <time>2013-06-30T08:23:12.000Z</time>
      </trkpt>
      <trkpt lat="46.58039" lon="5.87341">
        <ele>1012.4960327148</ele>
        <time>2013-06-30T08:23:14.000Z</time>
      </trkpt>
      <trkpt lat="46.58045" lon="5.87343">
        <ele>1011.9360961914</ele>
        <time>2013-06-30T08:23:16.000Z</time>
      </trkpt>
      <trkpt lat="46.5805" lon="5.87347">
        <ele>1011.2019042969</ele>
        <time>2013-06-30T08:23:18.000Z</time>
      </trkpt>
      <trkpt lat="46.58056" lon="5.87352">
        <ele>1010.3352050781</ele>
        <time>2013-06-30T08:23:20.000Z</time>
      </trkpt>
      <trkpt lat="46.58063" lon="5.87357">
        <ele>1009.5039672852</ele>
        <time>2013-06-30T08:23:22.000Z</time>
      </trkpt>
      <trkpt lat="46.58071" lon="5.87362">
        <ele>1008.5808105469</ele>
        <time>2013-06-30T08:23:24.000Z</time>
      </trkpt>
      <trkpt lat="46.58078" lon="5.87366">
        <ele>1007.8142089844</ele>
        <time>2013-06-30T08:23:26.000Z</time>
      </trkpt>
      <trkpt lat="46.58084" lon="5.87369">
        <ele>1006.4339599609</ele>
        <time>2013-06-30T08:23:29.000Z</time>
      </trkpt>
      <trkpt lat="46.5809" lon="5.87372">
        <ele>1005.1385498047</ele>
        <time>2013-06-30T08:23:32.000Z</time>
      </trkpt>
      <trkpt lat="46.58096" lon="5.87373">
        <ele>1004.428894043</ele>
        <time>2013-06-30T08:23:34.000Z</time>
      </trkpt>
      <trkpt lat="46.58103" lon="5.87376">
        <ele>1003.7842407227</ele>
        <time>2013-06-30T08:23:36.000Z</time>
      </trkpt>
      <trkpt lat="46.58111" lon="5.87381">
        <ele>1002.9574584961</ele>
        <time>2013-06-30T08:23:38.000Z</time>
      </trkpt>
      <trkpt lat="46.58119" lon="5.87386">
        <ele>1002.1522216797</ele>
        <time>2013-06-30T08:23:40.000Z</time>
      </trkpt>
      <trkpt lat="46.58126" lon="5.87388">
        <ele>1001.0865478516</ele>
        <time>2013-06-30T08:23:43.000Z</time>
      </trkpt>
      <trkpt lat="46.58132" lon="5.87392">
        <ele>1000.3805541992</ele>
        <time>2013-06-30T08:23:45.000Z</time>
      </trkpt>
      <trkpt lat="46.58138" lon="5.87394">
        <ele>999.81158447266</ele>
        <time>2013-06-30T08:23:47.000Z</time>
      </trkpt>
      <trkpt lat="46.58149" lon="5.87399">
        <ele>999.05072021484</ele>
        <time>2013-06-30T08:23:49.000Z</time>
      </trkpt>
      <trkpt lat="46.58158" lon="5.87403">
        <ele>998.12890625</ele>
        <time>2013-06-30T08:23:51.000Z</time>
      </trkpt>
      <trkpt lat="46.58164" lon="5.87404">
        <ele>997.34741210938</ele>
        <time>2013-06-30T08:23:53.000Z</time>
      </trkpt>
      <trkpt lat="46.58169" lon="5.87409">
        <ele>996.29553222656</ele>
        <time>2013-06-30T08:23:56.000Z</time>
      </trkpt>
      <trkpt lat="46.58174" lon="5.87413">
        <ele>995.06500244141</ele>
        <time>2013-06-30T08:23:59.000Z</time>
      </trkpt>
      <trkpt lat="46.58178" lon="5.87417">
        <ele>994.34112548828</ele>
        <time>2013-06-30T08:24:01.000Z</time>
      </trkpt>
      <trkpt lat="46.58181" lon="5.87422">
        <ele>993.49932861328</ele>
        <time>2013-06-30T08:24:03.000Z</time>
      </trkpt>
      <trkpt lat="46.58185" lon="5.87426">
        <ele>992.48083496094</ele>
        <time>2013-06-30T08:24:05.000Z</time>
      </trkpt>
      <trkpt lat="46.58189" lon="5.87431">
        <ele>991.53173828125</ele>
        <time>2013-06-30T08:24:07.000Z</time>
      </trkpt>
      <trkpt lat="46.58192" lon="5.87438">
        <ele>990.42419433594</ele>
        <time>2013-06-30T08:24:09.000Z</time>
      </trkpt>
      <trkpt lat="46.58197" lon="5.87446">
        <ele>989.33990478516</ele>
        <time>2013-06-30T08:24:11.000Z</time>
      </trkpt>
      <trkpt lat="46.58201" lon="5.87453">
        <ele>988.44110107422</ele>
        <time>2013-06-30T08:24:13.000Z</time>
      </trkpt>
      <trkpt lat="46.58204" lon="5.87458">
        <ele>987.40649414062</ele>
        <time>2013-06-30T08:24:15.000Z</time>
      </trkpt>
      <trkpt lat="46.58208" lon="5.87467">
        <ele>985.8564453125</ele>
        <time>2013-06-30T08:24:18.000Z</time>
      </trkpt>
      <trkpt lat="46.58211" lon="5.87473">
        <ele>984.93365478516</ele>
        <time>2013-06-30T08:24:20.000Z</time>
      </trkpt>
      <trkpt lat="46.58214" lon="5.87478">
        <ele>984.08410644531</ele>
        <time>2013-06-30T08:24:22.000Z</time>
      </trkpt>
      <trkpt lat="46.58219" lon="5.87487">
        <ele>983.33276367188</ele>
        <time>2013-06-30T08:24:24.000Z</time>
      </trkpt>
      <trkpt lat="46.58226" lon="5.87499">
        <ele>982.35229492188</ele>
        <time>2013-06-30T08:24:26.000Z</time>
      </trkpt>
      <trkpt lat="46.58233" lon="5.87509">
        <ele>981.23828125</ele>
        <time>2013-06-30T08:24:28.000Z</time>
      </trkpt>
      <trkpt lat="46.58238" lon="5.87517">
        <ele>980.05151367188</ele>
        <time>2013-06-30T08:24:30.000Z</time>
      </trkpt>
      <trkpt lat="46.58242" lon="5.87522">
        <ele>978.9501953125</ele>
        <time>2013-06-30T08:24:32.000Z</time>
      </trkpt>
      <trkpt lat="46.58248" lon="5.87527">
        <ele>977.39636230469</ele>
        <time>2013-06-30T08:24:35.000Z</time>
      </trkpt>
      <trkpt lat="46.58253" lon="5.87532">
        <ele>976.42370605469</ele>
        <time>2013-06-30T08:24:37.000Z</time>
      </trkpt>
      <trkpt lat="46.58258" lon="5.87537">
        <ele>975.52581787109</ele>
        <time>2013-06-30T08:24:39.000Z</time>
      </trkpt>
      <trkpt lat="46.58264" lon="5.87541">
        <ele>974.32580566406</ele>
        <time>2013-06-30T08:24:42.000Z</time>
      </trkpt>
      <trkpt lat="46.58268" lon="5.87547">
        <ele>973.03466796875</ele>
        <time>2013-06-30T08:24:45.000Z</time>
      </trkpt>
      <trkpt lat="46.58273" lon="5.87551">
        <ele>971.86486816406</ele>
        <time>2013-06-30T08:24:48.000Z</time>
      </trkpt>
      <trkpt lat="46.58278" lon="5.87555">
        <ele>970.70697021484</ele>
        <time>2013-06-30T08:24:51.000Z</time>
      </trkpt>
      <trkpt lat="46.58283" lon="5.87557">
        <ele>969.94549560547</ele>
        <time>2013-06-30T08:24:53.000Z</time>
      </trkpt>
      <trkpt lat="46.58288" lon="5.87563">
        <ele>969.34039306641</ele>
        <time>2013-06-30T08:24:55.000Z</time>
      </trkpt>
      <trkpt lat="46.58293" lon="5.87569">
        <ele>968.57385253906</ele>
        <time>2013-06-30T08:24:57.000Z</time>
      </trkpt>
      <trkpt lat="46.58298" lon="5.87575">
        <ele>967.69201660156</ele>
        <time>2013-06-30T08:24:59.000Z</time>
      </trkpt>
      <trkpt lat="46.58304" lon="5.8758">
        <ele>966.79632568359</ele>
        <time>2013-06-30T08:25:01.000Z</time>
      </trkpt>
      <trkpt lat="46.58311" lon="5.87587">
        <ele>965.88745117188</ele>
        <time>2013-06-30T08:25:03.000Z</time>
      </trkpt>
      <trkpt lat="46.58317" lon="5.87592">
        <ele>964.89215087891</ele>
        <time>2013-06-30T08:25:05.000Z</time>
      </trkpt>
      <trkpt lat="46.58322" lon="5.87595">
        <ele>963.85125732422</ele>
        <time>2013-06-30T08:25:07.000Z</time>
      </trkpt>
      <trkpt lat="46.58327" lon="5.87598">
        <ele>962.94256591797</ele>
        <time>2013-06-30T08:25:09.000Z</time>
      </trkpt>
      <trkpt lat="46.58332" lon="5.87601">
        <ele>962.10205078125</ele>
        <time>2013-06-30T08:25:11.000Z</time>
      </trkpt>
      <trkpt lat="46.58338" lon="5.87606">
        <ele>960.80773925781</ele>
        <time>2013-06-30T08:25:14.000Z</time>
      </trkpt>
      <trkpt lat="46.58345" lon="5.8761">
        <ele>959.91748046875</ele>
        <time>2013-06-30T08:25:16.000Z</time>
      </trkpt>
      <trkpt lat="46.58352" lon="5.87616">
        <ele>958.93121337891</ele>
        <time>2013-06-30T08:25:18.000Z</time>
      </trkpt>
      <trkpt lat="46.5836" lon="5.87622">
        <ele>957.86474609375</ele>
        <time>2013-06-30T08:25:20.000Z</time>
      </trkpt>
      <trkpt lat="46.58367" lon="5.87626">
        <ele>956.65222167969</ele>
        <time>2013-06-30T08:25:22.000Z</time>
      </trkpt>
      <trkpt lat="46.58372" lon="5.87627">
        <ele>955.46887207031</ele>
        <time>2013-06-30T08:25:24.000Z</time>
      </trkpt>
      <trkpt lat="46.58378" lon="5.87629">
        <ele>954.39398193359</ele>
        <time>2013-06-30T08:25:26.000Z</time>
      </trkpt>
      <trkpt lat="46.58384" lon="5.8763">
        <ele>953.29748535156</ele>
        <time>2013-06-30T08:25:28.000Z</time>
      </trkpt>
      <trkpt lat="46.58393" lon="5.87631">
        <ele>946.65832519531</ele>
        <time>2013-06-30T08:25:30.000Z</time>
      </trkpt>
      <trkpt lat="46.58401" lon="5.87632">
        <ele>945.60174560547</ele>
        <time>2013-06-30T08:25:32.000Z</time>
      </trkpt>
      <trkpt lat="46.58408" lon="5.87632">
        <ele>944.55114746094</ele>
        <time>2013-06-30T08:25:34.000Z</time>
      </trkpt>
      <trkpt lat="46.58415" lon="5.87632">
        <ele>943.064453125</ele>
        <time>2013-06-30T08:25:37.000Z</time>
      </trkpt>
      <trkpt lat="46.58421" lon="5.87632">
        <ele>942.20166015625</ele>
        <time>2013-06-30T08:25:39.000Z</time>
      </trkpt>
      <trkpt lat="46.58426" lon="5.87632">
        <ele>941.50421142578</ele>
        <time>2013-06-30T08:25:41.000Z</time>
      </trkpt>
      <trkpt lat="46.58431" lon="5.87632">
        <ele>940.78057861328</ele>
        <time>2013-06-30T08:25:43.000Z</time>
      </trkpt>
      <trkpt lat="46.58436" lon="5.87634">
        <ele>939.88714599609</ele>
        <time>2013-06-30T08:25:45.000Z</time>
      </trkpt>
      <trkpt lat="46.58443" lon="5.87637">
        <ele>938.79205322266</ele>
        <time>2013-06-30T08:25:47.000Z</time>
      </trkpt>
      <trkpt lat="46.58449" lon="5.87639">
        <ele>937.78680419922</ele>
        <time>2013-06-30T08:25:49.000Z</time>
      </trkpt>
      <trkpt lat="46.58456" lon="5.87641">
        <ele>936.66986083984</ele>
        <time>2013-06-30T08:25:51.000Z</time>
      </trkpt>
      <trkpt lat="46.58465" lon="5.87642">
        <ele>935.70196533203</ele>
        <time>2013-06-30T08:25:53.000Z</time>
      </trkpt>
      <trkpt lat="46.58472" lon="5.87642">
        <ele>934.72900390625</ele>
        <time>2013-06-30T08:25:55.000Z</time>
      </trkpt>
      <trkpt lat="46.58478" lon="5.87641">
        <ele>933.87896728516</ele>
        <time>2013-06-30T08:25:57.000Z</time>
      </trkpt>
      <trkpt lat="46.58486" lon="5.87642">
        <ele>933.10437011719</ele>
        <time>2013-06-30T08:25:59.000Z</time>
      </trkpt>
      <trkpt lat="46.58491" lon="5.87642">
        <ele>932.12280273438</ele>
        <time>2013-06-30T08:26:01.000Z</time>
      </trkpt>
      <trkpt lat="46.58497" lon="5.87641">
        <ele>931.09844970703</ele>
        <time>2013-06-30T08:26:03.000Z</time>
      </trkpt>
      <trkpt lat="46.58505" lon="5.87641">
        <ele>930.02386474609</ele>
        <time>2013-06-30T08:26:05.000Z</time>
      </trkpt>
      <trkpt lat="46.58512" lon="5.8764">
        <ele>928.84857177734</ele>
        <time>2013-06-30T08:26:07.000Z</time>
      </trkpt>
      <trkpt lat="46.58519" lon="5.87642">
        <ele>927.42321777344</ele>
        <time>2013-06-30T08:26:09.000Z</time>
      </trkpt>
      <trkpt lat="46.58527" lon="5.87643">
        <ele>925.90161132812</ele>
        <time>2013-06-30T08:26:11.000Z</time>
      </trkpt>
      <trkpt lat="46.58538" lon="5.87646">
        <ele>924.42340087891</ele>
        <time>2013-06-30T08:26:13.000Z</time>
      </trkpt>
      <trkpt lat="46.58547" lon="5.8765">
        <ele>923.01635742188</ele>
        <time>2013-06-30T08:26:15.000Z</time>
      </trkpt>
      <trkpt lat="46.5856" lon="5.87654">
        <ele>921.56512451172</ele>
        <time>2013-06-30T08:26:17.000Z</time>
      </trkpt>
      <trkpt lat="46.58571" lon="5.87653">
        <ele>920.18414306641</ele>
        <time>2013-06-30T08:26:19.000Z</time>
      </trkpt>
      <trkpt lat="46.5858" lon="5.87652">
        <ele>918.88922119141</ele>
        <time>2013-06-30T08:26:21.000Z</time>
      </trkpt>
      <trkpt lat="46.58585" lon="5.87653">
        <ele>917.61346435547</ele>
        <time>2013-06-30T08:26:23.000Z</time>
      </trkpt>
      <trkpt lat="46.58591" lon="5.87653">
        <ele>915.98297119141</ele>
        <time>2013-06-30T08:26:26.000Z</time>
      </trkpt>
      <trkpt lat="46.58597" lon="5.87651">
        <ele>913.99365234375</ele>
        <time>2013-06-30T08:26:30.000Z</time>
      </trkpt>
      <trkpt lat="46.58602" lon="5.8765">
        <ele>912.10607910156</ele>
        <time>2013-06-30T08:26:34.000Z</time>
      </trkpt>
      <trkpt lat="46.58601" lon="5.87647">
        <ele>907.51593017578</ele>
        <time>2013-06-30T08:26:42.000Z</time>
      </trkpt>
      <trkpt lat="46.58596" lon="5.87642">
        <ele>905.12286376953</ele>
        <time>2013-06-30T08:26:46.000Z</time>
      </trkpt>
      <trkpt lat="46.58595" lon="5.87637">
        <ele>903.66735839844</ele>
        <time>2013-06-30T08:26:49.000Z</time>
      </trkpt>
      <trkpt lat="46.58592" lon="5.87629">
        <ele>902.50183105469</ele>
        <time>2013-06-30T08:26:52.000Z</time>
      </trkpt>
      <trkpt lat="46.58589" lon="5.87621">
        <ele>901.70861816406</ele>
        <time>2013-06-30T08:26:54.000Z</time>
      </trkpt>
      <trkpt lat="46.58584" lon="5.87613">
        <ele>900.78741455078</ele>
        <time>2013-06-30T08:26:56.000Z</time>
      </trkpt>
      <trkpt lat="46.5858" lon="5.87606">
        <ele>899.90466308594</ele>
        <time>2013-06-30T08:26:58.000Z</time>
      </trkpt>
      <trkpt lat="46.58574" lon="5.87596">
        <ele>898.92431640625</ele>
        <time>2013-06-30T08:27:00.000Z</time>
      </trkpt>
      <trkpt lat="46.58567" lon="5.87589">
        <ele>897.91003417969</ele>
        <time>2013-06-30T08:27:02.000Z</time>
      </trkpt>
      <trkpt lat="46.58561" lon="5.87585">
        <ele>896.91162109375</ele>
        <time>2013-06-30T08:27:04.000Z</time>
      </trkpt>
      <trkpt lat="46.58556" lon="5.87585">
        <ele>896.16314697266</ele>
        <time>2013-06-30T08:27:09.000Z</time>
      </trkpt>
      <trkpt lat="46.58552" lon="5.87589">
        <ele>893.78894042969</ele>
        <time>2013-06-30T08:27:20.000Z</time>
      </trkpt>
      <trkpt lat="46.58551" lon="5.87596">
        <ele>892.96270751953</ele>
        <time>2013-06-30T08:27:33.000Z</time>
      </trkpt>
      <trkpt lat="46.58547" lon="5.87591">
        <ele>888.40411376953</ele>
        <time>2013-06-30T08:28:09.000Z</time>
      </trkpt>
      <trkpt lat="46.58544" lon="5.87586">
        <ele>887.84326171875</ele>
        <time>2013-06-30T08:28:30.000Z</time>
      </trkpt>
      <trkpt lat="46.58544" lon="5.87578">
        <ele>887.43597412109</ele>
        <time>2013-06-30T08:28:46.000Z</time>
      </trkpt>
      <trkpt lat="46.58544" lon="5.87571">
        <ele>887.41314697266</ele>
        <time>2013-06-30T08:28:49.000Z</time>
      </trkpt>
      <trkpt lat="46.5854" lon="5.87575">
        <ele>887.35247802734</ele>
        <time>2013-06-30T08:29:02.000Z</time>
      </trkpt>
      <trkpt lat="46.58536" lon="5.87575">
        <ele>887.44262695312</ele>
        <time>2013-06-30T08:29:16.000Z</time>
      </trkpt>
      <trkpt lat="46.58539" lon="5.8758">
        <ele>887.8056640625</ele>
        <time>2013-06-30T08:29:40.000Z</time>
      </trkpt>
      <trkpt lat="46.58543" lon="5.87584">
        <ele>887.71966552734</ele>
        <time>2013-06-30T08:29:44.000Z</time>
      </trkpt>
      <trkpt lat="46.58547" lon="5.87584">
        <ele>887.3232421875</ele>
        <time>2013-06-30T08:30:05.000Z</time>
      </trkpt>
      <trkpt lat="46.58552" lon="5.87585">
        <ele>885.82751464844</ele>
        <time>2013-06-30T08:30:55.000Z</time>
      </trkpt>
      <trkpt lat="46.58558" lon="5.87584">
        <ele>884.80358886719</ele>
        <time>2013-06-30T08:30:58.000Z</time>
      </trkpt>
      <trkpt lat="46.58564" lon="5.87583">
        <ele>883.95867919922</ele>
        <time>2013-06-30T08:31:01.000Z</time>
      </trkpt>
      <trkpt lat="46.58569" lon="5.87579">
        <ele>883.33197021484</ele>
        <time>2013-06-30T08:31:03.000Z</time>
      </trkpt>
      <trkpt lat="46.58577" lon="5.87575">
        <ele>882.65649414062</ele>
        <time>2013-06-30T08:31:05.000Z</time>
      </trkpt>
      <trkpt lat="46.58584" lon="5.87571">
        <ele>882.16564941406</ele>
        <time>2013-06-30T08:31:07.000Z</time>
      </trkpt>
      <trkpt lat="46.58589" lon="5.8757">
        <ele>881.67559814453</ele>
        <time>2013-06-30T08:31:09.000Z</time>
      </trkpt>
      <trkpt lat="46.58595" lon="5.87571">
        <ele>880.81182861328</ele>
        <time>2013-06-30T08:31:12.000Z</time>
      </trkpt>
      <trkpt lat="46.586" lon="5.87571">
        <ele>879.87908935547</ele>
        <time>2013-06-30T08:31:15.000Z</time>
      </trkpt>
      <trkpt lat="46.58605" lon="5.8757">
        <ele>879.69256591797</ele>
        <time>2013-06-30T08:31:21.000Z</time>
      </trkpt>
      <trkpt lat="46.58609" lon="5.87567">
        <ele>878.88519287109</ele>
        <time>2013-06-30T08:31:41.000Z</time>
      </trkpt>
      <trkpt lat="46.5861" lon="5.8756">
        <ele>878.32104492188</ele>
        <time>2013-06-30T08:31:47.000Z</time>
      </trkpt>
      <trkpt lat="46.58606" lon="5.87557">
        <ele>877.71533203125</ele>
        <time>2013-06-30T08:31:54.000Z</time>
      </trkpt>
      <trkpt lat="46.586" lon="5.87557">
        <ele>877.08453369141</ele>
        <time>2013-06-30T08:31:57.000Z</time>
      </trkpt>
      <trkpt lat="46.58595" lon="5.87557">
        <ele>876.63470458984</ele>
        <time>2013-06-30T08:31:59.000Z</time>
      </trkpt>
      <trkpt lat="46.5859" lon="5.87557">
        <ele>875.41247558594</ele>
        <time>2013-06-30T08:32:06.000Z</time>
      </trkpt>
      <trkpt lat="46.58585" lon="5.87553">
        <ele>874.43115234375</ele>
        <time>2013-06-30T08:32:13.000Z</time>
      </trkpt>
      <trkpt lat="46.58583" lon="5.8756">
        <ele>872.14416503906</ele>
        <time>2013-06-30T08:32:23.000Z</time>
      </trkpt>
      <trkpt lat="46.58576" lon="5.87562">
        <ele>869.54895019531</ele>
        <time>2013-06-30T08:32:29.000Z</time>
      </trkpt>
      <trkpt lat="46.5857" lon="5.87562">
        <ele>868.85504150391</ele>
        <time>2013-06-30T08:32:31.000Z</time>
      </trkpt>
      <trkpt lat="46.58564" lon="5.87558">
        <ele>868.07336425781</ele>
        <time>2013-06-30T08:32:34.000Z</time>
      </trkpt>
      <trkpt lat="46.5856" lon="5.87551">
        <ele>867.64849853516</ele>
        <time>2013-06-30T08:32:36.000Z</time>
      </trkpt>
      <trkpt lat="46.58559" lon="5.87544">
        <ele>867.17761230469</ele>
        <time>2013-06-30T08:32:38.000Z</time>
      </trkpt>
      <trkpt lat="46.58562" lon="5.87538">
        <ele>865.28161621094</ele>
        <time>2013-06-30T08:32:44.000Z</time>
      </trkpt>
      <trkpt lat="46.58568" lon="5.87539">
        <ele>863.59344482422</ele>
        <time>2013-06-30T08:32:48.000Z</time>
      </trkpt>
      <trkpt lat="46.58573" lon="5.8754">
        <ele>862.82934570312</ele>
        <time>2013-06-30T08:32:50.000Z</time>
      </trkpt>
      <trkpt lat="46.58578" lon="5.8754">
        <ele>861.96124267578</ele>
        <time>2013-06-30T08:32:53.000Z</time>
      </trkpt>
      <trkpt lat="46.58584" lon="5.87541">
        <ele>861.13092041016</ele>
        <time>2013-06-30T08:32:56.000Z</time>
      </trkpt>
      <trkpt lat="46.58589" lon="5.87541">
        <ele>860.6025390625</ele>
        <time>2013-06-30T08:32:58.000Z</time>
      </trkpt>
      <trkpt lat="46.58594" lon="5.8754">
        <ele>860.29150390625</ele>
        <time>2013-06-30T08:33:00.000Z</time>
      </trkpt>
      <trkpt lat="46.58598" lon="5.87541">
        <ele>860.00146484375</ele>
        <time>2013-06-30T08:33:02.000Z</time>
      </trkpt>
      <trkpt lat="46.58603" lon="5.87543">
        <ele>859.66802978516</ele>
        <time>2013-06-30T08:33:04.000Z</time>
      </trkpt>
      <trkpt lat="46.58609" lon="5.87545">
        <ele>859.22479248047</ele>
        <time>2013-06-30T08:33:06.000Z</time>
      </trkpt>
      <trkpt lat="46.58614" lon="5.87546">
        <ele>858.59680175781</ele>
        <time>2013-06-30T08:33:09.000Z</time>
      </trkpt>
      <trkpt lat="46.5862" lon="5.8755">
        <ele>857.88702392578</ele>
        <time>2013-06-30T08:33:12.000Z</time>
      </trkpt>
      <trkpt lat="46.58624" lon="5.87552">
        <ele>857.41754150391</ele>
        <time>2013-06-30T08:33:14.000Z</time>
      </trkpt>
      <trkpt lat="46.58629" lon="5.87555">
        <ele>856.90734863281</ele>
        <time>2013-06-30T08:33:16.000Z</time>
      </trkpt>
      <trkpt lat="46.58633" lon="5.8756">
        <ele>856.45861816406</ele>
        <time>2013-06-30T08:33:18.000Z</time>
      </trkpt>
      <trkpt lat="46.58638" lon="5.87565">
        <ele>855.99700927734</ele>
        <time>2013-06-30T08:33:20.000Z</time>
      </trkpt>
      <trkpt lat="46.58644" lon="5.8757">
        <ele>855.43603515625</ele>
        <time>2013-06-30T08:33:23.000Z</time>
      </trkpt>
      <trkpt lat="46.58649" lon="5.87573">
        <ele>855.15826416016</ele>
        <time>2013-06-30T08:33:26.000Z</time>
      </trkpt>
      <trkpt lat="46.58656" lon="5.87577">
        <ele>855.00433349609</ele>
        <time>2013-06-30T08:33:28.000Z</time>
      </trkpt>
      <trkpt lat="46.58664" lon="5.87583">
        <ele>854.8271484375</ele>
        <time>2013-06-30T08:33:30.000Z</time>
      </trkpt>
      <trkpt lat="46.58671" lon="5.87586">
        <ele>854.61224365234</ele>
        <time>2013-06-30T08:33:32.000Z</time>
      </trkpt>
      <trkpt lat="46.58677" lon="5.87589">
        <ele>854.33386230469</ele>
        <time>2013-06-30T08:33:34.000Z</time>
      </trkpt>
      <trkpt lat="46.58681" lon="5.87591">
        <ele>854.21539306641</ele>
        <time>2013-06-30T08:33:36.000Z</time>
      </trkpt>
      <trkpt lat="46.58685" lon="5.87595">
        <ele>854.20001220703</ele>
        <time>2013-06-30T08:33:38.000Z</time>
      </trkpt>
      <trkpt lat="46.58691" lon="5.87599">
        <ele>854.15179443359</ele>
        <time>2013-06-30T08:33:40.000Z</time>
      </trkpt>
      <trkpt lat="46.587" lon="5.87604">
        <ele>853.31842041016</ele>
        <time>2013-06-30T08:33:42.000Z</time>
      </trkpt>
      <trkpt lat="46.58705" lon="5.87607">
        <ele>853.32788085938</ele>
        <time>2013-06-30T08:33:44.000Z</time>
      </trkpt>
      <trkpt lat="46.58712" lon="5.8761">
        <ele>853.14978027344</ele>
        <time>2013-06-30T08:33:46.000Z</time>
      </trkpt>
      <trkpt lat="46.58718" lon="5.87612">
        <ele>852.78729248047</ele>
        <time>2013-06-30T08:33:48.000Z</time>
      </trkpt>
      <trkpt lat="46.58725" lon="5.87612">
        <ele>852.52514648438</ele>
        <time>2013-06-30T08:33:50.000Z</time>
      </trkpt>
      <trkpt lat="46.58733" lon="5.87615">
        <ele>852.32421875</ele>
        <time>2013-06-30T08:33:52.000Z</time>
      </trkpt>
      <trkpt lat="46.58739" lon="5.87616">
        <ele>852.31274414062</ele>
        <time>2013-06-30T08:33:54.000Z</time>
      </trkpt>
      <trkpt lat="46.58744" lon="5.87619">
        <ele>852.35626220703</ele>
        <time>2013-06-30T08:33:56.000Z</time>
      </trkpt>
      <trkpt lat="46.58751" lon="5.87623">
        <ele>852.28399658203</ele>
        <time>2013-06-30T08:33:58.000Z</time>
      </trkpt>
      <trkpt lat="46.58758" lon="5.87626">
        <ele>852.23211669922</ele>
        <time>2013-06-30T08:34:00.000Z</time>
      </trkpt>
      <trkpt lat="46.58764" lon="5.87629">
        <ele>852.22393798828</ele>
        <time>2013-06-30T08:34:02.000Z</time>
      </trkpt>
      <trkpt lat="46.58771" lon="5.87631">
        <ele>852.17877197266</ele>
        <time>2013-06-30T08:34:04.000Z</time>
      </trkpt>
      <trkpt lat="46.58776" lon="5.87631">
        <ele>852.20892333984</ele>
        <time>2013-06-30T08:34:06.000Z</time>
      </trkpt>
      <trkpt lat="46.58785" lon="5.87632">
        <ele>852.34771728516</ele>
        <time>2013-06-30T08:34:08.000Z</time>
      </trkpt>
      <trkpt lat="46.58792" lon="5.87631">
        <ele>852.38708496094</ele>
        <time>2013-06-30T08:34:10.000Z</time>
      </trkpt>
      <trkpt lat="46.58799" lon="5.87629">
        <ele>852.30865478516</ele>
        <time>2013-06-30T08:34:12.000Z</time>
      </trkpt>
      <trkpt lat="46.58805" lon="5.87624">
        <ele>852.30017089844</ele>
        <time>2013-06-30T08:34:15.000Z</time>
      </trkpt>
      <trkpt lat="46.58813" lon="5.87621">
        <ele>852.19854736328</ele>
        <time>2013-06-30T08:34:17.000Z</time>
      </trkpt>
      <trkpt lat="46.58819" lon="5.87618">
        <ele>851.92535400391</ele>
        <time>2013-06-30T08:34:19.000Z</time>
      </trkpt>
      <trkpt lat="46.58823" lon="5.87616">
        <ele>851.76177978516</ele>
        <time>2013-06-30T08:34:21.000Z</time>
      </trkpt>
      <trkpt lat="46.58831" lon="5.87612">
        <ele>851.78216552734</ele>
        <time>2013-06-30T08:34:23.000Z</time>
      </trkpt>
      <trkpt lat="46.58845" lon="5.87608">
        <ele>852.08050537109</ele>
        <time>2013-06-30T08:34:25.000Z</time>
      </trkpt>
      <trkpt lat="46.58857" lon="5.87605">
        <ele>852.19970703125</ele>
        <time>2013-06-30T08:34:27.000Z</time>
      </trkpt>
      <trkpt lat="46.58867" lon="5.87604">
        <ele>852.33099365234</ele>
        <time>2013-06-30T08:34:29.000Z</time>
      </trkpt>
      <trkpt lat="46.58875" lon="5.87603">
        <ele>852.37365722656</ele>
        <time>2013-06-30T08:34:31.000Z</time>
      </trkpt>
      <trkpt lat="46.5888" lon="5.87602">
        <ele>852.37915039062</ele>
        <time>2013-06-30T08:34:33.000Z</time>
      </trkpt>
      <trkpt lat="46.58887" lon="5.87601">
        <ele>852.51092529297</ele>
        <time>2013-06-30T08:34:35.000Z</time>
      </trkpt>
      <trkpt lat="46.58894" lon="5.87601">
        <ele>852.61145019531</ele>
        <time>2013-06-30T08:34:37.000Z</time>
      </trkpt>
      <trkpt lat="46.58899" lon="5.87601">
        <ele>852.52392578125</ele>
        <time>2013-06-30T08:34:39.000Z</time>
      </trkpt>
      <trkpt lat="46.58903" lon="5.87603">
        <ele>852.52960205078</ele>
        <time>2013-06-30T08:34:41.000Z</time>
      </trkpt>
      <trkpt lat="46.5891" lon="5.87609">
        <ele>852.67877197266</ele>
        <time>2013-06-30T08:34:43.000Z</time>
      </trkpt>
      <trkpt lat="46.58916" lon="5.87614">
        <ele>852.72094726562</ele>
        <time>2013-06-30T08:34:45.000Z</time>
      </trkpt>
      <trkpt lat="46.58921" lon="5.87616">
        <ele>852.79168701172</ele>
        <time>2013-06-30T08:34:49.000Z</time>
      </trkpt>
      <trkpt lat="46.58928" lon="5.87619">
        <ele>853.09692382812</ele>
        <time>2013-06-30T08:34:52.000Z</time>
      </trkpt>
      <trkpt lat="46.58933" lon="5.87621">
        <ele>853.09448242188</ele>
        <time>2013-06-30T08:34:54.000Z</time>
      </trkpt>
      <trkpt lat="46.58941" lon="5.87624">
        <ele>853.17272949219</ele>
        <time>2013-06-30T08:34:56.000Z</time>
      </trkpt>
      <trkpt lat="46.58949" lon="5.87627">
        <ele>853.12805175781</ele>
        <time>2013-06-30T08:34:58.000Z</time>
      </trkpt>
      <trkpt lat="46.58955" lon="5.87629">
        <ele>853.04357910156</ele>
        <time>2013-06-30T08:35:00.000Z</time>
      </trkpt>
      <trkpt lat="46.58962" lon="5.87631">
        <ele>853.21893310547</ele>
        <time>2013-06-30T08:35:02.000Z</time>
      </trkpt>
      <trkpt lat="46.58968" lon="5.87634">
        <ele>853.48168945312</ele>
        <time>2013-06-30T08:35:04.000Z</time>
      </trkpt>
      <trkpt lat="46.58975" lon="5.87637">
        <ele>853.70294189453</ele>
        <time>2013-06-30T08:35:06.000Z</time>
      </trkpt>
      <trkpt lat="46.58984" lon="5.87639">
        <ele>853.81665039062</ele>
        <time>2013-06-30T08:35:08.000Z</time>
      </trkpt>
      <trkpt lat="46.58992" lon="5.87641">
        <ele>853.80096435547</ele>
        <time>2013-06-30T08:35:10.000Z</time>
      </trkpt>
      <trkpt lat="46.58999" lon="5.87642">
        <ele>853.91357421875</ele>
        <time>2013-06-30T08:35:13.000Z</time>
      </trkpt>
      <trkpt lat="46.59005" lon="5.87643">
        <ele>854.03826904297</ele>
        <time>2013-06-30T08:35:15.000Z</time>
      </trkpt>
      <trkpt lat="46.5901" lon="5.87644">
        <ele>854.15698242188</ele>
        <time>2013-06-30T08:35:17.000Z</time>
      </trkpt>
      <trkpt lat="46.59015" lon="5.87647">
        <ele>854.326171875</ele>
        <time>2013-06-30T08:35:19.000Z</time>
      </trkpt>
      <trkpt lat="46.59022" lon="5.87651">
        <ele>854.45916748047</ele>
        <time>2013-06-30T08:35:21.000Z</time>
      </trkpt>
      <trkpt lat="46.59031" lon="5.87656">
        <ele>854.45666503906</ele>
        <time>2013-06-30T08:35:23.000Z</time>
      </trkpt>
      <trkpt lat="46.59039" lon="5.87662">
        <ele>854.47326660156</ele>
        <time>2013-06-30T08:35:25.000Z</time>
      </trkpt>
      <trkpt lat="46.59046" lon="5.87668">
        <ele>854.46771240234</ele>
        <time>2013-06-30T08:35:27.000Z</time>
      </trkpt>
      <trkpt lat="46.59052" lon="5.87671">
        <ele>854.494140625</ele>
        <time>2013-06-30T08:35:29.000Z</time>
      </trkpt>
      <trkpt lat="46.59057" lon="5.87674">
        <ele>854.47381591797</ele>
        <time>2013-06-30T08:35:31.000Z</time>
      </trkpt>
      <trkpt lat="46.59063" lon="5.87679">
        <ele>854.35974121094</ele>
        <time>2013-06-30T08:35:33.000Z</time>
      </trkpt>
      <trkpt lat="46.59071" lon="5.87683">
        <ele>854.14575195312</ele>
        <time>2013-06-30T08:35:35.000Z</time>
      </trkpt>
      <trkpt lat="46.59078" lon="5.87686">
        <ele>853.8876953125</ele>
        <time>2013-06-30T08:35:37.000Z</time>
      </trkpt>
      <trkpt lat="46.59084" lon="5.87686">
        <ele>853.62634277344</ele>
        <time>2013-06-30T08:35:39.000Z</time>
      </trkpt>
      <trkpt lat="46.59091" lon="5.87685">
        <ele>853.32873535156</ele>
        <time>2013-06-30T08:35:41.000Z</time>
      </trkpt>
      <trkpt lat="46.59099" lon="5.87683">
        <ele>853.09893798828</ele>
        <time>2013-06-30T08:35:43.000Z</time>
      </trkpt>
      <trkpt lat="46.59106" lon="5.8768">
        <ele>852.98120117188</ele>
        <time>2013-06-30T08:35:45.000Z</time>
      </trkpt>
      <trkpt lat="46.59117" lon="5.87669">
        <ele>853.14434814453</ele>
        <time>2013-06-30T08:35:47.000Z</time>
      </trkpt>
      <trkpt lat="46.59127" lon="5.87656">
        <ele>853.55786132812</ele>
        <time>2013-06-30T08:35:49.000Z</time>
      </trkpt>
      <trkpt lat="46.59133" lon="5.87648">
        <ele>853.62664794922</ele>
        <time>2013-06-30T08:35:51.000Z</time>
      </trkpt>
      <trkpt lat="46.59139" lon="5.87638">
        <ele>853.74591064453</ele>
        <time>2013-06-30T08:35:53.000Z</time>
      </trkpt>
      <trkpt lat="46.59144" lon="5.87631">
        <ele>853.76098632812</ele>
        <time>2013-06-30T08:35:55.000Z</time>
      </trkpt>
      <trkpt lat="46.5915" lon="5.87621">
        <ele>853.76690673828</ele>
        <time>2013-06-30T08:35:57.000Z</time>
      </trkpt>
      <trkpt lat="46.59157" lon="5.87611">
        <ele>853.919921875</ele>
        <time>2013-06-30T08:35:59.000Z</time>
      </trkpt>
      <trkpt lat="46.59163" lon="5.87606">
        <ele>854.07244873047</ele>
        <time>2013-06-30T08:36:01.000Z</time>
      </trkpt>
      <trkpt lat="46.5917" lon="5.87601">
        <ele>854.20233154297</ele>
        <time>2013-06-30T08:36:03.000Z</time>
      </trkpt>
      <trkpt lat="46.59177" lon="5.87597">
        <ele>854.25256347656</ele>
        <time>2013-06-30T08:36:05.000Z</time>
      </trkpt>
      <trkpt lat="46.59186" lon="5.87592">
        <ele>854.35504150391</ele>
        <time>2013-06-30T08:36:07.000Z</time>
      </trkpt>
      <trkpt lat="46.59193" lon="5.87588">
        <ele>854.86145019531</ele>
        <time>2013-06-30T08:36:09.000Z</time>
      </trkpt>
      <trkpt lat="46.59202" lon="5.87585">
        <ele>855.02032470703</ele>
        <time>2013-06-30T08:36:11.000Z</time>
      </trkpt>
      <trkpt lat="46.59212" lon="5.87583">
        <ele>854.67315673828</ele>
        <time>2013-06-30T08:36:13.000Z</time>
      </trkpt>
      <trkpt lat="46.59221" lon="5.8758">
        <ele>854.03601074219</ele>
        <time>2013-06-30T08:36:15.000Z</time>
      </trkpt>
      <trkpt lat="46.59229" lon="5.87577">
        <ele>853.44110107422</ele>
        <time>2013-06-30T08:36:17.000Z</time>
      </trkpt>
      <trkpt lat="46.59235" lon="5.87574">
        <ele>853.41723632812</ele>
        <time>2013-06-30T08:36:19.000Z</time>
      </trkpt>
      <trkpt lat="46.59244" lon="5.87566">
        <ele>853.79614257812</ele>
        <time>2013-06-30T08:36:21.000Z</time>
      </trkpt>
      <trkpt lat="46.59251" lon="5.87557">
        <ele>854.15618896484</ele>
        <time>2013-06-30T08:36:23.000Z</time>
      </trkpt>
      <trkpt lat="46.59257" lon="5.87547">
        <ele>853.74359130859</ele>
        <time>2013-06-30T08:36:25.000Z</time>
      </trkpt>
      <trkpt lat="46.59265" lon="5.87535">
        <ele>853.89123535156</ele>
        <time>2013-06-30T08:36:27.000Z</time>
      </trkpt>
      <trkpt lat="46.59272" lon="5.87524">
        <ele>854.16754150391</ele>
        <time>2013-06-30T08:36:29.000Z</time>
      </trkpt>
      <trkpt lat="46.5928" lon="5.87514">
        <ele>854.57135009766</ele>
        <time>2013-06-30T08:36:31.000Z</time>
      </trkpt>
      <trkpt lat="46.59289" lon="5.87505">
        <ele>854.82574462891</ele>
        <time>2013-06-30T08:36:33.000Z</time>
      </trkpt>
      <trkpt lat="46.59299" lon="5.87498">
        <ele>855.11779785156</ele>
        <time>2013-06-30T08:36:35.000Z</time>
      </trkpt>
      <trkpt lat="46.59308" lon="5.87493">
        <ele>855.08361816406</ele>
        <time>2013-06-30T08:36:37.000Z</time>
      </trkpt>
      <trkpt lat="46.5932" lon="5.87488">
        <ele>855.06390380859</ele>
        <time>2013-06-30T08:36:39.000Z</time>
      </trkpt>
      <trkpt lat="46.59332" lon="5.87482">
        <ele>854.85778808594</ele>
        <time>2013-06-30T08:36:41.000Z</time>
      </trkpt>
      <trkpt lat="46.59346" lon="5.87476">
        <ele>853.33410644531</ele>
        <time>2013-06-30T08:36:43.000Z</time>
      </trkpt>
      <trkpt lat="46.59359" lon="5.8747">
        <ele>852.74780273438</ele>
        <time>2013-06-30T08:36:45.000Z</time>
      </trkpt>
      <trkpt lat="46.59372" lon="5.87463">
        <ele>852.31451416016</ele>
        <time>2013-06-30T08:36:47.000Z</time>
      </trkpt>
      <trkpt lat="46.59387" lon="5.87454">
        <ele>850.77984619141</ele>
        <time>2013-06-30T08:36:49.000Z</time>
      </trkpt>
      <trkpt lat="46.59403" lon="5.87443">
        <ele>850.88458251953</ele>
        <time>2013-06-30T08:36:51.000Z</time>
      </trkpt>
      <trkpt lat="46.59417" lon="5.87425">
        <ele>850.87145996094</ele>
        <time>2013-06-30T08:36:53.000Z</time>
      </trkpt>
      <trkpt lat="46.59428" lon="5.87404">
        <ele>851.07202148438</ele>
        <time>2013-06-30T08:36:55.000Z</time>
      </trkpt>
      <trkpt lat="46.59433" lon="5.87387">
        <ele>850.87194824219</ele>
        <time>2013-06-30T08:36:57.000Z</time>
      </trkpt>
      <trkpt lat="46.59437" lon="5.87377">
        <ele>850.50451660156</ele>
        <time>2013-06-30T08:36:59.000Z</time>
      </trkpt>
      <trkpt lat="46.59443" lon="5.87373">
        <ele>850.09173583984</ele>
        <time>2013-06-30T08:37:01.000Z</time>
      </trkpt>
      <trkpt lat="46.59451" lon="5.87372">
        <ele>850.00366210938</ele>
        <time>2013-06-30T08:37:03.000Z</time>
      </trkpt>
      <trkpt lat="46.5946" lon="5.87371">
        <ele>850.01287841797</ele>
        <time>2013-06-30T08:37:05.000Z</time>
      </trkpt>
      <trkpt lat="46.59471" lon="5.87369">
        <ele>849.81274414062</ele>
        <time>2013-06-30T08:37:07.000Z</time>
      </trkpt>
      <trkpt lat="46.59482" lon="5.87365">
        <ele>849.20959472656</ele>
        <time>2013-06-30T08:37:09.000Z</time>
      </trkpt>
      <trkpt lat="46.59491" lon="5.87363">
        <ele>848.24993896484</ele>
        <time>2013-06-30T08:37:11.000Z</time>
      </trkpt>
      <trkpt lat="46.59499" lon="5.87361">
        <ele>848.14880371094</ele>
        <time>2013-06-30T08:37:13.000Z</time>
      </trkpt>
      <trkpt lat="46.59506" lon="5.8736">
        <ele>848.07019042969</ele>
        <time>2013-06-30T08:37:15.000Z</time>
      </trkpt>
      <trkpt lat="46.59514" lon="5.87359">
        <ele>848.09271240234</ele>
        <time>2013-06-30T08:37:17.000Z</time>
      </trkpt>
      <trkpt lat="46.59524" lon="5.8736">
        <ele>848.18548583984</ele>
        <time>2013-06-30T08:37:19.000Z</time>
      </trkpt>
      <trkpt lat="46.59532" lon="5.87361">
        <ele>848.11193847656</ele>
        <time>2013-06-30T08:37:21.000Z</time>
      </trkpt>
      <trkpt lat="46.59542" lon="5.87364">
        <ele>847.630859375</ele>
        <time>2013-06-30T08:37:23.000Z</time>
      </trkpt>
      <trkpt lat="46.59551" lon="5.87368">
        <ele>847.38873291016</ele>
        <time>2013-06-30T08:37:25.000Z</time>
      </trkpt>
      <trkpt lat="46.59559" lon="5.87372">
        <ele>847.14111328125</ele>
        <time>2013-06-30T08:37:27.000Z</time>
      </trkpt>
      <trkpt lat="46.59566" lon="5.87377">
        <ele>846.83636474609</ele>
        <time>2013-06-30T08:37:29.000Z</time>
      </trkpt>
      <trkpt lat="46.59575" lon="5.87384">
        <ele>846.15887451172</ele>
        <time>2013-06-30T08:37:31.000Z</time>
      </trkpt>
      <trkpt lat="46.59582" lon="5.87389">
        <ele>846.14916992188</ele>
        <time>2013-06-30T08:37:33.000Z</time>
      </trkpt>
      <trkpt lat="46.59589" lon="5.87395">
        <ele>845.81256103516</ele>
        <time>2013-06-30T08:37:35.000Z</time>
      </trkpt>
      <trkpt lat="46.59599" lon="5.874">
        <ele>846.67053222656</ele>
        <time>2013-06-30T08:37:37.000Z</time>
      </trkpt>
      <trkpt lat="46.59609" lon="5.87404">
        <ele>847.59161376953</ele>
        <time>2013-06-30T08:37:39.000Z</time>
      </trkpt>
      <trkpt lat="46.59619" lon="5.87406">
        <ele>848.00390625</ele>
        <time>2013-06-30T08:37:41.000Z</time>
      </trkpt>
      <trkpt lat="46.59627" lon="5.87408">
        <ele>847.90539550781</ele>
        <time>2013-06-30T08:37:43.000Z</time>
      </trkpt>
      <trkpt lat="46.59634" lon="5.87408">
        <ele>847.78723144531</ele>
        <time>2013-06-30T08:37:45.000Z</time>
      </trkpt>
      <trkpt lat="46.59641" lon="5.87409">
        <ele>847.75695800781</ele>
        <time>2013-06-30T08:37:47.000Z</time>
      </trkpt>
      <trkpt lat="46.5965" lon="5.87412">
        <ele>847.59375</ele>
        <time>2013-06-30T08:37:49.000Z</time>
      </trkpt>
      <trkpt lat="46.59659" lon="5.87418">
        <ele>847.46252441406</ele>
        <time>2013-06-30T08:37:51.000Z</time>
      </trkpt>
      <trkpt lat="46.59669" lon="5.87428">
        <ele>847.365234375</ele>
        <time>2013-06-30T08:37:53.000Z</time>
      </trkpt>
      <trkpt lat="46.5968" lon="5.8744">
        <ele>844.76062011719</ele>
        <time>2013-06-30T08:37:55.000Z</time>
      </trkpt>
      <trkpt lat="46.59689" lon="5.87451">
        <ele>843.98052978516</ele>
        <time>2013-06-30T08:37:57.000Z</time>
      </trkpt>
      <trkpt lat="46.59694" lon="5.87464">
        <ele>843.68395996094</ele>
        <time>2013-06-30T08:37:59.000Z</time>
      </trkpt>
      <trkpt lat="46.59696" lon="5.87474">
        <ele>844.52508544922</ele>
        <time>2013-06-30T08:38:01.000Z</time>
      </trkpt>
      <trkpt lat="46.59698" lon="5.87484">
        <ele>844.69635009766</ele>
        <time>2013-06-30T08:38:03.000Z</time>
      </trkpt>
      <trkpt lat="46.59703" lon="5.87495">
        <ele>846.13983154297</ele>
        <time>2013-06-30T08:38:05.000Z</time>
      </trkpt>
      <trkpt lat="46.59709" lon="5.87505">
        <ele>846.35772705078</ele>
        <time>2013-06-30T08:38:07.000Z</time>
      </trkpt>
      <trkpt lat="46.59712" lon="5.87516">
        <ele>846.67797851562</ele>
        <time>2013-06-30T08:38:09.000Z</time>
      </trkpt>
      <trkpt lat="46.59712" lon="5.87533">
        <ele>847.02362060547</ele>
        <time>2013-06-30T08:38:11.000Z</time>
      </trkpt>
      <trkpt lat="46.59706" lon="5.87549">
        <ele>847.27307128906</ele>
        <time>2013-06-30T08:38:13.000Z</time>
      </trkpt>
      <trkpt lat="46.597" lon="5.8756">
        <ele>847.50323486328</ele>
        <time>2013-06-30T08:38:15.000Z</time>
      </trkpt>
      <trkpt lat="46.59694" lon="5.8757">
        <ele>847.69396972656</ele>
        <time>2013-06-30T08:38:17.000Z</time>
      </trkpt>
      <trkpt lat="46.59689" lon="5.87581">
        <ele>847.98614501953</ele>
        <time>2013-06-30T08:38:19.000Z</time>
      </trkpt>
      <trkpt lat="46.59684" lon="5.87592">
        <ele>848.18725585938</ele>
        <time>2013-06-30T08:38:21.000Z</time>
      </trkpt>
      <trkpt lat="46.59681" lon="5.87603">
        <ele>848.40679931641</ele>
        <time>2013-06-30T08:38:23.000Z</time>
      </trkpt>
      <trkpt lat="46.5968" lon="5.87619">
        <ele>848.79656982422</ele>
        <time>2013-06-30T08:38:25.000Z</time>
      </trkpt>
      <trkpt lat="46.59679" lon="5.87632">
        <ele>849.12078857422</ele>
        <time>2013-06-30T08:38:27.000Z</time>
      </trkpt>
      <trkpt lat="46.59685" lon="5.87647">
        <ele>849.46411132812</ele>
        <time>2013-06-30T08:38:29.000Z</time>
      </trkpt>
      <trkpt lat="46.59692" lon="5.87658">
        <ele>849.83697509766</ele>
        <time>2013-06-30T08:38:31.000Z</time>
      </trkpt>
      <trkpt lat="46.597" lon="5.87665">
        <ele>850.15612792969</ele>
        <time>2013-06-30T08:38:33.000Z</time>
      </trkpt>
      <trkpt lat="46.59708" lon="5.87673">
        <ele>850.24621582031</ele>
        <time>2013-06-30T08:38:35.000Z</time>
      </trkpt>
      <trkpt lat="46.59713" lon="5.87678">
        <ele>850.12200927734</ele>
        <time>2013-06-30T08:38:37.000Z</time>
      </trkpt>
      <trkpt lat="46.59721" lon="5.87687">
        <ele>849.87890625</ele>
        <time>2013-06-30T08:38:39.000Z</time>
      </trkpt>
      <trkpt lat="46.59727" lon="5.87693">
        <ele>849.54742431641</ele>
        <time>2013-06-30T08:38:41.000Z</time>
      </trkpt>
      <trkpt lat="46.59732" lon="5.87696">
        <ele>849.19610595703</ele>
        <time>2013-06-30T08:38:43.000Z</time>
      </trkpt>
      <trkpt lat="46.5974" lon="5.87702">
        <ele>848.73089599609</ele>
        <time>2013-06-30T08:38:45.000Z</time>
      </trkpt>
      <trkpt lat="46.59748" lon="5.87709">
        <ele>848.15637207031</ele>
        <time>2013-06-30T08:38:47.000Z</time>
      </trkpt>
      <trkpt lat="46.59754" lon="5.87714">
        <ele>847.53625488281</ele>
        <time>2013-06-30T08:38:49.000Z</time>
      </trkpt>
      <trkpt lat="46.5976" lon="5.87717">
        <ele>846.90765380859</ele>
        <time>2013-06-30T08:38:52.000Z</time>
      </trkpt>
      <trkpt lat="46.59768" lon="5.87721">
        <ele>846.51892089844</ele>
        <time>2013-06-30T08:38:54.000Z</time>
      </trkpt>
      <trkpt lat="46.59775" lon="5.87726">
        <ele>846.24731445312</ele>
        <time>2013-06-30T08:38:56.000Z</time>
      </trkpt>
      <trkpt lat="46.59782" lon="5.8773">
        <ele>845.97241210938</ele>
        <time>2013-06-30T08:38:58.000Z</time>
      </trkpt>
      <trkpt lat="46.59788" lon="5.87734">
        <ele>845.58923339844</ele>
        <time>2013-06-30T08:39:00.000Z</time>
      </trkpt>
      <trkpt lat="46.59795" lon="5.87737">
        <ele>845.33764648438</ele>
        <time>2013-06-30T08:39:02.000Z</time>
      </trkpt>
      <trkpt lat="46.59801" lon="5.8774">
        <ele>845.22222900391</ele>
        <time>2013-06-30T08:39:04.000Z</time>
      </trkpt>
      <trkpt lat="46.59807" lon="5.87742">
        <ele>845.291015625</ele>
        <time>2013-06-30T08:39:06.000Z</time>
      </trkpt>
      <trkpt lat="46.59812" lon="5.87743">
        <ele>845.29766845703</ele>
        <time>2013-06-30T08:39:08.000Z</time>
      </trkpt>
      <trkpt lat="46.59817" lon="5.87744">
        <ele>845.31793212891</ele>
        <time>2013-06-30T08:39:10.000Z</time>
      </trkpt>
      <trkpt lat="46.59824" lon="5.87745">
        <ele>845.44506835938</ele>
        <time>2013-06-30T08:39:13.000Z</time>
      </trkpt>
      <trkpt lat="46.59829" lon="5.87746">
        <ele>845.4814453125</ele>
        <time>2013-06-30T08:39:15.000Z</time>
      </trkpt>
      <trkpt lat="46.59835" lon="5.87748">
        <ele>845.62994384766</ele>
        <time>2013-06-30T08:39:17.000Z</time>
      </trkpt>
      <trkpt lat="46.59841" lon="5.87749">
        <ele>845.83459472656</ele>
        <time>2013-06-30T08:39:19.000Z</time>
      </trkpt>
      <trkpt lat="46.59847" lon="5.8775">
        <ele>846.08081054688</ele>
        <time>2013-06-30T08:39:21.000Z</time>
      </trkpt>
      <trkpt lat="46.59855" lon="5.87751">
        <ele>846.33520507812</ele>
        <time>2013-06-30T08:39:23.000Z</time>
      </trkpt>
      <trkpt lat="46.5986" lon="5.87753">
        <ele>846.50299072266</ele>
        <time>2013-06-30T08:39:25.000Z</time>
      </trkpt>
      <trkpt lat="46.59866" lon="5.87756">
        <ele>846.58685302734</ele>
        <time>2013-06-30T08:39:27.000Z</time>
      </trkpt>
      <trkpt lat="46.5987" lon="5.87759">
        <ele>846.57244873047</ele>
        <time>2013-06-30T08:39:29.000Z</time>
      </trkpt>
      <trkpt lat="46.59877" lon="5.87762">
        <ele>846.65948486328</ele>
        <time>2013-06-30T08:39:31.000Z</time>
      </trkpt>
      <trkpt lat="46.59884" lon="5.87765">
        <ele>846.77471923828</ele>
        <time>2013-06-30T08:39:33.000Z</time>
      </trkpt>
      <trkpt lat="46.59891" lon="5.87767">
        <ele>846.91375732422</ele>
        <time>2013-06-30T08:39:35.000Z</time>
      </trkpt>
      <trkpt lat="46.59897" lon="5.87769">
        <ele>846.98443603516</ele>
        <time>2013-06-30T08:39:37.000Z</time>
      </trkpt>
      <trkpt lat="46.59906" lon="5.87769">
        <ele>847.17755126953</ele>
        <time>2013-06-30T08:39:39.000Z</time>
      </trkpt>
      <trkpt lat="46.59915" lon="5.87769">
        <ele>847.61236572266</ele>
        <time>2013-06-30T08:39:41.000Z</time>
      </trkpt>
      <trkpt lat="46.59922" lon="5.87769">
        <ele>848.06842041016</ele>
        <time>2013-06-30T08:39:43.000Z</time>
      </trkpt>
      <trkpt lat="46.59928" lon="5.8777">
        <ele>848.66888427734</ele>
        <time>2013-06-30T08:39:45.000Z</time>
      </trkpt>
      <trkpt lat="46.59933" lon="5.87771">
        <ele>849.24780273438</ele>
        <time>2013-06-30T08:39:47.000Z</time>
      </trkpt>
      <trkpt lat="46.59939" lon="5.87771">
        <ele>849.90582275391</ele>
        <time>2013-06-30T08:39:49.000Z</time>
      </trkpt>
      <trkpt lat="46.59947" lon="5.87773">
        <ele>850.48571777344</ele>
        <time>2013-06-30T08:39:51.000Z</time>
      </trkpt>
      <trkpt lat="46.59954" lon="5.87774">
        <ele>850.89855957031</ele>
        <time>2013-06-30T08:39:53.000Z</time>
      </trkpt>
      <trkpt lat="46.59961" lon="5.87776">
        <ele>851.37188720703</ele>
        <time>2013-06-30T08:39:55.000Z</time>
      </trkpt>
      <trkpt lat="46.59967" lon="5.87777">
        <ele>851.70483398438</ele>
        <time>2013-06-30T08:39:57.000Z</time>
      </trkpt>
      <trkpt lat="46.59973" lon="5.87779">
        <ele>852.04827880859</ele>
        <time>2013-06-30T08:39:59.000Z</time>
      </trkpt>
      <trkpt lat="46.59978" lon="5.87781">
        <ele>852.33068847656</ele>
        <time>2013-06-30T08:40:01.000Z</time>
      </trkpt>
      <trkpt lat="46.59985" lon="5.87783">
        <ele>852.66589355469</ele>
        <time>2013-06-30T08:40:03.000Z</time>
      </trkpt>
      <trkpt lat="46.59994" lon="5.87787">
        <ele>853.05181884766</ele>
        <time>2013-06-30T08:40:05.000Z</time>
      </trkpt>
      <trkpt lat="46.60004" lon="5.8779">
        <ele>853.52624511719</ele>
        <time>2013-06-30T08:40:07.000Z</time>
      </trkpt>
      <trkpt lat="46.6001" lon="5.87794">
        <ele>853.89556884766</ele>
        <time>2013-06-30T08:40:09.000Z</time>
      </trkpt>
      <trkpt lat="46.60016" lon="5.87797">
        <ele>854.23406982422</ele>
        <time>2013-06-30T08:40:11.000Z</time>
      </trkpt>
      <trkpt lat="46.60021" lon="5.87802">
        <ele>854.63720703125</ele>
        <time>2013-06-30T08:40:13.000Z</time>
      </trkpt>
      <trkpt lat="46.60028" lon="5.8781">
        <ele>855.02563476562</ele>
        <time>2013-06-30T08:40:15.000Z</time>
      </trkpt>
      <trkpt lat="46.60033" lon="5.87816">
        <ele>855.23333740234</ele>
        <time>2013-06-30T08:40:17.000Z</time>
      </trkpt>
      <trkpt lat="46.60036" lon="5.87824">
        <ele>855.31988525391</ele>
        <time>2013-06-30T08:40:19.000Z</time>
      </trkpt>
      <trkpt lat="46.60042" lon="5.87833">
        <ele>855.42779541016</ele>
        <time>2013-06-30T08:40:21.000Z</time>
      </trkpt>
      <trkpt lat="46.6005" lon="5.87844">
        <ele>855.64422607422</ele>
        <time>2013-06-30T08:40:23.000Z</time>
      </trkpt>
      <trkpt lat="46.60059" lon="5.87855">
        <ele>855.75201416016</ele>
        <time>2013-06-30T08:40:25.000Z</time>
      </trkpt>
      <trkpt lat="46.60064" lon="5.87864">
        <ele>855.888671875</ele>
        <time>2013-06-30T08:40:27.000Z</time>
      </trkpt>
      <trkpt lat="46.60067" lon="5.87872">
        <ele>856.10852050781</ele>
        <time>2013-06-30T08:40:29.000Z</time>
      </trkpt>
      <trkpt lat="46.60072" lon="5.87882">
        <ele>856.35137939453</ele>
        <time>2013-06-30T08:40:31.000Z</time>
      </trkpt>
      <trkpt lat="46.60076" lon="5.8789">
        <ele>856.53247070312</ele>
        <time>2013-06-30T08:40:33.000Z</time>
      </trkpt>
      <trkpt lat="46.6008" lon="5.879">
        <ele>856.84759521484</ele>
        <time>2013-06-30T08:40:35.000Z</time>
      </trkpt>
      <trkpt lat="46.60089" lon="5.87911">
        <ele>856.9580078125</ele>
        <time>2013-06-30T08:40:37.000Z</time>
      </trkpt>
      <trkpt lat="46.60099" lon="5.87924">
        <ele>856.81195068359</ele>
        <time>2013-06-30T08:40:39.000Z</time>
      </trkpt>
      <trkpt lat="46.6011" lon="5.87934">
        <ele>857.58392333984</ele>
        <time>2013-06-30T08:40:41.000Z</time>
      </trkpt>
      <trkpt lat="46.60122" lon="5.87946">
        <ele>857.51318359375</ele>
        <time>2013-06-30T08:40:43.000Z</time>
      </trkpt>
      <trkpt lat="46.60133" lon="5.87956">
        <ele>857.76330566406</ele>
        <time>2013-06-30T08:40:45.000Z</time>
      </trkpt>
      <trkpt lat="46.60144" lon="5.87966">
        <ele>858.44494628906</ele>
        <time>2013-06-30T08:40:47.000Z</time>
      </trkpt>
      <trkpt lat="46.60155" lon="5.87977">
        <ele>858.80267333984</ele>
        <time>2013-06-30T08:40:49.000Z</time>
      </trkpt>
      <trkpt lat="46.60164" lon="5.87985">
        <ele>858.53887939453</ele>
        <time>2013-06-30T08:40:51.000Z</time>
      </trkpt>
      <trkpt lat="46.60174" lon="5.87995">
        <ele>858.45959472656</ele>
        <time>2013-06-30T08:40:53.000Z</time>
      </trkpt>
      <trkpt lat="46.60186" lon="5.88006">
        <ele>857.47332763672</ele>
        <time>2013-06-30T08:40:55.000Z</time>
      </trkpt>
      <trkpt lat="46.60198" lon="5.88016">
        <ele>855.45220947266</ele>
        <time>2013-06-30T08:40:57.000Z</time>
      </trkpt>
      <trkpt lat="46.60213" lon="5.88028">
        <ele>853.33087158203</ele>
        <time>2013-06-30T08:40:59.000Z</time>
      </trkpt>
      <trkpt lat="46.60228" lon="5.88039">
        <ele>851.99127197266</ele>
        <time>2013-06-30T08:41:01.000Z</time>
      </trkpt>
      <trkpt lat="46.60241" lon="5.88048">
        <ele>851.78851318359</ele>
        <time>2013-06-30T08:41:03.000Z</time>
      </trkpt>
      <trkpt lat="46.60252" lon="5.88055">
        <ele>852.00946044922</ele>
        <time>2013-06-30T08:41:05.000Z</time>
      </trkpt>
      <trkpt lat="46.60266" lon="5.88066">
        <ele>850.9072265625</ele>
        <time>2013-06-30T08:41:07.000Z</time>
      </trkpt>
      <trkpt lat="46.6028" lon="5.88079">
        <ele>850.46929931641</ele>
        <time>2013-06-30T08:41:09.000Z</time>
      </trkpt>
      <trkpt lat="46.60293" lon="5.88092">
        <ele>850.54095458984</ele>
        <time>2013-06-30T08:41:11.000Z</time>
      </trkpt>
      <trkpt lat="46.60302" lon="5.88106">
        <ele>851.25170898438</ele>
        <time>2013-06-30T08:41:13.000Z</time>
      </trkpt>
      <trkpt lat="46.60314" lon="5.88123">
        <ele>850.66705322266</ele>
        <time>2013-06-30T08:41:15.000Z</time>
      </trkpt>
      <trkpt lat="46.60326" lon="5.8814">
        <ele>850.34033203125</ele>
        <time>2013-06-30T08:41:17.000Z</time>
      </trkpt>
      <trkpt lat="46.60341" lon="5.8816">
        <ele>850.15484619141</ele>
        <time>2013-06-30T08:41:19.000Z</time>
      </trkpt>
      <trkpt lat="46.60356" lon="5.88178">
        <ele>849.84832763672</ele>
        <time>2013-06-30T08:41:21.000Z</time>
      </trkpt>
      <trkpt lat="46.60371" lon="5.88193">
        <ele>848.42260742188</ele>
        <time>2013-06-30T08:41:23.000Z</time>
      </trkpt>
      <trkpt lat="46.60387" lon="5.88199">
        <ele>847.240234375</ele>
        <time>2013-06-30T08:41:25.000Z</time>
      </trkpt>
      <trkpt lat="46.60401" lon="5.88194">
        <ele>847.30218505859</ele>
        <time>2013-06-30T08:41:27.000Z</time>
      </trkpt>
      <trkpt lat="46.60412" lon="5.88184">
        <ele>848.26147460938</ele>
        <time>2013-06-30T08:41:29.000Z</time>
      </trkpt>
      <trkpt lat="46.6042" lon="5.88175">
        <ele>849.41912841797</ele>
        <time>2013-06-30T08:41:31.000Z</time>
      </trkpt>
      <trkpt lat="46.6043" lon="5.88165">
        <ele>850.02178955078</ele>
        <time>2013-06-30T08:41:33.000Z</time>
      </trkpt>
      <trkpt lat="46.60438" lon="5.88156">
        <ele>848.59918212891</ele>
        <time>2013-06-30T08:41:35.000Z</time>
      </trkpt>
      <trkpt lat="46.60448" lon="5.88147">
        <ele>848.58410644531</ele>
        <time>2013-06-30T08:41:37.000Z</time>
      </trkpt>
      <trkpt lat="46.60456" lon="5.88137">
        <ele>847.24914550781</ele>
        <time>2013-06-30T08:41:39.000Z</time>
      </trkpt>
      <trkpt lat="46.60467" lon="5.88127">
        <ele>846.71612548828</ele>
        <time>2013-06-30T08:41:41.000Z</time>
      </trkpt>
      <trkpt lat="46.60478" lon="5.88121">
        <ele>846.19812011719</ele>
        <time>2013-06-30T08:41:43.000Z</time>
      </trkpt>
      <trkpt lat="46.6049" lon="5.88115">
        <ele>846.44702148438</ele>
        <time>2013-06-30T08:41:45.000Z</time>
      </trkpt>
      <trkpt lat="46.60504" lon="5.8811">
        <ele>845.01989746094</ele>
        <time>2013-06-30T08:41:47.000Z</time>
      </trkpt>
      <trkpt lat="46.60518" lon="5.88103">
        <ele>843.84161376953</ele>
        <time>2013-06-30T08:41:49.000Z</time>
      </trkpt>
      <trkpt lat="46.60534" lon="5.88094">
        <ele>843.44360351562</ele>
        <time>2013-06-30T08:41:51.000Z</time>
      </trkpt>
      <trkpt lat="46.60545" lon="5.88079">
        <ele>844.13018798828</ele>
        <time>2013-06-30T08:41:53.000Z</time>
      </trkpt>
      <trkpt lat="46.60547" lon="5.88063">
        <ele>844.38403320312</ele>
        <time>2013-06-30T08:41:55.000Z</time>
      </trkpt>
      <trkpt lat="46.6054" lon="5.8805">
        <ele>843.63110351562</ele>
        <time>2013-06-30T08:41:57.000Z</time>
      </trkpt>
      <trkpt lat="46.60533" lon="5.88039">
        <ele>841.10723876953</ele>
        <time>2013-06-30T08:41:59.000Z</time>
      </trkpt>
      <trkpt lat="46.60537" lon="5.88029">
        <ele>840.88861083984</ele>
        <time>2013-06-30T08:42:01.000Z</time>
      </trkpt>
      <trkpt lat="46.60546" lon="5.88027">
        <ele>839.50329589844</ele>
        <time>2013-06-30T08:42:03.000Z</time>
      </trkpt>
      <trkpt lat="46.60555" lon="5.88027">
        <ele>838.08923339844</ele>
        <time>2013-06-30T08:42:05.000Z</time>
      </trkpt>
      <trkpt lat="46.60566" lon="5.88028">
        <ele>836.05859375</ele>
        <time>2013-06-30T08:42:07.000Z</time>
      </trkpt>
      <trkpt lat="46.60579" lon="5.88027">
        <ele>835.32299804688</ele>
        <time>2013-06-30T08:42:09.000Z</time>
      </trkpt>
      <trkpt lat="46.60593" lon="5.8803">
        <ele>834.43096923828</ele>
        <time>2013-06-30T08:42:11.000Z</time>
      </trkpt>
      <trkpt lat="46.60605" lon="5.88035">
        <ele>832.96276855469</ele>
        <time>2013-06-30T08:42:13.000Z</time>
      </trkpt>
      <trkpt lat="46.60616" lon="5.88041">
        <ele>831.765625</ele>
        <time>2013-06-30T08:42:15.000Z</time>
      </trkpt>
      <trkpt lat="46.60628" lon="5.88048">
        <ele>831.73364257812</ele>
        <time>2013-06-30T08:42:17.000Z</time>
      </trkpt>
      <trkpt lat="46.60641" lon="5.88056">
        <ele>831.88098144531</ele>
        <time>2013-06-30T08:42:19.000Z</time>
      </trkpt>
      <trkpt lat="46.60655" lon="5.88062">
        <ele>831.60906982422</ele>
        <time>2013-06-30T08:42:21.000Z</time>
      </trkpt>
      <trkpt lat="46.60672" lon="5.88064">
        <ele>831.400390625</ele>
        <time>2013-06-30T08:42:23.000Z</time>
      </trkpt>
      <trkpt lat="46.60687" lon="5.88063">
        <ele>830.61328125</ele>
        <time>2013-06-30T08:42:25.000Z</time>
      </trkpt>
      <trkpt lat="46.60703" lon="5.88061">
        <ele>830.13586425781</ele>
        <time>2013-06-30T08:42:27.000Z</time>
      </trkpt>
      <trkpt lat="46.6072" lon="5.8806">
        <ele>830.62213134766</ele>
        <time>2013-06-30T08:42:29.000Z</time>
      </trkpt>
      <trkpt lat="46.60738" lon="5.88063">
        <ele>830.83026123047</ele>
        <time>2013-06-30T08:42:31.000Z</time>
      </trkpt>
      <trkpt lat="46.6076" lon="5.88072">
        <ele>829.4951171875</ele>
        <time>2013-06-30T08:42:33.000Z</time>
      </trkpt>
      <trkpt lat="46.6078" lon="5.88084">
        <ele>827.69677734375</ele>
        <time>2013-06-30T08:42:35.000Z</time>
      </trkpt>
      <trkpt lat="46.60798" lon="5.88096">
        <ele>826.40686035156</ele>
        <time>2013-06-30T08:42:37.000Z</time>
      </trkpt>
      <trkpt lat="46.60814" lon="5.88108">
        <ele>825.38922119141</ele>
        <time>2013-06-30T08:42:39.000Z</time>
      </trkpt>
      <trkpt lat="46.60831" lon="5.88122">
        <ele>824.25421142578</ele>
        <time>2013-06-30T08:42:41.000Z</time>
      </trkpt>
      <trkpt lat="46.60846" lon="5.88138">
        <ele>823.07623291016</ele>
        <time>2013-06-30T08:42:43.000Z</time>
      </trkpt>
      <trkpt lat="46.60861" lon="5.88157">
        <ele>822.33557128906</ele>
        <time>2013-06-30T08:42:45.000Z</time>
      </trkpt>
      <trkpt lat="46.60874" lon="5.88177">
        <ele>821.66369628906</ele>
        <time>2013-06-30T08:42:47.000Z</time>
      </trkpt>
      <trkpt lat="46.60887" lon="5.88196">
        <ele>820.85974121094</ele>
        <time>2013-06-30T08:42:49.000Z</time>
      </trkpt>
      <trkpt lat="46.60899" lon="5.88215">
        <ele>819.99353027344</ele>
        <time>2013-06-30T08:42:51.000Z</time>
      </trkpt>
      <trkpt lat="46.6091" lon="5.88226">
        <ele>819.17401123047</ele>
        <time>2013-06-30T08:42:53.000Z</time>
      </trkpt>
      <trkpt lat="46.60921" lon="5.8823">
        <ele>817.72821044922</ele>
        <time>2013-06-30T08:42:55.000Z</time>
      </trkpt>
      <trkpt lat="46.60933" lon="5.88231">
        <ele>816.201171875</ele>
        <time>2013-06-30T08:42:57.000Z</time>
      </trkpt>
      <trkpt lat="46.60947" lon="5.88234">
        <ele>816.29534912109</ele>
        <time>2013-06-30T08:42:59.000Z</time>
      </trkpt>
      <trkpt lat="46.60958" lon="5.88234">
        <ele>815.771484375</ele>
        <time>2013-06-30T08:43:01.000Z</time>
      </trkpt>
      <trkpt lat="46.6097" lon="5.88236">
        <ele>815.11505126953</ele>
        <time>2013-06-30T08:43:03.000Z</time>
      </trkpt>
      <trkpt lat="46.60982" lon="5.88244">
        <ele>815.67211914062</ele>
        <time>2013-06-30T08:43:05.000Z</time>
      </trkpt>
      <trkpt lat="46.60997" lon="5.88254">
        <ele>815.92102050781</ele>
        <time>2013-06-30T08:43:07.000Z</time>
      </trkpt>
      <trkpt lat="46.61015" lon="5.88262">
        <ele>815.33062744141</ele>
        <time>2013-06-30T08:43:09.000Z</time>
      </trkpt>
      <trkpt lat="46.61035" lon="5.88269">
        <ele>814.74780273438</ele>
        <time>2013-06-30T08:43:11.000Z</time>
      </trkpt>
      <trkpt lat="46.61049" lon="5.88275">
        <ele>814.15423583984</ele>
        <time>2013-06-30T08:43:13.000Z</time>
      </trkpt>
      <trkpt lat="46.61067" lon="5.88282">
        <ele>813.36059570312</ele>
        <time>2013-06-30T08:43:15.000Z</time>
      </trkpt>
      <trkpt lat="46.61087" lon="5.88293">
        <ele>812.13360595703</ele>
        <time>2013-06-30T08:43:17.000Z</time>
      </trkpt>
      <trkpt lat="46.61109" lon="5.88308">
        <ele>810.04992675781</ele>
        <time>2013-06-30T08:43:19.000Z</time>
      </trkpt>
      <trkpt lat="46.61129" lon="5.88318">
        <ele>807.48699951172</ele>
        <time>2013-06-30T08:43:21.000Z</time>
      </trkpt>
      <trkpt lat="46.61144" lon="5.88324">
        <ele>803.75750732422</ele>
        <time>2013-06-30T08:43:23.000Z</time>
      </trkpt>
      <trkpt lat="46.61154" lon="5.88325">
        <ele>799.22521972656</ele>
        <time>2013-06-30T08:43:25.000Z</time>
      </trkpt>
      <trkpt lat="46.61162" lon="5.88328">
        <ele>796.79656982422</ele>
        <time>2013-06-30T08:43:27.000Z</time>
      </trkpt>
      <trkpt lat="46.6117" lon="5.88334">
        <ele>793.32958984375</ele>
        <time>2013-06-30T08:43:29.000Z</time>
      </trkpt>
      <trkpt lat="46.61177" lon="5.8834">
        <ele>791.66552734375</ele>
        <time>2013-06-30T08:43:31.000Z</time>
      </trkpt>
      <trkpt lat="46.61181" lon="5.88344">
        <ele>791.40539550781</ele>
        <time>2013-06-30T08:43:33.000Z</time>
      </trkpt>
      <trkpt lat="46.61184" lon="5.88349">
        <ele>783.89904785156</ele>
        <time>2013-06-30T08:45:23.000Z</time>
      </trkpt>
      <trkpt lat="46.6119" lon="5.88354">
        <ele>783.35247802734</ele>
        <time>2013-06-30T08:45:33.000Z</time>
      </trkpt>
      <trkpt lat="46.61198" lon="5.88361">
        <ele>783.09637451172</ele>
        <time>2013-06-30T08:45:35.000Z</time>
      </trkpt>
      <trkpt lat="46.61205" lon="5.88365">
        <ele>782.87384033203</ele>
        <time>2013-06-30T08:45:37.000Z</time>
      </trkpt>
      <trkpt lat="46.61211" lon="5.88371">
        <ele>782.77087402344</ele>
        <time>2013-06-30T08:45:39.000Z</time>
      </trkpt>
      <trkpt lat="46.61216" lon="5.88374">
        <ele>782.78057861328</ele>
        <time>2013-06-30T08:45:41.000Z</time>
      </trkpt>
      <trkpt lat="46.61222" lon="5.88377">
        <ele>783.02844238281</ele>
        <time>2013-06-30T08:45:44.000Z</time>
      </trkpt>
      <trkpt lat="46.61227" lon="5.8838">
        <ele>783.16876220703</ele>
        <time>2013-06-30T08:45:46.000Z</time>
      </trkpt>
      <trkpt lat="46.61232" lon="5.88381">
        <ele>783.37255859375</ele>
        <time>2013-06-30T08:45:48.000Z</time>
      </trkpt>
      <trkpt lat="46.61239" lon="5.88381">
        <ele>783.64739990234</ele>
        <time>2013-06-30T08:45:50.000Z</time>
      </trkpt>
      <trkpt lat="46.61246" lon="5.88381">
        <ele>784.04010009766</ele>
        <time>2013-06-30T08:45:52.000Z</time>
      </trkpt>
      <trkpt lat="46.61252" lon="5.8838">
        <ele>784.5498046875</ele>
        <time>2013-06-30T08:45:54.000Z</time>
      </trkpt>
      <trkpt lat="46.61259" lon="5.88376">
        <ele>785.17803955078</ele>
        <time>2013-06-30T08:45:56.000Z</time>
      </trkpt>
      <trkpt lat="46.61266" lon="5.88373">
        <ele>785.58923339844</ele>
        <time>2013-06-30T08:45:58.000Z</time>
      </trkpt>
      <trkpt lat="46.61272" lon="5.88368">
        <ele>785.93884277344</ele>
        <time>2013-06-30T08:46:00.000Z</time>
      </trkpt>
      <trkpt lat="46.61277" lon="5.88365">
        <ele>786.43713378906</ele>
        <time>2013-06-30T08:46:02.000Z</time>
      </trkpt>
      <trkpt lat="46.61283" lon="5.88364">
        <ele>786.83111572266</ele>
        <time>2013-06-30T08:46:04.000Z</time>
      </trkpt>
      <trkpt lat="46.61288" lon="5.88362">
        <ele>787.03533935547</ele>
        <time>2013-06-30T08:46:06.000Z</time>
      </trkpt>
      <trkpt lat="46.61293" lon="5.88361">
        <ele>787.11871337891</ele>
        <time>2013-06-30T08:46:08.000Z</time>
      </trkpt>
      <trkpt lat="46.61298" lon="5.88359">
        <ele>787.21575927734</ele>
        <time>2013-06-30T08:46:10.000Z</time>
      </trkpt>
      <trkpt lat="46.61304" lon="5.88358">
        <ele>787.28771972656</ele>
        <time>2013-06-30T08:46:12.000Z</time>
      </trkpt>
      <trkpt lat="46.6131" lon="5.88356">
        <ele>787.34539794922</ele>
        <time>2013-06-30T08:46:14.000Z</time>
      </trkpt>
      <trkpt lat="46.61315" lon="5.88355">
        <ele>787.55865478516</ele>
        <time>2013-06-30T08:46:16.000Z</time>
      </trkpt>
      <trkpt lat="46.6132" lon="5.88353">
        <ele>787.79705810547</ele>
        <time>2013-06-30T08:46:18.000Z</time>
      </trkpt>
      <trkpt lat="46.61325" lon="5.88353">
        <ele>788.12561035156</ele>
        <time>2013-06-30T08:46:20.000Z</time>
      </trkpt>
      <trkpt lat="46.61331" lon="5.88351">
        <ele>788.41967773438</ele>
        <time>2013-06-30T08:46:23.000Z</time>
      </trkpt>
      <trkpt lat="46.61336" lon="5.88346">
        <ele>788.72235107422</ele>
        <time>2013-06-30T08:46:26.000Z</time>
      </trkpt>
      <trkpt lat="46.61342" lon="5.88342">
        <ele>788.939453125</ele>
        <time>2013-06-30T08:46:29.000Z</time>
      </trkpt>
      <trkpt lat="46.61347" lon="5.88338">
        <ele>789.22436523438</ele>
        <time>2013-06-30T08:46:32.000Z</time>
      </trkpt>
      <trkpt lat="46.61353" lon="5.88335">
        <ele>789.69390869141</ele>
        <time>2013-06-30T08:46:35.000Z</time>
      </trkpt>
      <trkpt lat="46.61358" lon="5.88331">
        <ele>789.94000244141</ele>
        <time>2013-06-30T08:46:37.000Z</time>
      </trkpt>
      <trkpt lat="46.61364" lon="5.88326">
        <ele>790.20166015625</ele>
        <time>2013-06-30T08:46:40.000Z</time>
      </trkpt>
      <trkpt lat="46.61369" lon="5.88323">
        <ele>790.43487548828</ele>
        <time>2013-06-30T08:46:42.000Z</time>
      </trkpt>
      <trkpt lat="46.61375" lon="5.88318">
        <ele>790.73565673828</ele>
        <time>2013-06-30T08:46:44.000Z</time>
      </trkpt>
      <trkpt lat="46.6138" lon="5.88313">
        <ele>790.98321533203</ele>
        <time>2013-06-30T08:46:46.000Z</time>
      </trkpt>
      <trkpt lat="46.61385" lon="5.88307">
        <ele>791.21063232422</ele>
        <time>2013-06-30T08:46:48.000Z</time>
      </trkpt>
      <trkpt lat="46.61389" lon="5.88301">
        <ele>791.39019775391</ele>
        <time>2013-06-30T08:46:50.000Z</time>
      </trkpt>
      <trkpt lat="46.61393" lon="5.88297">
        <ele>791.52575683594</ele>
        <time>2013-06-30T08:46:52.000Z</time>
      </trkpt>
      <trkpt lat="46.61398" lon="5.88293">
        <ele>791.76422119141</ele>
        <time>2013-06-30T08:46:55.000Z</time>
      </trkpt>
      <trkpt lat="46.61403" lon="5.88292">
        <ele>791.83581542969</ele>
        <time>2013-06-30T08:46:57.000Z</time>
      </trkpt>
      <trkpt lat="46.61409" lon="5.88291">
        <ele>791.94860839844</ele>
        <time>2013-06-30T08:46:59.000Z</time>
      </trkpt>
      <trkpt lat="46.61414" lon="5.88289">
        <ele>792.15100097656</ele>
        <time>2013-06-30T08:47:01.000Z</time>
      </trkpt>
      <trkpt lat="46.61419" lon="5.88286">
        <ele>792.37420654297</ele>
        <time>2013-06-30T08:47:03.000Z</time>
      </trkpt>
      <trkpt lat="46.61423" lon="5.88283">
        <ele>792.748046875</ele>
        <time>2013-06-30T08:47:06.000Z</time>
      </trkpt>
      <trkpt lat="46.61429" lon="5.8828">
        <ele>793.14831542969</ele>
        <time>2013-06-30T08:47:09.000Z</time>
      </trkpt>
      <trkpt lat="46.61434" lon="5.88277">
        <ele>793.32171630859</ele>
        <time>2013-06-30T08:47:11.000Z</time>
      </trkpt>
      <trkpt lat="46.61438" lon="5.88274">
        <ele>793.54565429688</ele>
        <time>2013-06-30T08:47:13.000Z</time>
      </trkpt>
      <trkpt lat="46.61443" lon="5.8827">
        <ele>793.91497802734</ele>
        <time>2013-06-30T08:47:15.000Z</time>
      </trkpt>
      <trkpt lat="46.61449" lon="5.88266">
        <ele>794.46051025391</ele>
        <time>2013-06-30T08:47:18.000Z</time>
      </trkpt>
      <trkpt lat="46.61454" lon="5.88263">
        <ele>794.86834716797</ele>
        <time>2013-06-30T08:47:20.000Z</time>
      </trkpt>
      <trkpt lat="46.61459" lon="5.8826">
        <ele>795.1611328125</ele>
        <time>2013-06-30T08:47:22.000Z</time>
      </trkpt>
      <trkpt lat="46.61464" lon="5.88257">
        <ele>795.44232177734</ele>
        <time>2013-06-30T08:47:24.000Z</time>
      </trkpt>
      <trkpt lat="46.61469" lon="5.88254">
        <ele>795.82861328125</ele>
        <time>2013-06-30T08:47:27.000Z</time>
      </trkpt>
      <trkpt lat="46.61474" lon="5.8825">
        <ele>796.17724609375</ele>
        <time>2013-06-30T08:47:30.000Z</time>
      </trkpt>
      <trkpt lat="46.6148" lon="5.88247">
        <ele>796.57232666016</ele>
        <time>2013-06-30T08:47:33.000Z</time>
      </trkpt>
      <trkpt lat="46.61485" lon="5.88245">
        <ele>797.00549316406</ele>
        <time>2013-06-30T08:47:35.000Z</time>
      </trkpt>
      <trkpt lat="46.61489" lon="5.88241">
        <ele>797.47595214844</ele>
        <time>2013-06-30T08:47:37.000Z</time>
      </trkpt>
      <trkpt lat="46.61494" lon="5.88237">
        <ele>797.86907958984</ele>
        <time>2013-06-30T08:47:39.000Z</time>
      </trkpt>
      <trkpt lat="46.61498" lon="5.88234">
        <ele>798.34149169922</ele>
        <time>2013-06-30T08:47:41.000Z</time>
      </trkpt>
      <trkpt lat="46.61503" lon="5.88231">
        <ele>798.73718261719</ele>
        <time>2013-06-30T08:47:43.000Z</time>
      </trkpt>
      <trkpt lat="46.61508" lon="5.88226">
        <ele>799.13391113281</ele>
        <time>2013-06-30T08:47:46.000Z</time>
      </trkpt>
      <trkpt lat="46.61513" lon="5.88222">
        <ele>799.55865478516</ele>
        <time>2013-06-30T08:47:49.000Z</time>
      </trkpt>
      <trkpt lat="46.61517" lon="5.88219">
        <ele>799.98303222656</ele>
        <time>2013-06-30T08:47:51.000Z</time>
      </trkpt>
      <trkpt lat="46.61523" lon="5.88215">
        <ele>800.564453125</ele>
        <time>2013-06-30T08:47:54.000Z</time>
      </trkpt>
      <trkpt lat="46.61527" lon="5.88211">
        <ele>800.93035888672</ele>
        <time>2013-06-30T08:47:56.000Z</time>
      </trkpt>
      <trkpt lat="46.61532" lon="5.88207">
        <ele>801.21520996094</ele>
        <time>2013-06-30T08:47:58.000Z</time>
      </trkpt>
      <trkpt lat="46.61537" lon="5.88202">
        <ele>801.62896728516</ele>
        <time>2013-06-30T08:48:01.000Z</time>
      </trkpt>
      <trkpt lat="46.61543" lon="5.88198">
        <ele>802.15185546875</ele>
        <time>2013-06-30T08:48:04.000Z</time>
      </trkpt>
      <trkpt lat="46.61548" lon="5.88195">
        <ele>802.52673339844</ele>
        <time>2013-06-30T08:48:06.000Z</time>
      </trkpt>
      <trkpt lat="46.61552" lon="5.88193">
        <ele>802.80737304688</ele>
        <time>2013-06-30T08:48:08.000Z</time>
      </trkpt>
      <trkpt lat="46.61557" lon="5.88192">
        <ele>803.03656005859</ele>
        <time>2013-06-30T08:48:10.000Z</time>
      </trkpt>
      <trkpt lat="46.61563" lon="5.88191">
        <ele>803.24768066406</ele>
        <time>2013-06-30T08:48:12.000Z</time>
      </trkpt>
      <trkpt lat="46.61568" lon="5.8819">
        <ele>803.57427978516</ele>
        <time>2013-06-30T08:48:15.000Z</time>
      </trkpt>
      <trkpt lat="46.61573" lon="5.88189">
        <ele>803.841796875</ele>
        <time>2013-06-30T08:48:17.000Z</time>
      </trkpt>
      <trkpt lat="46.61578" lon="5.88187">
        <ele>804.13543701172</ele>
        <time>2013-06-30T08:48:19.000Z</time>
      </trkpt>
      <trkpt lat="46.61583" lon="5.88184">
        <ele>804.46166992188</ele>
        <time>2013-06-30T08:48:21.000Z</time>
      </trkpt>
      <trkpt lat="46.61589" lon="5.8818">
        <ele>804.82867431641</ele>
        <time>2013-06-30T08:48:23.000Z</time>
      </trkpt>
      <trkpt lat="46.61593" lon="5.88177">
        <ele>805.04699707031</ele>
        <time>2013-06-30T08:48:25.000Z</time>
      </trkpt>
      <trkpt lat="46.61597" lon="5.88175">
        <ele>805.22979736328</ele>
        <time>2013-06-30T08:48:27.000Z</time>
      </trkpt>
      <trkpt lat="46.61602" lon="5.88173">
        <ele>805.38177490234</ele>
        <time>2013-06-30T08:48:29.000Z</time>
      </trkpt>
      <trkpt lat="46.61608" lon="5.88171">
        <ele>805.56762695312</ele>
        <time>2013-06-30T08:48:31.000Z</time>
      </trkpt>
      <trkpt lat="46.61613" lon="5.8817">
        <ele>805.77764892578</ele>
        <time>2013-06-30T08:48:33.000Z</time>
      </trkpt>
      <trkpt lat="46.61619" lon="5.8817">
        <ele>806.02386474609</ele>
        <time>2013-06-30T08:48:35.000Z</time>
      </trkpt>
      <trkpt lat="46.61625" lon="5.88171">
        <ele>806.26684570312</ele>
        <time>2013-06-30T08:48:37.000Z</time>
      </trkpt>
      <trkpt lat="46.61631" lon="5.88172">
        <ele>806.51110839844</ele>
        <time>2013-06-30T08:48:39.000Z</time>
      </trkpt>
      <trkpt lat="46.61637" lon="5.88173">
        <ele>806.75085449219</ele>
        <time>2013-06-30T08:48:41.000Z</time>
      </trkpt>
      <trkpt lat="46.61643" lon="5.88174">
        <ele>807.03369140625</ele>
        <time>2013-06-30T08:48:43.000Z</time>
      </trkpt>
      <trkpt lat="46.6165" lon="5.88174">
        <ele>807.32611083984</ele>
        <time>2013-06-30T08:48:45.000Z</time>
      </trkpt>
      <trkpt lat="46.61656" lon="5.88175">
        <ele>807.56854248047</ele>
        <time>2013-06-30T08:48:47.000Z</time>
      </trkpt>
      <trkpt lat="46.61662" lon="5.88173">
        <ele>807.81896972656</ele>
        <time>2013-06-30T08:48:49.000Z</time>
      </trkpt>
      <trkpt lat="46.61667" lon="5.88171">
        <ele>808.10437011719</ele>
        <time>2013-06-30T08:48:51.000Z</time>
      </trkpt>
      <trkpt lat="46.61671" lon="5.88167">
        <ele>808.39654541016</ele>
        <time>2013-06-30T08:48:53.000Z</time>
      </trkpt>
      <trkpt lat="46.61676" lon="5.88163">
        <ele>808.72979736328</ele>
        <time>2013-06-30T08:48:55.000Z</time>
      </trkpt>
      <trkpt lat="46.61682" lon="5.88159">
        <ele>809.21319580078</ele>
        <time>2013-06-30T08:48:58.000Z</time>
      </trkpt>
      <trkpt lat="46.61687" lon="5.88156">
        <ele>809.47564697266</ele>
        <time>2013-06-30T08:49:00.000Z</time>
      </trkpt>
      <trkpt lat="46.61691" lon="5.88152">
        <ele>809.75335693359</ele>
        <time>2013-06-30T08:49:02.000Z</time>
      </trkpt>
      <trkpt lat="46.61696" lon="5.88148">
        <ele>810.02264404297</ele>
        <time>2013-06-30T08:49:04.000Z</time>
      </trkpt>
      <trkpt lat="46.617" lon="5.88145">
        <ele>810.26538085938</ele>
        <time>2013-06-30T08:49:06.000Z</time>
      </trkpt>
      <trkpt lat="46.61706" lon="5.88143">
        <ele>810.53186035156</ele>
        <time>2013-06-30T08:49:08.000Z</time>
      </trkpt>
      <trkpt lat="46.61711" lon="5.88142">
        <ele>810.75903320312</ele>
        <time>2013-06-30T08:49:10.000Z</time>
      </trkpt>
      <trkpt lat="46.61716" lon="5.8814">
        <ele>811.00830078125</ele>
        <time>2013-06-30T08:49:12.000Z</time>
      </trkpt>
      <trkpt lat="46.61721" lon="5.88138">
        <ele>811.28552246094</ele>
        <time>2013-06-30T08:49:14.000Z</time>
      </trkpt>
      <trkpt lat="46.61726" lon="5.88135">
        <ele>811.70739746094</ele>
        <time>2013-06-30T08:49:17.000Z</time>
      </trkpt>
      <trkpt lat="46.61733" lon="5.88134">
        <ele>812.13311767578</ele>
        <time>2013-06-30T08:49:20.000Z</time>
      </trkpt>
      <trkpt lat="46.61738" lon="5.88133">
        <ele>812.46264648438</ele>
        <time>2013-06-30T08:49:23.000Z</time>
      </trkpt>
      <trkpt lat="46.61742" lon="5.88129">
        <ele>812.740234375</ele>
        <time>2013-06-30T08:49:26.000Z</time>
      </trkpt>
      <trkpt lat="46.61748" lon="5.88125">
        <ele>813.00378417969</ele>
        <time>2013-06-30T08:49:29.000Z</time>
      </trkpt>
      <trkpt lat="46.61753" lon="5.88122">
        <ele>813.29168701172</ele>
        <time>2013-06-30T08:49:32.000Z</time>
      </trkpt>
      <trkpt lat="46.61759" lon="5.8812">
        <ele>813.65240478516</ele>
        <time>2013-06-30T08:49:35.000Z</time>
      </trkpt>
      <trkpt lat="46.61764" lon="5.88122">
        <ele>813.91943359375</ele>
        <time>2013-06-30T08:49:37.000Z</time>
      </trkpt>
      <trkpt lat="46.61769" lon="5.88124">
        <ele>814.31427001953</ele>
        <time>2013-06-30T08:49:40.000Z</time>
      </trkpt>
      <trkpt lat="46.61775" lon="5.88129">
        <ele>814.70062255859</ele>
        <time>2013-06-30T08:49:43.000Z</time>
      </trkpt>
      <trkpt lat="46.6178" lon="5.88133">
        <ele>814.98565673828</ele>
        <time>2013-06-30T08:49:45.000Z</time>
      </trkpt>
      <trkpt lat="46.61786" lon="5.88137">
        <ele>815.36303710938</ele>
        <time>2013-06-30T08:49:47.000Z</time>
      </trkpt>
      <trkpt lat="46.61792" lon="5.88141">
        <ele>815.77117919922</ele>
        <time>2013-06-30T08:49:49.000Z</time>
      </trkpt>
      <trkpt lat="46.61797" lon="5.88145">
        <ele>816.29779052734</ele>
        <time>2013-06-30T08:49:52.000Z</time>
      </trkpt>
      <trkpt lat="46.61802" lon="5.88148">
        <ele>816.59033203125</ele>
        <time>2013-06-30T08:49:54.000Z</time>
      </trkpt>
      <trkpt lat="46.61807" lon="5.88152">
        <ele>816.87506103516</ele>
        <time>2013-06-30T08:49:56.000Z</time>
      </trkpt>
      <trkpt lat="46.6181" lon="5.88155">
        <ele>817.14593505859</ele>
        <time>2013-06-30T08:49:58.000Z</time>
      </trkpt>
      <trkpt lat="46.61814" lon="5.88159">
        <ele>817.39184570312</ele>
        <time>2013-06-30T08:50:00.000Z</time>
      </trkpt>
      <trkpt lat="46.61819" lon="5.88162">
        <ele>817.61755371094</ele>
        <time>2013-06-30T08:50:02.000Z</time>
      </trkpt>
      <trkpt lat="46.61824" lon="5.88165">
        <ele>817.83770751953</ele>
        <time>2013-06-30T08:50:04.000Z</time>
      </trkpt>
      <trkpt lat="46.6183" lon="5.88167">
        <ele>818.02685546875</ele>
        <time>2013-06-30T08:50:06.000Z</time>
      </trkpt>
      <trkpt lat="46.61837" lon="5.88167">
        <ele>818.21948242188</ele>
        <time>2013-06-30T08:50:08.000Z</time>
      </trkpt>
      <trkpt lat="46.61843" lon="5.88168">
        <ele>818.4443359375</ele>
        <time>2013-06-30T08:50:10.000Z</time>
      </trkpt>
      <trkpt lat="46.61849" lon="5.88168">
        <ele>818.66125488281</ele>
        <time>2013-06-30T08:50:12.000Z</time>
      </trkpt>
      <trkpt lat="46.61854" lon="5.88167">
        <ele>818.87530517578</ele>
        <time>2013-06-30T08:50:14.000Z</time>
      </trkpt>
      <trkpt lat="46.61859" lon="5.88166">
        <ele>819.11566162109</ele>
        <time>2013-06-30T08:50:17.000Z</time>
      </trkpt>
      <trkpt lat="46.61863" lon="5.88164">
        <ele>819.26251220703</ele>
        <time>2013-06-30T08:50:19.000Z</time>
      </trkpt>
      <trkpt lat="46.61868" lon="5.88161">
        <ele>819.37469482422</ele>
        <time>2013-06-30T08:50:21.000Z</time>
      </trkpt>
      <trkpt lat="46.61872" lon="5.88158">
        <ele>819.48089599609</ele>
        <time>2013-06-30T08:50:23.000Z</time>
      </trkpt>
      <trkpt lat="46.61877" lon="5.88156">
        <ele>819.60705566406</ele>
        <time>2013-06-30T08:50:25.000Z</time>
      </trkpt>
      <trkpt lat="46.61883" lon="5.88152">
        <ele>819.87060546875</ele>
        <time>2013-06-30T08:50:28.000Z</time>
      </trkpt>
      <trkpt lat="46.61889" lon="5.88153">
        <ele>820.22668457031</ele>
        <time>2013-06-30T08:50:31.000Z</time>
      </trkpt>
      <trkpt lat="46.61894" lon="5.88156">
        <ele>820.47277832031</ele>
        <time>2013-06-30T08:50:33.000Z</time>
      </trkpt>
      <trkpt lat="46.61898" lon="5.8816">
        <ele>820.75109863281</ele>
        <time>2013-06-30T08:50:35.000Z</time>
      </trkpt>
      <trkpt lat="46.61902" lon="5.88165">
        <ele>820.93988037109</ele>
        <time>2013-06-30T08:50:37.000Z</time>
      </trkpt>
      <trkpt lat="46.61904" lon="5.88171">
        <ele>821.07904052734</ele>
        <time>2013-06-30T08:50:39.000Z</time>
      </trkpt>
      <trkpt lat="46.61905" lon="5.88178">
        <ele>821.24267578125</ele>
        <time>2013-06-30T08:50:41.000Z</time>
      </trkpt>
      <trkpt lat="46.61905" lon="5.88189">
        <ele>821.40618896484</ele>
        <time>2013-06-30T08:50:43.000Z</time>
      </trkpt>
      <trkpt lat="46.61905" lon="5.88201">
        <ele>821.54205322266</ele>
        <time>2013-06-30T08:50:45.000Z</time>
      </trkpt>
      <trkpt lat="46.61905" lon="5.8821">
        <ele>821.7236328125</ele>
        <time>2013-06-30T08:50:47.000Z</time>
      </trkpt>
      <trkpt lat="46.61904" lon="5.88219">
        <ele>821.93756103516</ele>
        <time>2013-06-30T08:50:49.000Z</time>
      </trkpt>
      <trkpt lat="46.61902" lon="5.88227">
        <ele>822.16253662109</ele>
        <time>2013-06-30T08:50:51.000Z</time>
      </trkpt>
      <trkpt lat="46.61898" lon="5.88238">
        <ele>822.32116699219</ele>
        <time>2013-06-30T08:50:53.000Z</time>
      </trkpt>
      <trkpt lat="46.61896" lon="5.88249">
        <ele>822.55834960938</ele>
        <time>2013-06-30T08:50:55.000Z</time>
      </trkpt>
      <trkpt lat="46.61895" lon="5.88258">
        <ele>822.84045410156</ele>
        <time>2013-06-30T08:50:57.000Z</time>
      </trkpt>
      <trkpt lat="46.61893" lon="5.88265">
        <ele>822.96295166016</ele>
        <time>2013-06-30T08:50:59.000Z</time>
      </trkpt>
      <trkpt lat="46.61891" lon="5.88273">
        <ele>823.09521484375</ele>
        <time>2013-06-30T08:51:01.000Z</time>
      </trkpt>
      <trkpt lat="46.61888" lon="5.88281">
        <ele>823.27325439453</ele>
        <time>2013-06-30T08:51:03.000Z</time>
      </trkpt>
      <trkpt lat="46.61885" lon="5.8829">
        <ele>823.45892333984</ele>
        <time>2013-06-30T08:51:05.000Z</time>
      </trkpt>
      <trkpt lat="46.61881" lon="5.88298">
        <ele>823.88519287109</ele>
        <time>2013-06-30T08:51:08.000Z</time>
      </trkpt>
      <trkpt lat="46.61877" lon="5.88307">
        <ele>824.15283203125</ele>
        <time>2013-06-30T08:51:11.000Z</time>
      </trkpt>
      <trkpt lat="46.61874" lon="5.88314">
        <ele>824.45471191406</ele>
        <time>2013-06-30T08:51:13.000Z</time>
      </trkpt>
      <trkpt lat="46.6187" lon="5.8832">
        <ele>824.78057861328</ele>
        <time>2013-06-30T08:51:15.000Z</time>
      </trkpt>
      <trkpt lat="46.61866" lon="5.88328">
        <ele>825.25341796875</ele>
        <time>2013-06-30T08:51:18.000Z</time>
      </trkpt>
      <trkpt lat="46.61863" lon="5.88333">
        <ele>825.62878417969</ele>
        <time>2013-06-30T08:51:21.000Z</time>
      </trkpt>
      <trkpt lat="46.6186" lon="5.88338">
        <ele>826.04284667969</ele>
        <time>2013-06-30T08:51:24.000Z</time>
      </trkpt>
      <trkpt lat="46.61855" lon="5.88345">
        <ele>826.41693115234</ele>
        <time>2013-06-30T08:51:27.000Z</time>
      </trkpt>
      <trkpt lat="46.61851" lon="5.8835">
        <ele>826.97906494141</ele>
        <time>2013-06-30T08:51:30.000Z</time>
      </trkpt>
      <trkpt lat="46.61847" lon="5.88355">
        <ele>827.73297119141</ele>
        <time>2013-06-30T08:51:33.000Z</time>
      </trkpt>
      <trkpt lat="46.61843" lon="5.88359">
        <ele>828.37005615234</ele>
        <time>2013-06-30T08:51:36.000Z</time>
      </trkpt>
      <trkpt lat="46.61838" lon="5.88364">
        <ele>829.35900878906</ele>
        <time>2013-06-30T08:51:40.000Z</time>
      </trkpt>
      <trkpt lat="46.61834" lon="5.88368">
        <ele>830.41625976562</ele>
        <time>2013-06-30T08:51:44.000Z</time>
      </trkpt>
      <trkpt lat="46.6183" lon="5.88371">
        <ele>831.45745849609</ele>
        <time>2013-06-30T08:51:48.000Z</time>
      </trkpt>
      <trkpt lat="46.61826" lon="5.88374">
        <ele>832.4794921875</ele>
        <time>2013-06-30T08:51:52.000Z</time>
      </trkpt>
      <trkpt lat="46.61822" lon="5.88379">
        <ele>834.41107177734</ele>
        <time>2013-06-30T08:52:00.000Z</time>
      </trkpt>
      <trkpt lat="46.61818" lon="5.88387">
        <ele>835.36846923828</ele>
        <time>2013-06-30T08:52:05.000Z</time>
      </trkpt>
      <trkpt lat="46.61815" lon="5.88394">
        <ele>836.26599121094</ele>
        <time>2013-06-30T08:52:09.000Z</time>
      </trkpt>
      <trkpt lat="46.61813" lon="5.88402">
        <ele>836.70910644531</ele>
        <time>2013-06-30T08:52:12.000Z</time>
      </trkpt>
      <trkpt lat="46.61813" lon="5.88411">
        <ele>836.83575439453</ele>
        <time>2013-06-30T08:52:14.000Z</time>
      </trkpt>
      <trkpt lat="46.61812" lon="5.88421">
        <ele>836.9091796875</ele>
        <time>2013-06-30T08:52:16.000Z</time>
      </trkpt>
      <trkpt lat="46.61812" lon="5.88432">
        <ele>837.2880859375</ele>
        <time>2013-06-30T08:52:18.000Z</time>
      </trkpt>
      <trkpt lat="46.61812" lon="5.88442">
        <ele>837.46411132812</ele>
        <time>2013-06-30T08:52:20.000Z</time>
      </trkpt>
      <trkpt lat="46.61811" lon="5.88452">
        <ele>837.58929443359</ele>
        <time>2013-06-30T08:52:22.000Z</time>
      </trkpt>
      <trkpt lat="46.6181" lon="5.8846">
        <ele>837.69982910156</ele>
        <time>2013-06-30T08:52:24.000Z</time>
      </trkpt>
      <trkpt lat="46.61809" lon="5.88467">
        <ele>837.78582763672</ele>
        <time>2013-06-30T08:52:26.000Z</time>
      </trkpt>
      <trkpt lat="46.61808" lon="5.88475">
        <ele>837.95190429688</ele>
        <time>2013-06-30T08:52:29.000Z</time>
      </trkpt>
      <trkpt lat="46.61808" lon="5.88482">
        <ele>838.17401123047</ele>
        <time>2013-06-30T08:52:31.000Z</time>
      </trkpt>
      <trkpt lat="46.61807" lon="5.88489">
        <ele>838.30450439453</ele>
        <time>2013-06-30T08:52:35.000Z</time>
      </trkpt>
      <trkpt lat="46.61809" lon="5.88497">
        <ele>838.39526367188</ele>
        <time>2013-06-30T08:52:38.000Z</time>
      </trkpt>
      <trkpt lat="46.61809" lon="5.88504">
        <ele>838.56176757812</ele>
        <time>2013-06-30T08:52:40.000Z</time>
      </trkpt>
      <trkpt lat="46.61807" lon="5.88512">
        <ele>838.74493408203</ele>
        <time>2013-06-30T08:52:42.000Z</time>
      </trkpt>
      <trkpt lat="46.61807" lon="5.88522">
        <ele>838.93298339844</ele>
        <time>2013-06-30T08:52:44.000Z</time>
      </trkpt>
      <trkpt lat="46.61807" lon="5.8853">
        <ele>839.14953613281</ele>
        <time>2013-06-30T08:52:46.000Z</time>
      </trkpt>
      <trkpt lat="46.61807" lon="5.88538">
        <ele>839.29302978516</ele>
        <time>2013-06-30T08:52:48.000Z</time>
      </trkpt>
      <trkpt lat="46.61808" lon="5.88548">
        <ele>839.39685058594</ele>
        <time>2013-06-30T08:52:50.000Z</time>
      </trkpt>
      <trkpt lat="46.61808" lon="5.88556">
        <ele>839.44647216797</ele>
        <time>2013-06-30T08:52:52.000Z</time>
      </trkpt>
      <trkpt lat="46.61808" lon="5.88564">
        <ele>839.41094970703</ele>
        <time>2013-06-30T08:52:54.000Z</time>
      </trkpt>
      <trkpt lat="46.61808" lon="5.88576">
        <ele>839.40100097656</ele>
        <time>2013-06-30T08:52:56.000Z</time>
      </trkpt>
      <trkpt lat="46.6181" lon="5.88589">
        <ele>839.38348388672</ele>
        <time>2013-06-30T08:52:58.000Z</time>
      </trkpt>
      <trkpt lat="46.61811" lon="5.88603">
        <ele>839.27532958984</ele>
        <time>2013-06-30T08:53:00.000Z</time>
      </trkpt>
      <trkpt lat="46.6181" lon="5.88615">
        <ele>838.76409912109</ele>
        <time>2013-06-30T08:53:02.000Z</time>
      </trkpt>
      <trkpt lat="46.61811" lon="5.88628">
        <ele>836.90972900391</ele>
        <time>2013-06-30T08:53:04.000Z</time>
      </trkpt>
      <trkpt lat="46.61815" lon="5.88639">
        <ele>835.18475341797</ele>
        <time>2013-06-30T08:53:06.000Z</time>
      </trkpt>
      <trkpt lat="46.6182" lon="5.88649">
        <ele>834.47332763672</ele>
        <time>2013-06-30T08:53:08.000Z</time>
      </trkpt>
      <trkpt lat="46.61824" lon="5.88663">
        <ele>834.13739013672</ele>
        <time>2013-06-30T08:53:10.000Z</time>
      </trkpt>
      <trkpt lat="46.61825" lon="5.88676">
        <ele>834.23114013672</ele>
        <time>2013-06-30T08:53:12.000Z</time>
      </trkpt>
      <trkpt lat="46.61827" lon="5.8869">
        <ele>834.16265869141</ele>
        <time>2013-06-30T08:53:14.000Z</time>
      </trkpt>
      <trkpt lat="46.6183" lon="5.88704">
        <ele>833.7470703125</ele>
        <time>2013-06-30T08:53:16.000Z</time>
      </trkpt>
      <trkpt lat="46.61834" lon="5.88719">
        <ele>832.10766601562</ele>
        <time>2013-06-30T08:53:18.000Z</time>
      </trkpt>
      <trkpt lat="46.61835" lon="5.88735">
        <ele>831.12371826172</ele>
        <time>2013-06-30T08:53:20.000Z</time>
      </trkpt>
      <trkpt lat="46.61835" lon="5.88751">
        <ele>830.35888671875</ele>
        <time>2013-06-30T08:53:22.000Z</time>
      </trkpt>
      <trkpt lat="46.61837" lon="5.88767">
        <ele>830.59698486328</ele>
        <time>2013-06-30T08:53:24.000Z</time>
      </trkpt>
      <trkpt lat="46.61838" lon="5.88787">
        <ele>830.98608398438</ele>
        <time>2013-06-30T08:53:26.000Z</time>
      </trkpt>
      <trkpt lat="46.61839" lon="5.88808">
        <ele>830.92614746094</ele>
        <time>2013-06-30T08:53:28.000Z</time>
      </trkpt>
      <trkpt lat="46.61836" lon="5.88826">
        <ele>830.45300292969</ele>
        <time>2013-06-30T08:53:30.000Z</time>
      </trkpt>
      <trkpt lat="46.61832" lon="5.88844">
        <ele>830.00610351562</ele>
        <time>2013-06-30T08:53:32.000Z</time>
      </trkpt>
      <trkpt lat="46.61829" lon="5.88863">
        <ele>829.76818847656</ele>
        <time>2013-06-30T08:53:34.000Z</time>
      </trkpt>
      <trkpt lat="46.61828" lon="5.88881">
        <ele>829.61517333984</ele>
        <time>2013-06-30T08:53:36.000Z</time>
      </trkpt>
      <trkpt lat="46.61827" lon="5.88899">
        <ele>829.72229003906</ele>
        <time>2013-06-30T08:53:38.000Z</time>
      </trkpt>
      <trkpt lat="46.61827" lon="5.88918">
        <ele>829.74475097656</ele>
        <time>2013-06-30T08:53:40.000Z</time>
      </trkpt>
      <trkpt lat="46.61825" lon="5.88937">
        <ele>829.84014892578</ele>
        <time>2013-06-30T08:53:42.000Z</time>
      </trkpt>
      <trkpt lat="46.6182" lon="5.88953">
        <ele>829.81243896484</ele>
        <time>2013-06-30T08:53:44.000Z</time>
      </trkpt>
      <trkpt lat="46.61813" lon="5.88965">
        <ele>829.89514160156</ele>
        <time>2013-06-30T08:53:46.000Z</time>
      </trkpt>
      <trkpt lat="46.61803" lon="5.88976">
        <ele>830.63836669922</ele>
        <time>2013-06-30T08:53:48.000Z</time>
      </trkpt>
      <trkpt lat="46.61793" lon="5.88987">
        <ele>831.03308105469</ele>
        <time>2013-06-30T08:53:50.000Z</time>
      </trkpt>
      <trkpt lat="46.61784" lon="5.88997">
        <ele>831.22644042969</ele>
        <time>2013-06-30T08:53:52.000Z</time>
      </trkpt>
      <trkpt lat="46.61773" lon="5.88998">
        <ele>830.23461914062</ele>
        <time>2013-06-30T08:53:54.000Z</time>
      </trkpt>
      <trkpt lat="46.61761" lon="5.88992">
        <ele>828.32604980469</ele>
        <time>2013-06-30T08:53:56.000Z</time>
      </trkpt>
      <trkpt lat="46.61753" lon="5.88983">
        <ele>826.73815917969</ele>
        <time>2013-06-30T08:53:58.000Z</time>
      </trkpt>
      <trkpt lat="46.61742" lon="5.88975">
        <ele>825.52368164062</ele>
        <time>2013-06-30T08:54:00.000Z</time>
      </trkpt>
      <trkpt lat="46.61733" lon="5.88967">
        <ele>824.34729003906</ele>
        <time>2013-06-30T08:54:02.000Z</time>
      </trkpt>
      <trkpt lat="46.61723" lon="5.88962">
        <ele>824.0634765625</ele>
        <time>2013-06-30T08:54:04.000Z</time>
      </trkpt>
      <trkpt lat="46.61714" lon="5.88959">
        <ele>823.60986328125</ele>
        <time>2013-06-30T08:54:06.000Z</time>
      </trkpt>
      <trkpt lat="46.61707" lon="5.88958">
        <ele>823.70520019531</ele>
        <time>2013-06-30T08:54:08.000Z</time>
      </trkpt>
      <trkpt lat="46.617" lon="5.88959">
        <ele>823.96704101562</ele>
        <time>2013-06-30T08:54:10.000Z</time>
      </trkpt>
      <trkpt lat="46.61689" lon="5.88964">
        <ele>826.11059570312</ele>
        <time>2013-06-30T08:54:12.000Z</time>
      </trkpt>
      <trkpt lat="46.61679" lon="5.88968">
        <ele>826.591796875</ele>
        <time>2013-06-30T08:54:14.000Z</time>
      </trkpt>
      <trkpt lat="46.61671" lon="5.88972">
        <ele>827.06134033203</ele>
        <time>2013-06-30T08:54:16.000Z</time>
      </trkpt>
      <trkpt lat="46.6166" lon="5.88983">
        <ele>830.48303222656</ele>
        <time>2013-06-30T08:54:18.000Z</time>
      </trkpt>
      <trkpt lat="46.6165" lon="5.88994">
        <ele>833.42687988281</ele>
        <time>2013-06-30T08:54:20.000Z</time>
      </trkpt>
      <trkpt lat="46.61646" lon="5.8901">
        <ele>833.97192382812</ele>
        <time>2013-06-30T08:54:22.000Z</time>
      </trkpt>
      <trkpt lat="46.61646" lon="5.89024">
        <ele>834.47485351562</ele>
        <time>2013-06-30T08:54:24.000Z</time>
      </trkpt>
      <trkpt lat="46.61641" lon="5.89042">
        <ele>834.92956542969</ele>
        <time>2013-06-30T08:54:26.000Z</time>
      </trkpt>
      <trkpt lat="46.61637" lon="5.89062">
        <ele>838.20538330078</ele>
        <time>2013-06-30T08:54:28.000Z</time>
      </trkpt>
      <trkpt lat="46.61628" lon="5.89075">
        <ele>838.91790771484</ele>
        <time>2013-06-30T08:54:30.000Z</time>
      </trkpt>
      <trkpt lat="46.61625" lon="5.89086">
        <ele>838.88098144531</ele>
        <time>2013-06-30T08:54:32.000Z</time>
      </trkpt>
      <trkpt lat="46.61625" lon="5.89099">
        <ele>838.89349365234</ele>
        <time>2013-06-30T08:54:34.000Z</time>
      </trkpt>
      <trkpt lat="46.61631" lon="5.89111">
        <ele>838.94921875</ele>
        <time>2013-06-30T08:54:36.000Z</time>
      </trkpt>
      <trkpt lat="46.61639" lon="5.89121">
        <ele>838.82501220703</ele>
        <time>2013-06-30T08:54:38.000Z</time>
      </trkpt>
      <trkpt lat="46.61647" lon="5.89128">
        <ele>838.67022705078</ele>
        <time>2013-06-30T08:54:40.000Z</time>
      </trkpt>
      <trkpt lat="46.61654" lon="5.89134">
        <ele>838.59423828125</ele>
        <time>2013-06-30T08:54:42.000Z</time>
      </trkpt>
      <trkpt lat="46.61661" lon="5.89139">
        <ele>838.50988769531</ele>
        <time>2013-06-30T08:54:44.000Z</time>
      </trkpt>
      <trkpt lat="46.61669" lon="5.89144">
        <ele>838.30938720703</ele>
        <time>2013-06-30T08:54:46.000Z</time>
      </trkpt>
      <trkpt lat="46.61678" lon="5.89149">
        <ele>837.46508789062</ele>
        <time>2013-06-30T08:54:48.000Z</time>
      </trkpt>
      <trkpt lat="46.61688" lon="5.89154">
        <ele>837.02447509766</ele>
        <time>2013-06-30T08:54:50.000Z</time>
      </trkpt>
      <trkpt lat="46.61696" lon="5.89159">
        <ele>837.0068359375</ele>
        <time>2013-06-30T08:54:52.000Z</time>
      </trkpt>
      <trkpt lat="46.61704" lon="5.89167">
        <ele>837.04791259766</ele>
        <time>2013-06-30T08:54:54.000Z</time>
      </trkpt>
      <trkpt lat="46.6171" lon="5.89175">
        <ele>837.00268554688</ele>
        <time>2013-06-30T08:54:56.000Z</time>
      </trkpt>
      <trkpt lat="46.61718" lon="5.89183">
        <ele>836.87329101562</ele>
        <time>2013-06-30T08:54:58.000Z</time>
      </trkpt>
      <trkpt lat="46.61726" lon="5.89195">
        <ele>836.64727783203</ele>
        <time>2013-06-30T08:55:00.000Z</time>
      </trkpt>
      <trkpt lat="46.61732" lon="5.89206">
        <ele>836.49432373047</ele>
        <time>2013-06-30T08:55:02.000Z</time>
      </trkpt>
      <trkpt lat="46.61738" lon="5.89214">
        <ele>836.34399414062</ele>
        <time>2013-06-30T08:55:04.000Z</time>
      </trkpt>
      <trkpt lat="46.61747" lon="5.89225">
        <ele>836.20172119141</ele>
        <time>2013-06-30T08:55:06.000Z</time>
      </trkpt>
      <trkpt lat="46.61756" lon="5.89233">
        <ele>836.01666259766</ele>
        <time>2013-06-30T08:55:08.000Z</time>
      </trkpt>
      <trkpt lat="46.61763" lon="5.89241">
        <ele>835.96789550781</ele>
        <time>2013-06-30T08:55:10.000Z</time>
      </trkpt>
      <trkpt lat="46.6177" lon="5.89248">
        <ele>836.00427246094</ele>
        <time>2013-06-30T08:55:12.000Z</time>
      </trkpt>
      <trkpt lat="46.61775" lon="5.89254">
        <ele>836.04223632812</ele>
        <time>2013-06-30T08:55:14.000Z</time>
      </trkpt>
      <trkpt lat="46.6178" lon="5.89262">
        <ele>835.95086669922</ele>
        <time>2013-06-30T08:55:16.000Z</time>
      </trkpt>
      <trkpt lat="46.61789" lon="5.89272">
        <ele>835.79058837891</ele>
        <time>2013-06-30T08:55:18.000Z</time>
      </trkpt>
      <trkpt lat="46.61799" lon="5.89285">
        <ele>835.70123291016</ele>
        <time>2013-06-30T08:55:20.000Z</time>
      </trkpt>
      <trkpt lat="46.61807" lon="5.89295">
        <ele>835.65374755859</ele>
        <time>2013-06-30T08:55:22.000Z</time>
      </trkpt>
      <trkpt lat="46.61813" lon="5.89306">
        <ele>835.63201904297</ele>
        <time>2013-06-30T08:55:24.000Z</time>
      </trkpt>
      <trkpt lat="46.61818" lon="5.89315">
        <ele>835.61822509766</ele>
        <time>2013-06-30T08:55:26.000Z</time>
      </trkpt>
      <trkpt lat="46.61823" lon="5.89325">
        <ele>835.49829101562</ele>
        <time>2013-06-30T08:55:28.000Z</time>
      </trkpt>
      <trkpt lat="46.61829" lon="5.89333">
        <ele>835.42810058594</ele>
        <time>2013-06-30T08:55:30.000Z</time>
      </trkpt>
      <trkpt lat="46.61836" lon="5.89345">
        <ele>835.3759765625</ele>
        <time>2013-06-30T08:55:32.000Z</time>
      </trkpt>
      <trkpt lat="46.61842" lon="5.89354">
        <ele>835.4306640625</ele>
        <time>2013-06-30T08:55:34.000Z</time>
      </trkpt>
      <trkpt lat="46.61847" lon="5.89362">
        <ele>835.63043212891</ele>
        <time>2013-06-30T08:55:36.000Z</time>
      </trkpt>
      <trkpt lat="46.61851" lon="5.89369">
        <ele>835.89349365234</ele>
        <time>2013-06-30T08:55:38.000Z</time>
      </trkpt>
      <trkpt lat="46.61856" lon="5.89378">
        <ele>836.06744384766</ele>
        <time>2013-06-30T08:55:40.000Z</time>
      </trkpt>
      <trkpt lat="46.61861" lon="5.89388">
        <ele>836.16632080078</ele>
        <time>2013-06-30T08:55:42.000Z</time>
      </trkpt>
      <trkpt lat="46.61867" lon="5.894">
        <ele>836.30047607422</ele>
        <time>2013-06-30T08:55:44.000Z</time>
      </trkpt>
      <trkpt lat="46.61872" lon="5.8941">
        <ele>836.35638427734</ele>
        <time>2013-06-30T08:55:46.000Z</time>
      </trkpt>
      <trkpt lat="46.61879" lon="5.89418">
        <ele>836.32208251953</ele>
        <time>2013-06-30T08:55:48.000Z</time>
      </trkpt>
      <trkpt lat="46.61885" lon="5.89426">
        <ele>836.33782958984</ele>
        <time>2013-06-30T08:55:50.000Z</time>
      </trkpt>
      <trkpt lat="46.61891" lon="5.89434">
        <ele>836.33160400391</ele>
        <time>2013-06-30T08:55:52.000Z</time>
      </trkpt>
      <trkpt lat="46.61899" lon="5.89444">
        <ele>836.25549316406</ele>
        <time>2013-06-30T08:55:54.000Z</time>
      </trkpt>
      <trkpt lat="46.61906" lon="5.89455">
        <ele>836.03527832031</ele>
        <time>2013-06-30T08:55:56.000Z</time>
      </trkpt>
      <trkpt lat="46.6191" lon="5.89466">
        <ele>835.82861328125</ele>
        <time>2013-06-30T08:55:58.000Z</time>
      </trkpt>
      <trkpt lat="46.61914" lon="5.89476">
        <ele>834.88037109375</ele>
        <time>2013-06-30T08:56:00.000Z</time>
      </trkpt>
      <trkpt lat="46.61917" lon="5.89487">
        <ele>834.73028564453</ele>
        <time>2013-06-30T08:56:02.000Z</time>
      </trkpt>
      <trkpt lat="46.61917" lon="5.89498">
        <ele>834.48657226562</ele>
        <time>2013-06-30T08:56:04.000Z</time>
      </trkpt>
      <trkpt lat="46.61917" lon="5.89508">
        <ele>834.39172363281</ele>
        <time>2013-06-30T08:56:06.000Z</time>
      </trkpt>
      <trkpt lat="46.61916" lon="5.89519">
        <ele>834.41888427734</ele>
        <time>2013-06-30T08:56:08.000Z</time>
      </trkpt>
      <trkpt lat="46.61919" lon="5.89531">
        <ele>834.564453125</ele>
        <time>2013-06-30T08:56:10.000Z</time>
      </trkpt>
      <trkpt lat="46.6192" lon="5.89543">
        <ele>834.61828613281</ele>
        <time>2013-06-30T08:56:12.000Z</time>
      </trkpt>
      <trkpt lat="46.61921" lon="5.89553">
        <ele>834.83520507812</ele>
        <time>2013-06-30T08:56:14.000Z</time>
      </trkpt>
      <trkpt lat="46.6192" lon="5.89561">
        <ele>834.99786376953</ele>
        <time>2013-06-30T08:56:16.000Z</time>
      </trkpt>
      <trkpt lat="46.61918" lon="5.89572">
        <ele>835.31481933594</ele>
        <time>2013-06-30T08:56:18.000Z</time>
      </trkpt>
      <trkpt lat="46.61917" lon="5.89581">
        <ele>835.58349609375</ele>
        <time>2013-06-30T08:56:20.000Z</time>
      </trkpt>
      <trkpt lat="46.61916" lon="5.89591">
        <ele>835.98504638672</ele>
        <time>2013-06-30T08:56:23.000Z</time>
      </trkpt>
      <trkpt lat="46.61918" lon="5.89596">
        <ele>836.48620605469</ele>
        <time>2013-06-30T08:56:25.000Z</time>
      </trkpt>
      <trkpt lat="46.61924" lon="5.89607">
        <ele>837.01147460938</ele>
        <time>2013-06-30T08:56:27.000Z</time>
      </trkpt>
      <trkpt lat="46.61935" lon="5.89619">
        <ele>837.57354736328</ele>
        <time>2013-06-30T08:56:29.000Z</time>
      </trkpt>
      <trkpt lat="46.61945" lon="5.89631">
        <ele>838.19134521484</ele>
        <time>2013-06-30T08:56:31.000Z</time>
      </trkpt>
      <trkpt lat="46.61952" lon="5.89642">
        <ele>838.70257568359</ele>
        <time>2013-06-30T08:56:33.000Z</time>
      </trkpt>
      <trkpt lat="46.61957" lon="5.8965">
        <ele>839.09008789062</ele>
        <time>2013-06-30T08:56:35.000Z</time>
      </trkpt>
      <trkpt lat="46.61964" lon="5.89659">
        <ele>839.47027587891</ele>
        <time>2013-06-30T08:56:37.000Z</time>
      </trkpt>
      <trkpt lat="46.61968" lon="5.89667">
        <ele>839.8193359375</ele>
        <time>2013-06-30T08:56:39.000Z</time>
      </trkpt>
      <trkpt lat="46.6197" lon="5.89678">
        <ele>840.28747558594</ele>
        <time>2013-06-30T08:56:41.000Z</time>
      </trkpt>
      <trkpt lat="46.61972" lon="5.89688">
        <ele>840.57214355469</ele>
        <time>2013-06-30T08:56:43.000Z</time>
      </trkpt>
      <trkpt lat="46.61973" lon="5.89701">
        <ele>840.92596435547</ele>
        <time>2013-06-30T08:56:45.000Z</time>
      </trkpt>
      <trkpt lat="46.61974" lon="5.89715">
        <ele>841.27362060547</ele>
        <time>2013-06-30T08:56:47.000Z</time>
      </trkpt>
      <trkpt lat="46.61976" lon="5.89724">
        <ele>841.57098388672</ele>
        <time>2013-06-30T08:56:49.000Z</time>
      </trkpt>
      <trkpt lat="46.61977" lon="5.89733">
        <ele>841.9169921875</ele>
        <time>2013-06-30T08:56:52.000Z</time>
      </trkpt>
      <trkpt lat="46.61978" lon="5.89741">
        <ele>842.11700439453</ele>
        <time>2013-06-30T08:56:54.000Z</time>
      </trkpt>
      <trkpt lat="46.61979" lon="5.89753">
        <ele>842.49157714844</ele>
        <time>2013-06-30T08:56:56.000Z</time>
      </trkpt>
      <trkpt lat="46.61981" lon="5.89763">
        <ele>842.87115478516</ele>
        <time>2013-06-30T08:56:58.000Z</time>
      </trkpt>
      <trkpt lat="46.61979" lon="5.89769">
        <ele>843.57696533203</ele>
        <time>2013-06-30T08:57:01.000Z</time>
      </trkpt>
      <trkpt lat="46.61975" lon="5.89777">
        <ele>843.9736328125</ele>
        <time>2013-06-30T08:57:04.000Z</time>
      </trkpt>
      <trkpt lat="46.61973" lon="5.89784">
        <ele>844.08721923828</ele>
        <time>2013-06-30T08:57:06.000Z</time>
      </trkpt>
      <trkpt lat="46.61971" lon="5.89796">
        <ele>844.21984863281</ele>
        <time>2013-06-30T08:57:08.000Z</time>
      </trkpt>
      <trkpt lat="46.61969" lon="5.89806">
        <ele>844.29315185547</ele>
        <time>2013-06-30T08:57:10.000Z</time>
      </trkpt>
      <trkpt lat="46.61967" lon="5.89815">
        <ele>844.37481689453</ele>
        <time>2013-06-30T08:57:12.000Z</time>
      </trkpt>
      <trkpt lat="46.61963" lon="5.89825">
        <ele>844.55358886719</ele>
        <time>2013-06-30T08:57:14.000Z</time>
      </trkpt>
      <trkpt lat="46.61957" lon="5.89835">
        <ele>844.81103515625</ele>
        <time>2013-06-30T08:57:16.000Z</time>
      </trkpt>
      <trkpt lat="46.61949" lon="5.89846">
        <ele>846.78546142578</ele>
        <time>2013-06-30T08:57:18.000Z</time>
      </trkpt>
      <trkpt lat="46.61942" lon="5.89854">
        <ele>848.20538330078</ele>
        <time>2013-06-30T08:57:20.000Z</time>
      </trkpt>
      <trkpt lat="46.61935" lon="5.89863">
        <ele>849.97106933594</ele>
        <time>2013-06-30T08:57:22.000Z</time>
      </trkpt>
      <trkpt lat="46.61929" lon="5.89872">
        <ele>850.50927734375</ele>
        <time>2013-06-30T08:57:24.000Z</time>
      </trkpt>
      <trkpt lat="46.61926" lon="5.89881">
        <ele>850.64788818359</ele>
        <time>2013-06-30T08:57:26.000Z</time>
      </trkpt>
      <trkpt lat="46.61923" lon="5.8989">
        <ele>850.74975585938</ele>
        <time>2013-06-30T08:57:28.000Z</time>
      </trkpt>
      <trkpt lat="46.61919" lon="5.89901">
        <ele>850.90814208984</ele>
        <time>2013-06-30T08:57:30.000Z</time>
      </trkpt>
      <trkpt lat="46.6192" lon="5.8991">
        <ele>851.32934570312</ele>
        <time>2013-06-30T08:57:32.000Z</time>
      </trkpt>
      <trkpt lat="46.61923" lon="5.8992">
        <ele>851.853515625</ele>
        <time>2013-06-30T08:57:34.000Z</time>
      </trkpt>
      <trkpt lat="46.61927" lon="5.89928">
        <ele>852.15100097656</ele>
        <time>2013-06-30T08:57:36.000Z</time>
      </trkpt>
      <trkpt lat="46.61929" lon="5.89939">
        <ele>852.35491943359</ele>
        <time>2013-06-30T08:57:38.000Z</time>
      </trkpt>
      <trkpt lat="46.61927" lon="5.89954">
        <ele>852.51708984375</ele>
        <time>2013-06-30T08:57:40.000Z</time>
      </trkpt>
      <trkpt lat="46.61924" lon="5.89967">
        <ele>852.47418212891</ele>
        <time>2013-06-30T08:57:42.000Z</time>
      </trkpt>
      <trkpt lat="46.61927" lon="5.89979">
        <ele>852.45257568359</ele>
        <time>2013-06-30T08:57:44.000Z</time>
      </trkpt>
      <trkpt lat="46.61932" lon="5.89993">
        <ele>852.38494873047</ele>
        <time>2013-06-30T08:57:46.000Z</time>
      </trkpt>
      <trkpt lat="46.61939" lon="5.90007">
        <ele>852.31085205078</ele>
        <time>2013-06-30T08:57:48.000Z</time>
      </trkpt>
      <trkpt lat="46.61946" lon="5.9002">
        <ele>852.26287841797</ele>
        <time>2013-06-30T08:57:50.000Z</time>
      </trkpt>
      <trkpt lat="46.61955" lon="5.90035">
        <ele>852.27886962891</ele>
        <time>2013-06-30T08:57:52.000Z</time>
      </trkpt>
      <trkpt lat="46.61962" lon="5.9005">
        <ele>852.54608154297</ele>
        <time>2013-06-30T08:57:54.000Z</time>
      </trkpt>
      <trkpt lat="46.61968" lon="5.90065">
        <ele>852.4384765625</ele>
        <time>2013-06-30T08:57:56.000Z</time>
      </trkpt>
      <trkpt lat="46.61969" lon="5.90076">
        <ele>852.42657470703</ele>
        <time>2013-06-30T08:57:58.000Z</time>
      </trkpt>
      <trkpt lat="46.61967" lon="5.90092">
        <ele>852.51806640625</ele>
        <time>2013-06-30T08:58:00.000Z</time>
      </trkpt>
      <trkpt lat="46.61972" lon="5.90107">
        <ele>853.23858642578</ele>
        <time>2013-06-30T08:58:02.000Z</time>
      </trkpt>
      <trkpt lat="46.61978" lon="5.90125">
        <ele>854.69396972656</ele>
        <time>2013-06-30T08:58:04.000Z</time>
      </trkpt>
      <trkpt lat="46.61979" lon="5.90149">
        <ele>854.71942138672</ele>
        <time>2013-06-30T08:58:06.000Z</time>
      </trkpt>
      <trkpt lat="46.61978" lon="5.90167">
        <ele>853.29235839844</ele>
        <time>2013-06-30T08:58:08.000Z</time>
      </trkpt>
      <trkpt lat="46.61978" lon="5.90186">
        <ele>851.32940673828</ele>
        <time>2013-06-30T08:58:10.000Z</time>
      </trkpt>
      <trkpt lat="46.6198" lon="5.90203">
        <ele>850.68316650391</ele>
        <time>2013-06-30T08:58:12.000Z</time>
      </trkpt>
      <trkpt lat="46.61986" lon="5.90222">
        <ele>850.69482421875</ele>
        <time>2013-06-30T08:58:14.000Z</time>
      </trkpt>
      <trkpt lat="46.61992" lon="5.9024">
        <ele>850.53021240234</ele>
        <time>2013-06-30T08:58:16.000Z</time>
      </trkpt>
      <trkpt lat="46.62001" lon="5.90255">
        <ele>850.65112304688</ele>
        <time>2013-06-30T08:58:18.000Z</time>
      </trkpt>
      <trkpt lat="46.62008" lon="5.90268">
        <ele>850.11187744141</ele>
        <time>2013-06-30T08:58:20.000Z</time>
      </trkpt>
      <trkpt lat="46.62015" lon="5.90273">
        <ele>849.97784423828</ele>
        <time>2013-06-30T08:58:22.000Z</time>
      </trkpt>
      <trkpt lat="46.62019" lon="5.90277">
        <ele>849.88153076172</ele>
        <time>2013-06-30T08:58:24.000Z</time>
      </trkpt>
      <trkpt lat="46.62025" lon="5.90283">
        <ele>849.52294921875</ele>
        <time>2013-06-30T08:58:29.000Z</time>
      </trkpt>
      <trkpt lat="46.62029" lon="5.90289">
        <ele>848.78863525391</ele>
        <time>2013-06-30T08:58:32.000Z</time>
      </trkpt>
      <trkpt lat="46.62031" lon="5.90295">
        <ele>846.88537597656</ele>
        <time>2013-06-30T08:58:39.000Z</time>
      </trkpt>
      <trkpt lat="46.62032" lon="5.90305">
        <ele>846.17370605469</ele>
        <time>2013-06-30T08:58:42.000Z</time>
      </trkpt>
      <trkpt lat="46.62036" lon="5.90313">
        <ele>845.72729492188</ele>
        <time>2013-06-30T08:58:44.000Z</time>
      </trkpt>
      <trkpt lat="46.6204" lon="5.90323">
        <ele>845.45874023438</ele>
        <time>2013-06-30T08:58:46.000Z</time>
      </trkpt>
      <trkpt lat="46.6204" lon="5.9033">
        <ele>845.34075927734</ele>
        <time>2013-06-30T08:58:48.000Z</time>
      </trkpt>
      <trkpt lat="46.62045" lon="5.90344">
        <ele>844.64154052734</ele>
        <time>2013-06-30T08:58:50.000Z</time>
      </trkpt>
      <trkpt lat="46.62051" lon="5.90356">
        <ele>844.59686279297</ele>
        <time>2013-06-30T08:58:52.000Z</time>
      </trkpt>
      <trkpt lat="46.62059" lon="5.90371">
        <ele>844.03363037109</ele>
        <time>2013-06-30T08:58:54.000Z</time>
      </trkpt>
      <trkpt lat="46.62067" lon="5.90382">
        <ele>843.80816650391</ele>
        <time>2013-06-30T08:58:56.000Z</time>
      </trkpt>
      <trkpt lat="46.62078" lon="5.90395">
        <ele>842.57055664062</ele>
        <time>2013-06-30T08:58:58.000Z</time>
      </trkpt>
      <trkpt lat="46.62091" lon="5.90407">
        <ele>841.45495605469</ele>
        <time>2013-06-30T08:59:00.000Z</time>
      </trkpt>
      <trkpt lat="46.62104" lon="5.9042">
        <ele>840.35467529297</ele>
        <time>2013-06-30T08:59:02.000Z</time>
      </trkpt>
      <trkpt lat="46.62114" lon="5.90433">
        <ele>840.08587646484</ele>
        <time>2013-06-30T08:59:04.000Z</time>
      </trkpt>
      <trkpt lat="46.62123" lon="5.90447">
        <ele>841.04766845703</ele>
        <time>2013-06-30T08:59:06.000Z</time>
      </trkpt>
      <trkpt lat="46.62133" lon="5.90461">
        <ele>841.05157470703</ele>
        <time>2013-06-30T08:59:08.000Z</time>
      </trkpt>
      <trkpt lat="46.62144" lon="5.90476">
        <ele>839.76416015625</ele>
        <time>2013-06-30T08:59:10.000Z</time>
      </trkpt>
      <trkpt lat="46.62154" lon="5.9049">
        <ele>838.38104248047</ele>
        <time>2013-06-30T08:59:12.000Z</time>
      </trkpt>
      <trkpt lat="46.62162" lon="5.90503">
        <ele>836.55151367188</ele>
        <time>2013-06-30T08:59:14.000Z</time>
      </trkpt>
      <trkpt lat="46.62171" lon="5.90518">
        <ele>835.40142822266</ele>
        <time>2013-06-30T08:59:16.000Z</time>
      </trkpt>
      <trkpt lat="46.6218" lon="5.90532">
        <ele>834.37475585938</ele>
        <time>2013-06-30T08:59:18.000Z</time>
      </trkpt>
      <trkpt lat="46.62188" lon="5.90546">
        <ele>833.90765380859</ele>
        <time>2013-06-30T08:59:20.000Z</time>
      </trkpt>
      <trkpt lat="46.62197" lon="5.90561">
        <ele>834.28509521484</ele>
        <time>2013-06-30T08:59:22.000Z</time>
      </trkpt>
      <trkpt lat="46.62206" lon="5.90578">
        <ele>834.20050048828</ele>
        <time>2013-06-30T08:59:24.000Z</time>
      </trkpt>
      <trkpt lat="46.62212" lon="5.90593">
        <ele>833.54119873047</ele>
        <time>2013-06-30T08:59:26.000Z</time>
      </trkpt>
      <trkpt lat="46.62217" lon="5.90606">
        <ele>832.54357910156</ele>
        <time>2013-06-30T08:59:28.000Z</time>
      </trkpt>
      <trkpt lat="46.62223" lon="5.9062">
        <ele>833.05603027344</ele>
        <time>2013-06-30T08:59:30.000Z</time>
      </trkpt>
      <trkpt lat="46.62229" lon="5.90635">
        <ele>833.33489990234</ele>
        <time>2013-06-30T08:59:32.000Z</time>
      </trkpt>
      <trkpt lat="46.62235" lon="5.90647">
        <ele>833.23254394531</ele>
        <time>2013-06-30T08:59:34.000Z</time>
      </trkpt>
      <trkpt lat="46.62242" lon="5.90658">
        <ele>833.15582275391</ele>
        <time>2013-06-30T08:59:36.000Z</time>
      </trkpt>
      <trkpt lat="46.62249" lon="5.90664">
        <ele>833.26428222656</ele>
        <time>2013-06-30T08:59:38.000Z</time>
      </trkpt>
      <trkpt lat="46.62256" lon="5.90673">
        <ele>833.34136962891</ele>
        <time>2013-06-30T08:59:40.000Z</time>
      </trkpt>
      <trkpt lat="46.62263" lon="5.9068">
        <ele>833.34332275391</ele>
        <time>2013-06-30T08:59:42.000Z</time>
      </trkpt>
      <trkpt lat="46.6227" lon="5.90688">
        <ele>833.40191650391</ele>
        <time>2013-06-30T08:59:44.000Z</time>
      </trkpt>
      <trkpt lat="46.62277" lon="5.90701">
        <ele>834.20892333984</ele>
        <time>2013-06-30T08:59:46.000Z</time>
      </trkpt>
      <trkpt lat="46.62284" lon="5.90716">
        <ele>832.00262451172</ele>
        <time>2013-06-30T08:59:48.000Z</time>
      </trkpt>
      <trkpt lat="46.6229" lon="5.90727">
        <ele>829.22088623047</ele>
        <time>2013-06-30T08:59:50.000Z</time>
      </trkpt>
      <trkpt lat="46.62297" lon="5.9074">
        <ele>828.76831054688</ele>
        <time>2013-06-30T08:59:52.000Z</time>
      </trkpt>
      <trkpt lat="46.62306" lon="5.90751">
        <ele>828.91656494141</ele>
        <time>2013-06-30T08:59:54.000Z</time>
      </trkpt>
      <trkpt lat="46.62315" lon="5.90763">
        <ele>828.39013671875</ele>
        <time>2013-06-30T08:59:56.000Z</time>
      </trkpt>
      <trkpt lat="46.62325" lon="5.90773">
        <ele>828.12353515625</ele>
        <time>2013-06-30T08:59:58.000Z</time>
      </trkpt>
      <trkpt lat="46.62336" lon="5.90783">
        <ele>828.35375976562</ele>
        <time>2013-06-30T09:00:00.000Z</time>
      </trkpt>
      <trkpt lat="46.62347" lon="5.90793">
        <ele>828.82446289062</ele>
        <time>2013-06-30T09:00:02.000Z</time>
      </trkpt>
      <trkpt lat="46.62358" lon="5.908">
        <ele>828.33752441406</ele>
        <time>2013-06-30T09:00:04.000Z</time>
      </trkpt>
      <trkpt lat="46.62368" lon="5.90807">
        <ele>827.77270507812</ele>
        <time>2013-06-30T09:00:06.000Z</time>
      </trkpt>
      <trkpt lat="46.62377" lon="5.90813">
        <ele>827.08520507812</ele>
        <time>2013-06-30T09:00:08.000Z</time>
      </trkpt>
      <trkpt lat="46.62386" lon="5.90818">
        <ele>826.97357177734</ele>
        <time>2013-06-30T09:00:10.000Z</time>
      </trkpt>
      <trkpt lat="46.62398" lon="5.90827">
        <ele>827.10217285156</ele>
        <time>2013-06-30T09:00:12.000Z</time>
      </trkpt>
      <trkpt lat="46.62409" lon="5.90837">
        <ele>827.51892089844</ele>
        <time>2013-06-30T09:00:14.000Z</time>
      </trkpt>
      <trkpt lat="46.62421" lon="5.90848">
        <ele>828.01928710938</ele>
        <time>2013-06-30T09:00:16.000Z</time>
      </trkpt>
      <trkpt lat="46.62432" lon="5.90857">
        <ele>828.97015380859</ele>
        <time>2013-06-30T09:00:18.000Z</time>
      </trkpt>
      <trkpt lat="46.62443" lon="5.90867">
        <ele>829.51629638672</ele>
        <time>2013-06-30T09:00:20.000Z</time>
      </trkpt>
      <trkpt lat="46.62454" lon="5.90877">
        <ele>829.46673583984</ele>
        <time>2013-06-30T09:00:22.000Z</time>
      </trkpt>
      <trkpt lat="46.62465" lon="5.90886">
        <ele>828.72808837891</ele>
        <time>2013-06-30T09:00:24.000Z</time>
      </trkpt>
      <trkpt lat="46.62474" lon="5.90894">
        <ele>828.47375488281</ele>
        <time>2013-06-30T09:00:26.000Z</time>
      </trkpt>
      <trkpt lat="46.62484" lon="5.90904">
        <ele>828.32208251953</ele>
        <time>2013-06-30T09:00:28.000Z</time>
      </trkpt>
      <trkpt lat="46.62495" lon="5.90914">
        <ele>828.83813476562</ele>
        <time>2013-06-30T09:00:30.000Z</time>
      </trkpt>
      <trkpt lat="46.62505" lon="5.90927">
        <ele>828.89685058594</ele>
        <time>2013-06-30T09:00:32.000Z</time>
      </trkpt>
      <trkpt lat="46.62515" lon="5.9094">
        <ele>829.14776611328</ele>
        <time>2013-06-30T09:00:34.000Z</time>
      </trkpt>
      <trkpt lat="46.62523" lon="5.90953">
        <ele>829.63928222656</ele>
        <time>2013-06-30T09:00:36.000Z</time>
      </trkpt>
      <trkpt lat="46.62532" lon="5.90967">
        <ele>830.34924316406</ele>
        <time>2013-06-30T09:00:38.000Z</time>
      </trkpt>
      <trkpt lat="46.62541" lon="5.9098">
        <ele>830.64849853516</ele>
        <time>2013-06-30T09:00:40.000Z</time>
      </trkpt>
      <trkpt lat="46.62549" lon="5.90993">
        <ele>830.28552246094</ele>
        <time>2013-06-30T09:00:42.000Z</time>
      </trkpt>
      <trkpt lat="46.62557" lon="5.91004">
        <ele>829.80065917969</ele>
        <time>2013-06-30T09:00:44.000Z</time>
      </trkpt>
      <trkpt lat="46.62564" lon="5.91014">
        <ele>829.25335693359</ele>
        <time>2013-06-30T09:00:46.000Z</time>
      </trkpt>
      <trkpt lat="46.62573" lon="5.91024">
        <ele>828.70941162109</ele>
        <time>2013-06-30T09:00:48.000Z</time>
      </trkpt>
      <trkpt lat="46.62585" lon="5.91036">
        <ele>827.94274902344</ele>
        <time>2013-06-30T09:00:50.000Z</time>
      </trkpt>
      <trkpt lat="46.62594" lon="5.91048">
        <ele>828.18969726562</ele>
        <time>2013-06-30T09:00:52.000Z</time>
      </trkpt>
      <trkpt lat="46.62603" lon="5.91058">
        <ele>828.35321044922</ele>
        <time>2013-06-30T09:00:54.000Z</time>
      </trkpt>
      <trkpt lat="46.62613" lon="5.91071">
        <ele>828.12823486328</ele>
        <time>2013-06-30T09:00:56.000Z</time>
      </trkpt>
      <trkpt lat="46.62622" lon="5.91082">
        <ele>827.56884765625</ele>
        <time>2013-06-30T09:00:58.000Z</time>
      </trkpt>
      <trkpt lat="46.62631" lon="5.91095">
        <ele>827.11431884766</ele>
        <time>2013-06-30T09:01:00.000Z</time>
      </trkpt>
      <trkpt lat="46.6264" lon="5.91108">
        <ele>826.92779541016</ele>
        <time>2013-06-30T09:01:02.000Z</time>
      </trkpt>
      <trkpt lat="46.62649" lon="5.91119">
        <ele>826.91149902344</ele>
        <time>2013-06-30T09:01:04.000Z</time>
      </trkpt>
      <trkpt lat="46.62656" lon="5.91126">
        <ele>826.75659179688</ele>
        <time>2013-06-30T09:01:06.000Z</time>
      </trkpt>
      <trkpt lat="46.62662" lon="5.91132">
        <ele>826.70220947266</ele>
        <time>2013-06-30T09:01:08.000Z</time>
      </trkpt>
      <trkpt lat="46.62668" lon="5.91141">
        <ele>826.8349609375</ele>
        <time>2013-06-30T09:01:10.000Z</time>
      </trkpt>
      <trkpt lat="46.62676" lon="5.91151">
        <ele>826.85473632812</ele>
        <time>2013-06-30T09:01:12.000Z</time>
      </trkpt>
      <trkpt lat="46.62686" lon="5.91163">
        <ele>825.41009521484</ele>
        <time>2013-06-30T09:01:14.000Z</time>
      </trkpt>
      <trkpt lat="46.62695" lon="5.91173">
        <ele>824.41455078125</ele>
        <time>2013-06-30T09:01:16.000Z</time>
      </trkpt>
      <trkpt lat="46.62704" lon="5.91181">
        <ele>824.41973876953</ele>
        <time>2013-06-30T09:01:18.000Z</time>
      </trkpt>
      <trkpt lat="46.62712" lon="5.91188">
        <ele>824.78460693359</ele>
        <time>2013-06-30T09:01:20.000Z</time>
      </trkpt>
      <trkpt lat="46.62719" lon="5.91197">
        <ele>825.21356201172</ele>
        <time>2013-06-30T09:01:22.000Z</time>
      </trkpt>
      <trkpt lat="46.62727" lon="5.91207">
        <ele>825.91009521484</ele>
        <time>2013-06-30T09:01:24.000Z</time>
      </trkpt>
      <trkpt lat="46.62734" lon="5.91216">
        <ele>826.74810791016</ele>
        <time>2013-06-30T09:01:26.000Z</time>
      </trkpt>
      <trkpt lat="46.62742" lon="5.91225">
        <ele>826.42791748047</ele>
        <time>2013-06-30T09:01:28.000Z</time>
      </trkpt>
      <trkpt lat="46.6275" lon="5.91234">
        <ele>826.72216796875</ele>
        <time>2013-06-30T09:01:30.000Z</time>
      </trkpt>
      <trkpt lat="46.62758" lon="5.91242">
        <ele>827.63720703125</ele>
        <time>2013-06-30T09:01:32.000Z</time>
      </trkpt>
      <trkpt lat="46.62768" lon="5.9125">
        <ele>827.40686035156</ele>
        <time>2013-06-30T09:01:34.000Z</time>
      </trkpt>
      <trkpt lat="46.62778" lon="5.91258">
        <ele>826.59777832031</ele>
        <time>2013-06-30T09:01:36.000Z</time>
      </trkpt>
      <trkpt lat="46.62787" lon="5.91268">
        <ele>826.86120605469</ele>
        <time>2013-06-30T09:01:38.000Z</time>
      </trkpt>
      <trkpt lat="46.62796" lon="5.91277">
        <ele>826.931640625</ele>
        <time>2013-06-30T09:01:40.000Z</time>
      </trkpt>
      <trkpt lat="46.62806" lon="5.91286">
        <ele>827.98321533203</ele>
        <time>2013-06-30T09:01:42.000Z</time>
      </trkpt>
      <trkpt lat="46.62815" lon="5.91292">
        <ele>829.20123291016</ele>
        <time>2013-06-30T09:01:44.000Z</time>
      </trkpt>
      <trkpt lat="46.62826" lon="5.91299">
        <ele>829.14794921875</ele>
        <time>2013-06-30T09:01:46.000Z</time>
      </trkpt>
      <trkpt lat="46.62836" lon="5.91307">
        <ele>828.35925292969</ele>
        <time>2013-06-30T09:01:48.000Z</time>
      </trkpt>
      <trkpt lat="46.62847" lon="5.91318">
        <ele>829.39862060547</ele>
        <time>2013-06-30T09:01:50.000Z</time>
      </trkpt>
      <trkpt lat="46.62858" lon="5.9133">
        <ele>829.53533935547</ele>
        <time>2013-06-30T09:01:52.000Z</time>
      </trkpt>
      <trkpt lat="46.62867" lon="5.91343">
        <ele>828.49584960938</ele>
        <time>2013-06-30T09:01:54.000Z</time>
      </trkpt>
      <trkpt lat="46.62876" lon="5.91355">
        <ele>827.25665283203</ele>
        <time>2013-06-30T09:01:56.000Z</time>
      </trkpt>
      <trkpt lat="46.62884" lon="5.91366">
        <ele>826.09338378906</ele>
        <time>2013-06-30T09:01:58.000Z</time>
      </trkpt>
      <trkpt lat="46.62892" lon="5.91375">
        <ele>825.82470703125</ele>
        <time>2013-06-30T09:02:00.000Z</time>
      </trkpt>
      <trkpt lat="46.62901" lon="5.91384">
        <ele>825.73107910156</ele>
        <time>2013-06-30T09:02:02.000Z</time>
      </trkpt>
      <trkpt lat="46.62908" lon="5.91392">
        <ele>826.40460205078</ele>
        <time>2013-06-30T09:02:04.000Z</time>
      </trkpt>
      <trkpt lat="46.62916" lon="5.91402">
        <ele>827.41778564453</ele>
        <time>2013-06-30T09:02:06.000Z</time>
      </trkpt>
      <trkpt lat="46.62923" lon="5.91413">
        <ele>828.33239746094</ele>
        <time>2013-06-30T09:02:08.000Z</time>
      </trkpt>
      <trkpt lat="46.6293" lon="5.91425">
        <ele>829.54400634766</ele>
        <time>2013-06-30T09:02:10.000Z</time>
      </trkpt>
      <trkpt lat="46.62936" lon="5.91436">
        <ele>829.74615478516</ele>
        <time>2013-06-30T09:02:12.000Z</time>
      </trkpt>
      <trkpt lat="46.62941" lon="5.91445">
        <ele>829.71234130859</ele>
        <time>2013-06-30T09:02:14.000Z</time>
      </trkpt>
      <trkpt lat="46.62947" lon="5.91456">
        <ele>829.14703369141</ele>
        <time>2013-06-30T09:02:16.000Z</time>
      </trkpt>
      <trkpt lat="46.62953" lon="5.91467">
        <ele>828.56750488281</ele>
        <time>2013-06-30T09:02:18.000Z</time>
      </trkpt>
      <trkpt lat="46.6296" lon="5.91478">
        <ele>827.68640136719</ele>
        <time>2013-06-30T09:02:20.000Z</time>
      </trkpt>
      <trkpt lat="46.62967" lon="5.91487">
        <ele>827.95220947266</ele>
        <time>2013-06-30T09:02:22.000Z</time>
      </trkpt>
      <trkpt lat="46.62974" lon="5.91497">
        <ele>828.20068359375</ele>
        <time>2013-06-30T09:02:24.000Z</time>
      </trkpt>
      <trkpt lat="46.62984" lon="5.91509">
        <ele>828.39929199219</ele>
        <time>2013-06-30T09:02:26.000Z</time>
      </trkpt>
      <trkpt lat="46.62993" lon="5.9152">
        <ele>828.53338623047</ele>
        <time>2013-06-30T09:02:28.000Z</time>
      </trkpt>
      <trkpt lat="46.63001" lon="5.91531">
        <ele>829.09631347656</ele>
        <time>2013-06-30T09:02:30.000Z</time>
      </trkpt>
      <trkpt lat="46.63009" lon="5.91542">
        <ele>830.349609375</ele>
        <time>2013-06-30T09:02:32.000Z</time>
      </trkpt>
      <trkpt lat="46.63016" lon="5.91553">
        <ele>830.90509033203</ele>
        <time>2013-06-30T09:02:34.000Z</time>
      </trkpt>
      <trkpt lat="46.63021" lon="5.91562">
        <ele>830.81689453125</ele>
        <time>2013-06-30T09:02:36.000Z</time>
      </trkpt>
      <trkpt lat="46.63029" lon="5.91576">
        <ele>830.19024658203</ele>
        <time>2013-06-30T09:02:38.000Z</time>
      </trkpt>
      <trkpt lat="46.63037" lon="5.91591">
        <ele>829.64569091797</ele>
        <time>2013-06-30T09:02:40.000Z</time>
      </trkpt>
      <trkpt lat="46.63045" lon="5.91605">
        <ele>829.05590820312</ele>
        <time>2013-06-30T09:02:42.000Z</time>
      </trkpt>
      <trkpt lat="46.63051" lon="5.91617">
        <ele>828.35870361328</ele>
        <time>2013-06-30T09:02:44.000Z</time>
      </trkpt>
      <trkpt lat="46.63057" lon="5.91629">
        <ele>827.55297851562</ele>
        <time>2013-06-30T09:02:46.000Z</time>
      </trkpt>
      <trkpt lat="46.63062" lon="5.91641">
        <ele>827.06799316406</ele>
        <time>2013-06-30T09:02:48.000Z</time>
      </trkpt>
      <trkpt lat="46.63068" lon="5.91655">
        <ele>826.93176269531</ele>
        <time>2013-06-30T09:02:50.000Z</time>
      </trkpt>
      <trkpt lat="46.63076" lon="5.91669">
        <ele>827.15460205078</ele>
        <time>2013-06-30T09:02:52.000Z</time>
      </trkpt>
      <trkpt lat="46.63081" lon="5.9168">
        <ele>828.87719726562</ele>
        <time>2013-06-30T09:02:54.000Z</time>
      </trkpt>
      <trkpt lat="46.63088" lon="5.91692">
        <ele>829.84582519531</ele>
        <time>2013-06-30T09:02:56.000Z</time>
      </trkpt>
      <trkpt lat="46.63093" lon="5.91704">
        <ele>831.3369140625</ele>
        <time>2013-06-30T09:02:58.000Z</time>
      </trkpt>
      <trkpt lat="46.63101" lon="5.9172">
        <ele>832.60339355469</ele>
        <time>2013-06-30T09:03:00.000Z</time>
      </trkpt>
      <trkpt lat="46.63109" lon="5.91734">
        <ele>833.076171875</ele>
        <time>2013-06-30T09:03:02.000Z</time>
      </trkpt>
      <trkpt lat="46.63116" lon="5.91747">
        <ele>832.37756347656</ele>
        <time>2013-06-30T09:03:04.000Z</time>
      </trkpt>
      <trkpt lat="46.63124" lon="5.91759">
        <ele>831.03912353516</ele>
        <time>2013-06-30T09:03:06.000Z</time>
      </trkpt>
      <trkpt lat="46.63131" lon="5.91772">
        <ele>830.18005371094</ele>
        <time>2013-06-30T09:03:08.000Z</time>
      </trkpt>
      <trkpt lat="46.63139" lon="5.91786">
        <ele>829.96618652344</ele>
        <time>2013-06-30T09:03:10.000Z</time>
      </trkpt>
      <trkpt lat="46.63147" lon="5.91799">
        <ele>829.66186523438</ele>
        <time>2013-06-30T09:03:12.000Z</time>
      </trkpt>
      <trkpt lat="46.63156" lon="5.91812">
        <ele>829.19287109375</ele>
        <time>2013-06-30T09:03:14.000Z</time>
      </trkpt>
      <trkpt lat="46.63165" lon="5.91822">
        <ele>828.28784179688</ele>
        <time>2013-06-30T09:03:16.000Z</time>
      </trkpt>
      <trkpt lat="46.63175" lon="5.91832">
        <ele>828.06115722656</ele>
        <time>2013-06-30T09:03:18.000Z</time>
      </trkpt>
      <trkpt lat="46.63184" lon="5.91842">
        <ele>827.5791015625</ele>
        <time>2013-06-30T09:03:20.000Z</time>
      </trkpt>
      <trkpt lat="46.63193" lon="5.91853">
        <ele>827.32537841797</ele>
        <time>2013-06-30T09:03:22.000Z</time>
      </trkpt>
      <trkpt lat="46.632" lon="5.9186">
        <ele>828.37634277344</ele>
        <time>2013-06-30T09:03:24.000Z</time>
      </trkpt>
      <trkpt lat="46.63213" lon="5.91863">
        <ele>828.70751953125</ele>
        <time>2013-06-30T09:03:26.000Z</time>
      </trkpt>
      <trkpt lat="46.63225" lon="5.91865">
        <ele>828.46771240234</ele>
        <time>2013-06-30T09:03:28.000Z</time>
      </trkpt>
      <trkpt lat="46.63234" lon="5.91859">
        <ele>829.19891357422</ele>
        <time>2013-06-30T09:03:30.000Z</time>
      </trkpt>
      <trkpt lat="46.63242" lon="5.91854">
        <ele>829.50512695312</ele>
        <time>2013-06-30T09:03:32.000Z</time>
      </trkpt>
      <trkpt lat="46.63252" lon="5.91855">
        <ele>830.19000244141</ele>
        <time>2013-06-30T09:03:34.000Z</time>
      </trkpt>
      <trkpt lat="46.63262" lon="5.91858">
        <ele>829.94750976562</ele>
        <time>2013-06-30T09:03:36.000Z</time>
      </trkpt>
      <trkpt lat="46.63273" lon="5.91866">
        <ele>830.96948242188</ele>
        <time>2013-06-30T09:03:38.000Z</time>
      </trkpt>
      <trkpt lat="46.63283" lon="5.91876">
        <ele>833.60522460938</ele>
        <time>2013-06-30T09:03:40.000Z</time>
      </trkpt>
      <trkpt lat="46.63291" lon="5.91885">
        <ele>835.63714599609</ele>
        <time>2013-06-30T09:03:42.000Z</time>
      </trkpt>
      <trkpt lat="46.63301" lon="5.91896">
        <ele>836.13513183594</ele>
        <time>2013-06-30T09:03:44.000Z</time>
      </trkpt>
      <trkpt lat="46.63309" lon="5.91906">
        <ele>836.08959960938</ele>
        <time>2013-06-30T09:03:46.000Z</time>
      </trkpt>
      <trkpt lat="46.63317" lon="5.91914">
        <ele>835.6455078125</ele>
        <time>2013-06-30T09:03:48.000Z</time>
      </trkpt>
      <trkpt lat="46.63325" lon="5.91921">
        <ele>835.67645263672</ele>
        <time>2013-06-30T09:03:50.000Z</time>
      </trkpt>
      <trkpt lat="46.63331" lon="5.91926">
        <ele>835.57275390625</ele>
        <time>2013-06-30T09:03:52.000Z</time>
      </trkpt>
      <trkpt lat="46.6334" lon="5.91933">
        <ele>835.13165283203</ele>
        <time>2013-06-30T09:03:54.000Z</time>
      </trkpt>
      <trkpt lat="46.63349" lon="5.9194">
        <ele>834.72985839844</ele>
        <time>2013-06-30T09:03:56.000Z</time>
      </trkpt>
      <trkpt lat="46.63358" lon="5.91945">
        <ele>834.42242431641</ele>
        <time>2013-06-30T09:03:58.000Z</time>
      </trkpt>
      <trkpt lat="46.63366" lon="5.91945">
        <ele>834.19219970703</ele>
        <time>2013-06-30T09:04:00.000Z</time>
      </trkpt>
      <trkpt lat="46.63372" lon="5.91943">
        <ele>834.15875244141</ele>
        <time>2013-06-30T09:04:02.000Z</time>
      </trkpt>
      <trkpt lat="46.6338" lon="5.91941">
        <ele>834.07348632812</ele>
        <time>2013-06-30T09:04:04.000Z</time>
      </trkpt>
      <trkpt lat="46.63384" lon="5.91936">
        <ele>833.86804199219</ele>
        <time>2013-06-30T09:04:39.000Z</time>
      </trkpt>
      <trkpt lat="46.6338" lon="5.91936">
        <ele>833.28948974609</ele>
        <time>2013-06-30T09:05:25.000Z</time>
      </trkpt>
      <trkpt lat="46.63377" lon="5.91942">
        <ele>833.37762451172</ele>
        <time>2013-06-30T09:05:38.000Z</time>
      </trkpt>
      <trkpt lat="46.63381" lon="5.9194">
        <ele>833.16778564453</ele>
        <time>2013-06-30T09:05:50.000Z</time>
      </trkpt>
      <trkpt lat="46.63377" lon="5.91941">
        <ele>833.01568603516</ele>
        <time>2013-06-30T09:06:22.000Z</time>
      </trkpt>
      <trkpt lat="46.6338" lon="5.91939">
        <ele>833.07293701172</ele>
        <time>2013-06-30T09:06:43.000Z</time>
      </trkpt>
      <trkpt lat="46.63384" lon="5.91935">
        <ele>832.67486572266</ele>
        <time>2013-06-30T09:07:02.000Z</time>
      </trkpt>
      <trkpt lat="46.63383" lon="5.9194">
        <ele>832.87420654297</ele>
        <time>2013-06-30T09:07:53.000Z</time>
      </trkpt>
      <trkpt lat="46.63382" lon="5.91935">
        <ele>832.71887207031</ele>
        <time>2013-06-30T09:08:07.000Z</time>
      </trkpt>
      <trkpt lat="46.63383" lon="5.9194">
        <ele>832.72668457031</ele>
        <time>2013-06-30T09:08:24.000Z</time>
      </trkpt>
      <trkpt lat="46.63387" lon="5.9194">
        <ele>832.58441162109</ele>
        <time>2013-06-30T09:08:37.000Z</time>
      </trkpt>
      <trkpt lat="46.63392" lon="5.91936">
        <ele>832.19622802734</ele>
        <time>2013-06-30T09:08:43.000Z</time>
      </trkpt>
      <trkpt lat="46.63396" lon="5.91937">
        <ele>832.13690185547</ele>
        <time>2013-06-30T09:08:48.000Z</time>
      </trkpt>
      <trkpt lat="46.63401" lon="5.91935">
        <ele>832.08428955078</ele>
        <time>2013-06-30T09:08:51.000Z</time>
      </trkpt>
      <trkpt lat="46.63407" lon="5.91934">
        <ele>832.29315185547</ele>
        <time>2013-06-30T09:09:02.000Z</time>
      </trkpt>
      <trkpt lat="46.63412" lon="5.91934">
        <ele>832.12646484375</ele>
        <time>2013-06-30T09:09:12.000Z</time>
      </trkpt>
      <trkpt lat="46.63415" lon="5.91929">
        <ele>832.42877197266</ele>
        <time>2013-06-30T09:09:27.000Z</time>
      </trkpt>
      <trkpt lat="46.63416" lon="5.91923">
        <ele>834.14703369141</ele>
        <time>2013-06-30T09:09:52.000Z</time>
      </trkpt>
      <trkpt lat="46.6342" lon="5.91925">
        <ele>835.08166503906</ele>
        <time>2013-06-30T09:09:57.000Z</time>
      </trkpt>
      <trkpt lat="46.63425" lon="5.91929">
        <ele>835.50903320312</ele>
        <time>2013-06-30T09:10:00.000Z</time>
      </trkpt>
      <trkpt lat="46.63428" lon="5.91931">
        <ele>835.66595458984</ele>
        <time>2013-06-30T09:10:02.000Z</time>
      </trkpt>
      <trkpt lat="46.63434" lon="5.91933">
        <ele>835.96356201172</ele>
        <time>2013-06-30T09:10:05.000Z</time>
      </trkpt>
      <trkpt lat="46.63438" lon="5.91934">
        <ele>836.25109863281</ele>
        <time>2013-06-30T09:10:07.000Z</time>
      </trkpt>
      <trkpt lat="46.63444" lon="5.91932">
        <ele>836.75384521484</ele>
        <time>2013-06-30T09:10:10.000Z</time>
      </trkpt>
      <trkpt lat="46.63448" lon="5.91928">
        <ele>837.19964599609</ele>
        <time>2013-06-30T09:10:13.000Z</time>
      </trkpt>
      <trkpt lat="46.63452" lon="5.91922">
        <ele>837.68029785156</ele>
        <time>2013-06-30T09:10:16.000Z</time>
      </trkpt>
      <trkpt lat="46.63457" lon="5.91917">
        <ele>838.11730957031</ele>
        <time>2013-06-30T09:10:18.000Z</time>
      </trkpt>
      <trkpt lat="46.63457" lon="5.91909">
        <ele>838.79132080078</ele>
        <time>2013-06-30T09:10:20.000Z</time>
      </trkpt>
      <trkpt lat="46.6346" lon="5.91904">
        <ele>839.48352050781</ele>
        <time>2013-06-30T09:10:22.000Z</time>
      </trkpt>
      <trkpt lat="46.63465" lon="5.91896">
        <ele>840.64202880859</ele>
        <time>2013-06-30T09:10:25.000Z</time>
      </trkpt>
      <trkpt lat="46.63467" lon="5.91889">
        <ele>841.71441650391</ele>
        <time>2013-06-30T09:10:28.000Z</time>
      </trkpt>
      <trkpt lat="46.6347" lon="5.91883">
        <ele>842.20953369141</ele>
        <time>2013-06-30T09:10:30.000Z</time>
      </trkpt>
      <trkpt lat="46.63471" lon="5.91875">
        <ele>842.89105224609</ele>
        <time>2013-06-30T09:10:33.000Z</time>
      </trkpt>
      <trkpt lat="46.63472" lon="5.91868">
        <ele>843.56781005859</ele>
        <time>2013-06-30T09:10:36.000Z</time>
      </trkpt>
      <trkpt lat="46.63473" lon="5.91861">
        <ele>843.88543701172</ele>
        <time>2013-06-30T09:10:38.000Z</time>
      </trkpt>
      <trkpt lat="46.63476" lon="5.91851">
        <ele>844.23443603516</ele>
        <time>2013-06-30T09:10:41.000Z</time>
      </trkpt>
      <trkpt lat="46.6348" lon="5.91846">
        <ele>844.48150634766</ele>
        <time>2013-06-30T09:10:44.000Z</time>
      </trkpt>
      <trkpt lat="46.63483" lon="5.9184">
        <ele>844.70611572266</ele>
        <time>2013-06-30T09:10:46.000Z</time>
      </trkpt>
      <trkpt lat="46.63487" lon="5.91835">
        <ele>844.87933349609</ele>
        <time>2013-06-30T09:10:48.000Z</time>
      </trkpt>
      <trkpt lat="46.63491" lon="5.91829">
        <ele>845.11883544922</ele>
        <time>2013-06-30T09:10:50.000Z</time>
      </trkpt>
      <trkpt lat="46.63497" lon="5.91824">
        <ele>845.3017578125</ele>
        <time>2013-06-30T09:10:52.000Z</time>
      </trkpt>
      <trkpt lat="46.63504" lon="5.9182">
        <ele>845.55181884766</ele>
        <time>2013-06-30T09:10:54.000Z</time>
      </trkpt>
      <trkpt lat="46.63512" lon="5.91815">
        <ele>845.80206298828</ele>
        <time>2013-06-30T09:10:56.000Z</time>
      </trkpt>
      <trkpt lat="46.63518" lon="5.9181">
        <ele>846.14324951172</ele>
        <time>2013-06-30T09:10:58.000Z</time>
      </trkpt>
      <trkpt lat="46.63523" lon="5.91806">
        <ele>846.60614013672</ele>
        <time>2013-06-30T09:11:00.000Z</time>
      </trkpt>
      <trkpt lat="46.63526" lon="5.91801">
        <ele>847.07104492188</ele>
        <time>2013-06-30T09:11:02.000Z</time>
      </trkpt>
      <trkpt lat="46.63529" lon="5.91793">
        <ele>847.43524169922</ele>
        <time>2013-06-30T09:11:04.000Z</time>
      </trkpt>
      <trkpt lat="46.63533" lon="5.91786">
        <ele>847.65380859375</ele>
        <time>2013-06-30T09:11:06.000Z</time>
      </trkpt>
      <trkpt lat="46.63536" lon="5.91779">
        <ele>847.85705566406</ele>
        <time>2013-06-30T09:11:08.000Z</time>
      </trkpt>
      <trkpt lat="46.6354" lon="5.91774">
        <ele>848.08837890625</ele>
        <time>2013-06-30T09:11:10.000Z</time>
      </trkpt>
      <trkpt lat="46.63545" lon="5.91768">
        <ele>848.5068359375</ele>
        <time>2013-06-30T09:11:13.000Z</time>
      </trkpt>
      <trkpt lat="46.63549" lon="5.91764">
        <ele>848.77105712891</ele>
        <time>2013-06-30T09:11:15.000Z</time>
      </trkpt>
      <trkpt lat="46.63554" lon="5.91762">
        <ele>849.17425537109</ele>
        <time>2013-06-30T09:11:18.000Z</time>
      </trkpt>
      <trkpt lat="46.63558" lon="5.9176">
        <ele>849.28948974609</ele>
        <time>2013-06-30T09:11:20.000Z</time>
      </trkpt>
      <trkpt lat="46.63564" lon="5.91754">
        <ele>849.48187255859</ele>
        <time>2013-06-30T09:11:23.000Z</time>
      </trkpt>
      <trkpt lat="46.63569" lon="5.91747">
        <ele>849.74420166016</ele>
        <time>2013-06-30T09:11:25.000Z</time>
      </trkpt>
      <trkpt lat="46.63576" lon="5.9174">
        <ele>850.10876464844</ele>
        <time>2013-06-30T09:11:27.000Z</time>
      </trkpt>
      <trkpt lat="46.63583" lon="5.91732">
        <ele>850.45684814453</ele>
        <time>2013-06-30T09:11:29.000Z</time>
      </trkpt>
      <trkpt lat="46.63592" lon="5.91719">
        <ele>854.44268798828</ele>
        <time>2013-06-30T09:11:31.000Z</time>
      </trkpt>
      <trkpt lat="46.636" lon="5.91706">
        <ele>858.11090087891</ele>
        <time>2013-06-30T09:11:33.000Z</time>
      </trkpt>
      <trkpt lat="46.63605" lon="5.91695">
        <ele>860.87811279297</ele>
        <time>2013-06-30T09:11:35.000Z</time>
      </trkpt>
      <trkpt lat="46.6361" lon="5.91682">
        <ele>862.21301269531</ele>
        <time>2013-06-30T09:11:37.000Z</time>
      </trkpt>
      <trkpt lat="46.63615" lon="5.91664">
        <ele>861.32537841797</ele>
        <time>2013-06-30T09:11:39.000Z</time>
      </trkpt>
      <trkpt lat="46.63619" lon="5.91645">
        <ele>858.10064697266</ele>
        <time>2013-06-30T09:11:41.000Z</time>
      </trkpt>
      <trkpt lat="46.63621" lon="5.91625">
        <ele>853.65557861328</ele>
        <time>2013-06-30T09:11:43.000Z</time>
      </trkpt>
      <trkpt lat="46.63624" lon="5.91607">
        <ele>849.56988525391</ele>
        <time>2013-06-30T09:11:45.000Z</time>
      </trkpt>
      <trkpt lat="46.63629" lon="5.9159">
        <ele>846.99157714844</ele>
        <time>2013-06-30T09:11:47.000Z</time>
      </trkpt>
      <trkpt lat="46.63634" lon="5.91573">
        <ele>844.07025146484</ele>
        <time>2013-06-30T09:11:49.000Z</time>
      </trkpt>
      <trkpt lat="46.63639" lon="5.91556">
        <ele>842.12469482422</ele>
        <time>2013-06-30T09:11:51.000Z</time>
      </trkpt>
      <trkpt lat="46.63645" lon="5.9154">
        <ele>840.96392822266</ele>
        <time>2013-06-30T09:11:53.000Z</time>
      </trkpt>
      <trkpt lat="46.6365" lon="5.91523">
        <ele>840.00506591797</ele>
        <time>2013-06-30T09:11:55.000Z</time>
      </trkpt>
      <trkpt lat="46.63655" lon="5.91506">
        <ele>839.01397705078</ele>
        <time>2013-06-30T09:11:57.000Z</time>
      </trkpt>
      <trkpt lat="46.63657" lon="5.91487">
        <ele>838.38586425781</ele>
        <time>2013-06-30T09:11:59.000Z</time>
      </trkpt>
      <trkpt lat="46.63659" lon="5.91468">
        <ele>837.41320800781</ele>
        <time>2013-06-30T09:12:01.000Z</time>
      </trkpt>
      <trkpt lat="46.6366" lon="5.91453">
        <ele>836.94134521484</ele>
        <time>2013-06-30T09:12:03.000Z</time>
      </trkpt>
      <trkpt lat="46.63663" lon="5.91446">
        <ele>836.88610839844</ele>
        <time>2013-06-30T09:12:06.000Z</time>
      </trkpt>
      <trkpt lat="46.63667" lon="5.9144">
        <ele>836.84118652344</ele>
        <time>2013-06-30T09:12:08.000Z</time>
      </trkpt>
      <trkpt lat="46.63672" lon="5.91431">
        <ele>836.93524169922</ele>
        <time>2013-06-30T09:12:10.000Z</time>
      </trkpt>
      <trkpt lat="46.63677" lon="5.91426">
        <ele>837.13598632812</ele>
        <time>2013-06-30T09:12:12.000Z</time>
      </trkpt>
      <trkpt lat="46.63682" lon="5.91421">
        <ele>837.58776855469</ele>
        <time>2013-06-30T09:12:15.000Z</time>
      </trkpt>
      <trkpt lat="46.63688" lon="5.9142">
        <ele>837.95275878906</ele>
        <time>2013-06-30T09:12:18.000Z</time>
      </trkpt>
      <trkpt lat="46.63693" lon="5.91417">
        <ele>838.21002197266</ele>
        <time>2013-06-30T09:12:20.000Z</time>
      </trkpt>
      <trkpt lat="46.63699" lon="5.91413">
        <ele>838.48181152344</ele>
        <time>2013-06-30T09:12:22.000Z</time>
      </trkpt>
      <trkpt lat="46.63704" lon="5.91408">
        <ele>838.82946777344</ele>
        <time>2013-06-30T09:12:24.000Z</time>
      </trkpt>
      <trkpt lat="46.6371" lon="5.91403">
        <ele>839.22375488281</ele>
        <time>2013-06-30T09:12:26.000Z</time>
      </trkpt>
      <trkpt lat="46.63713" lon="5.9139">
        <ele>839.66320800781</ele>
        <time>2013-06-30T09:12:28.000Z</time>
      </trkpt>
      <trkpt lat="46.63716" lon="5.91382">
        <ele>840.08752441406</ele>
        <time>2013-06-30T09:12:30.000Z</time>
      </trkpt>
      <trkpt lat="46.63721" lon="5.91372">
        <ele>840.49737548828</ele>
        <time>2013-06-30T09:12:32.000Z</time>
      </trkpt>
      <trkpt lat="46.63724" lon="5.9136">
        <ele>840.72149658203</ele>
        <time>2013-06-30T09:12:34.000Z</time>
      </trkpt>
      <trkpt lat="46.63729" lon="5.9135">
        <ele>840.83178710938</ele>
        <time>2013-06-30T09:12:36.000Z</time>
      </trkpt>
      <trkpt lat="46.63736" lon="5.91342">
        <ele>840.99438476562</ele>
        <time>2013-06-30T09:12:38.000Z</time>
      </trkpt>
      <trkpt lat="46.63742" lon="5.91335">
        <ele>841.31219482422</ele>
        <time>2013-06-30T09:12:40.000Z</time>
      </trkpt>
      <trkpt lat="46.6375" lon="5.91326">
        <ele>841.57238769531</ele>
        <time>2013-06-30T09:12:42.000Z</time>
      </trkpt>
      <trkpt lat="46.63757" lon="5.91318">
        <ele>841.66467285156</ele>
        <time>2013-06-30T09:12:44.000Z</time>
      </trkpt>
      <trkpt lat="46.63765" lon="5.91307">
        <ele>841.65167236328</ele>
        <time>2013-06-30T09:12:46.000Z</time>
      </trkpt>
      <trkpt lat="46.63772" lon="5.91298">
        <ele>841.62145996094</ele>
        <time>2013-06-30T09:12:48.000Z</time>
      </trkpt>
      <trkpt lat="46.63777" lon="5.91293">
        <ele>841.61083984375</ele>
        <time>2013-06-30T09:12:50.000Z</time>
      </trkpt>
      <trkpt lat="46.63782" lon="5.91291">
        <ele>841.65106201172</ele>
        <time>2013-06-30T09:12:52.000Z</time>
      </trkpt>
      <trkpt lat="46.63792" lon="5.91291">
        <ele>841.81243896484</ele>
        <time>2013-06-30T09:12:54.000Z</time>
      </trkpt>
      <trkpt lat="46.638" lon="5.91293">
        <ele>841.93774414062</ele>
        <time>2013-06-30T09:12:56.000Z</time>
      </trkpt>
      <trkpt lat="46.63811" lon="5.91295">
        <ele>841.833984375</ele>
        <time>2013-06-30T09:12:58.000Z</time>
      </trkpt>
      <trkpt lat="46.63822" lon="5.91292">
        <ele>841.64929199219</ele>
        <time>2013-06-30T09:13:00.000Z</time>
      </trkpt>
      <trkpt lat="46.6383" lon="5.9129">
        <ele>841.47619628906</ele>
        <time>2013-06-30T09:13:02.000Z</time>
      </trkpt>
      <trkpt lat="46.63837" lon="5.91291">
        <ele>841.39227294922</ele>
        <time>2013-06-30T09:13:04.000Z</time>
      </trkpt>
      <trkpt lat="46.63843" lon="5.91292">
        <ele>841.24737548828</ele>
        <time>2013-06-30T09:13:06.000Z</time>
      </trkpt>
      <trkpt lat="46.63849" lon="5.91294">
        <ele>840.98565673828</ele>
        <time>2013-06-30T09:13:08.000Z</time>
      </trkpt>
      <trkpt lat="46.63858" lon="5.91301">
        <ele>838.70861816406</ele>
        <time>2013-06-30T09:13:10.000Z</time>
      </trkpt>
      <trkpt lat="46.63869" lon="5.91313">
        <ele>835.62194824219</ele>
        <time>2013-06-30T09:13:12.000Z</time>
      </trkpt>
      <trkpt lat="46.63881" lon="5.91326">
        <ele>833.09716796875</ele>
        <time>2013-06-30T09:13:14.000Z</time>
      </trkpt>
      <trkpt lat="46.63891" lon="5.91338">
        <ele>831.00701904297</ele>
        <time>2013-06-30T09:13:16.000Z</time>
      </trkpt>
      <trkpt lat="46.639" lon="5.91348">
        <ele>830.16918945312</ele>
        <time>2013-06-30T09:13:18.000Z</time>
      </trkpt>
      <trkpt lat="46.6391" lon="5.9136">
        <ele>829.92840576172</ele>
        <time>2013-06-30T09:13:20.000Z</time>
      </trkpt>
      <trkpt lat="46.6392" lon="5.91371">
        <ele>829.21276855469</ele>
        <time>2013-06-30T09:13:22.000Z</time>
      </trkpt>
      <trkpt lat="46.63928" lon="5.91381">
        <ele>828.67846679688</ele>
        <time>2013-06-30T09:13:24.000Z</time>
      </trkpt>
      <trkpt lat="46.63934" lon="5.91389">
        <ele>828.42718505859</ele>
        <time>2013-06-30T09:13:26.000Z</time>
      </trkpt>
      <trkpt lat="46.6394" lon="5.91397">
        <ele>828.2275390625</ele>
        <time>2013-06-30T09:13:28.000Z</time>
      </trkpt>
      <trkpt lat="46.63946" lon="5.91405">
        <ele>827.28002929688</ele>
        <time>2013-06-30T09:13:30.000Z</time>
      </trkpt>
      <trkpt lat="46.63951" lon="5.91413">
        <ele>827.08343505859</ele>
        <time>2013-06-30T09:13:32.000Z</time>
      </trkpt>
      <trkpt lat="46.63957" lon="5.9142">
        <ele>825.82403564453</ele>
        <time>2013-06-30T09:13:34.000Z</time>
      </trkpt>
      <trkpt lat="46.63963" lon="5.91427">
        <ele>824.97985839844</ele>
        <time>2013-06-30T09:13:36.000Z</time>
      </trkpt>
      <trkpt lat="46.63969" lon="5.91434">
        <ele>824.74737548828</ele>
        <time>2013-06-30T09:13:38.000Z</time>
      </trkpt>
      <trkpt lat="46.63974" lon="5.91441">
        <ele>824.01043701172</ele>
        <time>2013-06-30T09:13:40.000Z</time>
      </trkpt>
      <trkpt lat="46.6398" lon="5.9145">
        <ele>823.50201416016</ele>
        <time>2013-06-30T09:13:42.000Z</time>
      </trkpt>
      <trkpt lat="46.63989" lon="5.91462">
        <ele>822.28332519531</ele>
        <time>2013-06-30T09:13:44.000Z</time>
      </trkpt>
      <trkpt lat="46.63996" lon="5.91472">
        <ele>821.74249267578</ele>
        <time>2013-06-30T09:13:46.000Z</time>
      </trkpt>
      <trkpt lat="46.64003" lon="5.91483">
        <ele>821.38189697266</ele>
        <time>2013-06-30T09:13:48.000Z</time>
      </trkpt>
      <trkpt lat="46.64009" lon="5.91493">
        <ele>821.03729248047</ele>
        <time>2013-06-30T09:13:50.000Z</time>
      </trkpt>
      <trkpt lat="46.64016" lon="5.915">
        <ele>820.94805908203</ele>
        <time>2013-06-30T09:13:52.000Z</time>
      </trkpt>
      <trkpt lat="46.6402" lon="5.91506">
        <ele>820.75793457031</ele>
        <time>2013-06-30T09:13:55.000Z</time>
      </trkpt>
      <trkpt lat="46.64024" lon="5.9151">
        <ele>820.67590332031</ele>
        <time>2013-06-30T09:13:57.000Z</time>
      </trkpt>
      <trkpt lat="46.64028" lon="5.91516">
        <ele>820.640625</ele>
        <time>2013-06-30T09:13:59.000Z</time>
      </trkpt>
      <trkpt lat="46.64034" lon="5.91522">
        <ele>820.55859375</ele>
        <time>2013-06-30T09:14:01.000Z</time>
      </trkpt>
      <trkpt lat="46.64041" lon="5.9153">
        <ele>820.49859619141</ele>
        <time>2013-06-30T09:14:03.000Z</time>
      </trkpt>
      <trkpt lat="46.64046" lon="5.91535">
        <ele>820.56811523438</ele>
        <time>2013-06-30T09:14:05.000Z</time>
      </trkpt>
      <trkpt lat="46.6405" lon="5.91541">
        <ele>820.58178710938</ele>
        <time>2013-06-30T09:14:07.000Z</time>
      </trkpt>
      <trkpt lat="46.64053" lon="5.91546">
        <ele>820.53454589844</ele>
        <time>2013-06-30T09:14:09.000Z</time>
      </trkpt>
      <trkpt lat="46.64058" lon="5.91551">
        <ele>820.49926757812</ele>
        <time>2013-06-30T09:14:11.000Z</time>
      </trkpt>
      <trkpt lat="46.64065" lon="5.91558">
        <ele>820.43627929688</ele>
        <time>2013-06-30T09:14:13.000Z</time>
      </trkpt>
      <trkpt lat="46.64072" lon="5.91566">
        <ele>820.36401367188</ele>
        <time>2013-06-30T09:14:15.000Z</time>
      </trkpt>
      <trkpt lat="46.64079" lon="5.91574">
        <ele>820.27258300781</ele>
        <time>2013-06-30T09:14:17.000Z</time>
      </trkpt>
      <trkpt lat="46.64086" lon="5.9158">
        <ele>820.02136230469</ele>
        <time>2013-06-30T09:14:19.000Z</time>
      </trkpt>
      <trkpt lat="46.64092" lon="5.91587">
        <ele>820.06555175781</ele>
        <time>2013-06-30T09:14:21.000Z</time>
      </trkpt>
      <trkpt lat="46.64099" lon="5.91593">
        <ele>820.154296875</ele>
        <time>2013-06-30T09:14:23.000Z</time>
      </trkpt>
      <trkpt lat="46.64105" lon="5.916">
        <ele>820.19732666016</ele>
        <time>2013-06-30T09:14:25.000Z</time>
      </trkpt>
      <trkpt lat="46.64113" lon="5.91606">
        <ele>820.21685791016</ele>
        <time>2013-06-30T09:14:27.000Z</time>
      </trkpt>
      <trkpt lat="46.64121" lon="5.91612">
        <ele>820.17443847656</ele>
        <time>2013-06-30T09:14:29.000Z</time>
      </trkpt>
      <trkpt lat="46.64129" lon="5.9162">
        <ele>820.10278320312</ele>
        <time>2013-06-30T09:14:31.000Z</time>
      </trkpt>
      <trkpt lat="46.64135" lon="5.91627">
        <ele>819.95184326172</ele>
        <time>2013-06-30T09:14:33.000Z</time>
      </trkpt>
      <trkpt lat="46.64142" lon="5.91635">
        <ele>819.97076416016</ele>
        <time>2013-06-30T09:14:35.000Z</time>
      </trkpt>
      <trkpt lat="46.6415" lon="5.91641">
        <ele>819.34686279297</ele>
        <time>2013-06-30T09:14:37.000Z</time>
      </trkpt>
      <trkpt lat="46.64158" lon="5.91647">
        <ele>818.91009521484</ele>
        <time>2013-06-30T09:14:39.000Z</time>
      </trkpt>
      <trkpt lat="46.64165" lon="5.91654">
        <ele>818.90447998047</ele>
        <time>2013-06-30T09:14:41.000Z</time>
      </trkpt>
      <trkpt lat="46.64171" lon="5.91659">
        <ele>818.84106445312</ele>
        <time>2013-06-30T09:14:43.000Z</time>
      </trkpt>
      <trkpt lat="46.64175" lon="5.91663">
        <ele>818.78399658203</ele>
        <time>2013-06-30T09:14:45.000Z</time>
      </trkpt>
      <trkpt lat="46.64181" lon="5.91668">
        <ele>818.73052978516</ele>
        <time>2013-06-30T09:14:47.000Z</time>
      </trkpt>
      <trkpt lat="46.64187" lon="5.91674">
        <ele>818.65887451172</ele>
        <time>2013-06-30T09:14:49.000Z</time>
      </trkpt>
      <trkpt lat="46.64192" lon="5.91681">
        <ele>818.56713867188</ele>
        <time>2013-06-30T09:14:53.000Z</time>
      </trkpt>
      <trkpt lat="46.64195" lon="5.91688">
        <ele>818.10705566406</ele>
        <time>2013-06-30T09:14:58.000Z</time>
      </trkpt>
      <trkpt lat="46.64198" lon="5.91693">
        <ele>817.37451171875</ele>
        <time>2013-06-30T09:15:04.000Z</time>
      </trkpt>
      <trkpt lat="46.64202" lon="5.91697">
        <ele>816.94061279297</ele>
        <time>2013-06-30T09:15:09.000Z</time>
      </trkpt>
      <trkpt lat="46.64206" lon="5.91701">
        <ele>816.72137451172</ele>
        <time>2013-06-30T09:15:12.000Z</time>
      </trkpt>
      <trkpt lat="46.6421" lon="5.91707">
        <ele>816.63171386719</ele>
        <time>2013-06-30T09:15:15.000Z</time>
      </trkpt>
      <trkpt lat="46.64214" lon="5.91711">
        <ele>816.61138916016</ele>
        <time>2013-06-30T09:15:17.000Z</time>
      </trkpt>
      <trkpt lat="46.64217" lon="5.91715">
        <ele>816.65258789062</ele>
        <time>2013-06-30T09:15:19.000Z</time>
      </trkpt>
      <trkpt lat="46.64222" lon="5.9172">
        <ele>816.67364501953</ele>
        <time>2013-06-30T09:15:21.000Z</time>
      </trkpt>
      <trkpt lat="46.64226" lon="5.91725">
        <ele>816.61791992188</ele>
        <time>2013-06-30T09:15:23.000Z</time>
      </trkpt>
      <trkpt lat="46.64232" lon="5.91732">
        <ele>816.54150390625</ele>
        <time>2013-06-30T09:15:25.000Z</time>
      </trkpt>
      <trkpt lat="46.64238" lon="5.91739">
        <ele>816.4482421875</ele>
        <time>2013-06-30T09:15:27.000Z</time>
      </trkpt>
      <trkpt lat="46.64243" lon="5.91746">
        <ele>816.36077880859</ele>
        <time>2013-06-30T09:15:29.000Z</time>
      </trkpt>
      <trkpt lat="46.64247" lon="5.91752">
        <ele>816.33294677734</ele>
        <time>2013-06-30T09:15:31.000Z</time>
      </trkpt>
      <trkpt lat="46.64252" lon="5.91761">
        <ele>816.27020263672</ele>
        <time>2013-06-30T09:15:33.000Z</time>
      </trkpt>
      <trkpt lat="46.64256" lon="5.9177">
        <ele>816.27203369141</ele>
        <time>2013-06-30T09:15:35.000Z</time>
      </trkpt>
      <trkpt lat="46.64261" lon="5.91778">
        <ele>816.39385986328</ele>
        <time>2013-06-30T09:15:37.000Z</time>
      </trkpt>
      <trkpt lat="46.64268" lon="5.91789">
        <ele>816.43505859375</ele>
        <time>2013-06-30T09:15:39.000Z</time>
      </trkpt>
      <trkpt lat="46.64275" lon="5.91801">
        <ele>816.39239501953</ele>
        <time>2013-06-30T09:15:41.000Z</time>
      </trkpt>
      <trkpt lat="46.6428" lon="5.91811">
        <ele>816.43090820312</ele>
        <time>2013-06-30T09:15:43.000Z</time>
      </trkpt>
      <trkpt lat="46.64284" lon="5.91818">
        <ele>816.51531982422</ele>
        <time>2013-06-30T09:15:46.000Z</time>
      </trkpt>
      <trkpt lat="46.64288" lon="5.91823">
        <ele>816.57788085938</ele>
        <time>2013-06-30T09:15:48.000Z</time>
      </trkpt>
      <trkpt lat="46.64293" lon="5.91829">
        <ele>816.69537353516</ele>
        <time>2013-06-30T09:15:51.000Z</time>
      </trkpt>
      <trkpt lat="46.64297" lon="5.91833">
        <ele>816.91461181641</ele>
        <time>2013-06-30T09:15:54.000Z</time>
      </trkpt>
      <trkpt lat="46.64302" lon="5.91835">
        <ele>817.08465576172</ele>
        <time>2013-06-30T09:15:56.000Z</time>
      </trkpt>
      <trkpt lat="46.64309" lon="5.91839">
        <ele>817.34448242188</ele>
        <time>2013-06-30T09:15:58.000Z</time>
      </trkpt>
      <trkpt lat="46.64317" lon="5.91843">
        <ele>817.41033935547</ele>
        <time>2013-06-30T09:16:00.000Z</time>
      </trkpt>
      <trkpt lat="46.64322" lon="5.91847">
        <ele>817.29949951172</ele>
        <time>2013-06-30T09:16:02.000Z</time>
      </trkpt>
      <trkpt lat="46.64326" lon="5.9185">
        <ele>817.11285400391</ele>
        <time>2013-06-30T09:16:04.000Z</time>
      </trkpt>
      <trkpt lat="46.64332" lon="5.91854">
        <ele>817.05474853516</ele>
        <time>2013-06-30T09:16:07.000Z</time>
      </trkpt>
      <trkpt lat="46.64336" lon="5.91858">
        <ele>817.00775146484</ele>
        <time>2013-06-30T09:16:10.000Z</time>
      </trkpt>
      <trkpt lat="46.64341" lon="5.9186">
        <ele>816.83911132812</ele>
        <time>2013-06-30T09:16:14.000Z</time>
      </trkpt>
      <trkpt lat="46.64344" lon="5.91865">
        <ele>816.91638183594</ele>
        <time>2013-06-30T09:16:18.000Z</time>
      </trkpt>
      <trkpt lat="46.64348" lon="5.91869">
        <ele>816.64459228516</ele>
        <time>2013-06-30T09:16:24.000Z</time>
      </trkpt>
      <trkpt lat="46.64353" lon="5.9187">
        <ele>816.39154052734</ele>
        <time>2013-06-30T09:16:30.000Z</time>
      </trkpt>
      <trkpt lat="46.64356" lon="5.91874">
        <ele>816.60418701172</ele>
        <time>2013-06-30T09:16:35.000Z</time>
      </trkpt>
      <trkpt lat="46.64361" lon="5.91878">
        <ele>817.28424072266</ele>
        <time>2013-06-30T09:16:39.000Z</time>
      </trkpt>
      <trkpt lat="46.64366" lon="5.9188">
        <ele>817.43817138672</ele>
        <time>2013-06-30T09:16:41.000Z</time>
      </trkpt>
      <trkpt lat="46.6437" lon="5.91884">
        <ele>817.49682617188</ele>
        <time>2013-06-30T09:16:43.000Z</time>
      </trkpt>
      <trkpt lat="46.64374" lon="5.91888">
        <ele>817.68835449219</ele>
        <time>2013-06-30T09:16:48.000Z</time>
      </trkpt>
      <trkpt lat="46.64378" lon="5.9189">
        <ele>817.57366943359</ele>
        <time>2013-06-30T09:16:51.000Z</time>
      </trkpt>
      <trkpt lat="46.64383" lon="5.91894">
        <ele>817.65002441406</ele>
        <time>2013-06-30T09:16:53.000Z</time>
      </trkpt>
      <trkpt lat="46.64387" lon="5.91898">
        <ele>817.66119384766</ele>
        <time>2013-06-30T09:16:56.000Z</time>
      </trkpt>
      <trkpt lat="46.64391" lon="5.91903">
        <ele>817.29626464844</ele>
        <time>2013-06-30T09:17:01.000Z</time>
      </trkpt>
      <trkpt lat="46.64396" lon="5.91907">
        <ele>817.31481933594</ele>
        <time>2013-06-30T09:17:04.000Z</time>
      </trkpt>
      <trkpt lat="46.64399" lon="5.91912">
        <ele>817.41284179688</ele>
        <time>2013-06-30T09:17:07.000Z</time>
      </trkpt>
      <trkpt lat="46.64403" lon="5.91918">
        <ele>817.73248291016</ele>
        <time>2013-06-30T09:17:11.000Z</time>
      </trkpt>
      <trkpt lat="46.64407" lon="5.91922">
        <ele>817.74523925781</ele>
        <time>2013-06-30T09:17:18.000Z</time>
      </trkpt>
      <trkpt lat="46.6441" lon="5.91927">
        <ele>817.74151611328</ele>
        <time>2013-06-30T09:17:24.000Z</time>
      </trkpt>
      <trkpt lat="46.64414" lon="5.91933">
        <ele>817.8125</ele>
        <time>2013-06-30T09:17:28.000Z</time>
      </trkpt>
      <trkpt lat="46.64417" lon="5.91939">
        <ele>817.90313720703</ele>
        <time>2013-06-30T09:17:31.000Z</time>
      </trkpt>
      <trkpt lat="46.6442" lon="5.91944">
        <ele>817.60900878906</ele>
        <time>2013-06-30T09:17:34.000Z</time>
      </trkpt>
      <trkpt lat="46.64423" lon="5.91949">
        <ele>817.67633056641</ele>
        <time>2013-06-30T09:17:41.000Z</time>
      </trkpt>
      <trkpt lat="46.64428" lon="5.91953">
        <ele>818.33898925781</ele>
        <time>2013-06-30T09:17:46.000Z</time>
      </trkpt>
      <trkpt lat="46.64432" lon="5.91955">
        <ele>818.33044433594</ele>
        <time>2013-06-30T09:17:49.000Z</time>
      </trkpt>
      <trkpt lat="46.64437" lon="5.91956">
        <ele>818.36218261719</ele>
        <time>2013-06-30T09:17:54.000Z</time>
      </trkpt>
      <trkpt lat="46.64441" lon="5.91959">
        <ele>818.29119873047</ele>
        <time>2013-06-30T09:18:01.000Z</time>
      </trkpt>
      <trkpt lat="46.64446" lon="5.91958">
        <ele>818.38513183594</ele>
        <time>2013-06-30T09:18:05.000Z</time>
      </trkpt>
      <trkpt lat="46.64452" lon="5.91958">
        <ele>818.67358398438</ele>
        <time>2013-06-30T09:18:09.000Z</time>
      </trkpt>
      <trkpt lat="46.64456" lon="5.91956">
        <ele>819.16900634766</ele>
        <time>2013-06-30T09:18:14.000Z</time>
      </trkpt>
      <trkpt lat="46.64461" lon="5.91956">
        <ele>819.40765380859</ele>
        <time>2013-06-30T09:18:19.000Z</time>
      </trkpt>
      <trkpt lat="46.64466" lon="5.91955">
        <ele>818.70458984375</ele>
        <time>2013-06-30T09:18:24.000Z</time>
      </trkpt>
      <trkpt lat="46.64471" lon="5.91956">
        <ele>818.07452392578</ele>
        <time>2013-06-30T09:18:28.000Z</time>
      </trkpt>
      <trkpt lat="46.64476" lon="5.91953">
        <ele>817.76165771484</ele>
        <time>2013-06-30T09:18:31.000Z</time>
      </trkpt>
      <trkpt lat="46.6448" lon="5.91948">
        <ele>817.51599121094</ele>
        <time>2013-06-30T09:18:34.000Z</time>
      </trkpt>
      <trkpt lat="46.64485" lon="5.91943">
        <ele>817.24084472656</ele>
        <time>2013-06-30T09:18:38.000Z</time>
      </trkpt>
      <trkpt lat="46.64489" lon="5.91941">
        <ele>816.97937011719</ele>
        <time>2013-06-30T09:18:42.000Z</time>
      </trkpt>
      <trkpt lat="46.64493" lon="5.91937">
        <ele>816.74285888672</ele>
        <time>2013-06-30T09:19:04.000Z</time>
      </trkpt>
      <trkpt lat="46.64495" lon="5.91942">
        <ele>814.98541259766</ele>
        <time>2013-06-30T09:19:59.000Z</time>
      </trkpt>
      <trkpt lat="46.64494" lon="5.91936">
        <ele>813.93664550781</ele>
        <time>2013-06-30T09:20:54.000Z</time>
      </trkpt>
      <trkpt lat="46.64497" lon="5.91928">
        <ele>813.0322265625</ele>
        <time>2013-06-30T09:20:59.000Z</time>
      </trkpt>
      <trkpt lat="46.64501" lon="5.9192">
        <ele>812.92736816406</ele>
        <time>2013-06-30T09:21:02.000Z</time>
      </trkpt>
      <trkpt lat="46.64504" lon="5.91914">
        <ele>812.93469238281</ele>
        <time>2013-06-30T09:21:04.000Z</time>
      </trkpt>
      <trkpt lat="46.64508" lon="5.91907">
        <ele>812.72698974609</ele>
        <time>2013-06-30T09:21:07.000Z</time>
      </trkpt>
      <trkpt lat="46.64512" lon="5.919">
        <ele>812.30224609375</ele>
        <time>2013-06-30T09:21:10.000Z</time>
      </trkpt>
      <trkpt lat="46.64514" lon="5.91894">
        <ele>812.04870605469</ele>
        <time>2013-06-30T09:21:12.000Z</time>
      </trkpt>
      <trkpt lat="46.64516" lon="5.91885">
        <ele>811.77856445312</ele>
        <time>2013-06-30T09:21:15.000Z</time>
      </trkpt>
      <trkpt lat="46.64516" lon="5.91878">
        <ele>811.57403564453</ele>
        <time>2013-06-30T09:21:18.000Z</time>
      </trkpt>
      <trkpt lat="46.64517" lon="5.9187">
        <ele>811.23754882812</ele>
        <time>2013-06-30T09:21:21.000Z</time>
      </trkpt>
      <trkpt lat="46.64519" lon="5.91863">
        <ele>811.38116455078</ele>
        <time>2013-06-30T09:21:23.000Z</time>
      </trkpt>
      <trkpt lat="46.6452" lon="5.91854">
        <ele>811.67230224609</ele>
        <time>2013-06-30T09:21:26.000Z</time>
      </trkpt>
      <trkpt lat="46.64521" lon="5.91843">
        <ele>811.73077392578</ele>
        <time>2013-06-30T09:21:29.000Z</time>
      </trkpt>
      <trkpt lat="46.64522" lon="5.91834">
        <ele>811.68182373047</ele>
        <time>2013-06-30T09:21:31.000Z</time>
      </trkpt>
      <trkpt lat="46.64525" lon="5.91826">
        <ele>811.60864257812</ele>
        <time>2013-06-30T09:21:34.000Z</time>
      </trkpt>
      <trkpt lat="46.64527" lon="5.91819">
        <ele>811.55676269531</ele>
        <time>2013-06-30T09:21:36.000Z</time>
      </trkpt>
      <trkpt lat="46.64532" lon="5.91809">
        <ele>811.45971679688</ele>
        <time>2013-06-30T09:21:38.000Z</time>
      </trkpt>
      <trkpt lat="46.64537" lon="5.91802">
        <ele>811.29138183594</ele>
        <time>2013-06-30T09:21:40.000Z</time>
      </trkpt>
      <trkpt lat="46.64542" lon="5.91794">
        <ele>811.12615966797</ele>
        <time>2013-06-30T09:21:42.000Z</time>
      </trkpt>
      <trkpt lat="46.64546" lon="5.91787">
        <ele>811.02484130859</ele>
        <time>2013-06-30T09:21:44.000Z</time>
      </trkpt>
      <trkpt lat="46.64551" lon="5.91779">
        <ele>810.91137695312</ele>
        <time>2013-06-30T09:21:46.000Z</time>
      </trkpt>
      <trkpt lat="46.64555" lon="5.91772">
        <ele>810.76251220703</ele>
        <time>2013-06-30T09:21:48.000Z</time>
      </trkpt>
      <trkpt lat="46.6456" lon="5.91765">
        <ele>810.69036865234</ele>
        <time>2013-06-30T09:21:50.000Z</time>
      </trkpt>
      <trkpt lat="46.64566" lon="5.91759">
        <ele>810.54724121094</ele>
        <time>2013-06-30T09:21:52.000Z</time>
      </trkpt>
      <trkpt lat="46.64571" lon="5.91754">
        <ele>810.25122070312</ele>
        <time>2013-06-30T09:21:54.000Z</time>
      </trkpt>
      <trkpt lat="46.64575" lon="5.91749">
        <ele>809.84558105469</ele>
        <time>2013-06-30T09:21:56.000Z</time>
      </trkpt>
      <trkpt lat="46.64579" lon="5.91744">
        <ele>809.46612548828</ele>
        <time>2013-06-30T09:21:58.000Z</time>
      </trkpt>
      <trkpt lat="46.64583" lon="5.91738">
        <ele>809.33184814453</ele>
        <time>2013-06-30T09:22:00.000Z</time>
      </trkpt>
      <trkpt lat="46.64585" lon="5.91731">
        <ele>809.34106445312</ele>
        <time>2013-06-30T09:22:02.000Z</time>
      </trkpt>
      <trkpt lat="46.64589" lon="5.91724">
        <ele>809.21282958984</ele>
        <time>2013-06-30T09:22:04.000Z</time>
      </trkpt>
      <trkpt lat="46.64595" lon="5.91714">
        <ele>807.39154052734</ele>
        <time>2013-06-30T09:22:06.000Z</time>
      </trkpt>
      <trkpt lat="46.64602" lon="5.91702">
        <ele>805.0498046875</ele>
        <time>2013-06-30T09:22:08.000Z</time>
      </trkpt>
      <trkpt lat="46.64609" lon="5.91692">
        <ele>803.06164550781</ele>
        <time>2013-06-30T09:22:10.000Z</time>
      </trkpt>
      <trkpt lat="46.64616" lon="5.91684">
        <ele>803.21630859375</ele>
        <time>2013-06-30T09:22:12.000Z</time>
      </trkpt>
      <trkpt lat="46.64622" lon="5.91675">
        <ele>804.43389892578</ele>
        <time>2013-06-30T09:22:14.000Z</time>
      </trkpt>
      <trkpt lat="46.64629" lon="5.91662">
        <ele>803.87084960938</ele>
        <time>2013-06-30T09:22:16.000Z</time>
      </trkpt>
      <trkpt lat="46.64634" lon="5.91651">
        <ele>803.89990234375</ele>
        <time>2013-06-30T09:22:18.000Z</time>
      </trkpt>
      <trkpt lat="46.64638" lon="5.91641">
        <ele>804.48181152344</ele>
        <time>2013-06-30T09:22:20.000Z</time>
      </trkpt>
      <trkpt lat="46.64641" lon="5.91628">
        <ele>804.0654296875</ele>
        <time>2013-06-30T09:22:22.000Z</time>
      </trkpt>
      <trkpt lat="46.64644" lon="5.91616">
        <ele>804.13275146484</ele>
        <time>2013-06-30T09:22:24.000Z</time>
      </trkpt>
      <trkpt lat="46.64645" lon="5.91602">
        <ele>804.29217529297</ele>
        <time>2013-06-30T09:22:26.000Z</time>
      </trkpt>
      <trkpt lat="46.64646" lon="5.91588">
        <ele>804.48675537109</ele>
        <time>2013-06-30T09:22:28.000Z</time>
      </trkpt>
      <trkpt lat="46.64647" lon="5.9157">
        <ele>804.68719482422</ele>
        <time>2013-06-30T09:22:30.000Z</time>
      </trkpt>
      <trkpt lat="46.64647" lon="5.91553">
        <ele>804.53173828125</ele>
        <time>2013-06-30T09:22:32.000Z</time>
      </trkpt>
      <trkpt lat="46.64648" lon="5.91538">
        <ele>804.74829101562</ele>
        <time>2013-06-30T09:22:34.000Z</time>
      </trkpt>
      <trkpt lat="46.64648" lon="5.91523">
        <ele>805.21759033203</ele>
        <time>2013-06-30T09:22:36.000Z</time>
      </trkpt>
      <trkpt lat="46.64647" lon="5.91507">
        <ele>805.54254150391</ele>
        <time>2013-06-30T09:22:38.000Z</time>
      </trkpt>
      <trkpt lat="46.64644" lon="5.91493">
        <ele>805.63854980469</ele>
        <time>2013-06-30T09:22:40.000Z</time>
      </trkpt>
      <trkpt lat="46.6464" lon="5.91478">
        <ele>805.36395263672</ele>
        <time>2013-06-30T09:22:42.000Z</time>
      </trkpt>
      <trkpt lat="46.64634" lon="5.91466">
        <ele>804.68225097656</ele>
        <time>2013-06-30T09:22:44.000Z</time>
      </trkpt>
      <trkpt lat="46.64626" lon="5.91456">
        <ele>804.00958251953</ele>
        <time>2013-06-30T09:22:46.000Z</time>
      </trkpt>
      <trkpt lat="46.64616" lon="5.91448">
        <ele>803.134765625</ele>
        <time>2013-06-30T09:22:48.000Z</time>
      </trkpt>
      <trkpt lat="46.64606" lon="5.91441">
        <ele>802.07427978516</ele>
        <time>2013-06-30T09:22:50.000Z</time>
      </trkpt>
      <trkpt lat="46.64597" lon="5.91435">
        <ele>801.294921875</ele>
        <time>2013-06-30T09:22:52.000Z</time>
      </trkpt>
      <trkpt lat="46.64588" lon="5.91428">
        <ele>800.89471435547</ele>
        <time>2013-06-30T09:22:54.000Z</time>
      </trkpt>
      <trkpt lat="46.64579" lon="5.91422">
        <ele>800.76849365234</ele>
        <time>2013-06-30T09:22:56.000Z</time>
      </trkpt>
      <trkpt lat="46.6457" lon="5.91415">
        <ele>800.72613525391</ele>
        <time>2013-06-30T09:22:58.000Z</time>
      </trkpt>
      <trkpt lat="46.64562" lon="5.91406">
        <ele>800.84191894531</ele>
        <time>2013-06-30T09:23:00.000Z</time>
      </trkpt>
      <trkpt lat="46.64554" lon="5.91398">
        <ele>800.94750976562</ele>
        <time>2013-06-30T09:23:02.000Z</time>
      </trkpt>
      <trkpt lat="46.64547" lon="5.91389">
        <ele>800.96820068359</ele>
        <time>2013-06-30T09:23:04.000Z</time>
      </trkpt>
      <trkpt lat="46.6454" lon="5.91381">
        <ele>801.00128173828</ele>
        <time>2013-06-30T09:23:06.000Z</time>
      </trkpt>
      <trkpt lat="46.64533" lon="5.91373">
        <ele>801.27490234375</ele>
        <time>2013-06-30T09:23:08.000Z</time>
      </trkpt>
      <trkpt lat="46.64526" lon="5.91364">
        <ele>801.63250732422</ele>
        <time>2013-06-30T09:23:10.000Z</time>
      </trkpt>
      <trkpt lat="46.6452" lon="5.91358">
        <ele>801.81909179688</ele>
        <time>2013-06-30T09:23:12.000Z</time>
      </trkpt>
      <trkpt lat="46.64513" lon="5.91351">
        <ele>802.09259033203</ele>
        <time>2013-06-30T09:23:14.000Z</time>
      </trkpt>
      <trkpt lat="46.64508" lon="5.91344">
        <ele>802.50622558594</ele>
        <time>2013-06-30T09:23:16.000Z</time>
      </trkpt>
      <trkpt lat="46.64503" lon="5.91335">
        <ele>803.25079345703</ele>
        <time>2013-06-30T09:23:18.000Z</time>
      </trkpt>
      <trkpt lat="46.645" lon="5.91324">
        <ele>803.91772460938</ele>
        <time>2013-06-30T09:23:20.000Z</time>
      </trkpt>
      <trkpt lat="46.64498" lon="5.91313">
        <ele>803.95330810547</ele>
        <time>2013-06-30T09:23:22.000Z</time>
      </trkpt>
      <trkpt lat="46.64499" lon="5.91303">
        <ele>804.00085449219</ele>
        <time>2013-06-30T09:23:24.000Z</time>
      </trkpt>
      <trkpt lat="46.64499" lon="5.91293">
        <ele>804.05694580078</ele>
        <time>2013-06-30T09:23:26.000Z</time>
      </trkpt>
      <trkpt lat="46.645" lon="5.91283">
        <ele>804.09484863281</ele>
        <time>2013-06-30T09:23:28.000Z</time>
      </trkpt>
      <trkpt lat="46.64502" lon="5.91271">
        <ele>804.01544189453</ele>
        <time>2013-06-30T09:23:30.000Z</time>
      </trkpt>
      <trkpt lat="46.64504" lon="5.91258">
        <ele>803.77783203125</ele>
        <time>2013-06-30T09:23:32.000Z</time>
      </trkpt>
      <trkpt lat="46.64505" lon="5.91244">
        <ele>803.68139648438</ele>
        <time>2013-06-30T09:23:34.000Z</time>
      </trkpt>
      <trkpt lat="46.64507" lon="5.91232">
        <ele>803.912109375</ele>
        <time>2013-06-30T09:23:36.000Z</time>
      </trkpt>
      <trkpt lat="46.64508" lon="5.9122">
        <ele>804.25207519531</ele>
        <time>2013-06-30T09:23:38.000Z</time>
      </trkpt>
      <trkpt lat="46.64508" lon="5.91206">
        <ele>804.18902587891</ele>
        <time>2013-06-30T09:23:40.000Z</time>
      </trkpt>
      <trkpt lat="46.64508" lon="5.91191">
        <ele>803.77911376953</ele>
        <time>2013-06-30T09:23:42.000Z</time>
      </trkpt>
      <trkpt lat="46.64507" lon="5.91177">
        <ele>803.61730957031</ele>
        <time>2013-06-30T09:23:44.000Z</time>
      </trkpt>
      <trkpt lat="46.64506" lon="5.91162">
        <ele>803.66497802734</ele>
        <time>2013-06-30T09:23:46.000Z</time>
      </trkpt>
      <trkpt lat="46.64504" lon="5.91147">
        <ele>803.59832763672</ele>
        <time>2013-06-30T09:23:48.000Z</time>
      </trkpt>
      <trkpt lat="46.645" lon="5.91132">
        <ele>803.26232910156</ele>
        <time>2013-06-30T09:23:50.000Z</time>
      </trkpt>
      <trkpt lat="46.64496" lon="5.91118">
        <ele>802.98931884766</ele>
        <time>2013-06-30T09:23:52.000Z</time>
      </trkpt>
      <trkpt lat="46.64493" lon="5.91104">
        <ele>802.77288818359</ele>
        <time>2013-06-30T09:23:54.000Z</time>
      </trkpt>
      <trkpt lat="46.6449" lon="5.91091">
        <ele>802.93695068359</ele>
        <time>2013-06-30T09:23:56.000Z</time>
      </trkpt>
      <trkpt lat="46.64487" lon="5.91078">
        <ele>803.85662841797</ele>
        <time>2013-06-30T09:23:58.000Z</time>
      </trkpt>
      <trkpt lat="46.64484" lon="5.91065">
        <ele>804.57629394531</ele>
        <time>2013-06-30T09:24:00.000Z</time>
      </trkpt>
      <trkpt lat="46.64482" lon="5.91052">
        <ele>804.97540283203</ele>
        <time>2013-06-30T09:24:02.000Z</time>
      </trkpt>
      <trkpt lat="46.64479" lon="5.91039">
        <ele>804.748046875</ele>
        <time>2013-06-30T09:24:04.000Z</time>
      </trkpt>
      <trkpt lat="46.64475" lon="5.91026">
        <ele>803.99798583984</ele>
        <time>2013-06-30T09:24:06.000Z</time>
      </trkpt>
      <trkpt lat="46.6447" lon="5.91013">
        <ele>802.92620849609</ele>
        <time>2013-06-30T09:24:08.000Z</time>
      </trkpt>
      <trkpt lat="46.64466" lon="5.91001">
        <ele>802.61614990234</ele>
        <time>2013-06-30T09:24:10.000Z</time>
      </trkpt>
      <trkpt lat="46.64463" lon="5.90989">
        <ele>802.89276123047</ele>
        <time>2013-06-30T09:24:12.000Z</time>
      </trkpt>
      <trkpt lat="46.64459" lon="5.90975">
        <ele>802.94262695312</ele>
        <time>2013-06-30T09:24:14.000Z</time>
      </trkpt>
      <trkpt lat="46.64456" lon="5.90961">
        <ele>802.57305908203</ele>
        <time>2013-06-30T09:24:16.000Z</time>
      </trkpt>
      <trkpt lat="46.64453" lon="5.90948">
        <ele>802.43682861328</ele>
        <time>2013-06-30T09:24:18.000Z</time>
      </trkpt>
      <trkpt lat="46.6445" lon="5.90934">
        <ele>802.35833740234</ele>
        <time>2013-06-30T09:24:20.000Z</time>
      </trkpt>
      <trkpt lat="46.64447" lon="5.90924">
        <ele>802.28228759766</ele>
        <time>2013-06-30T09:24:22.000Z</time>
      </trkpt>
      <trkpt lat="46.64444" lon="5.90913">
        <ele>802.15496826172</ele>
        <time>2013-06-30T09:24:24.000Z</time>
      </trkpt>
      <trkpt lat="46.64442" lon="5.90902">
        <ele>801.98431396484</ele>
        <time>2013-06-30T09:24:26.000Z</time>
      </trkpt>
      <trkpt lat="46.64439" lon="5.90891">
        <ele>801.71264648438</ele>
        <time>2013-06-30T09:24:28.000Z</time>
      </trkpt>
      <trkpt lat="46.64436" lon="5.90881">
        <ele>801.42358398438</ele>
        <time>2013-06-30T09:24:30.000Z</time>
      </trkpt>
      <trkpt lat="46.64433" lon="5.90869">
        <ele>801.65325927734</ele>
        <time>2013-06-30T09:24:32.000Z</time>
      </trkpt>
      <trkpt lat="46.64431" lon="5.90856">
        <ele>801.44805908203</ele>
        <time>2013-06-30T09:24:34.000Z</time>
      </trkpt>
      <trkpt lat="46.64428" lon="5.90843">
        <ele>801.25408935547</ele>
        <time>2013-06-30T09:24:36.000Z</time>
      </trkpt>
      <trkpt lat="46.64426" lon="5.9083">
        <ele>801.32202148438</ele>
        <time>2013-06-30T09:24:38.000Z</time>
      </trkpt>
      <trkpt lat="46.64424" lon="5.90816">
        <ele>801.33624267578</ele>
        <time>2013-06-30T09:24:40.000Z</time>
      </trkpt>
      <trkpt lat="46.64423" lon="5.90803">
        <ele>801.54504394531</ele>
        <time>2013-06-30T09:24:42.000Z</time>
      </trkpt>
      <trkpt lat="46.64423" lon="5.90795">
        <ele>801.69512939453</ele>
        <time>2013-06-30T09:24:45.000Z</time>
      </trkpt>
      <trkpt lat="46.64425" lon="5.90789">
        <ele>801.73956298828</ele>
        <time>2013-06-30T09:24:57.000Z</time>
      </trkpt>
      <trkpt lat="46.64425" lon="5.90782">
        <ele>801.71795654297</ele>
        <time>2013-06-30T09:24:59.000Z</time>
      </trkpt>
      <trkpt lat="46.64425" lon="5.90775">
        <ele>801.69970703125</ele>
        <time>2013-06-30T09:25:01.000Z</time>
      </trkpt>
      <trkpt lat="46.64425" lon="5.90768">
        <ele>801.6650390625</ele>
        <time>2013-06-30T09:25:03.000Z</time>
      </trkpt>
      <trkpt lat="46.64425" lon="5.90761">
        <ele>801.72399902344</ele>
        <time>2013-06-30T09:25:05.000Z</time>
      </trkpt>
      <trkpt lat="46.64424" lon="5.90753">
        <ele>801.83990478516</ele>
        <time>2013-06-30T09:25:07.000Z</time>
      </trkpt>
      <trkpt lat="46.64423" lon="5.90744">
        <ele>801.94000244141</ele>
        <time>2013-06-30T09:25:09.000Z</time>
      </trkpt>
      <trkpt lat="46.64422" lon="5.90733">
        <ele>801.99957275391</ele>
        <time>2013-06-30T09:25:11.000Z</time>
      </trkpt>
      <trkpt lat="46.64422" lon="5.90723">
        <ele>802.02581787109</ele>
        <time>2013-06-30T09:25:13.000Z</time>
      </trkpt>
      <trkpt lat="46.6442" lon="5.90713">
        <ele>802.0693359375</ele>
        <time>2013-06-30T09:25:15.000Z</time>
      </trkpt>
      <trkpt lat="46.64419" lon="5.90702">
        <ele>802.04730224609</ele>
        <time>2013-06-30T09:25:17.000Z</time>
      </trkpt>
      <trkpt lat="46.64417" lon="5.90691">
        <ele>801.97204589844</ele>
        <time>2013-06-30T09:25:19.000Z</time>
      </trkpt>
      <trkpt lat="46.64416" lon="5.90681">
        <ele>801.93615722656</ele>
        <time>2013-06-30T09:25:21.000Z</time>
      </trkpt>
      <trkpt lat="46.64414" lon="5.9067">
        <ele>801.71240234375</ele>
        <time>2013-06-30T09:25:23.000Z</time>
      </trkpt>
      <trkpt lat="46.64411" lon="5.90659">
        <ele>801.88073730469</ele>
        <time>2013-06-30T09:25:25.000Z</time>
      </trkpt>
      <trkpt lat="46.64408" lon="5.90648">
        <ele>802.06854248047</ele>
        <time>2013-06-30T09:25:27.000Z</time>
      </trkpt>
      <trkpt lat="46.64405" lon="5.90638">
        <ele>802.37622070312</ele>
        <time>2013-06-30T09:25:29.000Z</time>
      </trkpt>
      <trkpt lat="46.64402" lon="5.90626">
        <ele>802.49938964844</ele>
        <time>2013-06-30T09:25:31.000Z</time>
      </trkpt>
      <trkpt lat="46.64398" lon="5.90613">
        <ele>802.67388916016</ele>
        <time>2013-06-30T09:25:33.000Z</time>
      </trkpt>
      <trkpt lat="46.64396" lon="5.90601">
        <ele>802.75988769531</ele>
        <time>2013-06-30T09:25:35.000Z</time>
      </trkpt>
      <trkpt lat="46.64395" lon="5.90591">
        <ele>802.74346923828</ele>
        <time>2013-06-30T09:25:37.000Z</time>
      </trkpt>
      <trkpt lat="46.64395" lon="5.90581">
        <ele>802.73095703125</ele>
        <time>2013-06-30T09:25:39.000Z</time>
      </trkpt>
      <trkpt lat="46.64395" lon="5.90572">
        <ele>803.05847167969</ele>
        <time>2013-06-30T09:25:41.000Z</time>
      </trkpt>
      <trkpt lat="46.64394" lon="5.90559">
        <ele>803.10211181641</ele>
        <time>2013-06-30T09:25:43.000Z</time>
      </trkpt>
      <trkpt lat="46.64394" lon="5.90545">
        <ele>803.42449951172</ele>
        <time>2013-06-30T09:25:45.000Z</time>
      </trkpt>
      <trkpt lat="46.64396" lon="5.90531">
        <ele>803.49322509766</ele>
        <time>2013-06-30T09:25:47.000Z</time>
      </trkpt>
      <trkpt lat="46.64397" lon="5.90517">
        <ele>803.23382568359</ele>
        <time>2013-06-30T09:25:49.000Z</time>
      </trkpt>
      <trkpt lat="46.64396" lon="5.90503">
        <ele>802.67962646484</ele>
        <time>2013-06-30T09:25:51.000Z</time>
      </trkpt>
      <trkpt lat="46.64396" lon="5.9049">
        <ele>801.95623779297</ele>
        <time>2013-06-30T09:25:53.000Z</time>
      </trkpt>
      <trkpt lat="46.64395" lon="5.90476">
        <ele>801.17413330078</ele>
        <time>2013-06-30T09:25:55.000Z</time>
      </trkpt>
      <trkpt lat="46.64393" lon="5.90462">
        <ele>801.24725341797</ele>
        <time>2013-06-30T09:25:57.000Z</time>
      </trkpt>
      <trkpt lat="46.6439" lon="5.9045">
        <ele>801.73352050781</ele>
        <time>2013-06-30T09:25:59.000Z</time>
      </trkpt>
      <trkpt lat="46.64387" lon="5.90437">
        <ele>801.74981689453</ele>
        <time>2013-06-30T09:26:01.000Z</time>
      </trkpt>
      <trkpt lat="46.64383" lon="5.90426">
        <ele>801.53558349609</ele>
        <time>2013-06-30T09:26:03.000Z</time>
      </trkpt>
      <trkpt lat="46.6438" lon="5.90416">
        <ele>801.55102539062</ele>
        <time>2013-06-30T09:26:05.000Z</time>
      </trkpt>
      <trkpt lat="46.64378" lon="5.90406">
        <ele>801.58056640625</ele>
        <time>2013-06-30T09:26:07.000Z</time>
      </trkpt>
      <trkpt lat="46.64376" lon="5.90399">
        <ele>801.65350341797</ele>
        <time>2013-06-30T09:26:09.000Z</time>
      </trkpt>
      <trkpt lat="46.64372" lon="5.90393">
        <ele>801.75579833984</ele>
        <time>2013-06-30T09:26:11.000Z</time>
      </trkpt>
      <trkpt lat="46.64367" lon="5.9039">
        <ele>801.89544677734</ele>
        <time>2013-06-30T09:26:13.000Z</time>
      </trkpt>
      <trkpt lat="46.64362" lon="5.90387">
        <ele>802.04077148438</ele>
        <time>2013-06-30T09:26:15.000Z</time>
      </trkpt>
      <trkpt lat="46.64355" lon="5.90385">
        <ele>802.16943359375</ele>
        <time>2013-06-30T09:26:17.000Z</time>
      </trkpt>
      <trkpt lat="46.64347" lon="5.90384">
        <ele>802.25457763672</ele>
        <time>2013-06-30T09:26:19.000Z</time>
      </trkpt>
      <trkpt lat="46.6434" lon="5.90384">
        <ele>802.37091064453</ele>
        <time>2013-06-30T09:26:21.000Z</time>
      </trkpt>
      <trkpt lat="46.64333" lon="5.90385">
        <ele>802.50628662109</ele>
        <time>2013-06-30T09:26:23.000Z</time>
      </trkpt>
      <trkpt lat="46.64325" lon="5.90384">
        <ele>802.63464355469</ele>
        <time>2013-06-30T09:26:25.000Z</time>
      </trkpt>
      <trkpt lat="46.64318" lon="5.90384">
        <ele>802.79290771484</ele>
        <time>2013-06-30T09:26:27.000Z</time>
      </trkpt>
      <trkpt lat="46.6431" lon="5.90384">
        <ele>803.88092041016</ele>
        <time>2013-06-30T09:26:29.000Z</time>
      </trkpt>
      <trkpt lat="46.64304" lon="5.90386">
        <ele>804.00628662109</ele>
        <time>2013-06-30T09:26:31.000Z</time>
      </trkpt>
      <trkpt lat="46.64299" lon="5.90387">
        <ele>804.21307373047</ele>
        <time>2013-06-30T09:26:33.000Z</time>
      </trkpt>
      <trkpt lat="46.64293" lon="5.90392">
        <ele>804.61126708984</ele>
        <time>2013-06-30T09:26:36.000Z</time>
      </trkpt>
      <trkpt lat="46.64289" lon="5.90395">
        <ele>804.99224853516</ele>
        <time>2013-06-30T09:26:38.000Z</time>
      </trkpt>
      <trkpt lat="46.64284" lon="5.90399">
        <ele>805.42956542969</ele>
        <time>2013-06-30T09:26:40.000Z</time>
      </trkpt>
      <trkpt lat="46.6428" lon="5.90404">
        <ele>805.95703125</ele>
        <time>2013-06-30T09:26:42.000Z</time>
      </trkpt>
      <trkpt lat="46.64275" lon="5.90411">
        <ele>806.72991943359</ele>
        <time>2013-06-30T09:26:45.000Z</time>
      </trkpt>
      <trkpt lat="46.6427" lon="5.90418">
        <ele>807.18371582031</ele>
        <time>2013-06-30T09:26:47.000Z</time>
      </trkpt>
      <trkpt lat="46.64267" lon="5.90422">
        <ele>807.50842285156</ele>
        <time>2013-06-30T09:26:49.000Z</time>
      </trkpt>
      <trkpt lat="46.64263" lon="5.90426">
        <ele>807.86724853516</ele>
        <time>2013-06-30T09:26:52.000Z</time>
      </trkpt>
      <trkpt lat="46.64258" lon="5.90427">
        <ele>808.05694580078</ele>
        <time>2013-06-30T09:26:55.000Z</time>
      </trkpt>
      <trkpt lat="46.64253" lon="5.90429">
        <ele>808.22143554688</ele>
        <time>2013-06-30T09:26:58.000Z</time>
      </trkpt>
      <trkpt lat="46.64248" lon="5.90428">
        <ele>808.37139892578</ele>
        <time>2013-06-30T09:27:00.000Z</time>
      </trkpt>
      <trkpt lat="46.64242" lon="5.90422">
        <ele>808.61877441406</ele>
        <time>2013-06-30T09:27:03.000Z</time>
      </trkpt>
      <trkpt lat="46.64239" lon="5.90417">
        <ele>808.76672363281</ele>
        <time>2013-06-30T09:27:05.000Z</time>
      </trkpt>
      <trkpt lat="46.64236" lon="5.9041">
        <ele>808.89361572266</ele>
        <time>2013-06-30T09:27:07.000Z</time>
      </trkpt>
      <trkpt lat="46.64234" lon="5.90403">
        <ele>809.01135253906</ele>
        <time>2013-06-30T09:27:09.000Z</time>
      </trkpt>
      <trkpt lat="46.64232" lon="5.90396">
        <ele>809.13610839844</ele>
        <time>2013-06-30T09:27:11.000Z</time>
      </trkpt>
      <trkpt lat="46.64231" lon="5.90389">
        <ele>809.26043701172</ele>
        <time>2013-06-30T09:27:13.000Z</time>
      </trkpt>
      <trkpt lat="46.64229" lon="5.90381">
        <ele>809.38970947266</ele>
        <time>2013-06-30T09:27:15.000Z</time>
      </trkpt>
      <trkpt lat="46.64228" lon="5.90374">
        <ele>809.54107666016</ele>
        <time>2013-06-30T09:27:17.000Z</time>
      </trkpt>
      <trkpt lat="46.64227" lon="5.90367">
        <ele>809.71154785156</ele>
        <time>2013-06-30T09:27:19.000Z</time>
      </trkpt>
      <trkpt lat="46.64225" lon="5.90361">
        <ele>809.90386962891</ele>
        <time>2013-06-30T09:27:21.000Z</time>
      </trkpt>
      <trkpt lat="46.64224" lon="5.90354">
        <ele>810.12213134766</ele>
        <time>2013-06-30T09:27:23.000Z</time>
      </trkpt>
      <trkpt lat="46.64222" lon="5.90348">
        <ele>810.35339355469</ele>
        <time>2013-06-30T09:27:25.000Z</time>
      </trkpt>
      <trkpt lat="46.64218" lon="5.90343">
        <ele>810.59539794922</ele>
        <time>2013-06-30T09:27:27.000Z</time>
      </trkpt>
      <trkpt lat="46.64214" lon="5.9034">
        <ele>810.82727050781</ele>
        <time>2013-06-30T09:27:29.000Z</time>
      </trkpt>
      <trkpt lat="46.64209" lon="5.90336">
        <ele>811.099609375</ele>
        <time>2013-06-30T09:27:31.000Z</time>
      </trkpt>
      <trkpt lat="46.64205" lon="5.90331">
        <ele>811.37512207031</ele>
        <time>2013-06-30T09:27:33.000Z</time>
      </trkpt>
      <trkpt lat="46.64201" lon="5.90328">
        <ele>811.74884033203</ele>
        <time>2013-06-30T09:27:35.000Z</time>
      </trkpt>
      <trkpt lat="46.64196" lon="5.90324">
        <ele>812.10626220703</ele>
        <time>2013-06-30T09:27:37.000Z</time>
      </trkpt>
      <trkpt lat="46.64191" lon="5.90322">
        <ele>812.44134521484</ele>
        <time>2013-06-30T09:27:39.000Z</time>
      </trkpt>
      <trkpt lat="46.64186" lon="5.90321">
        <ele>812.70263671875</ele>
        <time>2013-06-30T09:27:41.000Z</time>
      </trkpt>
      <trkpt lat="46.6418" lon="5.90319">
        <ele>812.92706298828</ele>
        <time>2013-06-30T09:27:43.000Z</time>
      </trkpt>
      <trkpt lat="46.64175" lon="5.90317">
        <ele>813.15692138672</ele>
        <time>2013-06-30T09:27:45.000Z</time>
      </trkpt>
      <trkpt lat="46.6417" lon="5.90316">
        <ele>813.35784912109</ele>
        <time>2013-06-30T09:27:47.000Z</time>
      </trkpt>
      <trkpt lat="46.64166" lon="5.90314">
        <ele>813.54577636719</ele>
        <time>2013-06-30T09:27:49.000Z</time>
      </trkpt>
      <trkpt lat="46.6416" lon="5.9031">
        <ele>813.84375</ele>
        <time>2013-06-30T09:27:52.000Z</time>
      </trkpt>
      <trkpt lat="46.64155" lon="5.90307">
        <ele>814.52416992188</ele>
        <time>2013-06-30T09:27:56.000Z</time>
      </trkpt>
      <trkpt lat="46.64151" lon="5.90303">
        <ele>815.00250244141</ele>
        <time>2013-06-30T09:27:59.000Z</time>
      </trkpt>
      <trkpt lat="46.64146" lon="5.903">
        <ele>815.67034912109</ele>
        <time>2013-06-30T09:28:03.000Z</time>
      </trkpt>
      <trkpt lat="46.64142" lon="5.90298">
        <ele>816.37506103516</ele>
        <time>2013-06-30T09:28:06.000Z</time>
      </trkpt>
      <trkpt lat="46.64137" lon="5.90294">
        <ele>817.40637207031</ele>
        <time>2013-06-30T09:28:10.000Z</time>
      </trkpt>
      <trkpt lat="46.64133" lon="5.90288">
        <ele>818.83728027344</ele>
        <time>2013-06-30T09:28:14.000Z</time>
      </trkpt>
      <trkpt lat="46.64131" lon="5.90281">
        <ele>820.20593261719</ele>
        <time>2013-06-30T09:28:18.000Z</time>
      </trkpt>
      <trkpt lat="46.64128" lon="5.90276">
        <ele>821.67584228516</ele>
        <time>2013-06-30T09:28:22.000Z</time>
      </trkpt>
      <trkpt lat="46.64124" lon="5.9027">
        <ele>822.92199707031</ele>
        <time>2013-06-30T09:28:30.000Z</time>
      </trkpt>
      <trkpt lat="46.64119" lon="5.90267">
        <ele>823.97204589844</ele>
        <time>2013-06-30T09:28:35.000Z</time>
      </trkpt>
      <trkpt lat="46.64114" lon="5.90264">
        <ele>825.60260009766</ele>
        <time>2013-06-30T09:28:40.000Z</time>
      </trkpt>
      <trkpt lat="46.6411" lon="5.90259">
        <ele>826.54766845703</ele>
        <time>2013-06-30T09:28:45.000Z</time>
      </trkpt>
      <trkpt lat="46.64106" lon="5.90255">
        <ele>827.24890136719</ele>
        <time>2013-06-30T09:28:51.000Z</time>
      </trkpt>
      <trkpt lat="46.64103" lon="5.90249">
        <ele>827.93475341797</ele>
        <time>2013-06-30T09:28:55.000Z</time>
      </trkpt>
      <trkpt lat="46.64101" lon="5.90242">
        <ele>828.63177490234</ele>
        <time>2013-06-30T09:29:01.000Z</time>
      </trkpt>
      <trkpt lat="46.64098" lon="5.90238">
        <ele>828.96557617188</ele>
        <time>2013-06-30T09:29:07.000Z</time>
      </trkpt>
      <trkpt lat="46.64094" lon="5.90234">
        <ele>829.64453125</ele>
        <time>2013-06-30T09:29:11.000Z</time>
      </trkpt>
      <trkpt lat="46.6409" lon="5.90228">
        <ele>830.38195800781</ele>
        <time>2013-06-30T09:29:14.000Z</time>
      </trkpt>
      <trkpt lat="46.64086" lon="5.90223">
        <ele>831.72723388672</ele>
        <time>2013-06-30T09:29:19.000Z</time>
      </trkpt>
      <trkpt lat="46.64081" lon="5.90221">
        <ele>832.68371582031</ele>
        <time>2013-06-30T09:29:23.000Z</time>
      </trkpt>
      <trkpt lat="46.64077" lon="5.90216">
        <ele>834.99865722656</ele>
        <time>2013-06-30T09:29:31.000Z</time>
      </trkpt>
      <trkpt lat="46.64075" lon="5.9021">
        <ele>835.86029052734</ele>
        <time>2013-06-30T09:29:34.000Z</time>
      </trkpt>
      <trkpt lat="46.64073" lon="5.90202">
        <ele>836.6982421875</ele>
        <time>2013-06-30T09:29:37.000Z</time>
      </trkpt>
      <trkpt lat="46.6407" lon="5.90196">
        <ele>837.43438720703</ele>
        <time>2013-06-30T09:29:40.000Z</time>
      </trkpt>
      <trkpt lat="46.64065" lon="5.90189">
        <ele>838.05474853516</ele>
        <time>2013-06-30T09:29:43.000Z</time>
      </trkpt>
      <trkpt lat="46.64061" lon="5.90183">
        <ele>838.58294677734</ele>
        <time>2013-06-30T09:29:46.000Z</time>
      </trkpt>
      <trkpt lat="46.64058" lon="5.90178">
        <ele>838.86627197266</ele>
        <time>2013-06-30T09:29:48.000Z</time>
      </trkpt>
      <trkpt lat="46.64054" lon="5.90171">
        <ele>839.25610351562</ele>
        <time>2013-06-30T09:29:51.000Z</time>
      </trkpt>
      <trkpt lat="46.64051" lon="5.90165">
        <ele>839.70397949219</ele>
        <time>2013-06-30T09:29:54.000Z</time>
      </trkpt>
      <trkpt lat="46.64047" lon="5.90157">
        <ele>840.36260986328</ele>
        <time>2013-06-30T09:29:57.000Z</time>
      </trkpt>
      <trkpt lat="46.64044" lon="5.9015">
        <ele>840.75506591797</ele>
        <time>2013-06-30T09:29:59.000Z</time>
      </trkpt>
      <trkpt lat="46.64042" lon="5.90143">
        <ele>841.06829833984</ele>
        <time>2013-06-30T09:30:01.000Z</time>
      </trkpt>
      <trkpt lat="46.64039" lon="5.90134">
        <ele>841.56829833984</ele>
        <time>2013-06-30T09:30:04.000Z</time>
      </trkpt>
      <trkpt lat="46.64037" lon="5.90127">
        <ele>841.86901855469</ele>
        <time>2013-06-30T09:30:06.000Z</time>
      </trkpt>
      <trkpt lat="46.64034" lon="5.9012">
        <ele>842.14581298828</ele>
        <time>2013-06-30T09:30:08.000Z</time>
      </trkpt>
      <trkpt lat="46.64031" lon="5.90112">
        <ele>842.44879150391</ele>
        <time>2013-06-30T09:30:10.000Z</time>
      </trkpt>
      <trkpt lat="46.64027" lon="5.90105">
        <ele>842.70043945312</ele>
        <time>2013-06-30T09:30:12.000Z</time>
      </trkpt>
      <trkpt lat="46.64024" lon="5.90098">
        <ele>842.91674804688</ele>
        <time>2013-06-30T09:30:14.000Z</time>
      </trkpt>
      <trkpt lat="46.6402" lon="5.90093">
        <ele>843.1533203125</ele>
        <time>2013-06-30T09:30:16.000Z</time>
      </trkpt>
      <trkpt lat="46.64016" lon="5.90088">
        <ele>843.40557861328</ele>
        <time>2013-06-30T09:30:18.000Z</time>
      </trkpt>
      <trkpt lat="46.6401" lon="5.90084">
        <ele>843.68115234375</ele>
        <time>2013-06-30T09:30:20.000Z</time>
      </trkpt>
      <trkpt lat="46.64004" lon="5.90079">
        <ele>843.92248535156</ele>
        <time>2013-06-30T09:30:22.000Z</time>
      </trkpt>
      <trkpt lat="46.63999" lon="5.90075">
        <ele>844.24615478516</ele>
        <time>2013-06-30T09:30:24.000Z</time>
      </trkpt>
      <trkpt lat="46.63994" lon="5.9007">
        <ele>844.56170654297</ele>
        <time>2013-06-30T09:30:26.000Z</time>
      </trkpt>
      <trkpt lat="46.63989" lon="5.90065">
        <ele>844.85595703125</ele>
        <time>2013-06-30T09:30:28.000Z</time>
      </trkpt>
      <trkpt lat="46.63985" lon="5.90061">
        <ele>845.15716552734</ele>
        <time>2013-06-30T09:30:30.000Z</time>
      </trkpt>
      <trkpt lat="46.6398" lon="5.90057">
        <ele>845.43402099609</ele>
        <time>2013-06-30T09:30:32.000Z</time>
      </trkpt>
      <trkpt lat="46.63975" lon="5.90053">
        <ele>845.70782470703</ele>
        <time>2013-06-30T09:30:34.000Z</time>
      </trkpt>
      <trkpt lat="46.6397" lon="5.90049">
        <ele>846.02569580078</ele>
        <time>2013-06-30T09:30:36.000Z</time>
      </trkpt>
      <trkpt lat="46.63965" lon="5.90045">
        <ele>846.33551025391</ele>
        <time>2013-06-30T09:30:38.000Z</time>
      </trkpt>
      <trkpt lat="46.6396" lon="5.90042">
        <ele>846.61010742188</ele>
        <time>2013-06-30T09:30:40.000Z</time>
      </trkpt>
      <trkpt lat="46.63955" lon="5.90039">
        <ele>846.80773925781</ele>
        <time>2013-06-30T09:30:42.000Z</time>
      </trkpt>
      <trkpt lat="46.6395" lon="5.90035">
        <ele>847.00360107422</ele>
        <time>2013-06-30T09:30:44.000Z</time>
      </trkpt>
      <trkpt lat="46.63944" lon="5.90031">
        <ele>847.203125</ele>
        <time>2013-06-30T09:30:46.000Z</time>
      </trkpt>
      <trkpt lat="46.63939" lon="5.90028">
        <ele>847.4267578125</ele>
        <time>2013-06-30T09:30:48.000Z</time>
      </trkpt>
      <trkpt lat="46.63933" lon="5.90024">
        <ele>847.65399169922</ele>
        <time>2013-06-30T09:30:50.000Z</time>
      </trkpt>
      <trkpt lat="46.63929" lon="5.90022">
        <ele>847.90173339844</ele>
        <time>2013-06-30T09:30:52.000Z</time>
      </trkpt>
      <trkpt lat="46.63924" lon="5.90019">
        <ele>848.1630859375</ele>
        <time>2013-06-30T09:30:54.000Z</time>
      </trkpt>
      <trkpt lat="46.63917" lon="5.9002">
        <ele>848.59014892578</ele>
        <time>2013-06-30T09:30:57.000Z</time>
      </trkpt>
      <trkpt lat="46.63912" lon="5.9002">
        <ele>848.84674072266</ele>
        <time>2013-06-30T09:30:59.000Z</time>
      </trkpt>
      <trkpt lat="46.63905" lon="5.9002">
        <ele>849.07653808594</ele>
        <time>2013-06-30T09:31:01.000Z</time>
      </trkpt>
      <trkpt lat="46.639" lon="5.9002">
        <ele>849.3115234375</ele>
        <time>2013-06-30T09:31:03.000Z</time>
      </trkpt>
      <trkpt lat="46.63895" lon="5.9002">
        <ele>849.49652099609</ele>
        <time>2013-06-30T09:31:05.000Z</time>
      </trkpt>
      <trkpt lat="46.63889" lon="5.90019">
        <ele>849.57427978516</ele>
        <time>2013-06-30T09:31:08.000Z</time>
      </trkpt>
      <trkpt lat="46.63883" lon="5.90017">
        <ele>849.60089111328</ele>
        <time>2013-06-30T09:31:10.000Z</time>
      </trkpt>
      <trkpt lat="46.63876" lon="5.90014">
        <ele>849.72357177734</ele>
        <time>2013-06-30T09:31:12.000Z</time>
      </trkpt>
      <trkpt lat="46.63868" lon="5.9001">
        <ele>850.35107421875</ele>
        <time>2013-06-30T09:31:14.000Z</time>
      </trkpt>
      <trkpt lat="46.6386" lon="5.90006">
        <ele>850.73431396484</ele>
        <time>2013-06-30T09:31:16.000Z</time>
      </trkpt>
      <trkpt lat="46.6385" lon="5.90001">
        <ele>850.77478027344</ele>
        <time>2013-06-30T09:31:18.000Z</time>
      </trkpt>
      <trkpt lat="46.63842" lon="5.89996">
        <ele>850.00476074219</ele>
        <time>2013-06-30T09:31:20.000Z</time>
      </trkpt>
      <trkpt lat="46.63835" lon="5.89992">
        <ele>849.61071777344</ele>
        <time>2013-06-30T09:31:22.000Z</time>
      </trkpt>
      <trkpt lat="46.63828" lon="5.89988">
        <ele>849.59112548828</ele>
        <time>2013-06-30T09:31:24.000Z</time>
      </trkpt>
      <trkpt lat="46.63823" lon="5.89985">
        <ele>849.56207275391</ele>
        <time>2013-06-30T09:31:26.000Z</time>
      </trkpt>
      <trkpt lat="46.63816" lon="5.89981">
        <ele>849.48156738281</ele>
        <time>2013-06-30T09:31:28.000Z</time>
      </trkpt>
      <trkpt lat="46.6381" lon="5.89978">
        <ele>849.36468505859</ele>
        <time>2013-06-30T09:31:30.000Z</time>
      </trkpt>
      <trkpt lat="46.63803" lon="5.89974">
        <ele>849.24261474609</ele>
        <time>2013-06-30T09:31:32.000Z</time>
      </trkpt>
      <trkpt lat="46.63797" lon="5.89971">
        <ele>849.12847900391</ele>
        <time>2013-06-30T09:31:34.000Z</time>
      </trkpt>
      <trkpt lat="46.6379" lon="5.89967">
        <ele>849.00091552734</ele>
        <time>2013-06-30T09:31:36.000Z</time>
      </trkpt>
      <trkpt lat="46.63782" lon="5.89963">
        <ele>847.76812744141</ele>
        <time>2013-06-30T09:31:38.000Z</time>
      </trkpt>
      <trkpt lat="46.63771" lon="5.89964">
        <ele>847.30560302734</ele>
        <time>2013-06-30T09:31:40.000Z</time>
      </trkpt>
      <trkpt lat="46.63765" lon="5.8997">
        <ele>847.30255126953</ele>
        <time>2013-06-30T09:31:42.000Z</time>
      </trkpt>
      <trkpt lat="46.6376" lon="5.89979">
        <ele>847.29504394531</ele>
        <time>2013-06-30T09:31:44.000Z</time>
      </trkpt>
      <trkpt lat="46.63759" lon="5.89987">
        <ele>847.27777099609</ele>
        <time>2013-06-30T09:31:46.000Z</time>
      </trkpt>
      <trkpt lat="46.63761" lon="5.89995">
        <ele>847.32977294922</ele>
        <time>2013-06-30T09:31:48.000Z</time>
      </trkpt>
      <trkpt lat="46.63762" lon="5.90001">
        <ele>847.33557128906</ele>
        <time>2013-06-30T09:31:52.000Z</time>
      </trkpt>
      <trkpt lat="46.63767" lon="5.90001">
        <ele>847.02093505859</ele>
        <time>2013-06-30T09:32:05.000Z</time>
      </trkpt>
      <trkpt lat="46.63771" lon="5.90004">
        <ele>846.77716064453</ele>
        <time>2013-06-30T09:32:11.000Z</time>
      </trkpt>
      <trkpt lat="46.63776" lon="5.90005">
        <ele>846.78649902344</ele>
        <time>2013-06-30T09:32:17.000Z</time>
      </trkpt>
      <trkpt lat="46.63779" lon="5.9001">
        <ele>846.39111328125</ele>
        <time>2013-06-30T09:32:26.000Z</time>
      </trkpt>
      <trkpt lat="46.63781" lon="5.90004">
        <ele>846.21600341797</ele>
        <time>2013-06-30T09:34:27.000Z</time>
      </trkpt>
      <trkpt lat="46.63785" lon="5.90005">
        <ele>845.95770263672</ele>
        <time>2013-06-30T09:34:49.000Z</time>
      </trkpt>
      <trkpt lat="46.63781" lon="5.90002">
        <ele>846.09838867188</ele>
        <time>2013-06-30T09:35:01.000Z</time>
      </trkpt>
      <trkpt lat="46.63779" lon="5.90009">
        <ele>845.82159423828</ele>
        <time>2013-06-30T09:35:38.000Z</time>
      </trkpt>
      <trkpt lat="46.63783" lon="5.90004">
        <ele>846.24426269531</ele>
        <time>2013-06-30T09:35:55.000Z</time>
      </trkpt>
      <trkpt lat="46.63787" lon="5.90007">
        <ele>846.01116943359</ele>
        <time>2013-06-30T09:36:55.000Z</time>
      </trkpt>
      <trkpt lat="46.63783" lon="5.90004">
        <ele>845.87561035156</ele>
        <time>2013-06-30T09:37:24.000Z</time>
      </trkpt>
      <trkpt lat="46.63778" lon="5.90004">
        <ele>845.9775390625</ele>
        <time>2013-06-30T09:39:21.000Z</time>
      </trkpt>
      <trkpt lat="46.63783" lon="5.90006">
        <ele>846.02508544922</ele>
        <time>2013-06-30T09:39:48.000Z</time>
      </trkpt>
      <trkpt lat="46.63784" lon="5.9">
        <ele>846.60607910156</ele>
        <time>2013-06-30T09:40:20.000Z</time>
      </trkpt>
      <trkpt lat="46.6378" lon="5.90004">
        <ele>846.62158203125</ele>
        <time>2013-06-30T09:40:32.000Z</time>
      </trkpt>
      <trkpt lat="46.6378" lon="5.89997">
        <ele>845.41058349609</ele>
        <time>2013-06-30T09:44:00.000Z</time>
      </trkpt>
      <trkpt lat="46.63778" lon="5.90003">
        <ele>846.27233886719</ele>
        <time>2013-06-30T09:44:46.000Z</time>
      </trkpt>
      <trkpt lat="46.6378" lon="5.90009">
        <ele>846.22399902344</ele>
        <time>2013-06-30T09:46:54.000Z</time>
      </trkpt>
      <trkpt lat="46.63778" lon="5.90003">
        <ele>846.23083496094</ele>
        <time>2013-06-30T09:47:40.000Z</time>
      </trkpt>
      <trkpt lat="46.63774" lon="5.90004">
        <ele>846.39184570312</ele>
        <time>2013-06-30T09:48:05.000Z</time>
      </trkpt>
      <trkpt lat="46.63769" lon="5.90004">
        <ele>846.48651123047</ele>
        <time>2013-06-30T09:48:12.000Z</time>
      </trkpt>
      <trkpt lat="46.63764" lon="5.90001">
        <ele>846.60400390625</ele>
        <time>2013-06-30T09:48:18.000Z</time>
      </trkpt>
      <trkpt lat="46.63766" lon="5.89994">
        <ele>846.36846923828</ele>
        <time>2013-06-30T09:48:46.000Z</time>
      </trkpt>
      <trkpt lat="46.63763" lon="5.89986">
        <ele>846.54669189453</ele>
        <time>2013-06-30T09:48:50.000Z</time>
      </trkpt>
      <trkpt lat="46.63761" lon="5.89978">
        <ele>846.78521728516</ele>
        <time>2013-06-30T09:48:55.000Z</time>
      </trkpt>
      <trkpt lat="46.63762" lon="5.89972">
        <ele>847.01861572266</ele>
        <time>2013-06-30T09:48:59.000Z</time>
      </trkpt>
      <trkpt lat="46.63767" lon="5.89973">
        <ele>847.97344970703</ele>
        <time>2013-06-30T09:52:05.000Z</time>
      </trkpt>
      <trkpt lat="46.63762" lon="5.89972">
        <ele>848.11083984375</ele>
        <time>2013-06-30T09:52:25.000Z</time>
      </trkpt>
      <trkpt lat="46.6376" lon="5.89965">
        <ele>847.64324951172</ele>
        <time>2013-06-30T09:54:24.999Z</time>
      </trkpt>
      <trkpt lat="46.63754" lon="5.89961">
        <ele>847.77764892578</ele>
        <time>2013-06-30T09:54:27.999Z</time>
      </trkpt>
      <trkpt lat="46.63749" lon="5.89958">
        <ele>847.88439941406</ele>
        <time>2013-06-30T09:54:29.999Z</time>
      </trkpt>
      <trkpt lat="46.63747" lon="5.89951">
        <ele>847.93414306641</ele>
        <time>2013-06-30T09:54:32.999Z</time>
      </trkpt>
      <trkpt lat="46.63749" lon="5.89941">
        <ele>848.06414794922</ele>
        <time>2013-06-30T09:54:35.999Z</time>
      </trkpt>
      <trkpt lat="46.63751" lon="5.89928">
        <ele>848.06744384766</ele>
        <time>2013-06-30T09:54:37.999Z</time>
      </trkpt>
      <trkpt lat="46.63753" lon="5.89917">
        <ele>848.37902832031</ele>
        <time>2013-06-30T09:54:39.999Z</time>
      </trkpt>
      <trkpt lat="46.63754" lon="5.89904">
        <ele>849.2177734375</ele>
        <time>2013-06-30T09:54:41.999Z</time>
      </trkpt>
      <trkpt lat="46.63756" lon="5.89892">
        <ele>849.10345458984</ele>
        <time>2013-06-30T09:54:43.999Z</time>
      </trkpt>
      <trkpt lat="46.63758" lon="5.89876">
        <ele>847.95989990234</ele>
        <time>2013-06-30T09:54:45.999Z</time>
      </trkpt>
      <trkpt lat="46.63759" lon="5.89864">
        <ele>846.40466308594</ele>
        <time>2013-06-30T09:54:47.999Z</time>
      </trkpt>
      <trkpt lat="46.6376" lon="5.89855">
        <ele>846.42645263672</ele>
        <time>2013-06-30T09:54:49.999Z</time>
      </trkpt>
      <trkpt lat="46.63762" lon="5.89847">
        <ele>846.55737304688</ele>
        <time>2013-06-30T09:54:51.999Z</time>
      </trkpt>
      <trkpt lat="46.63764" lon="5.8984">
        <ele>846.72119140625</ele>
        <time>2013-06-30T09:54:53.999Z</time>
      </trkpt>
      <trkpt lat="46.63763" lon="5.8983">
        <ele>846.90411376953</ele>
        <time>2013-06-30T09:54:56.999Z</time>
      </trkpt>
      <trkpt lat="46.63761" lon="5.89823">
        <ele>847.01055908203</ele>
        <time>2013-06-30T09:54:58.999Z</time>
      </trkpt>
      <trkpt lat="46.63759" lon="5.89815">
        <ele>847.09826660156</ele>
        <time>2013-06-30T09:55:00.999Z</time>
      </trkpt>
      <trkpt lat="46.63757" lon="5.89807">
        <ele>847.1630859375</ele>
        <time>2013-06-30T09:55:02.999Z</time>
      </trkpt>
      <trkpt lat="46.63753" lon="5.89799">
        <ele>847.18225097656</ele>
        <time>2013-06-30T09:55:05.999Z</time>
      </trkpt>
      <trkpt lat="46.63751" lon="5.89794">
        <ele>847.11334228516</ele>
        <time>2013-06-30T09:55:08.999Z</time>
      </trkpt>
      <trkpt lat="46.63746" lon="5.89786">
        <ele>847.18634033203</ele>
        <time>2013-06-30T09:55:11.999Z</time>
      </trkpt>
      <trkpt lat="46.63742" lon="5.89779">
        <ele>847.24035644531</ele>
        <time>2013-06-30T09:55:13.999Z</time>
      </trkpt>
      <trkpt lat="46.63738" lon="5.89772">
        <ele>847.23223876953</ele>
        <time>2013-06-30T09:55:15.999Z</time>
      </trkpt>
      <trkpt lat="46.63733" lon="5.89766">
        <ele>847.25122070312</ele>
        <time>2013-06-30T09:55:17.999Z</time>
      </trkpt>
      <trkpt lat="46.63729" lon="5.89761">
        <ele>847.65032958984</ele>
        <time>2013-06-30T09:55:20.999Z</time>
      </trkpt>
      <trkpt lat="46.63724" lon="5.89758">
        <ele>848.22888183594</ele>
        <time>2013-06-30T09:55:23.999Z</time>
      </trkpt>
      <trkpt lat="46.6372" lon="5.89752">
        <ele>848.73516845703</ele>
        <time>2013-06-30T09:55:26.999Z</time>
      </trkpt>
      <trkpt lat="46.63715" lon="5.89746">
        <ele>849.24591064453</ele>
        <time>2013-06-30T09:55:29.999Z</time>
      </trkpt>
      <trkpt lat="46.63711" lon="5.89742">
        <ele>849.62023925781</ele>
        <time>2013-06-30T09:55:31.999Z</time>
      </trkpt>
      <trkpt lat="46.63702" lon="5.8974">
        <ele>849.87786865234</ele>
        <time>2013-06-30T09:55:33.999Z</time>
      </trkpt>
      <trkpt lat="46.63691" lon="5.89739">
        <ele>850.12957763672</ele>
        <time>2013-06-30T09:55:35.999Z</time>
      </trkpt>
      <trkpt lat="46.63684" lon="5.89737">
        <ele>850.3125</ele>
        <time>2013-06-30T09:55:37.999Z</time>
      </trkpt>
      <trkpt lat="46.63678" lon="5.89734">
        <ele>850.53515625</ele>
        <time>2013-06-30T09:55:40.999Z</time>
      </trkpt>
      <trkpt lat="46.63673" lon="5.89731">
        <ele>850.78479003906</ele>
        <time>2013-06-30T09:55:42.999Z</time>
      </trkpt>
      <trkpt lat="46.63668" lon="5.89728">
        <ele>851.03656005859</ele>
        <time>2013-06-30T09:55:44.999Z</time>
      </trkpt>
      <trkpt lat="46.63663" lon="5.89725">
        <ele>851.24865722656</ele>
        <time>2013-06-30T09:55:46.999Z</time>
      </trkpt>
      <trkpt lat="46.63659" lon="5.89721">
        <ele>851.29309082031</ele>
        <time>2013-06-30T09:55:48.999Z</time>
      </trkpt>
      <trkpt lat="46.63653" lon="5.89715">
        <ele>851.27880859375</ele>
        <time>2013-06-30T09:55:51.999Z</time>
      </trkpt>
      <trkpt lat="46.63648" lon="5.89711">
        <ele>851.16510009766</ele>
        <time>2013-06-30T09:55:53.999Z</time>
      </trkpt>
      <trkpt lat="46.63644" lon="5.89707">
        <ele>851.04931640625</ele>
        <time>2013-06-30T09:55:55.999Z</time>
      </trkpt>
      <trkpt lat="46.63639" lon="5.89704">
        <ele>850.94110107422</ele>
        <time>2013-06-30T09:55:58.999Z</time>
      </trkpt>
      <trkpt lat="46.63633" lon="5.89702">
        <ele>850.95172119141</ele>
        <time>2013-06-30T09:56:01.999Z</time>
      </trkpt>
      <trkpt lat="46.63629" lon="5.89702">
        <ele>850.97106933594</ele>
        <time>2013-06-30T09:56:03.999Z</time>
      </trkpt>
      <trkpt lat="46.63624" lon="5.897">
        <ele>851.11700439453</ele>
        <time>2013-06-30T09:56:05.999Z</time>
      </trkpt>
      <trkpt lat="46.63618" lon="5.897">
        <ele>851.2353515625</ele>
        <time>2013-06-30T09:56:07.999Z</time>
      </trkpt>
      <trkpt lat="46.63611" lon="5.897">
        <ele>851.36663818359</ele>
        <time>2013-06-30T09:56:09.999Z</time>
      </trkpt>
      <trkpt lat="46.63603" lon="5.897">
        <ele>851.50500488281</ele>
        <time>2013-06-30T09:56:11.999Z</time>
      </trkpt>
      <trkpt lat="46.63594" lon="5.89701">
        <ele>851.67687988281</ele>
        <time>2013-06-30T09:56:13.999Z</time>
      </trkpt>
      <trkpt lat="46.63585" lon="5.89703">
        <ele>851.81774902344</ele>
        <time>2013-06-30T09:56:15.999Z</time>
      </trkpt>
      <trkpt lat="46.63576" lon="5.89702">
        <ele>851.76330566406</ele>
        <time>2013-06-30T09:56:17.999Z</time>
      </trkpt>
      <trkpt lat="46.63568" lon="5.89701">
        <ele>851.57861328125</ele>
        <time>2013-06-30T09:56:19.999Z</time>
      </trkpt>
      <trkpt lat="46.63561" lon="5.897">
        <ele>851.3408203125</ele>
        <time>2013-06-30T09:56:21.999Z</time>
      </trkpt>
      <trkpt lat="46.63554" lon="5.89699">
        <ele>851.11804199219</ele>
        <time>2013-06-30T09:56:23.999Z</time>
      </trkpt>
      <trkpt lat="46.63544" lon="5.89699">
        <ele>849.51495361328</ele>
        <time>2013-06-30T09:56:25.999Z</time>
      </trkpt>
      <trkpt lat="46.63535" lon="5.897">
        <ele>847.78601074219</ele>
        <time>2013-06-30T09:56:27.999Z</time>
      </trkpt>
      <trkpt lat="46.63523" lon="5.897">
        <ele>846.64697265625</ele>
        <time>2013-06-30T09:56:29.999Z</time>
      </trkpt>
      <trkpt lat="46.6351" lon="5.89702">
        <ele>845.29028320312</ele>
        <time>2013-06-30T09:56:31.999Z</time>
      </trkpt>
      <trkpt lat="46.63498" lon="5.89705">
        <ele>843.98474121094</ele>
        <time>2013-06-30T09:56:33.999Z</time>
      </trkpt>
      <trkpt lat="46.63483" lon="5.8971">
        <ele>842.40069580078</ele>
        <time>2013-06-30T09:56:35.999Z</time>
      </trkpt>
      <trkpt lat="46.63468" lon="5.89714">
        <ele>841.08172607422</ele>
        <time>2013-06-30T09:56:37.999Z</time>
      </trkpt>
      <trkpt lat="46.63451" lon="5.89714">
        <ele>839.76397705078</ele>
        <time>2013-06-30T09:56:39.999Z</time>
      </trkpt>
      <trkpt lat="46.63441" lon="5.89706">
        <ele>838.40026855469</ele>
        <time>2013-06-30T09:56:41.999Z</time>
      </trkpt>
      <trkpt lat="46.63433" lon="5.89694">
        <ele>837.29028320312</ele>
        <time>2013-06-30T09:56:43.999Z</time>
      </trkpt>
      <trkpt lat="46.63425" lon="5.89681">
        <ele>836.52160644531</ele>
        <time>2013-06-30T09:56:45.999Z</time>
      </trkpt>
      <trkpt lat="46.63418" lon="5.89669">
        <ele>835.6025390625</ele>
        <time>2013-06-30T09:56:47.999Z</time>
      </trkpt>
      <trkpt lat="46.63409" lon="5.89655">
        <ele>834.61242675781</ele>
        <time>2013-06-30T09:56:49.999Z</time>
      </trkpt>
      <trkpt lat="46.63402" lon="5.8964">
        <ele>833.4658203125</ele>
        <time>2013-06-30T09:56:51.999Z</time>
      </trkpt>
      <trkpt lat="46.63399" lon="5.89622">
        <ele>833.21862792969</ele>
        <time>2013-06-30T09:56:53.999Z</time>
      </trkpt>
      <trkpt lat="46.63395" lon="5.896">
        <ele>833.30096435547</ele>
        <time>2013-06-30T09:56:55.999Z</time>
      </trkpt>
      <trkpt lat="46.63393" lon="5.89578">
        <ele>833.11950683594</ele>
        <time>2013-06-30T09:56:57.999Z</time>
      </trkpt>
      <trkpt lat="46.63395" lon="5.89556">
        <ele>832.66082763672</ele>
        <time>2013-06-30T09:56:59.999Z</time>
      </trkpt>
      <trkpt lat="46.634" lon="5.89532">
        <ele>832.42156982422</ele>
        <time>2013-06-30T09:57:01.999Z</time>
      </trkpt>
      <trkpt lat="46.63404" lon="5.89508">
        <ele>831.28857421875</ele>
        <time>2013-06-30T09:57:03.999Z</time>
      </trkpt>
      <trkpt lat="46.63405" lon="5.89486">
        <ele>829.60461425781</ele>
        <time>2013-06-30T09:57:05.999Z</time>
      </trkpt>
      <trkpt lat="46.63401" lon="5.89464">
        <ele>828.35388183594</ele>
        <time>2013-06-30T09:57:07.999Z</time>
      </trkpt>
      <trkpt lat="46.63394" lon="5.89446">
        <ele>827.67651367188</ele>
        <time>2013-06-30T09:57:09.999Z</time>
      </trkpt>
      <trkpt lat="46.63387" lon="5.89428">
        <ele>828.20965576172</ele>
        <time>2013-06-30T09:57:11.999Z</time>
      </trkpt>
      <trkpt lat="46.6338" lon="5.89409">
        <ele>827.77545166016</ele>
        <time>2013-06-30T09:57:13.999Z</time>
      </trkpt>
      <trkpt lat="46.63374" lon="5.89394">
        <ele>827.6787109375</ele>
        <time>2013-06-30T09:57:15.999Z</time>
      </trkpt>
      <trkpt lat="46.63368" lon="5.89378">
        <ele>827.2333984375</ele>
        <time>2013-06-30T09:57:17.999Z</time>
      </trkpt>
      <trkpt lat="46.63362" lon="5.89361">
        <ele>826.87469482422</ele>
        <time>2013-06-30T09:57:19.999Z</time>
      </trkpt>
      <trkpt lat="46.63357" lon="5.89346">
        <ele>826.72247314453</ele>
        <time>2013-06-30T09:57:21.999Z</time>
      </trkpt>
      <trkpt lat="46.63352" lon="5.89331">
        <ele>827.23852539062</ele>
        <time>2013-06-30T09:57:23.999Z</time>
      </trkpt>
      <trkpt lat="46.63353" lon="5.89317">
        <ele>827.21020507812</ele>
        <time>2013-06-30T09:57:25.999Z</time>
      </trkpt>
      <trkpt lat="46.63358" lon="5.89304">
        <ele>826.5908203125</ele>
        <time>2013-06-30T09:57:27.999Z</time>
      </trkpt>
      <trkpt lat="46.63366" lon="5.89292">
        <ele>826.34387207031</ele>
        <time>2013-06-30T09:57:29.999Z</time>
      </trkpt>
      <trkpt lat="46.63374" lon="5.89283">
        <ele>826.82409667969</ele>
        <time>2013-06-30T09:57:31.999Z</time>
      </trkpt>
      <trkpt lat="46.63382" lon="5.89275">
        <ele>827.24438476562</ele>
        <time>2013-06-30T09:57:33.999Z</time>
      </trkpt>
      <trkpt lat="46.63391" lon="5.89267">
        <ele>827.64776611328</ele>
        <time>2013-06-30T09:57:35.999Z</time>
      </trkpt>
      <trkpt lat="46.63399" lon="5.89257">
        <ele>828.01910400391</ele>
        <time>2013-06-30T09:57:37.999Z</time>
      </trkpt>
      <trkpt lat="46.63406" lon="5.89245">
        <ele>828.30743408203</ele>
        <time>2013-06-30T09:57:39.999Z</time>
      </trkpt>
      <trkpt lat="46.63413" lon="5.89234">
        <ele>828.31677246094</ele>
        <time>2013-06-30T09:57:41.999Z</time>
      </trkpt>
      <trkpt lat="46.63419" lon="5.89222">
        <ele>828.45965576172</ele>
        <time>2013-06-30T09:57:43.999Z</time>
      </trkpt>
      <trkpt lat="46.63424" lon="5.8921">
        <ele>828.95446777344</ele>
        <time>2013-06-30T09:57:45.999Z</time>
      </trkpt>
      <trkpt lat="46.63427" lon="5.89197">
        <ele>829.30242919922</ele>
        <time>2013-06-30T09:57:47.999Z</time>
      </trkpt>
      <trkpt lat="46.6343" lon="5.89185">
        <ele>829.69958496094</ele>
        <time>2013-06-30T09:57:49.999Z</time>
      </trkpt>
      <trkpt lat="46.63432" lon="5.89173">
        <ele>829.64739990234</ele>
        <time>2013-06-30T09:57:51.999Z</time>
      </trkpt>
      <trkpt lat="46.63434" lon="5.89162">
        <ele>829.48571777344</ele>
        <time>2013-06-30T09:57:53.999Z</time>
      </trkpt>
      <trkpt lat="46.63435" lon="5.89151">
        <ele>829.484375</ele>
        <time>2013-06-30T09:57:55.999Z</time>
      </trkpt>
      <trkpt lat="46.63436" lon="5.89141">
        <ele>829.47265625</ele>
        <time>2013-06-30T09:57:57.999Z</time>
      </trkpt>
      <trkpt lat="46.63437" lon="5.89132">
        <ele>829.48199462891</ele>
        <time>2013-06-30T09:57:59.999Z</time>
      </trkpt>
      <trkpt lat="46.63438" lon="5.89122">
        <ele>829.55047607422</ele>
        <time>2013-06-30T09:58:01.999Z</time>
      </trkpt>
      <trkpt lat="46.63438" lon="5.89111">
        <ele>829.61999511719</ele>
        <time>2013-06-30T09:58:03.999Z</time>
      </trkpt>
      <trkpt lat="46.6344" lon="5.891">
        <ele>830.13092041016</ele>
        <time>2013-06-30T09:58:05.999Z</time>
      </trkpt>
      <trkpt lat="46.63441" lon="5.89088">
        <ele>830.50421142578</ele>
        <time>2013-06-30T09:58:07.999Z</time>
      </trkpt>
      <trkpt lat="46.63442" lon="5.89074">
        <ele>830.88989257812</ele>
        <time>2013-06-30T09:58:09.999Z</time>
      </trkpt>
      <trkpt lat="46.63444" lon="5.8906">
        <ele>831.20684814453</ele>
        <time>2013-06-30T09:58:11.999Z</time>
      </trkpt>
      <trkpt lat="46.63445" lon="5.89045">
        <ele>831.427734375</ele>
        <time>2013-06-30T09:58:13.999Z</time>
      </trkpt>
      <trkpt lat="46.63447" lon="5.8903">
        <ele>831.60290527344</ele>
        <time>2013-06-30T09:58:15.999Z</time>
      </trkpt>
      <trkpt lat="46.63448" lon="5.89016">
        <ele>831.36383056641</ele>
        <time>2013-06-30T09:58:17.999Z</time>
      </trkpt>
      <trkpt lat="46.6345" lon="5.89004">
        <ele>831.13287353516</ele>
        <time>2013-06-30T09:58:19.999Z</time>
      </trkpt>
      <trkpt lat="46.63451" lon="5.88993">
        <ele>831.28363037109</ele>
        <time>2013-06-30T09:58:21.999Z</time>
      </trkpt>
      <trkpt lat="46.63452" lon="5.88982">
        <ele>831.36279296875</ele>
        <time>2013-06-30T09:58:23.999Z</time>
      </trkpt>
      <trkpt lat="46.63454" lon="5.88973">
        <ele>831.50433349609</ele>
        <time>2013-06-30T09:58:25.999Z</time>
      </trkpt>
      <trkpt lat="46.63455" lon="5.88963">
        <ele>831.67681884766</ele>
        <time>2013-06-30T09:58:27.999Z</time>
      </trkpt>
      <trkpt lat="46.63456" lon="5.88952">
        <ele>832.61016845703</ele>
        <time>2013-06-30T09:58:29.999Z</time>
      </trkpt>
      <trkpt lat="46.63456" lon="5.88941">
        <ele>834.2333984375</ele>
        <time>2013-06-30T09:58:31.999Z</time>
      </trkpt>
      <trkpt lat="46.63458" lon="5.88929">
        <ele>835.12420654297</ele>
        <time>2013-06-30T09:58:33.999Z</time>
      </trkpt>
      <trkpt lat="46.63459" lon="5.88918">
        <ele>835.61212158203</ele>
        <time>2013-06-30T09:58:35.999Z</time>
      </trkpt>
      <trkpt lat="46.63461" lon="5.88906">
        <ele>835.64111328125</ele>
        <time>2013-06-30T09:58:37.999Z</time>
      </trkpt>
      <trkpt lat="46.63462" lon="5.88893">
        <ele>835.28302001953</ele>
        <time>2013-06-30T09:58:39.999Z</time>
      </trkpt>
      <trkpt lat="46.63463" lon="5.88881">
        <ele>834.97485351562</ele>
        <time>2013-06-30T09:58:41.999Z</time>
      </trkpt>
      <trkpt lat="46.63466" lon="5.88862">
        <ele>834.97979736328</ele>
        <time>2013-06-30T09:58:44.999Z</time>
      </trkpt>
      <trkpt lat="46.63469" lon="5.88848">
        <ele>835.01611328125</ele>
        <time>2013-06-30T09:58:46.999Z</time>
      </trkpt>
      <trkpt lat="46.63473" lon="5.88835">
        <ele>835.78863525391</ele>
        <time>2013-06-30T09:58:48.999Z</time>
      </trkpt>
      <trkpt lat="46.63477" lon="5.88823">
        <ele>836.50024414062</ele>
        <time>2013-06-30T09:58:50.999Z</time>
      </trkpt>
      <trkpt lat="46.63481" lon="5.88812">
        <ele>837.40417480469</ele>
        <time>2013-06-30T09:58:52.999Z</time>
      </trkpt>
      <trkpt lat="46.63484" lon="5.88803">
        <ele>838.39007568359</ele>
        <time>2013-06-30T09:58:54.999Z</time>
      </trkpt>
      <trkpt lat="46.63487" lon="5.88794">
        <ele>838.56256103516</ele>
        <time>2013-06-30T09:58:56.999Z</time>
      </trkpt>
      <trkpt lat="46.63491" lon="5.88784">
        <ele>838.76428222656</ele>
        <time>2013-06-30T09:58:58.999Z</time>
      </trkpt>
      <trkpt lat="46.63496" lon="5.88771">
        <ele>840.06097412109</ele>
        <time>2013-06-30T09:59:00.999Z</time>
      </trkpt>
      <trkpt lat="46.635" lon="5.88756">
        <ele>841.64447021484</ele>
        <time>2013-06-30T09:59:02.999Z</time>
      </trkpt>
      <trkpt lat="46.63505" lon="5.88742">
        <ele>842.53790283203</ele>
        <time>2013-06-30T09:59:04.999Z</time>
      </trkpt>
      <trkpt lat="46.6351" lon="5.88727">
        <ele>843.20794677734</ele>
        <time>2013-06-30T09:59:06.999Z</time>
      </trkpt>
      <trkpt lat="46.63514" lon="5.88712">
        <ele>843.84246826172</ele>
        <time>2013-06-30T09:59:08.999Z</time>
      </trkpt>
      <trkpt lat="46.63518" lon="5.88697">
        <ele>845.11889648438</ele>
        <time>2013-06-30T09:59:10.999Z</time>
      </trkpt>
      <trkpt lat="46.63522" lon="5.88682">
        <ele>845.91815185547</ele>
        <time>2013-06-30T09:59:12.999Z</time>
      </trkpt>
      <trkpt lat="46.63525" lon="5.88667">
        <ele>845.87786865234</ele>
        <time>2013-06-30T09:59:14.999Z</time>
      </trkpt>
      <trkpt lat="46.63533" lon="5.88653">
        <ele>845.19445800781</ele>
        <time>2013-06-30T09:59:16.999Z</time>
      </trkpt>
      <trkpt lat="46.63542" lon="5.88643">
        <ele>844.91265869141</ele>
        <time>2013-06-30T09:59:18.999Z</time>
      </trkpt>
      <trkpt lat="46.63554" lon="5.88636">
        <ele>844.19805908203</ele>
        <time>2013-06-30T09:59:20.999Z</time>
      </trkpt>
      <trkpt lat="46.63564" lon="5.88631">
        <ele>843.96728515625</ele>
        <time>2013-06-30T09:59:22.999Z</time>
      </trkpt>
      <trkpt lat="46.63574" lon="5.88625">
        <ele>844.08630371094</ele>
        <time>2013-06-30T09:59:24.999Z</time>
      </trkpt>
      <trkpt lat="46.63585" lon="5.88618">
        <ele>843.73394775391</ele>
        <time>2013-06-30T09:59:26.999Z</time>
      </trkpt>
      <trkpt lat="46.63595" lon="5.88612">
        <ele>842.90350341797</ele>
        <time>2013-06-30T09:59:28.999Z</time>
      </trkpt>
      <trkpt lat="46.63605" lon="5.88606">
        <ele>842.81719970703</ele>
        <time>2013-06-30T09:59:30.999Z</time>
      </trkpt>
      <trkpt lat="46.63615" lon="5.886">
        <ele>843.10626220703</ele>
        <time>2013-06-30T09:59:32.999Z</time>
      </trkpt>
      <trkpt lat="46.63627" lon="5.88593">
        <ele>843.19750976562</ele>
        <time>2013-06-30T09:59:34.999Z</time>
      </trkpt>
      <trkpt lat="46.63639" lon="5.88586">
        <ele>842.68518066406</ele>
        <time>2013-06-30T09:59:36.999Z</time>
      </trkpt>
      <trkpt lat="46.6365" lon="5.88579">
        <ele>842.28082275391</ele>
        <time>2013-06-30T09:59:38.999Z</time>
      </trkpt>
      <trkpt lat="46.6366" lon="5.88572">
        <ele>842.58239746094</ele>
        <time>2013-06-30T09:59:40.999Z</time>
      </trkpt>
      <trkpt lat="46.6367" lon="5.88566">
        <ele>843.13360595703</ele>
        <time>2013-06-30T09:59:42.999Z</time>
      </trkpt>
      <trkpt lat="46.63679" lon="5.88559">
        <ele>844.74737548828</ele>
        <time>2013-06-30T09:59:44.999Z</time>
      </trkpt>
      <trkpt lat="46.63689" lon="5.88551">
        <ele>845.70880126953</ele>
        <time>2013-06-30T09:59:46.999Z</time>
      </trkpt>
      <trkpt lat="46.63697" lon="5.88544">
        <ele>845.62493896484</ele>
        <time>2013-06-30T09:59:48.999Z</time>
      </trkpt>
      <trkpt lat="46.63706" lon="5.88536">
        <ele>845.55676269531</ele>
        <time>2013-06-30T09:59:50.999Z</time>
      </trkpt>
      <trkpt lat="46.63716" lon="5.8853">
        <ele>846.34515380859</ele>
        <time>2013-06-30T09:59:52.999Z</time>
      </trkpt>
      <trkpt lat="46.63724" lon="5.88524">
        <ele>846.96197509766</ele>
        <time>2013-06-30T09:59:54.999Z</time>
      </trkpt>
      <trkpt lat="46.63734" lon="5.88517">
        <ele>847.28326416016</ele>
        <time>2013-06-30T09:59:56.999Z</time>
      </trkpt>
      <trkpt lat="46.63743" lon="5.8851">
        <ele>846.50244140625</ele>
        <time>2013-06-30T09:59:58.999Z</time>
      </trkpt>
      <trkpt lat="46.63754" lon="5.88501">
        <ele>844.60009765625</ele>
        <time>2013-06-30T10:00:00.999Z</time>
      </trkpt>
      <trkpt lat="46.63764" lon="5.88493">
        <ele>842.88165283203</ele>
        <time>2013-06-30T10:00:02.999Z</time>
      </trkpt>
      <trkpt lat="46.63776" lon="5.88483">
        <ele>841.81298828125</ele>
        <time>2013-06-30T10:00:04.999Z</time>
      </trkpt>
      <trkpt lat="46.63786" lon="5.88472">
        <ele>840.79602050781</ele>
        <time>2013-06-30T10:00:06.999Z</time>
      </trkpt>
      <trkpt lat="46.63797" lon="5.88461">
        <ele>840.00177001953</ele>
        <time>2013-06-30T10:00:08.999Z</time>
      </trkpt>
      <trkpt lat="46.63809" lon="5.88451">
        <ele>839.35827636719</ele>
        <time>2013-06-30T10:00:10.999Z</time>
      </trkpt>
      <trkpt lat="46.63819" lon="5.88444">
        <ele>838.98028564453</ele>
        <time>2013-06-30T10:00:12.999Z</time>
      </trkpt>
      <trkpt lat="46.63826" lon="5.8844">
        <ele>838.79809570312</ele>
        <time>2013-06-30T10:00:14.999Z</time>
      </trkpt>
      <trkpt lat="46.63833" lon="5.88436">
        <ele>838.806640625</ele>
        <time>2013-06-30T10:00:16.999Z</time>
      </trkpt>
      <trkpt lat="46.6384" lon="5.88432">
        <ele>838.96453857422</ele>
        <time>2013-06-30T10:00:18.999Z</time>
      </trkpt>
      <trkpt lat="46.63844" lon="5.88426">
        <ele>839.14337158203</ele>
        <time>2013-06-30T10:00:20.999Z</time>
      </trkpt>
      <trkpt lat="46.63847" lon="5.88419">
        <ele>839.28112792969</ele>
        <time>2013-06-30T10:00:22.999Z</time>
      </trkpt>
      <trkpt lat="46.63847" lon="5.88408">
        <ele>839.47802734375</ele>
        <time>2013-06-30T10:00:24.999Z</time>
      </trkpt>
      <trkpt lat="46.63846" lon="5.88397">
        <ele>839.58990478516</ele>
        <time>2013-06-30T10:00:26.999Z</time>
      </trkpt>
      <trkpt lat="46.63846" lon="5.88387">
        <ele>839.80352783203</ele>
        <time>2013-06-30T10:00:28.999Z</time>
      </trkpt>
      <trkpt lat="46.6385" lon="5.88379">
        <ele>840.22155761719</ele>
        <time>2013-06-30T10:00:31.999Z</time>
      </trkpt>
      <trkpt lat="46.63855" lon="5.88372">
        <ele>840.56860351562</ele>
        <time>2013-06-30T10:00:34.999Z</time>
      </trkpt>
      <trkpt lat="46.63859" lon="5.88365">
        <ele>841.00146484375</ele>
        <time>2013-06-30T10:00:37.999Z</time>
      </trkpt>
      <trkpt lat="46.63863" lon="5.88361">
        <ele>841.29132080078</ele>
        <time>2013-06-30T10:00:39.999Z</time>
      </trkpt>
      <trkpt lat="46.63867" lon="5.88357">
        <ele>841.52978515625</ele>
        <time>2013-06-30T10:00:41.999Z</time>
      </trkpt>
      <trkpt lat="46.63873" lon="5.88353">
        <ele>841.77972412109</ele>
        <time>2013-06-30T10:00:43.999Z</time>
      </trkpt>
      <trkpt lat="46.63878" lon="5.8835">
        <ele>841.94586181641</ele>
        <time>2013-06-30T10:00:45.999Z</time>
      </trkpt>
      <trkpt lat="46.63884" lon="5.88348">
        <ele>842.43347167969</ele>
        <time>2013-06-30T10:00:48.999Z</time>
      </trkpt>
      <trkpt lat="46.6389" lon="5.88345">
        <ele>842.82611083984</ele>
        <time>2013-06-30T10:00:51.999Z</time>
      </trkpt>
      <trkpt lat="46.63895" lon="5.88342">
        <ele>843.16271972656</ele>
        <time>2013-06-30T10:00:54.999Z</time>
      </trkpt>
      <trkpt lat="46.63902" lon="5.88339">
        <ele>843.70086669922</ele>
        <time>2013-06-30T10:00:57.999Z</time>
      </trkpt>
      <trkpt lat="46.63908" lon="5.88335">
        <ele>844.32855224609</ele>
        <time>2013-06-30T10:01:00.999Z</time>
      </trkpt>
      <trkpt lat="46.63912" lon="5.88333">
        <ele>844.87658691406</ele>
        <time>2013-06-30T10:01:02.999Z</time>
      </trkpt>
      <trkpt lat="46.63917" lon="5.88329">
        <ele>845.7431640625</ele>
        <time>2013-06-30T10:01:05.999Z</time>
      </trkpt>
      <trkpt lat="46.63922" lon="5.88324">
        <ele>846.54211425781</ele>
        <time>2013-06-30T10:01:08.999Z</time>
      </trkpt>
      <trkpt lat="46.63927" lon="5.88321">
        <ele>847.43420410156</ele>
        <time>2013-06-30T10:01:11.999Z</time>
      </trkpt>
      <trkpt lat="46.63931" lon="5.88316">
        <ele>848.08538818359</ele>
        <time>2013-06-30T10:01:13.999Z</time>
      </trkpt>
      <trkpt lat="46.63935" lon="5.88313">
        <ele>848.67559814453</ele>
        <time>2013-06-30T10:01:15.999Z</time>
      </trkpt>
      <trkpt lat="46.6394" lon="5.8831">
        <ele>849.10565185547</ele>
        <time>2013-06-30T10:01:17.999Z</time>
      </trkpt>
      <trkpt lat="46.63944" lon="5.88307">
        <ele>849.72528076172</ele>
        <time>2013-06-30T10:01:20.999Z</time>
      </trkpt>
      <trkpt lat="46.6395" lon="5.88303">
        <ele>850.40148925781</ele>
        <time>2013-06-30T10:01:23.999Z</time>
      </trkpt>
      <trkpt lat="46.63954" lon="5.88301">
        <ele>850.84997558594</ele>
        <time>2013-06-30T10:01:26.999Z</time>
      </trkpt>
      <trkpt lat="46.63959" lon="5.88298">
        <ele>851.43408203125</ele>
        <time>2013-06-30T10:01:30.999Z</time>
      </trkpt>
      <trkpt lat="46.63964" lon="5.88296">
        <ele>852.37646484375</ele>
        <time>2013-06-30T10:01:34.999Z</time>
      </trkpt>
      <trkpt lat="46.63968" lon="5.88294">
        <ele>853.59735107422</ele>
        <time>2013-06-30T10:01:38.999Z</time>
      </trkpt>
      <trkpt lat="46.63973" lon="5.88292">
        <ele>854.45074462891</ele>
        <time>2013-06-30T10:01:41.999Z</time>
      </trkpt>
      <trkpt lat="46.63978" lon="5.88291">
        <ele>855.08221435547</ele>
        <time>2013-06-30T10:01:43.999Z</time>
      </trkpt>
      <trkpt lat="46.63984" lon="5.88289">
        <ele>855.70404052734</ele>
        <time>2013-06-30T10:01:45.999Z</time>
      </trkpt>
      <trkpt lat="46.63989" lon="5.88287">
        <ele>856.25213623047</ele>
        <time>2013-06-30T10:01:47.999Z</time>
      </trkpt>
      <trkpt lat="46.63994" lon="5.88286">
        <ele>856.83453369141</ele>
        <time>2013-06-30T10:01:49.999Z</time>
      </trkpt>
      <trkpt lat="46.63999" lon="5.88285">
        <ele>857.49493408203</ele>
        <time>2013-06-30T10:01:51.999Z</time>
      </trkpt>
      <trkpt lat="46.64005" lon="5.88284">
        <ele>858.16979980469</ele>
        <time>2013-06-30T10:01:53.999Z</time>
      </trkpt>
      <trkpt lat="46.64012" lon="5.88282">
        <ele>858.77978515625</ele>
        <time>2013-06-30T10:01:55.999Z</time>
      </trkpt>
      <trkpt lat="46.64019" lon="5.88278">
        <ele>859.31140136719</ele>
        <time>2013-06-30T10:01:57.999Z</time>
      </trkpt>
      <trkpt lat="46.64024" lon="5.88274">
        <ele>859.75708007812</ele>
        <time>2013-06-30T10:01:59.999Z</time>
      </trkpt>
      <trkpt lat="46.64031" lon="5.88269">
        <ele>860.29229736328</ele>
        <time>2013-06-30T10:02:01.999Z</time>
      </trkpt>
      <trkpt lat="46.64035" lon="5.88266">
        <ele>860.93292236328</ele>
        <time>2013-06-30T10:02:03.999Z</time>
      </trkpt>
      <trkpt lat="46.6404" lon="5.88263">
        <ele>861.45794677734</ele>
        <time>2013-06-30T10:02:05.999Z</time>
      </trkpt>
      <trkpt lat="46.64047" lon="5.88259">
        <ele>861.90478515625</ele>
        <time>2013-06-30T10:02:07.999Z</time>
      </trkpt>
      <trkpt lat="46.64052" lon="5.88253">
        <ele>862.25769042969</ele>
        <time>2013-06-30T10:02:09.999Z</time>
      </trkpt>
      <trkpt lat="46.64055" lon="5.88245">
        <ele>862.61993408203</ele>
        <time>2013-06-30T10:02:11.999Z</time>
      </trkpt>
      <trkpt lat="46.64056" lon="5.88236">
        <ele>862.94274902344</ele>
        <time>2013-06-30T10:02:13.999Z</time>
      </trkpt>
      <trkpt lat="46.64056" lon="5.88228">
        <ele>863.3154296875</ele>
        <time>2013-06-30T10:02:15.999Z</time>
      </trkpt>
      <trkpt lat="46.64055" lon="5.88218">
        <ele>863.69909667969</ele>
        <time>2013-06-30T10:02:17.999Z</time>
      </trkpt>
      <trkpt lat="46.64054" lon="5.88204">
        <ele>864.09991455078</ele>
        <time>2013-06-30T10:02:19.999Z</time>
      </trkpt>
      <trkpt lat="46.64052" lon="5.8819">
        <ele>864.34289550781</ele>
        <time>2013-06-30T10:02:21.999Z</time>
      </trkpt>
      <trkpt lat="46.64056" lon="5.88179">
        <ele>864.45544433594</ele>
        <time>2013-06-30T10:02:23.999Z</time>
      </trkpt>
      <trkpt lat="46.64064" lon="5.88171">
        <ele>864.61981201172</ele>
        <time>2013-06-30T10:02:25.999Z</time>
      </trkpt>
      <trkpt lat="46.64074" lon="5.8817">
        <ele>865.56512451172</ele>
        <time>2013-06-30T10:02:27.999Z</time>
      </trkpt>
      <trkpt lat="46.64085" lon="5.88168">
        <ele>865.921875</ele>
        <time>2013-06-30T10:02:29.999Z</time>
      </trkpt>
      <trkpt lat="46.64099" lon="5.88167">
        <ele>865.43237304688</ele>
        <time>2013-06-30T10:02:31.999Z</time>
      </trkpt>
      <trkpt lat="46.64108" lon="5.88173">
        <ele>865.40649414062</ele>
        <time>2013-06-30T10:02:33.999Z</time>
      </trkpt>
      <trkpt lat="46.64112" lon="5.88183">
        <ele>864.82391357422</ele>
        <time>2013-06-30T10:02:35.999Z</time>
      </trkpt>
      <trkpt lat="46.64115" lon="5.88194">
        <ele>864.36059570312</ele>
        <time>2013-06-30T10:02:37.999Z</time>
      </trkpt>
      <trkpt lat="46.64123" lon="5.88202">
        <ele>863.70526123047</ele>
        <time>2013-06-30T10:02:39.999Z</time>
      </trkpt>
      <trkpt lat="46.64133" lon="5.88208">
        <ele>863.09307861328</ele>
        <time>2013-06-30T10:02:41.999Z</time>
      </trkpt>
      <trkpt lat="46.64142" lon="5.88203">
        <ele>863.02807617188</ele>
        <time>2013-06-30T10:02:43.999Z</time>
      </trkpt>
      <trkpt lat="46.64154" lon="5.88195">
        <ele>862.564453125</ele>
        <time>2013-06-30T10:02:45.999Z</time>
      </trkpt>
      <trkpt lat="46.64168" lon="5.88186">
        <ele>862.69158935547</ele>
        <time>2013-06-30T10:02:47.999Z</time>
      </trkpt>
      <trkpt lat="46.64182" lon="5.88175">
        <ele>862.33374023438</ele>
        <time>2013-06-30T10:02:49.999Z</time>
      </trkpt>
      <trkpt lat="46.64193" lon="5.88169">
        <ele>862.21887207031</ele>
        <time>2013-06-30T10:02:51.999Z</time>
      </trkpt>
      <trkpt lat="46.64202" lon="5.88164">
        <ele>862.13098144531</ele>
        <time>2013-06-30T10:02:53.999Z</time>
      </trkpt>
      <trkpt lat="46.64207" lon="5.88157">
        <ele>861.94750976562</ele>
        <time>2013-06-30T10:02:58.999Z</time>
      </trkpt>
      <trkpt lat="46.64203" lon="5.88149">
        <ele>860.34118652344</ele>
        <time>2013-06-30T10:03:00.999Z</time>
      </trkpt>
      <trkpt lat="46.64198" lon="5.88138">
        <ele>857.09753417969</ele>
        <time>2013-06-30T10:03:02.999Z</time>
      </trkpt>
      <trkpt lat="46.64191" lon="5.88123">
        <ele>856.80572509766</ele>
        <time>2013-06-30T10:03:04.999Z</time>
      </trkpt>
      <trkpt lat="46.64186" lon="5.88102">
        <ele>854.85034179688</ele>
        <time>2013-06-30T10:03:06.999Z</time>
      </trkpt>
      <trkpt lat="46.64192" lon="5.88084">
        <ele>853.88110351562</ele>
        <time>2013-06-30T10:03:08.999Z</time>
      </trkpt>
      <trkpt lat="46.64195" lon="5.88076">
        <ele>853.48962402344</ele>
        <time>2013-06-30T10:03:10.999Z</time>
      </trkpt>
      <trkpt lat="46.64195" lon="5.88069">
        <ele>853.27337646484</ele>
        <time>2013-06-30T10:03:12.999Z</time>
      </trkpt>
      <trkpt lat="46.64194" lon="5.88059">
        <ele>852.98278808594</ele>
        <time>2013-06-30T10:03:15.999Z</time>
      </trkpt>
      <trkpt lat="46.64195" lon="5.88052">
        <ele>852.787109375</ele>
        <time>2013-06-30T10:03:17.999Z</time>
      </trkpt>
      <trkpt lat="46.64195" lon="5.88042">
        <ele>852.68762207031</ele>
        <time>2013-06-30T10:03:20.999Z</time>
      </trkpt>
      <trkpt lat="46.64194" lon="5.88034">
        <ele>852.46203613281</ele>
        <time>2013-06-30T10:03:22.999Z</time>
      </trkpt>
      <trkpt lat="46.64194" lon="5.88025">
        <ele>852.25354003906</ele>
        <time>2013-06-30T10:03:24.999Z</time>
      </trkpt>
      <trkpt lat="46.64195" lon="5.88017">
        <ele>852.07287597656</ele>
        <time>2013-06-30T10:03:26.999Z</time>
      </trkpt>
      <trkpt lat="46.64194" lon="5.88008">
        <ele>851.83819580078</ele>
        <time>2013-06-30T10:03:28.999Z</time>
      </trkpt>
      <trkpt lat="46.64193" lon="5.88001">
        <ele>851.4375</ele>
        <time>2013-06-30T10:03:31.999Z</time>
      </trkpt>
      <trkpt lat="46.64194" lon="5.87993">
        <ele>851.09454345703</ele>
        <time>2013-06-30T10:03:33.999Z</time>
      </trkpt>
      <trkpt lat="46.64195" lon="5.87984">
        <ele>851.09204101562</ele>
        <time>2013-06-30T10:03:35.999Z</time>
      </trkpt>
      <trkpt lat="46.64198" lon="5.87977">
        <ele>851.09753417969</ele>
        <time>2013-06-30T10:03:37.999Z</time>
      </trkpt>
      <trkpt lat="46.64201" lon="5.87969">
        <ele>851.13873291016</ele>
        <time>2013-06-30T10:03:40.999Z</time>
      </trkpt>
      <trkpt lat="46.64202" lon="5.87962">
        <ele>851.18884277344</ele>
        <time>2013-06-30T10:03:42.999Z</time>
      </trkpt>
      <trkpt lat="46.64203" lon="5.87955">
        <ele>851.30413818359</ele>
        <time>2013-06-30T10:03:44.999Z</time>
      </trkpt>
      <trkpt lat="46.64207" lon="5.87947">
        <ele>851.58044433594</ele>
        <time>2013-06-30T10:03:47.999Z</time>
      </trkpt>
      <trkpt lat="46.64211" lon="5.87941">
        <ele>851.76892089844</ele>
        <time>2013-06-30T10:03:49.999Z</time>
      </trkpt>
      <trkpt lat="46.64214" lon="5.87936">
        <ele>851.89593505859</ele>
        <time>2013-06-30T10:03:51.999Z</time>
      </trkpt>
      <trkpt lat="46.64217" lon="5.87928">
        <ele>852.06353759766</ele>
        <time>2013-06-30T10:03:54.999Z</time>
      </trkpt>
      <trkpt lat="46.64221" lon="5.8792">
        <ele>852.09490966797</ele>
        <time>2013-06-30T10:03:56.999Z</time>
      </trkpt>
      <trkpt lat="46.64225" lon="5.87913">
        <ele>852.25280761719</ele>
        <time>2013-06-30T10:03:58.999Z</time>
      </trkpt>
      <trkpt lat="46.64228" lon="5.87906">
        <ele>852.39886474609</ele>
        <time>2013-06-30T10:04:01.999Z</time>
      </trkpt>
      <trkpt lat="46.64229" lon="5.87898">
        <ele>852.52526855469</ele>
        <time>2013-06-30T10:04:04.999Z</time>
      </trkpt>
      <trkpt lat="46.64232" lon="5.8789">
        <ele>852.61737060547</ele>
        <time>2013-06-30T10:04:07.999Z</time>
      </trkpt>
      <trkpt lat="46.64234" lon="5.87881">
        <ele>852.85504150391</ele>
        <time>2013-06-30T10:04:10.999Z</time>
      </trkpt>
      <trkpt lat="46.64234" lon="5.87873">
        <ele>853.0224609375</ele>
        <time>2013-06-30T10:04:14.999Z</time>
      </trkpt>
      <trkpt lat="46.64233" lon="5.87864">
        <ele>853.15051269531</ele>
        <time>2013-06-30T10:04:17.999Z</time>
      </trkpt>
      <trkpt lat="46.64232" lon="5.87857">
        <ele>853.35577392578</ele>
        <time>2013-06-30T10:04:20.999Z</time>
      </trkpt>
      <trkpt lat="46.64229" lon="5.8785">
        <ele>854.03424072266</ele>
        <time>2013-06-30T10:04:24.999Z</time>
      </trkpt>
      <trkpt lat="46.64227" lon="5.87841">
        <ele>854.6865234375</ele>
        <time>2013-06-30T10:04:27.999Z</time>
      </trkpt>
      <trkpt lat="46.64226" lon="5.87833">
        <ele>855.31927490234</ele>
        <time>2013-06-30T10:04:30.999Z</time>
      </trkpt>
      <trkpt lat="46.64224" lon="5.87824">
        <ele>855.99176025391</ele>
        <time>2013-06-30T10:04:33.999Z</time>
      </trkpt>
      <trkpt lat="46.64221" lon="5.87818">
        <ele>856.828125</ele>
        <time>2013-06-30T10:04:37.999Z</time>
      </trkpt>
      <trkpt lat="46.64217" lon="5.87811">
        <ele>858.05456542969</ele>
        <time>2013-06-30T10:04:41.999Z</time>
      </trkpt>
      <trkpt lat="46.64217" lon="5.87802">
        <ele>859.21472167969</ele>
        <time>2013-06-30T10:04:44.999Z</time>
      </trkpt>
      <trkpt lat="46.64217" lon="5.87794">
        <ele>860.4140625</ele>
        <time>2013-06-30T10:04:47.999Z</time>
      </trkpt>
      <trkpt lat="46.64217" lon="5.87786">
        <ele>861.68249511719</ele>
        <time>2013-06-30T10:04:52.999Z</time>
      </trkpt>
      <trkpt lat="46.64218" lon="5.87778">
        <ele>862.55950927734</ele>
        <time>2013-06-30T10:04:55.999Z</time>
      </trkpt>
      <trkpt lat="46.64217" lon="5.87771">
        <ele>863.07403564453</ele>
        <time>2013-06-30T10:04:58.999Z</time>
      </trkpt>
      <trkpt lat="46.64215" lon="5.87764">
        <ele>863.39544677734</ele>
        <time>2013-06-30T10:05:01.999Z</time>
      </trkpt>
      <trkpt lat="46.64213" lon="5.87756">
        <ele>864.15478515625</ele>
        <time>2013-06-30T10:05:05.999Z</time>
      </trkpt>
      <trkpt lat="46.64211" lon="5.87749">
        <ele>864.84350585938</ele>
        <time>2013-06-30T10:05:07.999Z</time>
      </trkpt>
      <trkpt lat="46.64212" lon="5.87742">
        <ele>865.71441650391</ele>
        <time>2013-06-30T10:05:10.999Z</time>
      </trkpt>
      <trkpt lat="46.64212" lon="5.87734">
        <ele>866.67327880859</ele>
        <time>2013-06-30T10:05:13.999Z</time>
      </trkpt>
      <trkpt lat="46.64212" lon="5.87725">
        <ele>867.43688964844</ele>
        <time>2013-06-30T10:05:16.999Z</time>
      </trkpt>
      <trkpt lat="46.64212" lon="5.87717">
        <ele>867.82885742188</ele>
        <time>2013-06-30T10:05:19.999Z</time>
      </trkpt>
      <trkpt lat="46.64212" lon="5.8771">
        <ele>868.24774169922</ele>
        <time>2013-06-30T10:05:22.999Z</time>
      </trkpt>
      <trkpt lat="46.64211" lon="5.87702">
        <ele>868.54241943359</ele>
        <time>2013-06-30T10:05:25.999Z</time>
      </trkpt>
      <trkpt lat="46.64209" lon="5.87694">
        <ele>868.77239990234</ele>
        <time>2013-06-30T10:05:28.999Z</time>
      </trkpt>
      <trkpt lat="46.64208" lon="5.87684">
        <ele>869.22198486328</ele>
        <time>2013-06-30T10:05:31.999Z</time>
      </trkpt>
      <trkpt lat="46.64206" lon="5.87677">
        <ele>869.65209960938</ele>
        <time>2013-06-30T10:05:33.999Z</time>
      </trkpt>
      <trkpt lat="46.64206" lon="5.87669">
        <ele>870.03332519531</ele>
        <time>2013-06-30T10:05:35.999Z</time>
      </trkpt>
      <trkpt lat="46.64204" lon="5.87661">
        <ele>870.47003173828</ele>
        <time>2013-06-30T10:05:38.999Z</time>
      </trkpt>
      <trkpt lat="46.64204" lon="5.8765">
        <ele>870.87078857422</ele>
        <time>2013-06-30T10:05:41.999Z</time>
      </trkpt>
      <trkpt lat="46.64205" lon="5.87642">
        <ele>871.33624267578</ele>
        <time>2013-06-30T10:05:43.999Z</time>
      </trkpt>
      <trkpt lat="46.64206" lon="5.87633">
        <ele>871.80523681641</ele>
        <time>2013-06-30T10:05:45.999Z</time>
      </trkpt>
      <trkpt lat="46.64206" lon="5.87626">
        <ele>872.21563720703</ele>
        <time>2013-06-30T10:05:47.999Z</time>
      </trkpt>
      <trkpt lat="46.64205" lon="5.87616">
        <ele>872.57464599609</ele>
        <time>2013-06-30T10:05:50.999Z</time>
      </trkpt>
      <trkpt lat="46.64203" lon="5.87607">
        <ele>872.66101074219</ele>
        <time>2013-06-30T10:05:52.999Z</time>
      </trkpt>
      <trkpt lat="46.642" lon="5.87599">
        <ele>872.50439453125</ele>
        <time>2013-06-30T10:05:54.999Z</time>
      </trkpt>
      <trkpt lat="46.64198" lon="5.8759">
        <ele>872.259765625</ele>
        <time>2013-06-30T10:05:57.999Z</time>
      </trkpt>
      <trkpt lat="46.64196" lon="5.87583">
        <ele>872.24011230469</ele>
        <time>2013-06-30T10:05:59.999Z</time>
      </trkpt>
      <trkpt lat="46.64194" lon="5.87576">
        <ele>872.28033447266</ele>
        <time>2013-06-30T10:06:01.999Z</time>
      </trkpt>
      <trkpt lat="46.64192" lon="5.87569">
        <ele>872.40472412109</ele>
        <time>2013-06-30T10:06:03.999Z</time>
      </trkpt>
      <trkpt lat="46.64191" lon="5.87562">
        <ele>872.45837402344</ele>
        <time>2013-06-30T10:06:05.999Z</time>
      </trkpt>
      <trkpt lat="46.64189" lon="5.87552">
        <ele>872.59283447266</ele>
        <time>2013-06-30T10:06:07.999Z</time>
      </trkpt>
      <trkpt lat="46.64186" lon="5.87544">
        <ele>872.75714111328</ele>
        <time>2013-06-30T10:06:09.999Z</time>
      </trkpt>
      <trkpt lat="46.64182" lon="5.8753">
        <ele>872.78057861328</ele>
        <time>2013-06-30T10:06:11.999Z</time>
      </trkpt>
      <trkpt lat="46.64179" lon="5.87514">
        <ele>872.67755126953</ele>
        <time>2013-06-30T10:06:13.999Z</time>
      </trkpt>
      <trkpt lat="46.64176" lon="5.87498">
        <ele>870.6474609375</ele>
        <time>2013-06-30T10:06:15.999Z</time>
      </trkpt>
      <trkpt lat="46.64175" lon="5.87482">
        <ele>867.32928466797</ele>
        <time>2013-06-30T10:06:17.999Z</time>
      </trkpt>
      <trkpt lat="46.64173" lon="5.87465">
        <ele>865.65222167969</ele>
        <time>2013-06-30T10:06:19.999Z</time>
      </trkpt>
      <trkpt lat="46.64171" lon="5.87448">
        <ele>865.33752441406</ele>
        <time>2013-06-30T10:06:21.999Z</time>
      </trkpt>
      <trkpt lat="46.64169" lon="5.8743">
        <ele>865.65911865234</ele>
        <time>2013-06-30T10:06:23.999Z</time>
      </trkpt>
      <trkpt lat="46.64167" lon="5.87412">
        <ele>866.16607666016</ele>
        <time>2013-06-30T10:06:25.999Z</time>
      </trkpt>
      <trkpt lat="46.64165" lon="5.87393">
        <ele>864.29516601562</ele>
        <time>2013-06-30T10:06:27.999Z</time>
      </trkpt>
      <trkpt lat="46.64165" lon="5.87373">
        <ele>861.90631103516</ele>
        <time>2013-06-30T10:06:29.999Z</time>
      </trkpt>
      <trkpt lat="46.64163" lon="5.87351">
        <ele>859.52215576172</ele>
        <time>2013-06-30T10:06:31.999Z</time>
      </trkpt>
      <trkpt lat="46.64156" lon="5.87328">
        <ele>857.36450195312</ele>
        <time>2013-06-30T10:06:33.999Z</time>
      </trkpt>
      <trkpt lat="46.64148" lon="5.87311">
        <ele>855.40283203125</ele>
        <time>2013-06-30T10:06:35.999Z</time>
      </trkpt>
      <trkpt lat="46.64142" lon="5.87294">
        <ele>853.32342529297</ele>
        <time>2013-06-30T10:06:37.999Z</time>
      </trkpt>
      <trkpt lat="46.64139" lon="5.87273">
        <ele>852.93981933594</ele>
        <time>2013-06-30T10:06:39.999Z</time>
      </trkpt>
      <trkpt lat="46.64135" lon="5.87254">
        <ele>853.09826660156</ele>
        <time>2013-06-30T10:06:41.999Z</time>
      </trkpt>
      <trkpt lat="46.64131" lon="5.87233">
        <ele>852.80603027344</ele>
        <time>2013-06-30T10:06:43.999Z</time>
      </trkpt>
      <trkpt lat="46.64127" lon="5.87216">
        <ele>852.27355957031</ele>
        <time>2013-06-30T10:06:45.999Z</time>
      </trkpt>
      <trkpt lat="46.64122" lon="5.872">
        <ele>852.53930664062</ele>
        <time>2013-06-30T10:06:47.999Z</time>
      </trkpt>
      <trkpt lat="46.64117" lon="5.87188">
        <ele>852.70379638672</ele>
        <time>2013-06-30T10:06:49.999Z</time>
      </trkpt>
      <trkpt lat="46.64109" lon="5.87176">
        <ele>852.77954101562</ele>
        <time>2013-06-30T10:06:51.999Z</time>
      </trkpt>
      <trkpt lat="46.64104" lon="5.8717">
        <ele>852.681640625</ele>
        <time>2013-06-30T10:06:53.999Z</time>
      </trkpt>
      <trkpt lat="46.64101" lon="5.87164">
        <ele>852.53704833984</ele>
        <time>2013-06-30T10:06:55.999Z</time>
      </trkpt>
      <trkpt lat="46.64098" lon="5.87158">
        <ele>852.45886230469</ele>
        <time>2013-06-30T10:06:57.999Z</time>
      </trkpt>
      <trkpt lat="46.64094" lon="5.87152">
        <ele>852.50170898438</ele>
        <time>2013-06-30T10:06:59.999Z</time>
      </trkpt>
      <trkpt lat="46.64088" lon="5.87144">
        <ele>852.42669677734</ele>
        <time>2013-06-30T10:07:01.999Z</time>
      </trkpt>
      <trkpt lat="46.64082" lon="5.87131">
        <ele>852.27423095703</ele>
        <time>2013-06-30T10:07:03.999Z</time>
      </trkpt>
      <trkpt lat="46.64078" lon="5.87118">
        <ele>852.19873046875</ele>
        <time>2013-06-30T10:07:05.999Z</time>
      </trkpt>
      <trkpt lat="46.64075" lon="5.87105">
        <ele>852.16729736328</ele>
        <time>2013-06-30T10:07:07.999Z</time>
      </trkpt>
      <trkpt lat="46.64072" lon="5.87092">
        <ele>852.24810791016</ele>
        <time>2013-06-30T10:07:09.999Z</time>
      </trkpt>
      <trkpt lat="46.64069" lon="5.87078">
        <ele>852.34942626953</ele>
        <time>2013-06-30T10:07:11.999Z</time>
      </trkpt>
      <trkpt lat="46.64067" lon="5.87058">
        <ele>852.15081787109</ele>
        <time>2013-06-30T10:07:13.999Z</time>
      </trkpt>
      <trkpt lat="46.64065" lon="5.87034">
        <ele>851.06262207031</ele>
        <time>2013-06-30T10:07:15.999Z</time>
      </trkpt>
      <trkpt lat="46.64065" lon="5.87015">
        <ele>849.52227783203</ele>
        <time>2013-06-30T10:07:17.999Z</time>
      </trkpt>
      <trkpt lat="46.64066" lon="5.87">
        <ele>846.09808349609</ele>
        <time>2013-06-30T10:07:19.999Z</time>
      </trkpt>
      <trkpt lat="46.64067" lon="5.86986">
        <ele>846.02166748047</ele>
        <time>2013-06-30T10:07:21.999Z</time>
      </trkpt>
      <trkpt lat="46.64068" lon="5.86973">
        <ele>845.84973144531</ele>
        <time>2013-06-30T10:07:23.999Z</time>
      </trkpt>
      <trkpt lat="46.64067" lon="5.86962">
        <ele>845.70043945312</ele>
        <time>2013-06-30T10:07:25.999Z</time>
      </trkpt>
      <trkpt lat="46.64067" lon="5.86952">
        <ele>845.47283935547</ele>
        <time>2013-06-30T10:07:27.999Z</time>
      </trkpt>
      <trkpt lat="46.64067" lon="5.86944">
        <ele>845.32391357422</ele>
        <time>2013-06-30T10:07:29.999Z</time>
      </trkpt>
      <trkpt lat="46.64067" lon="5.86936">
        <ele>845.27374267578</ele>
        <time>2013-06-30T10:07:31.999Z</time>
      </trkpt>
      <trkpt lat="46.64068" lon="5.86926">
        <ele>845.34820556641</ele>
        <time>2013-06-30T10:07:33.999Z</time>
      </trkpt>
      <trkpt lat="46.64069" lon="5.86918">
        <ele>845.36627197266</ele>
        <time>2013-06-30T10:07:35.999Z</time>
      </trkpt>
      <trkpt lat="46.64069" lon="5.86906">
        <ele>845.37561035156</ele>
        <time>2013-06-30T10:07:37.999Z</time>
      </trkpt>
      <trkpt lat="46.64068" lon="5.86894">
        <ele>845.35565185547</ele>
        <time>2013-06-30T10:07:39.999Z</time>
      </trkpt>
      <trkpt lat="46.64069" lon="5.86882">
        <ele>845.27606201172</ele>
        <time>2013-06-30T10:07:41.999Z</time>
      </trkpt>
      <trkpt lat="46.64068" lon="5.86868">
        <ele>845.25</ele>
        <time>2013-06-30T10:07:43.999Z</time>
      </trkpt>
      <trkpt lat="46.64067" lon="5.86857">
        <ele>845.26611328125</ele>
        <time>2013-06-30T10:07:45.999Z</time>
      </trkpt>
      <trkpt lat="46.64067" lon="5.86846">
        <ele>845.34246826172</ele>
        <time>2013-06-30T10:07:47.999Z</time>
      </trkpt>
      <trkpt lat="46.64065" lon="5.86836">
        <ele>845.60607910156</ele>
        <time>2013-06-30T10:07:49.999Z</time>
      </trkpt>
      <trkpt lat="46.6406" lon="5.86822">
        <ele>847.89392089844</ele>
        <time>2013-06-30T10:07:51.999Z</time>
      </trkpt>
      <trkpt lat="46.64053" lon="5.86807">
        <ele>850.35076904297</ele>
        <time>2013-06-30T10:07:53.999Z</time>
      </trkpt>
      <trkpt lat="46.64046" lon="5.86797">
        <ele>849.28204345703</ele>
        <time>2013-06-30T10:07:55.999Z</time>
      </trkpt>
      <trkpt lat="46.64041" lon="5.86787">
        <ele>849.03558349609</ele>
        <time>2013-06-30T10:07:57.999Z</time>
      </trkpt>
      <trkpt lat="46.64039" lon="5.86778">
        <ele>848.84783935547</ele>
        <time>2013-06-30T10:07:59.999Z</time>
      </trkpt>
      <trkpt lat="46.64037" lon="5.86763">
        <ele>848.69293212891</ele>
        <time>2013-06-30T10:08:01.999Z</time>
      </trkpt>
      <trkpt lat="46.64037" lon="5.8675">
        <ele>848.658203125</ele>
        <time>2013-06-30T10:08:03.999Z</time>
      </trkpt>
      <trkpt lat="46.64039" lon="5.8674">
        <ele>848.79113769531</ele>
        <time>2013-06-30T10:08:05.999Z</time>
      </trkpt>
      <trkpt lat="46.64043" lon="5.86731">
        <ele>848.93994140625</ele>
        <time>2013-06-30T10:08:07.999Z</time>
      </trkpt>
      <trkpt lat="46.64047" lon="5.86723">
        <ele>848.96466064453</ele>
        <time>2013-06-30T10:08:09.999Z</time>
      </trkpt>
      <trkpt lat="46.64051" lon="5.86715">
        <ele>849.04272460938</ele>
        <time>2013-06-30T10:08:11.999Z</time>
      </trkpt>
      <trkpt lat="46.64055" lon="5.86707">
        <ele>849.14025878906</ele>
        <time>2013-06-30T10:08:13.999Z</time>
      </trkpt>
      <trkpt lat="46.6406" lon="5.86697">
        <ele>849.26263427734</ele>
        <time>2013-06-30T10:08:15.999Z</time>
      </trkpt>
      <trkpt lat="46.64063" lon="5.86688">
        <ele>849.33874511719</ele>
        <time>2013-06-30T10:08:17.999Z</time>
      </trkpt>
      <trkpt lat="46.64065" lon="5.86679">
        <ele>849.27667236328</ele>
        <time>2013-06-30T10:08:19.999Z</time>
      </trkpt>
      <trkpt lat="46.64064" lon="5.8667">
        <ele>849.16296386719</ele>
        <time>2013-06-30T10:08:21.999Z</time>
      </trkpt>
      <trkpt lat="46.64062" lon="5.86661">
        <ele>848.67272949219</ele>
        <time>2013-06-30T10:08:25.999Z</time>
      </trkpt>
      <trkpt lat="46.64061" lon="5.86655">
        <ele>848.44543457031</ele>
        <time>2013-06-30T10:08:27.999Z</time>
      </trkpt>
      <trkpt lat="46.6406" lon="5.86646">
        <ele>848.23388671875</ele>
        <time>2013-06-30T10:08:29.999Z</time>
      </trkpt>
      <trkpt lat="46.6406" lon="5.86637">
        <ele>847.99670410156</ele>
        <time>2013-06-30T10:08:31.999Z</time>
      </trkpt>
      <trkpt lat="46.64061" lon="5.86628">
        <ele>847.74200439453</ele>
        <time>2013-06-30T10:08:33.999Z</time>
      </trkpt>
      <trkpt lat="46.64063" lon="5.86621">
        <ele>847.47509765625</ele>
        <time>2013-06-30T10:08:35.999Z</time>
      </trkpt>
      <trkpt lat="46.64065" lon="5.86614">
        <ele>847.30017089844</ele>
        <time>2013-06-30T10:08:37.999Z</time>
      </trkpt>
      <trkpt lat="46.64067" lon="5.86606">
        <ele>847.05743408203</ele>
        <time>2013-06-30T10:08:39.999Z</time>
      </trkpt>
      <trkpt lat="46.6407" lon="5.866">
        <ele>847.13330078125</ele>
        <time>2013-06-30T10:08:41.999Z</time>
      </trkpt>
      <trkpt lat="46.64073" lon="5.86594">
        <ele>847.38635253906</ele>
        <time>2013-06-30T10:08:43.999Z</time>
      </trkpt>
      <trkpt lat="46.64078" lon="5.86585">
        <ele>847.86108398438</ele>
        <time>2013-06-30T10:08:46.999Z</time>
      </trkpt>
      <trkpt lat="46.64081" lon="5.8658">
        <ele>848.18371582031</ele>
        <time>2013-06-30T10:08:48.999Z</time>
      </trkpt>
      <trkpt lat="46.64085" lon="5.86573">
        <ele>848.82373046875</ele>
        <time>2013-06-30T10:08:51.999Z</time>
      </trkpt>
      <trkpt lat="46.64088" lon="5.86567">
        <ele>849.31298828125</ele>
        <time>2013-06-30T10:08:53.999Z</time>
      </trkpt>
      <trkpt lat="46.64093" lon="5.8656">
        <ele>849.95666503906</ele>
        <time>2013-06-30T10:08:55.999Z</time>
      </trkpt>
      <trkpt lat="46.64097" lon="5.86553">
        <ele>850.6884765625</ele>
        <time>2013-06-30T10:08:57.999Z</time>
      </trkpt>
      <trkpt lat="46.64099" lon="5.86546">
        <ele>851.51672363281</ele>
        <time>2013-06-30T10:08:59.999Z</time>
      </trkpt>
      <trkpt lat="46.64102" lon="5.8654">
        <ele>852.22302246094</ele>
        <time>2013-06-30T10:09:01.999Z</time>
      </trkpt>
      <trkpt lat="46.64106" lon="5.86536">
        <ele>852.7900390625</ele>
        <time>2013-06-30T10:09:03.999Z</time>
      </trkpt>
      <trkpt lat="46.64112" lon="5.8653">
        <ele>853.25061035156</ele>
        <time>2013-06-30T10:09:05.999Z</time>
      </trkpt>
      <trkpt lat="46.64119" lon="5.86522">
        <ele>853.57458496094</ele>
        <time>2013-06-30T10:09:07.999Z</time>
      </trkpt>
      <trkpt lat="46.64125" lon="5.86513">
        <ele>853.85766601562</ele>
        <time>2013-06-30T10:09:09.999Z</time>
      </trkpt>
      <trkpt lat="46.64132" lon="5.86506">
        <ele>854.09893798828</ele>
        <time>2013-06-30T10:09:11.999Z</time>
      </trkpt>
      <trkpt lat="46.64141" lon="5.86497">
        <ele>854.30395507812</ele>
        <time>2013-06-30T10:09:13.999Z</time>
      </trkpt>
      <trkpt lat="46.64146" lon="5.86489">
        <ele>854.53295898438</ele>
        <time>2013-06-30T10:09:15.999Z</time>
      </trkpt>
      <trkpt lat="46.64153" lon="5.8648">
        <ele>854.76666259766</ele>
        <time>2013-06-30T10:09:17.999Z</time>
      </trkpt>
      <trkpt lat="46.6416" lon="5.86468">
        <ele>856.10729980469</ele>
        <time>2013-06-30T10:09:19.999Z</time>
      </trkpt>
      <trkpt lat="46.64166" lon="5.86455">
        <ele>857.55041503906</ele>
        <time>2013-06-30T10:09:21.999Z</time>
      </trkpt>
      <trkpt lat="46.64172" lon="5.86444">
        <ele>858.72509765625</ele>
        <time>2013-06-30T10:09:23.999Z</time>
      </trkpt>
      <trkpt lat="46.64178" lon="5.86429">
        <ele>860.09423828125</ele>
        <time>2013-06-30T10:09:25.999Z</time>
      </trkpt>
      <trkpt lat="46.64183" lon="5.86412">
        <ele>863.45642089844</ele>
        <time>2013-06-30T10:09:27.999Z</time>
      </trkpt>
      <trkpt lat="46.64191" lon="5.86391">
        <ele>865.01599121094</ele>
        <time>2013-06-30T10:09:29.999Z</time>
      </trkpt>
      <trkpt lat="46.64197" lon="5.86372">
        <ele>864.29376220703</ele>
        <time>2013-06-30T10:09:31.999Z</time>
      </trkpt>
      <trkpt lat="46.64203" lon="5.86356">
        <ele>863.67504882812</ele>
        <time>2013-06-30T10:09:33.999Z</time>
      </trkpt>
      <trkpt lat="46.6421" lon="5.86335">
        <ele>862.22882080078</ele>
        <time>2013-06-30T10:09:35.999Z</time>
      </trkpt>
      <trkpt lat="46.64217" lon="5.86316">
        <ele>859.77307128906</ele>
        <time>2013-06-30T10:09:37.999Z</time>
      </trkpt>
      <trkpt lat="46.64222" lon="5.86298">
        <ele>856.28918457031</ele>
        <time>2013-06-30T10:09:39.999Z</time>
      </trkpt>
      <trkpt lat="46.64227" lon="5.86281">
        <ele>854.77722167969</ele>
        <time>2013-06-30T10:09:41.999Z</time>
      </trkpt>
      <trkpt lat="46.64232" lon="5.86266">
        <ele>853.20550537109</ele>
        <time>2013-06-30T10:09:43.999Z</time>
      </trkpt>
      <trkpt lat="46.64238" lon="5.86252">
        <ele>851.86267089844</ele>
        <time>2013-06-30T10:09:45.999Z</time>
      </trkpt>
      <trkpt lat="46.64243" lon="5.86237">
        <ele>850.98858642578</ele>
        <time>2013-06-30T10:09:47.999Z</time>
      </trkpt>
      <trkpt lat="46.64247" lon="5.86223">
        <ele>850.65460205078</ele>
        <time>2013-06-30T10:09:49.999Z</time>
      </trkpt>
      <trkpt lat="46.64253" lon="5.86208">
        <ele>848.92596435547</ele>
        <time>2013-06-30T10:09:51.999Z</time>
      </trkpt>
      <trkpt lat="46.64264" lon="5.8619">
        <ele>848.20855712891</ele>
        <time>2013-06-30T10:09:53.999Z</time>
      </trkpt>
      <trkpt lat="46.64271" lon="5.86169">
        <ele>846.51428222656</ele>
        <time>2013-06-30T10:09:55.999Z</time>
      </trkpt>
      <trkpt lat="46.64278" lon="5.86146">
        <ele>844.64593505859</ele>
        <time>2013-06-30T10:09:57.999Z</time>
      </trkpt>
      <trkpt lat="46.64285" lon="5.8612">
        <ele>842.78558349609</ele>
        <time>2013-06-30T10:09:59.999Z</time>
      </trkpt>
      <trkpt lat="46.64291" lon="5.86096">
        <ele>841.4873046875</ele>
        <time>2013-06-30T10:10:01.999Z</time>
      </trkpt>
      <trkpt lat="46.64296" lon="5.86077">
        <ele>840.35076904297</ele>
        <time>2013-06-30T10:10:03.999Z</time>
      </trkpt>
      <trkpt lat="46.64301" lon="5.86062">
        <ele>838.86761474609</ele>
        <time>2013-06-30T10:10:05.999Z</time>
      </trkpt>
      <trkpt lat="46.64308" lon="5.86049">
        <ele>838.06091308594</ele>
        <time>2013-06-30T10:10:07.999Z</time>
      </trkpt>
      <trkpt lat="46.64312" lon="5.8604">
        <ele>838.1162109375</ele>
        <time>2013-06-30T10:10:09.999Z</time>
      </trkpt>
      <trkpt lat="46.64315" lon="5.8603">
        <ele>838.10754394531</ele>
        <time>2013-06-30T10:10:11.999Z</time>
      </trkpt>
      <trkpt lat="46.64317" lon="5.86019">
        <ele>838.05242919922</ele>
        <time>2013-06-30T10:10:13.999Z</time>
      </trkpt>
      <trkpt lat="46.64319" lon="5.86012">
        <ele>837.84637451172</ele>
        <time>2013-06-30T10:10:15.999Z</time>
      </trkpt>
      <trkpt lat="46.64322" lon="5.86">
        <ele>837.67791748047</ele>
        <time>2013-06-30T10:10:17.999Z</time>
      </trkpt>
      <trkpt lat="46.64326" lon="5.85986">
        <ele>837.51751708984</ele>
        <time>2013-06-30T10:10:19.999Z</time>
      </trkpt>
      <trkpt lat="46.64331" lon="5.85972">
        <ele>837.74597167969</ele>
        <time>2013-06-30T10:10:21.999Z</time>
      </trkpt>
      <trkpt lat="46.64335" lon="5.85958">
        <ele>839.4794921875</ele>
        <time>2013-06-30T10:10:23.999Z</time>
      </trkpt>
      <trkpt lat="46.64338" lon="5.85944">
        <ele>839.29119873047</ele>
        <time>2013-06-30T10:10:25.999Z</time>
      </trkpt>
      <trkpt lat="46.64338" lon="5.85934">
        <ele>839.41003417969</ele>
        <time>2013-06-30T10:10:27.999Z</time>
      </trkpt>
      <trkpt lat="46.64338" lon="5.85923">
        <ele>839.53271484375</ele>
        <time>2013-06-30T10:10:29.999Z</time>
      </trkpt>
      <trkpt lat="46.64334" lon="5.85914">
        <ele>839.62188720703</ele>
        <time>2013-06-30T10:10:31.999Z</time>
      </trkpt>
      <trkpt lat="46.64328" lon="5.85904">
        <ele>839.76000976562</ele>
        <time>2013-06-30T10:10:33.999Z</time>
      </trkpt>
      <trkpt lat="46.64322" lon="5.85895">
        <ele>839.95971679688</ele>
        <time>2013-06-30T10:10:35.999Z</time>
      </trkpt>
      <trkpt lat="46.64316" lon="5.85887">
        <ele>840.03936767578</ele>
        <time>2013-06-30T10:10:37.999Z</time>
      </trkpt>
      <trkpt lat="46.64309" lon="5.85879">
        <ele>840.06616210938</ele>
        <time>2013-06-30T10:10:39.999Z</time>
      </trkpt>
      <trkpt lat="46.64303" lon="5.85874">
        <ele>839.99249267578</ele>
        <time>2013-06-30T10:10:41.999Z</time>
      </trkpt>
      <trkpt lat="46.64296" lon="5.85871">
        <ele>839.82232666016</ele>
        <time>2013-06-30T10:10:43.999Z</time>
      </trkpt>
      <trkpt lat="46.64289" lon="5.8587">
        <ele>839.83221435547</ele>
        <time>2013-06-30T10:10:45.999Z</time>
      </trkpt>
      <trkpt lat="46.64281" lon="5.85869">
        <ele>840.05584716797</ele>
        <time>2013-06-30T10:10:47.999Z</time>
      </trkpt>
      <trkpt lat="46.64273" lon="5.85869">
        <ele>840.27606201172</ele>
        <time>2013-06-30T10:10:49.999Z</time>
      </trkpt>
      <trkpt lat="46.64265" lon="5.85868">
        <ele>840.53845214844</ele>
        <time>2013-06-30T10:10:51.999Z</time>
      </trkpt>
      <trkpt lat="46.64258" lon="5.85867">
        <ele>840.80163574219</ele>
        <time>2013-06-30T10:10:53.999Z</time>
      </trkpt>
      <trkpt lat="46.6425" lon="5.85866">
        <ele>841.07727050781</ele>
        <time>2013-06-30T10:10:55.999Z</time>
      </trkpt>
      <trkpt lat="46.64241" lon="5.85864">
        <ele>841.49816894531</ele>
        <time>2013-06-30T10:10:57.999Z</time>
      </trkpt>
      <trkpt lat="46.64234" lon="5.85862">
        <ele>841.94458007812</ele>
        <time>2013-06-30T10:10:59.999Z</time>
      </trkpt>
      <trkpt lat="46.64226" lon="5.8586">
        <ele>842.51049804688</ele>
        <time>2013-06-30T10:11:01.999Z</time>
      </trkpt>
      <trkpt lat="46.6422" lon="5.85853">
        <ele>843.03552246094</ele>
        <time>2013-06-30T10:11:03.999Z</time>
      </trkpt>
      <trkpt lat="46.64212" lon="5.8584">
        <ele>843.6845703125</ele>
        <time>2013-06-30T10:11:05.999Z</time>
      </trkpt>
      <trkpt lat="46.64207" lon="5.8583">
        <ele>844.39135742188</ele>
        <time>2013-06-30T10:11:07.999Z</time>
      </trkpt>
      <trkpt lat="46.64204" lon="5.85821">
        <ele>844.88012695312</ele>
        <time>2013-06-30T10:11:09.999Z</time>
      </trkpt>
      <trkpt lat="46.642" lon="5.85809">
        <ele>845.28363037109</ele>
        <time>2013-06-30T10:11:11.999Z</time>
      </trkpt>
      <trkpt lat="46.64197" lon="5.85796">
        <ele>845.84118652344</ele>
        <time>2013-06-30T10:11:13.999Z</time>
      </trkpt>
      <trkpt lat="46.64194" lon="5.85785">
        <ele>846.33892822266</ele>
        <time>2013-06-30T10:11:15.999Z</time>
      </trkpt>
      <trkpt lat="46.64192" lon="5.85775">
        <ele>846.73645019531</ele>
        <time>2013-06-30T10:11:17.999Z</time>
      </trkpt>
      <trkpt lat="46.64188" lon="5.85763">
        <ele>847.03039550781</ele>
        <time>2013-06-30T10:11:19.999Z</time>
      </trkpt>
      <trkpt lat="46.64184" lon="5.85751">
        <ele>847.31353759766</ele>
        <time>2013-06-30T10:11:21.999Z</time>
      </trkpt>
      <trkpt lat="46.6418" lon="5.85738">
        <ele>847.50390625</ele>
        <time>2013-06-30T10:11:23.999Z</time>
      </trkpt>
      <trkpt lat="46.64177" lon="5.85726">
        <ele>847.79876708984</ele>
        <time>2013-06-30T10:11:25.999Z</time>
      </trkpt>
      <trkpt lat="46.64174" lon="5.85714">
        <ele>850.04010009766</ele>
        <time>2013-06-30T10:11:27.999Z</time>
      </trkpt>
      <trkpt lat="46.64171" lon="5.85701">
        <ele>854.27178955078</ele>
        <time>2013-06-30T10:11:29.999Z</time>
      </trkpt>
      <trkpt lat="46.64166" lon="5.85684">
        <ele>857.34759521484</ele>
        <time>2013-06-30T10:11:31.999Z</time>
      </trkpt>
      <trkpt lat="46.64158" lon="5.85661">
        <ele>857.37091064453</ele>
        <time>2013-06-30T10:11:33.999Z</time>
      </trkpt>
      <trkpt lat="46.64149" lon="5.85644">
        <ele>856.76928710938</ele>
        <time>2013-06-30T10:11:35.999Z</time>
      </trkpt>
      <trkpt lat="46.64141" lon="5.8563">
        <ele>855.01324462891</ele>
        <time>2013-06-30T10:11:37.999Z</time>
      </trkpt>
      <trkpt lat="46.64136" lon="5.85614">
        <ele>853.75622558594</ele>
        <time>2013-06-30T10:11:39.999Z</time>
      </trkpt>
      <trkpt lat="46.6413" lon="5.85598">
        <ele>853.70703125</ele>
        <time>2013-06-30T10:11:41.999Z</time>
      </trkpt>
      <trkpt lat="46.64125" lon="5.85577">
        <ele>853.38543701172</ele>
        <time>2013-06-30T10:11:43.999Z</time>
      </trkpt>
      <trkpt lat="46.64122" lon="5.85552">
        <ele>851.95501708984</ele>
        <time>2013-06-30T10:11:45.999Z</time>
      </trkpt>
      <trkpt lat="46.64123" lon="5.8553">
        <ele>850.64819335938</ele>
        <time>2013-06-30T10:11:47.999Z</time>
      </trkpt>
      <trkpt lat="46.64123" lon="5.85508">
        <ele>848.31481933594</ele>
        <time>2013-06-30T10:11:49.999Z</time>
      </trkpt>
      <trkpt lat="46.64123" lon="5.85487">
        <ele>845.91864013672</ele>
        <time>2013-06-30T10:11:51.999Z</time>
      </trkpt>
      <trkpt lat="46.64123" lon="5.85469">
        <ele>843.90570068359</ele>
        <time>2013-06-30T10:11:53.999Z</time>
      </trkpt>
      <trkpt lat="46.64123" lon="5.85447">
        <ele>844.03375244141</ele>
        <time>2013-06-30T10:11:55.999Z</time>
      </trkpt>
      <trkpt lat="46.64123" lon="5.85419">
        <ele>844.70269775391</ele>
        <time>2013-06-30T10:11:57.999Z</time>
      </trkpt>
      <trkpt lat="46.64121" lon="5.85392">
        <ele>845.65325927734</ele>
        <time>2013-06-30T10:11:59.999Z</time>
      </trkpt>
      <trkpt lat="46.64115" lon="5.85367">
        <ele>845.99389648438</ele>
        <time>2013-06-30T10:12:01.999Z</time>
      </trkpt>
      <trkpt lat="46.64109" lon="5.85345">
        <ele>845.59228515625</ele>
        <time>2013-06-30T10:12:03.999Z</time>
      </trkpt>
      <trkpt lat="46.64101" lon="5.85325">
        <ele>845.12316894531</ele>
        <time>2013-06-30T10:12:05.999Z</time>
      </trkpt>
      <trkpt lat="46.64088" lon="5.85304">
        <ele>843.82513427734</ele>
        <time>2013-06-30T10:12:07.999Z</time>
      </trkpt>
      <trkpt lat="46.64073" lon="5.8528">
        <ele>841.53210449219</ele>
        <time>2013-06-30T10:12:09.999Z</time>
      </trkpt>
      <trkpt lat="46.64061" lon="5.8526">
        <ele>839.30249023438</ele>
        <time>2013-06-30T10:12:11.999Z</time>
      </trkpt>
      <trkpt lat="46.64053" lon="5.85244">
        <ele>837.17626953125</ele>
        <time>2013-06-30T10:12:13.999Z</time>
      </trkpt>
      <trkpt lat="46.64046" lon="5.85224">
        <ele>836.00183105469</ele>
        <time>2013-06-30T10:12:15.999Z</time>
      </trkpt>
      <trkpt lat="46.64039" lon="5.852">
        <ele>834.09381103516</ele>
        <time>2013-06-30T10:12:17.999Z</time>
      </trkpt>
      <trkpt lat="46.64033" lon="5.85173">
        <ele>830.95513916016</ele>
        <time>2013-06-30T10:12:19.999Z</time>
      </trkpt>
      <trkpt lat="46.64031" lon="5.85146">
        <ele>828.60076904297</ele>
        <time>2013-06-30T10:12:21.999Z</time>
      </trkpt>
      <trkpt lat="46.64031" lon="5.85119">
        <ele>827.20025634766</ele>
        <time>2013-06-30T10:12:23.999Z</time>
      </trkpt>
      <trkpt lat="46.64032" lon="5.85093">
        <ele>825.28070068359</ele>
        <time>2013-06-30T10:12:25.999Z</time>
      </trkpt>
      <trkpt lat="46.64031" lon="5.85069">
        <ele>823.77587890625</ele>
        <time>2013-06-30T10:12:27.999Z</time>
      </trkpt>
      <trkpt lat="46.6403" lon="5.85043">
        <ele>822.94598388672</ele>
        <time>2013-06-30T10:12:29.999Z</time>
      </trkpt>
      <trkpt lat="46.6403" lon="5.85017">
        <ele>820.96081542969</ele>
        <time>2013-06-30T10:12:31.999Z</time>
      </trkpt>
      <trkpt lat="46.64029" lon="5.84994">
        <ele>819.4248046875</ele>
        <time>2013-06-30T10:12:33.999Z</time>
      </trkpt>
      <trkpt lat="46.64028" lon="5.84971">
        <ele>817.69256591797</ele>
        <time>2013-06-30T10:12:35.999Z</time>
      </trkpt>
      <trkpt lat="46.64026" lon="5.84951">
        <ele>816.19921875</ele>
        <time>2013-06-30T10:12:37.999Z</time>
      </trkpt>
      <trkpt lat="46.64023" lon="5.84931">
        <ele>814.26336669922</ele>
        <time>2013-06-30T10:12:39.999Z</time>
      </trkpt>
      <trkpt lat="46.64017" lon="5.84906">
        <ele>814.44799804688</ele>
        <time>2013-06-30T10:12:41.999Z</time>
      </trkpt>
      <trkpt lat="46.64011" lon="5.84881">
        <ele>813.21600341797</ele>
        <time>2013-06-30T10:12:43.999Z</time>
      </trkpt>
      <trkpt lat="46.64007" lon="5.84859">
        <ele>812.38934326172</ele>
        <time>2013-06-30T10:12:45.999Z</time>
      </trkpt>
      <trkpt lat="46.64006" lon="5.84839">
        <ele>811.81903076172</ele>
        <time>2013-06-30T10:12:47.999Z</time>
      </trkpt>
      <trkpt lat="46.64011" lon="5.84823">
        <ele>810.59442138672</ele>
        <time>2013-06-30T10:12:49.999Z</time>
      </trkpt>
      <trkpt lat="46.6402" lon="5.84809">
        <ele>808.80395507812</ele>
        <time>2013-06-30T10:12:51.999Z</time>
      </trkpt>
      <trkpt lat="46.64029" lon="5.84801">
        <ele>806.43493652344</ele>
        <time>2013-06-30T10:12:53.999Z</time>
      </trkpt>
      <trkpt lat="46.64038" lon="5.84795">
        <ele>802.87414550781</ele>
        <time>2013-06-30T10:12:55.999Z</time>
      </trkpt>
      <trkpt lat="46.64049" lon="5.84785">
        <ele>799.77130126953</ele>
        <time>2013-06-30T10:12:57.999Z</time>
      </trkpt>
      <trkpt lat="46.64061" lon="5.84773">
        <ele>796.18975830078</ele>
        <time>2013-06-30T10:12:59.999Z</time>
      </trkpt>
      <trkpt lat="46.64072" lon="5.84753">
        <ele>793.69598388672</ele>
        <time>2013-06-30T10:13:01.999Z</time>
      </trkpt>
      <trkpt lat="46.64081" lon="5.8473">
        <ele>790.69622802734</ele>
        <time>2013-06-30T10:13:03.999Z</time>
      </trkpt>
      <trkpt lat="46.64086" lon="5.84709">
        <ele>788.61505126953</ele>
        <time>2013-06-30T10:13:05.999Z</time>
      </trkpt>
      <trkpt lat="46.64086" lon="5.84687">
        <ele>787.08380126953</ele>
        <time>2013-06-30T10:13:07.999Z</time>
      </trkpt>
      <trkpt lat="46.6408" lon="5.84668">
        <ele>787.15069580078</ele>
        <time>2013-06-30T10:13:09.999Z</time>
      </trkpt>
      <trkpt lat="46.64073" lon="5.84648">
        <ele>786.70220947266</ele>
        <time>2013-06-30T10:13:11.999Z</time>
      </trkpt>
      <trkpt lat="46.64067" lon="5.84627">
        <ele>786.17004394531</ele>
        <time>2013-06-30T10:13:13.999Z</time>
      </trkpt>
      <trkpt lat="46.64063" lon="5.84605">
        <ele>786.38494873047</ele>
        <time>2013-06-30T10:13:15.999Z</time>
      </trkpt>
      <trkpt lat="46.64058" lon="5.84584">
        <ele>786.09149169922</ele>
        <time>2013-06-30T10:13:17.999Z</time>
      </trkpt>
      <trkpt lat="46.64053" lon="5.84563">
        <ele>786.40460205078</ele>
        <time>2013-06-30T10:13:19.999Z</time>
      </trkpt>
      <trkpt lat="46.6405" lon="5.84539">
        <ele>786.21801757812</ele>
        <time>2013-06-30T10:13:21.999Z</time>
      </trkpt>
      <trkpt lat="46.64054" lon="5.84511">
        <ele>785.29498291016</ele>
        <time>2013-06-30T10:13:23.999Z</time>
      </trkpt>
      <trkpt lat="46.64059" lon="5.84483">
        <ele>783.81353759766</ele>
        <time>2013-06-30T10:13:25.999Z</time>
      </trkpt>
      <trkpt lat="46.64064" lon="5.84458">
        <ele>780.98852539062</ele>
        <time>2013-06-30T10:13:27.999Z</time>
      </trkpt>
      <trkpt lat="46.64073" lon="5.84435">
        <ele>778.29718017578</ele>
        <time>2013-06-30T10:13:29.999Z</time>
      </trkpt>
      <trkpt lat="46.64083" lon="5.8441">
        <ele>775.68011474609</ele>
        <time>2013-06-30T10:13:31.999Z</time>
      </trkpt>
      <trkpt lat="46.64094" lon="5.84385">
        <ele>772.40270996094</ele>
        <time>2013-06-30T10:13:33.999Z</time>
      </trkpt>
      <trkpt lat="46.64104" lon="5.84359">
        <ele>769.45709228516</ele>
        <time>2013-06-30T10:13:35.999Z</time>
      </trkpt>
      <trkpt lat="46.64112" lon="5.84334">
        <ele>766.83197021484</ele>
        <time>2013-06-30T10:13:37.999Z</time>
      </trkpt>
      <trkpt lat="46.64119" lon="5.84308">
        <ele>764.37280273438</ele>
        <time>2013-06-30T10:13:39.999Z</time>
      </trkpt>
      <trkpt lat="46.64126" lon="5.84282">
        <ele>762.30883789062</ele>
        <time>2013-06-30T10:13:41.999Z</time>
      </trkpt>
      <trkpt lat="46.64134" lon="5.84255">
        <ele>760.61547851562</ele>
        <time>2013-06-30T10:13:43.999Z</time>
      </trkpt>
      <trkpt lat="46.64141" lon="5.84228">
        <ele>759.17224121094</ele>
        <time>2013-06-30T10:13:45.999Z</time>
      </trkpt>
      <trkpt lat="46.64149" lon="5.84201">
        <ele>757.81188964844</ele>
        <time>2013-06-30T10:13:47.999Z</time>
      </trkpt>
      <trkpt lat="46.64155" lon="5.84177">
        <ele>756.71453857422</ele>
        <time>2013-06-30T10:13:49.999Z</time>
      </trkpt>
      <trkpt lat="46.64162" lon="5.8415">
        <ele>755.50616455078</ele>
        <time>2013-06-30T10:13:51.999Z</time>
      </trkpt>
      <trkpt lat="46.64168" lon="5.84123">
        <ele>754.05938720703</ele>
        <time>2013-06-30T10:13:53.999Z</time>
      </trkpt>
      <trkpt lat="46.64174" lon="5.84098">
        <ele>752.53552246094</ele>
        <time>2013-06-30T10:13:55.999Z</time>
      </trkpt>
      <trkpt lat="46.64179" lon="5.84075">
        <ele>751.42022705078</ele>
        <time>2013-06-30T10:13:57.999Z</time>
      </trkpt>
      <trkpt lat="46.64185" lon="5.84054">
        <ele>750.54064941406</ele>
        <time>2013-06-30T10:13:59.999Z</time>
      </trkpt>
      <trkpt lat="46.6419" lon="5.84033">
        <ele>749.74182128906</ele>
        <time>2013-06-30T10:14:01.999Z</time>
      </trkpt>
      <trkpt lat="46.64195" lon="5.84012">
        <ele>748.95001220703</ele>
        <time>2013-06-30T10:14:03.999Z</time>
      </trkpt>
      <trkpt lat="46.64199" lon="5.83991">
        <ele>748.59509277344</ele>
        <time>2013-06-30T10:14:05.999Z</time>
      </trkpt>
      <trkpt lat="46.64203" lon="5.8397">
        <ele>748.10229492188</ele>
        <time>2013-06-30T10:14:07.999Z</time>
      </trkpt>
      <trkpt lat="46.64207" lon="5.83946">
        <ele>747.47546386719</ele>
        <time>2013-06-30T10:14:09.999Z</time>
      </trkpt>
      <trkpt lat="46.6421" lon="5.83923">
        <ele>746.47967529297</ele>
        <time>2013-06-30T10:14:11.999Z</time>
      </trkpt>
      <trkpt lat="46.64212" lon="5.83902">
        <ele>746.19287109375</ele>
        <time>2013-06-30T10:14:13.999Z</time>
      </trkpt>
      <trkpt lat="46.64214" lon="5.83883">
        <ele>746.10217285156</ele>
        <time>2013-06-30T10:14:15.999Z</time>
      </trkpt>
      <trkpt lat="46.64216" lon="5.83863">
        <ele>746.36926269531</ele>
        <time>2013-06-30T10:14:17.999Z</time>
      </trkpt>
      <trkpt lat="46.6422" lon="5.83843">
        <ele>746.79760742188</ele>
        <time>2013-06-30T10:14:19.999Z</time>
      </trkpt>
      <trkpt lat="46.64223" lon="5.83825">
        <ele>747.58245849609</ele>
        <time>2013-06-30T10:14:21.999Z</time>
      </trkpt>
      <trkpt lat="46.64228" lon="5.83807">
        <ele>748.09796142578</ele>
        <time>2013-06-30T10:14:23.999Z</time>
      </trkpt>
      <trkpt lat="46.64236" lon="5.83793">
        <ele>747.46038818359</ele>
        <time>2013-06-30T10:14:25.999Z</time>
      </trkpt>
      <trkpt lat="46.64246" lon="5.83782">
        <ele>746.08477783203</ele>
        <time>2013-06-30T10:14:27.999Z</time>
      </trkpt>
      <trkpt lat="46.64262" lon="5.83781">
        <ele>744.12286376953</ele>
        <time>2013-06-30T10:14:29.999Z</time>
      </trkpt>
      <trkpt lat="46.6428" lon="5.83784">
        <ele>742.99584960938</ele>
        <time>2013-06-30T10:14:31.999Z</time>
      </trkpt>
      <trkpt lat="46.64298" lon="5.8379">
        <ele>741.80865478516</ele>
        <time>2013-06-30T10:14:33.999Z</time>
      </trkpt>
      <trkpt lat="46.64316" lon="5.83785">
        <ele>740.30712890625</ele>
        <time>2013-06-30T10:14:35.999Z</time>
      </trkpt>
      <trkpt lat="46.6433" lon="5.8377">
        <ele>739.21087646484</ele>
        <time>2013-06-30T10:14:37.999Z</time>
      </trkpt>
      <trkpt lat="46.64341" lon="5.83749">
        <ele>737.86730957031</ele>
        <time>2013-06-30T10:14:39.999Z</time>
      </trkpt>
      <trkpt lat="46.64352" lon="5.83728">
        <ele>736.11645507812</ele>
        <time>2013-06-30T10:14:41.999Z</time>
      </trkpt>
      <trkpt lat="46.64363" lon="5.83708">
        <ele>734.62103271484</ele>
        <time>2013-06-30T10:14:43.999Z</time>
      </trkpt>
      <trkpt lat="46.64374" lon="5.83689">
        <ele>733.29211425781</ele>
        <time>2013-06-30T10:14:45.999Z</time>
      </trkpt>
      <trkpt lat="46.64385" lon="5.83671">
        <ele>732.24743652344</ele>
        <time>2013-06-30T10:14:47.999Z</time>
      </trkpt>
      <trkpt lat="46.64395" lon="5.83652">
        <ele>731.31134033203</ele>
        <time>2013-06-30T10:14:49.999Z</time>
      </trkpt>
      <trkpt lat="46.644" lon="5.83631">
        <ele>730.46307373047</ele>
        <time>2013-06-30T10:14:51.999Z</time>
      </trkpt>
      <trkpt lat="46.64401" lon="5.83611">
        <ele>729.62390136719</ele>
        <time>2013-06-30T10:14:53.999Z</time>
      </trkpt>
      <trkpt lat="46.64403" lon="5.83589">
        <ele>729.06494140625</ele>
        <time>2013-06-30T10:14:55.999Z</time>
      </trkpt>
      <trkpt lat="46.64408" lon="5.83565">
        <ele>728.60186767578</ele>
        <time>2013-06-30T10:14:57.999Z</time>
      </trkpt>
      <trkpt lat="46.64414" lon="5.8354">
        <ele>728.595703125</ele>
        <time>2013-06-30T10:14:59.999Z</time>
      </trkpt>
      <trkpt lat="46.64416" lon="5.83512">
        <ele>728.27093505859</ele>
        <time>2013-06-30T10:15:01.999Z</time>
      </trkpt>
      <trkpt lat="46.64416" lon="5.83482">
        <ele>726.73333740234</ele>
        <time>2013-06-30T10:15:03.999Z</time>
      </trkpt>
      <trkpt lat="46.64415" lon="5.8345">
        <ele>725.84942626953</ele>
        <time>2013-06-30T10:15:05.999Z</time>
      </trkpt>
      <trkpt lat="46.64415" lon="5.83418">
        <ele>724.60705566406</ele>
        <time>2013-06-30T10:15:07.999Z</time>
      </trkpt>
      <trkpt lat="46.64419" lon="5.83389">
        <ele>723.05426025391</ele>
        <time>2013-06-30T10:15:09.999Z</time>
      </trkpt>
      <trkpt lat="46.64429" lon="5.83362">
        <ele>721.73553466797</ele>
        <time>2013-06-30T10:15:11.999Z</time>
      </trkpt>
      <trkpt lat="46.64444" lon="5.83339">
        <ele>719.29309082031</ele>
        <time>2013-06-30T10:15:13.999Z</time>
      </trkpt>
      <trkpt lat="46.64457" lon="5.83318">
        <ele>716.63995361328</ele>
        <time>2013-06-30T10:15:15.999Z</time>
      </trkpt>
      <trkpt lat="46.64468" lon="5.83294">
        <ele>714.77032470703</ele>
        <time>2013-06-30T10:15:17.999Z</time>
      </trkpt>
      <trkpt lat="46.64475" lon="5.8327">
        <ele>713.90423583984</ele>
        <time>2013-06-30T10:15:19.999Z</time>
      </trkpt>
      <trkpt lat="46.64482" lon="5.83245">
        <ele>713.35101318359</ele>
        <time>2013-06-30T10:15:21.999Z</time>
      </trkpt>
      <trkpt lat="46.64489" lon="5.83221">
        <ele>712.77258300781</ele>
        <time>2013-06-30T10:15:23.999Z</time>
      </trkpt>
      <trkpt lat="46.64495" lon="5.83196">
        <ele>712.24877929688</ele>
        <time>2013-06-30T10:15:25.999Z</time>
      </trkpt>
      <trkpt lat="46.64502" lon="5.83171">
        <ele>711.65478515625</ele>
        <time>2013-06-30T10:15:27.999Z</time>
      </trkpt>
      <trkpt lat="46.64509" lon="5.83146">
        <ele>710.94848632812</ele>
        <time>2013-06-30T10:15:29.999Z</time>
      </trkpt>
      <trkpt lat="46.64517" lon="5.83122">
        <ele>709.85217285156</ele>
        <time>2013-06-30T10:15:31.999Z</time>
      </trkpt>
      <trkpt lat="46.64529" lon="5.83101">
        <ele>708.70989990234</ele>
        <time>2013-06-30T10:15:33.999Z</time>
      </trkpt>
      <trkpt lat="46.64541" lon="5.83084">
        <ele>707.97595214844</ele>
        <time>2013-06-30T10:15:35.999Z</time>
      </trkpt>
      <trkpt lat="46.64555" lon="5.8307">
        <ele>707.58081054688</ele>
        <time>2013-06-30T10:15:37.999Z</time>
      </trkpt>
      <trkpt lat="46.64568" lon="5.83056">
        <ele>707.51037597656</ele>
        <time>2013-06-30T10:15:39.999Z</time>
      </trkpt>
      <trkpt lat="46.64579" lon="5.83043">
        <ele>707.89440917969</ele>
        <time>2013-06-30T10:15:41.999Z</time>
      </trkpt>
      <trkpt lat="46.64588" lon="5.8303">
        <ele>708.33526611328</ele>
        <time>2013-06-30T10:15:43.999Z</time>
      </trkpt>
      <trkpt lat="46.64595" lon="5.83015">
        <ele>709.69281005859</ele>
        <time>2013-06-30T10:15:45.999Z</time>
      </trkpt>
      <trkpt lat="46.64601" lon="5.83">
        <ele>711.72674560547</ele>
        <time>2013-06-30T10:15:47.999Z</time>
      </trkpt>
      <trkpt lat="46.64607" lon="5.82981">
        <ele>713.11767578125</ele>
        <time>2013-06-30T10:15:49.999Z</time>
      </trkpt>
      <trkpt lat="46.64611" lon="5.82961">
        <ele>713.62506103516</ele>
        <time>2013-06-30T10:15:51.999Z</time>
      </trkpt>
      <trkpt lat="46.64615" lon="5.82939">
        <ele>713.65716552734</ele>
        <time>2013-06-30T10:15:53.999Z</time>
      </trkpt>
      <trkpt lat="46.64619" lon="5.82919">
        <ele>713.35235595703</ele>
        <time>2013-06-30T10:15:55.999Z</time>
      </trkpt>
      <trkpt lat="46.64622" lon="5.82897">
        <ele>712.0673828125</ele>
        <time>2013-06-30T10:15:57.999Z</time>
      </trkpt>
      <trkpt lat="46.64625" lon="5.82872">
        <ele>711.17663574219</ele>
        <time>2013-06-30T10:15:59.999Z</time>
      </trkpt>
      <trkpt lat="46.64627" lon="5.82845">
        <ele>710.41296386719</ele>
        <time>2013-06-30T10:16:01.999Z</time>
      </trkpt>
      <trkpt lat="46.64626" lon="5.82816">
        <ele>709.82409667969</ele>
        <time>2013-06-30T10:16:03.999Z</time>
      </trkpt>
      <trkpt lat="46.64623" lon="5.82791">
        <ele>708.49969482422</ele>
        <time>2013-06-30T10:16:05.999Z</time>
      </trkpt>
      <trkpt lat="46.64622" lon="5.82767">
        <ele>707.31164550781</ele>
        <time>2013-06-30T10:16:07.999Z</time>
      </trkpt>
      <trkpt lat="46.64621" lon="5.82742">
        <ele>706.14776611328</ele>
        <time>2013-06-30T10:16:09.999Z</time>
      </trkpt>
      <trkpt lat="46.64619" lon="5.82717">
        <ele>704.47259521484</ele>
        <time>2013-06-30T10:16:11.999Z</time>
      </trkpt>
      <trkpt lat="46.64618" lon="5.8269">
        <ele>702.55627441406</ele>
        <time>2013-06-30T10:16:13.999Z</time>
      </trkpt>
      <trkpt lat="46.64618" lon="5.82664">
        <ele>700.92663574219</ele>
        <time>2013-06-30T10:16:15.999Z</time>
      </trkpt>
      <trkpt lat="46.6462" lon="5.82639">
        <ele>699.623046875</ele>
        <time>2013-06-30T10:16:17.999Z</time>
      </trkpt>
      <trkpt lat="46.64623" lon="5.82614">
        <ele>698.56323242188</ele>
        <time>2013-06-30T10:16:19.999Z</time>
      </trkpt>
      <trkpt lat="46.64629" lon="5.8259">
        <ele>697.17785644531</ele>
        <time>2013-06-30T10:16:21.999Z</time>
      </trkpt>
      <trkpt lat="46.64636" lon="5.82566">
        <ele>695.84722900391</ele>
        <time>2013-06-30T10:16:23.999Z</time>
      </trkpt>
      <trkpt lat="46.64646" lon="5.82543">
        <ele>694.65924072266</ele>
        <time>2013-06-30T10:16:25.999Z</time>
      </trkpt>
      <trkpt lat="46.64659" lon="5.82519">
        <ele>694.14544677734</ele>
        <time>2013-06-30T10:16:27.999Z</time>
      </trkpt>
      <trkpt lat="46.64672" lon="5.82499">
        <ele>693.37628173828</ele>
        <time>2013-06-30T10:16:29.999Z</time>
      </trkpt>
      <trkpt lat="46.64686" lon="5.82481">
        <ele>692.54608154297</ele>
        <time>2013-06-30T10:16:31.999Z</time>
      </trkpt>
      <trkpt lat="46.647" lon="5.82463">
        <ele>691.79217529297</ele>
        <time>2013-06-30T10:16:33.999Z</time>
      </trkpt>
      <trkpt lat="46.64715" lon="5.82445">
        <ele>691.02264404297</ele>
        <time>2013-06-30T10:16:35.999Z</time>
      </trkpt>
      <trkpt lat="46.64729" lon="5.82428">
        <ele>690.73303222656</ele>
        <time>2013-06-30T10:16:37.999Z</time>
      </trkpt>
      <trkpt lat="46.64743" lon="5.8241">
        <ele>690.03076171875</ele>
        <time>2013-06-30T10:16:39.999Z</time>
      </trkpt>
      <trkpt lat="46.64756" lon="5.82389">
        <ele>689.43231201172</ele>
        <time>2013-06-30T10:16:41.999Z</time>
      </trkpt>
      <trkpt lat="46.64769" lon="5.82368">
        <ele>688.76409912109</ele>
        <time>2013-06-30T10:16:43.999Z</time>
      </trkpt>
      <trkpt lat="46.64781" lon="5.82349">
        <ele>688.28704833984</ele>
        <time>2013-06-30T10:16:45.999Z</time>
      </trkpt>
      <trkpt lat="46.64795" lon="5.82327">
        <ele>687.42010498047</ele>
        <time>2013-06-30T10:16:47.999Z</time>
      </trkpt>
      <trkpt lat="46.64808" lon="5.82306">
        <ele>686.17272949219</ele>
        <time>2013-06-30T10:16:49.999Z</time>
      </trkpt>
      <trkpt lat="46.6482" lon="5.82288">
        <ele>684.91271972656</ele>
        <time>2013-06-30T10:16:51.999Z</time>
      </trkpt>
      <trkpt lat="46.64834" lon="5.82271">
        <ele>683.80792236328</ele>
        <time>2013-06-30T10:16:53.999Z</time>
      </trkpt>
      <trkpt lat="46.64849" lon="5.82256">
        <ele>682.63592529297</ele>
        <time>2013-06-30T10:16:55.999Z</time>
      </trkpt>
      <trkpt lat="46.64865" lon="5.82243">
        <ele>681.96923828125</ele>
        <time>2013-06-30T10:16:57.999Z</time>
      </trkpt>
      <trkpt lat="46.6488" lon="5.8223">
        <ele>680.92700195312</ele>
        <time>2013-06-30T10:16:59.999Z</time>
      </trkpt>
      <trkpt lat="46.64895" lon="5.8222">
        <ele>679.93151855469</ele>
        <time>2013-06-30T10:17:01.999Z</time>
      </trkpt>
      <trkpt lat="46.64912" lon="5.82209">
        <ele>679.65161132812</ele>
        <time>2013-06-30T10:17:03.999Z</time>
      </trkpt>
      <trkpt lat="46.64927" lon="5.822">
        <ele>679.66558837891</ele>
        <time>2013-06-30T10:17:05.999Z</time>
      </trkpt>
      <trkpt lat="46.64942" lon="5.82192">
        <ele>679.66741943359</ele>
        <time>2013-06-30T10:17:07.999Z</time>
      </trkpt>
      <trkpt lat="46.64958" lon="5.82183">
        <ele>680.40948486328</ele>
        <time>2013-06-30T10:17:09.999Z</time>
      </trkpt>
      <trkpt lat="46.64974" lon="5.82171">
        <ele>680.77221679688</ele>
        <time>2013-06-30T10:17:11.999Z</time>
      </trkpt>
      <trkpt lat="46.64989" lon="5.82159">
        <ele>681.23284912109</ele>
        <time>2013-06-30T10:17:13.999Z</time>
      </trkpt>
      <trkpt lat="46.65002" lon="5.82147">
        <ele>680.98651123047</ele>
        <time>2013-06-30T10:17:15.999Z</time>
      </trkpt>
      <trkpt lat="46.65011" lon="5.8214">
        <ele>679.36462402344</ele>
        <time>2013-06-30T10:17:17.999Z</time>
      </trkpt>
      <trkpt lat="46.65017" lon="5.82133">
        <ele>679.17907714844</ele>
        <time>2013-06-30T10:17:19.999Z</time>
      </trkpt>
      <trkpt lat="46.65012" lon="5.8213">
        <ele>678.99200439453</ele>
        <time>2013-06-30T10:17:24.999Z</time>
      </trkpt>
      <trkpt lat="46.65016" lon="5.82126">
        <ele>674.00885009766</ele>
        <time>2013-06-30T10:23:21.999Z</time>
      </trkpt>
      <trkpt lat="46.65021" lon="5.82121">
        <ele>673.97613525391</ele>
        <time>2013-06-30T10:23:23.999Z</time>
      </trkpt>
      <trkpt lat="46.65027" lon="5.82115">
        <ele>673.90802001953</ele>
        <time>2013-06-30T10:23:25.999Z</time>
      </trkpt>
      <trkpt lat="46.65036" lon="5.82109">
        <ele>672.74688720703</ele>
        <time>2013-06-30T10:23:27.999Z</time>
      </trkpt>
      <trkpt lat="46.65045" lon="5.82106">
        <ele>671.65075683594</ele>
        <time>2013-06-30T10:23:29.999Z</time>
      </trkpt>
      <trkpt lat="46.65054" lon="5.821">
        <ele>670.82934570312</ele>
        <time>2013-06-30T10:23:31.999Z</time>
      </trkpt>
      <trkpt lat="46.65063" lon="5.82091">
        <ele>669.89868164062</ele>
        <time>2013-06-30T10:23:33.999Z</time>
      </trkpt>
      <trkpt lat="46.65073" lon="5.82083">
        <ele>668.765625</ele>
        <time>2013-06-30T10:23:35.999Z</time>
      </trkpt>
      <trkpt lat="46.65085" lon="5.82076">
        <ele>667.81719970703</ele>
        <time>2013-06-30T10:23:37.999Z</time>
      </trkpt>
      <trkpt lat="46.65096" lon="5.8207">
        <ele>666.5927734375</ele>
        <time>2013-06-30T10:23:39.999Z</time>
      </trkpt>
      <trkpt lat="46.65109" lon="5.82065">
        <ele>666.21832275391</ele>
        <time>2013-06-30T10:23:41.999Z</time>
      </trkpt>
      <trkpt lat="46.65122" lon="5.82059">
        <ele>665.88128662109</ele>
        <time>2013-06-30T10:23:43.999Z</time>
      </trkpt>
      <trkpt lat="46.65134" lon="5.82054">
        <ele>664.82446289062</ele>
        <time>2013-06-30T10:23:45.999Z</time>
      </trkpt>
      <trkpt lat="46.65147" lon="5.82046">
        <ele>663.76953125</ele>
        <time>2013-06-30T10:23:47.999Z</time>
      </trkpt>
      <trkpt lat="46.6516" lon="5.82037">
        <ele>663.04406738281</ele>
        <time>2013-06-30T10:23:49.999Z</time>
      </trkpt>
      <trkpt lat="46.65172" lon="5.82027">
        <ele>662.88659667969</ele>
        <time>2013-06-30T10:23:51.999Z</time>
      </trkpt>
      <trkpt lat="46.65184" lon="5.82014">
        <ele>663.88848876953</ele>
        <time>2013-06-30T10:23:53.999Z</time>
      </trkpt>
      <trkpt lat="46.65198" lon="5.81998">
        <ele>665.33337402344</ele>
        <time>2013-06-30T10:23:55.999Z</time>
      </trkpt>
      <trkpt lat="46.65211" lon="5.81982">
        <ele>666.00274658203</ele>
        <time>2013-06-30T10:23:57.999Z</time>
      </trkpt>
      <trkpt lat="46.65227" lon="5.81966">
        <ele>666.06945800781</ele>
        <time>2013-06-30T10:23:59.999Z</time>
      </trkpt>
      <trkpt lat="46.65241" lon="5.81953">
        <ele>665.35223388672</ele>
        <time>2013-06-30T10:24:01.999Z</time>
      </trkpt>
      <trkpt lat="46.65257" lon="5.81939">
        <ele>664.63580322266</ele>
        <time>2013-06-30T10:24:03.999Z</time>
      </trkpt>
      <trkpt lat="46.65274" lon="5.81927">
        <ele>664.13323974609</ele>
        <time>2013-06-30T10:24:05.999Z</time>
      </trkpt>
      <trkpt lat="46.65291" lon="5.81917">
        <ele>662.30694580078</ele>
        <time>2013-06-30T10:24:07.999Z</time>
      </trkpt>
      <trkpt lat="46.6531" lon="5.81907">
        <ele>660.802734375</ele>
        <time>2013-06-30T10:24:09.999Z</time>
      </trkpt>
      <trkpt lat="46.65327" lon="5.81898">
        <ele>659.84265136719</ele>
        <time>2013-06-30T10:24:11.999Z</time>
      </trkpt>
      <trkpt lat="46.65345" lon="5.8189">
        <ele>658.76208496094</ele>
        <time>2013-06-30T10:24:13.999Z</time>
      </trkpt>
      <trkpt lat="46.6536" lon="5.81879">
        <ele>658.00659179688</ele>
        <time>2013-06-30T10:24:15.999Z</time>
      </trkpt>
      <trkpt lat="46.65374" lon="5.81865">
        <ele>657.47979736328</ele>
        <time>2013-06-30T10:24:17.999Z</time>
      </trkpt>
      <trkpt lat="46.65387" lon="5.81852">
        <ele>656.44787597656</ele>
        <time>2013-06-30T10:24:19.999Z</time>
      </trkpt>
      <trkpt lat="46.65399" lon="5.81842">
        <ele>655.13140869141</ele>
        <time>2013-06-30T10:24:21.999Z</time>
      </trkpt>
      <trkpt lat="46.65412" lon="5.81833">
        <ele>653.94494628906</ele>
        <time>2013-06-30T10:24:23.999Z</time>
      </trkpt>
      <trkpt lat="46.65423" lon="5.81827">
        <ele>653.04144287109</ele>
        <time>2013-06-30T10:24:25.999Z</time>
      </trkpt>
      <trkpt lat="46.65433" lon="5.81827">
        <ele>652.78485107422</ele>
        <time>2013-06-30T10:24:27.999Z</time>
      </trkpt>
      <trkpt lat="46.6544" lon="5.81827">
        <ele>652.80413818359</ele>
        <time>2013-06-30T10:24:29.999Z</time>
      </trkpt>
      <trkpt lat="46.65448" lon="5.81829">
        <ele>652.92260742188</ele>
        <time>2013-06-30T10:24:31.999Z</time>
      </trkpt>
      <trkpt lat="46.65453" lon="5.81831">
        <ele>653.21069335938</ele>
        <time>2013-06-30T10:24:33.999Z</time>
      </trkpt>
      <trkpt lat="46.65457" lon="5.8183">
        <ele>653.5322265625</ele>
        <time>2013-06-30T10:24:35.999Z</time>
      </trkpt>
      <trkpt lat="46.65462" lon="5.8183">
        <ele>653.82531738281</ele>
        <time>2013-06-30T10:24:37.999Z</time>
      </trkpt>
      <trkpt lat="46.65468" lon="5.81833">
        <ele>654.33612060547</ele>
        <time>2013-06-30T10:24:40.999Z</time>
      </trkpt>
      <trkpt lat="46.65471" lon="5.81838">
        <ele>654.84942626953</ele>
        <time>2013-06-30T10:24:42.999Z</time>
      </trkpt>
      <trkpt lat="46.65473" lon="5.81846">
        <ele>655.51947021484</ele>
        <time>2013-06-30T10:24:45.999Z</time>
      </trkpt>
      <trkpt lat="46.65473" lon="5.81853">
        <ele>656.12548828125</ele>
        <time>2013-06-30T10:24:48.999Z</time>
      </trkpt>
      <trkpt lat="46.65474" lon="5.81861">
        <ele>656.64715576172</ele>
        <time>2013-06-30T10:24:51.999Z</time>
      </trkpt>
      <trkpt lat="46.65477" lon="5.81868">
        <ele>657.11560058594</ele>
        <time>2013-06-30T10:24:54.999Z</time>
      </trkpt>
      <trkpt lat="46.65481" lon="5.81871">
        <ele>657.62603759766</ele>
        <time>2013-06-30T10:24:58.999Z</time>
      </trkpt>
      <trkpt lat="46.65487" lon="5.81868">
        <ele>658.08551025391</ele>
        <time>2013-06-30T10:25:01.999Z</time>
      </trkpt>
      <trkpt lat="46.65491" lon="5.81863">
        <ele>658.61968994141</ele>
        <time>2013-06-30T10:25:04.999Z</time>
      </trkpt>
      <trkpt lat="46.65495" lon="5.81857">
        <ele>659.02624511719</ele>
        <time>2013-06-30T10:25:06.999Z</time>
      </trkpt>
      <trkpt lat="46.65498" lon="5.8185">
        <ele>659.42309570312</ele>
        <time>2013-06-30T10:25:08.999Z</time>
      </trkpt>
      <trkpt lat="46.655" lon="5.81842">
        <ele>659.880859375</ele>
        <time>2013-06-30T10:25:10.999Z</time>
      </trkpt>
      <trkpt lat="46.65503" lon="5.81834">
        <ele>660.38909912109</ele>
        <time>2013-06-30T10:25:12.999Z</time>
      </trkpt>
      <trkpt lat="46.65506" lon="5.81826">
        <ele>660.91076660156</ele>
        <time>2013-06-30T10:25:14.999Z</time>
      </trkpt>
      <trkpt lat="46.65508" lon="5.81817">
        <ele>661.43762207031</ele>
        <time>2013-06-30T10:25:16.999Z</time>
      </trkpt>
      <trkpt lat="46.65511" lon="5.81807">
        <ele>661.84539794922</ele>
        <time>2013-06-30T10:25:18.999Z</time>
      </trkpt>
      <trkpt lat="46.65514" lon="5.818">
        <ele>662.02984619141</ele>
        <time>2013-06-30T10:25:20.999Z</time>
      </trkpt>
      <trkpt lat="46.65517" lon="5.81794">
        <ele>662.62860107422</ele>
        <time>2013-06-30T10:25:24.999Z</time>
      </trkpt>
      <trkpt lat="46.65522" lon="5.81789">
        <ele>663.0537109375</ele>
        <time>2013-06-30T10:25:27.999Z</time>
      </trkpt>
      <trkpt lat="46.65527" lon="5.81783">
        <ele>663.63848876953</ele>
        <time>2013-06-30T10:25:30.999Z</time>
      </trkpt>
      <trkpt lat="46.65531" lon="5.81777">
        <ele>664.11309814453</ele>
        <time>2013-06-30T10:25:33.999Z</time>
      </trkpt>
      <trkpt lat="46.65535" lon="5.81772">
        <ele>664.43957519531</ele>
        <time>2013-06-30T10:25:35.999Z</time>
      </trkpt>
      <trkpt lat="46.65539" lon="5.81767">
        <ele>664.95709228516</ele>
        <time>2013-06-30T10:25:37.999Z</time>
      </trkpt>
      <trkpt lat="46.65543" lon="5.8176">
        <ele>665.44281005859</ele>
        <time>2013-06-30T10:25:39.999Z</time>
      </trkpt>
      <trkpt lat="46.65547" lon="5.81754">
        <ele>666.02410888672</ele>
        <time>2013-06-30T10:25:41.999Z</time>
      </trkpt>
      <trkpt lat="46.6555" lon="5.81746">
        <ele>666.55084228516</ele>
        <time>2013-06-30T10:25:43.999Z</time>
      </trkpt>
      <trkpt lat="46.65552" lon="5.81739">
        <ele>667.16687011719</ele>
        <time>2013-06-30T10:25:45.999Z</time>
      </trkpt>
      <trkpt lat="46.65554" lon="5.81732">
        <ele>667.82141113281</ele>
        <time>2013-06-30T10:25:47.999Z</time>
      </trkpt>
      <trkpt lat="46.65556" lon="5.81724">
        <ele>668.36694335938</ele>
        <time>2013-06-30T10:25:49.999Z</time>
      </trkpt>
      <trkpt lat="46.65558" lon="5.81716">
        <ele>668.81750488281</ele>
        <time>2013-06-30T10:25:51.999Z</time>
      </trkpt>
      <trkpt lat="46.6556" lon="5.81708">
        <ele>669.20855712891</ele>
        <time>2013-06-30T10:25:53.999Z</time>
      </trkpt>
      <trkpt lat="46.65561" lon="5.817">
        <ele>669.63250732422</ele>
        <time>2013-06-30T10:25:55.999Z</time>
      </trkpt>
      <trkpt lat="46.65563" lon="5.81693">
        <ele>670.0615234375</ele>
        <time>2013-06-30T10:25:57.999Z</time>
      </trkpt>
      <trkpt lat="46.65565" lon="5.81685">
        <ele>670.30792236328</ele>
        <time>2013-06-30T10:25:59.999Z</time>
      </trkpt>
      <trkpt lat="46.65567" lon="5.81677">
        <ele>670.51873779297</ele>
        <time>2013-06-30T10:26:02.999Z</time>
      </trkpt>
      <trkpt lat="46.65569" lon="5.8167">
        <ele>670.75329589844</ele>
        <time>2013-06-30T10:26:04.999Z</time>
      </trkpt>
      <trkpt lat="46.65571" lon="5.81663">
        <ele>670.96026611328</ele>
        <time>2013-06-30T10:26:06.999Z</time>
      </trkpt>
      <trkpt lat="46.65575" lon="5.81656">
        <ele>671.38140869141</ele>
        <time>2013-06-30T10:26:09.999Z</time>
      </trkpt>
      <trkpt lat="46.65579" lon="5.81651">
        <ele>671.78369140625</ele>
        <time>2013-06-30T10:26:11.999Z</time>
      </trkpt>
      <trkpt lat="46.65585" lon="5.81645">
        <ele>672.51666259766</ele>
        <time>2013-06-30T10:26:15.999Z</time>
      </trkpt>
      <trkpt lat="46.65591" lon="5.81641">
        <ele>672.75549316406</ele>
        <time>2013-06-30T10:26:17.999Z</time>
      </trkpt>
      <trkpt lat="46.65596" lon="5.81638">
        <ele>672.89892578125</ele>
        <time>2013-06-30T10:26:19.999Z</time>
      </trkpt>
      <trkpt lat="46.65603" lon="5.81634">
        <ele>673.13635253906</ele>
        <time>2013-06-30T10:26:22.999Z</time>
      </trkpt>
      <trkpt lat="46.65608" lon="5.81634">
        <ele>673.35968017578</ele>
        <time>2013-06-30T10:26:24.999Z</time>
      </trkpt>
      <trkpt lat="46.65613" lon="5.81635">
        <ele>673.72991943359</ele>
        <time>2013-06-30T10:26:26.999Z</time>
      </trkpt>
      <trkpt lat="46.65618" lon="5.81637">
        <ele>674.10815429688</ele>
        <time>2013-06-30T10:26:29.999Z</time>
      </trkpt>
      <trkpt lat="46.65622" lon="5.81641">
        <ele>674.35827636719</ele>
        <time>2013-06-30T10:26:32.999Z</time>
      </trkpt>
      <trkpt lat="46.65629" lon="5.81645">
        <ele>674.68371582031</ele>
        <time>2013-06-30T10:26:35.999Z</time>
      </trkpt>
      <trkpt lat="46.65638" lon="5.81649">
        <ele>675.04724121094</ele>
        <time>2013-06-30T10:26:41.999Z</time>
      </trkpt>
      <trkpt lat="46.65643" lon="5.81652">
        <ele>675.18292236328</ele>
        <time>2013-06-30T10:26:43.999Z</time>
      </trkpt>
      <trkpt lat="46.65649" lon="5.81654">
        <ele>675.87811279297</ele>
        <time>2013-06-30T10:26:48.999Z</time>
      </trkpt>
      <trkpt lat="46.65656" lon="5.81656">
        <ele>676.67706298828</ele>
        <time>2013-06-30T10:27:01.999Z</time>
      </trkpt>
      <trkpt lat="46.65661" lon="5.81656">
        <ele>677.48223876953</ele>
        <time>2013-06-30T10:27:06.999Z</time>
      </trkpt>
      <trkpt lat="46.65667" lon="5.81652">
        <ele>678.33245849609</ele>
        <time>2013-06-30T10:27:14.999Z</time>
      </trkpt>
      <trkpt lat="46.65672" lon="5.81648">
        <ele>679.02526855469</ele>
        <time>2013-06-30T10:27:21.999Z</time>
      </trkpt>
      <trkpt lat="46.65683" lon="5.81641">
        <ele>679.88793945312</ele>
        <time>2013-06-30T10:27:27.999Z</time>
      </trkpt>
      <trkpt lat="46.65688" lon="5.81636">
        <ele>680.46691894531</ele>
        <time>2013-06-30T10:27:30.999Z</time>
      </trkpt>
      <trkpt lat="46.65694" lon="5.81628">
        <ele>681.50860595703</ele>
        <time>2013-06-30T10:27:36.999Z</time>
      </trkpt>
      <trkpt lat="46.65697" lon="5.81623">
        <ele>682.18109130859</ele>
        <time>2013-06-30T10:27:39.999Z</time>
      </trkpt>
      <trkpt lat="46.65701" lon="5.81615">
        <ele>682.80249023438</ele>
        <time>2013-06-30T10:27:42.999Z</time>
      </trkpt>
      <trkpt lat="46.65707" lon="5.81601">
        <ele>683.63800048828</ele>
        <time>2013-06-30T10:27:50.999Z</time>
      </trkpt>
      <trkpt lat="46.65712" lon="5.81592">
        <ele>683.92504882812</ele>
        <time>2013-06-30T10:27:54.999Z</time>
      </trkpt>
      <trkpt lat="46.65716" lon="5.81588">
        <ele>684.189453125</ele>
        <time>2013-06-30T10:27:56.999Z</time>
      </trkpt>
      <trkpt lat="46.65721" lon="5.8158">
        <ele>684.63299560547</ele>
        <time>2013-06-30T10:28:02.999Z</time>
      </trkpt>
      <trkpt lat="46.65724" lon="5.81568">
        <ele>685.46374511719</ele>
        <time>2013-06-30T10:28:12.999Z</time>
      </trkpt>
      <trkpt lat="46.65727" lon="5.81557">
        <ele>686.09521484375</ele>
        <time>2013-06-30T10:28:17.999Z</time>
      </trkpt>
      <trkpt lat="46.65731" lon="5.81549">
        <ele>686.25231933594</ele>
        <time>2013-06-30T10:28:24.999Z</time>
      </trkpt>
      <trkpt lat="46.65735" lon="5.81543">
        <ele>686.35028076172</ele>
        <time>2013-06-30T10:28:29.999Z</time>
      </trkpt>
      <trkpt lat="46.65741" lon="5.81533">
        <ele>686.88366699219</ele>
        <time>2013-06-30T10:28:36.999Z</time>
      </trkpt>
      <trkpt lat="46.65746" lon="5.81528">
        <ele>687.01843261719</ele>
        <time>2013-06-30T10:28:40.999Z</time>
      </trkpt>
      <trkpt lat="46.65751" lon="5.81522">
        <ele>686.85028076172</ele>
        <time>2013-06-30T10:28:45.999Z</time>
      </trkpt>
      <trkpt lat="46.65757" lon="5.81516">
        <ele>686.75256347656</ele>
        <time>2013-06-30T10:28:49.999Z</time>
      </trkpt>
      <trkpt lat="46.65761" lon="5.81511">
        <ele>686.78887939453</ele>
        <time>2013-06-30T10:28:52.999Z</time>
      </trkpt>
      <trkpt lat="46.65765" lon="5.81507">
        <ele>686.70172119141</ele>
        <time>2013-06-30T10:28:54.999Z</time>
      </trkpt>
      <trkpt lat="46.65769" lon="5.81504">
        <ele>686.40545654297</ele>
        <time>2013-06-30T10:28:57.999Z</time>
      </trkpt>
      <trkpt lat="46.65776" lon="5.81499">
        <ele>686.54925537109</ele>
        <time>2013-06-30T10:29:04.999Z</time>
      </trkpt>
      <trkpt lat="46.65781" lon="5.81497">
        <ele>686.64703369141</ele>
        <time>2013-06-30T10:29:06.999Z</time>
      </trkpt>
      <trkpt lat="46.65787" lon="5.81494">
        <ele>686.84936523438</ele>
        <time>2013-06-30T10:29:09.999Z</time>
      </trkpt>
      <trkpt lat="46.65793" lon="5.81492">
        <ele>687.11065673828</ele>
        <time>2013-06-30T10:29:12.999Z</time>
      </trkpt>
      <trkpt lat="46.65798" lon="5.8149">
        <ele>687.82135009766</ele>
        <time>2013-06-30T10:29:16.999Z</time>
      </trkpt>
      <trkpt lat="46.65804" lon="5.81489">
        <ele>688.22155761719</ele>
        <time>2013-06-30T10:29:19.999Z</time>
      </trkpt>
      <trkpt lat="46.6581" lon="5.8149">
        <ele>688.69165039062</ele>
        <time>2013-06-30T10:29:22.999Z</time>
      </trkpt>
      <trkpt lat="46.65814" lon="5.81492">
        <ele>689.13641357422</ele>
        <time>2013-06-30T10:29:25.999Z</time>
      </trkpt>
      <trkpt lat="46.65819" lon="5.81494">
        <ele>689.49908447266</ele>
        <time>2013-06-30T10:29:28.999Z</time>
      </trkpt>
      <trkpt lat="46.65824" lon="5.81496">
        <ele>690.00634765625</ele>
        <time>2013-06-30T10:29:32.999Z</time>
      </trkpt>
      <trkpt lat="46.65828" lon="5.81495">
        <ele>690.32269287109</ele>
        <time>2013-06-30T10:29:35.999Z</time>
      </trkpt>
      <trkpt lat="46.65833" lon="5.81496">
        <ele>690.74749755859</ele>
        <time>2013-06-30T10:29:38.999Z</time>
      </trkpt>
      <trkpt lat="46.65837" lon="5.81497">
        <ele>691.16430664062</ele>
        <time>2013-06-30T10:29:41.999Z</time>
      </trkpt>
      <trkpt lat="46.65842" lon="5.815">
        <ele>691.6943359375</ele>
        <time>2013-06-30T10:29:45.999Z</time>
      </trkpt>
      <trkpt lat="46.65846" lon="5.81505">
        <ele>691.89013671875</ele>
        <time>2013-06-30T10:29:47.999Z</time>
      </trkpt>
      <trkpt lat="46.65851" lon="5.8151">
        <ele>692.11614990234</ele>
        <time>2013-06-30T10:29:49.999Z</time>
      </trkpt>
      <trkpt lat="46.65855" lon="5.81516">
        <ele>692.54486083984</ele>
        <time>2013-06-30T10:29:53.999Z</time>
      </trkpt>
      <trkpt lat="46.6586" lon="5.81516">
        <ele>692.55767822266</ele>
        <time>2013-06-30T10:29:55.999Z</time>
      </trkpt>
      <trkpt lat="46.65865" lon="5.81516">
        <ele>692.46801757812</ele>
        <time>2013-06-30T10:29:59.999Z</time>
      </trkpt>
      <trkpt lat="46.6587" lon="5.81514">
        <ele>692.63824462891</ele>
        <time>2013-06-30T10:30:03.999Z</time>
      </trkpt>
      <trkpt lat="46.65874" lon="5.81514">
        <ele>692.86669921875</ele>
        <time>2013-06-30T10:30:05.999Z</time>
      </trkpt>
      <trkpt lat="46.65882" lon="5.81516">
        <ele>692.736328125</ele>
        <time>2013-06-30T10:30:09.999Z</time>
      </trkpt>
      <trkpt lat="46.65886" lon="5.81519">
        <ele>692.72546386719</ele>
        <time>2013-06-30T10:30:12.999Z</time>
      </trkpt>
      <trkpt lat="46.65889" lon="5.81524">
        <ele>692.64300537109</ele>
        <time>2013-06-30T10:30:15.999Z</time>
      </trkpt>
      <trkpt lat="46.65893" lon="5.81528">
        <ele>692.82086181641</ele>
        <time>2013-06-30T10:30:19.999Z</time>
      </trkpt>
      <trkpt lat="46.65899" lon="5.81533">
        <ele>693.2734375</ele>
        <time>2013-06-30T10:30:22.999Z</time>
      </trkpt>
      <trkpt lat="46.65905" lon="5.81536">
        <ele>693.58996582031</ele>
        <time>2013-06-30T10:30:24.999Z</time>
      </trkpt>
      <trkpt lat="46.65913" lon="5.81542">
        <ele>693.83538818359</ele>
        <time>2013-06-30T10:30:26.999Z</time>
      </trkpt>
      <trkpt lat="46.65919" lon="5.81548">
        <ele>694.04479980469</ele>
        <time>2013-06-30T10:30:28.999Z</time>
      </trkpt>
      <trkpt lat="46.65923" lon="5.81553">
        <ele>694.20581054688</ele>
        <time>2013-06-30T10:30:30.999Z</time>
      </trkpt>
      <trkpt lat="46.65928" lon="5.81558">
        <ele>694.49603271484</ele>
        <time>2013-06-30T10:30:32.999Z</time>
      </trkpt>
      <trkpt lat="46.65934" lon="5.81563">
        <ele>694.73675537109</ele>
        <time>2013-06-30T10:30:34.999Z</time>
      </trkpt>
      <trkpt lat="46.65938" lon="5.81566">
        <ele>694.85101318359</ele>
        <time>2013-06-30T10:30:36.999Z</time>
      </trkpt>
      <trkpt lat="46.65942" lon="5.81569">
        <ele>694.87786865234</ele>
        <time>2013-06-30T10:30:38.999Z</time>
      </trkpt>
      <trkpt lat="46.65947" lon="5.81572">
        <ele>694.86126708984</ele>
        <time>2013-06-30T10:30:40.999Z</time>
      </trkpt>
      <trkpt lat="46.65952" lon="5.81576">
        <ele>694.96020507812</ele>
        <time>2013-06-30T10:30:42.999Z</time>
      </trkpt>
      <trkpt lat="46.65957" lon="5.81581">
        <ele>695.0380859375</ele>
        <time>2013-06-30T10:30:44.999Z</time>
      </trkpt>
      <trkpt lat="46.65963" lon="5.81585">
        <ele>695.05212402344</ele>
        <time>2013-06-30T10:30:46.999Z</time>
      </trkpt>
      <trkpt lat="46.65969" lon="5.81591">
        <ele>695.08483886719</ele>
        <time>2013-06-30T10:30:48.999Z</time>
      </trkpt>
      <trkpt lat="46.65976" lon="5.81595">
        <ele>695.01812744141</ele>
        <time>2013-06-30T10:30:50.999Z</time>
      </trkpt>
      <trkpt lat="46.65985" lon="5.81605">
        <ele>694.95483398438</ele>
        <time>2013-06-30T10:30:52.999Z</time>
      </trkpt>
      <trkpt lat="46.65991" lon="5.81613">
        <ele>694.94421386719</ele>
        <time>2013-06-30T10:30:54.999Z</time>
      </trkpt>
      <trkpt lat="46.65993" lon="5.81624">
        <ele>694.93798828125</ele>
        <time>2013-06-30T10:30:56.999Z</time>
      </trkpt>
      <trkpt lat="46.65992" lon="5.81637">
        <ele>694.78326416016</ele>
        <time>2013-06-30T10:30:58.999Z</time>
      </trkpt>
      <trkpt lat="46.6599" lon="5.81648">
        <ele>694.70642089844</ele>
        <time>2013-06-30T10:31:00.999Z</time>
      </trkpt>
      <trkpt lat="46.65988" lon="5.81655">
        <ele>694.57690429688</ele>
        <time>2013-06-30T10:31:02.999Z</time>
      </trkpt>
      <trkpt lat="46.65986" lon="5.81663">
        <ele>694.53015136719</ele>
        <time>2013-06-30T10:31:04.999Z</time>
      </trkpt>
      <trkpt lat="46.65987" lon="5.81669">
        <ele>694.53424072266</ele>
        <time>2013-06-30T10:31:07.999Z</time>
      </trkpt>
      <trkpt lat="46.65987" lon="5.81676">
        <ele>694.06909179688</ele>
        <time>2013-06-30T10:31:11.999Z</time>
      </trkpt>
      <trkpt lat="46.65983" lon="5.81682">
        <ele>693.92016601562</ele>
        <time>2013-06-30T10:31:19.999Z</time>
      </trkpt>
      <trkpt lat="46.6598" lon="5.81688">
        <ele>693.80786132812</ele>
        <time>2013-06-30T10:31:26.999Z</time>
      </trkpt>
      <trkpt lat="46.65975" lon="5.8169">
        <ele>693.06481933594</ele>
        <time>2013-06-30T10:31:35.999Z</time>
      </trkpt>
      <trkpt lat="46.6597" lon="5.81693">
        <ele>692.37994384766</ele>
        <time>2013-06-30T10:31:41.999Z</time>
      </trkpt>
      <trkpt lat="46.65965" lon="5.81696">
        <ele>692.27209472656</ele>
        <time>2013-06-30T10:31:46.999Z</time>
      </trkpt>
      <trkpt lat="46.65961" lon="5.81701">
        <ele>691.86560058594</ele>
        <time>2013-06-30T10:31:51.999Z</time>
      </trkpt>
      <trkpt lat="46.65957" lon="5.81707">
        <ele>691.55169677734</ele>
        <time>2013-06-30T10:31:56.999Z</time>
      </trkpt>
      <trkpt lat="46.65955" lon="5.81713">
        <ele>691.14093017578</ele>
        <time>2013-06-30T10:32:00.999Z</time>
      </trkpt>
      <trkpt lat="46.65953" lon="5.81719">
        <ele>690.76086425781</ele>
        <time>2013-06-30T10:32:06.999Z</time>
      </trkpt>
      <trkpt lat="46.65953" lon="5.81726">
        <ele>690.48120117188</ele>
        <time>2013-06-30T10:32:11.999Z</time>
      </trkpt>
      <trkpt lat="46.65953" lon="5.81733">
        <ele>689.83898925781</ele>
        <time>2013-06-30T10:32:18.999Z</time>
      </trkpt>
      <trkpt lat="46.65953" lon="5.8174">
        <ele>689.47290039062</ele>
        <time>2013-06-30T10:32:24.999Z</time>
      </trkpt>
      <trkpt lat="46.6595" lon="5.81747">
        <ele>688.98870849609</ele>
        <time>2013-06-30T10:32:30.999Z</time>
      </trkpt>
      <trkpt lat="46.65949" lon="5.81753">
        <ele>688.03912353516</ele>
        <time>2013-06-30T10:32:39.999Z</time>
      </trkpt>
      <trkpt lat="46.65951" lon="5.8176">
        <ele>686.8310546875</ele>
        <time>2013-06-30T10:32:47.999Z</time>
      </trkpt>
      <trkpt lat="46.65953" lon="5.81766">
        <ele>686.40216064453</ele>
        <time>2013-06-30T10:32:55.999Z</time>
      </trkpt>
      <trkpt lat="46.65954" lon="5.81772">
        <ele>686.18444824219</ele>
        <time>2013-06-30T10:33:12.999Z</time>
      </trkpt>
      <trkpt lat="46.65956" lon="5.81778">
        <ele>686.12915039062</ele>
        <time>2013-06-30T10:33:18.999Z</time>
      </trkpt>
      <trkpt lat="46.65959" lon="5.81783">
        <ele>686.05194091797</ele>
        <time>2013-06-30T10:33:27.999Z</time>
      </trkpt>
      <trkpt lat="46.65964" lon="5.81782">
        <ele>686.16241455078</ele>
        <time>2013-06-30T10:33:35.999Z</time>
      </trkpt>
      <trkpt lat="46.65961" lon="5.81787">
        <ele>687.01312255859</ele>
        <time>2013-06-30T10:33:50.999Z</time>
      </trkpt>
      <trkpt lat="46.65966" lon="5.81788">
        <ele>686.94750976562</ele>
        <time>2013-06-30T10:33:59.999Z</time>
      </trkpt>
      <trkpt lat="46.65972" lon="5.81786">
        <ele>686.91094970703</ele>
        <time>2013-06-30T10:34:01.999Z</time>
      </trkpt>
      <trkpt lat="46.65977" lon="5.81784">
        <ele>686.88934326172</ele>
        <time>2013-06-30T10:34:03.999Z</time>
      </trkpt>
      <trkpt lat="46.65982" lon="5.81783">
        <ele>687.01916503906</ele>
        <time>2013-06-30T10:34:06.999Z</time>
      </trkpt>
      <trkpt lat="46.65987" lon="5.81784">
        <ele>686.96154785156</ele>
        <time>2013-06-30T10:34:09.999Z</time>
      </trkpt>
      <trkpt lat="46.65993" lon="5.81785">
        <ele>686.47546386719</ele>
        <time>2013-06-30T10:34:12.999Z</time>
      </trkpt>
      <trkpt lat="46.65999" lon="5.81785">
        <ele>686.21008300781</ele>
        <time>2013-06-30T10:34:14.999Z</time>
      </trkpt>
      <trkpt lat="46.66006" lon="5.81785">
        <ele>685.87188720703</ele>
        <time>2013-06-30T10:34:16.999Z</time>
      </trkpt>
      <trkpt lat="46.66013" lon="5.81784">
        <ele>685.52606201172</ele>
        <time>2013-06-30T10:34:18.999Z</time>
      </trkpt>
      <trkpt lat="46.66018" lon="5.81782">
        <ele>685.11370849609</ele>
        <time>2013-06-30T10:34:20.999Z</time>
      </trkpt>
      <trkpt lat="46.66024" lon="5.81776">
        <ele>684.63043212891</ele>
        <time>2013-06-30T10:34:22.999Z</time>
      </trkpt>
      <trkpt lat="46.66029" lon="5.81773">
        <ele>684.22863769531</ele>
        <time>2013-06-30T10:34:24.999Z</time>
      </trkpt>
      <trkpt lat="46.66032" lon="5.81769">
        <ele>683.38189697266</ele>
        <time>2013-06-30T10:34:33.999Z</time>
      </trkpt>
      <trkpt lat="46.6604" lon="5.81767">
        <ele>683.14910888672</ele>
        <time>2013-06-30T10:34:36.999Z</time>
      </trkpt>
      <trkpt lat="46.66048" lon="5.81768">
        <ele>683.087890625</ele>
        <time>2013-06-30T10:34:38.999Z</time>
      </trkpt>
      <trkpt lat="46.66059" lon="5.81768">
        <ele>682.85827636719</ele>
        <time>2013-06-30T10:34:40.999Z</time>
      </trkpt>
      <trkpt lat="46.66069" lon="5.81767">
        <ele>682.64074707031</ele>
        <time>2013-06-30T10:34:42.999Z</time>
      </trkpt>
      <trkpt lat="46.66077" lon="5.81763">
        <ele>682.40185546875</ele>
        <time>2013-06-30T10:34:44.999Z</time>
      </trkpt>
      <trkpt lat="46.66084" lon="5.81757">
        <ele>682.04608154297</ele>
        <time>2013-06-30T10:34:46.999Z</time>
      </trkpt>
      <trkpt lat="46.66087" lon="5.81753">
        <ele>681.63348388672</ele>
        <time>2013-06-30T10:34:48.999Z</time>
      </trkpt>
      <trkpt lat="46.66091" lon="5.81749">
        <ele>681.13519287109</ele>
        <time>2013-06-30T10:34:50.999Z</time>
      </trkpt>
      <trkpt lat="46.66096" lon="5.81746">
        <ele>680.60864257812</ele>
        <time>2013-06-30T10:34:52.999Z</time>
      </trkpt>
      <trkpt lat="46.66101" lon="5.81741">
        <ele>679.96459960938</ele>
        <time>2013-06-30T10:34:54.999Z</time>
      </trkpt>
      <trkpt lat="46.66105" lon="5.81735">
        <ele>678.96813964844</ele>
        <time>2013-06-30T10:34:57.999Z</time>
      </trkpt>
      <trkpt lat="46.6611" lon="5.81729">
        <ele>677.97814941406</ele>
        <time>2013-06-30T10:34:59.999Z</time>
      </trkpt>
      <trkpt lat="46.66114" lon="5.81724">
        <ele>676.86975097656</ele>
        <time>2013-06-30T10:35:01.999Z</time>
      </trkpt>
      <trkpt lat="46.66119" lon="5.8172">
        <ele>675.7568359375</ele>
        <time>2013-06-30T10:35:03.999Z</time>
      </trkpt>
      <trkpt lat="46.66125" lon="5.81714">
        <ele>674.73522949219</ele>
        <time>2013-06-30T10:35:05.999Z</time>
      </trkpt>
      <trkpt lat="46.66132" lon="5.81704">
        <ele>673.80145263672</ele>
        <time>2013-06-30T10:35:07.999Z</time>
      </trkpt>
      <trkpt lat="46.66134" lon="5.81691">
        <ele>672.89117431641</ele>
        <time>2013-06-30T10:35:09.999Z</time>
      </trkpt>
      <trkpt lat="46.66134" lon="5.81676">
        <ele>667.88671875</ele>
        <time>2013-06-30T10:35:11.999Z</time>
      </trkpt>
      <trkpt lat="46.66131" lon="5.81662">
        <ele>660.49047851562</ele>
        <time>2013-06-30T10:35:13.999Z</time>
      </trkpt>
      <trkpt lat="46.66129" lon="5.81651">
        <ele>659.96356201172</ele>
        <time>2013-06-30T10:35:15.999Z</time>
      </trkpt>
      <trkpt lat="46.66127" lon="5.81638">
        <ele>659.56079101562</ele>
        <time>2013-06-30T10:35:17.999Z</time>
      </trkpt>
      <trkpt lat="46.66128" lon="5.81628">
        <ele>659.20739746094</ele>
        <time>2013-06-30T10:35:19.999Z</time>
      </trkpt>
      <trkpt lat="46.66132" lon="5.8162">
        <ele>659.00848388672</ele>
        <time>2013-06-30T10:35:21.999Z</time>
      </trkpt>
      <trkpt lat="46.66136" lon="5.81622">
        <ele>658.71099853516</ele>
        <time>2013-06-30T10:35:24.999Z</time>
      </trkpt>
      <trkpt lat="46.66142" lon="5.81628">
        <ele>658.41180419922</ele>
        <time>2013-06-30T10:35:26.999Z</time>
      </trkpt>
      <trkpt lat="46.66147" lon="5.81634">
        <ele>658.15350341797</ele>
        <time>2013-06-30T10:35:28.999Z</time>
      </trkpt>
      <trkpt lat="46.66151" lon="5.81634">
        <ele>655.63702392578</ele>
        <time>2013-06-30T10:35:50.999Z</time>
      </trkpt>
      <trkpt lat="46.66154" lon="5.81641">
        <ele>653.26892089844</ele>
        <time>2013-06-30T10:37:06.999Z</time>
      </trkpt>
      <trkpt lat="46.6616" lon="5.81642">
        <ele>652.69793701172</ele>
        <time>2013-06-30T10:37:09.999Z</time>
      </trkpt>
      <trkpt lat="46.66167" lon="5.81644">
        <ele>652.22650146484</ele>
        <time>2013-06-30T10:37:12.999Z</time>
      </trkpt>
      <trkpt lat="46.66173" lon="5.81645">
        <ele>652.02874755859</ele>
        <time>2013-06-30T10:37:14.999Z</time>
      </trkpt>
      <trkpt lat="46.66177" lon="5.81645">
        <ele>651.72778320312</ele>
        <time>2013-06-30T10:37:16.999Z</time>
      </trkpt>
      <trkpt lat="46.66183" lon="5.81645">
        <ele>651.25750732422</ele>
        <time>2013-06-30T10:37:18.999Z</time>
      </trkpt>
      <trkpt lat="46.66189" lon="5.81646">
        <ele>650.67370605469</ele>
        <time>2013-06-30T10:37:20.999Z</time>
      </trkpt>
      <trkpt lat="46.66196" lon="5.81648">
        <ele>650.20422363281</ele>
        <time>2013-06-30T10:37:22.999Z</time>
      </trkpt>
      <trkpt lat="46.66202" lon="5.81649">
        <ele>649.88592529297</ele>
        <time>2013-06-30T10:37:24.999Z</time>
      </trkpt>
      <trkpt lat="46.66208" lon="5.81651">
        <ele>649.68438720703</ele>
        <time>2013-06-30T10:37:26.999Z</time>
      </trkpt>
      <trkpt lat="46.66213" lon="5.81652">
        <ele>649.38989257812</ele>
        <time>2013-06-30T10:37:28.999Z</time>
      </trkpt>
      <trkpt lat="46.66219" lon="5.81653">
        <ele>648.84808349609</ele>
        <time>2013-06-30T10:37:31.999Z</time>
      </trkpt>
      <trkpt lat="46.66226" lon="5.81655">
        <ele>648.52752685547</ele>
        <time>2013-06-30T10:37:33.999Z</time>
      </trkpt>
      <trkpt lat="46.66237" lon="5.81657">
        <ele>648.29748535156</ele>
        <time>2013-06-30T10:37:35.999Z</time>
      </trkpt>
      <trkpt lat="46.6625" lon="5.8166">
        <ele>648.09088134766</ele>
        <time>2013-06-30T10:37:37.999Z</time>
      </trkpt>
      <trkpt lat="46.66261" lon="5.81665">
        <ele>647.87139892578</ele>
        <time>2013-06-30T10:37:39.999Z</time>
      </trkpt>
      <trkpt lat="46.6627" lon="5.81669">
        <ele>647.64251708984</ele>
        <time>2013-06-30T10:37:41.999Z</time>
      </trkpt>
      <trkpt lat="46.66276" lon="5.8167">
        <ele>647.36804199219</ele>
        <time>2013-06-30T10:37:43.999Z</time>
      </trkpt>
      <trkpt lat="46.6628" lon="5.81668">
        <ele>647.13134765625</ele>
        <time>2013-06-30T10:37:45.999Z</time>
      </trkpt>
      <trkpt lat="46.66286" lon="5.81664">
        <ele>646.97778320312</ele>
        <time>2013-06-30T10:37:47.999Z</time>
      </trkpt>
      <trkpt lat="46.66291" lon="5.8166">
        <ele>646.97503662109</ele>
        <time>2013-06-30T10:37:49.999Z</time>
      </trkpt>
      <trkpt lat="46.66296" lon="5.81655">
        <ele>647.05615234375</ele>
        <time>2013-06-30T10:37:51.999Z</time>
      </trkpt>
      <trkpt lat="46.66301" lon="5.8165">
        <ele>647.10052490234</ele>
        <time>2013-06-30T10:37:55.999Z</time>
      </trkpt>
      <trkpt lat="46.66306" lon="5.81648">
        <ele>646.68188476562</ele>
        <time>2013-06-30T10:38:02.999Z</time>
      </trkpt>
      <trkpt lat="46.66309" lon="5.81653">
        <ele>646.04901123047</ele>
        <time>2013-06-30T10:38:07.999Z</time>
      </trkpt>
      <trkpt lat="46.66311" lon="5.81658">
        <ele>646.01684570312</ele>
        <time>2013-06-30T10:38:09.999Z</time>
      </trkpt>
      <trkpt lat="46.66314" lon="5.81663">
        <ele>645.86730957031</ele>
        <time>2013-06-30T10:38:11.999Z</time>
      </trkpt>
      <trkpt lat="46.66318" lon="5.81669">
        <ele>645.67919921875</ele>
        <time>2013-06-30T10:38:13.999Z</time>
      </trkpt>
      <trkpt lat="46.66323" lon="5.81676">
        <ele>645.68432617188</ele>
        <time>2013-06-30T10:38:15.999Z</time>
      </trkpt>
      <trkpt lat="46.66327" lon="5.81684">
        <ele>645.77252197266</ele>
        <time>2013-06-30T10:38:17.999Z</time>
      </trkpt>
      <trkpt lat="46.66328" lon="5.81694">
        <ele>646.0009765625</ele>
        <time>2013-06-30T10:38:20.999Z</time>
      </trkpt>
      <trkpt lat="46.66328" lon="5.81703">
        <ele>646.19543457031</ele>
        <time>2013-06-30T10:38:24.999Z</time>
      </trkpt>
      <trkpt lat="46.66328" lon="5.81709">
        <ele>646.33270263672</ele>
        <time>2013-06-30T10:38:27.999Z</time>
      </trkpt>
      <trkpt lat="46.66327" lon="5.81719">
        <ele>646.54217529297</ele>
        <time>2013-06-30T10:38:30.999Z</time>
      </trkpt>
      <trkpt lat="46.66326" lon="5.81729">
        <ele>646.75323486328</ele>
        <time>2013-06-30T10:38:32.999Z</time>
      </trkpt>
      <trkpt lat="46.66328" lon="5.8174">
        <ele>646.92553710938</ele>
        <time>2013-06-30T10:38:34.999Z</time>
      </trkpt>
      <trkpt lat="46.66333" lon="5.81747">
        <ele>647.13989257812</ele>
        <time>2013-06-30T10:38:37.999Z</time>
      </trkpt>
      <trkpt lat="46.66336" lon="5.81753">
        <ele>647.10186767578</ele>
        <time>2013-06-30T10:38:40.999Z</time>
      </trkpt>
      <trkpt lat="46.66337" lon="5.8176">
        <ele>646.94250488281</ele>
        <time>2013-06-30T10:38:43.999Z</time>
      </trkpt>
      <trkpt lat="46.66336" lon="5.81768">
        <ele>646.91009521484</ele>
        <time>2013-06-30T10:38:46.999Z</time>
      </trkpt>
      <trkpt lat="46.66334" lon="5.81774">
        <ele>646.80444335938</ele>
        <time>2013-06-30T10:38:49.999Z</time>
      </trkpt>
      <trkpt lat="46.66331" lon="5.81782">
        <ele>646.6455078125</ele>
        <time>2013-06-30T10:38:52.999Z</time>
      </trkpt>
      <trkpt lat="46.66331" lon="5.8179">
        <ele>646.43511962891</ele>
        <time>2013-06-30T10:39:00.999Z</time>
      </trkpt>
      <trkpt lat="46.6633" lon="5.81795">
        <ele>646.67681884766</ele>
        <time>2013-06-30T10:39:11.999Z</time>
      </trkpt>
      <trkpt lat="46.66327" lon="5.81801">
        <ele>646.45043945312</ele>
        <time>2013-06-30T10:39:15.999Z</time>
      </trkpt>
      <trkpt lat="46.66322" lon="5.81803">
        <ele>646.29907226562</ele>
        <time>2013-06-30T10:39:21.999Z</time>
      </trkpt>
      <trkpt lat="46.6632" lon="5.81809">
        <ele>646.76586914062</ele>
        <time>2013-06-30T10:39:27.999Z</time>
      </trkpt>
      <trkpt lat="46.66319" lon="5.81816">
        <ele>646.93365478516</ele>
        <time>2013-06-30T10:39:31.999Z</time>
      </trkpt>
      <trkpt lat="46.66317" lon="5.81822">
        <ele>646.87005615234</ele>
        <time>2013-06-30T10:39:35.999Z</time>
      </trkpt>
      <trkpt lat="46.66315" lon="5.81828">
        <ele>646.49475097656</ele>
        <time>2013-06-30T10:39:39.999Z</time>
      </trkpt>
      <trkpt lat="46.66311" lon="5.81834">
        <ele>645.59204101562</ele>
        <time>2013-06-30T10:39:50.999Z</time>
      </trkpt>
      <trkpt lat="46.66313" lon="5.81841">
        <ele>645.01318359375</ele>
        <time>2013-06-30T10:39:58.999Z</time>
      </trkpt>
      <trkpt lat="46.66314" lon="5.81847">
        <ele>644.96282958984</ele>
        <time>2013-06-30T10:40:03.999Z</time>
      </trkpt>
      <trkpt lat="46.66315" lon="5.81855">
        <ele>644.89221191406</ele>
        <time>2013-06-30T10:40:08.999Z</time>
      </trkpt>
      <trkpt lat="46.66317" lon="5.81861">
        <ele>644.54321289062</ele>
        <time>2013-06-30T10:40:17.999Z</time>
      </trkpt>
      <trkpt lat="46.6632" lon="5.81867">
        <ele>643.99566650391</ele>
        <time>2013-06-30T10:40:28.999Z</time>
      </trkpt>
      <trkpt lat="46.66323" lon="5.81872">
        <ele>643.73321533203</ele>
        <time>2013-06-30T10:40:36.999Z</time>
      </trkpt>
      <trkpt lat="46.66326" lon="5.81877">
        <ele>643.29632568359</ele>
        <time>2013-06-30T10:40:41.999Z</time>
      </trkpt>
      <trkpt lat="46.66329" lon="5.81882">
        <ele>642.66528320312</ele>
        <time>2013-06-30T10:40:44.999Z</time>
      </trkpt>
      <trkpt lat="46.66331" lon="5.81888">
        <ele>642.21575927734</ele>
        <time>2013-06-30T10:40:47.999Z</time>
      </trkpt>
      <trkpt lat="46.66333" lon="5.81896">
        <ele>641.72332763672</ele>
        <time>2013-06-30T10:40:51.999Z</time>
      </trkpt>
      <trkpt lat="46.66335" lon="5.81904">
        <ele>641.23669433594</ele>
        <time>2013-06-30T10:40:56.999Z</time>
      </trkpt>
      <trkpt lat="46.66338" lon="5.8191">
        <ele>640.69946289062</ele>
        <time>2013-06-30T10:41:01.999Z</time>
      </trkpt>
      <trkpt lat="46.6634" lon="5.81916">
        <ele>640.25537109375</ele>
        <time>2013-06-30T10:41:07.999Z</time>
      </trkpt>
      <trkpt lat="46.66342" lon="5.81921">
        <ele>639.98419189453</ele>
        <time>2013-06-30T10:41:12.999Z</time>
      </trkpt>
      <trkpt lat="46.66346" lon="5.81926">
        <ele>639.82104492188</ele>
        <time>2013-06-30T10:41:14.999Z</time>
      </trkpt>
      <trkpt lat="46.66348" lon="5.81934">
        <ele>639.73162841797</ele>
        <time>2013-06-30T10:41:16.999Z</time>
      </trkpt>
      <trkpt lat="46.66349" lon="5.81941">
        <ele>639.67010498047</ele>
        <time>2013-06-30T10:41:18.999Z</time>
      </trkpt>
      <trkpt lat="46.66348" lon="5.8195">
        <ele>639.72570800781</ele>
        <time>2013-06-30T10:41:20.999Z</time>
      </trkpt>
      <trkpt lat="46.66349" lon="5.81959">
        <ele>639.74542236328</ele>
        <time>2013-06-30T10:41:22.999Z</time>
      </trkpt>
      <trkpt lat="46.66349" lon="5.81966">
        <ele>639.78875732422</ele>
        <time>2013-06-30T10:41:24.999Z</time>
      </trkpt>
      <trkpt lat="46.66347" lon="5.81974">
        <ele>639.83990478516</ele>
        <time>2013-06-30T10:41:27.999Z</time>
      </trkpt>
      <trkpt lat="46.66345" lon="5.81982">
        <ele>639.91455078125</ele>
        <time>2013-06-30T10:41:32.999Z</time>
      </trkpt>
      <trkpt lat="46.66347" lon="5.8199">
        <ele>639.94647216797</ele>
        <time>2013-06-30T10:41:35.999Z</time>
      </trkpt>
      <trkpt lat="46.66348" lon="5.81995">
        <ele>639.84246826172</ele>
        <time>2013-06-30T10:41:37.999Z</time>
      </trkpt>
      <trkpt lat="46.66348" lon="5.82003">
        <ele>639.58599853516</ele>
        <time>2013-06-30T10:41:39.999Z</time>
      </trkpt>
      <trkpt lat="46.66347" lon="5.82011">
        <ele>639.27813720703</ele>
        <time>2013-06-30T10:41:41.999Z</time>
      </trkpt>
      <trkpt lat="46.66346" lon="5.82019">
        <ele>638.96508789062</ele>
        <time>2013-06-30T10:41:43.999Z</time>
      </trkpt>
      <trkpt lat="46.66346" lon="5.82025">
        <ele>638.72271728516</ele>
        <time>2013-06-30T10:41:45.999Z</time>
      </trkpt>
      <trkpt lat="46.66343" lon="5.82035">
        <ele>638.578125</ele>
        <time>2013-06-30T10:41:48.999Z</time>
      </trkpt>
      <trkpt lat="46.66339" lon="5.82042">
        <ele>638.529296875</ele>
        <time>2013-06-30T10:41:51.999Z</time>
      </trkpt>
      <trkpt lat="46.66334" lon="5.82048">
        <ele>638.63073730469</ele>
        <time>2013-06-30T10:41:55.999Z</time>
      </trkpt>
      <trkpt lat="46.6633" lon="5.82054">
        <ele>639.22131347656</ele>
        <time>2013-06-30T10:42:03.999Z</time>
      </trkpt>
      <trkpt lat="46.66333" lon="5.82059">
        <ele>638.73486328125</ele>
        <time>2013-06-30T10:42:11.999Z</time>
      </trkpt>
      <trkpt lat="46.66336" lon="5.82065">
        <ele>638.68426513672</ele>
        <time>2013-06-30T10:42:14.999Z</time>
      </trkpt>
      <trkpt lat="46.66338" lon="5.82075">
        <ele>638.60583496094</ele>
        <time>2013-06-30T10:42:18.999Z</time>
      </trkpt>
      <trkpt lat="46.66341" lon="5.8208">
        <ele>638.69219970703</ele>
        <time>2013-06-30T10:42:21.999Z</time>
      </trkpt>
      <trkpt lat="46.66344" lon="5.82086">
        <ele>638.81121826172</ele>
        <time>2013-06-30T10:42:24.999Z</time>
      </trkpt>
      <trkpt lat="46.66346" lon="5.82096">
        <ele>638.68511962891</ele>
        <time>2013-06-30T10:42:27.999Z</time>
      </trkpt>
      <trkpt lat="46.66348" lon="5.82103">
        <ele>638.70330810547</ele>
        <time>2013-06-30T10:42:29.999Z</time>
      </trkpt>
      <trkpt lat="46.66351" lon="5.82108">
        <ele>638.74566650391</ele>
        <time>2013-06-30T10:42:31.999Z</time>
      </trkpt>
      <trkpt lat="46.66356" lon="5.82113">
        <ele>638.90081787109</ele>
        <time>2013-06-30T10:42:34.999Z</time>
      </trkpt>
      <trkpt lat="46.66359" lon="5.82118">
        <ele>638.98883056641</ele>
        <time>2013-06-30T10:42:36.999Z</time>
      </trkpt>
      <trkpt lat="46.66363" lon="5.82125">
        <ele>638.99700927734</ele>
        <time>2013-06-30T10:42:38.999Z</time>
      </trkpt>
      <trkpt lat="46.66366" lon="5.82132">
        <ele>639.05548095703</ele>
        <time>2013-06-30T10:42:41.999Z</time>
      </trkpt>
      <trkpt lat="46.66369" lon="5.82139">
        <ele>639.0400390625</ele>
        <time>2013-06-30T10:42:44.999Z</time>
      </trkpt>
      <trkpt lat="46.6637" lon="5.82145">
        <ele>638.99291992188</ele>
        <time>2013-06-30T10:42:46.999Z</time>
      </trkpt>
      <trkpt lat="46.66372" lon="5.82153">
        <ele>638.93841552734</ele>
        <time>2013-06-30T10:42:48.999Z</time>
      </trkpt>
      <trkpt lat="46.66375" lon="5.8216">
        <ele>639.01049804688</ele>
        <time>2013-06-30T10:42:51.999Z</time>
      </trkpt>
      <trkpt lat="46.66374" lon="5.82167">
        <ele>639.13110351562</ele>
        <time>2013-06-30T10:42:54.999Z</time>
      </trkpt>
      <trkpt lat="46.66372" lon="5.82174">
        <ele>639.25762939453</ele>
        <time>2013-06-30T10:42:57.999Z</time>
      </trkpt>
      <trkpt lat="46.6637" lon="5.82182">
        <ele>639.48754882812</ele>
        <time>2013-06-30T10:43:01.999Z</time>
      </trkpt>
      <trkpt lat="46.6637" lon="5.82188">
        <ele>639.57592773438</ele>
        <time>2013-06-30T10:43:05.999Z</time>
      </trkpt>
      <trkpt lat="46.66369" lon="5.82194">
        <ele>639.55120849609</ele>
        <time>2013-06-30T10:43:07.999Z</time>
      </trkpt>
      <trkpt lat="46.66368" lon="5.82204">
        <ele>639.1953125</ele>
        <time>2013-06-30T10:43:11.999Z</time>
      </trkpt>
      <trkpt lat="46.66369" lon="5.82212">
        <ele>638.83319091797</ele>
        <time>2013-06-30T10:43:14.999Z</time>
      </trkpt>
      <trkpt lat="46.6637" lon="5.82219">
        <ele>638.61828613281</ele>
        <time>2013-06-30T10:43:16.999Z</time>
      </trkpt>
      <trkpt lat="46.66371" lon="5.82227">
        <ele>638.43872070312</ele>
        <time>2013-06-30T10:43:18.999Z</time>
      </trkpt>
      <trkpt lat="46.66373" lon="5.82235">
        <ele>638.21936035156</ele>
        <time>2013-06-30T10:43:20.999Z</time>
      </trkpt>
      <trkpt lat="46.66374" lon="5.82245">
        <ele>638.08892822266</ele>
        <time>2013-06-30T10:43:22.999Z</time>
      </trkpt>
      <trkpt lat="46.66374" lon="5.82259">
        <ele>638.01416015625</ele>
        <time>2013-06-30T10:43:24.999Z</time>
      </trkpt>
      <trkpt lat="46.66373" lon="5.82271">
        <ele>637.93005371094</ele>
        <time>2013-06-30T10:43:26.999Z</time>
      </trkpt>
      <trkpt lat="46.66373" lon="5.82283">
        <ele>637.89721679688</ele>
        <time>2013-06-30T10:43:28.999Z</time>
      </trkpt>
      <trkpt lat="46.66373" lon="5.82294">
        <ele>637.89196777344</ele>
        <time>2013-06-30T10:43:30.999Z</time>
      </trkpt>
      <trkpt lat="46.66372" lon="5.82305">
        <ele>637.87237548828</ele>
        <time>2013-06-30T10:43:32.999Z</time>
      </trkpt>
      <trkpt lat="46.66372" lon="5.82318">
        <ele>637.54968261719</ele>
        <time>2013-06-30T10:43:34.999Z</time>
      </trkpt>
      <trkpt lat="46.66371" lon="5.8233">
        <ele>637.58135986328</ele>
        <time>2013-06-30T10:43:36.999Z</time>
      </trkpt>
      <trkpt lat="46.66371" lon="5.82341">
        <ele>637.62280273438</ele>
        <time>2013-06-30T10:43:38.999Z</time>
      </trkpt>
      <trkpt lat="46.66371" lon="5.82354">
        <ele>637.65216064453</ele>
        <time>2013-06-30T10:43:40.999Z</time>
      </trkpt>
      <trkpt lat="46.6637" lon="5.82369">
        <ele>637.55499267578</ele>
        <time>2013-06-30T10:43:42.999Z</time>
      </trkpt>
      <trkpt lat="46.6637" lon="5.82384">
        <ele>636.68566894531</ele>
        <time>2013-06-30T10:43:44.999Z</time>
      </trkpt>
      <trkpt lat="46.6637" lon="5.82398">
        <ele>636.99676513672</ele>
        <time>2013-06-30T10:43:46.999Z</time>
      </trkpt>
      <trkpt lat="46.66371" lon="5.82412">
        <ele>636.85766601562</ele>
        <time>2013-06-30T10:43:48.999Z</time>
      </trkpt>
      <trkpt lat="46.6637" lon="5.82428">
        <ele>636.78833007812</ele>
        <time>2013-06-30T10:43:50.999Z</time>
      </trkpt>
      <trkpt lat="46.66371" lon="5.82445">
        <ele>636.98828125</ele>
        <time>2013-06-30T10:43:52.999Z</time>
      </trkpt>
      <trkpt lat="46.66371" lon="5.82464">
        <ele>637.39239501953</ele>
        <time>2013-06-30T10:43:54.999Z</time>
      </trkpt>
      <trkpt lat="46.66372" lon="5.82481">
        <ele>637.40673828125</ele>
        <time>2013-06-30T10:43:56.999Z</time>
      </trkpt>
      <trkpt lat="46.66371" lon="5.82498">
        <ele>637.39685058594</ele>
        <time>2013-06-30T10:43:58.999Z</time>
      </trkpt>
      <trkpt lat="46.6637" lon="5.82515">
        <ele>637.341796875</ele>
        <time>2013-06-30T10:44:00.999Z</time>
      </trkpt>
      <trkpt lat="46.66366" lon="5.82533">
        <ele>637.91088867188</ele>
        <time>2013-06-30T10:44:02.999Z</time>
      </trkpt>
      <trkpt lat="46.66364" lon="5.82549">
        <ele>638.62261962891</ele>
        <time>2013-06-30T10:44:04.999Z</time>
      </trkpt>
      <trkpt lat="46.66363" lon="5.82565">
        <ele>638.67120361328</ele>
        <time>2013-06-30T10:44:06.999Z</time>
      </trkpt>
      <trkpt lat="46.66364" lon="5.82579">
        <ele>638.28735351562</ele>
        <time>2013-06-30T10:44:08.999Z</time>
      </trkpt>
      <trkpt lat="46.66364" lon="5.82592">
        <ele>637.99243164062</ele>
        <time>2013-06-30T10:44:10.999Z</time>
      </trkpt>
      <trkpt lat="46.66366" lon="5.82604">
        <ele>637.88977050781</ele>
        <time>2013-06-30T10:44:12.999Z</time>
      </trkpt>
      <trkpt lat="46.66371" lon="5.82612">
        <ele>637.69781494141</ele>
        <time>2013-06-30T10:44:15.999Z</time>
      </trkpt>
      <trkpt lat="46.66376" lon="5.82612">
        <ele>637.38372802734</ele>
        <time>2013-06-30T10:44:19.999Z</time>
      </trkpt>
      <trkpt lat="46.66381" lon="5.82605">
        <ele>637.20593261719</ele>
        <time>2013-06-30T10:44:21.999Z</time>
      </trkpt>
      <trkpt lat="46.66386" lon="5.82599">
        <ele>637.021484375</ele>
        <time>2013-06-30T10:44:23.999Z</time>
      </trkpt>
      <trkpt lat="46.66393" lon="5.82594">
        <ele>636.84112548828</ele>
        <time>2013-06-30T10:44:25.999Z</time>
      </trkpt>
      <trkpt lat="46.66399" lon="5.82589">
        <ele>636.68768310547</ele>
        <time>2013-06-30T10:44:27.999Z</time>
      </trkpt>
      <trkpt lat="46.66405" lon="5.82586">
        <ele>636.57049560547</ele>
        <time>2013-06-30T10:44:29.999Z</time>
      </trkpt>
      <trkpt lat="46.66411" lon="5.82584">
        <ele>636.51385498047</ele>
        <time>2013-06-30T10:44:31.999Z</time>
      </trkpt>
      <trkpt lat="46.66417" lon="5.82582">
        <ele>636.46978759766</ele>
        <time>2013-06-30T10:44:33.999Z</time>
      </trkpt>
      <trkpt lat="46.66423" lon="5.8258">
        <ele>636.45330810547</ele>
        <time>2013-06-30T10:44:35.999Z</time>
      </trkpt>
      <trkpt lat="46.6643" lon="5.82578">
        <ele>636.45141601562</ele>
        <time>2013-06-30T10:44:37.999Z</time>
      </trkpt>
      <trkpt lat="46.66435" lon="5.82577">
        <ele>636.40759277344</ele>
        <time>2013-06-30T10:44:39.999Z</time>
      </trkpt>
      <trkpt lat="46.6644" lon="5.82577">
        <ele>636.39337158203</ele>
        <time>2013-06-30T10:44:41.999Z</time>
      </trkpt>
      <trkpt lat="46.66447" lon="5.82577">
        <ele>636.30059814453</ele>
        <time>2013-06-30T10:44:43.999Z</time>
      </trkpt>
      <trkpt lat="46.66453" lon="5.82576">
        <ele>636.19293212891</ele>
        <time>2013-06-30T10:44:45.999Z</time>
      </trkpt>
      <trkpt lat="46.66459" lon="5.82576">
        <ele>636.11376953125</ele>
        <time>2013-06-30T10:44:47.999Z</time>
      </trkpt>
      <trkpt lat="46.66464" lon="5.82575">
        <ele>636.00732421875</ele>
        <time>2013-06-30T10:44:49.999Z</time>
      </trkpt>
      <trkpt lat="46.66471" lon="5.82574">
        <ele>635.93902587891</ele>
        <time>2013-06-30T10:44:51.999Z</time>
      </trkpt>
      <trkpt lat="46.66477" lon="5.82572">
        <ele>635.87896728516</ele>
        <time>2013-06-30T10:44:53.999Z</time>
      </trkpt>
      <trkpt lat="46.66484" lon="5.8257">
        <ele>635.90124511719</ele>
        <time>2013-06-30T10:44:55.999Z</time>
      </trkpt>
      <trkpt lat="46.66491" lon="5.82566">
        <ele>635.94494628906</ele>
        <time>2013-06-30T10:44:57.999Z</time>
      </trkpt>
      <trkpt lat="46.66498" lon="5.82563">
        <ele>636.05163574219</ele>
        <time>2013-06-30T10:44:59.999Z</time>
      </trkpt>
      <trkpt lat="46.66505" lon="5.82559">
        <ele>636.17132568359</ele>
        <time>2013-06-30T10:45:01.999Z</time>
      </trkpt>
      <trkpt lat="46.66511" lon="5.82556">
        <ele>636.30871582031</ele>
        <time>2013-06-30T10:45:03.999Z</time>
      </trkpt>
      <trkpt lat="46.66517" lon="5.82553">
        <ele>636.4541015625</ele>
        <time>2013-06-30T10:45:05.999Z</time>
      </trkpt>
      <trkpt lat="46.66523" lon="5.8255">
        <ele>636.59893798828</ele>
        <time>2013-06-30T10:45:07.999Z</time>
      </trkpt>
      <trkpt lat="46.66529" lon="5.82546">
        <ele>636.71502685547</ele>
        <time>2013-06-30T10:45:09.999Z</time>
      </trkpt>
      <trkpt lat="46.66535" lon="5.82541">
        <ele>636.81286621094</ele>
        <time>2013-06-30T10:45:11.999Z</time>
      </trkpt>
      <trkpt lat="46.66541" lon="5.82535">
        <ele>636.99993896484</ele>
        <time>2013-06-30T10:45:13.999Z</time>
      </trkpt>
      <trkpt lat="46.66547" lon="5.82529">
        <ele>637.32897949219</ele>
        <time>2013-06-30T10:45:15.999Z</time>
      </trkpt>
      <trkpt lat="46.66553" lon="5.82523">
        <ele>637.61242675781</ele>
        <time>2013-06-30T10:45:17.999Z</time>
      </trkpt>
      <trkpt lat="46.66558" lon="5.82519">
        <ele>637.90100097656</ele>
        <time>2013-06-30T10:45:19.999Z</time>
      </trkpt>
      <trkpt lat="46.66564" lon="5.82513">
        <ele>638.10516357422</ele>
        <time>2013-06-30T10:45:21.999Z</time>
      </trkpt>
      <trkpt lat="46.66569" lon="5.82508">
        <ele>638.29486083984</ele>
        <time>2013-06-30T10:45:23.999Z</time>
      </trkpt>
      <trkpt lat="46.66574" lon="5.82503">
        <ele>638.5419921875</ele>
        <time>2013-06-30T10:45:25.999Z</time>
      </trkpt>
      <trkpt lat="46.66578" lon="5.825">
        <ele>638.71606445312</ele>
        <time>2013-06-30T10:45:27.999Z</time>
      </trkpt>
      <trkpt lat="46.66584" lon="5.82497">
        <ele>638.86553955078</ele>
        <time>2013-06-30T10:45:29.999Z</time>
      </trkpt>
      <trkpt lat="46.6659" lon="5.82495">
        <ele>639.04302978516</ele>
        <time>2013-06-30T10:45:31.999Z</time>
      </trkpt>
      <trkpt lat="46.66597" lon="5.82493">
        <ele>639.27392578125</ele>
        <time>2013-06-30T10:45:33.999Z</time>
      </trkpt>
      <trkpt lat="46.66604" lon="5.82491">
        <ele>639.388671875</ele>
        <time>2013-06-30T10:45:35.999Z</time>
      </trkpt>
      <trkpt lat="46.66612" lon="5.82487">
        <ele>641.5654296875</ele>
        <time>2013-06-30T10:45:37.999Z</time>
      </trkpt>
      <trkpt lat="46.66622" lon="5.82481">
        <ele>643.19110107422</ele>
        <time>2013-06-30T10:45:39.999Z</time>
      </trkpt>
      <trkpt lat="46.66633" lon="5.82473">
        <ele>643.86798095703</ele>
        <time>2013-06-30T10:45:41.999Z</time>
      </trkpt>
      <trkpt lat="46.66642" lon="5.82465">
        <ele>643.82342529297</ele>
        <time>2013-06-30T10:45:43.999Z</time>
      </trkpt>
      <trkpt lat="46.66652" lon="5.82455">
        <ele>644.85290527344</ele>
        <time>2013-06-30T10:45:45.999Z</time>
      </trkpt>
      <trkpt lat="46.66662" lon="5.82444">
        <ele>645.41131591797</ele>
        <time>2013-06-30T10:45:47.999Z</time>
      </trkpt>
      <trkpt lat="46.66671" lon="5.82433">
        <ele>644.90179443359</ele>
        <time>2013-06-30T10:45:49.999Z</time>
      </trkpt>
      <trkpt lat="46.6668" lon="5.82423">
        <ele>644.01556396484</ele>
        <time>2013-06-30T10:45:51.999Z</time>
      </trkpt>
      <trkpt lat="46.66688" lon="5.82412">
        <ele>643.01824951172</ele>
        <time>2013-06-30T10:45:53.999Z</time>
      </trkpt>
      <trkpt lat="46.66697" lon="5.82402">
        <ele>643.5869140625</ele>
        <time>2013-06-30T10:45:55.999Z</time>
      </trkpt>
      <trkpt lat="46.66706" lon="5.82391">
        <ele>644.17102050781</ele>
        <time>2013-06-30T10:45:57.999Z</time>
      </trkpt>
      <trkpt lat="46.66715" lon="5.82382">
        <ele>644.3408203125</ele>
        <time>2013-06-30T10:45:59.999Z</time>
      </trkpt>
      <trkpt lat="46.66724" lon="5.82374">
        <ele>644.64361572266</ele>
        <time>2013-06-30T10:46:01.999Z</time>
      </trkpt>
      <trkpt lat="46.66734" lon="5.82365">
        <ele>644.25708007812</ele>
        <time>2013-06-30T10:46:03.999Z</time>
      </trkpt>
      <trkpt lat="46.66742" lon="5.82357">
        <ele>643.15716552734</ele>
        <time>2013-06-30T10:46:05.999Z</time>
      </trkpt>
      <trkpt lat="46.6675" lon="5.8235">
        <ele>642.53094482422</ele>
        <time>2013-06-30T10:46:07.999Z</time>
      </trkpt>
      <trkpt lat="46.66758" lon="5.82342">
        <ele>642.80688476562</ele>
        <time>2013-06-30T10:46:09.999Z</time>
      </trkpt>
      <trkpt lat="46.66765" lon="5.82332">
        <ele>642.93762207031</ele>
        <time>2013-06-30T10:46:11.999Z</time>
      </trkpt>
      <trkpt lat="46.66771" lon="5.82322">
        <ele>642.71630859375</ele>
        <time>2013-06-30T10:46:13.999Z</time>
      </trkpt>
      <trkpt lat="46.66776" lon="5.82312">
        <ele>642.48968505859</ele>
        <time>2013-06-30T10:46:15.999Z</time>
      </trkpt>
      <trkpt lat="46.66781" lon="5.82304">
        <ele>642.37109375</ele>
        <time>2013-06-30T10:46:17.999Z</time>
      </trkpt>
      <trkpt lat="46.66786" lon="5.82296">
        <ele>642.48974609375</ele>
        <time>2013-06-30T10:46:19.999Z</time>
      </trkpt>
      <trkpt lat="46.66785" lon="5.82284">
        <ele>642.72125244141</ele>
        <time>2013-06-30T10:46:21.999Z</time>
      </trkpt>
      <trkpt lat="46.66781" lon="5.82272">
        <ele>642.74792480469</ele>
        <time>2013-06-30T10:46:23.999Z</time>
      </trkpt>
      <trkpt lat="46.66777" lon="5.82259">
        <ele>642.82104492188</ele>
        <time>2013-06-30T10:46:25.999Z</time>
      </trkpt>
      <trkpt lat="46.66776" lon="5.82245">
        <ele>643.15814208984</ele>
        <time>2013-06-30T10:46:27.999Z</time>
      </trkpt>
      <trkpt lat="46.66775" lon="5.82232">
        <ele>644.38372802734</ele>
        <time>2013-06-30T10:46:29.999Z</time>
      </trkpt>
      <trkpt lat="46.66773" lon="5.82221">
        <ele>645.81677246094</ele>
        <time>2013-06-30T10:46:31.999Z</time>
      </trkpt>
      <trkpt lat="46.66769" lon="5.82206">
        <ele>646.27795410156</ele>
        <time>2013-06-30T10:46:33.999Z</time>
      </trkpt>
      <trkpt lat="46.66766" lon="5.82185">
        <ele>646.69879150391</ele>
        <time>2013-06-30T10:46:35.999Z</time>
      </trkpt>
      <trkpt lat="46.6677" lon="5.82161">
        <ele>646.96636962891</ele>
        <time>2013-06-30T10:46:37.999Z</time>
      </trkpt>
      <trkpt lat="46.66778" lon="5.82139">
        <ele>645.04760742188</ele>
        <time>2013-06-30T10:46:39.999Z</time>
      </trkpt>
      <trkpt lat="46.66786" lon="5.82117">
        <ele>641.47351074219</ele>
        <time>2013-06-30T10:46:41.999Z</time>
      </trkpt>
      <trkpt lat="46.66794" lon="5.82097">
        <ele>638.66644287109</ele>
        <time>2013-06-30T10:46:43.999Z</time>
      </trkpt>
      <trkpt lat="46.66802" lon="5.82077">
        <ele>637.21618652344</ele>
        <time>2013-06-30T10:46:45.999Z</time>
      </trkpt>
      <trkpt lat="46.66809" lon="5.82058">
        <ele>635.70886230469</ele>
        <time>2013-06-30T10:46:47.999Z</time>
      </trkpt>
      <trkpt lat="46.66811" lon="5.82037">
        <ele>634.86016845703</ele>
        <time>2013-06-30T10:46:49.999Z</time>
      </trkpt>
      <trkpt lat="46.6681" lon="5.82018">
        <ele>633.89172363281</ele>
        <time>2013-06-30T10:46:51.999Z</time>
      </trkpt>
      <trkpt lat="46.66806" lon="5.82005">
        <ele>632.96655273438</ele>
        <time>2013-06-30T10:46:53.999Z</time>
      </trkpt>
      <trkpt lat="46.66803" lon="5.81994">
        <ele>632.30523681641</ele>
        <time>2013-06-30T10:46:55.999Z</time>
      </trkpt>
      <trkpt lat="46.66799" lon="5.81982">
        <ele>632.15344238281</ele>
        <time>2013-06-30T10:46:57.999Z</time>
      </trkpt>
      <trkpt lat="46.66796" lon="5.81972">
        <ele>631.94940185547</ele>
        <time>2013-06-30T10:46:59.999Z</time>
      </trkpt>
      <trkpt lat="46.66793" lon="5.81961">
        <ele>631.71807861328</ele>
        <time>2013-06-30T10:47:01.999Z</time>
      </trkpt>
      <trkpt lat="46.66791" lon="5.81951">
        <ele>631.26391601562</ele>
        <time>2013-06-30T10:47:03.999Z</time>
      </trkpt>
      <trkpt lat="46.6679" lon="5.81941">
        <ele>630.892578125</ele>
        <time>2013-06-30T10:47:05.999Z</time>
      </trkpt>
      <trkpt lat="46.66788" lon="5.81929">
        <ele>630.66534423828</ele>
        <time>2013-06-30T10:47:07.999Z</time>
      </trkpt>
      <trkpt lat="46.66787" lon="5.81919">
        <ele>630.65814208984</ele>
        <time>2013-06-30T10:47:09.999Z</time>
      </trkpt>
      <trkpt lat="46.66788" lon="5.81912">
        <ele>630.73858642578</ele>
        <time>2013-06-30T10:47:11.999Z</time>
      </trkpt>
      <trkpt lat="46.66789" lon="5.81903">
        <ele>630.87200927734</ele>
        <time>2013-06-30T10:47:13.999Z</time>
      </trkpt>
      <trkpt lat="46.6679" lon="5.81892">
        <ele>631.07751464844</ele>
        <time>2013-06-30T10:47:15.999Z</time>
      </trkpt>
      <trkpt lat="46.6679" lon="5.81881">
        <ele>631.28747558594</ele>
        <time>2013-06-30T10:47:17.999Z</time>
      </trkpt>
      <trkpt lat="46.66791" lon="5.81871">
        <ele>631.38464355469</ele>
        <time>2013-06-30T10:47:19.999Z</time>
      </trkpt>
      <trkpt lat="46.66792" lon="5.81861">
        <ele>631.41870117188</ele>
        <time>2013-06-30T10:47:21.999Z</time>
      </trkpt>
      <trkpt lat="46.66793" lon="5.81853">
        <ele>631.42071533203</ele>
        <time>2013-06-30T10:47:23.999Z</time>
      </trkpt>
      <trkpt lat="46.66794" lon="5.81845">
        <ele>631.51037597656</ele>
        <time>2013-06-30T10:47:25.999Z</time>
      </trkpt>
      <trkpt lat="46.66795" lon="5.81838">
        <ele>631.55920410156</ele>
        <time>2013-06-30T10:47:27.999Z</time>
      </trkpt>
      <trkpt lat="46.66796" lon="5.8183">
        <ele>631.65759277344</ele>
        <time>2013-06-30T10:47:29.999Z</time>
      </trkpt>
      <trkpt lat="46.66799" lon="5.81822">
        <ele>631.93371582031</ele>
        <time>2013-06-30T10:47:32.999Z</time>
      </trkpt>
      <trkpt lat="46.66802" lon="5.81813">
        <ele>632.33062744141</ele>
        <time>2013-06-30T10:47:35.999Z</time>
      </trkpt>
      <trkpt lat="46.66804" lon="5.81806">
        <ele>632.90643310547</ele>
        <time>2013-06-30T10:47:38.999Z</time>
      </trkpt>
      <trkpt lat="46.66807" lon="5.81799">
        <ele>633.45953369141</ele>
        <time>2013-06-30T10:47:41.999Z</time>
      </trkpt>
      <trkpt lat="46.66809" lon="5.8179">
        <ele>633.98071289062</ele>
        <time>2013-06-30T10:47:44.999Z</time>
      </trkpt>
      <trkpt lat="46.66811" lon="5.81781">
        <ele>634.57232666016</ele>
        <time>2013-06-30T10:47:47.999Z</time>
      </trkpt>
      <trkpt lat="46.66811" lon="5.81776">
        <ele>635.15087890625</ele>
        <time>2013-06-30T10:47:49.999Z</time>
      </trkpt>
      <trkpt lat="46.66812" lon="5.81769">
        <ele>635.80487060547</ele>
        <time>2013-06-30T10:47:51.999Z</time>
      </trkpt>
      <trkpt lat="46.66813" lon="5.81761">
        <ele>636.44940185547</ele>
        <time>2013-06-30T10:47:53.999Z</time>
      </trkpt>
      <trkpt lat="46.66813" lon="5.81754">
        <ele>637.06427001953</ele>
        <time>2013-06-30T10:47:55.999Z</time>
      </trkpt>
      <trkpt lat="46.66813" lon="5.81746">
        <ele>637.68646240234</ele>
        <time>2013-06-30T10:47:57.999Z</time>
      </trkpt>
      <trkpt lat="46.66814" lon="5.81738">
        <ele>638.30279541016</ele>
        <time>2013-06-30T10:47:59.999Z</time>
      </trkpt>
      <trkpt lat="46.66815" lon="5.81729">
        <ele>638.82238769531</ele>
        <time>2013-06-30T10:48:01.999Z</time>
      </trkpt>
      <trkpt lat="46.66817" lon="5.81722">
        <ele>639.26831054688</ele>
        <time>2013-06-30T10:48:03.999Z</time>
      </trkpt>
      <trkpt lat="46.6682" lon="5.81714">
        <ele>639.66143798828</ele>
        <time>2013-06-30T10:48:05.999Z</time>
      </trkpt>
      <trkpt lat="46.66823" lon="5.81706">
        <ele>640.04962158203</ele>
        <time>2013-06-30T10:48:07.999Z</time>
      </trkpt>
      <trkpt lat="46.66826" lon="5.81698">
        <ele>640.39428710938</ele>
        <time>2013-06-30T10:48:09.999Z</time>
      </trkpt>
      <trkpt lat="46.6683" lon="5.81689">
        <ele>640.69036865234</ele>
        <time>2013-06-30T10:48:11.999Z</time>
      </trkpt>
      <trkpt lat="46.66835" lon="5.8168">
        <ele>640.94036865234</ele>
        <time>2013-06-30T10:48:13.999Z</time>
      </trkpt>
      <trkpt lat="46.6684" lon="5.81671">
        <ele>641.1279296875</ele>
        <time>2013-06-30T10:48:15.999Z</time>
      </trkpt>
      <trkpt lat="46.66846" lon="5.81663">
        <ele>642.31646728516</ele>
        <time>2013-06-30T10:48:17.999Z</time>
      </trkpt>
      <trkpt lat="46.66851" lon="5.81657">
        <ele>642.78967285156</ele>
        <time>2013-06-30T10:48:19.999Z</time>
      </trkpt>
      <trkpt lat="46.66857" lon="5.81648">
        <ele>643.80059814453</ele>
        <time>2013-06-30T10:48:21.999Z</time>
      </trkpt>
      <trkpt lat="46.66863" lon="5.81638">
        <ele>644.65270996094</ele>
        <time>2013-06-30T10:48:23.999Z</time>
      </trkpt>
      <trkpt lat="46.66869" lon="5.81631">
        <ele>646.15997314453</ele>
        <time>2013-06-30T10:48:25.999Z</time>
      </trkpt>
      <trkpt lat="46.66874" lon="5.81622">
        <ele>646.14807128906</ele>
        <time>2013-06-30T10:48:27.999Z</time>
      </trkpt>
      <trkpt lat="46.6688" lon="5.81613">
        <ele>646.52484130859</ele>
        <time>2013-06-30T10:48:29.999Z</time>
      </trkpt>
      <trkpt lat="46.66887" lon="5.81603">
        <ele>647.48944091797</ele>
        <time>2013-06-30T10:48:31.999Z</time>
      </trkpt>
      <trkpt lat="46.66893" lon="5.81594">
        <ele>648.22760009766</ele>
        <time>2013-06-30T10:48:33.999Z</time>
      </trkpt>
      <trkpt lat="46.669" lon="5.81584">
        <ele>649.42315673828</ele>
        <time>2013-06-30T10:48:35.999Z</time>
      </trkpt>
      <trkpt lat="46.66906" lon="5.81575">
        <ele>651.98822021484</ele>
        <time>2013-06-30T10:48:37.999Z</time>
      </trkpt>
      <trkpt lat="46.66912" lon="5.81566">
        <ele>655.12512207031</ele>
        <time>2013-06-30T10:48:39.999Z</time>
      </trkpt>
      <trkpt lat="46.66919" lon="5.81555">
        <ele>658.08776855469</ele>
        <time>2013-06-30T10:48:41.999Z</time>
      </trkpt>
      <trkpt lat="46.66925" lon="5.81543">
        <ele>659.90118408203</ele>
        <time>2013-06-30T10:48:43.999Z</time>
      </trkpt>
      <trkpt lat="46.66932" lon="5.81531">
        <ele>661.12225341797</ele>
        <time>2013-06-30T10:48:45.999Z</time>
      </trkpt>
      <trkpt lat="46.66937" lon="5.8152">
        <ele>661.97619628906</ele>
        <time>2013-06-30T10:48:47.999Z</time>
      </trkpt>
      <trkpt lat="46.66943" lon="5.8151">
        <ele>662.15899658203</ele>
        <time>2013-06-30T10:48:49.999Z</time>
      </trkpt>
      <trkpt lat="46.66948" lon="5.81501">
        <ele>661.85925292969</ele>
        <time>2013-06-30T10:48:51.999Z</time>
      </trkpt>
      <trkpt lat="46.66954" lon="5.81492">
        <ele>661.89605712891</ele>
        <time>2013-06-30T10:48:53.999Z</time>
      </trkpt>
      <trkpt lat="46.66956" lon="5.81484">
        <ele>661.89703369141</ele>
        <time>2013-06-30T10:48:55.999Z</time>
      </trkpt>
      <trkpt lat="46.66959" lon="5.81472">
        <ele>661.84356689453</ele>
        <time>2013-06-30T10:48:57.999Z</time>
      </trkpt>
      <trkpt lat="46.66962" lon="5.8146">
        <ele>661.72369384766</ele>
        <time>2013-06-30T10:48:59.999Z</time>
      </trkpt>
      <trkpt lat="46.66965" lon="5.81446">
        <ele>661.54064941406</ele>
        <time>2013-06-30T10:49:01.999Z</time>
      </trkpt>
      <trkpt lat="46.66969" lon="5.81431">
        <ele>661.29376220703</ele>
        <time>2013-06-30T10:49:03.999Z</time>
      </trkpt>
      <trkpt lat="46.66975" lon="5.81418">
        <ele>660.98205566406</ele>
        <time>2013-06-30T10:49:05.999Z</time>
      </trkpt>
      <trkpt lat="46.66978" lon="5.81412">
        <ele>660.69354248047</ele>
        <time>2013-06-30T10:49:07.999Z</time>
      </trkpt>
      <trkpt lat="46.66977" lon="5.81406">
        <ele>660.11303710938</ele>
        <time>2013-06-30T10:49:13.999Z</time>
      </trkpt>
      <trkpt lat="46.6698" lon="5.814">
        <ele>659.69512939453</ele>
        <time>2013-06-30T10:49:16.999Z</time>
      </trkpt>
      <trkpt lat="46.66981" lon="5.81392">
        <ele>659.05584716797</ele>
        <time>2013-06-30T10:49:20.999Z</time>
      </trkpt>
      <trkpt lat="46.6698" lon="5.81385">
        <ele>658.57653808594</ele>
        <time>2013-06-30T10:49:24.999Z</time>
      </trkpt>
      <trkpt lat="46.6698" lon="5.81377">
        <ele>658.1416015625</ele>
        <time>2013-06-30T10:49:29.999Z</time>
      </trkpt>
      <trkpt lat="46.66985" lon="5.81373">
        <ele>657.32873535156</ele>
        <time>2013-06-30T10:49:39.999Z</time>
      </trkpt>
      <trkpt lat="46.66989" lon="5.81377">
        <ele>654.17230224609</ele>
        <time>2013-06-30T10:51:15.999Z</time>
      </trkpt>
      <trkpt lat="46.66993" lon="5.81381">
        <ele>654.24603271484</ele>
        <time>2013-06-30T10:51:22.999Z</time>
      </trkpt>
      <trkpt lat="46.66999" lon="5.81385">
        <ele>654.2607421875</ele>
        <time>2013-06-30T10:51:31.999Z</time>
      </trkpt>
      <trkpt lat="46.67003" lon="5.81386">
        <ele>654.14111328125</ele>
        <time>2013-06-30T10:52:04.999Z</time>
      </trkpt>
      <trkpt lat="46.67" lon="5.81382">
        <ele>653.32025146484</ele>
        <time>2013-06-30T10:53:03.999Z</time>
      </trkpt>
      <trkpt lat="46.67005" lon="5.8138">
        <ele>653.10034179688</ele>
        <time>2013-06-30T10:53:36.999Z</time>
      </trkpt>
      <trkpt lat="46.67009" lon="5.81378">
        <ele>653.12091064453</ele>
        <time>2013-06-30T10:53:41.999Z</time>
      </trkpt>
      <trkpt lat="46.67004" lon="5.81378">
        <ele>653.43182373047</ele>
        <time>2013-06-30T10:53:55.999Z</time>
      </trkpt>
      <trkpt lat="46.66999" lon="5.81375">
        <ele>653.46618652344</ele>
        <time>2013-06-30T10:54:00.999Z</time>
      </trkpt>
      <trkpt lat="46.66996" lon="5.81371">
        <ele>653.95855712891</ele>
        <time>2013-06-30T10:54:09.999Z</time>
      </trkpt>
      <trkpt lat="46.66993" lon="5.81365">
        <ele>654.1474609375</ele>
        <time>2013-06-30T10:54:33.000Z</time>
      </trkpt>
      <trkpt lat="46.66996" lon="5.81371">
        <ele>654.42047119141</ele>
        <time>2013-06-30T10:54:40.000Z</time>
      </trkpt>
      <trkpt lat="46.67001" lon="5.81374">
        <ele>654.71209716797</ele>
        <time>2013-06-30T10:54:46.000Z</time>
      </trkpt>
      <trkpt lat="46.67006" lon="5.81374">
        <ele>654.59558105469</ele>
        <time>2013-06-30T10:54:49.000Z</time>
      </trkpt>
      <trkpt lat="46.6701" lon="5.81376">
        <ele>654.28253173828</ele>
        <time>2013-06-30T10:54:57.000Z</time>
      </trkpt>
      <trkpt lat="46.67005" lon="5.81374">
        <ele>653.75811767578</ele>
        <time>2013-06-30T10:55:46.000Z</time>
      </trkpt>
      <trkpt lat="46.67002" lon="5.8138">
        <ele>653.76306152344</ele>
        <time>2013-06-30T10:55:52.000Z</time>
      </trkpt>
      <trkpt lat="46.67003" lon="5.81386">
        <ele>653.90197753906</ele>
        <time>2013-06-30T10:56:14.000Z</time>
      </trkpt>
      <trkpt lat="46.67004" lon="5.81379">
        <ele>653.814453125</ele>
        <time>2013-06-30T10:57:02.000Z</time>
      </trkpt>
      <trkpt lat="46.67008" lon="5.81376">
        <ele>653.83160400391</ele>
        <time>2013-06-30T10:57:09.000Z</time>
      </trkpt>
      <trkpt lat="46.6701" lon="5.81367">
        <ele>654.70318603516</ele>
        <time>2013-06-30T10:57:18.000Z</time>
      </trkpt>
      <trkpt lat="46.6701" lon="5.81359">
        <ele>655.04510498047</ele>
        <time>2013-06-30T10:57:22.000Z</time>
      </trkpt>
      <trkpt lat="46.6701" lon="5.81352">
        <ele>655.57098388672</ele>
        <time>2013-06-30T10:57:27.000Z</time>
      </trkpt>
      <trkpt lat="46.67011" lon="5.81345">
        <ele>655.98419189453</ele>
        <time>2013-06-30T10:57:30.000Z</time>
      </trkpt>
      <trkpt lat="46.67014" lon="5.81338">
        <ele>656.22857666016</ele>
        <time>2013-06-30T10:57:33.000Z</time>
      </trkpt>
      <trkpt lat="46.67017" lon="5.81332">
        <ele>656.55725097656</ele>
        <time>2013-06-30T10:57:37.000Z</time>
      </trkpt>
      <trkpt lat="46.6702" lon="5.81326">
        <ele>656.84875488281</ele>
        <time>2013-06-30T10:57:41.000Z</time>
      </trkpt>
      <trkpt lat="46.67015" lon="5.81326">
        <ele>658.20397949219</ele>
        <time>2013-06-30T10:58:08.000Z</time>
      </trkpt>
      <trkpt lat="46.67013" lon="5.81333">
        <ele>659.57269287109</ele>
        <time>2013-06-30T10:58:27.000Z</time>
      </trkpt>
      <trkpt lat="46.67011" lon="5.81341">
        <ele>659.46252441406</ele>
        <time>2013-06-30T10:58:31.000Z</time>
      </trkpt>
      <trkpt lat="46.6701" lon="5.81349">
        <ele>659.23419189453</ele>
        <time>2013-06-30T10:58:35.000Z</time>
      </trkpt>
      <trkpt lat="46.6701" lon="5.81356">
        <ele>659.04455566406</ele>
        <time>2013-06-30T10:58:39.000Z</time>
      </trkpt>
      <trkpt lat="46.67009" lon="5.81363">
        <ele>658.8427734375</ele>
        <time>2013-06-30T10:58:43.000Z</time>
      </trkpt>
      <trkpt lat="46.6701" lon="5.8137">
        <ele>658.61462402344</ele>
        <time>2013-06-30T10:58:47.000Z</time>
      </trkpt>
      <trkpt lat="46.67008" lon="5.81376">
        <ele>656.88171386719</ele>
        <time>2013-06-30T10:59:34.000Z</time>
      </trkpt>
      <trkpt lat="46.67004" lon="5.81371">
        <ele>652.65893554688</ele>
        <time>2013-06-30T11:07:21.000Z</time>
      </trkpt>
      <trkpt lat="46.66999" lon="5.8137">
        <ele>652.73620605469</ele>
        <time>2013-06-30T11:07:29.000Z</time>
      </trkpt>
      <trkpt lat="46.66995" lon="5.81368">
        <ele>652.89880371094</ele>
        <time>2013-06-30T11:07:36.000Z</time>
      </trkpt>
      <trkpt lat="46.6699" lon="5.8137">
        <ele>652.66979980469</ele>
        <time>2013-06-30T11:07:42.000Z</time>
      </trkpt>
      <trkpt lat="46.66986" lon="5.81374">
        <ele>652.53894042969</ele>
        <time>2013-06-30T11:07:49.000Z</time>
      </trkpt>
      <trkpt lat="46.6699" lon="5.81379">
        <ele>652.21069335938</ele>
        <time>2013-06-30T11:11:31.000Z</time>
      </trkpt>
      <trkpt lat="46.66993" lon="5.81385">
        <ele>652.30987548828</ele>
        <time>2013-06-30T11:11:36.000Z</time>
      </trkpt>
      <trkpt lat="46.66995" lon="5.81393">
        <ele>652.39782714844</ele>
        <time>2013-06-30T11:11:42.000Z</time>
      </trkpt>
      <trkpt lat="46.66998" lon="5.81399">
        <ele>652.45318603516</ele>
        <time>2013-06-30T11:11:45.000Z</time>
      </trkpt>
      <trkpt lat="46.67002" lon="5.81404">
        <ele>652.51611328125</ele>
        <time>2013-06-30T11:11:48.000Z</time>
      </trkpt>
      <trkpt lat="46.67007" lon="5.81408">
        <ele>652.54095458984</ele>
        <time>2013-06-30T11:11:52.000Z</time>
      </trkpt>
      <trkpt lat="46.67012" lon="5.81405">
        <ele>652.78747558594</ele>
        <time>2013-06-30T11:11:57.000Z</time>
      </trkpt>
      <trkpt lat="46.67015" lon="5.81399">
        <ele>652.89605712891</ele>
        <time>2013-06-30T11:12:00.000Z</time>
      </trkpt>
      <trkpt lat="46.67018" lon="5.81393">
        <ele>653.00262451172</ele>
        <time>2013-06-30T11:12:04.000Z</time>
      </trkpt>
      <trkpt lat="46.67022" lon="5.81388">
        <ele>653.10986328125</ele>
        <time>2013-06-30T11:12:08.000Z</time>
      </trkpt>
      <trkpt lat="46.67026" lon="5.81384">
        <ele>653.02587890625</ele>
        <time>2013-06-30T11:12:12.000Z</time>
      </trkpt>
      <trkpt lat="46.67031" lon="5.81382">
        <ele>652.89154052734</ele>
        <time>2013-06-30T11:12:16.000Z</time>
      </trkpt>
      <trkpt lat="46.67034" lon="5.81378">
        <ele>652.70269775391</ele>
        <time>2013-06-30T11:12:33.000Z</time>
      </trkpt>
      <trkpt lat="46.67038" lon="5.81371">
        <ele>652.84875488281</ele>
        <time>2013-06-30T11:12:37.000Z</time>
      </trkpt>
      <trkpt lat="46.67042" lon="5.81365">
        <ele>653.10174560547</ele>
        <time>2013-06-30T11:12:39.000Z</time>
      </trkpt>
      <trkpt lat="46.67046" lon="5.81357">
        <ele>653.35241699219</ele>
        <time>2013-06-30T11:12:41.000Z</time>
      </trkpt>
      <trkpt lat="46.67052" lon="5.81349">
        <ele>653.55822753906</ele>
        <time>2013-06-30T11:12:43.000Z</time>
      </trkpt>
      <trkpt lat="46.67057" lon="5.81342">
        <ele>653.76434326172</ele>
        <time>2013-06-30T11:12:45.000Z</time>
      </trkpt>
      <trkpt lat="46.67062" lon="5.81333">
        <ele>653.97943115234</ele>
        <time>2013-06-30T11:12:47.000Z</time>
      </trkpt>
      <trkpt lat="46.67066" lon="5.81325">
        <ele>654.21197509766</ele>
        <time>2013-06-30T11:12:49.000Z</time>
      </trkpt>
      <trkpt lat="46.67071" lon="5.81318">
        <ele>654.42797851562</ele>
        <time>2013-06-30T11:12:51.000Z</time>
      </trkpt>
      <trkpt lat="46.67076" lon="5.81309">
        <ele>654.61169433594</ele>
        <time>2013-06-30T11:12:53.000Z</time>
      </trkpt>
      <trkpt lat="46.67081" lon="5.81297">
        <ele>654.74462890625</ele>
        <time>2013-06-30T11:12:55.000Z</time>
      </trkpt>
      <trkpt lat="46.67085" lon="5.81285">
        <ele>655.21026611328</ele>
        <time>2013-06-30T11:12:57.000Z</time>
      </trkpt>
      <trkpt lat="46.6709" lon="5.81273">
        <ele>654.22113037109</ele>
        <time>2013-06-30T11:12:59.000Z</time>
      </trkpt>
      <trkpt lat="46.67098" lon="5.81265">
        <ele>653.20770263672</ele>
        <time>2013-06-30T11:13:01.000Z</time>
      </trkpt>
      <trkpt lat="46.67109" lon="5.81258">
        <ele>652.46887207031</ele>
        <time>2013-06-30T11:13:03.000Z</time>
      </trkpt>
      <trkpt lat="46.6712" lon="5.81248">
        <ele>652.87542724609</ele>
        <time>2013-06-30T11:13:05.000Z</time>
      </trkpt>
      <trkpt lat="46.6713" lon="5.81239">
        <ele>653.78234863281</ele>
        <time>2013-06-30T11:13:07.000Z</time>
      </trkpt>
      <trkpt lat="46.67139" lon="5.81233">
        <ele>653.79113769531</ele>
        <time>2013-06-30T11:13:09.000Z</time>
      </trkpt>
      <trkpt lat="46.6715" lon="5.81227">
        <ele>653.16845703125</ele>
        <time>2013-06-30T11:13:11.000Z</time>
      </trkpt>
      <trkpt lat="46.67161" lon="5.81219">
        <ele>652.57495117188</ele>
        <time>2013-06-30T11:13:13.000Z</time>
      </trkpt>
      <trkpt lat="46.67174" lon="5.81207">
        <ele>652.35235595703</ele>
        <time>2013-06-30T11:13:15.000Z</time>
      </trkpt>
      <trkpt lat="46.67185" lon="5.81192">
        <ele>651.58129882812</ele>
        <time>2013-06-30T11:13:17.000Z</time>
      </trkpt>
      <trkpt lat="46.67193" lon="5.81177">
        <ele>650.78918457031</ele>
        <time>2013-06-30T11:13:19.000Z</time>
      </trkpt>
      <trkpt lat="46.672" lon="5.81164">
        <ele>650.26849365234</ele>
        <time>2013-06-30T11:13:21.000Z</time>
      </trkpt>
      <trkpt lat="46.67206" lon="5.81151">
        <ele>649.57830810547</ele>
        <time>2013-06-30T11:13:23.000Z</time>
      </trkpt>
      <trkpt lat="46.6721" lon="5.81138">
        <ele>649.82604980469</ele>
        <time>2013-06-30T11:13:25.000Z</time>
      </trkpt>
      <trkpt lat="46.67213" lon="5.81127">
        <ele>650.71136474609</ele>
        <time>2013-06-30T11:13:27.000Z</time>
      </trkpt>
      <trkpt lat="46.67217" lon="5.81114">
        <ele>650.57556152344</ele>
        <time>2013-06-30T11:13:29.000Z</time>
      </trkpt>
      <trkpt lat="46.67223" lon="5.81094">
        <ele>649.74987792969</ele>
        <time>2013-06-30T11:13:31.000Z</time>
      </trkpt>
      <trkpt lat="46.67231" lon="5.81073">
        <ele>648.36560058594</ele>
        <time>2013-06-30T11:13:33.000Z</time>
      </trkpt>
      <trkpt lat="46.67236" lon="5.81057">
        <ele>645.80535888672</ele>
        <time>2013-06-30T11:13:35.000Z</time>
      </trkpt>
      <trkpt lat="46.6724" lon="5.8104">
        <ele>643.92724609375</ele>
        <time>2013-06-30T11:13:37.000Z</time>
      </trkpt>
      <trkpt lat="46.67246" lon="5.81025">
        <ele>643.06329345703</ele>
        <time>2013-06-30T11:13:39.000Z</time>
      </trkpt>
      <trkpt lat="46.67251" lon="5.8101">
        <ele>642.61480712891</ele>
        <time>2013-06-30T11:13:41.000Z</time>
      </trkpt>
      <trkpt lat="46.67255" lon="5.80998">
        <ele>642.23773193359</ele>
        <time>2013-06-30T11:13:43.000Z</time>
      </trkpt>
      <trkpt lat="46.67259" lon="5.80987">
        <ele>641.68872070312</ele>
        <time>2013-06-30T11:13:45.000Z</time>
      </trkpt>
      <trkpt lat="46.67262" lon="5.80976">
        <ele>641.44012451172</ele>
        <time>2013-06-30T11:13:47.000Z</time>
      </trkpt>
      <trkpt lat="46.67266" lon="5.80966">
        <ele>641.29089355469</ele>
        <time>2013-06-30T11:13:49.000Z</time>
      </trkpt>
      <trkpt lat="46.67269" lon="5.80956">
        <ele>641.408203125</ele>
        <time>2013-06-30T11:13:51.000Z</time>
      </trkpt>
      <trkpt lat="46.67274" lon="5.80944">
        <ele>641.41510009766</ele>
        <time>2013-06-30T11:13:53.000Z</time>
      </trkpt>
      <trkpt lat="46.67277" lon="5.80933">
        <ele>641.74353027344</ele>
        <time>2013-06-30T11:13:55.000Z</time>
      </trkpt>
      <trkpt lat="46.67279" lon="5.80921">
        <ele>641.99072265625</ele>
        <time>2013-06-30T11:13:57.000Z</time>
      </trkpt>
      <trkpt lat="46.67281" lon="5.80909">
        <ele>642.43542480469</ele>
        <time>2013-06-30T11:13:59.000Z</time>
      </trkpt>
      <trkpt lat="46.67281" lon="5.80897">
        <ele>643.31256103516</ele>
        <time>2013-06-30T11:14:01.000Z</time>
      </trkpt>
      <trkpt lat="46.67281" lon="5.80887">
        <ele>643.61981201172</ele>
        <time>2013-06-30T11:14:03.000Z</time>
      </trkpt>
      <trkpt lat="46.67281" lon="5.80875">
        <ele>643.80181884766</ele>
        <time>2013-06-30T11:14:05.000Z</time>
      </trkpt>
      <trkpt lat="46.67281" lon="5.80863">
        <ele>644.04626464844</ele>
        <time>2013-06-30T11:14:07.000Z</time>
      </trkpt>
      <trkpt lat="46.67282" lon="5.80851">
        <ele>644.92657470703</ele>
        <time>2013-06-30T11:14:09.000Z</time>
      </trkpt>
      <trkpt lat="46.67284" lon="5.80837">
        <ele>645.14807128906</ele>
        <time>2013-06-30T11:14:11.000Z</time>
      </trkpt>
      <trkpt lat="46.67285" lon="5.80825">
        <ele>645.04626464844</ele>
        <time>2013-06-30T11:14:13.000Z</time>
      </trkpt>
      <trkpt lat="46.67288" lon="5.8081">
        <ele>644.47674560547</ele>
        <time>2013-06-30T11:14:15.000Z</time>
      </trkpt>
      <trkpt lat="46.67293" lon="5.80796">
        <ele>644.19451904297</ele>
        <time>2013-06-30T11:14:17.000Z</time>
      </trkpt>
      <trkpt lat="46.67298" lon="5.80785">
        <ele>644.53149414062</ele>
        <time>2013-06-30T11:14:19.000Z</time>
      </trkpt>
      <trkpt lat="46.67302" lon="5.80775">
        <ele>644.5966796875</ele>
        <time>2013-06-30T11:14:21.000Z</time>
      </trkpt>
      <trkpt lat="46.67307" lon="5.80765">
        <ele>645.32653808594</ele>
        <time>2013-06-30T11:14:23.000Z</time>
      </trkpt>
      <trkpt lat="46.67313" lon="5.80754">
        <ele>645.49200439453</ele>
        <time>2013-06-30T11:14:25.000Z</time>
      </trkpt>
      <trkpt lat="46.67319" lon="5.80743">
        <ele>644.76086425781</ele>
        <time>2013-06-30T11:14:27.000Z</time>
      </trkpt>
      <trkpt lat="46.67323" lon="5.8073">
        <ele>644.33349609375</ele>
        <time>2013-06-30T11:14:29.000Z</time>
      </trkpt>
      <trkpt lat="46.67325" lon="5.80719">
        <ele>643.94091796875</ele>
        <time>2013-06-30T11:14:31.000Z</time>
      </trkpt>
      <trkpt lat="46.67329" lon="5.80706">
        <ele>643.55358886719</ele>
        <time>2013-06-30T11:14:33.000Z</time>
      </trkpt>
      <trkpt lat="46.67334" lon="5.80694">
        <ele>643.29443359375</ele>
        <time>2013-06-30T11:14:35.000Z</time>
      </trkpt>
      <trkpt lat="46.6734" lon="5.80683">
        <ele>643.32476806641</ele>
        <time>2013-06-30T11:14:37.000Z</time>
      </trkpt>
      <trkpt lat="46.67346" lon="5.80673">
        <ele>644.65307617188</ele>
        <time>2013-06-30T11:14:39.000Z</time>
      </trkpt>
      <trkpt lat="46.67351" lon="5.80663">
        <ele>646.26348876953</ele>
        <time>2013-06-30T11:14:41.000Z</time>
      </trkpt>
      <trkpt lat="46.67354" lon="5.8065">
        <ele>647.04016113281</ele>
        <time>2013-06-30T11:14:43.000Z</time>
      </trkpt>
      <trkpt lat="46.67357" lon="5.80637">
        <ele>647.08276367188</ele>
        <time>2013-06-30T11:14:45.000Z</time>
      </trkpt>
      <trkpt lat="46.67361" lon="5.80625">
        <ele>646.53894042969</ele>
        <time>2013-06-30T11:14:47.000Z</time>
      </trkpt>
      <trkpt lat="46.67367" lon="5.80619">
        <ele>646.49261474609</ele>
        <time>2013-06-30T11:14:49.000Z</time>
      </trkpt>
      <trkpt lat="46.67373" lon="5.80619">
        <ele>646.40716552734</ele>
        <time>2013-06-30T11:14:51.000Z</time>
      </trkpt>
      <trkpt lat="46.67379" lon="5.80622">
        <ele>646.34930419922</ele>
        <time>2013-06-30T11:14:53.000Z</time>
      </trkpt>
      <trkpt lat="46.67384" lon="5.80627">
        <ele>646.36462402344</ele>
        <time>2013-06-30T11:14:55.000Z</time>
      </trkpt>
      <trkpt lat="46.6739" lon="5.80632">
        <ele>646.37377929688</ele>
        <time>2013-06-30T11:14:57.000Z</time>
      </trkpt>
      <trkpt lat="46.67395" lon="5.80636">
        <ele>646.37841796875</ele>
        <time>2013-06-30T11:14:59.000Z</time>
      </trkpt>
      <trkpt lat="46.674" lon="5.80639">
        <ele>646.45654296875</ele>
        <time>2013-06-30T11:15:01.000Z</time>
      </trkpt>
      <trkpt lat="46.67406" lon="5.80642">
        <ele>646.60681152344</ele>
        <time>2013-06-30T11:15:03.000Z</time>
      </trkpt>
      <trkpt lat="46.67412" lon="5.80644">
        <ele>646.79449462891</ele>
        <time>2013-06-30T11:15:05.000Z</time>
      </trkpt>
      <trkpt lat="46.67418" lon="5.80644">
        <ele>647.0146484375</ele>
        <time>2013-06-30T11:15:07.000Z</time>
      </trkpt>
      <trkpt lat="46.67423" lon="5.80643">
        <ele>647.31286621094</ele>
        <time>2013-06-30T11:15:09.000Z</time>
      </trkpt>
      <trkpt lat="46.67429" lon="5.80638">
        <ele>647.68890380859</ele>
        <time>2013-06-30T11:15:11.000Z</time>
      </trkpt>
      <trkpt lat="46.67434" lon="5.80633">
        <ele>648.01892089844</ele>
        <time>2013-06-30T11:15:13.000Z</time>
      </trkpt>
      <trkpt lat="46.67441" lon="5.80628">
        <ele>648.32940673828</ele>
        <time>2013-06-30T11:15:15.000Z</time>
      </trkpt>
      <trkpt lat="46.67448" lon="5.80623">
        <ele>648.66668701172</ele>
        <time>2013-06-30T11:15:17.000Z</time>
      </trkpt>
      <trkpt lat="46.67456" lon="5.80619">
        <ele>650.35729980469</ele>
        <time>2013-06-30T11:15:19.000Z</time>
      </trkpt>
      <trkpt lat="46.67465" lon="5.80616">
        <ele>651.83764648438</ele>
        <time>2013-06-30T11:15:21.000Z</time>
      </trkpt>
      <trkpt lat="46.67475" lon="5.80613">
        <ele>654.90020751953</ele>
        <time>2013-06-30T11:15:23.000Z</time>
      </trkpt>
      <trkpt lat="46.67484" lon="5.80608">
        <ele>656.54351806641</ele>
        <time>2013-06-30T11:15:25.000Z</time>
      </trkpt>
      <trkpt lat="46.67492" lon="5.80602">
        <ele>656.59613037109</ele>
        <time>2013-06-30T11:15:27.000Z</time>
      </trkpt>
      <trkpt lat="46.675" lon="5.80595">
        <ele>657.02478027344</ele>
        <time>2013-06-30T11:15:29.000Z</time>
      </trkpt>
      <trkpt lat="46.67507" lon="5.80588">
        <ele>657.14251708984</ele>
        <time>2013-06-30T11:15:31.000Z</time>
      </trkpt>
      <trkpt lat="46.67514" lon="5.80583">
        <ele>657.18853759766</ele>
        <time>2013-06-30T11:15:33.000Z</time>
      </trkpt>
      <trkpt lat="46.6752" lon="5.80577">
        <ele>657.15966796875</ele>
        <time>2013-06-30T11:15:35.000Z</time>
      </trkpt>
      <trkpt lat="46.67527" lon="5.80572">
        <ele>657.16082763672</ele>
        <time>2013-06-30T11:15:37.000Z</time>
      </trkpt>
      <trkpt lat="46.67534" lon="5.80567">
        <ele>657.12585449219</ele>
        <time>2013-06-30T11:15:39.000Z</time>
      </trkpt>
      <trkpt lat="46.67541" lon="5.80561">
        <ele>657.03802490234</ele>
        <time>2013-06-30T11:15:41.000Z</time>
      </trkpt>
      <trkpt lat="46.67548" lon="5.80557">
        <ele>656.92034912109</ele>
        <time>2013-06-30T11:15:43.000Z</time>
      </trkpt>
      <trkpt lat="46.67554" lon="5.80554">
        <ele>656.86010742188</ele>
        <time>2013-06-30T11:15:45.000Z</time>
      </trkpt>
      <trkpt lat="46.67559" lon="5.80551">
        <ele>656.83911132812</ele>
        <time>2013-06-30T11:15:47.000Z</time>
      </trkpt>
      <trkpt lat="46.67565" lon="5.80547">
        <ele>656.80078125</ele>
        <time>2013-06-30T11:15:49.000Z</time>
      </trkpt>
      <trkpt lat="46.67571" lon="5.80544">
        <ele>656.75579833984</ele>
        <time>2013-06-30T11:15:51.000Z</time>
      </trkpt>
      <trkpt lat="46.67577" lon="5.80542">
        <ele>656.76214599609</ele>
        <time>2013-06-30T11:15:53.000Z</time>
      </trkpt>
      <trkpt lat="46.67584" lon="5.80541">
        <ele>656.83245849609</ele>
        <time>2013-06-30T11:15:55.000Z</time>
      </trkpt>
      <trkpt lat="46.67591" lon="5.8054">
        <ele>656.79022216797</ele>
        <time>2013-06-30T11:15:57.000Z</time>
      </trkpt>
      <trkpt lat="46.67597" lon="5.80539">
        <ele>656.79150390625</ele>
        <time>2013-06-30T11:15:59.000Z</time>
      </trkpt>
      <trkpt lat="46.67603" lon="5.80539">
        <ele>656.91143798828</ele>
        <time>2013-06-30T11:16:01.000Z</time>
      </trkpt>
      <trkpt lat="46.67609" lon="5.80538">
        <ele>657.05603027344</ele>
        <time>2013-06-30T11:16:03.000Z</time>
      </trkpt>
      <trkpt lat="46.67615" lon="5.80539">
        <ele>657.20465087891</ele>
        <time>2013-06-30T11:16:05.000Z</time>
      </trkpt>
      <trkpt lat="46.67621" lon="5.80539">
        <ele>657.32312011719</ele>
        <time>2013-06-30T11:16:07.000Z</time>
      </trkpt>
      <trkpt lat="46.67627" lon="5.8054">
        <ele>657.3662109375</ele>
        <time>2013-06-30T11:16:09.000Z</time>
      </trkpt>
      <trkpt lat="46.67634" lon="5.80539">
        <ele>657.31988525391</ele>
        <time>2013-06-30T11:16:11.000Z</time>
      </trkpt>
      <trkpt lat="46.67641" lon="5.80539">
        <ele>657.37902832031</ele>
        <time>2013-06-30T11:16:13.000Z</time>
      </trkpt>
      <trkpt lat="46.67647" lon="5.80539">
        <ele>657.38018798828</ele>
        <time>2013-06-30T11:16:15.000Z</time>
      </trkpt>
      <trkpt lat="46.67652" lon="5.80537">
        <ele>657.44512939453</ele>
        <time>2013-06-30T11:16:17.000Z</time>
      </trkpt>
      <trkpt lat="46.67659" lon="5.80532">
        <ele>657.60052490234</ele>
        <time>2013-06-30T11:16:19.000Z</time>
      </trkpt>
      <trkpt lat="46.67665" lon="5.80527">
        <ele>657.77014160156</ele>
        <time>2013-06-30T11:16:21.000Z</time>
      </trkpt>
      <trkpt lat="46.67671" lon="5.80524">
        <ele>658.02069091797</ele>
        <time>2013-06-30T11:16:23.000Z</time>
      </trkpt>
      <trkpt lat="46.67678" lon="5.80523">
        <ele>658.15997314453</ele>
        <time>2013-06-30T11:16:25.000Z</time>
      </trkpt>
      <trkpt lat="46.67685" lon="5.80522">
        <ele>658.20111083984</ele>
        <time>2013-06-30T11:16:27.000Z</time>
      </trkpt>
      <trkpt lat="46.67692" lon="5.8052">
        <ele>658.30798339844</ele>
        <time>2013-06-30T11:16:29.000Z</time>
      </trkpt>
      <trkpt lat="46.67698" lon="5.80518">
        <ele>658.45568847656</ele>
        <time>2013-06-30T11:16:31.000Z</time>
      </trkpt>
      <trkpt lat="46.67706" lon="5.80516">
        <ele>658.56683349609</ele>
        <time>2013-06-30T11:16:33.000Z</time>
      </trkpt>
      <trkpt lat="46.67713" lon="5.80514">
        <ele>659.44091796875</ele>
        <time>2013-06-30T11:16:35.000Z</time>
      </trkpt>
      <trkpt lat="46.67723" lon="5.80511">
        <ele>659.81384277344</ele>
        <time>2013-06-30T11:16:37.000Z</time>
      </trkpt>
      <trkpt lat="46.67733" lon="5.80508">
        <ele>658.65795898438</ele>
        <time>2013-06-30T11:16:39.000Z</time>
      </trkpt>
      <trkpt lat="46.67743" lon="5.80504">
        <ele>657.40246582031</ele>
        <time>2013-06-30T11:16:41.000Z</time>
      </trkpt>
      <trkpt lat="46.67752" lon="5.80499">
        <ele>657.21929931641</ele>
        <time>2013-06-30T11:16:43.000Z</time>
      </trkpt>
      <trkpt lat="46.6776" lon="5.80494">
        <ele>657.22570800781</ele>
        <time>2013-06-30T11:16:45.000Z</time>
      </trkpt>
      <trkpt lat="46.6777" lon="5.80488">
        <ele>657.21704101562</ele>
        <time>2013-06-30T11:16:47.000Z</time>
      </trkpt>
      <trkpt lat="46.67781" lon="5.80484">
        <ele>656.400390625</ele>
        <time>2013-06-30T11:16:49.000Z</time>
      </trkpt>
      <trkpt lat="46.67792" lon="5.80482">
        <ele>655.80029296875</ele>
        <time>2013-06-30T11:16:51.000Z</time>
      </trkpt>
      <trkpt lat="46.67803" lon="5.80486">
        <ele>655.57043457031</ele>
        <time>2013-06-30T11:16:53.000Z</time>
      </trkpt>
      <trkpt lat="46.67813" lon="5.80487">
        <ele>654.68298339844</ele>
        <time>2013-06-30T11:16:55.000Z</time>
      </trkpt>
      <trkpt lat="46.67826" lon="5.80482">
        <ele>654.14135742188</ele>
        <time>2013-06-30T11:16:57.000Z</time>
      </trkpt>
      <trkpt lat="46.67838" lon="5.80477">
        <ele>653.64184570312</ele>
        <time>2013-06-30T11:16:59.000Z</time>
      </trkpt>
      <trkpt lat="46.67846" lon="5.80481">
        <ele>653.49694824219</ele>
        <time>2013-06-30T11:17:01.000Z</time>
      </trkpt>
      <trkpt lat="46.6785" lon="5.80489">
        <ele>653.39703369141</ele>
        <time>2013-06-30T11:17:03.000Z</time>
      </trkpt>
      <trkpt lat="46.67855" lon="5.80498">
        <ele>653.10205078125</ele>
        <time>2013-06-30T11:17:05.000Z</time>
      </trkpt>
      <trkpt lat="46.67857" lon="5.80511">
        <ele>652.96154785156</ele>
        <time>2013-06-30T11:17:07.000Z</time>
      </trkpt>
      <trkpt lat="46.67856" lon="5.80526">
        <ele>652.84014892578</ele>
        <time>2013-06-30T11:17:09.000Z</time>
      </trkpt>
      <trkpt lat="46.67855" lon="5.80542">
        <ele>652.74444580078</ele>
        <time>2013-06-30T11:17:11.000Z</time>
      </trkpt>
      <trkpt lat="46.67852" lon="5.80558">
        <ele>652.61785888672</ele>
        <time>2013-06-30T11:17:13.000Z</time>
      </trkpt>
      <trkpt lat="46.6785" lon="5.80569">
        <ele>652.64935302734</ele>
        <time>2013-06-30T11:17:15.000Z</time>
      </trkpt>
      <trkpt lat="46.67849" lon="5.80581">
        <ele>653.38677978516</ele>
        <time>2013-06-30T11:17:17.000Z</time>
      </trkpt>
      <trkpt lat="46.67847" lon="5.80596">
        <ele>654.36871337891</ele>
        <time>2013-06-30T11:17:19.000Z</time>
      </trkpt>
      <trkpt lat="46.67844" lon="5.80613">
        <ele>654.20068359375</ele>
        <time>2013-06-30T11:17:21.000Z</time>
      </trkpt>
      <trkpt lat="46.67842" lon="5.8063">
        <ele>653.36309814453</ele>
        <time>2013-06-30T11:17:23.000Z</time>
      </trkpt>
      <trkpt lat="46.67841" lon="5.80645">
        <ele>652.82751464844</ele>
        <time>2013-06-30T11:17:25.000Z</time>
      </trkpt>
      <trkpt lat="46.67838" lon="5.8066">
        <ele>651.80432128906</ele>
        <time>2013-06-30T11:17:27.000Z</time>
      </trkpt>
      <trkpt lat="46.67835" lon="5.80674">
        <ele>651.20965576172</ele>
        <time>2013-06-30T11:17:29.000Z</time>
      </trkpt>
      <trkpt lat="46.67833" lon="5.80688">
        <ele>651.01336669922</ele>
        <time>2013-06-30T11:17:31.000Z</time>
      </trkpt>
      <trkpt lat="46.67832" lon="5.80704">
        <ele>650.87139892578</ele>
        <time>2013-06-30T11:17:33.000Z</time>
      </trkpt>
      <trkpt lat="46.67832" lon="5.80721">
        <ele>651.17230224609</ele>
        <time>2013-06-30T11:17:35.000Z</time>
      </trkpt>
      <trkpt lat="46.67832" lon="5.80737">
        <ele>651.38330078125</ele>
        <time>2013-06-30T11:17:37.000Z</time>
      </trkpt>
      <trkpt lat="46.67833" lon="5.80756">
        <ele>651.21624755859</ele>
        <time>2013-06-30T11:17:39.000Z</time>
      </trkpt>
      <trkpt lat="46.67834" lon="5.80775">
        <ele>650.65203857422</ele>
        <time>2013-06-30T11:17:41.000Z</time>
      </trkpt>
      <trkpt lat="46.67835" lon="5.80795">
        <ele>650.23162841797</ele>
        <time>2013-06-30T11:17:43.000Z</time>
      </trkpt>
      <trkpt lat="46.67838" lon="5.80817">
        <ele>650.04461669922</ele>
        <time>2013-06-30T11:17:45.000Z</time>
      </trkpt>
      <trkpt lat="46.6784" lon="5.80839">
        <ele>649.19256591797</ele>
        <time>2013-06-30T11:17:47.000Z</time>
      </trkpt>
      <trkpt lat="46.67843" lon="5.80863">
        <ele>648.15075683594</ele>
        <time>2013-06-30T11:17:49.000Z</time>
      </trkpt>
      <trkpt lat="46.67846" lon="5.80887">
        <ele>646.36865234375</ele>
        <time>2013-06-30T11:17:51.000Z</time>
      </trkpt>
      <trkpt lat="46.67851" lon="5.80912">
        <ele>644.05651855469</ele>
        <time>2013-06-30T11:17:53.000Z</time>
      </trkpt>
      <trkpt lat="46.67855" lon="5.80931">
        <ele>641.52673339844</ele>
        <time>2013-06-30T11:17:55.000Z</time>
      </trkpt>
      <trkpt lat="46.67863" lon="5.80938">
        <ele>638.86218261719</ele>
        <time>2013-06-30T11:17:57.000Z</time>
      </trkpt>
      <trkpt lat="46.67873" lon="5.80934">
        <ele>637.65167236328</ele>
        <time>2013-06-30T11:17:59.000Z</time>
      </trkpt>
      <trkpt lat="46.67883" lon="5.80921">
        <ele>637.55743408203</ele>
        <time>2013-06-30T11:18:01.000Z</time>
      </trkpt>
      <trkpt lat="46.67891" lon="5.80908">
        <ele>638.50946044922</ele>
        <time>2013-06-30T11:18:03.000Z</time>
      </trkpt>
      <trkpt lat="46.67898" lon="5.80894">
        <ele>639.22308349609</ele>
        <time>2013-06-30T11:18:05.000Z</time>
      </trkpt>
      <trkpt lat="46.67905" lon="5.80883">
        <ele>640.24926757812</ele>
        <time>2013-06-30T11:18:07.000Z</time>
      </trkpt>
      <trkpt lat="46.67911" lon="5.80877">
        <ele>640.41967773438</ele>
        <time>2013-06-30T11:18:09.000Z</time>
      </trkpt>
      <trkpt lat="46.67916" lon="5.80874">
        <ele>640.51495361328</ele>
        <time>2013-06-30T11:18:11.000Z</time>
      </trkpt>
      <trkpt lat="46.67922" lon="5.80874">
        <ele>640.52447509766</ele>
        <time>2013-06-30T11:18:13.000Z</time>
      </trkpt>
      <trkpt lat="46.67927" lon="5.80874">
        <ele>640.55206298828</ele>
        <time>2013-06-30T11:18:15.000Z</time>
      </trkpt>
      <trkpt lat="46.67932" lon="5.80878">
        <ele>640.60522460938</ele>
        <time>2013-06-30T11:18:17.000Z</time>
      </trkpt>
      <trkpt lat="46.67937" lon="5.80883">
        <ele>640.68603515625</ele>
        <time>2013-06-30T11:18:19.000Z</time>
      </trkpt>
      <trkpt lat="46.67941" lon="5.80888">
        <ele>640.82330322266</ele>
        <time>2013-06-30T11:18:21.000Z</time>
      </trkpt>
      <trkpt lat="46.67946" lon="5.80895">
        <ele>641.07244873047</ele>
        <time>2013-06-30T11:18:23.000Z</time>
      </trkpt>
      <trkpt lat="46.67951" lon="5.80904">
        <ele>641.28460693359</ele>
        <time>2013-06-30T11:18:25.000Z</time>
      </trkpt>
      <trkpt lat="46.67956" lon="5.80914">
        <ele>643.85754394531</ele>
        <time>2013-06-30T11:18:27.000Z</time>
      </trkpt>
      <trkpt lat="46.67962" lon="5.80926">
        <ele>644.99822998047</ele>
        <time>2013-06-30T11:18:29.000Z</time>
      </trkpt>
      <trkpt lat="46.67967" lon="5.80937">
        <ele>645.57263183594</ele>
        <time>2013-06-30T11:18:31.000Z</time>
      </trkpt>
      <trkpt lat="46.67974" lon="5.80947">
        <ele>646.6572265625</ele>
        <time>2013-06-30T11:18:33.000Z</time>
      </trkpt>
      <trkpt lat="46.6798" lon="5.80957">
        <ele>647.08557128906</ele>
        <time>2013-06-30T11:18:35.000Z</time>
      </trkpt>
      <trkpt lat="46.67987" lon="5.80969">
        <ele>647.45666503906</ele>
        <time>2013-06-30T11:18:37.000Z</time>
      </trkpt>
      <trkpt lat="46.67993" lon="5.80978">
        <ele>648.14581298828</ele>
        <time>2013-06-30T11:18:39.000Z</time>
      </trkpt>
      <trkpt lat="46.67998" lon="5.80988">
        <ele>648.37860107422</ele>
        <time>2013-06-30T11:18:41.000Z</time>
      </trkpt>
      <trkpt lat="46.68002" lon="5.81">
        <ele>648.34808349609</ele>
        <time>2013-06-30T11:18:43.000Z</time>
      </trkpt>
      <trkpt lat="46.68006" lon="5.81011">
        <ele>647.96697998047</ele>
        <time>2013-06-30T11:18:45.000Z</time>
      </trkpt>
      <trkpt lat="46.68008" lon="5.81019">
        <ele>647.95098876953</ele>
        <time>2013-06-30T11:18:47.000Z</time>
      </trkpt>
      <trkpt lat="46.68012" lon="5.81026">
        <ele>648.08068847656</ele>
        <time>2013-06-30T11:18:50.000Z</time>
      </trkpt>
      <trkpt lat="46.68016" lon="5.81031">
        <ele>648.28588867188</ele>
        <time>2013-06-30T11:18:53.000Z</time>
      </trkpt>
      <trkpt lat="46.68021" lon="5.81034">
        <ele>648.54583740234</ele>
        <time>2013-06-30T11:18:55.000Z</time>
      </trkpt>
      <trkpt lat="46.68026" lon="5.81036">
        <ele>649.0859375</ele>
        <time>2013-06-30T11:18:58.000Z</time>
      </trkpt>
      <trkpt lat="46.68032" lon="5.81038">
        <ele>649.70141601562</ele>
        <time>2013-06-30T11:19:01.000Z</time>
      </trkpt>
      <trkpt lat="46.68039" lon="5.8104">
        <ele>650.27850341797</ele>
        <time>2013-06-30T11:19:04.000Z</time>
      </trkpt>
      <trkpt lat="46.68044" lon="5.81042">
        <ele>650.73272705078</ele>
        <time>2013-06-30T11:19:06.000Z</time>
      </trkpt>
      <trkpt lat="46.68051" lon="5.81043">
        <ele>651.35711669922</ele>
        <time>2013-06-30T11:19:09.000Z</time>
      </trkpt>
      <trkpt lat="46.68056" lon="5.81044">
        <ele>651.71636962891</ele>
        <time>2013-06-30T11:19:11.000Z</time>
      </trkpt>
      <trkpt lat="46.68061" lon="5.81044">
        <ele>652.01513671875</ele>
        <time>2013-06-30T11:19:13.000Z</time>
      </trkpt>
      <trkpt lat="46.68067" lon="5.81044">
        <ele>652.45196533203</ele>
        <time>2013-06-30T11:19:16.000Z</time>
      </trkpt>
      <trkpt lat="46.68072" lon="5.81045">
        <ele>652.65435791016</ele>
        <time>2013-06-30T11:19:18.000Z</time>
      </trkpt>
      <trkpt lat="46.68078" lon="5.81048">
        <ele>652.95922851562</ele>
        <time>2013-06-30T11:19:21.000Z</time>
      </trkpt>
      <trkpt lat="46.68084" lon="5.8105">
        <ele>653.26629638672</ele>
        <time>2013-06-30T11:19:24.000Z</time>
      </trkpt>
      <trkpt lat="46.68091" lon="5.81051">
        <ele>653.54650878906</ele>
        <time>2013-06-30T11:19:27.000Z</time>
      </trkpt>
      <trkpt lat="46.68097" lon="5.81053">
        <ele>653.91180419922</ele>
        <time>2013-06-30T11:19:30.000Z</time>
      </trkpt>
      <trkpt lat="46.68102" lon="5.81056">
        <ele>654.23712158203</ele>
        <time>2013-06-30T11:19:33.000Z</time>
      </trkpt>
      <trkpt lat="46.68107" lon="5.81057">
        <ele>654.43255615234</ele>
        <time>2013-06-30T11:19:35.000Z</time>
      </trkpt>
      <trkpt lat="46.68113" lon="5.8106">
        <ele>654.70642089844</ele>
        <time>2013-06-30T11:19:38.000Z</time>
      </trkpt>
      <trkpt lat="46.68117" lon="5.81062">
        <ele>654.94415283203</ele>
        <time>2013-06-30T11:19:40.000Z</time>
      </trkpt>
      <trkpt lat="46.68122" lon="5.81064">
        <ele>655.17742919922</ele>
        <time>2013-06-30T11:19:42.000Z</time>
      </trkpt>
      <trkpt lat="46.68127" lon="5.81066">
        <ele>655.38458251953</ele>
        <time>2013-06-30T11:19:44.000Z</time>
      </trkpt>
      <trkpt lat="46.68132" lon="5.81069">
        <ele>655.54412841797</ele>
        <time>2013-06-30T11:19:46.000Z</time>
      </trkpt>
      <trkpt lat="46.68137" lon="5.81071">
        <ele>655.67761230469</ele>
        <time>2013-06-30T11:19:48.000Z</time>
      </trkpt>
      <trkpt lat="46.68142" lon="5.81073">
        <ele>655.94903564453</ele>
        <time>2013-06-30T11:19:50.000Z</time>
      </trkpt>
      <trkpt lat="46.68148" lon="5.81073">
        <ele>656.25769042969</ele>
        <time>2013-06-30T11:19:52.000Z</time>
      </trkpt>
      <trkpt lat="46.68156" lon="5.81075">
        <ele>656.55767822266</ele>
        <time>2013-06-30T11:19:54.000Z</time>
      </trkpt>
      <trkpt lat="46.68164" lon="5.81076">
        <ele>656.79644775391</ele>
        <time>2013-06-30T11:19:56.000Z</time>
      </trkpt>
      <trkpt lat="46.68173" lon="5.81078">
        <ele>656.94903564453</ele>
        <time>2013-06-30T11:19:58.000Z</time>
      </trkpt>
      <trkpt lat="46.68181" lon="5.8108">
        <ele>657.13854980469</ele>
        <time>2013-06-30T11:20:00.000Z</time>
      </trkpt>
      <trkpt lat="46.6819" lon="5.81081">
        <ele>657.31866455078</ele>
        <time>2013-06-30T11:20:02.000Z</time>
      </trkpt>
      <trkpt lat="46.68198" lon="5.81084">
        <ele>657.48406982422</ele>
        <time>2013-06-30T11:20:04.000Z</time>
      </trkpt>
      <trkpt lat="46.68206" lon="5.8109">
        <ele>658.6484375</ele>
        <time>2013-06-30T11:20:06.000Z</time>
      </trkpt>
      <trkpt lat="46.68213" lon="5.81096">
        <ele>659.94866943359</ele>
        <time>2013-06-30T11:20:08.000Z</time>
      </trkpt>
      <trkpt lat="46.68219" lon="5.81102">
        <ele>660.14447021484</ele>
        <time>2013-06-30T11:20:10.000Z</time>
      </trkpt>
      <trkpt lat="46.68227" lon="5.81112">
        <ele>660.19360351562</ele>
        <time>2013-06-30T11:20:12.000Z</time>
      </trkpt>
      <trkpt lat="46.68234" lon="5.81124">
        <ele>659.89044189453</ele>
        <time>2013-06-30T11:20:14.000Z</time>
      </trkpt>
      <trkpt lat="46.6824" lon="5.81135">
        <ele>660.09881591797</ele>
        <time>2013-06-30T11:20:16.000Z</time>
      </trkpt>
      <trkpt lat="46.68246" lon="5.81147">
        <ele>660.08422851562</ele>
        <time>2013-06-30T11:20:18.000Z</time>
      </trkpt>
      <trkpt lat="46.68253" lon="5.81159">
        <ele>659.39288330078</ele>
        <time>2013-06-30T11:20:20.000Z</time>
      </trkpt>
      <trkpt lat="46.6826" lon="5.81171">
        <ele>658.84924316406</ele>
        <time>2013-06-30T11:20:22.000Z</time>
      </trkpt>
      <trkpt lat="46.68268" lon="5.81186">
        <ele>658.01885986328</ele>
        <time>2013-06-30T11:20:24.000Z</time>
      </trkpt>
      <trkpt lat="46.68276" lon="5.81199">
        <ele>657.35864257812</ele>
        <time>2013-06-30T11:20:26.000Z</time>
      </trkpt>
      <trkpt lat="46.68286" lon="5.81215">
        <ele>656.53204345703</ele>
        <time>2013-06-30T11:20:28.000Z</time>
      </trkpt>
      <trkpt lat="46.68296" lon="5.81232">
        <ele>656.06365966797</ele>
        <time>2013-06-30T11:20:30.000Z</time>
      </trkpt>
      <trkpt lat="46.68307" lon="5.81243">
        <ele>655.5673828125</ele>
        <time>2013-06-30T11:20:32.000Z</time>
      </trkpt>
      <trkpt lat="46.68318" lon="5.81251">
        <ele>656.36614990234</ele>
        <time>2013-06-30T11:20:34.000Z</time>
      </trkpt>
      <trkpt lat="46.68333" lon="5.81251">
        <ele>656.37359619141</ele>
        <time>2013-06-30T11:20:36.000Z</time>
      </trkpt>
      <trkpt lat="46.68346" lon="5.81243">
        <ele>655.74621582031</ele>
        <time>2013-06-30T11:20:38.000Z</time>
      </trkpt>
      <trkpt lat="46.68354" lon="5.81228">
        <ele>654.87335205078</ele>
        <time>2013-06-30T11:20:40.000Z</time>
      </trkpt>
      <trkpt lat="46.68358" lon="5.8121">
        <ele>653.46722412109</ele>
        <time>2013-06-30T11:20:42.000Z</time>
      </trkpt>
      <trkpt lat="46.6836" lon="5.81191">
        <ele>652.88543701172</ele>
        <time>2013-06-30T11:20:44.000Z</time>
      </trkpt>
      <trkpt lat="46.68361" lon="5.81174">
        <ele>653.29516601562</ele>
        <time>2013-06-30T11:20:46.000Z</time>
      </trkpt>
      <trkpt lat="46.68361" lon="5.8116">
        <ele>653.22698974609</ele>
        <time>2013-06-30T11:20:48.000Z</time>
      </trkpt>
      <trkpt lat="46.68363" lon="5.81148">
        <ele>653.19543457031</ele>
        <time>2013-06-30T11:20:50.000Z</time>
      </trkpt>
      <trkpt lat="46.68364" lon="5.81139">
        <ele>653.17004394531</ele>
        <time>2013-06-30T11:20:52.000Z</time>
      </trkpt>
      <trkpt lat="46.68366" lon="5.81126">
        <ele>653.11541748047</ele>
        <time>2013-06-30T11:20:54.000Z</time>
      </trkpt>
      <trkpt lat="46.68368" lon="5.81114">
        <ele>653.62860107422</ele>
        <time>2013-06-30T11:20:56.000Z</time>
      </trkpt>
      <trkpt lat="46.6837" lon="5.81101">
        <ele>654.96545410156</ele>
        <time>2013-06-30T11:20:58.000Z</time>
      </trkpt>
      <trkpt lat="46.68373" lon="5.81088">
        <ele>654.97692871094</ele>
        <time>2013-06-30T11:21:00.000Z</time>
      </trkpt>
      <trkpt lat="46.68376" lon="5.81076">
        <ele>654.92974853516</ele>
        <time>2013-06-30T11:21:02.000Z</time>
      </trkpt>
      <trkpt lat="46.6838" lon="5.81064">
        <ele>654.97576904297</ele>
        <time>2013-06-30T11:21:04.000Z</time>
      </trkpt>
      <trkpt lat="46.68383" lon="5.81053">
        <ele>656.2177734375</ele>
        <time>2013-06-30T11:21:06.000Z</time>
      </trkpt>
      <trkpt lat="46.68387" lon="5.81039">
        <ele>656.30993652344</ele>
        <time>2013-06-30T11:21:08.000Z</time>
      </trkpt>
      <trkpt lat="46.68391" lon="5.81026">
        <ele>654.81341552734</ele>
        <time>2013-06-30T11:21:10.000Z</time>
      </trkpt>
      <trkpt lat="46.68395" lon="5.81015">
        <ele>653.90692138672</ele>
        <time>2013-06-30T11:21:12.000Z</time>
      </trkpt>
      <trkpt lat="46.68398" lon="5.81004">
        <ele>653.50903320312</ele>
        <time>2013-06-30T11:21:14.000Z</time>
      </trkpt>
      <trkpt lat="46.68401" lon="5.80995">
        <ele>653.60314941406</ele>
        <time>2013-06-30T11:21:16.000Z</time>
      </trkpt>
      <trkpt lat="46.68404" lon="5.80984">
        <ele>653.62829589844</ele>
        <time>2013-06-30T11:21:18.000Z</time>
      </trkpt>
      <trkpt lat="46.68408" lon="5.80971">
        <ele>653.64373779297</ele>
        <time>2013-06-30T11:21:20.000Z</time>
      </trkpt>
      <trkpt lat="46.6841" lon="5.80961">
        <ele>653.67498779297</ele>
        <time>2013-06-30T11:21:22.000Z</time>
      </trkpt>
      <trkpt lat="46.68413" lon="5.80952">
        <ele>653.79315185547</ele>
        <time>2013-06-30T11:21:24.000Z</time>
      </trkpt>
      <trkpt lat="46.68416" lon="5.80941">
        <ele>653.99786376953</ele>
        <time>2013-06-30T11:21:26.000Z</time>
      </trkpt>
      <trkpt lat="46.68418" lon="5.80932">
        <ele>654.18463134766</ele>
        <time>2013-06-30T11:21:28.000Z</time>
      </trkpt>
      <trkpt lat="46.68421" lon="5.80922">
        <ele>654.33850097656</ele>
        <time>2013-06-30T11:21:30.000Z</time>
      </trkpt>
      <trkpt lat="46.68424" lon="5.80911">
        <ele>654.43823242188</ele>
        <time>2013-06-30T11:21:32.000Z</time>
      </trkpt>
      <trkpt lat="46.68428" lon="5.809">
        <ele>654.56274414062</ele>
        <time>2013-06-30T11:21:34.000Z</time>
      </trkpt>
      <trkpt lat="46.68433" lon="5.80889">
        <ele>654.74896240234</ele>
        <time>2013-06-30T11:21:36.000Z</time>
      </trkpt>
      <trkpt lat="46.68437" lon="5.80881">
        <ele>654.87847900391</ele>
        <time>2013-06-30T11:21:38.000Z</time>
      </trkpt>
      <trkpt lat="46.68441" lon="5.80872">
        <ele>654.98193359375</ele>
        <time>2013-06-30T11:21:40.000Z</time>
      </trkpt>
      <trkpt lat="46.68446" lon="5.80861">
        <ele>656.22973632812</ele>
        <time>2013-06-30T11:21:42.000Z</time>
      </trkpt>
      <trkpt lat="46.68451" lon="5.8085">
        <ele>657.01342773438</ele>
        <time>2013-06-30T11:21:44.000Z</time>
      </trkpt>
      <trkpt lat="46.68455" lon="5.80838">
        <ele>657.15563964844</ele>
        <time>2013-06-30T11:21:46.000Z</time>
      </trkpt>
      <trkpt lat="46.68459" lon="5.80827">
        <ele>657.28570556641</ele>
        <time>2013-06-30T11:21:48.000Z</time>
      </trkpt>
      <trkpt lat="46.68463" lon="5.80817">
        <ele>657.79602050781</ele>
        <time>2013-06-30T11:21:50.000Z</time>
      </trkpt>
      <trkpt lat="46.68466" lon="5.80807">
        <ele>657.77777099609</ele>
        <time>2013-06-30T11:21:52.000Z</time>
      </trkpt>
      <trkpt lat="46.6847" lon="5.80795">
        <ele>658.52703857422</ele>
        <time>2013-06-30T11:21:54.000Z</time>
      </trkpt>
      <trkpt lat="46.68474" lon="5.80783">
        <ele>659.29626464844</ele>
        <time>2013-06-30T11:21:56.000Z</time>
      </trkpt>
      <trkpt lat="46.68479" lon="5.80767">
        <ele>659.67944335938</ele>
        <time>2013-06-30T11:21:58.000Z</time>
      </trkpt>
      <trkpt lat="46.68483" lon="5.80752">
        <ele>659.26770019531</ele>
        <time>2013-06-30T11:22:00.000Z</time>
      </trkpt>
      <trkpt lat="46.68483" lon="5.80736">
        <ele>658.83526611328</ele>
        <time>2013-06-30T11:22:02.000Z</time>
      </trkpt>
      <trkpt lat="46.68484" lon="5.80722">
        <ele>658.84234619141</ele>
        <time>2013-06-30T11:22:04.000Z</time>
      </trkpt>
      <trkpt lat="46.68483" lon="5.80707">
        <ele>658.97937011719</ele>
        <time>2013-06-30T11:22:06.000Z</time>
      </trkpt>
      <trkpt lat="46.68481" lon="5.8069">
        <ele>658.54846191406</ele>
        <time>2013-06-30T11:22:08.000Z</time>
      </trkpt>
      <trkpt lat="46.68479" lon="5.80671">
        <ele>657.21960449219</ele>
        <time>2013-06-30T11:22:10.000Z</time>
      </trkpt>
      <trkpt lat="46.68479" lon="5.80652">
        <ele>656.14813232422</ele>
        <time>2013-06-30T11:22:12.000Z</time>
      </trkpt>
      <trkpt lat="46.68483" lon="5.80635">
        <ele>654.76043701172</ele>
        <time>2013-06-30T11:22:14.000Z</time>
      </trkpt>
      <trkpt lat="46.68488" lon="5.80622">
        <ele>653.1650390625</ele>
        <time>2013-06-30T11:22:16.000Z</time>
      </trkpt>
      <trkpt lat="46.68496" lon="5.80614">
        <ele>651.96752929688</ele>
        <time>2013-06-30T11:22:18.000Z</time>
      </trkpt>
      <trkpt lat="46.68503" lon="5.8061">
        <ele>651.73675537109</ele>
        <time>2013-06-30T11:22:20.000Z</time>
      </trkpt>
      <trkpt lat="46.68511" lon="5.80609">
        <ele>651.76098632812</ele>
        <time>2013-06-30T11:22:22.000Z</time>
      </trkpt>
      <trkpt lat="46.68517" lon="5.8061">
        <ele>651.84503173828</ele>
        <time>2013-06-30T11:22:24.000Z</time>
      </trkpt>
      <trkpt lat="46.68523" lon="5.80611">
        <ele>651.98797607422</ele>
        <time>2013-06-30T11:22:26.000Z</time>
      </trkpt>
      <trkpt lat="46.68529" lon="5.80612">
        <ele>652.21154785156</ele>
        <time>2013-06-30T11:22:28.000Z</time>
      </trkpt>
      <trkpt lat="46.68535" lon="5.80613">
        <ele>652.40460205078</ele>
        <time>2013-06-30T11:22:30.000Z</time>
      </trkpt>
      <trkpt lat="46.68541" lon="5.80614">
        <ele>652.61999511719</ele>
        <time>2013-06-30T11:22:32.000Z</time>
      </trkpt>
      <trkpt lat="46.68547" lon="5.80617">
        <ele>652.83978271484</ele>
        <time>2013-06-30T11:22:34.000Z</time>
      </trkpt>
      <trkpt lat="46.68552" lon="5.80618">
        <ele>653.05584716797</ele>
        <time>2013-06-30T11:22:36.000Z</time>
      </trkpt>
      <trkpt lat="46.68557" lon="5.8062">
        <ele>653.34411621094</ele>
        <time>2013-06-30T11:22:38.000Z</time>
      </trkpt>
      <trkpt lat="46.68561" lon="5.80622">
        <ele>653.70611572266</ele>
        <time>2013-06-30T11:22:40.000Z</time>
      </trkpt>
      <trkpt lat="46.68566" lon="5.80624">
        <ele>654.05126953125</ele>
        <time>2013-06-30T11:22:42.000Z</time>
      </trkpt>
      <trkpt lat="46.68571" lon="5.80627">
        <ele>654.43927001953</ele>
        <time>2013-06-30T11:22:44.000Z</time>
      </trkpt>
      <trkpt lat="46.68575" lon="5.80631">
        <ele>654.79547119141</ele>
        <time>2013-06-30T11:22:46.000Z</time>
      </trkpt>
      <trkpt lat="46.6858" lon="5.80635">
        <ele>655.06958007812</ele>
        <time>2013-06-30T11:22:48.000Z</time>
      </trkpt>
      <trkpt lat="46.68584" lon="5.80639">
        <ele>655.34704589844</ele>
        <time>2013-06-30T11:22:50.000Z</time>
      </trkpt>
      <trkpt lat="46.68589" lon="5.80643">
        <ele>655.6826171875</ele>
        <time>2013-06-30T11:22:52.000Z</time>
      </trkpt>
      <trkpt lat="46.68594" lon="5.80647">
        <ele>655.998046875</ele>
        <time>2013-06-30T11:22:54.000Z</time>
      </trkpt>
      <trkpt lat="46.68598" lon="5.8065">
        <ele>656.39923095703</ele>
        <time>2013-06-30T11:22:56.000Z</time>
      </trkpt>
      <trkpt lat="46.68602" lon="5.80653">
        <ele>656.87310791016</ele>
        <time>2013-06-30T11:22:58.000Z</time>
      </trkpt>
      <trkpt lat="46.68607" lon="5.80656">
        <ele>657.23364257812</ele>
        <time>2013-06-30T11:23:00.000Z</time>
      </trkpt>
      <trkpt lat="46.68611" lon="5.80659">
        <ele>657.599609375</ele>
        <time>2013-06-30T11:23:02.000Z</time>
      </trkpt>
      <trkpt lat="46.68615" lon="5.80662">
        <ele>658.03485107422</ele>
        <time>2013-06-30T11:23:04.000Z</time>
      </trkpt>
      <trkpt lat="46.68621" lon="5.80665">
        <ele>658.58142089844</ele>
        <time>2013-06-30T11:23:07.000Z</time>
      </trkpt>
      <trkpt lat="46.68626" lon="5.80666">
        <ele>658.96148681641</ele>
        <time>2013-06-30T11:23:09.000Z</time>
      </trkpt>
      <trkpt lat="46.68631" lon="5.80667">
        <ele>659.35614013672</ele>
        <time>2013-06-30T11:23:11.000Z</time>
      </trkpt>
      <trkpt lat="46.68636" lon="5.80669">
        <ele>659.70135498047</ele>
        <time>2013-06-30T11:23:13.000Z</time>
      </trkpt>
      <trkpt lat="46.68641" lon="5.8067">
        <ele>660.08166503906</ele>
        <time>2013-06-30T11:23:15.000Z</time>
      </trkpt>
      <trkpt lat="46.68646" lon="5.80671">
        <ele>660.49084472656</ele>
        <time>2013-06-30T11:23:17.000Z</time>
      </trkpt>
      <trkpt lat="46.68652" lon="5.80672">
        <ele>661.07891845703</ele>
        <time>2013-06-30T11:23:20.000Z</time>
      </trkpt>
      <trkpt lat="46.68656" lon="5.80673">
        <ele>661.39642333984</ele>
        <time>2013-06-30T11:23:22.000Z</time>
      </trkpt>
      <trkpt lat="46.68661" lon="5.80674">
        <ele>661.78619384766</ele>
        <time>2013-06-30T11:23:24.000Z</time>
      </trkpt>
      <trkpt lat="46.68666" lon="5.80676">
        <ele>662.24841308594</ele>
        <time>2013-06-30T11:23:26.000Z</time>
      </trkpt>
      <trkpt lat="46.6867" lon="5.80678">
        <ele>662.78869628906</ele>
        <time>2013-06-30T11:23:28.000Z</time>
      </trkpt>
      <trkpt lat="46.68675" lon="5.8068">
        <ele>663.26214599609</ele>
        <time>2013-06-30T11:23:30.000Z</time>
      </trkpt>
      <trkpt lat="46.68679" lon="5.80683">
        <ele>663.72674560547</ele>
        <time>2013-06-30T11:23:32.000Z</time>
      </trkpt>
      <trkpt lat="46.68686" lon="5.80685">
        <ele>664.42987060547</ele>
        <time>2013-06-30T11:23:35.000Z</time>
      </trkpt>
      <trkpt lat="46.68691" lon="5.80687">
        <ele>664.81890869141</ele>
        <time>2013-06-30T11:23:37.000Z</time>
      </trkpt>
      <trkpt lat="46.68697" lon="5.80689">
        <ele>665.54309082031</ele>
        <time>2013-06-30T11:23:40.000Z</time>
      </trkpt>
      <trkpt lat="46.68703" lon="5.8069">
        <ele>666.34582519531</ele>
        <time>2013-06-30T11:23:43.000Z</time>
      </trkpt>
      <trkpt lat="46.68708" lon="5.80691">
        <ele>666.83453369141</ele>
        <time>2013-06-30T11:23:45.000Z</time>
      </trkpt>
      <trkpt lat="46.68713" lon="5.80692">
        <ele>667.32513427734</ele>
        <time>2013-06-30T11:23:47.000Z</time>
      </trkpt>
      <trkpt lat="46.68718" lon="5.80694">
        <ele>667.77380371094</ele>
        <time>2013-06-30T11:23:49.000Z</time>
      </trkpt>
      <trkpt lat="46.68724" lon="5.80697">
        <ele>668.14263916016</ele>
        <time>2013-06-30T11:23:51.000Z</time>
      </trkpt>
      <trkpt lat="46.68729" lon="5.80701">
        <ele>668.48999023438</ele>
        <time>2013-06-30T11:23:53.000Z</time>
      </trkpt>
      <trkpt lat="46.68733" lon="5.80707">
        <ele>668.78833007812</ele>
        <time>2013-06-30T11:23:55.000Z</time>
      </trkpt>
      <trkpt lat="46.68737" lon="5.80713">
        <ele>669.18695068359</ele>
        <time>2013-06-30T11:23:57.000Z</time>
      </trkpt>
      <trkpt lat="46.6874" lon="5.80719">
        <ele>669.58544921875</ele>
        <time>2013-06-30T11:23:59.000Z</time>
      </trkpt>
      <trkpt lat="46.68743" lon="5.80726">
        <ele>670.08972167969</ele>
        <time>2013-06-30T11:24:02.000Z</time>
      </trkpt>
      <trkpt lat="46.68745" lon="5.80734">
        <ele>670.35601806641</ele>
        <time>2013-06-30T11:24:04.000Z</time>
      </trkpt>
      <trkpt lat="46.68748" lon="5.80741">
        <ele>670.71002197266</ele>
        <time>2013-06-30T11:24:06.000Z</time>
      </trkpt>
      <trkpt lat="46.68751" lon="5.80749">
        <ele>671.08679199219</ele>
        <time>2013-06-30T11:24:08.000Z</time>
      </trkpt>
      <trkpt lat="46.68754" lon="5.80756">
        <ele>671.46618652344</ele>
        <time>2013-06-30T11:24:10.000Z</time>
      </trkpt>
      <trkpt lat="46.68757" lon="5.80764">
        <ele>671.74932861328</ele>
        <time>2013-06-30T11:24:12.000Z</time>
      </trkpt>
      <trkpt lat="46.68761" lon="5.80771">
        <ele>671.97662353516</ele>
        <time>2013-06-30T11:24:14.000Z</time>
      </trkpt>
      <trkpt lat="46.68765" lon="5.8078">
        <ele>672.25445556641</ele>
        <time>2013-06-30T11:24:16.000Z</time>
      </trkpt>
      <trkpt lat="46.68769" lon="5.80787">
        <ele>672.57244873047</ele>
        <time>2013-06-30T11:24:18.000Z</time>
      </trkpt>
      <trkpt lat="46.68773" lon="5.80795">
        <ele>672.91516113281</ele>
        <time>2013-06-30T11:24:20.000Z</time>
      </trkpt>
      <trkpt lat="46.68777" lon="5.80801">
        <ele>673.14996337891</ele>
        <time>2013-06-30T11:24:22.000Z</time>
      </trkpt>
      <trkpt lat="46.68781" lon="5.80807">
        <ele>673.44982910156</ele>
        <time>2013-06-30T11:24:24.000Z</time>
      </trkpt>
      <trkpt lat="46.68787" lon="5.80814">
        <ele>673.80303955078</ele>
        <time>2013-06-30T11:24:26.000Z</time>
      </trkpt>
      <trkpt lat="46.68794" lon="5.80822">
        <ele>674.205078125</ele>
        <time>2013-06-30T11:24:28.000Z</time>
      </trkpt>
      <trkpt lat="46.688" lon="5.80829">
        <ele>674.60015869141</ele>
        <time>2013-06-30T11:24:30.000Z</time>
      </trkpt>
      <trkpt lat="46.68805" lon="5.80834">
        <ele>675.01104736328</ele>
        <time>2013-06-30T11:24:32.000Z</time>
      </trkpt>
      <trkpt lat="46.68811" lon="5.80838">
        <ele>675.43353271484</ele>
        <time>2013-06-30T11:24:34.000Z</time>
      </trkpt>
      <trkpt lat="46.6882" lon="5.80845">
        <ele>675.80157470703</ele>
        <time>2013-06-30T11:24:36.000Z</time>
      </trkpt>
      <trkpt lat="46.68826" lon="5.80852">
        <ele>676.14819335938</ele>
        <time>2013-06-30T11:24:38.000Z</time>
      </trkpt>
      <trkpt lat="46.68832" lon="5.80858">
        <ele>676.52960205078</ele>
        <time>2013-06-30T11:24:40.000Z</time>
      </trkpt>
      <trkpt lat="46.68839" lon="5.80864">
        <ele>678.47509765625</ele>
        <time>2013-06-30T11:24:42.000Z</time>
      </trkpt>
      <trkpt lat="46.68845" lon="5.80869">
        <ele>678.76263427734</ele>
        <time>2013-06-30T11:24:44.000Z</time>
      </trkpt>
      <trkpt lat="46.68851" lon="5.80874">
        <ele>679.05657958984</ele>
        <time>2013-06-30T11:24:46.000Z</time>
      </trkpt>
      <trkpt lat="46.68857" lon="5.8088">
        <ele>679.35638427734</ele>
        <time>2013-06-30T11:24:48.000Z</time>
      </trkpt>
      <trkpt lat="46.68862" lon="5.80886">
        <ele>679.63067626953</ele>
        <time>2013-06-30T11:24:50.000Z</time>
      </trkpt>
      <trkpt lat="46.68867" lon="5.80894">
        <ele>679.86791992188</ele>
        <time>2013-06-30T11:24:52.000Z</time>
      </trkpt>
      <trkpt lat="46.68874" lon="5.80902">
        <ele>680.03082275391</ele>
        <time>2013-06-30T11:24:54.000Z</time>
      </trkpt>
      <trkpt lat="46.68881" lon="5.80911">
        <ele>680.28479003906</ele>
        <time>2013-06-30T11:24:56.000Z</time>
      </trkpt>
      <trkpt lat="46.68888" lon="5.80918">
        <ele>682.41534423828</ele>
        <time>2013-06-30T11:24:58.000Z</time>
      </trkpt>
      <trkpt lat="46.68895" lon="5.80925">
        <ele>683.19616699219</ele>
        <time>2013-06-30T11:25:00.000Z</time>
      </trkpt>
      <trkpt lat="46.68902" lon="5.80933">
        <ele>683.58459472656</ele>
        <time>2013-06-30T11:25:02.000Z</time>
      </trkpt>
      <trkpt lat="46.6891" lon="5.80942">
        <ele>683.91076660156</ele>
        <time>2013-06-30T11:25:04.000Z</time>
      </trkpt>
      <trkpt lat="46.68918" lon="5.80951">
        <ele>683.94641113281</ele>
        <time>2013-06-30T11:25:06.000Z</time>
      </trkpt>
      <trkpt lat="46.68928" lon="5.8096">
        <ele>684.03753662109</ele>
        <time>2013-06-30T11:25:08.000Z</time>
      </trkpt>
      <trkpt lat="46.68939" lon="5.80969">
        <ele>683.57861328125</ele>
        <time>2013-06-30T11:25:10.000Z</time>
      </trkpt>
      <trkpt lat="46.68952" lon="5.80975">
        <ele>682.60516357422</ele>
        <time>2013-06-30T11:25:12.000Z</time>
      </trkpt>
      <trkpt lat="46.68964" lon="5.8098">
        <ele>682.37384033203</ele>
        <time>2013-06-30T11:25:14.000Z</time>
      </trkpt>
      <trkpt lat="46.68975" lon="5.80984">
        <ele>682.08526611328</ele>
        <time>2013-06-30T11:25:16.000Z</time>
      </trkpt>
      <trkpt lat="46.68987" lon="5.8099">
        <ele>682.08837890625</ele>
        <time>2013-06-30T11:25:18.000Z</time>
      </trkpt>
      <trkpt lat="46.68998" lon="5.80995">
        <ele>682.94543457031</ele>
        <time>2013-06-30T11:25:20.000Z</time>
      </trkpt>
      <trkpt lat="46.6901" lon="5.81001">
        <ele>683.09295654297</ele>
        <time>2013-06-30T11:25:22.000Z</time>
      </trkpt>
      <trkpt lat="46.69023" lon="5.81005">
        <ele>682.30596923828</ele>
        <time>2013-06-30T11:25:24.000Z</time>
      </trkpt>
      <trkpt lat="46.69039" lon="5.81007">
        <ele>682.00653076172</ele>
        <time>2013-06-30T11:25:26.000Z</time>
      </trkpt>
      <trkpt lat="46.69052" lon="5.81003">
        <ele>682.56036376953</ele>
        <time>2013-06-30T11:25:28.000Z</time>
      </trkpt>
      <trkpt lat="46.69065" lon="5.80998">
        <ele>682.85260009766</ele>
        <time>2013-06-30T11:25:30.000Z</time>
      </trkpt>
      <trkpt lat="46.69077" lon="5.80993">
        <ele>683.46350097656</ele>
        <time>2013-06-30T11:25:32.000Z</time>
      </trkpt>
      <trkpt lat="46.69088" lon="5.80987">
        <ele>684.48040771484</ele>
        <time>2013-06-30T11:25:34.000Z</time>
      </trkpt>
      <trkpt lat="46.69097" lon="5.80983">
        <ele>685.49755859375</ele>
        <time>2013-06-30T11:25:36.000Z</time>
      </trkpt>
      <trkpt lat="46.69107" lon="5.80977">
        <ele>685.64685058594</ele>
        <time>2013-06-30T11:25:38.000Z</time>
      </trkpt>
      <trkpt lat="46.69116" lon="5.80974">
        <ele>685.67181396484</ele>
        <time>2013-06-30T11:25:40.000Z</time>
      </trkpt>
      <trkpt lat="46.69124" lon="5.80971">
        <ele>685.75061035156</ele>
        <time>2013-06-30T11:25:42.000Z</time>
      </trkpt>
      <trkpt lat="46.69132" lon="5.80969">
        <ele>685.77136230469</ele>
        <time>2013-06-30T11:25:44.000Z</time>
      </trkpt>
      <trkpt lat="46.6914" lon="5.80967">
        <ele>685.84851074219</ele>
        <time>2013-06-30T11:25:46.000Z</time>
      </trkpt>
      <trkpt lat="46.69147" lon="5.80966">
        <ele>686.02020263672</ele>
        <time>2013-06-30T11:25:48.000Z</time>
      </trkpt>
      <trkpt lat="46.69154" lon="5.80965">
        <ele>686.22277832031</ele>
        <time>2013-06-30T11:25:50.000Z</time>
      </trkpt>
      <trkpt lat="46.69162" lon="5.80964">
        <ele>686.42138671875</ele>
        <time>2013-06-30T11:25:52.000Z</time>
      </trkpt>
      <trkpt lat="46.6917" lon="5.80962">
        <ele>686.59246826172</ele>
        <time>2013-06-30T11:25:54.000Z</time>
      </trkpt>
      <trkpt lat="46.6918" lon="5.80959">
        <ele>686.73986816406</ele>
        <time>2013-06-30T11:25:56.000Z</time>
      </trkpt>
      <trkpt lat="46.69188" lon="5.80956">
        <ele>687.52288818359</ele>
        <time>2013-06-30T11:25:58.000Z</time>
      </trkpt>
      <trkpt lat="46.69195" lon="5.80954">
        <ele>688.39813232422</ele>
        <time>2013-06-30T11:26:00.000Z</time>
      </trkpt>
      <trkpt lat="46.69204" lon="5.80951">
        <ele>689.46911621094</ele>
        <time>2013-06-30T11:26:02.000Z</time>
      </trkpt>
      <trkpt lat="46.69213" lon="5.80949">
        <ele>690.00872802734</ele>
        <time>2013-06-30T11:26:04.000Z</time>
      </trkpt>
      <trkpt lat="46.69222" lon="5.80948">
        <ele>691.06311035156</ele>
        <time>2013-06-30T11:26:06.000Z</time>
      </trkpt>
      <trkpt lat="46.69232" lon="5.80946">
        <ele>690.84771728516</ele>
        <time>2013-06-30T11:26:08.000Z</time>
      </trkpt>
      <trkpt lat="46.69242" lon="5.80945">
        <ele>690.79925537109</ele>
        <time>2013-06-30T11:26:10.000Z</time>
      </trkpt>
      <trkpt lat="46.69252" lon="5.80945">
        <ele>690.80541992188</ele>
        <time>2013-06-30T11:26:12.000Z</time>
      </trkpt>
      <trkpt lat="46.69262" lon="5.80945">
        <ele>690.93365478516</ele>
        <time>2013-06-30T11:26:14.000Z</time>
      </trkpt>
      <trkpt lat="46.69272" lon="5.80946">
        <ele>691.44750976562</ele>
        <time>2013-06-30T11:26:16.000Z</time>
      </trkpt>
      <trkpt lat="46.69284" lon="5.80947">
        <ele>691.05035400391</ele>
        <time>2013-06-30T11:26:18.000Z</time>
      </trkpt>
      <trkpt lat="46.69296" lon="5.8095">
        <ele>689.60821533203</ele>
        <time>2013-06-30T11:26:20.000Z</time>
      </trkpt>
      <trkpt lat="46.69305" lon="5.80951">
        <ele>688.98962402344</ele>
        <time>2013-06-30T11:26:22.000Z</time>
      </trkpt>
      <trkpt lat="46.69315" lon="5.80953">
        <ele>688.36517333984</ele>
        <time>2013-06-30T11:26:24.000Z</time>
      </trkpt>
      <trkpt lat="46.69325" lon="5.80955">
        <ele>687.94781494141</ele>
        <time>2013-06-30T11:26:26.000Z</time>
      </trkpt>
      <trkpt lat="46.69334" lon="5.80957">
        <ele>687.76574707031</ele>
        <time>2013-06-30T11:26:28.000Z</time>
      </trkpt>
      <trkpt lat="46.69343" lon="5.80959">
        <ele>688.25714111328</ele>
        <time>2013-06-30T11:26:30.000Z</time>
      </trkpt>
      <trkpt lat="46.69353" lon="5.80961">
        <ele>688.52844238281</ele>
        <time>2013-06-30T11:26:32.000Z</time>
      </trkpt>
      <trkpt lat="46.69363" lon="5.80964">
        <ele>688.42291259766</ele>
        <time>2013-06-30T11:26:34.000Z</time>
      </trkpt>
      <trkpt lat="46.69374" lon="5.80967">
        <ele>689.06195068359</ele>
        <time>2013-06-30T11:26:36.000Z</time>
      </trkpt>
      <trkpt lat="46.69386" lon="5.8097">
        <ele>688.93255615234</ele>
        <time>2013-06-30T11:26:38.000Z</time>
      </trkpt>
      <trkpt lat="46.69399" lon="5.80973">
        <ele>688.36639404297</ele>
        <time>2013-06-30T11:26:40.000Z</time>
      </trkpt>
      <trkpt lat="46.69412" lon="5.80976">
        <ele>687.66101074219</ele>
        <time>2013-06-30T11:26:42.000Z</time>
      </trkpt>
      <trkpt lat="46.69423" lon="5.80978">
        <ele>687.04132080078</ele>
        <time>2013-06-30T11:26:44.000Z</time>
      </trkpt>
      <trkpt lat="46.69434" lon="5.8098">
        <ele>687.54235839844</ele>
        <time>2013-06-30T11:26:46.000Z</time>
      </trkpt>
      <trkpt lat="46.69447" lon="5.80983">
        <ele>688.09869384766</ele>
        <time>2013-06-30T11:26:48.000Z</time>
      </trkpt>
      <trkpt lat="46.6946" lon="5.80986">
        <ele>687.07116699219</ele>
        <time>2013-06-30T11:26:50.000Z</time>
      </trkpt>
      <trkpt lat="46.69472" lon="5.8099">
        <ele>686.18914794922</ele>
        <time>2013-06-30T11:26:52.000Z</time>
      </trkpt>
      <trkpt lat="46.69487" lon="5.80995">
        <ele>684.80023193359</ele>
        <time>2013-06-30T11:26:54.000Z</time>
      </trkpt>
      <trkpt lat="46.69503" lon="5.81">
        <ele>684.14984130859</ele>
        <time>2013-06-30T11:26:56.000Z</time>
      </trkpt>
      <trkpt lat="46.69517" lon="5.81005">
        <ele>683.68347167969</ele>
        <time>2013-06-30T11:26:58.000Z</time>
      </trkpt>
      <trkpt lat="46.6953" lon="5.81009">
        <ele>683.84735107422</ele>
        <time>2013-06-30T11:27:00.000Z</time>
      </trkpt>
      <trkpt lat="46.69543" lon="5.81014">
        <ele>684.36145019531</ele>
        <time>2013-06-30T11:27:02.000Z</time>
      </trkpt>
      <trkpt lat="46.69556" lon="5.81019">
        <ele>684.51654052734</ele>
        <time>2013-06-30T11:27:04.000Z</time>
      </trkpt>
      <trkpt lat="46.69568" lon="5.81025">
        <ele>684.37145996094</ele>
        <time>2013-06-30T11:27:06.000Z</time>
      </trkpt>
      <trkpt lat="46.69582" lon="5.81032">
        <ele>683.73565673828</ele>
        <time>2013-06-30T11:27:08.000Z</time>
      </trkpt>
      <trkpt lat="46.69595" lon="5.81038">
        <ele>683.04235839844</ele>
        <time>2013-06-30T11:27:10.000Z</time>
      </trkpt>
      <trkpt lat="46.69611" lon="5.81043">
        <ele>682.39111328125</ele>
        <time>2013-06-30T11:27:12.000Z</time>
      </trkpt>
      <trkpt lat="46.69626" lon="5.81048">
        <ele>681.98468017578</ele>
        <time>2013-06-30T11:27:14.000Z</time>
      </trkpt>
      <trkpt lat="46.69641" lon="5.81054">
        <ele>681.56610107422</ele>
        <time>2013-06-30T11:27:16.000Z</time>
      </trkpt>
      <trkpt lat="46.69654" lon="5.81062">
        <ele>680.89599609375</ele>
        <time>2013-06-30T11:27:18.000Z</time>
      </trkpt>
      <trkpt lat="46.69668" lon="5.8107">
        <ele>680.27844238281</ele>
        <time>2013-06-30T11:27:20.000Z</time>
      </trkpt>
      <trkpt lat="46.69682" lon="5.8108">
        <ele>679.83087158203</ele>
        <time>2013-06-30T11:27:22.000Z</time>
      </trkpt>
      <trkpt lat="46.69694" lon="5.81088">
        <ele>679.91723632812</ele>
        <time>2013-06-30T11:27:24.000Z</time>
      </trkpt>
      <trkpt lat="46.69705" lon="5.81099">
        <ele>679.904296875</ele>
        <time>2013-06-30T11:27:26.000Z</time>
      </trkpt>
      <trkpt lat="46.69717" lon="5.81112">
        <ele>679.49993896484</ele>
        <time>2013-06-30T11:27:28.000Z</time>
      </trkpt>
      <trkpt lat="46.69727" lon="5.81125">
        <ele>679.15203857422</ele>
        <time>2013-06-30T11:27:30.000Z</time>
      </trkpt>
      <trkpt lat="46.69735" lon="5.81136">
        <ele>678.70288085938</ele>
        <time>2013-06-30T11:27:32.000Z</time>
      </trkpt>
      <trkpt lat="46.69745" lon="5.81147">
        <ele>678.06530761719</ele>
        <time>2013-06-30T11:27:34.000Z</time>
      </trkpt>
      <trkpt lat="46.69754" lon="5.81157">
        <ele>677.38543701172</ele>
        <time>2013-06-30T11:27:36.000Z</time>
      </trkpt>
      <trkpt lat="46.69763" lon="5.81166">
        <ele>677.41033935547</ele>
        <time>2013-06-30T11:27:38.000Z</time>
      </trkpt>
      <trkpt lat="46.69771" lon="5.81174">
        <ele>677.88549804688</ele>
        <time>2013-06-30T11:27:40.000Z</time>
      </trkpt>
      <trkpt lat="46.69781" lon="5.81182">
        <ele>678.13836669922</ele>
        <time>2013-06-30T11:27:42.000Z</time>
      </trkpt>
      <trkpt lat="46.69791" lon="5.8119">
        <ele>678.14093017578</ele>
        <time>2013-06-30T11:27:44.000Z</time>
      </trkpt>
      <trkpt lat="46.69801" lon="5.81196">
        <ele>677.80889892578</ele>
        <time>2013-06-30T11:27:46.000Z</time>
      </trkpt>
      <trkpt lat="46.69811" lon="5.81201">
        <ele>677.81707763672</ele>
        <time>2013-06-30T11:27:48.000Z</time>
      </trkpt>
      <trkpt lat="46.6982" lon="5.81207">
        <ele>678.33410644531</ele>
        <time>2013-06-30T11:27:50.000Z</time>
      </trkpt>
      <trkpt lat="46.69829" lon="5.81213">
        <ele>678.51470947266</ele>
        <time>2013-06-30T11:27:52.000Z</time>
      </trkpt>
      <trkpt lat="46.69838" lon="5.81218">
        <ele>679.07092285156</ele>
        <time>2013-06-30T11:27:54.000Z</time>
      </trkpt>
      <trkpt lat="46.69846" lon="5.81223">
        <ele>679.95001220703</ele>
        <time>2013-06-30T11:27:56.000Z</time>
      </trkpt>
      <trkpt lat="46.69855" lon="5.81229">
        <ele>680.5234375</ele>
        <time>2013-06-30T11:27:58.000Z</time>
      </trkpt>
      <trkpt lat="46.69863" lon="5.81235">
        <ele>681.0087890625</ele>
        <time>2013-06-30T11:28:00.000Z</time>
      </trkpt>
      <trkpt lat="46.69871" lon="5.81241">
        <ele>681.08825683594</ele>
        <time>2013-06-30T11:28:02.000Z</time>
      </trkpt>
      <trkpt lat="46.69879" lon="5.81247">
        <ele>681.07653808594</ele>
        <time>2013-06-30T11:28:04.000Z</time>
      </trkpt>
      <trkpt lat="46.69888" lon="5.81254">
        <ele>681.43841552734</ele>
        <time>2013-06-30T11:28:06.000Z</time>
      </trkpt>
      <trkpt lat="46.69897" lon="5.81261">
        <ele>681.82464599609</ele>
        <time>2013-06-30T11:28:08.000Z</time>
      </trkpt>
      <trkpt lat="46.69906" lon="5.81267">
        <ele>681.89849853516</ele>
        <time>2013-06-30T11:28:10.000Z</time>
      </trkpt>
      <trkpt lat="46.69914" lon="5.81274">
        <ele>682.20928955078</ele>
        <time>2013-06-30T11:28:12.000Z</time>
      </trkpt>
      <trkpt lat="46.69923" lon="5.8128">
        <ele>683.11877441406</ele>
        <time>2013-06-30T11:28:14.000Z</time>
      </trkpt>
      <trkpt lat="46.69932" lon="5.81285">
        <ele>683.85797119141</ele>
        <time>2013-06-30T11:28:16.000Z</time>
      </trkpt>
      <trkpt lat="46.69941" lon="5.8129">
        <ele>684.11999511719</ele>
        <time>2013-06-30T11:28:18.000Z</time>
      </trkpt>
      <trkpt lat="46.6995" lon="5.81295">
        <ele>684.29254150391</ele>
        <time>2013-06-30T11:28:20.000Z</time>
      </trkpt>
      <trkpt lat="46.69957" lon="5.81299">
        <ele>684.79156494141</ele>
        <time>2013-06-30T11:28:22.000Z</time>
      </trkpt>
      <trkpt lat="46.69965" lon="5.81304">
        <ele>685.58386230469</ele>
        <time>2013-06-30T11:28:24.000Z</time>
      </trkpt>
      <trkpt lat="46.69973" lon="5.81309">
        <ele>686.42559814453</ele>
        <time>2013-06-30T11:28:26.000Z</time>
      </trkpt>
      <trkpt lat="46.6998" lon="5.81315">
        <ele>686.84906005859</ele>
        <time>2013-06-30T11:28:28.000Z</time>
      </trkpt>
      <trkpt lat="46.69989" lon="5.81324">
        <ele>686.04266357422</ele>
        <time>2013-06-30T11:28:30.000Z</time>
      </trkpt>
      <trkpt lat="46.69996" lon="5.81333">
        <ele>684.92236328125</ele>
        <time>2013-06-30T11:28:32.000Z</time>
      </trkpt>
      <trkpt lat="46.7" lon="5.81344">
        <ele>684.3935546875</ele>
        <time>2013-06-30T11:28:34.000Z</time>
      </trkpt>
      <trkpt lat="46.70004" lon="5.81355">
        <ele>684.43988037109</ele>
        <time>2013-06-30T11:28:36.000Z</time>
      </trkpt>
      <trkpt lat="46.70007" lon="5.81366">
        <ele>684.52227783203</ele>
        <time>2013-06-30T11:28:38.000Z</time>
      </trkpt>
      <trkpt lat="46.70009" lon="5.81377">
        <ele>684.68994140625</ele>
        <time>2013-06-30T11:28:40.000Z</time>
      </trkpt>
      <trkpt lat="46.7001" lon="5.81389">
        <ele>684.888671875</ele>
        <time>2013-06-30T11:28:42.000Z</time>
      </trkpt>
      <trkpt lat="46.70011" lon="5.814">
        <ele>684.99444580078</ele>
        <time>2013-06-30T11:28:44.000Z</time>
      </trkpt>
      <trkpt lat="46.70012" lon="5.81412">
        <ele>685.12054443359</ele>
        <time>2013-06-30T11:28:46.000Z</time>
      </trkpt>
      <trkpt lat="46.70014" lon="5.81424">
        <ele>686.32904052734</ele>
        <time>2013-06-30T11:28:48.000Z</time>
      </trkpt>
      <trkpt lat="46.70016" lon="5.81436">
        <ele>686.39373779297</ele>
        <time>2013-06-30T11:28:50.000Z</time>
      </trkpt>
      <trkpt lat="46.70017" lon="5.81449">
        <ele>686.47283935547</ele>
        <time>2013-06-30T11:28:52.000Z</time>
      </trkpt>
      <trkpt lat="46.70017" lon="5.8146">
        <ele>686.94323730469</ele>
        <time>2013-06-30T11:28:54.000Z</time>
      </trkpt>
      <trkpt lat="46.70015" lon="5.81471">
        <ele>687.17559814453</ele>
        <time>2013-06-30T11:28:56.000Z</time>
      </trkpt>
      <trkpt lat="46.70013" lon="5.81482">
        <ele>687.83471679688</ele>
        <time>2013-06-30T11:28:58.000Z</time>
      </trkpt>
      <trkpt lat="46.7001" lon="5.81495">
        <ele>688.47076416016</ele>
        <time>2013-06-30T11:29:00.000Z</time>
      </trkpt>
      <trkpt lat="46.70007" lon="5.81507">
        <ele>688.98718261719</ele>
        <time>2013-06-30T11:29:02.000Z</time>
      </trkpt>
      <trkpt lat="46.70003" lon="5.81519">
        <ele>690.16131591797</ele>
        <time>2013-06-30T11:29:04.000Z</time>
      </trkpt>
      <trkpt lat="46.7" lon="5.81531">
        <ele>692.14074707031</ele>
        <time>2013-06-30T11:29:06.000Z</time>
      </trkpt>
      <trkpt lat="46.69998" lon="5.81542">
        <ele>693.95849609375</ele>
        <time>2013-06-30T11:29:08.000Z</time>
      </trkpt>
      <trkpt lat="46.69994" lon="5.81554">
        <ele>694.82214355469</ele>
        <time>2013-06-30T11:29:10.000Z</time>
      </trkpt>
      <trkpt lat="46.69992" lon="5.81566">
        <ele>695.12933349609</ele>
        <time>2013-06-30T11:29:12.000Z</time>
      </trkpt>
      <trkpt lat="46.6999" lon="5.81577">
        <ele>695.16345214844</ele>
        <time>2013-06-30T11:29:14.000Z</time>
      </trkpt>
      <trkpt lat="46.69988" lon="5.81589">
        <ele>695.14978027344</ele>
        <time>2013-06-30T11:29:16.000Z</time>
      </trkpt>
      <trkpt lat="46.69987" lon="5.81601">
        <ele>695.11279296875</ele>
        <time>2013-06-30T11:29:18.000Z</time>
      </trkpt>
      <trkpt lat="46.69986" lon="5.81613">
        <ele>695.06921386719</ele>
        <time>2013-06-30T11:29:20.000Z</time>
      </trkpt>
      <trkpt lat="46.69985" lon="5.81622">
        <ele>695.11053466797</ele>
        <time>2013-06-30T11:29:22.000Z</time>
      </trkpt>
      <trkpt lat="46.69986" lon="5.81634">
        <ele>695.154296875</ele>
        <time>2013-06-30T11:29:24.000Z</time>
      </trkpt>
      <trkpt lat="46.69985" lon="5.81646">
        <ele>695.19079589844</ele>
        <time>2013-06-30T11:29:26.000Z</time>
      </trkpt>
      <trkpt lat="46.69984" lon="5.81657">
        <ele>695.22149658203</ele>
        <time>2013-06-30T11:29:28.000Z</time>
      </trkpt>
      <trkpt lat="46.69984" lon="5.81668">
        <ele>695.28576660156</ele>
        <time>2013-06-30T11:29:30.000Z</time>
      </trkpt>
      <trkpt lat="46.69985" lon="5.8168">
        <ele>695.41485595703</ele>
        <time>2013-06-30T11:29:32.000Z</time>
      </trkpt>
      <trkpt lat="46.69986" lon="5.81692">
        <ele>695.48876953125</ele>
        <time>2013-06-30T11:29:34.000Z</time>
      </trkpt>
      <trkpt lat="46.69989" lon="5.81702">
        <ele>695.64038085938</ele>
        <time>2013-06-30T11:29:36.000Z</time>
      </trkpt>
      <trkpt lat="46.69992" lon="5.81711">
        <ele>695.84393310547</ele>
        <time>2013-06-30T11:29:38.000Z</time>
      </trkpt>
      <trkpt lat="46.69994" lon="5.8172">
        <ele>696.67535400391</ele>
        <time>2013-06-30T11:29:40.000Z</time>
      </trkpt>
      <trkpt lat="46.69997" lon="5.81732">
        <ele>697.49798583984</ele>
        <time>2013-06-30T11:29:42.000Z</time>
      </trkpt>
      <trkpt lat="46.69999" lon="5.81746">
        <ele>697.48937988281</ele>
        <time>2013-06-30T11:29:44.000Z</time>
      </trkpt>
      <trkpt lat="46.70002" lon="5.81759">
        <ele>697.67706298828</ele>
        <time>2013-06-30T11:29:46.000Z</time>
      </trkpt>
      <trkpt lat="46.70006" lon="5.81773">
        <ele>697.44097900391</ele>
        <time>2013-06-30T11:29:48.000Z</time>
      </trkpt>
      <trkpt lat="46.70012" lon="5.81787">
        <ele>696.75402832031</ele>
        <time>2013-06-30T11:29:50.000Z</time>
      </trkpt>
      <trkpt lat="46.70018" lon="5.81799">
        <ele>695.27459716797</ele>
        <time>2013-06-30T11:29:52.000Z</time>
      </trkpt>
      <trkpt lat="46.70025" lon="5.81813">
        <ele>694.37261962891</ele>
        <time>2013-06-30T11:29:54.000Z</time>
      </trkpt>
      <trkpt lat="46.70032" lon="5.81826">
        <ele>694.80773925781</ele>
        <time>2013-06-30T11:29:56.000Z</time>
      </trkpt>
      <trkpt lat="46.70039" lon="5.81838">
        <ele>695.67205810547</ele>
        <time>2013-06-30T11:29:58.000Z</time>
      </trkpt>
      <trkpt lat="46.70043" lon="5.81853">
        <ele>695.96844482422</ele>
        <time>2013-06-30T11:30:00.000Z</time>
      </trkpt>
      <trkpt lat="46.70047" lon="5.81868">
        <ele>696.26898193359</ele>
        <time>2013-06-30T11:30:02.000Z</time>
      </trkpt>
      <trkpt lat="46.70049" lon="5.81884">
        <ele>696.54370117188</ele>
        <time>2013-06-30T11:30:04.000Z</time>
      </trkpt>
      <trkpt lat="46.70052" lon="5.819">
        <ele>697.00219726562</ele>
        <time>2013-06-30T11:30:06.000Z</time>
      </trkpt>
      <trkpt lat="46.70054" lon="5.81916">
        <ele>697.36926269531</ele>
        <time>2013-06-30T11:30:08.000Z</time>
      </trkpt>
      <trkpt lat="46.70056" lon="5.81933">
        <ele>696.62646484375</ele>
        <time>2013-06-30T11:30:10.000Z</time>
      </trkpt>
      <trkpt lat="46.70058" lon="5.81952">
        <ele>695.95709228516</ele>
        <time>2013-06-30T11:30:12.000Z</time>
      </trkpt>
      <trkpt lat="46.7006" lon="5.81969">
        <ele>695.53533935547</ele>
        <time>2013-06-30T11:30:14.000Z</time>
      </trkpt>
      <trkpt lat="46.70062" lon="5.81985">
        <ele>695.35784912109</ele>
        <time>2013-06-30T11:30:16.000Z</time>
      </trkpt>
      <trkpt lat="46.70064" lon="5.82">
        <ele>696.16857910156</ele>
        <time>2013-06-30T11:30:18.000Z</time>
      </trkpt>
      <trkpt lat="46.70068" lon="5.82016">
        <ele>696.77166748047</ele>
        <time>2013-06-30T11:30:20.000Z</time>
      </trkpt>
      <trkpt lat="46.70073" lon="5.8203">
        <ele>697.77264404297</ele>
        <time>2013-06-30T11:30:22.000Z</time>
      </trkpt>
      <trkpt lat="46.70081" lon="5.82043">
        <ele>697.88031005859</ele>
        <time>2013-06-30T11:30:24.000Z</time>
      </trkpt>
      <trkpt lat="46.70089" lon="5.82057">
        <ele>698.02087402344</ele>
        <time>2013-06-30T11:30:26.000Z</time>
      </trkpt>
      <trkpt lat="46.70097" lon="5.8207">
        <ele>697.87530517578</ele>
        <time>2013-06-30T11:30:28.000Z</time>
      </trkpt>
      <trkpt lat="46.70106" lon="5.82084">
        <ele>697.52484130859</ele>
        <time>2013-06-30T11:30:30.000Z</time>
      </trkpt>
      <trkpt lat="46.70114" lon="5.821">
        <ele>698.10595703125</ele>
        <time>2013-06-30T11:30:32.000Z</time>
      </trkpt>
      <trkpt lat="46.70122" lon="5.82115">
        <ele>698.46380615234</ele>
        <time>2013-06-30T11:30:34.000Z</time>
      </trkpt>
      <trkpt lat="46.70129" lon="5.82129">
        <ele>698.37969970703</ele>
        <time>2013-06-30T11:30:36.000Z</time>
      </trkpt>
      <trkpt lat="46.70136" lon="5.82143">
        <ele>698.01129150391</ele>
        <time>2013-06-30T11:30:38.000Z</time>
      </trkpt>
      <trkpt lat="46.70144" lon="5.8216">
        <ele>697.62341308594</ele>
        <time>2013-06-30T11:30:40.000Z</time>
      </trkpt>
      <trkpt lat="46.70153" lon="5.82174">
        <ele>696.93084716797</ele>
        <time>2013-06-30T11:30:42.000Z</time>
      </trkpt>
      <trkpt lat="46.70162" lon="5.8219">
        <ele>696.44940185547</ele>
        <time>2013-06-30T11:30:44.000Z</time>
      </trkpt>
      <trkpt lat="46.7017" lon="5.82205">
        <ele>696.01470947266</ele>
        <time>2013-06-30T11:30:46.000Z</time>
      </trkpt>
      <trkpt lat="46.70178" lon="5.82219">
        <ele>695.74548339844</ele>
        <time>2013-06-30T11:30:48.000Z</time>
      </trkpt>
      <trkpt lat="46.70186" lon="5.82232">
        <ele>696.12017822266</ele>
        <time>2013-06-30T11:30:50.000Z</time>
      </trkpt>
      <trkpt lat="46.70193" lon="5.82246">
        <ele>696.28649902344</ele>
        <time>2013-06-30T11:30:52.000Z</time>
      </trkpt>
      <trkpt lat="46.70201" lon="5.8226">
        <ele>695.64556884766</ele>
        <time>2013-06-30T11:30:54.000Z</time>
      </trkpt>
      <trkpt lat="46.70209" lon="5.82273">
        <ele>694.55993652344</ele>
        <time>2013-06-30T11:30:56.000Z</time>
      </trkpt>
      <trkpt lat="46.70217" lon="5.82288">
        <ele>694.15460205078</ele>
        <time>2013-06-30T11:30:58.000Z</time>
      </trkpt>
      <trkpt lat="46.70226" lon="5.82304">
        <ele>693.78570556641</ele>
        <time>2013-06-30T11:31:00.000Z</time>
      </trkpt>
      <trkpt lat="46.70234" lon="5.82319">
        <ele>693.11389160156</ele>
        <time>2013-06-30T11:31:02.000Z</time>
      </trkpt>
      <trkpt lat="46.70244" lon="5.82334">
        <ele>692.53735351562</ele>
        <time>2013-06-30T11:31:04.000Z</time>
      </trkpt>
      <trkpt lat="46.70252" lon="5.82347">
        <ele>691.99584960938</ele>
        <time>2013-06-30T11:31:06.000Z</time>
      </trkpt>
      <trkpt lat="46.70259" lon="5.8236">
        <ele>692.39495849609</ele>
        <time>2013-06-30T11:31:08.000Z</time>
      </trkpt>
      <trkpt lat="46.70267" lon="5.82373">
        <ele>692.38507080078</ele>
        <time>2013-06-30T11:31:10.000Z</time>
      </trkpt>
      <trkpt lat="46.70274" lon="5.82385">
        <ele>692.18609619141</ele>
        <time>2013-06-30T11:31:12.000Z</time>
      </trkpt>
      <trkpt lat="46.70282" lon="5.82398">
        <ele>692.30517578125</ele>
        <time>2013-06-30T11:31:14.000Z</time>
      </trkpt>
      <trkpt lat="46.7029" lon="5.82412">
        <ele>693.54730224609</ele>
        <time>2013-06-30T11:31:16.000Z</time>
      </trkpt>
      <trkpt lat="46.70297" lon="5.82424">
        <ele>694.43103027344</ele>
        <time>2013-06-30T11:31:18.000Z</time>
      </trkpt>
      <trkpt lat="46.70305" lon="5.82436">
        <ele>695.029296875</ele>
        <time>2013-06-30T11:31:20.000Z</time>
      </trkpt>
      <trkpt lat="46.70314" lon="5.82451">
        <ele>694.71405029297</ele>
        <time>2013-06-30T11:31:22.000Z</time>
      </trkpt>
      <trkpt lat="46.70322" lon="5.82464">
        <ele>692.58703613281</ele>
        <time>2013-06-30T11:31:24.000Z</time>
      </trkpt>
      <trkpt lat="46.70331" lon="5.82479">
        <ele>690.84423828125</ele>
        <time>2013-06-30T11:31:26.000Z</time>
      </trkpt>
      <trkpt lat="46.70339" lon="5.82492">
        <ele>689.81872558594</ele>
        <time>2013-06-30T11:31:28.000Z</time>
      </trkpt>
      <trkpt lat="46.70347" lon="5.82508">
        <ele>689.61938476562</ele>
        <time>2013-06-30T11:31:30.000Z</time>
      </trkpt>
      <trkpt lat="46.70355" lon="5.82521">
        <ele>689.69177246094</ele>
        <time>2013-06-30T11:31:32.000Z</time>
      </trkpt>
      <trkpt lat="46.70364" lon="5.82533">
        <ele>690.14764404297</ele>
        <time>2013-06-30T11:31:34.000Z</time>
      </trkpt>
      <trkpt lat="46.70372" lon="5.82543">
        <ele>689.17755126953</ele>
        <time>2013-06-30T11:31:36.000Z</time>
      </trkpt>
      <trkpt lat="46.70382" lon="5.82555">
        <ele>688.15844726562</ele>
        <time>2013-06-30T11:31:38.000Z</time>
      </trkpt>
      <trkpt lat="46.70391" lon="5.82565">
        <ele>687.64404296875</ele>
        <time>2013-06-30T11:31:40.000Z</time>
      </trkpt>
      <trkpt lat="46.70397" lon="5.82572">
        <ele>687.62799072266</ele>
        <time>2013-06-30T11:31:42.000Z</time>
      </trkpt>
      <trkpt lat="46.70402" lon="5.82576">
        <ele>687.64520263672</ele>
        <time>2013-06-30T11:31:44.000Z</time>
      </trkpt>
      <trkpt lat="46.70406" lon="5.8258">
        <ele>687.66186523438</ele>
        <time>2013-06-30T11:31:46.000Z</time>
      </trkpt>
      <trkpt lat="46.70412" lon="5.82586">
        <ele>687.63366699219</ele>
        <time>2013-06-30T11:31:48.000Z</time>
      </trkpt>
      <trkpt lat="46.7042" lon="5.82595">
        <ele>687.05670166016</ele>
        <time>2013-06-30T11:31:50.000Z</time>
      </trkpt>
      <trkpt lat="46.70428" lon="5.82604">
        <ele>686.77471923828</ele>
        <time>2013-06-30T11:31:52.000Z</time>
      </trkpt>
      <trkpt lat="46.70437" lon="5.82614">
        <ele>686.44616699219</ele>
        <time>2013-06-30T11:31:54.000Z</time>
      </trkpt>
      <trkpt lat="46.70444" lon="5.82625">
        <ele>686.22216796875</ele>
        <time>2013-06-30T11:31:56.000Z</time>
      </trkpt>
      <trkpt lat="46.70452" lon="5.82637">
        <ele>686.51861572266</ele>
        <time>2013-06-30T11:31:58.000Z</time>
      </trkpt>
      <trkpt lat="46.70459" lon="5.82648">
        <ele>686.56066894531</ele>
        <time>2013-06-30T11:32:00.000Z</time>
      </trkpt>
      <trkpt lat="46.70466" lon="5.82658">
        <ele>686.23461914062</ele>
        <time>2013-06-30T11:32:02.000Z</time>
      </trkpt>
      <trkpt lat="46.70472" lon="5.82668">
        <ele>685.89776611328</ele>
        <time>2013-06-30T11:32:04.000Z</time>
      </trkpt>
      <trkpt lat="46.70478" lon="5.82676">
        <ele>686.13293457031</ele>
        <time>2013-06-30T11:32:06.000Z</time>
      </trkpt>
      <trkpt lat="46.70484" lon="5.82684">
        <ele>686.48059082031</ele>
        <time>2013-06-30T11:32:08.000Z</time>
      </trkpt>
      <trkpt lat="46.70488" lon="5.82691">
        <ele>686.53094482422</ele>
        <time>2013-06-30T11:32:10.000Z</time>
      </trkpt>
      <trkpt lat="46.70494" lon="5.82698">
        <ele>686.583984375</ele>
        <time>2013-06-30T11:32:12.000Z</time>
      </trkpt>
      <trkpt lat="46.70499" lon="5.82705">
        <ele>686.68792724609</ele>
        <time>2013-06-30T11:32:14.000Z</time>
      </trkpt>
      <trkpt lat="46.70503" lon="5.82713">
        <ele>686.8857421875</ele>
        <time>2013-06-30T11:32:16.000Z</time>
      </trkpt>
      <trkpt lat="46.70507" lon="5.8272">
        <ele>687.17730712891</ele>
        <time>2013-06-30T11:32:18.000Z</time>
      </trkpt>
      <trkpt lat="46.70512" lon="5.82727">
        <ele>687.53302001953</ele>
        <time>2013-06-30T11:32:20.000Z</time>
      </trkpt>
      <trkpt lat="46.70515" lon="5.82733">
        <ele>687.88092041016</ele>
        <time>2013-06-30T11:32:22.000Z</time>
      </trkpt>
      <trkpt lat="46.70519" lon="5.82739">
        <ele>688.20489501953</ele>
        <time>2013-06-30T11:32:24.000Z</time>
      </trkpt>
      <trkpt lat="46.70522" lon="5.82745">
        <ele>688.48620605469</ele>
        <time>2013-06-30T11:32:26.000Z</time>
      </trkpt>
      <trkpt lat="46.70527" lon="5.82751">
        <ele>688.70971679688</ele>
        <time>2013-06-30T11:32:28.000Z</time>
      </trkpt>
      <trkpt lat="46.70531" lon="5.82756">
        <ele>688.90081787109</ele>
        <time>2013-06-30T11:32:30.000Z</time>
      </trkpt>
      <trkpt lat="46.70535" lon="5.82761">
        <ele>689.04827880859</ele>
        <time>2013-06-30T11:32:32.000Z</time>
      </trkpt>
      <trkpt lat="46.70539" lon="5.82766">
        <ele>689.10516357422</ele>
        <time>2013-06-30T11:32:34.000Z</time>
      </trkpt>
      <trkpt lat="46.70543" lon="5.82772">
        <ele>689.17095947266</ele>
        <time>2013-06-30T11:32:36.000Z</time>
      </trkpt>
      <trkpt lat="46.70548" lon="5.82777">
        <ele>689.30072021484</ele>
        <time>2013-06-30T11:32:38.000Z</time>
      </trkpt>
      <trkpt lat="46.70554" lon="5.82783">
        <ele>689.51971435547</ele>
        <time>2013-06-30T11:32:40.000Z</time>
      </trkpt>
      <trkpt lat="46.70559" lon="5.82787">
        <ele>689.73541259766</ele>
        <time>2013-06-30T11:32:42.000Z</time>
      </trkpt>
      <trkpt lat="46.70564" lon="5.82791">
        <ele>689.95642089844</ele>
        <time>2013-06-30T11:32:44.000Z</time>
      </trkpt>
      <trkpt lat="46.7057" lon="5.82796">
        <ele>690.17938232422</ele>
        <time>2013-06-30T11:32:46.000Z</time>
      </trkpt>
      <trkpt lat="46.70576" lon="5.82801">
        <ele>690.42523193359</ele>
        <time>2013-06-30T11:32:48.000Z</time>
      </trkpt>
      <trkpt lat="46.70583" lon="5.82807">
        <ele>690.62640380859</ele>
        <time>2013-06-30T11:32:50.000Z</time>
      </trkpt>
      <trkpt lat="46.7059" lon="5.82813">
        <ele>690.83734130859</ele>
        <time>2013-06-30T11:32:52.000Z</time>
      </trkpt>
      <trkpt lat="46.70596" lon="5.82818">
        <ele>691.03045654297</ele>
        <time>2013-06-30T11:32:54.000Z</time>
      </trkpt>
      <trkpt lat="46.70602" lon="5.82823">
        <ele>691.23492431641</ele>
        <time>2013-06-30T11:32:56.000Z</time>
      </trkpt>
      <trkpt lat="46.70607" lon="5.82829">
        <ele>691.44079589844</ele>
        <time>2013-06-30T11:32:58.000Z</time>
      </trkpt>
      <trkpt lat="46.70612" lon="5.82834">
        <ele>691.65008544922</ele>
        <time>2013-06-30T11:33:00.000Z</time>
      </trkpt>
      <trkpt lat="46.70616" lon="5.82839">
        <ele>691.86895751953</ele>
        <time>2013-06-30T11:33:02.000Z</time>
      </trkpt>
      <trkpt lat="46.70621" lon="5.82844">
        <ele>692.09454345703</ele>
        <time>2013-06-30T11:33:04.000Z</time>
      </trkpt>
      <trkpt lat="46.70625" lon="5.8285">
        <ele>692.2998046875</ele>
        <time>2013-06-30T11:33:06.000Z</time>
      </trkpt>
      <trkpt lat="46.7063" lon="5.82855">
        <ele>692.52575683594</ele>
        <time>2013-06-30T11:33:08.000Z</time>
      </trkpt>
      <trkpt lat="46.70634" lon="5.82861">
        <ele>692.74645996094</ele>
        <time>2013-06-30T11:33:10.000Z</time>
      </trkpt>
      <trkpt lat="46.70639" lon="5.82867">
        <ele>692.96795654297</ele>
        <time>2013-06-30T11:33:12.000Z</time>
      </trkpt>
      <trkpt lat="46.70643" lon="5.82873">
        <ele>693.20788574219</ele>
        <time>2013-06-30T11:33:14.000Z</time>
      </trkpt>
      <trkpt lat="46.70648" lon="5.8288">
        <ele>693.45037841797</ele>
        <time>2013-06-30T11:33:16.000Z</time>
      </trkpt>
      <trkpt lat="46.70654" lon="5.82888">
        <ele>693.68597412109</ele>
        <time>2013-06-30T11:33:18.000Z</time>
      </trkpt>
      <trkpt lat="46.70659" lon="5.82894">
        <ele>693.88946533203</ele>
        <time>2013-06-30T11:33:20.000Z</time>
      </trkpt>
      <trkpt lat="46.70664" lon="5.829">
        <ele>694.08404541016</ele>
        <time>2013-06-30T11:33:22.000Z</time>
      </trkpt>
      <trkpt lat="46.70669" lon="5.82906">
        <ele>694.25280761719</ele>
        <time>2013-06-30T11:33:24.000Z</time>
      </trkpt>
      <trkpt lat="46.70675" lon="5.82912">
        <ele>694.43176269531</ele>
        <time>2013-06-30T11:33:26.000Z</time>
      </trkpt>
      <trkpt lat="46.70681" lon="5.82919">
        <ele>694.65045166016</ele>
        <time>2013-06-30T11:33:28.000Z</time>
      </trkpt>
      <trkpt lat="46.70686" lon="5.82925">
        <ele>694.91223144531</ele>
        <time>2013-06-30T11:33:30.000Z</time>
      </trkpt>
      <trkpt lat="46.70691" lon="5.82932">
        <ele>695.11645507812</ele>
        <time>2013-06-30T11:33:32.000Z</time>
      </trkpt>
      <trkpt lat="46.70697" lon="5.82939">
        <ele>695.34967041016</ele>
        <time>2013-06-30T11:33:34.000Z</time>
      </trkpt>
      <trkpt lat="46.70703" lon="5.82945">
        <ele>695.625</ele>
        <time>2013-06-30T11:33:36.000Z</time>
      </trkpt>
      <trkpt lat="46.70709" lon="5.82951">
        <ele>695.92596435547</ele>
        <time>2013-06-30T11:33:38.000Z</time>
      </trkpt>
      <trkpt lat="46.70717" lon="5.82955">
        <ele>697.55291748047</ele>
        <time>2013-06-30T11:33:40.000Z</time>
      </trkpt>
      <trkpt lat="46.70723" lon="5.82959">
        <ele>698.77862548828</ele>
        <time>2013-06-30T11:33:42.000Z</time>
      </trkpt>
      <trkpt lat="46.70731" lon="5.82964">
        <ele>699.50506591797</ele>
        <time>2013-06-30T11:33:44.000Z</time>
      </trkpt>
      <trkpt lat="46.70739" lon="5.82969">
        <ele>699.94195556641</ele>
        <time>2013-06-30T11:33:46.000Z</time>
      </trkpt>
      <trkpt lat="46.70747" lon="5.82973">
        <ele>700.30480957031</ele>
        <time>2013-06-30T11:33:48.000Z</time>
      </trkpt>
      <trkpt lat="46.70753" lon="5.82976">
        <ele>700.41998291016</ele>
        <time>2013-06-30T11:33:50.000Z</time>
      </trkpt>
      <trkpt lat="46.7076" lon="5.82979">
        <ele>701.21002197266</ele>
        <time>2013-06-30T11:33:52.000Z</time>
      </trkpt>
      <trkpt lat="46.70765" lon="5.82982">
        <ele>701.41363525391</ele>
        <time>2013-06-30T11:33:54.000Z</time>
      </trkpt>
      <trkpt lat="46.70772" lon="5.82986">
        <ele>701.66351318359</ele>
        <time>2013-06-30T11:33:56.000Z</time>
      </trkpt>
      <trkpt lat="46.70777" lon="5.82991">
        <ele>702.01312255859</ele>
        <time>2013-06-30T11:33:59.000Z</time>
      </trkpt>
      <trkpt lat="46.70774" lon="5.82993">
        <ele>705.41607666016</ele>
        <time>2013-06-30T11:39:06.999Z</time>
      </trkpt>
      <trkpt lat="46.70778" lon="5.82991">
        <ele>705.46051025391</ele>
        <time>2013-06-30T11:39:25.999Z</time>
      </trkpt>
      <trkpt lat="46.70782" lon="5.8299">
        <ele>705.45593261719</ele>
        <time>2013-06-30T11:39:38.999Z</time>
      </trkpt>
      <trkpt lat="46.70778" lon="5.82991">
        <ele>705.83166503906</ele>
        <time>2013-06-30T11:40:18.999Z</time>
      </trkpt>
      <trkpt lat="46.70774" lon="5.82988">
        <ele>706.48345947266</ele>
        <time>2013-06-30T11:42:54.999Z</time>
      </trkpt>
      <trkpt lat="46.70777" lon="5.82988">
        <ele>708.67596435547</ele>
        <time>2013-06-30T11:43:38.999Z</time>
      </trkpt>
      <trkpt lat="46.70782" lon="5.8299">
        <ele>709.62622070312</ele>
        <time>2013-06-30T11:43:41.999Z</time>
      </trkpt>
      <trkpt lat="46.70786" lon="5.82992">
        <ele>710.23480224609</ele>
        <time>2013-06-30T11:43:43.999Z</time>
      </trkpt>
      <trkpt lat="46.70791" lon="5.82994">
        <ele>710.759765625</ele>
        <time>2013-06-30T11:43:45.999Z</time>
      </trkpt>
      <trkpt lat="46.70795" lon="5.82998">
        <ele>711.16101074219</ele>
        <time>2013-06-30T11:43:47.999Z</time>
      </trkpt>
      <trkpt lat="46.70802" lon="5.83003">
        <ele>711.45556640625</ele>
        <time>2013-06-30T11:43:49.999Z</time>
      </trkpt>
      <trkpt lat="46.70809" lon="5.8301">
        <ele>711.66589355469</ele>
        <time>2013-06-30T11:43:51.999Z</time>
      </trkpt>
      <trkpt lat="46.70817" lon="5.83017">
        <ele>712.26068115234</ele>
        <time>2013-06-30T11:43:53.999Z</time>
      </trkpt>
      <trkpt lat="46.70824" lon="5.83024">
        <ele>712.63067626953</ele>
        <time>2013-06-30T11:43:55.999Z</time>
      </trkpt>
      <trkpt lat="46.7083" lon="5.8303">
        <ele>712.56610107422</ele>
        <time>2013-06-30T11:43:57.999Z</time>
      </trkpt>
      <trkpt lat="46.70835" lon="5.83037">
        <ele>712.44177246094</ele>
        <time>2013-06-30T11:43:59.999Z</time>
      </trkpt>
      <trkpt lat="46.7084" lon="5.83042">
        <ele>712.30413818359</ele>
        <time>2013-06-30T11:44:01.999Z</time>
      </trkpt>
      <trkpt lat="46.70847" lon="5.83049">
        <ele>712.12829589844</ele>
        <time>2013-06-30T11:44:03.999Z</time>
      </trkpt>
      <trkpt lat="46.70853" lon="5.83055">
        <ele>711.92706298828</ele>
        <time>2013-06-30T11:44:05.999Z</time>
      </trkpt>
      <trkpt lat="46.70859" lon="5.83061">
        <ele>711.70623779297</ele>
        <time>2013-06-30T11:44:07.999Z</time>
      </trkpt>
      <trkpt lat="46.70865" lon="5.83066">
        <ele>711.48309326172</ele>
        <time>2013-06-30T11:44:09.999Z</time>
      </trkpt>
      <trkpt lat="46.70871" lon="5.8307">
        <ele>711.29211425781</ele>
        <time>2013-06-30T11:44:11.999Z</time>
      </trkpt>
      <trkpt lat="46.70878" lon="5.83074">
        <ele>711.17803955078</ele>
        <time>2013-06-30T11:44:13.999Z</time>
      </trkpt>
      <trkpt lat="46.70885" lon="5.83078">
        <ele>711.09204101562</ele>
        <time>2013-06-30T11:44:15.999Z</time>
      </trkpt>
      <trkpt lat="46.70891" lon="5.83082">
        <ele>710.98980712891</ele>
        <time>2013-06-30T11:44:17.999Z</time>
      </trkpt>
      <trkpt lat="46.70897" lon="5.83085">
        <ele>710.89349365234</ele>
        <time>2013-06-30T11:44:19.999Z</time>
      </trkpt>
      <trkpt lat="46.70905" lon="5.8309">
        <ele>710.70574951172</ele>
        <time>2013-06-30T11:44:21.999Z</time>
      </trkpt>
      <trkpt lat="46.70913" lon="5.83095">
        <ele>709.5439453125</ele>
        <time>2013-06-30T11:44:23.999Z</time>
      </trkpt>
      <trkpt lat="46.70922" lon="5.831">
        <ele>707.28741455078</ele>
        <time>2013-06-30T11:44:25.999Z</time>
      </trkpt>
      <trkpt lat="46.7093" lon="5.83106">
        <ele>705.22265625</ele>
        <time>2013-06-30T11:44:27.999Z</time>
      </trkpt>
      <trkpt lat="46.70939" lon="5.83111">
        <ele>703.55297851562</ele>
        <time>2013-06-30T11:44:29.999Z</time>
      </trkpt>
      <trkpt lat="46.70947" lon="5.83115">
        <ele>702.09558105469</ele>
        <time>2013-06-30T11:44:31.999Z</time>
      </trkpt>
      <trkpt lat="46.70954" lon="5.83119">
        <ele>701.20947265625</ele>
        <time>2013-06-30T11:44:33.999Z</time>
      </trkpt>
      <trkpt lat="46.70961" lon="5.83123">
        <ele>701.39276123047</ele>
        <time>2013-06-30T11:44:35.999Z</time>
      </trkpt>
      <trkpt lat="46.70968" lon="5.83128">
        <ele>701.63848876953</ele>
        <time>2013-06-30T11:44:37.999Z</time>
      </trkpt>
      <trkpt lat="46.70974" lon="5.83136">
        <ele>702.35168457031</ele>
        <time>2013-06-30T11:44:39.999Z</time>
      </trkpt>
      <trkpt lat="46.7098" lon="5.83144">
        <ele>703.51049804688</ele>
        <time>2013-06-30T11:44:41.999Z</time>
      </trkpt>
      <trkpt lat="46.70987" lon="5.83153">
        <ele>704.29827880859</ele>
        <time>2013-06-30T11:44:43.999Z</time>
      </trkpt>
      <trkpt lat="46.70995" lon="5.83165">
        <ele>703.46484375</ele>
        <time>2013-06-30T11:44:45.999Z</time>
      </trkpt>
      <trkpt lat="46.71001" lon="5.83175">
        <ele>702.47692871094</ele>
        <time>2013-06-30T11:44:47.999Z</time>
      </trkpt>
      <trkpt lat="46.71006" lon="5.83185">
        <ele>701.99353027344</ele>
        <time>2013-06-30T11:44:49.999Z</time>
      </trkpt>
      <trkpt lat="46.71012" lon="5.83196">
        <ele>702.09252929688</ele>
        <time>2013-06-30T11:44:51.999Z</time>
      </trkpt>
      <trkpt lat="46.71019" lon="5.83208">
        <ele>701.90466308594</ele>
        <time>2013-06-30T11:44:53.999Z</time>
      </trkpt>
      <trkpt lat="46.71025" lon="5.8322">
        <ele>702.22326660156</ele>
        <time>2013-06-30T11:44:55.999Z</time>
      </trkpt>
      <trkpt lat="46.71029" lon="5.83233">
        <ele>701.73608398438</ele>
        <time>2013-06-30T11:44:57.999Z</time>
      </trkpt>
      <trkpt lat="46.7103" lon="5.83246">
        <ele>701.30065917969</ele>
        <time>2013-06-30T11:44:59.999Z</time>
      </trkpt>
      <trkpt lat="46.71026" lon="5.83257">
        <ele>701.20245361328</ele>
        <time>2013-06-30T11:45:01.999Z</time>
      </trkpt>
      <trkpt lat="46.71021" lon="5.8327">
        <ele>700.96105957031</ele>
        <time>2013-06-30T11:45:03.999Z</time>
      </trkpt>
      <trkpt lat="46.71017" lon="5.83284">
        <ele>700.44689941406</ele>
        <time>2013-06-30T11:45:05.999Z</time>
      </trkpt>
      <trkpt lat="46.71012" lon="5.83296">
        <ele>700.08813476562</ele>
        <time>2013-06-30T11:45:07.999Z</time>
      </trkpt>
      <trkpt lat="46.71007" lon="5.83305">
        <ele>700.16436767578</ele>
        <time>2013-06-30T11:45:09.999Z</time>
      </trkpt>
      <trkpt lat="46.71002" lon="5.83315">
        <ele>700.81188964844</ele>
        <time>2013-06-30T11:45:11.999Z</time>
      </trkpt>
      <trkpt lat="46.70997" lon="5.83327">
        <ele>701.20599365234</ele>
        <time>2013-06-30T11:45:13.999Z</time>
      </trkpt>
      <trkpt lat="46.70992" lon="5.83336">
        <ele>701.67785644531</ele>
        <time>2013-06-30T11:45:15.999Z</time>
      </trkpt>
      <trkpt lat="46.70986" lon="5.83346">
        <ele>702.25238037109</ele>
        <time>2013-06-30T11:45:17.999Z</time>
      </trkpt>
      <trkpt lat="46.70981" lon="5.83358">
        <ele>702.64776611328</ele>
        <time>2013-06-30T11:45:19.999Z</time>
      </trkpt>
      <trkpt lat="46.70976" lon="5.83368">
        <ele>702.94476318359</ele>
        <time>2013-06-30T11:45:21.999Z</time>
      </trkpt>
      <trkpt lat="46.70973" lon="5.83377">
        <ele>704.12738037109</ele>
        <time>2013-06-30T11:45:23.999Z</time>
      </trkpt>
      <trkpt lat="46.7097" lon="5.83387">
        <ele>705.39990234375</ele>
        <time>2013-06-30T11:45:25.999Z</time>
      </trkpt>
      <trkpt lat="46.70966" lon="5.83399">
        <ele>706.119140625</ele>
        <time>2013-06-30T11:45:27.999Z</time>
      </trkpt>
      <trkpt lat="46.70963" lon="5.8341">
        <ele>706.40679931641</ele>
        <time>2013-06-30T11:45:29.999Z</time>
      </trkpt>
      <trkpt lat="46.7096" lon="5.8342">
        <ele>706.34906005859</ele>
        <time>2013-06-30T11:45:31.999Z</time>
      </trkpt>
      <trkpt lat="46.70957" lon="5.83431">
        <ele>706.5166015625</ele>
        <time>2013-06-30T11:45:33.999Z</time>
      </trkpt>
      <trkpt lat="46.70954" lon="5.83441">
        <ele>707.09777832031</ele>
        <time>2013-06-30T11:45:35.999Z</time>
      </trkpt>
      <trkpt lat="46.70951" lon="5.83451">
        <ele>707.83160400391</ele>
        <time>2013-06-30T11:45:37.999Z</time>
      </trkpt>
      <trkpt lat="46.70947" lon="5.83462">
        <ele>707.93762207031</ele>
        <time>2013-06-30T11:45:39.999Z</time>
      </trkpt>
      <trkpt lat="46.70943" lon="5.83472">
        <ele>707.85101318359</ele>
        <time>2013-06-30T11:45:41.999Z</time>
      </trkpt>
      <trkpt lat="46.7094" lon="5.83483">
        <ele>708.45294189453</ele>
        <time>2013-06-30T11:45:43.999Z</time>
      </trkpt>
      <trkpt lat="46.70937" lon="5.83494">
        <ele>709.71685791016</ele>
        <time>2013-06-30T11:45:45.999Z</time>
      </trkpt>
      <trkpt lat="46.70933" lon="5.83505">
        <ele>710.37200927734</ele>
        <time>2013-06-30T11:45:47.999Z</time>
      </trkpt>
      <trkpt lat="46.7093" lon="5.83516">
        <ele>710.61016845703</ele>
        <time>2013-06-30T11:45:49.999Z</time>
      </trkpt>
      <trkpt lat="46.70926" lon="5.83526">
        <ele>710.99053955078</ele>
        <time>2013-06-30T11:45:51.999Z</time>
      </trkpt>
      <trkpt lat="46.70922" lon="5.83536">
        <ele>711.43670654297</ele>
        <time>2013-06-30T11:45:53.999Z</time>
      </trkpt>
      <trkpt lat="46.70918" lon="5.83548">
        <ele>711.82977294922</ele>
        <time>2013-06-30T11:45:55.999Z</time>
      </trkpt>
      <trkpt lat="46.70914" lon="5.83557">
        <ele>712.00885009766</ele>
        <time>2013-06-30T11:45:57.999Z</time>
      </trkpt>
      <trkpt lat="46.70911" lon="5.83567">
        <ele>712.89520263672</ele>
        <time>2013-06-30T11:45:59.999Z</time>
      </trkpt>
      <trkpt lat="46.70907" lon="5.83578">
        <ele>713.42852783203</ele>
        <time>2013-06-30T11:46:01.999Z</time>
      </trkpt>
      <trkpt lat="46.70902" lon="5.83589">
        <ele>714.05181884766</ele>
        <time>2013-06-30T11:46:03.999Z</time>
      </trkpt>
      <trkpt lat="46.70897" lon="5.836">
        <ele>714.033203125</ele>
        <time>2013-06-30T11:46:05.999Z</time>
      </trkpt>
      <trkpt lat="46.70892" lon="5.83611">
        <ele>713.43725585938</ele>
        <time>2013-06-30T11:46:07.999Z</time>
      </trkpt>
      <trkpt lat="46.70888" lon="5.83622">
        <ele>713.01159667969</ele>
        <time>2013-06-30T11:46:09.999Z</time>
      </trkpt>
      <trkpt lat="46.70884" lon="5.83633">
        <ele>713.43688964844</ele>
        <time>2013-06-30T11:46:11.999Z</time>
      </trkpt>
      <trkpt lat="46.7088" lon="5.83644">
        <ele>714.01080322266</ele>
        <time>2013-06-30T11:46:13.999Z</time>
      </trkpt>
      <trkpt lat="46.70877" lon="5.83656">
        <ele>714.45892333984</ele>
        <time>2013-06-30T11:46:15.999Z</time>
      </trkpt>
      <trkpt lat="46.70873" lon="5.83668">
        <ele>714.43505859375</ele>
        <time>2013-06-30T11:46:17.999Z</time>
      </trkpt>
      <trkpt lat="46.70869" lon="5.8368">
        <ele>714.29119873047</ele>
        <time>2013-06-30T11:46:19.999Z</time>
      </trkpt>
      <trkpt lat="46.70865" lon="5.83692">
        <ele>714.90045166016</ele>
        <time>2013-06-30T11:46:21.999Z</time>
      </trkpt>
      <trkpt lat="46.7086" lon="5.83706">
        <ele>714.73388671875</ele>
        <time>2013-06-30T11:46:23.999Z</time>
      </trkpt>
      <trkpt lat="46.70854" lon="5.8372">
        <ele>714.07989501953</ele>
        <time>2013-06-30T11:46:25.999Z</time>
      </trkpt>
      <trkpt lat="46.70849" lon="5.83735">
        <ele>713.53912353516</ele>
        <time>2013-06-30T11:46:27.999Z</time>
      </trkpt>
      <trkpt lat="46.70845" lon="5.83749">
        <ele>712.904296875</ele>
        <time>2013-06-30T11:46:29.999Z</time>
      </trkpt>
      <trkpt lat="46.70839" lon="5.83766">
        <ele>711.78430175781</ele>
        <time>2013-06-30T11:46:31.999Z</time>
      </trkpt>
      <trkpt lat="46.70833" lon="5.83783">
        <ele>710.29180908203</ele>
        <time>2013-06-30T11:46:33.999Z</time>
      </trkpt>
      <trkpt lat="46.70826" lon="5.83799">
        <ele>709.59588623047</ele>
        <time>2013-06-30T11:46:35.999Z</time>
      </trkpt>
      <trkpt lat="46.7082" lon="5.83819">
        <ele>708.66357421875</ele>
        <time>2013-06-30T11:46:37.999Z</time>
      </trkpt>
      <trkpt lat="46.70815" lon="5.83841">
        <ele>707.52581787109</ele>
        <time>2013-06-30T11:46:39.999Z</time>
      </trkpt>
      <trkpt lat="46.70811" lon="5.83866">
        <ele>706.24420166016</ele>
        <time>2013-06-30T11:46:41.999Z</time>
      </trkpt>
      <trkpt lat="46.70808" lon="5.8389">
        <ele>705.18170166016</ele>
        <time>2013-06-30T11:46:43.999Z</time>
      </trkpt>
      <trkpt lat="46.70804" lon="5.83913">
        <ele>704.84143066406</ele>
        <time>2013-06-30T11:46:45.999Z</time>
      </trkpt>
      <trkpt lat="46.70801" lon="5.83936">
        <ele>704.83282470703</ele>
        <time>2013-06-30T11:46:47.999Z</time>
      </trkpt>
      <trkpt lat="46.70797" lon="5.83958">
        <ele>704.60302734375</ele>
        <time>2013-06-30T11:46:49.999Z</time>
      </trkpt>
      <trkpt lat="46.70792" lon="5.83979">
        <ele>704.49645996094</ele>
        <time>2013-06-30T11:46:51.999Z</time>
      </trkpt>
      <trkpt lat="46.70786" lon="5.83999">
        <ele>704.2978515625</ele>
        <time>2013-06-30T11:46:53.999Z</time>
      </trkpt>
      <trkpt lat="46.7078" lon="5.84019">
        <ele>704.41766357422</ele>
        <time>2013-06-30T11:46:55.999Z</time>
      </trkpt>
      <trkpt lat="46.70774" lon="5.84037">
        <ele>704.52777099609</ele>
        <time>2013-06-30T11:46:57.999Z</time>
      </trkpt>
      <trkpt lat="46.70768" lon="5.84058">
        <ele>703.97039794922</ele>
        <time>2013-06-30T11:46:59.999Z</time>
      </trkpt>
      <trkpt lat="46.70762" lon="5.84078">
        <ele>702.72576904297</ele>
        <time>2013-06-30T11:47:01.999Z</time>
      </trkpt>
      <trkpt lat="46.70756" lon="5.84097">
        <ele>701.84692382812</ele>
        <time>2013-06-30T11:47:03.999Z</time>
      </trkpt>
      <trkpt lat="46.70752" lon="5.84115">
        <ele>701.18914794922</ele>
        <time>2013-06-30T11:47:05.999Z</time>
      </trkpt>
      <trkpt lat="46.70747" lon="5.84133">
        <ele>700.67864990234</ele>
        <time>2013-06-30T11:47:07.999Z</time>
      </trkpt>
      <trkpt lat="46.70742" lon="5.84149">
        <ele>700.35693359375</ele>
        <time>2013-06-30T11:47:09.999Z</time>
      </trkpt>
      <trkpt lat="46.70737" lon="5.84165">
        <ele>700.26239013672</ele>
        <time>2013-06-30T11:47:11.999Z</time>
      </trkpt>
      <trkpt lat="46.70733" lon="5.84181">
        <ele>700.42956542969</ele>
        <time>2013-06-30T11:47:13.999Z</time>
      </trkpt>
      <trkpt lat="46.70729" lon="5.84198">
        <ele>700.65142822266</ele>
        <time>2013-06-30T11:47:15.999Z</time>
      </trkpt>
      <trkpt lat="46.70724" lon="5.84216">
        <ele>700.56439208984</ele>
        <time>2013-06-30T11:47:17.999Z</time>
      </trkpt>
      <trkpt lat="46.7072" lon="5.84235">
        <ele>700.56958007812</ele>
        <time>2013-06-30T11:47:19.999Z</time>
      </trkpt>
      <trkpt lat="46.70717" lon="5.84254">
        <ele>700.14208984375</ele>
        <time>2013-06-30T11:47:21.999Z</time>
      </trkpt>
      <trkpt lat="46.70713" lon="5.84272">
        <ele>699.75482177734</ele>
        <time>2013-06-30T11:47:23.999Z</time>
      </trkpt>
      <trkpt lat="46.70711" lon="5.84292">
        <ele>699.53961181641</ele>
        <time>2013-06-30T11:47:25.999Z</time>
      </trkpt>
      <trkpt lat="46.70708" lon="5.84311">
        <ele>698.96661376953</ele>
        <time>2013-06-30T11:47:27.999Z</time>
      </trkpt>
      <trkpt lat="46.70706" lon="5.8433">
        <ele>698.77160644531</ele>
        <time>2013-06-30T11:47:29.999Z</time>
      </trkpt>
      <trkpt lat="46.70704" lon="5.84349">
        <ele>698.47589111328</ele>
        <time>2013-06-30T11:47:31.999Z</time>
      </trkpt>
      <trkpt lat="46.707" lon="5.8437">
        <ele>698.07116699219</ele>
        <time>2013-06-30T11:47:33.999Z</time>
      </trkpt>
      <trkpt lat="46.70695" lon="5.84387">
        <ele>697.63006591797</ele>
        <time>2013-06-30T11:47:35.999Z</time>
      </trkpt>
      <trkpt lat="46.70688" lon="5.84403">
        <ele>697.44555664062</ele>
        <time>2013-06-30T11:47:37.999Z</time>
      </trkpt>
      <trkpt lat="46.7068" lon="5.84421">
        <ele>697.53833007812</ele>
        <time>2013-06-30T11:47:39.999Z</time>
      </trkpt>
      <trkpt lat="46.70672" lon="5.84436">
        <ele>697.7041015625</ele>
        <time>2013-06-30T11:47:41.999Z</time>
      </trkpt>
      <trkpt lat="46.70663" lon="5.84451">
        <ele>697.77423095703</ele>
        <time>2013-06-30T11:47:43.999Z</time>
      </trkpt>
      <trkpt lat="46.70654" lon="5.84465">
        <ele>697.88781738281</ele>
        <time>2013-06-30T11:47:45.999Z</time>
      </trkpt>
      <trkpt lat="46.70645" lon="5.84478">
        <ele>698.01165771484</ele>
        <time>2013-06-30T11:47:47.999Z</time>
      </trkpt>
      <trkpt lat="46.70636" lon="5.84491">
        <ele>698.27081298828</ele>
        <time>2013-06-30T11:47:49.999Z</time>
      </trkpt>
      <trkpt lat="46.70626" lon="5.84503">
        <ele>698.57830810547</ele>
        <time>2013-06-30T11:47:51.999Z</time>
      </trkpt>
      <trkpt lat="46.70617" lon="5.84516">
        <ele>698.90771484375</ele>
        <time>2013-06-30T11:47:53.999Z</time>
      </trkpt>
      <trkpt lat="46.70609" lon="5.84528">
        <ele>699.23468017578</ele>
        <time>2013-06-30T11:47:55.999Z</time>
      </trkpt>
      <trkpt lat="46.706" lon="5.8454">
        <ele>699.59698486328</ele>
        <time>2013-06-30T11:47:57.999Z</time>
      </trkpt>
      <trkpt lat="46.70592" lon="5.84553">
        <ele>699.90295410156</ele>
        <time>2013-06-30T11:47:59.999Z</time>
      </trkpt>
      <trkpt lat="46.70585" lon="5.84566">
        <ele>700.02416992188</ele>
        <time>2013-06-30T11:48:01.999Z</time>
      </trkpt>
      <trkpt lat="46.70578" lon="5.84578">
        <ele>700.01647949219</ele>
        <time>2013-06-30T11:48:03.999Z</time>
      </trkpt>
      <trkpt lat="46.7057" lon="5.84591">
        <ele>699.97900390625</ele>
        <time>2013-06-30T11:48:05.999Z</time>
      </trkpt>
      <trkpt lat="46.70563" lon="5.84604">
        <ele>699.76916503906</ele>
        <time>2013-06-30T11:48:07.999Z</time>
      </trkpt>
      <trkpt lat="46.70556" lon="5.84619">
        <ele>699.68383789062</ele>
        <time>2013-06-30T11:48:09.999Z</time>
      </trkpt>
      <trkpt lat="46.70548" lon="5.84635">
        <ele>699.81195068359</ele>
        <time>2013-06-30T11:48:11.999Z</time>
      </trkpt>
      <trkpt lat="46.70542" lon="5.84651">
        <ele>699.77581787109</ele>
        <time>2013-06-30T11:48:13.999Z</time>
      </trkpt>
      <trkpt lat="46.70535" lon="5.84668">
        <ele>699.69256591797</ele>
        <time>2013-06-30T11:48:15.999Z</time>
      </trkpt>
      <trkpt lat="46.70528" lon="5.84683">
        <ele>699.13439941406</ele>
        <time>2013-06-30T11:48:17.999Z</time>
      </trkpt>
      <trkpt lat="46.70521" lon="5.847">
        <ele>699.11859130859</ele>
        <time>2013-06-30T11:48:19.999Z</time>
      </trkpt>
      <trkpt lat="46.70514" lon="5.84718">
        <ele>699.25018310547</ele>
        <time>2013-06-30T11:48:21.999Z</time>
      </trkpt>
      <trkpt lat="46.70507" lon="5.84733">
        <ele>698.93365478516</ele>
        <time>2013-06-30T11:48:23.999Z</time>
      </trkpt>
      <trkpt lat="46.705" lon="5.84749">
        <ele>698.60833740234</ele>
        <time>2013-06-30T11:48:25.999Z</time>
      </trkpt>
      <trkpt lat="46.70492" lon="5.84767">
        <ele>698.67755126953</ele>
        <time>2013-06-30T11:48:27.999Z</time>
      </trkpt>
      <trkpt lat="46.70485" lon="5.84782">
        <ele>698.22784423828</ele>
        <time>2013-06-30T11:48:29.999Z</time>
      </trkpt>
      <trkpt lat="46.70477" lon="5.84799">
        <ele>698.05194091797</ele>
        <time>2013-06-30T11:48:31.999Z</time>
      </trkpt>
      <trkpt lat="46.70469" lon="5.84813">
        <ele>698.390625</ele>
        <time>2013-06-30T11:48:33.999Z</time>
      </trkpt>
      <trkpt lat="46.70461" lon="5.84825">
        <ele>698.36065673828</ele>
        <time>2013-06-30T11:48:35.999Z</time>
      </trkpt>
      <trkpt lat="46.70452" lon="5.84838">
        <ele>698.50311279297</ele>
        <time>2013-06-30T11:48:37.999Z</time>
      </trkpt>
      <trkpt lat="46.70443" lon="5.84851">
        <ele>698.79913330078</ele>
        <time>2013-06-30T11:48:39.999Z</time>
      </trkpt>
      <trkpt lat="46.70434" lon="5.84861">
        <ele>698.69750976562</ele>
        <time>2013-06-30T11:48:41.999Z</time>
      </trkpt>
      <trkpt lat="46.70425" lon="5.8487">
        <ele>699.61370849609</ele>
        <time>2013-06-30T11:48:43.999Z</time>
      </trkpt>
      <trkpt lat="46.70415" lon="5.8488">
        <ele>700.93408203125</ele>
        <time>2013-06-30T11:48:45.999Z</time>
      </trkpt>
      <trkpt lat="46.70405" lon="5.84889">
        <ele>701.88861083984</ele>
        <time>2013-06-30T11:48:47.999Z</time>
      </trkpt>
      <trkpt lat="46.70393" lon="5.84899">
        <ele>702.81188964844</ele>
        <time>2013-06-30T11:48:49.999Z</time>
      </trkpt>
      <trkpt lat="46.70382" lon="5.84906">
        <ele>702.15093994141</ele>
        <time>2013-06-30T11:48:51.999Z</time>
      </trkpt>
      <trkpt lat="46.7037" lon="5.84913">
        <ele>701.28308105469</ele>
        <time>2013-06-30T11:48:53.999Z</time>
      </trkpt>
      <trkpt lat="46.70358" lon="5.84919">
        <ele>701.55865478516</ele>
        <time>2013-06-30T11:48:55.999Z</time>
      </trkpt>
      <trkpt lat="46.70347" lon="5.84927">
        <ele>702.33856201172</ele>
        <time>2013-06-30T11:48:57.999Z</time>
      </trkpt>
      <trkpt lat="46.70337" lon="5.84936">
        <ele>702.81707763672</ele>
        <time>2013-06-30T11:48:59.999Z</time>
      </trkpt>
      <trkpt lat="46.70329" lon="5.8495">
        <ele>703.87677001953</ele>
        <time>2013-06-30T11:49:01.999Z</time>
      </trkpt>
      <trkpt lat="46.70321" lon="5.84964">
        <ele>704.71112060547</ele>
        <time>2013-06-30T11:49:03.999Z</time>
      </trkpt>
      <trkpt lat="46.70314" lon="5.84978">
        <ele>705.28863525391</ele>
        <time>2013-06-30T11:49:05.999Z</time>
      </trkpt>
      <trkpt lat="46.70306" lon="5.84993">
        <ele>705.79724121094</ele>
        <time>2013-06-30T11:49:07.999Z</time>
      </trkpt>
      <trkpt lat="46.70299" lon="5.85008">
        <ele>705.87658691406</ele>
        <time>2013-06-30T11:49:09.999Z</time>
      </trkpt>
      <trkpt lat="46.70294" lon="5.85023">
        <ele>705.75695800781</ele>
        <time>2013-06-30T11:49:11.999Z</time>
      </trkpt>
      <trkpt lat="46.70292" lon="5.85038">
        <ele>705.96685791016</ele>
        <time>2013-06-30T11:49:13.999Z</time>
      </trkpt>
      <trkpt lat="46.70294" lon="5.85052">
        <ele>706.29333496094</ele>
        <time>2013-06-30T11:49:15.999Z</time>
      </trkpt>
      <trkpt lat="46.70296" lon="5.85063">
        <ele>706.60223388672</ele>
        <time>2013-06-30T11:49:17.999Z</time>
      </trkpt>
      <trkpt lat="46.70297" lon="5.85071">
        <ele>706.61102294922</ele>
        <time>2013-06-30T11:49:19.999Z</time>
      </trkpt>
      <trkpt lat="46.70297" lon="5.85078">
        <ele>706.70166015625</ele>
        <time>2013-06-30T11:49:21.999Z</time>
      </trkpt>
      <trkpt lat="46.70297" lon="5.85087">
        <ele>706.99609375</ele>
        <time>2013-06-30T11:49:24.999Z</time>
      </trkpt>
      <trkpt lat="46.70297" lon="5.85095">
        <ele>707.31024169922</ele>
        <time>2013-06-30T11:49:27.999Z</time>
      </trkpt>
      <trkpt lat="46.70298" lon="5.85102">
        <ele>707.47302246094</ele>
        <time>2013-06-30T11:49:29.999Z</time>
      </trkpt>
      <trkpt lat="46.70299" lon="5.85108">
        <ele>707.59973144531</ele>
        <time>2013-06-30T11:49:31.999Z</time>
      </trkpt>
      <trkpt lat="46.70302" lon="5.85115">
        <ele>707.71337890625</ele>
        <time>2013-06-30T11:49:33.999Z</time>
      </trkpt>
      <trkpt lat="46.70304" lon="5.8512">
        <ele>707.87042236328</ele>
        <time>2013-06-30T11:49:35.999Z</time>
      </trkpt>
      <trkpt lat="46.70307" lon="5.85126">
        <ele>708.03784179688</ele>
        <time>2013-06-30T11:49:37.999Z</time>
      </trkpt>
      <trkpt lat="46.70311" lon="5.85134">
        <ele>708.30328369141</ele>
        <time>2013-06-30T11:49:40.999Z</time>
      </trkpt>
      <trkpt lat="46.70314" lon="5.8514">
        <ele>708.43884277344</ele>
        <time>2013-06-30T11:49:42.999Z</time>
      </trkpt>
      <trkpt lat="46.70317" lon="5.85146">
        <ele>708.5791015625</ele>
        <time>2013-06-30T11:49:44.999Z</time>
      </trkpt>
      <trkpt lat="46.70321" lon="5.85152">
        <ele>708.90228271484</ele>
        <time>2013-06-30T11:49:47.999Z</time>
      </trkpt>
      <trkpt lat="46.70324" lon="5.85157">
        <ele>709.07836914062</ele>
        <time>2013-06-30T11:49:49.999Z</time>
      </trkpt>
      <trkpt lat="46.70328" lon="5.85165">
        <ele>709.29089355469</ele>
        <time>2013-06-30T11:49:51.999Z</time>
      </trkpt>
      <trkpt lat="46.70333" lon="5.85172">
        <ele>709.53521728516</ele>
        <time>2013-06-30T11:49:53.999Z</time>
      </trkpt>
      <trkpt lat="46.70338" lon="5.8518">
        <ele>709.76116943359</ele>
        <time>2013-06-30T11:49:55.999Z</time>
      </trkpt>
      <trkpt lat="46.70342" lon="5.85186">
        <ele>709.94689941406</ele>
        <time>2013-06-30T11:49:57.999Z</time>
      </trkpt>
      <trkpt lat="46.70346" lon="5.85192">
        <ele>710.23150634766</ele>
        <time>2013-06-30T11:49:59.999Z</time>
      </trkpt>
      <trkpt lat="46.7035" lon="5.852">
        <ele>710.59393310547</ele>
        <time>2013-06-30T11:50:01.999Z</time>
      </trkpt>
      <trkpt lat="46.70354" lon="5.85208">
        <ele>710.95953369141</ele>
        <time>2013-06-30T11:50:03.999Z</time>
      </trkpt>
      <trkpt lat="46.70358" lon="5.85216">
        <ele>711.25946044922</ele>
        <time>2013-06-30T11:50:05.999Z</time>
      </trkpt>
      <trkpt lat="46.70362" lon="5.85225">
        <ele>711.46557617188</ele>
        <time>2013-06-30T11:50:07.999Z</time>
      </trkpt>
      <trkpt lat="46.70367" lon="5.85233">
        <ele>711.84436035156</ele>
        <time>2013-06-30T11:50:09.999Z</time>
      </trkpt>
      <trkpt lat="46.70372" lon="5.85241">
        <ele>712.12512207031</ele>
        <time>2013-06-30T11:50:11.999Z</time>
      </trkpt>
      <trkpt lat="46.70376" lon="5.85249">
        <ele>712.51055908203</ele>
        <time>2013-06-30T11:50:13.999Z</time>
      </trkpt>
      <trkpt lat="46.70381" lon="5.85257">
        <ele>712.95092773438</ele>
        <time>2013-06-30T11:50:15.999Z</time>
      </trkpt>
      <trkpt lat="46.70385" lon="5.85266">
        <ele>713.38269042969</ele>
        <time>2013-06-30T11:50:17.999Z</time>
      </trkpt>
      <trkpt lat="46.70389" lon="5.85278">
        <ele>715.23443603516</ele>
        <time>2013-06-30T11:50:19.999Z</time>
      </trkpt>
      <trkpt lat="46.70392" lon="5.85291">
        <ele>715.37768554688</ele>
        <time>2013-06-30T11:50:21.999Z</time>
      </trkpt>
      <trkpt lat="46.70395" lon="5.85303">
        <ele>715.5654296875</ele>
        <time>2013-06-30T11:50:23.999Z</time>
      </trkpt>
      <trkpt lat="46.70397" lon="5.85315">
        <ele>715.69152832031</ele>
        <time>2013-06-30T11:50:25.999Z</time>
      </trkpt>
      <trkpt lat="46.70399" lon="5.85327">
        <ele>716.45904541016</ele>
        <time>2013-06-30T11:50:27.999Z</time>
      </trkpt>
      <trkpt lat="46.70401" lon="5.85339">
        <ele>716.81799316406</ele>
        <time>2013-06-30T11:50:29.999Z</time>
      </trkpt>
      <trkpt lat="46.70401" lon="5.85348">
        <ele>716.91247558594</ele>
        <time>2013-06-30T11:50:31.999Z</time>
      </trkpt>
      <trkpt lat="46.70401" lon="5.85357">
        <ele>716.97418212891</ele>
        <time>2013-06-30T11:50:33.999Z</time>
      </trkpt>
      <trkpt lat="46.704" lon="5.85366">
        <ele>717.07391357422</ele>
        <time>2013-06-30T11:50:35.999Z</time>
      </trkpt>
      <trkpt lat="46.70399" lon="5.85375">
        <ele>717.18524169922</ele>
        <time>2013-06-30T11:50:37.999Z</time>
      </trkpt>
      <trkpt lat="46.70397" lon="5.85383">
        <ele>717.31555175781</ele>
        <time>2013-06-30T11:50:39.999Z</time>
      </trkpt>
      <trkpt lat="46.70396" lon="5.85389">
        <ele>717.48937988281</ele>
        <time>2013-06-30T11:50:41.999Z</time>
      </trkpt>
      <trkpt lat="46.70396" lon="5.85396">
        <ele>717.69097900391</ele>
        <time>2013-06-30T11:50:43.999Z</time>
      </trkpt>
      <trkpt lat="46.70399" lon="5.85404">
        <ele>717.98583984375</ele>
        <time>2013-06-30T11:50:46.999Z</time>
      </trkpt>
      <trkpt lat="46.70403" lon="5.85409">
        <ele>718.26721191406</ele>
        <time>2013-06-30T11:50:49.999Z</time>
      </trkpt>
      <trkpt lat="46.70409" lon="5.85411">
        <ele>718.64044189453</ele>
        <time>2013-06-30T11:50:53.999Z</time>
      </trkpt>
      <trkpt lat="46.70415" lon="5.85409">
        <ele>718.97698974609</ele>
        <time>2013-06-30T11:50:56.999Z</time>
      </trkpt>
      <trkpt lat="46.7042" lon="5.85408">
        <ele>719.21643066406</ele>
        <time>2013-06-30T11:50:58.999Z</time>
      </trkpt>
      <trkpt lat="46.70424" lon="5.85407">
        <ele>719.45892333984</ele>
        <time>2013-06-30T11:51:00.999Z</time>
      </trkpt>
      <trkpt lat="46.70429" lon="5.85407">
        <ele>719.72528076172</ele>
        <time>2013-06-30T11:51:02.999Z</time>
      </trkpt>
      <trkpt lat="46.70436" lon="5.85407">
        <ele>720.13787841797</ele>
        <time>2013-06-30T11:51:05.999Z</time>
      </trkpt>
      <trkpt lat="46.7044" lon="5.85407">
        <ele>720.39807128906</ele>
        <time>2013-06-30T11:51:07.999Z</time>
      </trkpt>
      <trkpt lat="46.70445" lon="5.85408">
        <ele>720.65643310547</ele>
        <time>2013-06-30T11:51:09.999Z</time>
      </trkpt>
      <trkpt lat="46.7045" lon="5.85409">
        <ele>720.97155761719</ele>
        <time>2013-06-30T11:51:11.999Z</time>
      </trkpt>
      <trkpt lat="46.70455" lon="5.85409">
        <ele>721.22448730469</ele>
        <time>2013-06-30T11:51:13.999Z</time>
      </trkpt>
      <trkpt lat="46.70462" lon="5.8541">
        <ele>721.46545410156</ele>
        <time>2013-06-30T11:51:15.999Z</time>
      </trkpt>
      <trkpt lat="46.70469" lon="5.85411">
        <ele>721.64215087891</ele>
        <time>2013-06-30T11:51:17.999Z</time>
      </trkpt>
      <trkpt lat="46.70476" lon="5.85411">
        <ele>721.77453613281</ele>
        <time>2013-06-30T11:51:19.999Z</time>
      </trkpt>
      <trkpt lat="46.70482" lon="5.85412">
        <ele>721.95220947266</ele>
        <time>2013-06-30T11:51:21.999Z</time>
      </trkpt>
      <trkpt lat="46.70488" lon="5.85412">
        <ele>722.13885498047</ele>
        <time>2013-06-30T11:51:23.999Z</time>
      </trkpt>
      <trkpt lat="46.70493" lon="5.85412">
        <ele>722.36596679688</ele>
        <time>2013-06-30T11:51:25.999Z</time>
      </trkpt>
      <trkpt lat="46.70499" lon="5.85412">
        <ele>722.69287109375</ele>
        <time>2013-06-30T11:51:27.999Z</time>
      </trkpt>
      <trkpt lat="46.70506" lon="5.85411">
        <ele>722.97180175781</ele>
        <time>2013-06-30T11:51:29.999Z</time>
      </trkpt>
      <trkpt lat="46.70511" lon="5.8541">
        <ele>723.22540283203</ele>
        <time>2013-06-30T11:51:31.999Z</time>
      </trkpt>
      <trkpt lat="46.70517" lon="5.8541">
        <ele>723.52966308594</ele>
        <time>2013-06-30T11:51:33.999Z</time>
      </trkpt>
      <trkpt lat="46.70524" lon="5.8541">
        <ele>723.84741210938</ele>
        <time>2013-06-30T11:51:35.999Z</time>
      </trkpt>
      <trkpt lat="46.70532" lon="5.8541">
        <ele>724.16253662109</ele>
        <time>2013-06-30T11:51:37.999Z</time>
      </trkpt>
      <trkpt lat="46.70541" lon="5.8541">
        <ele>724.44036865234</ele>
        <time>2013-06-30T11:51:39.999Z</time>
      </trkpt>
      <trkpt lat="46.70552" lon="5.8541">
        <ele>724.63659667969</ele>
        <time>2013-06-30T11:51:41.999Z</time>
      </trkpt>
      <trkpt lat="46.7056" lon="5.8541">
        <ele>724.86743164062</ele>
        <time>2013-06-30T11:51:43.999Z</time>
      </trkpt>
      <trkpt lat="46.70567" lon="5.8541">
        <ele>725.04052734375</ele>
        <time>2013-06-30T11:51:45.999Z</time>
      </trkpt>
      <trkpt lat="46.70575" lon="5.85409">
        <ele>725.24731445312</ele>
        <time>2013-06-30T11:51:47.999Z</time>
      </trkpt>
      <trkpt lat="46.70583" lon="5.85409">
        <ele>725.49993896484</ele>
        <time>2013-06-30T11:51:49.999Z</time>
      </trkpt>
      <trkpt lat="46.7059" lon="5.85409">
        <ele>725.77130126953</ele>
        <time>2013-06-30T11:51:51.999Z</time>
      </trkpt>
      <trkpt lat="46.70599" lon="5.85409">
        <ele>727.01696777344</ele>
        <time>2013-06-30T11:51:53.999Z</time>
      </trkpt>
      <trkpt lat="46.70608" lon="5.8541">
        <ele>729.07800292969</ele>
        <time>2013-06-30T11:51:55.999Z</time>
      </trkpt>
      <trkpt lat="46.70615" lon="5.85416">
        <ele>731.47839355469</ele>
        <time>2013-06-30T11:51:57.999Z</time>
      </trkpt>
      <trkpt lat="46.70622" lon="5.85425">
        <ele>733.61993408203</ele>
        <time>2013-06-30T11:51:59.999Z</time>
      </trkpt>
      <trkpt lat="46.70628" lon="5.85436">
        <ele>735.19940185547</ele>
        <time>2013-06-30T11:52:01.999Z</time>
      </trkpt>
      <trkpt lat="46.70635" lon="5.85446">
        <ele>735.56701660156</ele>
        <time>2013-06-30T11:52:03.999Z</time>
      </trkpt>
      <trkpt lat="46.70642" lon="5.85458">
        <ele>736.07769775391</ele>
        <time>2013-06-30T11:52:05.999Z</time>
      </trkpt>
      <trkpt lat="46.7065" lon="5.85468">
        <ele>736.984375</ele>
        <time>2013-06-30T11:52:07.999Z</time>
      </trkpt>
      <trkpt lat="46.7066" lon="5.85476">
        <ele>737.27239990234</ele>
        <time>2013-06-30T11:52:09.999Z</time>
      </trkpt>
      <trkpt lat="46.70673" lon="5.85482">
        <ele>736.61096191406</ele>
        <time>2013-06-30T11:52:11.999Z</time>
      </trkpt>
      <trkpt lat="46.70686" lon="5.85487">
        <ele>734.74658203125</ele>
        <time>2013-06-30T11:52:13.999Z</time>
      </trkpt>
      <trkpt lat="46.70701" lon="5.85492">
        <ele>732.64996337891</ele>
        <time>2013-06-30T11:52:15.999Z</time>
      </trkpt>
      <trkpt lat="46.70716" lon="5.85498">
        <ele>730.94818115234</ele>
        <time>2013-06-30T11:52:17.999Z</time>
      </trkpt>
      <trkpt lat="46.7073" lon="5.85504">
        <ele>730.09948730469</ele>
        <time>2013-06-30T11:52:19.999Z</time>
      </trkpt>
      <trkpt lat="46.70742" lon="5.85509">
        <ele>730.01867675781</ele>
        <time>2013-06-30T11:52:21.999Z</time>
      </trkpt>
      <trkpt lat="46.70754" lon="5.85512">
        <ele>730.119140625</ele>
        <time>2013-06-30T11:52:23.999Z</time>
      </trkpt>
      <trkpt lat="46.70765" lon="5.85512">
        <ele>729.38861083984</ele>
        <time>2013-06-30T11:52:25.999Z</time>
      </trkpt>
      <trkpt lat="46.70774" lon="5.85512">
        <ele>727.82977294922</ele>
        <time>2013-06-30T11:52:27.999Z</time>
      </trkpt>
      <trkpt lat="46.70782" lon="5.85518">
        <ele>726.69635009766</ele>
        <time>2013-06-30T11:52:29.999Z</time>
      </trkpt>
      <trkpt lat="46.70785" lon="5.85528">
        <ele>726.94274902344</ele>
        <time>2013-06-30T11:52:31.999Z</time>
      </trkpt>
      <trkpt lat="46.70787" lon="5.8554">
        <ele>727.31024169922</ele>
        <time>2013-06-30T11:52:33.999Z</time>
      </trkpt>
      <trkpt lat="46.70788" lon="5.85551">
        <ele>727.36175537109</ele>
        <time>2013-06-30T11:52:35.999Z</time>
      </trkpt>
      <trkpt lat="46.70788" lon="5.85563">
        <ele>727.41363525391</ele>
        <time>2013-06-30T11:52:37.999Z</time>
      </trkpt>
      <trkpt lat="46.70789" lon="5.85574">
        <ele>727.5009765625</ele>
        <time>2013-06-30T11:52:39.999Z</time>
      </trkpt>
      <trkpt lat="46.7079" lon="5.85586">
        <ele>727.68310546875</ele>
        <time>2013-06-30T11:52:41.999Z</time>
      </trkpt>
      <trkpt lat="46.70791" lon="5.85596">
        <ele>727.85137939453</ele>
        <time>2013-06-30T11:52:43.999Z</time>
      </trkpt>
      <trkpt lat="46.70792" lon="5.85607">
        <ele>728.00396728516</ele>
        <time>2013-06-30T11:52:45.999Z</time>
      </trkpt>
      <trkpt lat="46.70793" lon="5.85617">
        <ele>728.17150878906</ele>
        <time>2013-06-30T11:52:47.999Z</time>
      </trkpt>
      <trkpt lat="46.70794" lon="5.85627">
        <ele>728.36987304688</ele>
        <time>2013-06-30T11:52:49.999Z</time>
      </trkpt>
      <trkpt lat="46.70795" lon="5.85636">
        <ele>728.63592529297</ele>
        <time>2013-06-30T11:52:51.999Z</time>
      </trkpt>
      <trkpt lat="46.70796" lon="5.85645">
        <ele>728.86511230469</ele>
        <time>2013-06-30T11:52:53.999Z</time>
      </trkpt>
      <trkpt lat="46.70798" lon="5.85654">
        <ele>729.06365966797</ele>
        <time>2013-06-30T11:52:55.999Z</time>
      </trkpt>
      <trkpt lat="46.708" lon="5.85662">
        <ele>729.287109375</ele>
        <time>2013-06-30T11:52:57.999Z</time>
      </trkpt>
      <trkpt lat="46.70802" lon="5.85669">
        <ele>729.48181152344</ele>
        <time>2013-06-30T11:52:59.999Z</time>
      </trkpt>
      <trkpt lat="46.70805" lon="5.85674">
        <ele>729.71594238281</ele>
        <time>2013-06-30T11:53:01.999Z</time>
      </trkpt>
      <trkpt lat="46.7081" lon="5.8568">
        <ele>730.20062255859</ele>
        <time>2013-06-30T11:53:04.999Z</time>
      </trkpt>
      <trkpt lat="46.70811" lon="5.85688">
        <ele>730.88348388672</ele>
        <time>2013-06-30T11:53:07.999Z</time>
      </trkpt>
      <trkpt lat="46.70813" lon="5.85696">
        <ele>731.75769042969</ele>
        <time>2013-06-30T11:53:10.999Z</time>
      </trkpt>
      <trkpt lat="46.70812" lon="5.85704">
        <ele>732.27972412109</ele>
        <time>2013-06-30T11:53:12.999Z</time>
      </trkpt>
      <trkpt lat="46.70811" lon="5.85712">
        <ele>732.80151367188</ele>
        <time>2013-06-30T11:53:14.999Z</time>
      </trkpt>
      <trkpt lat="46.70808" lon="5.85721">
        <ele>733.67224121094</ele>
        <time>2013-06-30T11:53:17.999Z</time>
      </trkpt>
      <trkpt lat="46.70805" lon="5.85729">
        <ele>734.68133544922</ele>
        <time>2013-06-30T11:53:20.999Z</time>
      </trkpt>
      <trkpt lat="46.70804" lon="5.85736">
        <ele>735.76763916016</ele>
        <time>2013-06-30T11:53:23.999Z</time>
      </trkpt>
      <trkpt lat="46.70802" lon="5.85744">
        <ele>736.84313964844</ele>
        <time>2013-06-30T11:53:26.999Z</time>
      </trkpt>
      <trkpt lat="46.708" lon="5.8575">
        <ele>737.55432128906</ele>
        <time>2013-06-30T11:53:28.999Z</time>
      </trkpt>
      <trkpt lat="46.708" lon="5.85757">
        <ele>738.1982421875</ele>
        <time>2013-06-30T11:53:30.999Z</time>
      </trkpt>
      <trkpt lat="46.70799" lon="5.85764">
        <ele>738.7939453125</ele>
        <time>2013-06-30T11:53:32.999Z</time>
      </trkpt>
      <trkpt lat="46.70797" lon="5.85774">
        <ele>739.38012695312</ele>
        <time>2013-06-30T11:53:34.999Z</time>
      </trkpt>
      <trkpt lat="46.70795" lon="5.85783">
        <ele>739.93048095703</ele>
        <time>2013-06-30T11:53:36.999Z</time>
      </trkpt>
      <trkpt lat="46.70794" lon="5.85793">
        <ele>740.35693359375</ele>
        <time>2013-06-30T11:53:38.999Z</time>
      </trkpt>
      <trkpt lat="46.70793" lon="5.85804">
        <ele>740.68518066406</ele>
        <time>2013-06-30T11:53:40.999Z</time>
      </trkpt>
      <trkpt lat="46.70792" lon="5.85814">
        <ele>740.94274902344</ele>
        <time>2013-06-30T11:53:42.999Z</time>
      </trkpt>
      <trkpt lat="46.70791" lon="5.85824">
        <ele>741.08978271484</ele>
        <time>2013-06-30T11:53:44.999Z</time>
      </trkpt>
      <trkpt lat="46.70792" lon="5.85834">
        <ele>741.14764404297</ele>
        <time>2013-06-30T11:53:46.999Z</time>
      </trkpt>
      <trkpt lat="46.70792" lon="5.85843">
        <ele>741.13208007812</ele>
        <time>2013-06-30T11:53:48.999Z</time>
      </trkpt>
      <trkpt lat="46.70793" lon="5.85856">
        <ele>740.74523925781</ele>
        <time>2013-06-30T11:53:50.999Z</time>
      </trkpt>
      <trkpt lat="46.70795" lon="5.85873">
        <ele>740.27264404297</ele>
        <time>2013-06-30T11:53:52.999Z</time>
      </trkpt>
      <trkpt lat="46.70797" lon="5.85887">
        <ele>739.65173339844</ele>
        <time>2013-06-30T11:53:54.999Z</time>
      </trkpt>
      <trkpt lat="46.70798" lon="5.85899">
        <ele>739.15533447266</ele>
        <time>2013-06-30T11:53:56.999Z</time>
      </trkpt>
      <trkpt lat="46.70799" lon="5.85912">
        <ele>739.18023681641</ele>
        <time>2013-06-30T11:53:58.999Z</time>
      </trkpt>
      <trkpt lat="46.70799" lon="5.85924">
        <ele>739.80438232422</ele>
        <time>2013-06-30T11:54:00.999Z</time>
      </trkpt>
      <trkpt lat="46.70801" lon="5.85936">
        <ele>740.25024414062</ele>
        <time>2013-06-30T11:54:02.999Z</time>
      </trkpt>
      <trkpt lat="46.70801" lon="5.85949">
        <ele>740.44964599609</ele>
        <time>2013-06-30T11:54:04.999Z</time>
      </trkpt>
      <trkpt lat="46.70801" lon="5.85962">
        <ele>740.8330078125</ele>
        <time>2013-06-30T11:54:06.999Z</time>
      </trkpt>
      <trkpt lat="46.708" lon="5.85976">
        <ele>741.35632324219</ele>
        <time>2013-06-30T11:54:08.999Z</time>
      </trkpt>
      <trkpt lat="46.70798" lon="5.85988">
        <ele>741.74670410156</ele>
        <time>2013-06-30T11:54:10.999Z</time>
      </trkpt>
      <trkpt lat="46.70795" lon="5.85999">
        <ele>741.89916992188</ele>
        <time>2013-06-30T11:54:12.999Z</time>
      </trkpt>
      <trkpt lat="46.70792" lon="5.86011">
        <ele>742.12512207031</ele>
        <time>2013-06-30T11:54:14.999Z</time>
      </trkpt>
      <trkpt lat="46.70788" lon="5.86025">
        <ele>742.33636474609</ele>
        <time>2013-06-30T11:54:16.999Z</time>
      </trkpt>
      <trkpt lat="46.70786" lon="5.86037">
        <ele>742.44384765625</ele>
        <time>2013-06-30T11:54:18.999Z</time>
      </trkpt>
      <trkpt lat="46.70784" lon="5.86049">
        <ele>743.19067382812</ele>
        <time>2013-06-30T11:54:20.999Z</time>
      </trkpt>
      <trkpt lat="46.70784" lon="5.86062">
        <ele>743.69012451172</ele>
        <time>2013-06-30T11:54:22.999Z</time>
      </trkpt>
      <trkpt lat="46.70783" lon="5.86074">
        <ele>744.14996337891</ele>
        <time>2013-06-30T11:54:24.999Z</time>
      </trkpt>
      <trkpt lat="46.70782" lon="5.86085">
        <ele>745.8525390625</ele>
        <time>2013-06-30T11:54:26.999Z</time>
      </trkpt>
      <trkpt lat="46.7078" lon="5.86099">
        <ele>747.56549072266</ele>
        <time>2013-06-30T11:54:28.999Z</time>
      </trkpt>
      <trkpt lat="46.70778" lon="5.8611">
        <ele>747.92749023438</ele>
        <time>2013-06-30T11:54:30.999Z</time>
      </trkpt>
      <trkpt lat="46.70775" lon="5.86121">
        <ele>748.09600830078</ele>
        <time>2013-06-30T11:54:32.999Z</time>
      </trkpt>
      <trkpt lat="46.70771" lon="5.86134">
        <ele>748.46697998047</ele>
        <time>2013-06-30T11:54:34.999Z</time>
      </trkpt>
      <trkpt lat="46.70766" lon="5.86147">
        <ele>748.69702148438</ele>
        <time>2013-06-30T11:54:36.999Z</time>
      </trkpt>
      <trkpt lat="46.70758" lon="5.86163">
        <ele>747.98590087891</ele>
        <time>2013-06-30T11:54:38.999Z</time>
      </trkpt>
      <trkpt lat="46.7075" lon="5.86179">
        <ele>746.30981445312</ele>
        <time>2013-06-30T11:54:40.999Z</time>
      </trkpt>
      <trkpt lat="46.70743" lon="5.86192">
        <ele>744.775390625</ele>
        <time>2013-06-30T11:54:42.999Z</time>
      </trkpt>
      <trkpt lat="46.70736" lon="5.86204">
        <ele>743.40728759766</ele>
        <time>2013-06-30T11:54:44.999Z</time>
      </trkpt>
      <trkpt lat="46.70731" lon="5.86215">
        <ele>742.39514160156</ele>
        <time>2013-06-30T11:54:46.999Z</time>
      </trkpt>
      <trkpt lat="46.70728" lon="5.86226">
        <ele>741.71539306641</ele>
        <time>2013-06-30T11:54:48.999Z</time>
      </trkpt>
      <trkpt lat="46.70724" lon="5.86235">
        <ele>741.81402587891</ele>
        <time>2013-06-30T11:54:50.999Z</time>
      </trkpt>
      <trkpt lat="46.7072" lon="5.86245">
        <ele>741.91320800781</ele>
        <time>2013-06-30T11:54:52.999Z</time>
      </trkpt>
      <trkpt lat="46.70716" lon="5.86254">
        <ele>742.17614746094</ele>
        <time>2013-06-30T11:54:54.999Z</time>
      </trkpt>
      <trkpt lat="46.70711" lon="5.86264">
        <ele>742.62750244141</ele>
        <time>2013-06-30T11:54:56.999Z</time>
      </trkpt>
      <trkpt lat="46.70707" lon="5.86274">
        <ele>742.96447753906</ele>
        <time>2013-06-30T11:54:58.999Z</time>
      </trkpt>
      <trkpt lat="46.70702" lon="5.86284">
        <ele>743.53448486328</ele>
        <time>2013-06-30T11:55:00.999Z</time>
      </trkpt>
      <trkpt lat="46.70698" lon="5.86293">
        <ele>744.07330322266</ele>
        <time>2013-06-30T11:55:02.999Z</time>
      </trkpt>
      <trkpt lat="46.70693" lon="5.86304">
        <ele>744.16510009766</ele>
        <time>2013-06-30T11:55:04.999Z</time>
      </trkpt>
      <trkpt lat="46.7069" lon="5.86314">
        <ele>744.71124267578</ele>
        <time>2013-06-30T11:55:06.999Z</time>
      </trkpt>
      <trkpt lat="46.70686" lon="5.86325">
        <ele>745.54431152344</ele>
        <time>2013-06-30T11:55:08.999Z</time>
      </trkpt>
      <trkpt lat="46.70684" lon="5.86335">
        <ele>745.85894775391</ele>
        <time>2013-06-30T11:55:10.999Z</time>
      </trkpt>
      <trkpt lat="46.70681" lon="5.86345">
        <ele>746.1611328125</ele>
        <time>2013-06-30T11:55:12.999Z</time>
      </trkpt>
      <trkpt lat="46.70679" lon="5.86356">
        <ele>747.11468505859</ele>
        <time>2013-06-30T11:55:14.999Z</time>
      </trkpt>
      <trkpt lat="46.70677" lon="5.86368">
        <ele>747.99658203125</ele>
        <time>2013-06-30T11:55:16.999Z</time>
      </trkpt>
      <trkpt lat="46.70675" lon="5.86379">
        <ele>748.59637451172</ele>
        <time>2013-06-30T11:55:18.999Z</time>
      </trkpt>
      <trkpt lat="46.70672" lon="5.86389">
        <ele>749.27514648438</ele>
        <time>2013-06-30T11:55:20.999Z</time>
      </trkpt>
      <trkpt lat="46.70669" lon="5.864">
        <ele>750.36309814453</ele>
        <time>2013-06-30T11:55:22.999Z</time>
      </trkpt>
      <trkpt lat="46.70666" lon="5.86411">
        <ele>751.68664550781</ele>
        <time>2013-06-30T11:55:24.999Z</time>
      </trkpt>
      <trkpt lat="46.70663" lon="5.86423">
        <ele>752.72210693359</ele>
        <time>2013-06-30T11:55:26.999Z</time>
      </trkpt>
      <trkpt lat="46.70659" lon="5.86434">
        <ele>752.72003173828</ele>
        <time>2013-06-30T11:55:28.999Z</time>
      </trkpt>
      <trkpt lat="46.70656" lon="5.86446">
        <ele>752.55877685547</ele>
        <time>2013-06-30T11:55:30.999Z</time>
      </trkpt>
      <trkpt lat="46.70654" lon="5.86459">
        <ele>752.59442138672</ele>
        <time>2013-06-30T11:55:32.999Z</time>
      </trkpt>
      <trkpt lat="46.70652" lon="5.86474">
        <ele>752.52160644531</ele>
        <time>2013-06-30T11:55:34.999Z</time>
      </trkpt>
      <trkpt lat="46.70648" lon="5.86487">
        <ele>753.47741699219</ele>
        <time>2013-06-30T11:55:36.999Z</time>
      </trkpt>
      <trkpt lat="46.70644" lon="5.86497">
        <ele>754.19873046875</ele>
        <time>2013-06-30T11:55:38.999Z</time>
      </trkpt>
      <trkpt lat="46.70641" lon="5.86505">
        <ele>754.42041015625</ele>
        <time>2013-06-30T11:55:40.999Z</time>
      </trkpt>
      <trkpt lat="46.70637" lon="5.86513">
        <ele>754.71203613281</ele>
        <time>2013-06-30T11:55:43.999Z</time>
      </trkpt>
      <trkpt lat="46.70635" lon="5.86519">
        <ele>754.89758300781</ele>
        <time>2013-06-30T11:55:45.999Z</time>
      </trkpt>
      <trkpt lat="46.70632" lon="5.86528">
        <ele>754.86511230469</ele>
        <time>2013-06-30T11:55:47.999Z</time>
      </trkpt>
      <trkpt lat="46.70629" lon="5.86541">
        <ele>754.53424072266</ele>
        <time>2013-06-30T11:55:49.999Z</time>
      </trkpt>
      <trkpt lat="46.70625" lon="5.86557">
        <ele>754.52111816406</ele>
        <time>2013-06-30T11:55:51.999Z</time>
      </trkpt>
      <trkpt lat="46.70619" lon="5.86573">
        <ele>753.08264160156</ele>
        <time>2013-06-30T11:55:53.999Z</time>
      </trkpt>
      <trkpt lat="46.70613" lon="5.8659">
        <ele>751.64239501953</ele>
        <time>2013-06-30T11:55:55.999Z</time>
      </trkpt>
      <trkpt lat="46.70607" lon="5.86608">
        <ele>750.26312255859</ele>
        <time>2013-06-30T11:55:57.999Z</time>
      </trkpt>
      <trkpt lat="46.70602" lon="5.86627">
        <ele>749.36083984375</ele>
        <time>2013-06-30T11:55:59.999Z</time>
      </trkpt>
      <trkpt lat="46.70596" lon="5.86645">
        <ele>748.99285888672</ele>
        <time>2013-06-30T11:56:01.999Z</time>
      </trkpt>
      <trkpt lat="46.70591" lon="5.86665">
        <ele>748.50994873047</ele>
        <time>2013-06-30T11:56:03.999Z</time>
      </trkpt>
      <trkpt lat="46.70586" lon="5.86683">
        <ele>747.86383056641</ele>
        <time>2013-06-30T11:56:05.999Z</time>
      </trkpt>
      <trkpt lat="46.70582" lon="5.86701">
        <ele>747.41235351562</ele>
        <time>2013-06-30T11:56:07.999Z</time>
      </trkpt>
      <trkpt lat="46.70578" lon="5.86718">
        <ele>747.15319824219</ele>
        <time>2013-06-30T11:56:09.999Z</time>
      </trkpt>
      <trkpt lat="46.70574" lon="5.86733">
        <ele>747.2001953125</ele>
        <time>2013-06-30T11:56:11.999Z</time>
      </trkpt>
      <trkpt lat="46.7057" lon="5.86746">
        <ele>748.59259033203</ele>
        <time>2013-06-30T11:56:13.999Z</time>
      </trkpt>
      <trkpt lat="46.70566" lon="5.8676">
        <ele>749.82849121094</ele>
        <time>2013-06-30T11:56:15.999Z</time>
      </trkpt>
      <trkpt lat="46.70562" lon="5.86772">
        <ele>750.66827392578</ele>
        <time>2013-06-30T11:56:17.999Z</time>
      </trkpt>
      <trkpt lat="46.70559" lon="5.86784">
        <ele>750.96258544922</ele>
        <time>2013-06-30T11:56:19.999Z</time>
      </trkpt>
      <trkpt lat="46.70558" lon="5.86795">
        <ele>751.1884765625</ele>
        <time>2013-06-30T11:56:21.999Z</time>
      </trkpt>
      <trkpt lat="46.70556" lon="5.86806">
        <ele>751.32043457031</ele>
        <time>2013-06-30T11:56:23.999Z</time>
      </trkpt>
      <trkpt lat="46.70556" lon="5.86822">
        <ele>751.455078125</ele>
        <time>2013-06-30T11:56:25.999Z</time>
      </trkpt>
      <trkpt lat="46.70557" lon="5.86839">
        <ele>751.26593017578</ele>
        <time>2013-06-30T11:56:27.999Z</time>
      </trkpt>
      <trkpt lat="46.70559" lon="5.86857">
        <ele>751.50537109375</ele>
        <time>2013-06-30T11:56:29.999Z</time>
      </trkpt>
      <trkpt lat="46.70562" lon="5.86875">
        <ele>750.74047851562</ele>
        <time>2013-06-30T11:56:31.999Z</time>
      </trkpt>
      <trkpt lat="46.70565" lon="5.86894">
        <ele>750.02069091797</ele>
        <time>2013-06-30T11:56:33.999Z</time>
      </trkpt>
      <trkpt lat="46.70567" lon="5.86913">
        <ele>749.21026611328</ele>
        <time>2013-06-30T11:56:35.999Z</time>
      </trkpt>
      <trkpt lat="46.7057" lon="5.86932">
        <ele>748.81085205078</ele>
        <time>2013-06-30T11:56:37.999Z</time>
      </trkpt>
      <trkpt lat="46.70572" lon="5.8695">
        <ele>748.77807617188</ele>
        <time>2013-06-30T11:56:39.999Z</time>
      </trkpt>
      <trkpt lat="46.70572" lon="5.86971">
        <ele>748.54675292969</ele>
        <time>2013-06-30T11:56:41.999Z</time>
      </trkpt>
      <trkpt lat="46.70569" lon="5.86994">
        <ele>747.39654541016</ele>
        <time>2013-06-30T11:56:43.999Z</time>
      </trkpt>
      <trkpt lat="46.70564" lon="5.87017">
        <ele>746.64117431641</ele>
        <time>2013-06-30T11:56:45.999Z</time>
      </trkpt>
      <trkpt lat="46.70558" lon="5.87039">
        <ele>746.07867431641</ele>
        <time>2013-06-30T11:56:47.999Z</time>
      </trkpt>
      <trkpt lat="46.70552" lon="5.87059">
        <ele>745.33239746094</ele>
        <time>2013-06-30T11:56:49.999Z</time>
      </trkpt>
      <trkpt lat="46.70544" lon="5.8708">
        <ele>744.51580810547</ele>
        <time>2013-06-30T11:56:51.999Z</time>
      </trkpt>
      <trkpt lat="46.70537" lon="5.87103">
        <ele>743.64514160156</ele>
        <time>2013-06-30T11:56:53.999Z</time>
      </trkpt>
      <trkpt lat="46.7053" lon="5.87126">
        <ele>742.8212890625</ele>
        <time>2013-06-30T11:56:55.999Z</time>
      </trkpt>
      <trkpt lat="46.70522" lon="5.87149">
        <ele>742.14813232422</ele>
        <time>2013-06-30T11:56:57.999Z</time>
      </trkpt>
      <trkpt lat="46.70515" lon="5.87172">
        <ele>741.59161376953</ele>
        <time>2013-06-30T11:56:59.999Z</time>
      </trkpt>
      <trkpt lat="46.70508" lon="5.87194">
        <ele>741.53936767578</ele>
        <time>2013-06-30T11:57:01.999Z</time>
      </trkpt>
      <trkpt lat="46.70501" lon="5.87216">
        <ele>741.54949951172</ele>
        <time>2013-06-30T11:57:03.999Z</time>
      </trkpt>
      <trkpt lat="46.70495" lon="5.87236">
        <ele>742.01000976562</ele>
        <time>2013-06-30T11:57:05.999Z</time>
      </trkpt>
      <trkpt lat="46.70489" lon="5.87253">
        <ele>742.23071289062</ele>
        <time>2013-06-30T11:57:07.999Z</time>
      </trkpt>
      <trkpt lat="46.70485" lon="5.87271">
        <ele>742.88079833984</ele>
        <time>2013-06-30T11:57:09.999Z</time>
      </trkpt>
      <trkpt lat="46.70483" lon="5.87288">
        <ele>743.45947265625</ele>
        <time>2013-06-30T11:57:11.999Z</time>
      </trkpt>
      <trkpt lat="46.7048" lon="5.87307">
        <ele>743.71337890625</ele>
        <time>2013-06-30T11:57:13.999Z</time>
      </trkpt>
      <trkpt lat="46.70478" lon="5.87327">
        <ele>743.25775146484</ele>
        <time>2013-06-30T11:57:15.999Z</time>
      </trkpt>
      <trkpt lat="46.70475" lon="5.87351">
        <ele>742.89263916016</ele>
        <time>2013-06-30T11:57:17.999Z</time>
      </trkpt>
      <trkpt lat="46.70472" lon="5.87375">
        <ele>742.73382568359</ele>
        <time>2013-06-30T11:57:19.999Z</time>
      </trkpt>
      <trkpt lat="46.70469" lon="5.87398">
        <ele>742.60876464844</ele>
        <time>2013-06-30T11:57:21.999Z</time>
      </trkpt>
      <trkpt lat="46.70467" lon="5.87421">
        <ele>742.43817138672</ele>
        <time>2013-06-30T11:57:23.999Z</time>
      </trkpt>
      <trkpt lat="46.70464" lon="5.87444">
        <ele>742.2294921875</ele>
        <time>2013-06-30T11:57:25.999Z</time>
      </trkpt>
      <trkpt lat="46.70461" lon="5.87466">
        <ele>742.08764648438</ele>
        <time>2013-06-30T11:57:27.999Z</time>
      </trkpt>
      <trkpt lat="46.70458" lon="5.87488">
        <ele>741.63684082031</ele>
        <time>2013-06-30T11:57:29.999Z</time>
      </trkpt>
      <trkpt lat="46.70455" lon="5.87511">
        <ele>741.55139160156</ele>
        <time>2013-06-30T11:57:31.999Z</time>
      </trkpt>
      <trkpt lat="46.70452" lon="5.87532">
        <ele>741.02416992188</ele>
        <time>2013-06-30T11:57:33.999Z</time>
      </trkpt>
      <trkpt lat="46.70449" lon="5.87552">
        <ele>740.89245605469</ele>
        <time>2013-06-30T11:57:35.999Z</time>
      </trkpt>
      <trkpt lat="46.70451" lon="5.87573">
        <ele>740.61590576172</ele>
        <time>2013-06-30T11:57:37.999Z</time>
      </trkpt>
      <trkpt lat="46.70457" lon="5.87591">
        <ele>740.04986572266</ele>
        <time>2013-06-30T11:57:39.999Z</time>
      </trkpt>
      <trkpt lat="46.70467" lon="5.87606">
        <ele>739.76226806641</ele>
        <time>2013-06-30T11:57:41.999Z</time>
      </trkpt>
      <trkpt lat="46.70476" lon="5.8762">
        <ele>739.60491943359</ele>
        <time>2013-06-30T11:57:43.999Z</time>
      </trkpt>
      <trkpt lat="46.70483" lon="5.87635">
        <ele>739.94604492188</ele>
        <time>2013-06-30T11:57:45.999Z</time>
      </trkpt>
      <trkpt lat="46.70485" lon="5.87653">
        <ele>740.45501708984</ele>
        <time>2013-06-30T11:57:47.999Z</time>
      </trkpt>
      <trkpt lat="46.70483" lon="5.87672">
        <ele>740.70587158203</ele>
        <time>2013-06-30T11:57:49.999Z</time>
      </trkpt>
      <trkpt lat="46.7048" lon="5.87689">
        <ele>741.02868652344</ele>
        <time>2013-06-30T11:57:51.999Z</time>
      </trkpt>
      <trkpt lat="46.7048" lon="5.87707">
        <ele>741.34509277344</ele>
        <time>2013-06-30T11:57:53.999Z</time>
      </trkpt>
      <trkpt lat="46.70482" lon="5.87724">
        <ele>740.98980712891</ele>
        <time>2013-06-30T11:57:55.999Z</time>
      </trkpt>
      <trkpt lat="46.70485" lon="5.87741">
        <ele>741.30517578125</ele>
        <time>2013-06-30T11:57:57.999Z</time>
      </trkpt>
      <trkpt lat="46.7049" lon="5.87753">
        <ele>741.56353759766</ele>
        <time>2013-06-30T11:57:59.999Z</time>
      </trkpt>
      <trkpt lat="46.70497" lon="5.87763">
        <ele>741.74157714844</ele>
        <time>2013-06-30T11:58:01.999Z</time>
      </trkpt>
      <trkpt lat="46.70504" lon="5.87773">
        <ele>742.13818359375</ele>
        <time>2013-06-30T11:58:03.999Z</time>
      </trkpt>
      <trkpt lat="46.70511" lon="5.87782">
        <ele>742.44323730469</ele>
        <time>2013-06-30T11:58:05.999Z</time>
      </trkpt>
      <trkpt lat="46.70517" lon="5.87789">
        <ele>742.73736572266</ele>
        <time>2013-06-30T11:58:07.999Z</time>
      </trkpt>
      <trkpt lat="46.70523" lon="5.87795">
        <ele>742.79229736328</ele>
        <time>2013-06-30T11:58:09.999Z</time>
      </trkpt>
      <trkpt lat="46.7053" lon="5.87797">
        <ele>742.81658935547</ele>
        <time>2013-06-30T11:58:12.999Z</time>
      </trkpt>
      <trkpt lat="46.70535" lon="5.87793">
        <ele>742.87719726562</ele>
        <time>2013-06-30T11:58:15.999Z</time>
      </trkpt>
      <trkpt lat="46.70534" lon="5.87787">
        <ele>743.74639892578</ele>
        <time>2013-06-30T11:58:24.999Z</time>
      </trkpt>
      <trkpt lat="46.70528" lon="5.87783">
        <ele>743.87384033203</ele>
        <time>2013-06-30T11:58:27.999Z</time>
      </trkpt>
      <trkpt lat="46.70525" lon="5.87776">
        <ele>743.90100097656</ele>
        <time>2013-06-30T11:58:30.999Z</time>
      </trkpt>
      <trkpt lat="46.70527" lon="5.8777">
        <ele>743.78387451172</ele>
        <time>2013-06-30T11:58:33.999Z</time>
      </trkpt>
      <trkpt lat="46.70531" lon="5.87765">
        <ele>743.66510009766</ele>
        <time>2013-06-30T11:58:36.999Z</time>
      </trkpt>
      <trkpt lat="46.70536" lon="5.87763">
        <ele>743.50793457031</ele>
        <time>2013-06-30T11:58:40.999Z</time>
      </trkpt>
      <trkpt lat="46.70541" lon="5.8776">
        <ele>743.48010253906</ele>
        <time>2013-06-30T11:58:44.999Z</time>
      </trkpt>
      <trkpt lat="46.70545" lon="5.87757">
        <ele>743.50433349609</ele>
        <time>2013-06-30T11:58:47.999Z</time>
      </trkpt>
      <trkpt lat="46.70551" lon="5.87754">
        <ele>743.44927978516</ele>
        <time>2013-06-30T11:58:50.999Z</time>
      </trkpt>
      <trkpt lat="46.70556" lon="5.87752">
        <ele>743.38397216797</ele>
        <time>2013-06-30T11:58:53.999Z</time>
      </trkpt>
      <trkpt lat="46.70561" lon="5.8775">
        <ele>743.28845214844</ele>
        <time>2013-06-30T11:58:56.999Z</time>
      </trkpt>
      <trkpt lat="46.70565" lon="5.87747">
        <ele>743.59002685547</ele>
        <time>2013-06-30T11:59:50.999Z</time>
      </trkpt>
      <trkpt lat="46.70564" lon="5.87746">
        <ele>743.57733154297</ele>
        <time>2013-06-30T11:59:56.999Z</time>
      </trkpt>
      <trkpt lat="46.70558" lon="5.87752">
        <ele>743.77136230469</ele>
        <time>2013-06-30T12:00:00.999Z</time>
      </trkpt>
      <trkpt lat="46.70553" lon="5.87757">
        <ele>743.77453613281</ele>
        <time>2013-06-30T12:00:04.999Z</time>
      </trkpt>
      <trkpt lat="46.70548" lon="5.87761">
        <ele>743.80242919922</ele>
        <time>2013-06-30T12:00:08.999Z</time>
      </trkpt>
      <trkpt lat="46.70547" lon="5.87766">
        <ele>743.89794921875</ele>
        <time>2013-06-30T12:00:11.999Z</time>
      </trkpt>
      <trkpt lat="46.7055" lon="5.87769">
        <ele>744.65875244141</ele>
        <time>2013-06-30T12:00:19.999Z</time>
      </trkpt>
      <trkpt lat="46.70555" lon="5.87771">
        <ele>745.01361083984</ele>
        <time>2013-06-30T12:00:25.999Z</time>
      </trkpt>
      <trkpt lat="46.70558" lon="5.87777">
        <ele>745.39715576172</ele>
        <time>2013-06-30T12:00:34.999Z</time>
      </trkpt>
      <trkpt lat="46.70557" lon="5.87777">
        <ele>745.75189208984</ele>
        <time>2013-06-30T12:01:16.999Z</time>
      </trkpt>
      <trkpt lat="46.70565" lon="5.87786">
        <ele>746.35675048828</ele>
        <time>2013-06-30T12:03:12.999Z</time>
      </trkpt>
      <trkpt lat="46.70568" lon="5.87791">
        <ele>746.70062255859</ele>
        <time>2013-06-30T12:03:20.999Z</time>
      </trkpt>
      <trkpt lat="46.70573" lon="5.87793">
        <ele>746.73999023438</ele>
        <time>2013-06-30T12:03:29.999Z</time>
      </trkpt>
      <trkpt lat="46.70575" lon="5.87787">
        <ele>747.51794433594</ele>
        <time>2013-06-30T12:04:59.999Z</time>
      </trkpt>
      <trkpt lat="46.70572" lon="5.87782">
        <ele>747.52807617188</ele>
        <time>2013-06-30T12:05:28.999Z</time>
      </trkpt>
      <trkpt lat="46.70574" lon="5.87786">
        <ele>747.01843261719</ele>
        <time>2013-06-30T12:06:30.999Z</time>
      </trkpt>
      <trkpt lat="46.7057" lon="5.87786">
        <ele>746.41595458984</ele>
        <time>2013-06-30T12:10:12.999Z</time>
      </trkpt>
      <trkpt lat="46.70567" lon="5.87782">
        <ele>746.42004394531</ele>
        <time>2013-06-30T12:10:16.999Z</time>
      </trkpt>
      <trkpt lat="46.70562" lon="5.87779">
        <ele>746.33404541016</ele>
        <time>2013-06-30T12:10:22.999Z</time>
      </trkpt>
      <trkpt lat="46.70557" lon="5.87778">
        <ele>746.69476318359</ele>
        <time>2013-06-30T12:10:30.999Z</time>
      </trkpt>
      <trkpt lat="46.70552" lon="5.87779">
        <ele>747.05718994141</ele>
        <time>2013-06-30T12:10:36.999Z</time>
      </trkpt>
      <trkpt lat="46.70547" lon="5.87781">
        <ele>747.07293701172</ele>
        <time>2013-06-30T12:10:43.999Z</time>
      </trkpt>
      <trkpt lat="46.70543" lon="5.87783">
        <ele>747.39825439453</ele>
        <time>2013-06-30T12:10:51.999Z</time>
      </trkpt>
      <trkpt lat="46.70539" lon="5.87787">
        <ele>747.85620117188</ele>
        <time>2013-06-30T12:10:57.000Z</time>
      </trkpt>
      <trkpt lat="46.70536" lon="5.87793">
        <ele>748.31121826172</ele>
        <time>2013-06-30T12:11:15.000Z</time>
      </trkpt>
      <trkpt lat="46.70539" lon="5.87799">
        <ele>748.45617675781</ele>
        <time>2013-06-30T12:11:22.000Z</time>
      </trkpt>
      <trkpt lat="46.70542" lon="5.87804">
        <ele>748.52197265625</ele>
        <time>2013-06-30T12:11:29.000Z</time>
      </trkpt>
      <trkpt lat="46.70544" lon="5.87809">
        <ele>748.48626708984</ele>
        <time>2013-06-30T12:11:36.000Z</time>
      </trkpt>
      <trkpt lat="46.70546" lon="5.87816">
        <ele>748.53771972656</ele>
        <time>2013-06-30T12:12:01.000Z</time>
      </trkpt>
      <trkpt lat="46.70549" lon="5.87819">
        <ele>748.44439697266</ele>
        <time>2013-06-30T12:12:05.000Z</time>
      </trkpt>
      <trkpt lat="46.70553" lon="5.87822">
        <ele>748.47619628906</ele>
        <time>2013-06-30T12:12:08.000Z</time>
      </trkpt>
      <trkpt lat="46.70557" lon="5.87828">
        <ele>748.43420410156</ele>
        <time>2013-06-30T12:12:11.000Z</time>
      </trkpt>
      <trkpt lat="46.7056" lon="5.87832">
        <ele>747.01812744141</ele>
        <time>2013-06-30T12:13:48.000Z</time>
      </trkpt>
      <trkpt lat="46.70565" lon="5.87834">
        <ele>746.74743652344</ele>
        <time>2013-06-30T12:13:51.000Z</time>
      </trkpt>
      <trkpt lat="46.7057" lon="5.87838">
        <ele>746.55682373047</ele>
        <time>2013-06-30T12:13:54.000Z</time>
      </trkpt>
      <trkpt lat="46.70575" lon="5.87841">
        <ele>746.48327636719</ele>
        <time>2013-06-30T12:13:56.000Z</time>
      </trkpt>
      <trkpt lat="46.70581" lon="5.87845">
        <ele>746.48425292969</ele>
        <time>2013-06-30T12:13:58.000Z</time>
      </trkpt>
      <trkpt lat="46.70586" lon="5.87849">
        <ele>746.55432128906</ele>
        <time>2013-06-30T12:14:00.000Z</time>
      </trkpt>
      <trkpt lat="46.70592" lon="5.87855">
        <ele>747.34509277344</ele>
        <time>2013-06-30T12:14:02.000Z</time>
      </trkpt>
      <trkpt lat="46.70599" lon="5.87864">
        <ele>747.94635009766</ele>
        <time>2013-06-30T12:14:04.000Z</time>
      </trkpt>
      <trkpt lat="46.70605" lon="5.87875">
        <ele>747.91741943359</ele>
        <time>2013-06-30T12:14:06.000Z</time>
      </trkpt>
      <trkpt lat="46.70612" lon="5.87887">
        <ele>747.56219482422</ele>
        <time>2013-06-30T12:14:08.000Z</time>
      </trkpt>
      <trkpt lat="46.70619" lon="5.879">
        <ele>747.24774169922</ele>
        <time>2013-06-30T12:14:10.000Z</time>
      </trkpt>
      <trkpt lat="46.70626" lon="5.87914">
        <ele>746.28045654297</ele>
        <time>2013-06-30T12:14:12.000Z</time>
      </trkpt>
      <trkpt lat="46.70636" lon="5.87927">
        <ele>745.67034912109</ele>
        <time>2013-06-30T12:14:14.000Z</time>
      </trkpt>
      <trkpt lat="46.70648" lon="5.87938">
        <ele>745.21783447266</ele>
        <time>2013-06-30T12:14:16.000Z</time>
      </trkpt>
      <trkpt lat="46.70663" lon="5.87948">
        <ele>744.22814941406</ele>
        <time>2013-06-30T12:14:18.000Z</time>
      </trkpt>
      <trkpt lat="46.70678" lon="5.87958">
        <ele>743.17340087891</ele>
        <time>2013-06-30T12:14:20.000Z</time>
      </trkpt>
      <trkpt lat="46.70692" lon="5.87968">
        <ele>741.75775146484</ele>
        <time>2013-06-30T12:14:22.000Z</time>
      </trkpt>
      <trkpt lat="46.70705" lon="5.87981">
        <ele>740.677734375</ele>
        <time>2013-06-30T12:14:24.000Z</time>
      </trkpt>
      <trkpt lat="46.70716" lon="5.87994">
        <ele>739.68572998047</ele>
        <time>2013-06-30T12:14:26.000Z</time>
      </trkpt>
      <trkpt lat="46.70725" lon="5.88007">
        <ele>738.60083007812</ele>
        <time>2013-06-30T12:14:28.000Z</time>
      </trkpt>
      <trkpt lat="46.70734" lon="5.8802">
        <ele>737.98431396484</ele>
        <time>2013-06-30T12:14:30.000Z</time>
      </trkpt>
      <trkpt lat="46.70743" lon="5.88033">
        <ele>738.23266601562</ele>
        <time>2013-06-30T12:14:32.000Z</time>
      </trkpt>
      <trkpt lat="46.70751" lon="5.88043">
        <ele>738.73809814453</ele>
        <time>2013-06-30T12:14:34.000Z</time>
      </trkpt>
      <trkpt lat="46.7076" lon="5.88052">
        <ele>739.17205810547</ele>
        <time>2013-06-30T12:14:36.000Z</time>
      </trkpt>
      <trkpt lat="46.7077" lon="5.88061">
        <ele>739.42327880859</ele>
        <time>2013-06-30T12:14:38.000Z</time>
      </trkpt>
      <trkpt lat="46.7078" lon="5.88069">
        <ele>739.55511474609</ele>
        <time>2013-06-30T12:14:40.000Z</time>
      </trkpt>
      <trkpt lat="46.70788" lon="5.88079">
        <ele>739.74188232422</ele>
        <time>2013-06-30T12:14:42.000Z</time>
      </trkpt>
      <trkpt lat="46.70796" lon="5.8809">
        <ele>740.13879394531</ele>
        <time>2013-06-30T12:14:44.000Z</time>
      </trkpt>
      <trkpt lat="46.70801" lon="5.88105">
        <ele>739.92095947266</ele>
        <time>2013-06-30T12:14:46.000Z</time>
      </trkpt>
      <trkpt lat="46.70807" lon="5.88123">
        <ele>739.12347412109</ele>
        <time>2013-06-30T12:14:48.000Z</time>
      </trkpt>
      <trkpt lat="46.70811" lon="5.88141">
        <ele>738.34582519531</ele>
        <time>2013-06-30T12:14:50.000Z</time>
      </trkpt>
      <trkpt lat="46.70816" lon="5.88161">
        <ele>737.49652099609</ele>
        <time>2013-06-30T12:14:52.000Z</time>
      </trkpt>
      <trkpt lat="46.70822" lon="5.88181">
        <ele>736.72674560547</ele>
        <time>2013-06-30T12:14:54.000Z</time>
      </trkpt>
      <trkpt lat="46.70828" lon="5.88201">
        <ele>735.76879882812</ele>
        <time>2013-06-30T12:14:56.000Z</time>
      </trkpt>
      <trkpt lat="46.70831" lon="5.8822">
        <ele>734.65301513672</ele>
        <time>2013-06-30T12:14:58.000Z</time>
      </trkpt>
      <trkpt lat="46.7083" lon="5.88239">
        <ele>733.99108886719</ele>
        <time>2013-06-30T12:15:00.000Z</time>
      </trkpt>
      <trkpt lat="46.70824" lon="5.88256">
        <ele>733.53088378906</ele>
        <time>2013-06-30T12:15:02.000Z</time>
      </trkpt>
      <trkpt lat="46.70818" lon="5.8827">
        <ele>732.9541015625</ele>
        <time>2013-06-30T12:15:04.000Z</time>
      </trkpt>
      <trkpt lat="46.70811" lon="5.88282">
        <ele>732.99914550781</ele>
        <time>2013-06-30T12:15:06.000Z</time>
      </trkpt>
      <trkpt lat="46.70805" lon="5.88293">
        <ele>733.15380859375</ele>
        <time>2013-06-30T12:15:08.000Z</time>
      </trkpt>
      <trkpt lat="46.70799" lon="5.88304">
        <ele>733.11169433594</ele>
        <time>2013-06-30T12:15:10.000Z</time>
      </trkpt>
      <trkpt lat="46.70794" lon="5.88314">
        <ele>732.91040039062</ele>
        <time>2013-06-30T12:15:12.000Z</time>
      </trkpt>
      <trkpt lat="46.70789" lon="5.88322">
        <ele>733.68579101562</ele>
        <time>2013-06-30T12:15:14.000Z</time>
      </trkpt>
      <trkpt lat="46.70784" lon="5.88331">
        <ele>734.48052978516</ele>
        <time>2013-06-30T12:15:16.000Z</time>
      </trkpt>
      <trkpt lat="46.70779" lon="5.88342">
        <ele>734.14660644531</ele>
        <time>2013-06-30T12:15:18.000Z</time>
      </trkpt>
      <trkpt lat="46.70775" lon="5.88351">
        <ele>733.94732666016</ele>
        <time>2013-06-30T12:15:20.000Z</time>
      </trkpt>
      <trkpt lat="46.70771" lon="5.8836">
        <ele>734.02331542969</ele>
        <time>2013-06-30T12:15:22.000Z</time>
      </trkpt>
      <trkpt lat="46.70767" lon="5.88369">
        <ele>734.56292724609</ele>
        <time>2013-06-30T12:15:24.000Z</time>
      </trkpt>
      <trkpt lat="46.70763" lon="5.88378">
        <ele>734.85211181641</ele>
        <time>2013-06-30T12:15:26.000Z</time>
      </trkpt>
      <trkpt lat="46.70758" lon="5.88387">
        <ele>734.85974121094</ele>
        <time>2013-06-30T12:15:28.000Z</time>
      </trkpt>
      <trkpt lat="46.70755" lon="5.88397">
        <ele>734.86834716797</ele>
        <time>2013-06-30T12:15:30.000Z</time>
      </trkpt>
      <trkpt lat="46.70752" lon="5.88406">
        <ele>734.91796875</ele>
        <time>2013-06-30T12:15:32.000Z</time>
      </trkpt>
      <trkpt lat="46.70751" lon="5.88417">
        <ele>735.05249023438</ele>
        <time>2013-06-30T12:15:34.000Z</time>
      </trkpt>
      <trkpt lat="46.70751" lon="5.88429">
        <ele>736.78283691406</ele>
        <time>2013-06-30T12:15:36.000Z</time>
      </trkpt>
      <trkpt lat="46.70752" lon="5.88441">
        <ele>738.07336425781</ele>
        <time>2013-06-30T12:15:38.000Z</time>
      </trkpt>
      <trkpt lat="46.70754" lon="5.88454">
        <ele>738.61560058594</ele>
        <time>2013-06-30T12:15:40.000Z</time>
      </trkpt>
      <trkpt lat="46.70756" lon="5.88466">
        <ele>738.75720214844</ele>
        <time>2013-06-30T12:15:42.000Z</time>
      </trkpt>
      <trkpt lat="46.7076" lon="5.88477">
        <ele>739.10668945312</ele>
        <time>2013-06-30T12:15:44.000Z</time>
      </trkpt>
      <trkpt lat="46.70763" lon="5.88487">
        <ele>739.15942382812</ele>
        <time>2013-06-30T12:15:46.000Z</time>
      </trkpt>
      <trkpt lat="46.70766" lon="5.88496">
        <ele>739.31433105469</ele>
        <time>2013-06-30T12:15:48.000Z</time>
      </trkpt>
      <trkpt lat="46.70769" lon="5.88506">
        <ele>739.53326416016</ele>
        <time>2013-06-30T12:15:50.000Z</time>
      </trkpt>
      <trkpt lat="46.70773" lon="5.88516">
        <ele>739.78479003906</ele>
        <time>2013-06-30T12:15:52.000Z</time>
      </trkpt>
      <trkpt lat="46.70776" lon="5.88524">
        <ele>740.12811279297</ele>
        <time>2013-06-30T12:15:54.000Z</time>
      </trkpt>
      <trkpt lat="46.70778" lon="5.88533">
        <ele>740.58056640625</ele>
        <time>2013-06-30T12:15:56.000Z</time>
      </trkpt>
      <trkpt lat="46.70782" lon="5.88544">
        <ele>740.98138427734</ele>
        <time>2013-06-30T12:15:58.000Z</time>
      </trkpt>
      <trkpt lat="46.70784" lon="5.88555">
        <ele>741.36260986328</ele>
        <time>2013-06-30T12:16:00.000Z</time>
      </trkpt>
      <trkpt lat="46.70786" lon="5.88566">
        <ele>741.59887695312</ele>
        <time>2013-06-30T12:16:02.000Z</time>
      </trkpt>
      <trkpt lat="46.70788" lon="5.88578">
        <ele>742.15716552734</ele>
        <time>2013-06-30T12:16:04.000Z</time>
      </trkpt>
      <trkpt lat="46.70789" lon="5.8859">
        <ele>743.09466552734</ele>
        <time>2013-06-30T12:16:06.000Z</time>
      </trkpt>
      <trkpt lat="46.70791" lon="5.88603">
        <ele>743.78656005859</ele>
        <time>2013-06-30T12:16:08.000Z</time>
      </trkpt>
      <trkpt lat="46.70792" lon="5.88615">
        <ele>744.14624023438</ele>
        <time>2013-06-30T12:16:10.000Z</time>
      </trkpt>
      <trkpt lat="46.70793" lon="5.88629">
        <ele>744.36840820312</ele>
        <time>2013-06-30T12:16:12.000Z</time>
      </trkpt>
      <trkpt lat="46.70795" lon="5.88643">
        <ele>744.50714111328</ele>
        <time>2013-06-30T12:16:14.000Z</time>
      </trkpt>
      <trkpt lat="46.70796" lon="5.88657">
        <ele>744.77905273438</ele>
        <time>2013-06-30T12:16:16.000Z</time>
      </trkpt>
      <trkpt lat="46.70796" lon="5.88672">
        <ele>745.17529296875</ele>
        <time>2013-06-30T12:16:18.000Z</time>
      </trkpt>
      <trkpt lat="46.70795" lon="5.88689">
        <ele>745.09149169922</ele>
        <time>2013-06-30T12:16:20.000Z</time>
      </trkpt>
      <trkpt lat="46.70793" lon="5.88707">
        <ele>745.40386962891</ele>
        <time>2013-06-30T12:16:22.000Z</time>
      </trkpt>
      <trkpt lat="46.70789" lon="5.88726">
        <ele>745.16857910156</ele>
        <time>2013-06-30T12:16:24.000Z</time>
      </trkpt>
      <trkpt lat="46.70779" lon="5.88743">
        <ele>744.60858154297</ele>
        <time>2013-06-30T12:16:26.000Z</time>
      </trkpt>
      <trkpt lat="46.70771" lon="5.8876">
        <ele>743.77294921875</ele>
        <time>2013-06-30T12:16:28.000Z</time>
      </trkpt>
      <trkpt lat="46.70763" lon="5.88776">
        <ele>742.822265625</ele>
        <time>2013-06-30T12:16:30.000Z</time>
      </trkpt>
      <trkpt lat="46.70759" lon="5.88792">
        <ele>742.43627929688</ele>
        <time>2013-06-30T12:16:32.000Z</time>
      </trkpt>
      <trkpt lat="46.70756" lon="5.88808">
        <ele>742.69720458984</ele>
        <time>2013-06-30T12:16:34.000Z</time>
      </trkpt>
      <trkpt lat="46.70754" lon="5.88823">
        <ele>742.96624755859</ele>
        <time>2013-06-30T12:16:36.000Z</time>
      </trkpt>
      <trkpt lat="46.70752" lon="5.88841">
        <ele>742.89947509766</ele>
        <time>2013-06-30T12:16:38.000Z</time>
      </trkpt>
      <trkpt lat="46.70748" lon="5.88858">
        <ele>742.84552001953</ele>
        <time>2013-06-30T12:16:40.000Z</time>
      </trkpt>
      <trkpt lat="46.70742" lon="5.88874">
        <ele>743.10504150391</ele>
        <time>2013-06-30T12:16:42.000Z</time>
      </trkpt>
      <trkpt lat="46.70732" lon="5.8889">
        <ele>743.26959228516</ele>
        <time>2013-06-30T12:16:44.000Z</time>
      </trkpt>
      <trkpt lat="46.70721" lon="5.88907">
        <ele>742.91107177734</ele>
        <time>2013-06-30T12:16:46.000Z</time>
      </trkpt>
      <trkpt lat="46.70708" lon="5.88925">
        <ele>742.56994628906</ele>
        <time>2013-06-30T12:16:48.000Z</time>
      </trkpt>
      <trkpt lat="46.70695" lon="5.88943">
        <ele>742.22155761719</ele>
        <time>2013-06-30T12:16:50.000Z</time>
      </trkpt>
      <trkpt lat="46.70681" lon="5.88966">
        <ele>740.30255126953</ele>
        <time>2013-06-30T12:16:52.000Z</time>
      </trkpt>
      <trkpt lat="46.70668" lon="5.88991">
        <ele>738.43798828125</ele>
        <time>2013-06-30T12:16:54.000Z</time>
      </trkpt>
      <trkpt lat="46.70657" lon="5.89018">
        <ele>736.53063964844</ele>
        <time>2013-06-30T12:16:56.000Z</time>
      </trkpt>
      <trkpt lat="46.70647" lon="5.89045">
        <ele>734.73986816406</ele>
        <time>2013-06-30T12:16:58.000Z</time>
      </trkpt>
      <trkpt lat="46.70636" lon="5.89068">
        <ele>733.76647949219</ele>
        <time>2013-06-30T12:17:00.000Z</time>
      </trkpt>
      <trkpt lat="46.70624" lon="5.89089">
        <ele>733.64691162109</ele>
        <time>2013-06-30T12:17:02.000Z</time>
      </trkpt>
      <trkpt lat="46.70608" lon="5.89103">
        <ele>733.75622558594</ele>
        <time>2013-06-30T12:17:04.000Z</time>
      </trkpt>
      <trkpt lat="46.70593" lon="5.89112">
        <ele>734.10327148438</ele>
        <time>2013-06-30T12:17:06.000Z</time>
      </trkpt>
      <trkpt lat="46.70579" lon="5.8912">
        <ele>734.17291259766</ele>
        <time>2013-06-30T12:17:08.000Z</time>
      </trkpt>
      <trkpt lat="46.70566" lon="5.89128">
        <ele>733.88201904297</ele>
        <time>2013-06-30T12:17:10.000Z</time>
      </trkpt>
      <trkpt lat="46.70557" lon="5.89141">
        <ele>733.82781982422</ele>
        <time>2013-06-30T12:17:12.000Z</time>
      </trkpt>
      <trkpt lat="46.70548" lon="5.89156">
        <ele>734.13580322266</ele>
        <time>2013-06-30T12:17:14.000Z</time>
      </trkpt>
      <trkpt lat="46.70542" lon="5.89175">
        <ele>734.41223144531</ele>
        <time>2013-06-30T12:17:16.000Z</time>
      </trkpt>
      <trkpt lat="46.70537" lon="5.89196">
        <ele>734.56396484375</ele>
        <time>2013-06-30T12:17:18.000Z</time>
      </trkpt>
      <trkpt lat="46.70533" lon="5.89217">
        <ele>734.56591796875</ele>
        <time>2013-06-30T12:17:20.000Z</time>
      </trkpt>
      <trkpt lat="46.70526" lon="5.89239">
        <ele>733.67053222656</ele>
        <time>2013-06-30T12:17:22.000Z</time>
      </trkpt>
      <trkpt lat="46.70513" lon="5.89257">
        <ele>732.83758544922</ele>
        <time>2013-06-30T12:17:24.000Z</time>
      </trkpt>
      <trkpt lat="46.70499" lon="5.89276">
        <ele>732.09918212891</ele>
        <time>2013-06-30T12:17:26.000Z</time>
      </trkpt>
      <trkpt lat="46.70487" lon="5.89295">
        <ele>731.23907470703</ele>
        <time>2013-06-30T12:17:28.000Z</time>
      </trkpt>
      <trkpt lat="46.70478" lon="5.8931">
        <ele>730.44470214844</ele>
        <time>2013-06-30T12:17:30.000Z</time>
      </trkpt>
      <trkpt lat="46.70472" lon="5.89323">
        <ele>729.92352294922</ele>
        <time>2013-06-30T12:17:32.000Z</time>
      </trkpt>
      <trkpt lat="46.70469" lon="5.8933">
        <ele>729.80792236328</ele>
        <time>2013-06-30T12:17:34.000Z</time>
      </trkpt>
      <trkpt lat="46.70473" lon="5.89337">
        <ele>729.70617675781</ele>
        <time>2013-06-30T12:17:37.000Z</time>
      </trkpt>
      <trkpt lat="46.70477" lon="5.8934">
        <ele>729.52868652344</ele>
        <time>2013-06-30T12:17:39.000Z</time>
      </trkpt>
      <trkpt lat="46.70485" lon="5.89341">
        <ele>729.32025146484</ele>
        <time>2013-06-30T12:17:41.000Z</time>
      </trkpt>
      <trkpt lat="46.70492" lon="5.89341">
        <ele>729.10424804688</ele>
        <time>2013-06-30T12:17:43.000Z</time>
      </trkpt>
      <trkpt lat="46.70498" lon="5.89341">
        <ele>728.90246582031</ele>
        <time>2013-06-30T12:17:45.000Z</time>
      </trkpt>
      <trkpt lat="46.70504" lon="5.8934">
        <ele>728.80139160156</ele>
        <time>2013-06-30T12:17:47.000Z</time>
      </trkpt>
      <trkpt lat="46.70511" lon="5.8934">
        <ele>728.75616455078</ele>
        <time>2013-06-30T12:17:49.000Z</time>
      </trkpt>
      <trkpt lat="46.70518" lon="5.89339">
        <ele>728.68981933594</ele>
        <time>2013-06-30T12:17:51.000Z</time>
      </trkpt>
      <trkpt lat="46.70524" lon="5.89338">
        <ele>728.66436767578</ele>
        <time>2013-06-30T12:17:53.000Z</time>
      </trkpt>
      <trkpt lat="46.7053" lon="5.89339">
        <ele>728.59045410156</ele>
        <time>2013-06-30T12:17:55.000Z</time>
      </trkpt>
      <trkpt lat="46.70536" lon="5.89341">
        <ele>728.48602294922</ele>
        <time>2013-06-30T12:17:57.000Z</time>
      </trkpt>
      <trkpt lat="46.70542" lon="5.89343">
        <ele>728.37573242188</ele>
        <time>2013-06-30T12:17:59.000Z</time>
      </trkpt>
      <trkpt lat="46.70549" lon="5.89345">
        <ele>728.23388671875</ele>
        <time>2013-06-30T12:18:01.000Z</time>
      </trkpt>
      <trkpt lat="46.70554" lon="5.89347">
        <ele>728.07086181641</ele>
        <time>2013-06-30T12:18:03.000Z</time>
      </trkpt>
      <trkpt lat="46.70559" lon="5.89348">
        <ele>727.90008544922</ele>
        <time>2013-06-30T12:18:05.000Z</time>
      </trkpt>
      <trkpt lat="46.70565" lon="5.89347">
        <ele>727.73901367188</ele>
        <time>2013-06-30T12:18:08.000Z</time>
      </trkpt>
      <trkpt lat="46.70571" lon="5.89346">
        <ele>727.7919921875</ele>
        <time>2013-06-30T12:18:11.000Z</time>
      </trkpt>
      <trkpt lat="46.70576" lon="5.89346">
        <ele>727.90533447266</ele>
        <time>2013-06-30T12:18:13.000Z</time>
      </trkpt>
      <trkpt lat="46.7058" lon="5.8935">
        <ele>728.06072998047</ele>
        <time>2013-06-30T12:18:15.000Z</time>
      </trkpt>
      <trkpt lat="46.70584" lon="5.89357">
        <ele>728.21026611328</ele>
        <time>2013-06-30T12:18:17.000Z</time>
      </trkpt>
      <trkpt lat="46.70588" lon="5.89362">
        <ele>728.35168457031</ele>
        <time>2013-06-30T12:18:19.000Z</time>
      </trkpt>
      <trkpt lat="46.70592" lon="5.89367">
        <ele>728.63726806641</ele>
        <time>2013-06-30T12:18:22.000Z</time>
      </trkpt>
      <trkpt lat="46.70597" lon="5.89373">
        <ele>728.85327148438</ele>
        <time>2013-06-30T12:18:25.000Z</time>
      </trkpt>
      <trkpt lat="46.70601" lon="5.89378">
        <ele>728.89898681641</ele>
        <time>2013-06-30T12:18:27.000Z</time>
      </trkpt>
      <trkpt lat="46.70606" lon="5.89382">
        <ele>728.88055419922</ele>
        <time>2013-06-30T12:18:29.000Z</time>
      </trkpt>
      <trkpt lat="46.7061" lon="5.89386">
        <ele>728.93975830078</ele>
        <time>2013-06-30T12:18:31.000Z</time>
      </trkpt>
      <trkpt lat="46.70614" lon="5.8939">
        <ele>729.05487060547</ele>
        <time>2013-06-30T12:18:33.000Z</time>
      </trkpt>
      <trkpt lat="46.70618" lon="5.89396">
        <ele>729.07366943359</ele>
        <time>2013-06-30T12:18:35.000Z</time>
      </trkpt>
      <trkpt lat="46.70622" lon="5.89405">
        <ele>729.1474609375</ele>
        <time>2013-06-30T12:18:37.000Z</time>
      </trkpt>
      <trkpt lat="46.70626" lon="5.89414">
        <ele>729.18011474609</ele>
        <time>2013-06-30T12:18:39.000Z</time>
      </trkpt>
      <trkpt lat="46.7063" lon="5.89422">
        <ele>729.212890625</ele>
        <time>2013-06-30T12:18:41.000Z</time>
      </trkpt>
      <trkpt lat="46.70635" lon="5.89427">
        <ele>729.24572753906</ele>
        <time>2013-06-30T12:18:43.000Z</time>
      </trkpt>
      <trkpt lat="46.70641" lon="5.89433">
        <ele>729.30639648438</ele>
        <time>2013-06-30T12:18:45.000Z</time>
      </trkpt>
      <trkpt lat="46.70647" lon="5.89435">
        <ele>729.37615966797</ele>
        <time>2013-06-30T12:18:47.000Z</time>
      </trkpt>
      <trkpt lat="46.70652" lon="5.89436">
        <ele>729.50012207031</ele>
        <time>2013-06-30T12:18:49.000Z</time>
      </trkpt>
      <trkpt lat="46.70656" lon="5.89439">
        <ele>729.57580566406</ele>
        <time>2013-06-30T12:18:51.000Z</time>
      </trkpt>
      <trkpt lat="46.70662" lon="5.89442">
        <ele>729.61480712891</ele>
        <time>2013-06-30T12:18:54.000Z</time>
      </trkpt>
      <trkpt lat="46.70668" lon="5.89443">
        <ele>729.7841796875</ele>
        <time>2013-06-30T12:18:57.000Z</time>
      </trkpt>
      <trkpt lat="46.70674" lon="5.89444">
        <ele>729.87670898438</ele>
        <time>2013-06-30T12:18:59.000Z</time>
      </trkpt>
      <trkpt lat="46.70679" lon="5.89445">
        <ele>729.90539550781</ele>
        <time>2013-06-30T12:19:02.000Z</time>
      </trkpt>
      <trkpt lat="46.70685" lon="5.89446">
        <ele>730.03424072266</ele>
        <time>2013-06-30T12:19:06.000Z</time>
      </trkpt>
      <trkpt lat="46.7069" lon="5.89446">
        <ele>730.07781982422</ele>
        <time>2013-06-30T12:19:08.000Z</time>
      </trkpt>
      <trkpt lat="46.70697" lon="5.89445">
        <ele>730.05963134766</ele>
        <time>2013-06-30T12:19:10.000Z</time>
      </trkpt>
      <trkpt lat="46.70704" lon="5.89444">
        <ele>730.04968261719</ele>
        <time>2013-06-30T12:19:12.000Z</time>
      </trkpt>
      <trkpt lat="46.70711" lon="5.89443">
        <ele>730.01684570312</ele>
        <time>2013-06-30T12:19:14.000Z</time>
      </trkpt>
      <trkpt lat="46.70717" lon="5.89443">
        <ele>729.96459960938</ele>
        <time>2013-06-30T12:19:16.000Z</time>
      </trkpt>
      <trkpt lat="46.70722" lon="5.89443">
        <ele>730.00598144531</ele>
        <time>2013-06-30T12:19:18.000Z</time>
      </trkpt>
      <trkpt lat="46.70728" lon="5.89443">
        <ele>730.11865234375</ele>
        <time>2013-06-30T12:19:20.000Z</time>
      </trkpt>
      <trkpt lat="46.70734" lon="5.89443">
        <ele>730.30780029297</ele>
        <time>2013-06-30T12:19:22.000Z</time>
      </trkpt>
      <trkpt lat="46.70739" lon="5.89442">
        <ele>730.40057373047</ele>
        <time>2013-06-30T12:19:24.000Z</time>
      </trkpt>
      <trkpt lat="46.70745" lon="5.89441">
        <ele>730.51898193359</ele>
        <time>2013-06-30T12:19:26.000Z</time>
      </trkpt>
      <trkpt lat="46.70752" lon="5.8944">
        <ele>730.56170654297</ele>
        <time>2013-06-30T12:19:28.000Z</time>
      </trkpt>
      <trkpt lat="46.70759" lon="5.89439">
        <ele>730.53753662109</ele>
        <time>2013-06-30T12:19:30.000Z</time>
      </trkpt>
      <trkpt lat="46.70766" lon="5.89438">
        <ele>730.54266357422</ele>
        <time>2013-06-30T12:19:32.000Z</time>
      </trkpt>
      <trkpt lat="46.70772" lon="5.89436">
        <ele>730.57873535156</ele>
        <time>2013-06-30T12:19:34.000Z</time>
      </trkpt>
      <trkpt lat="46.70776" lon="5.89433">
        <ele>730.55230712891</ele>
        <time>2013-06-30T12:19:36.000Z</time>
      </trkpt>
      <trkpt lat="46.70781" lon="5.89432">
        <ele>730.46160888672</ele>
        <time>2013-06-30T12:19:39.000Z</time>
      </trkpt>
      <trkpt lat="46.70786" lon="5.89431">
        <ele>730.41229248047</ele>
        <time>2013-06-30T12:19:42.000Z</time>
      </trkpt>
      <trkpt lat="46.70793" lon="5.89431">
        <ele>730.42114257812</ele>
        <time>2013-06-30T12:19:45.000Z</time>
      </trkpt>
      <trkpt lat="46.70799" lon="5.8943">
        <ele>730.46539306641</ele>
        <time>2013-06-30T12:19:47.000Z</time>
      </trkpt>
      <trkpt lat="46.70805" lon="5.89429">
        <ele>730.49694824219</ele>
        <time>2013-06-30T12:19:49.000Z</time>
      </trkpt>
      <trkpt lat="46.7081" lon="5.89429">
        <ele>730.51525878906</ele>
        <time>2013-06-30T12:19:51.000Z</time>
      </trkpt>
      <trkpt lat="46.70815" lon="5.89429">
        <ele>730.52215576172</ele>
        <time>2013-06-30T12:19:53.000Z</time>
      </trkpt>
      <trkpt lat="46.70819" lon="5.89429">
        <ele>730.58404541016</ele>
        <time>2013-06-30T12:19:56.000Z</time>
      </trkpt>
      <trkpt lat="46.70825" lon="5.89428">
        <ele>730.78649902344</ele>
        <time>2013-06-30T12:19:59.000Z</time>
      </trkpt>
      <trkpt lat="46.7083" lon="5.89427">
        <ele>730.8154296875</ele>
        <time>2013-06-30T12:20:01.000Z</time>
      </trkpt>
      <trkpt lat="46.70835" lon="5.89426">
        <ele>730.85168457031</ele>
        <time>2013-06-30T12:20:03.000Z</time>
      </trkpt>
      <trkpt lat="46.70841" lon="5.89424">
        <ele>730.87463378906</ele>
        <time>2013-06-30T12:20:05.000Z</time>
      </trkpt>
      <trkpt lat="46.70846" lon="5.89422">
        <ele>730.86120605469</ele>
        <time>2013-06-30T12:20:07.000Z</time>
      </trkpt>
      <trkpt lat="46.70852" lon="5.8942">
        <ele>730.87066650391</ele>
        <time>2013-06-30T12:20:09.000Z</time>
      </trkpt>
      <trkpt lat="46.70858" lon="5.89417">
        <ele>730.89196777344</ele>
        <time>2013-06-30T12:20:11.000Z</time>
      </trkpt>
      <trkpt lat="46.70865" lon="5.89414">
        <ele>730.83013916016</ele>
        <time>2013-06-30T12:20:13.000Z</time>
      </trkpt>
      <trkpt lat="46.70873" lon="5.8941">
        <ele>730.79315185547</ele>
        <time>2013-06-30T12:20:15.000Z</time>
      </trkpt>
      <trkpt lat="46.70879" lon="5.89407">
        <ele>730.80725097656</ele>
        <time>2013-06-30T12:20:17.000Z</time>
      </trkpt>
      <trkpt lat="46.70884" lon="5.89406">
        <ele>730.87744140625</ele>
        <time>2013-06-30T12:20:19.000Z</time>
      </trkpt>
      <trkpt lat="46.70891" lon="5.89404">
        <ele>730.94903564453</ele>
        <time>2013-06-30T12:20:21.000Z</time>
      </trkpt>
      <trkpt lat="46.70897" lon="5.89403">
        <ele>730.96966552734</ele>
        <time>2013-06-30T12:20:23.000Z</time>
      </trkpt>
      <trkpt lat="46.70904" lon="5.894">
        <ele>730.95593261719</ele>
        <time>2013-06-30T12:20:25.000Z</time>
      </trkpt>
      <trkpt lat="46.70912" lon="5.89395">
        <ele>730.83813476562</ele>
        <time>2013-06-30T12:20:27.000Z</time>
      </trkpt>
      <trkpt lat="46.70918" lon="5.89389">
        <ele>730.70343017578</ele>
        <time>2013-06-30T12:20:29.000Z</time>
      </trkpt>
      <trkpt lat="46.70923" lon="5.89385">
        <ele>730.57983398438</ele>
        <time>2013-06-30T12:20:31.000Z</time>
      </trkpt>
      <trkpt lat="46.70927" lon="5.8938">
        <ele>730.39788818359</ele>
        <time>2013-06-30T12:20:33.000Z</time>
      </trkpt>
      <trkpt lat="46.70932" lon="5.89376">
        <ele>730.29119873047</ele>
        <time>2013-06-30T12:20:35.000Z</time>
      </trkpt>
      <trkpt lat="46.70936" lon="5.89372">
        <ele>729.85552978516</ele>
        <time>2013-06-30T12:20:43.000Z</time>
      </trkpt>
      <trkpt lat="46.70945" lon="5.89371">
        <ele>729.58428955078</ele>
        <time>2013-06-30T12:20:47.000Z</time>
      </trkpt>
      <trkpt lat="46.7095" lon="5.8937">
        <ele>729.49530029297</ele>
        <time>2013-06-30T12:20:50.000Z</time>
      </trkpt>
      <trkpt lat="46.70955" lon="5.8937">
        <ele>729.30621337891</ele>
        <time>2013-06-30T12:20:52.000Z</time>
      </trkpt>
      <trkpt lat="46.70964" lon="5.89369">
        <ele>728.59375</ele>
        <time>2013-06-30T12:20:59.000Z</time>
      </trkpt>
      <trkpt lat="46.70969" lon="5.89367">
        <ele>728.33013916016</ele>
        <time>2013-06-30T12:21:02.000Z</time>
      </trkpt>
      <trkpt lat="46.70975" lon="5.89365">
        <ele>728.17895507812</ele>
        <time>2013-06-30T12:21:05.000Z</time>
      </trkpt>
      <trkpt lat="46.7098" lon="5.89361">
        <ele>728.11932373047</ele>
        <time>2013-06-30T12:21:07.000Z</time>
      </trkpt>
      <trkpt lat="46.70987" lon="5.89356">
        <ele>727.99114990234</ele>
        <time>2013-06-30T12:21:09.000Z</time>
      </trkpt>
      <trkpt lat="46.70994" lon="5.89353">
        <ele>727.83050537109</ele>
        <time>2013-06-30T12:21:11.000Z</time>
      </trkpt>
      <trkpt lat="46.70998" lon="5.89351">
        <ele>727.74359130859</ele>
        <time>2013-06-30T12:21:13.000Z</time>
      </trkpt>
      <trkpt lat="46.71003" lon="5.89349">
        <ele>727.76727294922</ele>
        <time>2013-06-30T12:21:15.000Z</time>
      </trkpt>
      <trkpt lat="46.71009" lon="5.89348">
        <ele>727.74639892578</ele>
        <time>2013-06-30T12:21:17.000Z</time>
      </trkpt>
      <trkpt lat="46.71014" lon="5.89347">
        <ele>727.52062988281</ele>
        <time>2013-06-30T12:21:19.000Z</time>
      </trkpt>
      <trkpt lat="46.71018" lon="5.89347">
        <ele>727.33813476562</ele>
        <time>2013-06-30T12:21:21.000Z</time>
      </trkpt>
      <trkpt lat="46.71023" lon="5.89343">
        <ele>726.90295410156</ele>
        <time>2013-06-30T12:21:25.000Z</time>
      </trkpt>
      <trkpt lat="46.71025" lon="5.89337">
        <ele>726.67224121094</ele>
        <time>2013-06-30T12:21:27.000Z</time>
      </trkpt>
      <trkpt lat="46.71026" lon="5.8933">
        <ele>726.39996337891</ele>
        <time>2013-06-30T12:21:29.000Z</time>
      </trkpt>
      <trkpt lat="46.71029" lon="5.89321">
        <ele>726.19561767578</ele>
        <time>2013-06-30T12:21:32.000Z</time>
      </trkpt>
      <trkpt lat="46.71031" lon="5.89312">
        <ele>726.048828125</ele>
        <time>2013-06-30T12:21:34.000Z</time>
      </trkpt>
      <trkpt lat="46.71035" lon="5.89303">
        <ele>725.86785888672</ele>
        <time>2013-06-30T12:21:36.000Z</time>
      </trkpt>
      <trkpt lat="46.7104" lon="5.89298">
        <ele>725.57446289062</ele>
        <time>2013-06-30T12:21:38.000Z</time>
      </trkpt>
      <trkpt lat="46.71044" lon="5.89295">
        <ele>725.30572509766</ele>
        <time>2013-06-30T12:21:40.000Z</time>
      </trkpt>
      <trkpt lat="46.71049" lon="5.89292">
        <ele>725.076171875</ele>
        <time>2013-06-30T12:21:42.000Z</time>
      </trkpt>
      <trkpt lat="46.71053" lon="5.89288">
        <ele>724.99359130859</ele>
        <time>2013-06-30T12:21:44.000Z</time>
      </trkpt>
      <trkpt lat="46.71058" lon="5.89283">
        <ele>724.93218994141</ele>
        <time>2013-06-30T12:21:46.000Z</time>
      </trkpt>
      <trkpt lat="46.71062" lon="5.89277">
        <ele>724.91174316406</ele>
        <time>2013-06-30T12:21:48.000Z</time>
      </trkpt>
      <trkpt lat="46.71065" lon="5.89271">
        <ele>724.89373779297</ele>
        <time>2013-06-30T12:21:50.000Z</time>
      </trkpt>
      <trkpt lat="46.71069" lon="5.89265">
        <ele>724.79943847656</ele>
        <time>2013-06-30T12:21:52.000Z</time>
      </trkpt>
      <trkpt lat="46.71073" lon="5.89258">
        <ele>724.64337158203</ele>
        <time>2013-06-30T12:21:54.000Z</time>
      </trkpt>
      <trkpt lat="46.71076" lon="5.89252">
        <ele>724.39184570312</ele>
        <time>2013-06-30T12:21:56.000Z</time>
      </trkpt>
      <trkpt lat="46.71081" lon="5.89247">
        <ele>724.15606689453</ele>
        <time>2013-06-30T12:21:58.000Z</time>
      </trkpt>
      <trkpt lat="46.71086" lon="5.89242">
        <ele>723.97735595703</ele>
        <time>2013-06-30T12:22:00.000Z</time>
      </trkpt>
      <trkpt lat="46.71092" lon="5.89238">
        <ele>723.62866210938</ele>
        <time>2013-06-30T12:22:02.000Z</time>
      </trkpt>
      <trkpt lat="46.71099" lon="5.89238">
        <ele>723.36053466797</ele>
        <time>2013-06-30T12:22:04.000Z</time>
      </trkpt>
      <trkpt lat="46.71106" lon="5.89237">
        <ele>723.06494140625</ele>
        <time>2013-06-30T12:22:06.000Z</time>
      </trkpt>
      <trkpt lat="46.71113" lon="5.89236">
        <ele>722.74261474609</ele>
        <time>2013-06-30T12:22:08.000Z</time>
      </trkpt>
      <trkpt lat="46.71119" lon="5.89235">
        <ele>722.58099365234</ele>
        <time>2013-06-30T12:22:10.000Z</time>
      </trkpt>
      <trkpt lat="46.71124" lon="5.89234">
        <ele>722.47436523438</ele>
        <time>2013-06-30T12:22:12.000Z</time>
      </trkpt>
      <trkpt lat="46.7113" lon="5.89234">
        <ele>722.48394775391</ele>
        <time>2013-06-30T12:22:14.000Z</time>
      </trkpt>
      <trkpt lat="46.71135" lon="5.89234">
        <ele>722.66235351562</ele>
        <time>2013-06-30T12:22:17.000Z</time>
      </trkpt>
      <trkpt lat="46.7114" lon="5.89231">
        <ele>722.73150634766</ele>
        <time>2013-06-30T12:22:20.000Z</time>
      </trkpt>
      <trkpt lat="46.71144" lon="5.89228">
        <ele>722.90948486328</ele>
        <time>2013-06-30T12:22:23.000Z</time>
      </trkpt>
      <trkpt lat="46.71151" lon="5.8923">
        <ele>722.7705078125</ele>
        <time>2013-06-30T12:22:26.000Z</time>
      </trkpt>
      <trkpt lat="46.71157" lon="5.89231">
        <ele>722.50982666016</ele>
        <time>2013-06-30T12:22:29.000Z</time>
      </trkpt>
      <trkpt lat="46.71163" lon="5.89229">
        <ele>722.22967529297</ele>
        <time>2013-06-30T12:22:31.000Z</time>
      </trkpt>
      <trkpt lat="46.71169" lon="5.89229">
        <ele>721.96636962891</ele>
        <time>2013-06-30T12:22:33.000Z</time>
      </trkpt>
      <trkpt lat="46.71177" lon="5.8923">
        <ele>721.77056884766</ele>
        <time>2013-06-30T12:22:35.000Z</time>
      </trkpt>
      <trkpt lat="46.71183" lon="5.89228">
        <ele>721.48406982422</ele>
        <time>2013-06-30T12:22:37.000Z</time>
      </trkpt>
      <trkpt lat="46.71188" lon="5.89227">
        <ele>721.19641113281</ele>
        <time>2013-06-30T12:22:39.000Z</time>
      </trkpt>
      <trkpt lat="46.71192" lon="5.89223">
        <ele>721.01678466797</ele>
        <time>2013-06-30T12:22:41.000Z</time>
      </trkpt>
      <trkpt lat="46.71196" lon="5.89219">
        <ele>721.02813720703</ele>
        <time>2013-06-30T12:22:43.000Z</time>
      </trkpt>
      <trkpt lat="46.71202" lon="5.89215">
        <ele>721.01684570312</ele>
        <time>2013-06-30T12:22:46.000Z</time>
      </trkpt>
      <trkpt lat="46.71207" lon="5.89213">
        <ele>721.15826416016</ele>
        <time>2013-06-30T12:22:48.000Z</time>
      </trkpt>
      <trkpt lat="46.71215" lon="5.89211">
        <ele>721.33416748047</ele>
        <time>2013-06-30T12:22:50.000Z</time>
      </trkpt>
      <trkpt lat="46.71223" lon="5.89207">
        <ele>721.34246826172</ele>
        <time>2013-06-30T12:22:52.000Z</time>
      </trkpt>
      <trkpt lat="46.7123" lon="5.892">
        <ele>721.17901611328</ele>
        <time>2013-06-30T12:22:54.000Z</time>
      </trkpt>
      <trkpt lat="46.71236" lon="5.89195">
        <ele>720.91845703125</ele>
        <time>2013-06-30T12:22:56.000Z</time>
      </trkpt>
      <trkpt lat="46.71241" lon="5.89192">
        <ele>720.78930664062</ele>
        <time>2013-06-30T12:22:58.000Z</time>
      </trkpt>
      <trkpt lat="46.71247" lon="5.89188">
        <ele>720.72082519531</ele>
        <time>2013-06-30T12:23:00.000Z</time>
      </trkpt>
      <trkpt lat="46.71253" lon="5.89185">
        <ele>720.61352539062</ele>
        <time>2013-06-30T12:23:02.000Z</time>
      </trkpt>
      <trkpt lat="46.71259" lon="5.89181">
        <ele>720.53509521484</ele>
        <time>2013-06-30T12:23:04.000Z</time>
      </trkpt>
      <trkpt lat="46.71266" lon="5.89177">
        <ele>720.51824951172</ele>
        <time>2013-06-30T12:23:06.000Z</time>
      </trkpt>
      <trkpt lat="46.71272" lon="5.89174">
        <ele>720.56774902344</ele>
        <time>2013-06-30T12:23:08.000Z</time>
      </trkpt>
      <trkpt lat="46.71278" lon="5.89171">
        <ele>720.69836425781</ele>
        <time>2013-06-30T12:23:10.000Z</time>
      </trkpt>
      <trkpt lat="46.71285" lon="5.89167">
        <ele>720.77819824219</ele>
        <time>2013-06-30T12:23:12.000Z</time>
      </trkpt>
      <trkpt lat="46.71293" lon="5.89161">
        <ele>720.88122558594</ele>
        <time>2013-06-30T12:23:14.000Z</time>
      </trkpt>
      <trkpt lat="46.71301" lon="5.89159">
        <ele>721.04486083984</ele>
        <time>2013-06-30T12:23:16.000Z</time>
      </trkpt>
      <trkpt lat="46.71308" lon="5.89158">
        <ele>721.10931396484</ele>
        <time>2013-06-30T12:23:18.000Z</time>
      </trkpt>
      <trkpt lat="46.71315" lon="5.89158">
        <ele>721.12915039062</ele>
        <time>2013-06-30T12:23:20.000Z</time>
      </trkpt>
      <trkpt lat="46.71323" lon="5.89157">
        <ele>721.13873291016</ele>
        <time>2013-06-30T12:23:22.000Z</time>
      </trkpt>
      <trkpt lat="46.71329" lon="5.89158">
        <ele>721.23254394531</ele>
        <time>2013-06-30T12:23:24.000Z</time>
      </trkpt>
      <trkpt lat="46.71335" lon="5.89158">
        <ele>721.18060302734</ele>
        <time>2013-06-30T12:23:26.000Z</time>
      </trkpt>
      <trkpt lat="46.71342" lon="5.89157">
        <ele>721.11004638672</ele>
        <time>2013-06-30T12:23:28.000Z</time>
      </trkpt>
      <trkpt lat="46.7135" lon="5.89157">
        <ele>721.12512207031</ele>
        <time>2013-06-30T12:23:30.000Z</time>
      </trkpt>
      <trkpt lat="46.71357" lon="5.89156">
        <ele>721.20837402344</ele>
        <time>2013-06-30T12:23:32.000Z</time>
      </trkpt>
      <trkpt lat="46.71364" lon="5.89156">
        <ele>721.14880371094</ele>
        <time>2013-06-30T12:23:34.000Z</time>
      </trkpt>
      <trkpt lat="46.71372" lon="5.89156">
        <ele>720.90930175781</ele>
        <time>2013-06-30T12:23:36.000Z</time>
      </trkpt>
      <trkpt lat="46.71379" lon="5.89157">
        <ele>720.66229248047</ele>
        <time>2013-06-30T12:23:38.000Z</time>
      </trkpt>
      <trkpt lat="46.71385" lon="5.89157">
        <ele>720.48931884766</ele>
        <time>2013-06-30T12:23:40.000Z</time>
      </trkpt>
      <trkpt lat="46.71393" lon="5.89156">
        <ele>720.29602050781</ele>
        <time>2013-06-30T12:23:42.000Z</time>
      </trkpt>
      <trkpt lat="46.714" lon="5.89156">
        <ele>720.0673828125</ele>
        <time>2013-06-30T12:23:44.000Z</time>
      </trkpt>
      <trkpt lat="46.71409" lon="5.89155">
        <ele>719.70404052734</ele>
        <time>2013-06-30T12:23:46.000Z</time>
      </trkpt>
      <trkpt lat="46.71418" lon="5.89154">
        <ele>719.22613525391</ele>
        <time>2013-06-30T12:23:48.000Z</time>
      </trkpt>
      <trkpt lat="46.71426" lon="5.89155">
        <ele>718.73681640625</ele>
        <time>2013-06-30T12:23:50.000Z</time>
      </trkpt>
      <trkpt lat="46.71433" lon="5.8916">
        <ele>718.28814697266</ele>
        <time>2013-06-30T12:23:52.000Z</time>
      </trkpt>
      <trkpt lat="46.71437" lon="5.89167">
        <ele>718.00506591797</ele>
        <time>2013-06-30T12:23:54.000Z</time>
      </trkpt>
      <trkpt lat="46.71434" lon="5.89175">
        <ele>717.61706542969</ele>
        <time>2013-06-30T12:23:57.000Z</time>
      </trkpt>
      <trkpt lat="46.7143" lon="5.89179">
        <ele>717.42547607422</ele>
        <time>2013-06-30T12:23:59.000Z</time>
      </trkpt>
      <trkpt lat="46.71424" lon="5.89183">
        <ele>717.20788574219</ele>
        <time>2013-06-30T12:24:01.000Z</time>
      </trkpt>
      <trkpt lat="46.71418" lon="5.89186">
        <ele>717.00543212891</ele>
        <time>2013-06-30T12:24:03.000Z</time>
      </trkpt>
      <trkpt lat="46.71414" lon="5.89189">
        <ele>716.78692626953</ele>
        <time>2013-06-30T12:24:05.000Z</time>
      </trkpt>
      <trkpt lat="46.71408" lon="5.89196">
        <ele>716.55230712891</ele>
        <time>2013-06-30T12:24:08.000Z</time>
      </trkpt>
      <trkpt lat="46.71404" lon="5.89202">
        <ele>716.41540527344</ele>
        <time>2013-06-30T12:24:11.000Z</time>
      </trkpt>
      <trkpt lat="46.714" lon="5.89207">
        <ele>716.3935546875</ele>
        <time>2013-06-30T12:24:13.000Z</time>
      </trkpt>
      <trkpt lat="46.71395" lon="5.89211">
        <ele>716.38354492188</ele>
        <time>2013-06-30T12:24:15.000Z</time>
      </trkpt>
      <trkpt lat="46.7139" lon="5.89215">
        <ele>716.35443115234</ele>
        <time>2013-06-30T12:24:17.000Z</time>
      </trkpt>
      <trkpt lat="46.71385" lon="5.89219">
        <ele>716.42901611328</ele>
        <time>2013-06-30T12:24:19.000Z</time>
      </trkpt>
      <trkpt lat="46.71381" lon="5.89223">
        <ele>716.57012939453</ele>
        <time>2013-06-30T12:24:21.000Z</time>
      </trkpt>
      <trkpt lat="46.71377" lon="5.89227">
        <ele>716.572265625</ele>
        <time>2013-06-30T12:24:23.000Z</time>
      </trkpt>
      <trkpt lat="46.71373" lon="5.89233">
        <ele>716.65863037109</ele>
        <time>2013-06-30T12:24:25.000Z</time>
      </trkpt>
      <trkpt lat="46.71371" lon="5.89239">
        <ele>716.78088378906</ele>
        <time>2013-06-30T12:24:27.000Z</time>
      </trkpt>
      <trkpt lat="46.71369" lon="5.89245">
        <ele>716.8759765625</ele>
        <time>2013-06-30T12:24:29.000Z</time>
      </trkpt>
      <trkpt lat="46.71367" lon="5.89254">
        <ele>717.07116699219</ele>
        <time>2013-06-30T12:24:32.000Z</time>
      </trkpt>
      <trkpt lat="46.71368" lon="5.89263">
        <ele>717.27404785156</ele>
        <time>2013-06-30T12:24:35.000Z</time>
      </trkpt>
      <trkpt lat="46.71369" lon="5.89269">
        <ele>717.45385742188</ele>
        <time>2013-06-30T12:24:37.000Z</time>
      </trkpt>
      <trkpt lat="46.71372" lon="5.89278">
        <ele>717.77380371094</ele>
        <time>2013-06-30T12:24:40.000Z</time>
      </trkpt>
      <trkpt lat="46.71377" lon="5.89284">
        <ele>718.24444580078</ele>
        <time>2013-06-30T12:24:43.000Z</time>
      </trkpt>
      <trkpt lat="46.71382" lon="5.8929">
        <ele>718.82214355469</ele>
        <time>2013-06-30T12:24:46.000Z</time>
      </trkpt>
      <trkpt lat="46.71386" lon="5.89292">
        <ele>719.21057128906</ele>
        <time>2013-06-30T12:24:48.000Z</time>
      </trkpt>
      <trkpt lat="46.71391" lon="5.89294">
        <ele>719.59704589844</ele>
        <time>2013-06-30T12:24:50.000Z</time>
      </trkpt>
      <trkpt lat="46.71398" lon="5.89295">
        <ele>719.95452880859</ele>
        <time>2013-06-30T12:24:52.000Z</time>
      </trkpt>
      <trkpt lat="46.71405" lon="5.89296">
        <ele>720.21301269531</ele>
        <time>2013-06-30T12:24:54.000Z</time>
      </trkpt>
      <trkpt lat="46.71411" lon="5.89298">
        <ele>720.42376708984</ele>
        <time>2013-06-30T12:24:56.000Z</time>
      </trkpt>
      <trkpt lat="46.71418" lon="5.89298">
        <ele>720.60247802734</ele>
        <time>2013-06-30T12:24:58.000Z</time>
      </trkpt>
      <trkpt lat="46.71426" lon="5.89299">
        <ele>720.78869628906</ele>
        <time>2013-06-30T12:25:00.000Z</time>
      </trkpt>
      <trkpt lat="46.71434" lon="5.89301">
        <ele>721.03503417969</ele>
        <time>2013-06-30T12:25:02.000Z</time>
      </trkpt>
      <trkpt lat="46.71442" lon="5.89302">
        <ele>722.71783447266</ele>
        <time>2013-06-30T12:25:04.000Z</time>
      </trkpt>
      <trkpt lat="46.71452" lon="5.89304">
        <ele>724.45916748047</ele>
        <time>2013-06-30T12:25:06.000Z</time>
      </trkpt>
      <trkpt lat="46.7146" lon="5.89306">
        <ele>725.31060791016</ele>
        <time>2013-06-30T12:25:08.000Z</time>
      </trkpt>
      <trkpt lat="46.71467" lon="5.89308">
        <ele>725.46368408203</ele>
        <time>2013-06-30T12:25:10.000Z</time>
      </trkpt>
      <trkpt lat="46.71474" lon="5.8931">
        <ele>725.57086181641</ele>
        <time>2013-06-30T12:25:12.000Z</time>
      </trkpt>
      <trkpt lat="46.71482" lon="5.89313">
        <ele>727.06982421875</ele>
        <time>2013-06-30T12:25:14.000Z</time>
      </trkpt>
      <trkpt lat="46.7149" lon="5.89317">
        <ele>728.29180908203</ele>
        <time>2013-06-30T12:25:16.000Z</time>
      </trkpt>
      <trkpt lat="46.71498" lon="5.89322">
        <ele>728.86694335938</ele>
        <time>2013-06-30T12:25:18.000Z</time>
      </trkpt>
      <trkpt lat="46.71506" lon="5.89328">
        <ele>728.59100341797</ele>
        <time>2013-06-30T12:25:20.000Z</time>
      </trkpt>
      <trkpt lat="46.71512" lon="5.89335">
        <ele>728.60418701172</ele>
        <time>2013-06-30T12:25:22.000Z</time>
      </trkpt>
      <trkpt lat="46.71518" lon="5.89344">
        <ele>728.71160888672</ele>
        <time>2013-06-30T12:25:24.000Z</time>
      </trkpt>
      <trkpt lat="46.71524" lon="5.89354">
        <ele>728.96856689453</ele>
        <time>2013-06-30T12:25:26.000Z</time>
      </trkpt>
      <trkpt lat="46.7153" lon="5.89363">
        <ele>729.51031494141</ele>
        <time>2013-06-30T12:25:28.000Z</time>
      </trkpt>
      <trkpt lat="46.71535" lon="5.89373">
        <ele>730.92736816406</ele>
        <time>2013-06-30T12:25:30.000Z</time>
      </trkpt>
      <trkpt lat="46.71541" lon="5.89383">
        <ele>732.03674316406</ele>
        <time>2013-06-30T12:25:32.000Z</time>
      </trkpt>
      <trkpt lat="46.71546" lon="5.89393">
        <ele>732.11077880859</ele>
        <time>2013-06-30T12:25:34.000Z</time>
      </trkpt>
      <trkpt lat="46.71552" lon="5.89403">
        <ele>732.20495605469</ele>
        <time>2013-06-30T12:25:36.000Z</time>
      </trkpt>
      <trkpt lat="46.71557" lon="5.89413">
        <ele>732.14593505859</ele>
        <time>2013-06-30T12:25:38.000Z</time>
      </trkpt>
      <trkpt lat="46.71562" lon="5.89422">
        <ele>732.59576416016</ele>
        <time>2013-06-30T12:25:40.000Z</time>
      </trkpt>
      <trkpt lat="46.71566" lon="5.89432">
        <ele>733.51983642578</ele>
        <time>2013-06-30T12:25:42.000Z</time>
      </trkpt>
      <trkpt lat="46.7157" lon="5.89443">
        <ele>733.84393310547</ele>
        <time>2013-06-30T12:25:44.000Z</time>
      </trkpt>
      <trkpt lat="46.71573" lon="5.89454">
        <ele>733.80096435547</ele>
        <time>2013-06-30T12:25:46.000Z</time>
      </trkpt>
      <trkpt lat="46.71574" lon="5.89468">
        <ele>733.20422363281</ele>
        <time>2013-06-30T12:25:48.000Z</time>
      </trkpt>
      <trkpt lat="46.71576" lon="5.89484">
        <ele>732.92633056641</ele>
        <time>2013-06-30T12:25:50.000Z</time>
      </trkpt>
      <trkpt lat="46.71576" lon="5.89499">
        <ele>732.76544189453</ele>
        <time>2013-06-30T12:25:52.000Z</time>
      </trkpt>
      <trkpt lat="46.71577" lon="5.89512">
        <ele>731.22711181641</ele>
        <time>2013-06-30T12:25:54.000Z</time>
      </trkpt>
      <trkpt lat="46.71576" lon="5.89527">
        <ele>730.62719726562</ele>
        <time>2013-06-30T12:25:56.000Z</time>
      </trkpt>
      <trkpt lat="46.71576" lon="5.8954">
        <ele>730.74291992188</ele>
        <time>2013-06-30T12:25:58.000Z</time>
      </trkpt>
      <trkpt lat="46.71576" lon="5.89552">
        <ele>731.51843261719</ele>
        <time>2013-06-30T12:26:00.000Z</time>
      </trkpt>
      <trkpt lat="46.71576" lon="5.89564">
        <ele>731.81329345703</ele>
        <time>2013-06-30T12:26:02.000Z</time>
      </trkpt>
      <trkpt lat="46.71575" lon="5.89576">
        <ele>732.04675292969</ele>
        <time>2013-06-30T12:26:04.000Z</time>
      </trkpt>
      <trkpt lat="46.71574" lon="5.89586">
        <ele>732.20989990234</ele>
        <time>2013-06-30T12:26:06.000Z</time>
      </trkpt>
      <trkpt lat="46.71572" lon="5.89598">
        <ele>732.47003173828</ele>
        <time>2013-06-30T12:26:08.000Z</time>
      </trkpt>
      <trkpt lat="46.7157" lon="5.89607">
        <ele>732.79180908203</ele>
        <time>2013-06-30T12:26:10.000Z</time>
      </trkpt>
      <trkpt lat="46.71569" lon="5.89617">
        <ele>733.08148193359</ele>
        <time>2013-06-30T12:26:12.000Z</time>
      </trkpt>
      <trkpt lat="46.71568" lon="5.89626">
        <ele>733.33312988281</ele>
        <time>2013-06-30T12:26:14.000Z</time>
      </trkpt>
      <trkpt lat="46.71567" lon="5.89635">
        <ele>733.63128662109</ele>
        <time>2013-06-30T12:26:16.000Z</time>
      </trkpt>
      <trkpt lat="46.71566" lon="5.89645">
        <ele>733.88745117188</ele>
        <time>2013-06-30T12:26:18.000Z</time>
      </trkpt>
      <trkpt lat="46.71566" lon="5.89653">
        <ele>734.09356689453</ele>
        <time>2013-06-30T12:26:20.000Z</time>
      </trkpt>
      <trkpt lat="46.71565" lon="5.89662">
        <ele>734.26422119141</ele>
        <time>2013-06-30T12:26:22.000Z</time>
      </trkpt>
      <trkpt lat="46.71563" lon="5.8967">
        <ele>734.43811035156</ele>
        <time>2013-06-30T12:26:24.000Z</time>
      </trkpt>
      <trkpt lat="46.71562" lon="5.89677">
        <ele>734.67993164062</ele>
        <time>2013-06-30T12:26:26.000Z</time>
      </trkpt>
      <trkpt lat="46.71561" lon="5.89685">
        <ele>734.94952392578</ele>
        <time>2013-06-30T12:26:28.000Z</time>
      </trkpt>
      <trkpt lat="46.71562" lon="5.89693">
        <ele>735.28680419922</ele>
        <time>2013-06-30T12:26:30.000Z</time>
      </trkpt>
      <trkpt lat="46.71562" lon="5.89702">
        <ele>735.52282714844</ele>
        <time>2013-06-30T12:26:32.000Z</time>
      </trkpt>
      <trkpt lat="46.71562" lon="5.89711">
        <ele>735.791015625</ele>
        <time>2013-06-30T12:26:34.000Z</time>
      </trkpt>
      <trkpt lat="46.71562" lon="5.89719">
        <ele>736.05377197266</ele>
        <time>2013-06-30T12:26:36.000Z</time>
      </trkpt>
      <trkpt lat="46.71561" lon="5.89727">
        <ele>736.27758789062</ele>
        <time>2013-06-30T12:26:38.000Z</time>
      </trkpt>
      <trkpt lat="46.71562" lon="5.89735">
        <ele>736.50634765625</ele>
        <time>2013-06-30T12:26:40.000Z</time>
      </trkpt>
      <trkpt lat="46.71562" lon="5.89743">
        <ele>736.72290039062</ele>
        <time>2013-06-30T12:26:42.000Z</time>
      </trkpt>
      <trkpt lat="46.71564" lon="5.89751">
        <ele>736.95111083984</ele>
        <time>2013-06-30T12:26:44.000Z</time>
      </trkpt>
      <trkpt lat="46.71565" lon="5.8976">
        <ele>737.17340087891</ele>
        <time>2013-06-30T12:26:46.000Z</time>
      </trkpt>
      <trkpt lat="46.71567" lon="5.89768">
        <ele>737.38146972656</ele>
        <time>2013-06-30T12:26:48.000Z</time>
      </trkpt>
      <trkpt lat="46.71568" lon="5.89778">
        <ele>737.65771484375</ele>
        <time>2013-06-30T12:26:51.000Z</time>
      </trkpt>
      <trkpt lat="46.71569" lon="5.89784">
        <ele>737.87182617188</ele>
        <time>2013-06-30T12:26:53.000Z</time>
      </trkpt>
      <trkpt lat="46.7157" lon="5.89792">
        <ele>738.08569335938</ele>
        <time>2013-06-30T12:26:55.000Z</time>
      </trkpt>
      <trkpt lat="46.71571" lon="5.898">
        <ele>738.42657470703</ele>
        <time>2013-06-30T12:26:57.000Z</time>
      </trkpt>
      <trkpt lat="46.71571" lon="5.89808">
        <ele>738.78002929688</ele>
        <time>2013-06-30T12:26:59.000Z</time>
      </trkpt>
      <trkpt lat="46.71571" lon="5.89815">
        <ele>739.16674804688</ele>
        <time>2013-06-30T12:27:01.000Z</time>
      </trkpt>
      <trkpt lat="46.71573" lon="5.89823">
        <ele>739.47027587891</ele>
        <time>2013-06-30T12:27:03.000Z</time>
      </trkpt>
      <trkpt lat="46.71574" lon="5.89831">
        <ele>739.71020507812</ele>
        <time>2013-06-30T12:27:05.000Z</time>
      </trkpt>
      <trkpt lat="46.71576" lon="5.8984">
        <ele>740.07623291016</ele>
        <time>2013-06-30T12:27:08.000Z</time>
      </trkpt>
      <trkpt lat="46.71577" lon="5.89846">
        <ele>740.49060058594</ele>
        <time>2013-06-30T12:27:10.000Z</time>
      </trkpt>
      <trkpt lat="46.71579" lon="5.89853">
        <ele>740.92370605469</ele>
        <time>2013-06-30T12:27:12.000Z</time>
      </trkpt>
      <trkpt lat="46.71581" lon="5.8986">
        <ele>741.30731201172</ele>
        <time>2013-06-30T12:27:14.000Z</time>
      </trkpt>
      <trkpt lat="46.71583" lon="5.89867">
        <ele>741.66186523438</ele>
        <time>2013-06-30T12:27:16.000Z</time>
      </trkpt>
      <trkpt lat="46.71584" lon="5.89874">
        <ele>742.05279541016</ele>
        <time>2013-06-30T12:27:18.000Z</time>
      </trkpt>
      <trkpt lat="46.71585" lon="5.89884">
        <ele>742.75793457031</ele>
        <time>2013-06-30T12:27:21.000Z</time>
      </trkpt>
      <trkpt lat="46.71586" lon="5.89893">
        <ele>743.44177246094</ele>
        <time>2013-06-30T12:27:24.000Z</time>
      </trkpt>
      <trkpt lat="46.71587" lon="5.89902">
        <ele>744.15893554688</ele>
        <time>2013-06-30T12:27:27.000Z</time>
      </trkpt>
      <trkpt lat="46.71589" lon="5.89908">
        <ele>744.7890625</ele>
        <time>2013-06-30T12:27:29.000Z</time>
      </trkpt>
      <trkpt lat="46.7159" lon="5.89915">
        <ele>745.41864013672</ele>
        <time>2013-06-30T12:27:31.000Z</time>
      </trkpt>
      <trkpt lat="46.71592" lon="5.89922">
        <ele>746.0634765625</ele>
        <time>2013-06-30T12:27:33.000Z</time>
      </trkpt>
      <trkpt lat="46.71593" lon="5.89929">
        <ele>746.70196533203</ele>
        <time>2013-06-30T12:27:35.000Z</time>
      </trkpt>
      <trkpt lat="46.71594" lon="5.89936">
        <ele>747.33331298828</ele>
        <time>2013-06-30T12:27:37.000Z</time>
      </trkpt>
      <trkpt lat="46.71596" lon="5.89943">
        <ele>747.96215820312</ele>
        <time>2013-06-30T12:27:39.000Z</time>
      </trkpt>
      <trkpt lat="46.71598" lon="5.89951">
        <ele>748.65747070312</ele>
        <time>2013-06-30T12:27:41.000Z</time>
      </trkpt>
      <trkpt lat="46.71599" lon="5.89959">
        <ele>749.3642578125</ele>
        <time>2013-06-30T12:27:43.000Z</time>
      </trkpt>
      <trkpt lat="46.71601" lon="5.89966">
        <ele>750.03936767578</ele>
        <time>2013-06-30T12:27:45.000Z</time>
      </trkpt>
      <trkpt lat="46.71603" lon="5.89974">
        <ele>750.75128173828</ele>
        <time>2013-06-30T12:27:47.000Z</time>
      </trkpt>
      <trkpt lat="46.71605" lon="5.8998">
        <ele>751.40509033203</ele>
        <time>2013-06-30T12:27:49.000Z</time>
      </trkpt>
      <trkpt lat="46.71608" lon="5.89986">
        <ele>751.98529052734</ele>
        <time>2013-06-30T12:27:51.000Z</time>
      </trkpt>
      <trkpt lat="46.71612" lon="5.89993">
        <ele>752.85333251953</ele>
        <time>2013-06-30T12:27:54.000Z</time>
      </trkpt>
      <trkpt lat="46.71617" lon="5.89999">
        <ele>753.43280029297</ele>
        <time>2013-06-30T12:27:56.000Z</time>
      </trkpt>
      <trkpt lat="46.71622" lon="5.90006">
        <ele>754.01190185547</ele>
        <time>2013-06-30T12:27:58.000Z</time>
      </trkpt>
      <trkpt lat="46.71625" lon="5.90012">
        <ele>754.63726806641</ele>
        <time>2013-06-30T12:28:00.000Z</time>
      </trkpt>
      <trkpt lat="46.7163" lon="5.90016">
        <ele>755.18383789062</ele>
        <time>2013-06-30T12:28:02.000Z</time>
      </trkpt>
      <trkpt lat="46.71636" lon="5.90021">
        <ele>757.55859375</ele>
        <time>2013-06-30T12:28:04.000Z</time>
      </trkpt>
      <trkpt lat="46.71643" lon="5.90026">
        <ele>757.89318847656</ele>
        <time>2013-06-30T12:28:06.000Z</time>
      </trkpt>
      <trkpt lat="46.71651" lon="5.90032">
        <ele>758.25921630859</ele>
        <time>2013-06-30T12:28:08.000Z</time>
      </trkpt>
      <trkpt lat="46.71658" lon="5.90039">
        <ele>760.42932128906</ele>
        <time>2013-06-30T12:28:10.000Z</time>
      </trkpt>
      <trkpt lat="46.71664" lon="5.90047">
        <ele>760.60369873047</ele>
        <time>2013-06-30T12:28:12.000Z</time>
      </trkpt>
      <trkpt lat="46.7167" lon="5.90057">
        <ele>760.81774902344</ele>
        <time>2013-06-30T12:28:14.000Z</time>
      </trkpt>
      <trkpt lat="46.71674" lon="5.90065">
        <ele>761.01409912109</ele>
        <time>2013-06-30T12:28:16.000Z</time>
      </trkpt>
      <trkpt lat="46.71678" lon="5.90075">
        <ele>761.19744873047</ele>
        <time>2013-06-30T12:28:18.000Z</time>
      </trkpt>
      <trkpt lat="46.71681" lon="5.90083">
        <ele>761.44152832031</ele>
        <time>2013-06-30T12:28:20.000Z</time>
      </trkpt>
      <trkpt lat="46.71685" lon="5.90091">
        <ele>761.66186523438</ele>
        <time>2013-06-30T12:28:22.000Z</time>
      </trkpt>
      <trkpt lat="46.71691" lon="5.901">
        <ele>761.89306640625</ele>
        <time>2013-06-30T12:28:24.000Z</time>
      </trkpt>
      <trkpt lat="46.71696" lon="5.90109">
        <ele>762.08850097656</ele>
        <time>2013-06-30T12:28:26.000Z</time>
      </trkpt>
      <trkpt lat="46.71701" lon="5.90121">
        <ele>763.29296875</ele>
        <time>2013-06-30T12:28:28.000Z</time>
      </trkpt>
      <trkpt lat="46.71705" lon="5.90131">
        <ele>763.43872070312</ele>
        <time>2013-06-30T12:28:30.000Z</time>
      </trkpt>
      <trkpt lat="46.71708" lon="5.9014">
        <ele>763.52392578125</ele>
        <time>2013-06-30T12:28:32.000Z</time>
      </trkpt>
      <trkpt lat="46.71712" lon="5.90151">
        <ele>763.70849609375</ele>
        <time>2013-06-30T12:28:34.000Z</time>
      </trkpt>
      <trkpt lat="46.71715" lon="5.90161">
        <ele>763.85205078125</ele>
        <time>2013-06-30T12:28:36.000Z</time>
      </trkpt>
      <trkpt lat="46.7172" lon="5.90173">
        <ele>765.9462890625</ele>
        <time>2013-06-30T12:28:38.000Z</time>
      </trkpt>
      <trkpt lat="46.71724" lon="5.90184">
        <ele>765.94421386719</ele>
        <time>2013-06-30T12:28:40.000Z</time>
      </trkpt>
      <trkpt lat="46.71729" lon="5.90191">
        <ele>765.86865234375</ele>
        <time>2013-06-30T12:28:42.000Z</time>
      </trkpt>
      <trkpt lat="46.71736" lon="5.90199">
        <ele>765.04156494141</ele>
        <time>2013-06-30T12:28:44.000Z</time>
      </trkpt>
      <trkpt lat="46.71743" lon="5.90203">
        <ele>764.85998535156</ele>
        <time>2013-06-30T12:28:46.000Z</time>
      </trkpt>
      <trkpt lat="46.7175" lon="5.90206">
        <ele>764.63507080078</ele>
        <time>2013-06-30T12:28:48.000Z</time>
      </trkpt>
      <trkpt lat="46.71758" lon="5.90208">
        <ele>764.48193359375</ele>
        <time>2013-06-30T12:28:50.000Z</time>
      </trkpt>
      <trkpt lat="46.71764" lon="5.90209">
        <ele>764.35894775391</ele>
        <time>2013-06-30T12:28:52.000Z</time>
      </trkpt>
      <trkpt lat="46.71771" lon="5.90209">
        <ele>764.40789794922</ele>
        <time>2013-06-30T12:28:54.000Z</time>
      </trkpt>
      <trkpt lat="46.71779" lon="5.9021">
        <ele>764.64166259766</ele>
        <time>2013-06-30T12:28:56.000Z</time>
      </trkpt>
      <trkpt lat="46.71787" lon="5.9021">
        <ele>765.02770996094</ele>
        <time>2013-06-30T12:28:58.000Z</time>
      </trkpt>
      <trkpt lat="46.71795" lon="5.90211">
        <ele>765.35443115234</ele>
        <time>2013-06-30T12:29:00.000Z</time>
      </trkpt>
      <trkpt lat="46.71803" lon="5.90211">
        <ele>765.51794433594</ele>
        <time>2013-06-30T12:29:02.000Z</time>
      </trkpt>
      <trkpt lat="46.71812" lon="5.90213">
        <ele>765.66839599609</ele>
        <time>2013-06-30T12:29:04.000Z</time>
      </trkpt>
      <trkpt lat="46.71819" lon="5.90213">
        <ele>765.82800292969</ele>
        <time>2013-06-30T12:29:06.000Z</time>
      </trkpt>
      <trkpt lat="46.71827" lon="5.90213">
        <ele>767.30712890625</ele>
        <time>2013-06-30T12:29:08.000Z</time>
      </trkpt>
      <trkpt lat="46.71835" lon="5.90213">
        <ele>767.59936523438</ele>
        <time>2013-06-30T12:29:10.000Z</time>
      </trkpt>
      <trkpt lat="46.71842" lon="5.90211">
        <ele>767.82965087891</ele>
        <time>2013-06-30T12:29:12.000Z</time>
      </trkpt>
      <trkpt lat="46.71848" lon="5.90207">
        <ele>768.00494384766</ele>
        <time>2013-06-30T12:29:14.000Z</time>
      </trkpt>
      <trkpt lat="46.71855" lon="5.90204">
        <ele>768.12689208984</ele>
        <time>2013-06-30T12:29:16.000Z</time>
      </trkpt>
      <trkpt lat="46.71862" lon="5.902">
        <ele>768.31237792969</ele>
        <time>2013-06-30T12:29:18.000Z</time>
      </trkpt>
      <trkpt lat="46.7187" lon="5.90195">
        <ele>768.556640625</ele>
        <time>2013-06-30T12:29:20.000Z</time>
      </trkpt>
      <trkpt lat="46.71878" lon="5.90193">
        <ele>769.63629150391</ele>
        <time>2013-06-30T12:29:22.000Z</time>
      </trkpt>
      <trkpt lat="46.71889" lon="5.9019">
        <ele>770.64337158203</ele>
        <time>2013-06-30T12:29:24.000Z</time>
      </trkpt>
      <trkpt lat="46.71901" lon="5.90188">
        <ele>771.19732666016</ele>
        <time>2013-06-30T12:29:26.000Z</time>
      </trkpt>
      <trkpt lat="46.71912" lon="5.90187">
        <ele>771.2568359375</ele>
        <time>2013-06-30T12:29:28.000Z</time>
      </trkpt>
      <trkpt lat="46.71923" lon="5.90184">
        <ele>772.09930419922</ele>
        <time>2013-06-30T12:29:30.000Z</time>
      </trkpt>
      <trkpt lat="46.71935" lon="5.90182">
        <ele>770.49285888672</ele>
        <time>2013-06-30T12:29:32.000Z</time>
      </trkpt>
      <trkpt lat="46.71947" lon="5.90178">
        <ele>768.1416015625</ele>
        <time>2013-06-30T12:29:34.000Z</time>
      </trkpt>
      <trkpt lat="46.71961" lon="5.90175">
        <ele>766.61212158203</ele>
        <time>2013-06-30T12:29:36.000Z</time>
      </trkpt>
      <trkpt lat="46.71974" lon="5.90174">
        <ele>766.27062988281</ele>
        <time>2013-06-30T12:29:38.000Z</time>
      </trkpt>
      <trkpt lat="46.71987" lon="5.90178">
        <ele>766.07305908203</ele>
        <time>2013-06-30T12:29:40.000Z</time>
      </trkpt>
      <trkpt lat="46.71999" lon="5.90187">
        <ele>767.18280029297</ele>
        <time>2013-06-30T12:29:42.000Z</time>
      </trkpt>
      <trkpt lat="46.72009" lon="5.90201">
        <ele>767.51800537109</ele>
        <time>2013-06-30T12:29:44.000Z</time>
      </trkpt>
      <trkpt lat="46.72017" lon="5.90216">
        <ele>766.90002441406</ele>
        <time>2013-06-30T12:29:46.000Z</time>
      </trkpt>
      <trkpt lat="46.72025" lon="5.9023">
        <ele>767.23657226562</ele>
        <time>2013-06-30T12:29:48.000Z</time>
      </trkpt>
      <trkpt lat="46.72035" lon="5.90242">
        <ele>768.01989746094</ele>
        <time>2013-06-30T12:29:50.000Z</time>
      </trkpt>
      <trkpt lat="46.72046" lon="5.9025">
        <ele>768.53765869141</ele>
        <time>2013-06-30T12:29:52.000Z</time>
      </trkpt>
      <trkpt lat="46.72056" lon="5.90259">
        <ele>769.04852294922</ele>
        <time>2013-06-30T12:29:54.000Z</time>
      </trkpt>
      <trkpt lat="46.72068" lon="5.90267">
        <ele>769.61145019531</ele>
        <time>2013-06-30T12:29:56.000Z</time>
      </trkpt>
      <trkpt lat="46.7208" lon="5.90277">
        <ele>769.66595458984</ele>
        <time>2013-06-30T12:29:58.000Z</time>
      </trkpt>
      <trkpt lat="46.72091" lon="5.90284">
        <ele>769.83953857422</ele>
        <time>2013-06-30T12:30:00.000Z</time>
      </trkpt>
      <trkpt lat="46.72102" lon="5.90292">
        <ele>769.03356933594</ele>
        <time>2013-06-30T12:30:02.000Z</time>
      </trkpt>
      <trkpt lat="46.72112" lon="5.90298">
        <ele>768.41638183594</ele>
        <time>2013-06-30T12:30:04.000Z</time>
      </trkpt>
      <trkpt lat="46.72123" lon="5.90308">
        <ele>767.58673095703</ele>
        <time>2013-06-30T12:30:06.000Z</time>
      </trkpt>
      <trkpt lat="46.72134" lon="5.90318">
        <ele>766.91821289062</ele>
        <time>2013-06-30T12:30:08.000Z</time>
      </trkpt>
      <trkpt lat="46.72146" lon="5.90328">
        <ele>766.33361816406</ele>
        <time>2013-06-30T12:30:10.000Z</time>
      </trkpt>
      <trkpt lat="46.72156" lon="5.90334">
        <ele>765.22039794922</ele>
        <time>2013-06-30T12:30:12.000Z</time>
      </trkpt>
      <trkpt lat="46.72166" lon="5.90335">
        <ele>765.00793457031</ele>
        <time>2013-06-30T12:30:14.000Z</time>
      </trkpt>
      <trkpt lat="46.72175" lon="5.90326">
        <ele>765.24011230469</ele>
        <time>2013-06-30T12:30:16.000Z</time>
      </trkpt>
      <trkpt lat="46.72183" lon="5.90311">
        <ele>764.81176757812</ele>
        <time>2013-06-30T12:30:18.000Z</time>
      </trkpt>
      <trkpt lat="46.7219" lon="5.90294">
        <ele>764.13830566406</ele>
        <time>2013-06-30T12:30:20.000Z</time>
      </trkpt>
      <trkpt lat="46.72199" lon="5.90279">
        <ele>763.33587646484</ele>
        <time>2013-06-30T12:30:22.000Z</time>
      </trkpt>
      <trkpt lat="46.72208" lon="5.90265">
        <ele>761.84490966797</ele>
        <time>2013-06-30T12:30:24.000Z</time>
      </trkpt>
      <trkpt lat="46.72217" lon="5.90251">
        <ele>760.23150634766</ele>
        <time>2013-06-30T12:30:26.000Z</time>
      </trkpt>
      <trkpt lat="46.72227" lon="5.9024">
        <ele>759.49029541016</ele>
        <time>2013-06-30T12:30:28.000Z</time>
      </trkpt>
      <trkpt lat="46.7224" lon="5.90228">
        <ele>759.17059326172</ele>
        <time>2013-06-30T12:30:30.000Z</time>
      </trkpt>
      <trkpt lat="46.72251" lon="5.90216">
        <ele>758.20080566406</ele>
        <time>2013-06-30T12:30:32.000Z</time>
      </trkpt>
      <trkpt lat="46.72259" lon="5.90204">
        <ele>756.82147216797</ele>
        <time>2013-06-30T12:30:34.000Z</time>
      </trkpt>
      <trkpt lat="46.72266" lon="5.90193">
        <ele>755.38946533203</ele>
        <time>2013-06-30T12:30:36.000Z</time>
      </trkpt>
      <trkpt lat="46.72274" lon="5.90181">
        <ele>754.26116943359</ele>
        <time>2013-06-30T12:30:38.000Z</time>
      </trkpt>
      <trkpt lat="46.7228" lon="5.90169">
        <ele>753.4599609375</ele>
        <time>2013-06-30T12:30:40.000Z</time>
      </trkpt>
      <trkpt lat="46.72283" lon="5.90158">
        <ele>752.37524414062</ele>
        <time>2013-06-30T12:30:42.000Z</time>
      </trkpt>
      <trkpt lat="46.72291" lon="5.90148">
        <ele>752.79034423828</ele>
        <time>2013-06-30T12:30:44.000Z</time>
      </trkpt>
      <trkpt lat="46.72301" lon="5.90139">
        <ele>753.83813476562</ele>
        <time>2013-06-30T12:30:46.000Z</time>
      </trkpt>
      <trkpt lat="46.72313" lon="5.90134">
        <ele>754.55700683594</ele>
        <time>2013-06-30T12:30:48.000Z</time>
      </trkpt>
      <trkpt lat="46.72326" lon="5.90133">
        <ele>754.8857421875</ele>
        <time>2013-06-30T12:30:50.000Z</time>
      </trkpt>
      <trkpt lat="46.72338" lon="5.90133">
        <ele>755.11810302734</ele>
        <time>2013-06-30T12:30:52.000Z</time>
      </trkpt>
      <trkpt lat="46.72349" lon="5.90134">
        <ele>755.58740234375</ele>
        <time>2013-06-30T12:30:54.000Z</time>
      </trkpt>
      <trkpt lat="46.7236" lon="5.90135">
        <ele>756.74719238281</ele>
        <time>2013-06-30T12:30:56.000Z</time>
      </trkpt>
      <trkpt lat="46.72372" lon="5.90137">
        <ele>756.54992675781</ele>
        <time>2013-06-30T12:30:58.000Z</time>
      </trkpt>
      <trkpt lat="46.72385" lon="5.90137">
        <ele>756.14251708984</ele>
        <time>2013-06-30T12:31:00.000Z</time>
      </trkpt>
      <trkpt lat="46.72397" lon="5.90137">
        <ele>754.73455810547</ele>
        <time>2013-06-30T12:31:02.000Z</time>
      </trkpt>
      <trkpt lat="46.7241" lon="5.90138">
        <ele>754.12371826172</ele>
        <time>2013-06-30T12:31:04.000Z</time>
      </trkpt>
      <trkpt lat="46.72422" lon="5.9014">
        <ele>753.71362304688</ele>
        <time>2013-06-30T12:31:06.000Z</time>
      </trkpt>
      <trkpt lat="46.72435" lon="5.90142">
        <ele>753.89001464844</ele>
        <time>2013-06-30T12:31:08.000Z</time>
      </trkpt>
      <trkpt lat="46.72446" lon="5.90145">
        <ele>754.63952636719</ele>
        <time>2013-06-30T12:31:10.000Z</time>
      </trkpt>
      <trkpt lat="46.72459" lon="5.90147">
        <ele>755.28479003906</ele>
        <time>2013-06-30T12:31:12.000Z</time>
      </trkpt>
      <trkpt lat="46.72471" lon="5.90146">
        <ele>756.06024169922</ele>
        <time>2013-06-30T12:31:14.000Z</time>
      </trkpt>
      <trkpt lat="46.72484" lon="5.90143">
        <ele>757.10290527344</ele>
        <time>2013-06-30T12:31:16.000Z</time>
      </trkpt>
      <trkpt lat="46.72497" lon="5.90141">
        <ele>757.42608642578</ele>
        <time>2013-06-30T12:31:18.000Z</time>
      </trkpt>
      <trkpt lat="46.72509" lon="5.90138">
        <ele>756.3974609375</ele>
        <time>2013-06-30T12:31:20.000Z</time>
      </trkpt>
      <trkpt lat="46.72522" lon="5.90133">
        <ele>755.93304443359</ele>
        <time>2013-06-30T12:31:22.000Z</time>
      </trkpt>
      <trkpt lat="46.72535" lon="5.90128">
        <ele>755.14044189453</ele>
        <time>2013-06-30T12:31:24.000Z</time>
      </trkpt>
      <trkpt lat="46.72546" lon="5.90124">
        <ele>753.72863769531</ele>
        <time>2013-06-30T12:31:26.000Z</time>
      </trkpt>
      <trkpt lat="46.72557" lon="5.90118">
        <ele>753.81756591797</ele>
        <time>2013-06-30T12:31:28.000Z</time>
      </trkpt>
      <trkpt lat="46.72566" lon="5.90109">
        <ele>754.47705078125</ele>
        <time>2013-06-30T12:31:30.000Z</time>
      </trkpt>
      <trkpt lat="46.72575" lon="5.90099">
        <ele>754.57653808594</ele>
        <time>2013-06-30T12:31:32.000Z</time>
      </trkpt>
      <trkpt lat="46.72584" lon="5.90088">
        <ele>754.80621337891</ele>
        <time>2013-06-30T12:31:34.000Z</time>
      </trkpt>
      <trkpt lat="46.72591" lon="5.9008">
        <ele>755.03387451172</ele>
        <time>2013-06-30T12:31:36.000Z</time>
      </trkpt>
      <trkpt lat="46.72598" lon="5.90072">
        <ele>755.14526367188</ele>
        <time>2013-06-30T12:31:38.000Z</time>
      </trkpt>
      <trkpt lat="46.72603" lon="5.90066">
        <ele>755.05065917969</ele>
        <time>2013-06-30T12:31:40.000Z</time>
      </trkpt>
      <trkpt lat="46.72608" lon="5.9006">
        <ele>754.89666748047</ele>
        <time>2013-06-30T12:31:42.000Z</time>
      </trkpt>
      <trkpt lat="46.72613" lon="5.90048">
        <ele>754.75756835938</ele>
        <time>2013-06-30T12:31:44.000Z</time>
      </trkpt>
      <trkpt lat="46.72616" lon="5.90038">
        <ele>754.55413818359</ele>
        <time>2013-06-30T12:31:46.000Z</time>
      </trkpt>
      <trkpt lat="46.72618" lon="5.9003">
        <ele>754.25018310547</ele>
        <time>2013-06-30T12:31:48.000Z</time>
      </trkpt>
      <trkpt lat="46.7262" lon="5.90021">
        <ele>754.07641601562</ele>
        <time>2013-06-30T12:31:50.000Z</time>
      </trkpt>
      <trkpt lat="46.72621" lon="5.90013">
        <ele>753.90551757812</ele>
        <time>2013-06-30T12:31:52.000Z</time>
      </trkpt>
      <trkpt lat="46.72622" lon="5.90004">
        <ele>753.78991699219</ele>
        <time>2013-06-30T12:31:54.000Z</time>
      </trkpt>
      <trkpt lat="46.72622" lon="5.89993">
        <ele>753.65783691406</ele>
        <time>2013-06-30T12:31:56.000Z</time>
      </trkpt>
      <trkpt lat="46.72622" lon="5.89984">
        <ele>753.53259277344</ele>
        <time>2013-06-30T12:31:58.000Z</time>
      </trkpt>
      <trkpt lat="46.72624" lon="5.89974">
        <ele>753.39123535156</ele>
        <time>2013-06-30T12:32:00.000Z</time>
      </trkpt>
      <trkpt lat="46.72627" lon="5.89962">
        <ele>753.12915039062</ele>
        <time>2013-06-30T12:32:02.000Z</time>
      </trkpt>
      <trkpt lat="46.72629" lon="5.8995">
        <ele>751.87158203125</ele>
        <time>2013-06-30T12:32:04.000Z</time>
      </trkpt>
      <trkpt lat="46.72631" lon="5.89938">
        <ele>751.28112792969</ele>
        <time>2013-06-30T12:32:06.000Z</time>
      </trkpt>
      <trkpt lat="46.72634" lon="5.89925">
        <ele>751.51995849609</ele>
        <time>2013-06-30T12:32:08.000Z</time>
      </trkpt>
      <trkpt lat="46.72638" lon="5.89911">
        <ele>751.59204101562</ele>
        <time>2013-06-30T12:32:10.000Z</time>
      </trkpt>
      <trkpt lat="46.72642" lon="5.89896">
        <ele>752.15844726562</ele>
        <time>2013-06-30T12:32:12.000Z</time>
      </trkpt>
      <trkpt lat="46.72647" lon="5.8988">
        <ele>752.97052001953</ele>
        <time>2013-06-30T12:32:14.000Z</time>
      </trkpt>
      <trkpt lat="46.72654" lon="5.89863">
        <ele>753.09497070312</ele>
        <time>2013-06-30T12:32:16.000Z</time>
      </trkpt>
      <trkpt lat="46.72663" lon="5.89847">
        <ele>752.62341308594</ele>
        <time>2013-06-30T12:32:18.000Z</time>
      </trkpt>
      <trkpt lat="46.72671" lon="5.89833">
        <ele>750.94219970703</ele>
        <time>2013-06-30T12:32:20.000Z</time>
      </trkpt>
      <trkpt lat="46.72682" lon="5.89819">
        <ele>749.28979492188</ele>
        <time>2013-06-30T12:32:22.000Z</time>
      </trkpt>
      <trkpt lat="46.72692" lon="5.89806">
        <ele>747.78552246094</ele>
        <time>2013-06-30T12:32:24.000Z</time>
      </trkpt>
      <trkpt lat="46.72702" lon="5.89793">
        <ele>747.17901611328</ele>
        <time>2013-06-30T12:32:26.000Z</time>
      </trkpt>
      <trkpt lat="46.72713" lon="5.89781">
        <ele>747.72357177734</ele>
        <time>2013-06-30T12:32:28.000Z</time>
      </trkpt>
      <trkpt lat="46.72724" lon="5.89767">
        <ele>748.87963867188</ele>
        <time>2013-06-30T12:32:30.000Z</time>
      </trkpt>
      <trkpt lat="46.72735" lon="5.89754">
        <ele>749.50836181641</ele>
        <time>2013-06-30T12:32:32.000Z</time>
      </trkpt>
      <trkpt lat="46.72746" lon="5.89741">
        <ele>750.01086425781</ele>
        <time>2013-06-30T12:32:34.000Z</time>
      </trkpt>
      <trkpt lat="46.72757" lon="5.89727">
        <ele>750.06823730469</ele>
        <time>2013-06-30T12:32:36.000Z</time>
      </trkpt>
      <trkpt lat="46.72766" lon="5.89716">
        <ele>750.51666259766</ele>
        <time>2013-06-30T12:32:38.000Z</time>
      </trkpt>
      <trkpt lat="46.72775" lon="5.89704">
        <ele>751.78063964844</ele>
        <time>2013-06-30T12:32:40.000Z</time>
      </trkpt>
      <trkpt lat="46.72785" lon="5.89693">
        <ele>751.92388916016</ele>
        <time>2013-06-30T12:32:42.000Z</time>
      </trkpt>
      <trkpt lat="46.72795" lon="5.89682">
        <ele>751.97186279297</ele>
        <time>2013-06-30T12:32:44.000Z</time>
      </trkpt>
      <trkpt lat="46.72805" lon="5.89671">
        <ele>752.24578857422</ele>
        <time>2013-06-30T12:32:46.000Z</time>
      </trkpt>
      <trkpt lat="46.72816" lon="5.89657">
        <ele>751.33563232422</ele>
        <time>2013-06-30T12:32:48.000Z</time>
      </trkpt>
      <trkpt lat="46.72825" lon="5.89642">
        <ele>749.05267333984</ele>
        <time>2013-06-30T12:32:50.000Z</time>
      </trkpt>
      <trkpt lat="46.72829" lon="5.89631">
        <ele>747.95422363281</ele>
        <time>2013-06-30T12:32:52.000Z</time>
      </trkpt>
      <trkpt lat="46.72829" lon="5.89623">
        <ele>747.82775878906</ele>
        <time>2013-06-30T12:32:54.000Z</time>
      </trkpt>
      <trkpt lat="46.72828" lon="5.89612">
        <ele>747.53991699219</ele>
        <time>2013-06-30T12:32:57.000Z</time>
      </trkpt>
      <trkpt lat="46.72828" lon="5.89603">
        <ele>747.20098876953</ele>
        <time>2013-06-30T12:33:00.000Z</time>
      </trkpt>
      <trkpt lat="46.72828" lon="5.89596">
        <ele>747.06549072266</ele>
        <time>2013-06-30T12:33:02.000Z</time>
      </trkpt>
      <trkpt lat="46.72828" lon="5.89589">
        <ele>747.03063964844</ele>
        <time>2013-06-30T12:33:04.000Z</time>
      </trkpt>
      <trkpt lat="46.72828" lon="5.89582">
        <ele>747.07165527344</ele>
        <time>2013-06-30T12:33:06.000Z</time>
      </trkpt>
      <trkpt lat="46.72829" lon="5.89572">
        <ele>747.17932128906</ele>
        <time>2013-06-30T12:33:09.000Z</time>
      </trkpt>
      <trkpt lat="46.72831" lon="5.89563">
        <ele>747.14990234375</ele>
        <time>2013-06-30T12:33:12.000Z</time>
      </trkpt>
      <trkpt lat="46.72833" lon="5.89557">
        <ele>747.15618896484</ele>
        <time>2013-06-30T12:33:16.000Z</time>
      </trkpt>
      <trkpt lat="46.72837" lon="5.89552">
        <ele>747.65283203125</ele>
        <time>2013-06-30T12:33:20.000Z</time>
      </trkpt>
      <trkpt lat="46.72843" lon="5.8955">
        <ele>748.2265625</ele>
        <time>2013-06-30T12:33:23.000Z</time>
      </trkpt>
      <trkpt lat="46.72847" lon="5.8955">
        <ele>748.63317871094</ele>
        <time>2013-06-30T12:33:25.000Z</time>
      </trkpt>
      <trkpt lat="46.72854" lon="5.8955">
        <ele>749.11810302734</ele>
        <time>2013-06-30T12:33:28.000Z</time>
      </trkpt>
      <trkpt lat="46.72858" lon="5.8955">
        <ele>749.42895507812</ele>
        <time>2013-06-30T12:33:30.000Z</time>
      </trkpt>
      <trkpt lat="46.72864" lon="5.89548">
        <ele>749.94854736328</ele>
        <time>2013-06-30T12:33:33.000Z</time>
      </trkpt>
      <trkpt lat="46.7287" lon="5.89547">
        <ele>750.50494384766</ele>
        <time>2013-06-30T12:33:36.000Z</time>
      </trkpt>
      <trkpt lat="46.72874" lon="5.89547">
        <ele>750.83325195312</ele>
        <time>2013-06-30T12:33:38.000Z</time>
      </trkpt>
      <trkpt lat="46.72879" lon="5.89545">
        <ele>751.30639648438</ele>
        <time>2013-06-30T12:33:40.000Z</time>
      </trkpt>
      <trkpt lat="46.72883" lon="5.8954">
        <ele>751.79034423828</ele>
        <time>2013-06-30T12:33:42.000Z</time>
      </trkpt>
      <trkpt lat="46.72889" lon="5.89536">
        <ele>752.57629394531</ele>
        <time>2013-06-30T12:33:45.000Z</time>
      </trkpt>
      <trkpt lat="46.72893" lon="5.89535">
        <ele>753.03063964844</ele>
        <time>2013-06-30T12:33:47.000Z</time>
      </trkpt>
      <trkpt lat="46.72899" lon="5.89535">
        <ele>753.42535400391</ele>
        <time>2013-06-30T12:33:49.000Z</time>
      </trkpt>
      <trkpt lat="46.72904" lon="5.89537">
        <ele>753.87237548828</ele>
        <time>2013-06-30T12:33:51.000Z</time>
      </trkpt>
      <trkpt lat="46.72908" lon="5.89539">
        <ele>754.42254638672</ele>
        <time>2013-06-30T12:33:53.000Z</time>
      </trkpt>
      <trkpt lat="46.72913" lon="5.89541">
        <ele>754.95751953125</ele>
        <time>2013-06-30T12:33:55.000Z</time>
      </trkpt>
      <trkpt lat="46.72917" lon="5.89545">
        <ele>755.44152832031</ele>
        <time>2013-06-30T12:33:57.000Z</time>
      </trkpt>
      <trkpt lat="46.72921" lon="5.89549">
        <ele>755.87854003906</ele>
        <time>2013-06-30T12:33:59.000Z</time>
      </trkpt>
      <trkpt lat="46.72925" lon="5.89553">
        <ele>756.35516357422</ele>
        <time>2013-06-30T12:34:01.000Z</time>
      </trkpt>
      <trkpt lat="46.72929" lon="5.89557">
        <ele>756.76885986328</ele>
        <time>2013-06-30T12:34:03.000Z</time>
      </trkpt>
      <trkpt lat="46.72935" lon="5.89563">
        <ele>757.35949707031</ele>
        <time>2013-06-30T12:34:06.000Z</time>
      </trkpt>
      <trkpt lat="46.72939" lon="5.89565">
        <ele>757.74566650391</ele>
        <time>2013-06-30T12:34:08.000Z</time>
      </trkpt>
      <trkpt lat="46.72945" lon="5.89566">
        <ele>758.03857421875</ele>
        <time>2013-06-30T12:34:10.000Z</time>
      </trkpt>
      <trkpt lat="46.7295" lon="5.89565">
        <ele>758.2998046875</ele>
        <time>2013-06-30T12:34:12.000Z</time>
      </trkpt>
      <trkpt lat="46.72955" lon="5.89564">
        <ele>758.55548095703</ele>
        <time>2013-06-30T12:34:14.000Z</time>
      </trkpt>
      <trkpt lat="46.72959" lon="5.89563">
        <ele>758.84423828125</ele>
        <time>2013-06-30T12:34:16.000Z</time>
      </trkpt>
      <trkpt lat="46.72966" lon="5.89564">
        <ele>759.392578125</ele>
        <time>2013-06-30T12:34:19.000Z</time>
      </trkpt>
      <trkpt lat="46.7297" lon="5.89565">
        <ele>759.76245117188</ele>
        <time>2013-06-30T12:34:21.000Z</time>
      </trkpt>
      <trkpt lat="46.72976" lon="5.89567">
        <ele>760.05413818359</ele>
        <time>2013-06-30T12:34:23.000Z</time>
      </trkpt>
      <trkpt lat="46.72981" lon="5.89569">
        <ele>760.40289306641</ele>
        <time>2013-06-30T12:34:25.000Z</time>
      </trkpt>
      <trkpt lat="46.72986" lon="5.89571">
        <ele>760.73394775391</ele>
        <time>2013-06-30T12:34:27.000Z</time>
      </trkpt>
      <trkpt lat="46.72992" lon="5.89571">
        <ele>760.96710205078</ele>
        <time>2013-06-30T12:34:29.000Z</time>
      </trkpt>
      <trkpt lat="46.72997" lon="5.89572">
        <ele>761.21929931641</ele>
        <time>2013-06-30T12:34:31.000Z</time>
      </trkpt>
      <trkpt lat="46.73003" lon="5.89573">
        <ele>761.50695800781</ele>
        <time>2013-06-30T12:34:33.000Z</time>
      </trkpt>
      <trkpt lat="46.73009" lon="5.89574">
        <ele>761.81256103516</ele>
        <time>2013-06-30T12:34:35.000Z</time>
      </trkpt>
      <trkpt lat="46.73015" lon="5.89575">
        <ele>762.04699707031</ele>
        <time>2013-06-30T12:34:37.000Z</time>
      </trkpt>
      <trkpt lat="46.73021" lon="5.89575">
        <ele>762.36596679688</ele>
        <time>2013-06-30T12:34:39.000Z</time>
      </trkpt>
      <trkpt lat="46.73026" lon="5.89572">
        <ele>762.75531005859</ele>
        <time>2013-06-30T12:34:41.000Z</time>
      </trkpt>
      <trkpt lat="46.73031" lon="5.89567">
        <ele>763.07818603516</ele>
        <time>2013-06-30T12:34:43.000Z</time>
      </trkpt>
      <trkpt lat="46.73036" lon="5.89562">
        <ele>763.27868652344</ele>
        <time>2013-06-30T12:34:45.000Z</time>
      </trkpt>
      <trkpt lat="46.73042" lon="5.89558">
        <ele>763.55908203125</ele>
        <time>2013-06-30T12:34:47.000Z</time>
      </trkpt>
      <trkpt lat="46.73049" lon="5.89553">
        <ele>763.81524658203</ele>
        <time>2013-06-30T12:34:49.000Z</time>
      </trkpt>
      <trkpt lat="46.73055" lon="5.8955">
        <ele>764.06195068359</ele>
        <time>2013-06-30T12:34:51.000Z</time>
      </trkpt>
      <trkpt lat="46.73062" lon="5.89546">
        <ele>764.21887207031</ele>
        <time>2013-06-30T12:34:53.000Z</time>
      </trkpt>
      <trkpt lat="46.7307" lon="5.89542">
        <ele>764.31658935547</ele>
        <time>2013-06-30T12:34:55.000Z</time>
      </trkpt>
      <trkpt lat="46.73075" lon="5.89538">
        <ele>764.3486328125</ele>
        <time>2013-06-30T12:34:57.000Z</time>
      </trkpt>
      <trkpt lat="46.73081" lon="5.89531">
        <ele>764.40966796875</ele>
        <time>2013-06-30T12:34:59.000Z</time>
      </trkpt>
      <trkpt lat="46.73087" lon="5.8953">
        <ele>764.49993896484</ele>
        <time>2013-06-30T12:35:01.000Z</time>
      </trkpt>
      <trkpt lat="46.73093" lon="5.89533">
        <ele>764.52398681641</ele>
        <time>2013-06-30T12:35:03.000Z</time>
      </trkpt>
      <trkpt lat="46.73101" lon="5.89544">
        <ele>764.80218505859</ele>
        <time>2013-06-30T12:35:05.000Z</time>
      </trkpt>
      <trkpt lat="46.73111" lon="5.89557">
        <ele>765.34063720703</ele>
        <time>2013-06-30T12:35:07.000Z</time>
      </trkpt>
      <trkpt lat="46.7312" lon="5.89571">
        <ele>764.16577148438</ele>
        <time>2013-06-30T12:35:09.000Z</time>
      </trkpt>
      <trkpt lat="46.73127" lon="5.89584">
        <ele>762.65228271484</ele>
        <time>2013-06-30T12:35:11.000Z</time>
      </trkpt>
      <trkpt lat="46.73132" lon="5.89593">
        <ele>762.26519775391</ele>
        <time>2013-06-30T12:35:13.000Z</time>
      </trkpt>
      <trkpt lat="46.73131" lon="5.89602">
        <ele>761.90930175781</ele>
        <time>2013-06-30T12:35:15.000Z</time>
      </trkpt>
      <trkpt lat="46.73126" lon="5.89607">
        <ele>761.62451171875</ele>
        <time>2013-06-30T12:35:17.000Z</time>
      </trkpt>
      <trkpt lat="46.73124" lon="5.89615">
        <ele>760.9951171875</ele>
        <time>2013-06-30T12:35:22.000Z</time>
      </trkpt>
      <trkpt lat="46.7313" lon="5.89618">
        <ele>760.27087402344</ele>
        <time>2013-06-30T12:35:26.000Z</time>
      </trkpt>
      <trkpt lat="46.73129" lon="5.89611">
        <ele>760.23181152344</ele>
        <time>2013-06-30T12:38:01.000Z</time>
      </trkpt>
      <trkpt lat="46.73132" lon="5.89609">
        <ele>760.16101074219</ele>
        <time>2013-06-30T12:38:19.000Z</time>
      </trkpt>
      <trkpt lat="46.73134" lon="5.89616">
        <ele>759.93072509766</ele>
        <time>2013-06-30T12:38:32.000Z</time>
      </trkpt>
      <trkpt lat="46.73135" lon="5.89611">
        <ele>757.02349853516</ele>
        <time>2013-06-30T12:39:30.000Z</time>
      </trkpt>
      <trkpt lat="46.73136" lon="5.89604">
        <ele>755.42541503906</ele>
        <time>2013-06-30T12:39:39.000Z</time>
      </trkpt>
      <trkpt lat="46.7314" lon="5.896">
        <ele>755.20104980469</ele>
        <time>2013-06-30T12:39:46.000Z</time>
      </trkpt>
      <trkpt lat="46.73142" lon="5.89594">
        <ele>754.60827636719</ele>
        <time>2013-06-30T12:39:55.000Z</time>
      </trkpt>
      <trkpt lat="46.73143" lon="5.89599">
        <ele>753.32281494141</ele>
        <time>2013-06-30T12:40:31.000Z</time>
      </trkpt>
      <trkpt lat="46.7314" lon="5.89606">
        <ele>752.51751708984</ele>
        <time>2013-06-30T12:40:37.000Z</time>
      </trkpt>
      <trkpt lat="46.73135" lon="5.89611">
        <ele>751.58532714844</ele>
        <time>2013-06-30T12:40:51.000Z</time>
      </trkpt>
      <trkpt lat="46.73131" lon="5.89613">
        <ele>751.27838134766</ele>
        <time>2013-06-30T12:41:12.000Z</time>
      </trkpt>
      <trkpt lat="46.73131" lon="5.89619">
        <ele>751.69738769531</ele>
        <time>2013-06-30T12:41:17.000Z</time>
      </trkpt>
      <trkpt lat="46.73135" lon="5.8962">
        <ele>752.13519287109</ele>
        <time>2013-06-30T12:41:49.000Z</time>
      </trkpt>
      <trkpt lat="46.7314" lon="5.89617">
        <ele>751.61968994141</ele>
        <time>2013-06-30T12:42:14.000Z</time>
      </trkpt>
      <trkpt lat="46.73136" lon="5.89617">
        <ele>751.82708740234</ele>
        <time>2013-06-30T12:42:26.000Z</time>
      </trkpt>
      <trkpt lat="46.73133" lon="5.89621">
        <ele>752.35668945312</ele>
        <time>2013-06-30T12:42:38.000Z</time>
      </trkpt>
      <trkpt lat="46.73129" lon="5.89627">
        <ele>752.33959960938</ele>
        <time>2013-06-30T12:42:44.000Z</time>
      </trkpt>
      <trkpt lat="46.73131" lon="5.89622">
        <ele>752.27917480469</ele>
        <time>2013-06-30T12:43:03.000Z</time>
      </trkpt>
      <trkpt lat="46.73133" lon="5.89615">
        <ele>751.46520996094</ele>
        <time>2013-06-30T12:43:32.000Z</time>
      </trkpt>
      <trkpt lat="46.73129" lon="5.89616">
        <ele>750.09948730469</ele>
        <time>2013-06-30T12:44:02.000Z</time>
      </trkpt>
      <trkpt lat="46.73124" lon="5.89614">
        <ele>749.84985351562</ele>
        <time>2013-06-30T12:44:09.000Z</time>
      </trkpt>
      <trkpt lat="46.73119" lon="5.89614">
        <ele>749.93139648438</ele>
        <time>2013-06-30T12:44:12.000Z</time>
      </trkpt>
      <trkpt lat="46.73113" lon="5.89617">
        <ele>750.14404296875</ele>
        <time>2013-06-30T12:44:15.000Z</time>
      </trkpt>
      <trkpt lat="46.73108" lon="5.89618">
        <ele>750.25634765625</ele>
        <time>2013-06-30T12:44:17.000Z</time>
      </trkpt>
      <trkpt lat="46.73102" lon="5.89621">
        <ele>750.39428710938</ele>
        <time>2013-06-30T12:44:19.000Z</time>
      </trkpt>
      <trkpt lat="46.73098" lon="5.89624">
        <ele>750.59649658203</ele>
        <time>2013-06-30T12:44:21.000Z</time>
      </trkpt>
      <trkpt lat="46.73093" lon="5.89629">
        <ele>750.76452636719</ele>
        <time>2013-06-30T12:44:23.000Z</time>
      </trkpt>
      <trkpt lat="46.73086" lon="5.89634">
        <ele>750.86853027344</ele>
        <time>2013-06-30T12:44:25.000Z</time>
      </trkpt>
      <trkpt lat="46.73075" lon="5.89642">
        <ele>752.12634277344</ele>
        <time>2013-06-30T12:44:27.000Z</time>
      </trkpt>
      <trkpt lat="46.73062" lon="5.89649">
        <ele>753.19165039062</ele>
        <time>2013-06-30T12:44:29.000Z</time>
      </trkpt>
      <trkpt lat="46.7305" lon="5.89655">
        <ele>754.28894042969</ele>
        <time>2013-06-30T12:44:31.000Z</time>
      </trkpt>
      <trkpt lat="46.73042" lon="5.89659">
        <ele>754.41027832031</ele>
        <time>2013-06-30T12:44:33.000Z</time>
      </trkpt>
      <trkpt lat="46.73032" lon="5.89662">
        <ele>754.99615478516</ele>
        <time>2013-06-30T12:44:35.000Z</time>
      </trkpt>
      <trkpt lat="46.73023" lon="5.89668">
        <ele>756.27905273438</ele>
        <time>2013-06-30T12:44:37.000Z</time>
      </trkpt>
      <trkpt lat="46.73014" lon="5.89673">
        <ele>756.72784423828</ele>
        <time>2013-06-30T12:44:39.000Z</time>
      </trkpt>
      <trkpt lat="46.73003" lon="5.89681">
        <ele>756.63934326172</ele>
        <time>2013-06-30T12:44:41.000Z</time>
      </trkpt>
      <trkpt lat="46.72992" lon="5.89682">
        <ele>756.04052734375</ele>
        <time>2013-06-30T12:44:43.000Z</time>
      </trkpt>
      <trkpt lat="46.72982" lon="5.89684">
        <ele>755.82830810547</ele>
        <time>2013-06-30T12:44:45.000Z</time>
      </trkpt>
      <trkpt lat="46.72972" lon="5.89689">
        <ele>752.60516357422</ele>
        <time>2013-06-30T12:44:47.000Z</time>
      </trkpt>
      <trkpt lat="46.72961" lon="5.89698">
        <ele>750.54559326172</ele>
        <time>2013-06-30T12:44:49.000Z</time>
      </trkpt>
      <trkpt lat="46.72952" lon="5.89706">
        <ele>748.78179931641</ele>
        <time>2013-06-30T12:44:51.000Z</time>
      </trkpt>
      <trkpt lat="46.72942" lon="5.89714">
        <ele>746.39532470703</ele>
        <time>2013-06-30T12:44:53.000Z</time>
      </trkpt>
      <trkpt lat="46.72932" lon="5.89721">
        <ele>744.71710205078</ele>
        <time>2013-06-30T12:44:55.000Z</time>
      </trkpt>
      <trkpt lat="46.72922" lon="5.89729">
        <ele>742.96252441406</ele>
        <time>2013-06-30T12:44:57.000Z</time>
      </trkpt>
      <trkpt lat="46.72914" lon="5.89736">
        <ele>742.04144287109</ele>
        <time>2013-06-30T12:44:59.000Z</time>
      </trkpt>
      <trkpt lat="46.72905" lon="5.89745">
        <ele>741.76086425781</ele>
        <time>2013-06-30T12:45:00.999Z</time>
      </trkpt>
      <trkpt lat="46.729" lon="5.89756">
        <ele>741.42071533203</ele>
        <time>2013-06-30T12:45:02.999Z</time>
      </trkpt>
      <trkpt lat="46.72896" lon="5.89767">
        <ele>740.06011962891</ele>
        <time>2013-06-30T12:45:04.999Z</time>
      </trkpt>
      <trkpt lat="46.72889" lon="5.89777">
        <ele>739.57421875</ele>
        <time>2013-06-30T12:45:06.999Z</time>
      </trkpt>
      <trkpt lat="46.72882" lon="5.89787">
        <ele>738.50555419922</ele>
        <time>2013-06-30T12:45:08.999Z</time>
      </trkpt>
      <trkpt lat="46.7288" lon="5.89802">
        <ele>737.70910644531</ele>
        <time>2013-06-30T12:45:10.999Z</time>
      </trkpt>
      <trkpt lat="46.72881" lon="5.89817">
        <ele>736.36572265625</ele>
        <time>2013-06-30T12:45:12.999Z</time>
      </trkpt>
      <trkpt lat="46.7288" lon="5.89832">
        <ele>735.51770019531</ele>
        <time>2013-06-30T12:45:14.999Z</time>
      </trkpt>
      <trkpt lat="46.72879" lon="5.89848">
        <ele>733.71435546875</ele>
        <time>2013-06-30T12:45:16.999Z</time>
      </trkpt>
      <trkpt lat="46.72876" lon="5.89862">
        <ele>732.24401855469</ele>
        <time>2013-06-30T12:45:18.999Z</time>
      </trkpt>
      <trkpt lat="46.72869" lon="5.89876">
        <ele>729.07366943359</ele>
        <time>2013-06-30T12:45:20.999Z</time>
      </trkpt>
      <trkpt lat="46.72857" lon="5.89888">
        <ele>727.24694824219</ele>
        <time>2013-06-30T12:45:22.999Z</time>
      </trkpt>
      <trkpt lat="46.72843" lon="5.89898">
        <ele>726.24194335938</ele>
        <time>2013-06-30T12:45:24.999Z</time>
      </trkpt>
      <trkpt lat="46.7283" lon="5.89904">
        <ele>726.97564697266</ele>
        <time>2013-06-30T12:45:26.999Z</time>
      </trkpt>
      <trkpt lat="46.72819" lon="5.89908">
        <ele>727.11010742188</ele>
        <time>2013-06-30T12:45:28.999Z</time>
      </trkpt>
      <trkpt lat="46.72811" lon="5.89913">
        <ele>727.109375</ele>
        <time>2013-06-30T12:45:30.999Z</time>
      </trkpt>
      <trkpt lat="46.72801" lon="5.89923">
        <ele>727.13684082031</ele>
        <time>2013-06-30T12:45:32.999Z</time>
      </trkpt>
      <trkpt lat="46.72791" lon="5.89937">
        <ele>727.546875</ele>
        <time>2013-06-30T12:45:34.999Z</time>
      </trkpt>
      <trkpt lat="46.72792" lon="5.89946">
        <ele>728.31341552734</ele>
        <time>2013-06-30T12:45:36.999Z</time>
      </trkpt>
      <trkpt lat="46.72797" lon="5.89948">
        <ele>729.67047119141</ele>
        <time>2013-06-30T12:45:38.999Z</time>
      </trkpt>
      <trkpt lat="46.72804" lon="5.89949">
        <ele>729.71472167969</ele>
        <time>2013-06-30T12:45:40.999Z</time>
      </trkpt>
      <trkpt lat="46.72812" lon="5.89951">
        <ele>728.35931396484</ele>
        <time>2013-06-30T12:45:42.999Z</time>
      </trkpt>
      <trkpt lat="46.72821" lon="5.89952">
        <ele>727.99481201172</ele>
        <time>2013-06-30T12:45:44.999Z</time>
      </trkpt>
      <trkpt lat="46.7283" lon="5.89953">
        <ele>727.79559326172</ele>
        <time>2013-06-30T12:45:46.999Z</time>
      </trkpt>
      <trkpt lat="46.72841" lon="5.89956">
        <ele>726.77227783203</ele>
        <time>2013-06-30T12:45:48.999Z</time>
      </trkpt>
      <trkpt lat="46.72857" lon="5.89961">
        <ele>722.93774414062</ele>
        <time>2013-06-30T12:45:50.999Z</time>
      </trkpt>
      <trkpt lat="46.72871" lon="5.89963">
        <ele>718.6162109375</ele>
        <time>2013-06-30T12:45:52.999Z</time>
      </trkpt>
      <trkpt lat="46.72883" lon="5.89963">
        <ele>716.20104980469</ele>
        <time>2013-06-30T12:45:54.999Z</time>
      </trkpt>
      <trkpt lat="46.72892" lon="5.8996">
        <ele>715.39031982422</ele>
        <time>2013-06-30T12:45:56.999Z</time>
      </trkpt>
      <trkpt lat="46.72901" lon="5.89957">
        <ele>714.85668945312</ele>
        <time>2013-06-30T12:45:58.999Z</time>
      </trkpt>
      <trkpt lat="46.72908" lon="5.89952">
        <ele>715.00280761719</ele>
        <time>2013-06-30T12:46:00.999Z</time>
      </trkpt>
      <trkpt lat="46.72915" lon="5.89948">
        <ele>714.84234619141</ele>
        <time>2013-06-30T12:46:02.999Z</time>
      </trkpt>
      <trkpt lat="46.72922" lon="5.89943">
        <ele>714.52526855469</ele>
        <time>2013-06-30T12:46:04.999Z</time>
      </trkpt>
      <trkpt lat="46.72927" lon="5.89939">
        <ele>714.32446289062</ele>
        <time>2013-06-30T12:46:06.999Z</time>
      </trkpt>
      <trkpt lat="46.72932" lon="5.89934">
        <ele>713.99206542969</ele>
        <time>2013-06-30T12:46:08.999Z</time>
      </trkpt>
      <trkpt lat="46.72938" lon="5.89928">
        <ele>713.57440185547</ele>
        <time>2013-06-30T12:46:10.999Z</time>
      </trkpt>
      <trkpt lat="46.72943" lon="5.89923">
        <ele>713.09588623047</ele>
        <time>2013-06-30T12:46:12.999Z</time>
      </trkpt>
      <trkpt lat="46.72948" lon="5.89918">
        <ele>712.6455078125</ele>
        <time>2013-06-30T12:46:14.999Z</time>
      </trkpt>
      <trkpt lat="46.72952" lon="5.89913">
        <ele>712.19573974609</ele>
        <time>2013-06-30T12:46:16.999Z</time>
      </trkpt>
      <trkpt lat="46.72956" lon="5.89909">
        <ele>711.80279541016</ele>
        <time>2013-06-30T12:46:18.999Z</time>
      </trkpt>
      <trkpt lat="46.72961" lon="5.89905">
        <ele>711.39367675781</ele>
        <time>2013-06-30T12:46:20.999Z</time>
      </trkpt>
      <trkpt lat="46.72967" lon="5.899">
        <ele>711.0009765625</ele>
        <time>2013-06-30T12:46:22.999Z</time>
      </trkpt>
      <trkpt lat="46.72972" lon="5.89897">
        <ele>710.47509765625</ele>
        <time>2013-06-30T12:46:24.999Z</time>
      </trkpt>
      <trkpt lat="46.72978" lon="5.89895">
        <ele>709.99090576172</ele>
        <time>2013-06-30T12:46:26.999Z</time>
      </trkpt>
      <trkpt lat="46.72983" lon="5.89893">
        <ele>709.62200927734</ele>
        <time>2013-06-30T12:46:28.999Z</time>
      </trkpt>
      <trkpt lat="46.72988" lon="5.8989">
        <ele>709.20404052734</ele>
        <time>2013-06-30T12:46:30.999Z</time>
      </trkpt>
      <trkpt lat="46.72993" lon="5.89888">
        <ele>708.87200927734</ele>
        <time>2013-06-30T12:46:32.999Z</time>
      </trkpt>
      <trkpt lat="46.72998" lon="5.89885">
        <ele>708.37939453125</ele>
        <time>2013-06-30T12:46:34.999Z</time>
      </trkpt>
      <trkpt lat="46.73003" lon="5.89882">
        <ele>707.80255126953</ele>
        <time>2013-06-30T12:46:36.999Z</time>
      </trkpt>
      <trkpt lat="46.73007" lon="5.89879">
        <ele>707.14959716797</ele>
        <time>2013-06-30T12:46:38.999Z</time>
      </trkpt>
      <trkpt lat="46.73013" lon="5.89877">
        <ele>706.41851806641</ele>
        <time>2013-06-30T12:46:40.999Z</time>
      </trkpt>
      <trkpt lat="46.73021" lon="5.89874">
        <ele>705.73956298828</ele>
        <time>2013-06-30T12:46:42.999Z</time>
      </trkpt>
      <trkpt lat="46.73028" lon="5.89871">
        <ele>705.00073242188</ele>
        <time>2013-06-30T12:46:44.999Z</time>
      </trkpt>
      <trkpt lat="46.73035" lon="5.89866">
        <ele>704.44921875</ele>
        <time>2013-06-30T12:46:46.999Z</time>
      </trkpt>
      <trkpt lat="46.73042" lon="5.89863">
        <ele>703.85388183594</ele>
        <time>2013-06-30T12:46:48.999Z</time>
      </trkpt>
      <trkpt lat="46.73052" lon="5.8986">
        <ele>703.20379638672</ele>
        <time>2013-06-30T12:46:50.999Z</time>
      </trkpt>
      <trkpt lat="46.73063" lon="5.89857">
        <ele>699.34704589844</ele>
        <time>2013-06-30T12:46:52.999Z</time>
      </trkpt>
      <trkpt lat="46.73074" lon="5.89854">
        <ele>694.8544921875</ele>
        <time>2013-06-30T12:46:54.999Z</time>
      </trkpt>
      <trkpt lat="46.73088" lon="5.89849">
        <ele>686.43316650391</ele>
        <time>2013-06-30T12:46:57.999Z</time>
      </trkpt>
      <trkpt lat="46.73096" lon="5.89845">
        <ele>685.87884521484</ele>
        <time>2013-06-30T12:46:59.999Z</time>
      </trkpt>
      <trkpt lat="46.73104" lon="5.89843">
        <ele>685.2294921875</ele>
        <time>2013-06-30T12:47:01.999Z</time>
      </trkpt>
      <trkpt lat="46.73113" lon="5.89842">
        <ele>684.49267578125</ele>
        <time>2013-06-30T12:47:03.999Z</time>
      </trkpt>
      <trkpt lat="46.73119" lon="5.89839">
        <ele>683.70324707031</ele>
        <time>2013-06-30T12:47:05.999Z</time>
      </trkpt>
      <trkpt lat="46.73125" lon="5.89837">
        <ele>682.82312011719</ele>
        <time>2013-06-30T12:47:07.999Z</time>
      </trkpt>
      <trkpt lat="46.73131" lon="5.89835">
        <ele>681.93585205078</ele>
        <time>2013-06-30T12:47:09.999Z</time>
      </trkpt>
      <trkpt lat="46.73139" lon="5.89833">
        <ele>681.15228271484</ele>
        <time>2013-06-30T12:47:11.999Z</time>
      </trkpt>
      <trkpt lat="46.73146" lon="5.89835">
        <ele>680.34368896484</ele>
        <time>2013-06-30T12:47:13.999Z</time>
      </trkpt>
      <trkpt lat="46.73154" lon="5.89843">
        <ele>676.28521728516</ele>
        <time>2013-06-30T12:47:15.999Z</time>
      </trkpt>
      <trkpt lat="46.73158" lon="5.89853">
        <ele>675.54272460938</ele>
        <time>2013-06-30T12:47:17.999Z</time>
      </trkpt>
      <trkpt lat="46.73162" lon="5.89863">
        <ele>674.83660888672</ele>
        <time>2013-06-30T12:47:19.999Z</time>
      </trkpt>
      <trkpt lat="46.73167" lon="5.89872">
        <ele>674.13824462891</ele>
        <time>2013-06-30T12:47:21.999Z</time>
      </trkpt>
      <trkpt lat="46.73179" lon="5.89878">
        <ele>665.70495605469</ele>
        <time>2013-06-30T12:47:23.999Z</time>
      </trkpt>
      <trkpt lat="46.7319" lon="5.89878">
        <ele>659.28912353516</ele>
        <time>2013-06-30T12:47:25.999Z</time>
      </trkpt>
      <trkpt lat="46.73199" lon="5.89874">
        <ele>653.94268798828</ele>
        <time>2013-06-30T12:47:27.999Z</time>
      </trkpt>
      <trkpt lat="46.73208" lon="5.89866">
        <ele>650.70043945312</ele>
        <time>2013-06-30T12:47:29.999Z</time>
      </trkpt>
      <trkpt lat="46.73216" lon="5.89859">
        <ele>647.97100830078</ele>
        <time>2013-06-30T12:47:31.999Z</time>
      </trkpt>
      <trkpt lat="46.73225" lon="5.89849">
        <ele>645.7060546875</ele>
        <time>2013-06-30T12:47:33.999Z</time>
      </trkpt>
      <trkpt lat="46.73234" lon="5.89838">
        <ele>643.19360351562</ele>
        <time>2013-06-30T12:47:35.999Z</time>
      </trkpt>
      <trkpt lat="46.73242" lon="5.89827">
        <ele>640.17309570312</ele>
        <time>2013-06-30T12:47:37.999Z</time>
      </trkpt>
      <trkpt lat="46.73251" lon="5.89816">
        <ele>638.84332275391</ele>
        <time>2013-06-30T12:47:39.999Z</time>
      </trkpt>
      <trkpt lat="46.73262" lon="5.89805">
        <ele>637.59918212891</ele>
        <time>2013-06-30T12:47:41.999Z</time>
      </trkpt>
      <trkpt lat="46.73274" lon="5.89794">
        <ele>636.24639892578</ele>
        <time>2013-06-30T12:47:43.999Z</time>
      </trkpt>
      <trkpt lat="46.73287" lon="5.89786">
        <ele>635.16949462891</ele>
        <time>2013-06-30T12:47:45.999Z</time>
      </trkpt>
      <trkpt lat="46.73301" lon="5.89782">
        <ele>633.11267089844</ele>
        <time>2013-06-30T12:47:47.999Z</time>
      </trkpt>
      <trkpt lat="46.73313" lon="5.89781">
        <ele>632.44378662109</ele>
        <time>2013-06-30T12:47:49.999Z</time>
      </trkpt>
      <trkpt lat="46.73325" lon="5.89777">
        <ele>631.37689208984</ele>
        <time>2013-06-30T12:47:51.999Z</time>
      </trkpt>
      <trkpt lat="46.73337" lon="5.89769">
        <ele>630.13781738281</ele>
        <time>2013-06-30T12:47:53.999Z</time>
      </trkpt>
      <trkpt lat="46.7335" lon="5.8976">
        <ele>626.97332763672</ele>
        <time>2013-06-30T12:47:55.999Z</time>
      </trkpt>
      <trkpt lat="46.73367" lon="5.89748">
        <ele>624.71600341797</ele>
        <time>2013-06-30T12:47:57.999Z</time>
      </trkpt>
      <trkpt lat="46.73382" lon="5.89737">
        <ele>621.89904785156</ele>
        <time>2013-06-30T12:47:59.999Z</time>
      </trkpt>
      <trkpt lat="46.73395" lon="5.89728">
        <ele>619.79437255859</ele>
        <time>2013-06-30T12:48:01.999Z</time>
      </trkpt>
      <trkpt lat="46.73407" lon="5.89717">
        <ele>618.40484619141</ele>
        <time>2013-06-30T12:48:03.999Z</time>
      </trkpt>
      <trkpt lat="46.73419" lon="5.89704">
        <ele>617.36273193359</ele>
        <time>2013-06-30T12:48:05.999Z</time>
      </trkpt>
      <trkpt lat="46.73429" lon="5.89695">
        <ele>616.22845458984</ele>
        <time>2013-06-30T12:48:07.999Z</time>
      </trkpt>
      <trkpt lat="46.7344" lon="5.89682">
        <ele>614.47094726562</ele>
        <time>2013-06-30T12:48:09.999Z</time>
      </trkpt>
      <trkpt lat="46.73451" lon="5.89664">
        <ele>611.92596435547</ele>
        <time>2013-06-30T12:48:11.999Z</time>
      </trkpt>
      <trkpt lat="46.73462" lon="5.89645">
        <ele>608.28137207031</ele>
        <time>2013-06-30T12:48:13.999Z</time>
      </trkpt>
      <trkpt lat="46.73472" lon="5.89624">
        <ele>604.87261962891</ele>
        <time>2013-06-30T12:48:15.999Z</time>
      </trkpt>
      <trkpt lat="46.73483" lon="5.89601">
        <ele>602.89215087891</ele>
        <time>2013-06-30T12:48:17.999Z</time>
      </trkpt>
      <trkpt lat="46.73493" lon="5.89574">
        <ele>601.23138427734</ele>
        <time>2013-06-30T12:48:19.999Z</time>
      </trkpt>
      <trkpt lat="46.73504" lon="5.89546">
        <ele>599.07672119141</ele>
        <time>2013-06-30T12:48:21.999Z</time>
      </trkpt>
      <trkpt lat="46.73511" lon="5.89523">
        <ele>597.1640625</ele>
        <time>2013-06-30T12:48:23.999Z</time>
      </trkpt>
      <trkpt lat="46.73516" lon="5.89513">
        <ele>596.12872314453</ele>
        <time>2013-06-30T12:48:25.999Z</time>
      </trkpt>
      <trkpt lat="46.73524" lon="5.89512">
        <ele>594.76629638672</ele>
        <time>2013-06-30T12:48:27.999Z</time>
      </trkpt>
      <trkpt lat="46.73531" lon="5.89519">
        <ele>593.61199951172</ele>
        <time>2013-06-30T12:48:29.999Z</time>
      </trkpt>
      <trkpt lat="46.73537" lon="5.89527">
        <ele>593.55975341797</ele>
        <time>2013-06-30T12:48:31.999Z</time>
      </trkpt>
      <trkpt lat="46.73542" lon="5.89535">
        <ele>593.49176025391</ele>
        <time>2013-06-30T12:48:33.999Z</time>
      </trkpt>
      <trkpt lat="46.73548" lon="5.89542">
        <ele>593.09454345703</ele>
        <time>2013-06-30T12:48:35.999Z</time>
      </trkpt>
      <trkpt lat="46.73555" lon="5.89548">
        <ele>592.93414306641</ele>
        <time>2013-06-30T12:48:37.999Z</time>
      </trkpt>
      <trkpt lat="46.73561" lon="5.89553">
        <ele>592.79260253906</ele>
        <time>2013-06-30T12:48:39.999Z</time>
      </trkpt>
      <trkpt lat="46.73569" lon="5.89559">
        <ele>592.45678710938</ele>
        <time>2013-06-30T12:48:41.999Z</time>
      </trkpt>
      <trkpt lat="46.73577" lon="5.89564">
        <ele>592.01928710938</ele>
        <time>2013-06-30T12:48:43.999Z</time>
      </trkpt>
      <trkpt lat="46.73584" lon="5.89569">
        <ele>591.71313476562</ele>
        <time>2013-06-30T12:48:45.999Z</time>
      </trkpt>
      <trkpt lat="46.73591" lon="5.89575">
        <ele>591.54254150391</ele>
        <time>2013-06-30T12:48:47.999Z</time>
      </trkpt>
      <trkpt lat="46.73598" lon="5.8958">
        <ele>591.56469726562</ele>
        <time>2013-06-30T12:48:49.999Z</time>
      </trkpt>
      <trkpt lat="46.73605" lon="5.89585">
        <ele>591.62475585938</ele>
        <time>2013-06-30T12:48:51.999Z</time>
      </trkpt>
      <trkpt lat="46.73613" lon="5.89591">
        <ele>591.52062988281</ele>
        <time>2013-06-30T12:48:53.999Z</time>
      </trkpt>
      <trkpt lat="46.7362" lon="5.89597">
        <ele>591.35327148438</ele>
        <time>2013-06-30T12:48:55.999Z</time>
      </trkpt>
      <trkpt lat="46.73625" lon="5.89604">
        <ele>591.26318359375</ele>
        <time>2013-06-30T12:48:57.999Z</time>
      </trkpt>
      <trkpt lat="46.73631" lon="5.89612">
        <ele>590.41009521484</ele>
        <time>2013-06-30T12:48:59.999Z</time>
      </trkpt>
      <trkpt lat="46.73637" lon="5.89622">
        <ele>589.16729736328</ele>
        <time>2013-06-30T12:49:01.999Z</time>
      </trkpt>
      <trkpt lat="46.73643" lon="5.89631">
        <ele>588.29376220703</ele>
        <time>2013-06-30T12:49:03.999Z</time>
      </trkpt>
      <trkpt lat="46.7365" lon="5.89643">
        <ele>587.71820068359</ele>
        <time>2013-06-30T12:49:05.999Z</time>
      </trkpt>
      <trkpt lat="46.73658" lon="5.89655">
        <ele>587.98895263672</ele>
        <time>2013-06-30T12:49:07.999Z</time>
      </trkpt>
      <trkpt lat="46.73667" lon="5.89669">
        <ele>588.17126464844</ele>
        <time>2013-06-30T12:49:09.999Z</time>
      </trkpt>
      <trkpt lat="46.73675" lon="5.89682">
        <ele>587.45843505859</ele>
        <time>2013-06-30T12:49:11.999Z</time>
      </trkpt>
      <trkpt lat="46.73683" lon="5.89695">
        <ele>586.44891357422</ele>
        <time>2013-06-30T12:49:13.999Z</time>
      </trkpt>
      <trkpt lat="46.73692" lon="5.89709">
        <ele>585.7021484375</ele>
        <time>2013-06-30T12:49:15.999Z</time>
      </trkpt>
      <trkpt lat="46.737" lon="5.89721">
        <ele>585.50695800781</ele>
        <time>2013-06-30T12:49:17.999Z</time>
      </trkpt>
      <trkpt lat="46.73707" lon="5.89733">
        <ele>585.32604980469</ele>
        <time>2013-06-30T12:49:19.999Z</time>
      </trkpt>
      <trkpt lat="46.73714" lon="5.89746">
        <ele>585.27770996094</ele>
        <time>2013-06-30T12:49:21.999Z</time>
      </trkpt>
      <trkpt lat="46.73721" lon="5.89758">
        <ele>585.8095703125</ele>
        <time>2013-06-30T12:49:23.999Z</time>
      </trkpt>
      <trkpt lat="46.73727" lon="5.8977">
        <ele>585.98693847656</ele>
        <time>2013-06-30T12:49:25.999Z</time>
      </trkpt>
      <trkpt lat="46.73734" lon="5.89781">
        <ele>586.01928710938</ele>
        <time>2013-06-30T12:49:27.999Z</time>
      </trkpt>
      <trkpt lat="46.7374" lon="5.89793">
        <ele>586.30413818359</ele>
        <time>2013-06-30T12:49:29.999Z</time>
      </trkpt>
      <trkpt lat="46.73747" lon="5.89804">
        <ele>586.32189941406</ele>
        <time>2013-06-30T12:49:31.999Z</time>
      </trkpt>
      <trkpt lat="46.73753" lon="5.89814">
        <ele>586.11944580078</ele>
        <time>2013-06-30T12:49:33.999Z</time>
      </trkpt>
      <trkpt lat="46.73759" lon="5.89825">
        <ele>585.93566894531</ele>
        <time>2013-06-30T12:49:35.999Z</time>
      </trkpt>
      <trkpt lat="46.73765" lon="5.89835">
        <ele>585.77087402344</ele>
        <time>2013-06-30T12:49:37.999Z</time>
      </trkpt>
      <trkpt lat="46.7377" lon="5.89845">
        <ele>585.45739746094</ele>
        <time>2013-06-30T12:49:39.999Z</time>
      </trkpt>
      <trkpt lat="46.73776" lon="5.89855">
        <ele>584.96429443359</ele>
        <time>2013-06-30T12:49:41.999Z</time>
      </trkpt>
      <trkpt lat="46.73781" lon="5.89864">
        <ele>584.96600341797</ele>
        <time>2013-06-30T12:49:43.999Z</time>
      </trkpt>
      <trkpt lat="46.73787" lon="5.89874">
        <ele>584.66271972656</ele>
        <time>2013-06-30T12:49:45.999Z</time>
      </trkpt>
      <trkpt lat="46.73792" lon="5.89882">
        <ele>584.74169921875</ele>
        <time>2013-06-30T12:49:47.999Z</time>
      </trkpt>
      <trkpt lat="46.73796" lon="5.89888">
        <ele>584.77783203125</ele>
        <time>2013-06-30T12:49:49.999Z</time>
      </trkpt>
      <trkpt lat="46.73797" lon="5.89894">
        <ele>584.83673095703</ele>
        <time>2013-06-30T12:49:51.999Z</time>
      </trkpt>
      <trkpt lat="46.73798" lon="5.89902">
        <ele>584.89154052734</ele>
        <time>2013-06-30T12:49:53.999Z</time>
      </trkpt>
      <trkpt lat="46.73798" lon="5.8991">
        <ele>584.93701171875</ele>
        <time>2013-06-30T12:49:55.999Z</time>
      </trkpt>
      <trkpt lat="46.738" lon="5.89922">
        <ele>585.15515136719</ele>
        <time>2013-06-30T12:49:57.999Z</time>
      </trkpt>
      <trkpt lat="46.73802" lon="5.89932">
        <ele>585.33868408203</ele>
        <time>2013-06-30T12:49:59.999Z</time>
      </trkpt>
      <trkpt lat="46.73805" lon="5.89944">
        <ele>585.49963378906</ele>
        <time>2013-06-30T12:50:01.999Z</time>
      </trkpt>
      <trkpt lat="46.73807" lon="5.89954">
        <ele>585.52740478516</ele>
        <time>2013-06-30T12:50:03.999Z</time>
      </trkpt>
      <trkpt lat="46.73808" lon="5.89965">
        <ele>585.69586181641</ele>
        <time>2013-06-30T12:50:05.999Z</time>
      </trkpt>
      <trkpt lat="46.7381" lon="5.89976">
        <ele>585.84057617188</ele>
        <time>2013-06-30T12:50:07.999Z</time>
      </trkpt>
      <trkpt lat="46.73812" lon="5.89987">
        <ele>586.10388183594</ele>
        <time>2013-06-30T12:50:09.999Z</time>
      </trkpt>
      <trkpt lat="46.73813" lon="5.89998">
        <ele>586.57537841797</ele>
        <time>2013-06-30T12:50:11.999Z</time>
      </trkpt>
      <trkpt lat="46.73815" lon="5.9001">
        <ele>586.71496582031</ele>
        <time>2013-06-30T12:50:13.999Z</time>
      </trkpt>
      <trkpt lat="46.73817" lon="5.90021">
        <ele>586.60186767578</ele>
        <time>2013-06-30T12:50:15.999Z</time>
      </trkpt>
      <trkpt lat="46.73819" lon="5.90033">
        <ele>586.40991210938</ele>
        <time>2013-06-30T12:50:17.999Z</time>
      </trkpt>
      <trkpt lat="46.73821" lon="5.90044">
        <ele>586.35803222656</ele>
        <time>2013-06-30T12:50:19.999Z</time>
      </trkpt>
      <trkpt lat="46.73823" lon="5.90055">
        <ele>586.38781738281</ele>
        <time>2013-06-30T12:50:21.999Z</time>
      </trkpt>
      <trkpt lat="46.73825" lon="5.90066">
        <ele>586.51678466797</ele>
        <time>2013-06-30T12:50:23.999Z</time>
      </trkpt>
      <trkpt lat="46.73827" lon="5.90077">
        <ele>586.60162353516</ele>
        <time>2013-06-30T12:50:25.999Z</time>
      </trkpt>
      <trkpt lat="46.73829" lon="5.90088">
        <ele>586.66693115234</ele>
        <time>2013-06-30T12:50:27.999Z</time>
      </trkpt>
      <trkpt lat="46.7383" lon="5.90098">
        <ele>586.87426757812</ele>
        <time>2013-06-30T12:50:29.999Z</time>
      </trkpt>
      <trkpt lat="46.73832" lon="5.90109">
        <ele>586.97143554688</ele>
        <time>2013-06-30T12:50:31.999Z</time>
      </trkpt>
      <trkpt lat="46.73833" lon="5.90119">
        <ele>587.00610351562</ele>
        <time>2013-06-30T12:50:33.999Z</time>
      </trkpt>
      <trkpt lat="46.73835" lon="5.90129">
        <ele>587.06719970703</ele>
        <time>2013-06-30T12:50:35.999Z</time>
      </trkpt>
      <trkpt lat="46.73837" lon="5.90139">
        <ele>587.15997314453</ele>
        <time>2013-06-30T12:50:37.999Z</time>
      </trkpt>
      <trkpt lat="46.73838" lon="5.9015">
        <ele>587.27374267578</ele>
        <time>2013-06-30T12:50:39.999Z</time>
      </trkpt>
      <trkpt lat="46.73839" lon="5.9016">
        <ele>587.40728759766</ele>
        <time>2013-06-30T12:50:41.999Z</time>
      </trkpt>
      <trkpt lat="46.73841" lon="5.9017">
        <ele>587.49761962891</ele>
        <time>2013-06-30T12:50:43.999Z</time>
      </trkpt>
      <trkpt lat="46.73843" lon="5.90181">
        <ele>587.59338378906</ele>
        <time>2013-06-30T12:50:45.999Z</time>
      </trkpt>
      <trkpt lat="46.73844" lon="5.90191">
        <ele>587.73034667969</ele>
        <time>2013-06-30T12:50:47.999Z</time>
      </trkpt>
      <trkpt lat="46.73846" lon="5.90201">
        <ele>587.85754394531</ele>
        <time>2013-06-30T12:50:49.999Z</time>
      </trkpt>
      <trkpt lat="46.73848" lon="5.90211">
        <ele>587.96160888672</ele>
        <time>2013-06-30T12:50:51.999Z</time>
      </trkpt>
      <trkpt lat="46.73849" lon="5.90221">
        <ele>588.06817626953</ele>
        <time>2013-06-30T12:50:53.999Z</time>
      </trkpt>
      <trkpt lat="46.73851" lon="5.90232">
        <ele>588.17358398438</ele>
        <time>2013-06-30T12:50:55.999Z</time>
      </trkpt>
      <trkpt lat="46.73853" lon="5.90243">
        <ele>588.27899169922</ele>
        <time>2013-06-30T12:50:57.999Z</time>
      </trkpt>
      <trkpt lat="46.73854" lon="5.90254">
        <ele>588.87677001953</ele>
        <time>2013-06-30T12:50:59.999Z</time>
      </trkpt>
      <trkpt lat="46.73856" lon="5.90265">
        <ele>589.48266601562</ele>
        <time>2013-06-30T12:51:01.999Z</time>
      </trkpt>
      <trkpt lat="46.73857" lon="5.90276">
        <ele>589.85974121094</ele>
        <time>2013-06-30T12:51:03.999Z</time>
      </trkpt>
      <trkpt lat="46.73859" lon="5.90288">
        <ele>589.90277099609</ele>
        <time>2013-06-30T12:51:05.999Z</time>
      </trkpt>
      <trkpt lat="46.7386" lon="5.90299">
        <ele>589.87506103516</ele>
        <time>2013-06-30T12:51:07.999Z</time>
      </trkpt>
      <trkpt lat="46.73861" lon="5.90309">
        <ele>590.06011962891</ele>
        <time>2013-06-30T12:51:09.999Z</time>
      </trkpt>
      <trkpt lat="46.73863" lon="5.90319">
        <ele>590.119140625</ele>
        <time>2013-06-30T12:51:11.999Z</time>
      </trkpt>
      <trkpt lat="46.73864" lon="5.90329">
        <ele>590.25573730469</ele>
        <time>2013-06-30T12:51:13.999Z</time>
      </trkpt>
      <trkpt lat="46.73866" lon="5.90338">
        <ele>590.37139892578</ele>
        <time>2013-06-30T12:51:15.999Z</time>
      </trkpt>
      <trkpt lat="46.73868" lon="5.90348">
        <ele>590.47985839844</ele>
        <time>2013-06-30T12:51:17.999Z</time>
      </trkpt>
      <trkpt lat="46.73869" lon="5.90357">
        <ele>590.59454345703</ele>
        <time>2013-06-30T12:51:19.999Z</time>
      </trkpt>
      <trkpt lat="46.7387" lon="5.90363">
        <ele>590.66967773438</ele>
        <time>2013-06-30T12:51:21.999Z</time>
      </trkpt>
      <trkpt lat="46.73871" lon="5.90373">
        <ele>590.76556396484</ele>
        <time>2013-06-30T12:51:24.999Z</time>
      </trkpt>
      <trkpt lat="46.7387" lon="5.90382">
        <ele>590.80877685547</ele>
        <time>2013-06-30T12:51:27.999Z</time>
      </trkpt>
      <trkpt lat="46.73869" lon="5.90389">
        <ele>590.86016845703</ele>
        <time>2013-06-30T12:51:29.999Z</time>
      </trkpt>
      <trkpt lat="46.7387" lon="5.90396">
        <ele>590.9287109375</ele>
        <time>2013-06-30T12:51:31.999Z</time>
      </trkpt>
      <trkpt lat="46.73872" lon="5.90404">
        <ele>590.9951171875</ele>
        <time>2013-06-30T12:51:33.999Z</time>
      </trkpt>
      <trkpt lat="46.73874" lon="5.90413">
        <ele>591.09149169922</ele>
        <time>2013-06-30T12:51:35.999Z</time>
      </trkpt>
      <trkpt lat="46.73877" lon="5.90422">
        <ele>591.1982421875</ele>
        <time>2013-06-30T12:51:37.999Z</time>
      </trkpt>
      <trkpt lat="46.7388" lon="5.9043">
        <ele>591.30877685547</ele>
        <time>2013-06-30T12:51:39.999Z</time>
      </trkpt>
      <trkpt lat="46.73884" lon="5.90439">
        <ele>591.41064453125</ele>
        <time>2013-06-30T12:51:41.999Z</time>
      </trkpt>
      <trkpt lat="46.73887" lon="5.90447">
        <ele>591.52044677734</ele>
        <time>2013-06-30T12:51:43.999Z</time>
      </trkpt>
      <trkpt lat="46.73891" lon="5.90455">
        <ele>591.62805175781</ele>
        <time>2013-06-30T12:51:45.999Z</time>
      </trkpt>
      <trkpt lat="46.73894" lon="5.90463">
        <ele>591.73602294922</ele>
        <time>2013-06-30T12:51:47.999Z</time>
      </trkpt>
      <trkpt lat="46.73893" lon="5.90471">
        <ele>592.33349609375</ele>
        <time>2013-06-30T12:54:50.999Z</time>
      </trkpt>
      <trkpt lat="46.73896" lon="5.90477">
        <ele>592.18090820312</ele>
        <time>2013-06-30T12:54:53.999Z</time>
      </trkpt>
      <trkpt lat="46.73898" lon="5.90485">
        <ele>592.1484375</ele>
        <time>2013-06-30T12:54:55.999Z</time>
      </trkpt>
      <trkpt lat="46.73902" lon="5.90494">
        <ele>592.23553466797</ele>
        <time>2013-06-30T12:54:57.999Z</time>
      </trkpt>
      <trkpt lat="46.73906" lon="5.90504">
        <ele>593.19567871094</ele>
        <time>2013-06-30T12:54:59.999Z</time>
      </trkpt>
      <trkpt lat="46.7391" lon="5.90514">
        <ele>593.72552490234</ele>
        <time>2013-06-30T12:55:01.999Z</time>
      </trkpt>
      <trkpt lat="46.73914" lon="5.90525">
        <ele>593.33673095703</ele>
        <time>2013-06-30T12:55:03.999Z</time>
      </trkpt>
      <trkpt lat="46.73918" lon="5.90537">
        <ele>592.64221191406</ele>
        <time>2013-06-30T12:55:05.999Z</time>
      </trkpt>
      <trkpt lat="46.73922" lon="5.90549">
        <ele>591.83050537109</ele>
        <time>2013-06-30T12:55:07.999Z</time>
      </trkpt>
      <trkpt lat="46.73926" lon="5.90561">
        <ele>591.13891601562</ele>
        <time>2013-06-30T12:55:09.999Z</time>
      </trkpt>
      <trkpt lat="46.73931" lon="5.90573">
        <ele>591.11279296875</ele>
        <time>2013-06-30T12:55:11.999Z</time>
      </trkpt>
      <trkpt lat="46.73937" lon="5.90585">
        <ele>591.88024902344</ele>
        <time>2013-06-30T12:55:13.999Z</time>
      </trkpt>
      <trkpt lat="46.73943" lon="5.90599">
        <ele>593.47406005859</ele>
        <time>2013-06-30T12:55:15.999Z</time>
      </trkpt>
      <trkpt lat="46.73949" lon="5.90613">
        <ele>595.03863525391</ele>
        <time>2013-06-30T12:55:17.999Z</time>
      </trkpt>
      <trkpt lat="46.73953" lon="5.90629">
        <ele>597.14117431641</ele>
        <time>2013-06-30T12:55:19.999Z</time>
      </trkpt>
      <trkpt lat="46.73959" lon="5.90647">
        <ele>598.3232421875</ele>
        <time>2013-06-30T12:55:21.999Z</time>
      </trkpt>
      <trkpt lat="46.73964" lon="5.90664">
        <ele>597.86108398438</ele>
        <time>2013-06-30T12:55:23.999Z</time>
      </trkpt>
      <trkpt lat="46.7397" lon="5.90684">
        <ele>596.34588623047</ele>
        <time>2013-06-30T12:55:25.999Z</time>
      </trkpt>
      <trkpt lat="46.73975" lon="5.90705">
        <ele>594.38122558594</ele>
        <time>2013-06-30T12:55:27.999Z</time>
      </trkpt>
      <trkpt lat="46.73982" lon="5.90728">
        <ele>592.36462402344</ele>
        <time>2013-06-30T12:55:29.999Z</time>
      </trkpt>
      <trkpt lat="46.73989" lon="5.90751">
        <ele>590.83648681641</ele>
        <time>2013-06-30T12:55:31.999Z</time>
      </trkpt>
      <trkpt lat="46.73996" lon="5.90774">
        <ele>590.033203125</ele>
        <time>2013-06-30T12:55:33.999Z</time>
      </trkpt>
      <trkpt lat="46.74005" lon="5.90796">
        <ele>588.91656494141</ele>
        <time>2013-06-30T12:55:35.999Z</time>
      </trkpt>
      <trkpt lat="46.74014" lon="5.90819">
        <ele>587.31207275391</ele>
        <time>2013-06-30T12:55:37.999Z</time>
      </trkpt>
      <trkpt lat="46.74024" lon="5.90843">
        <ele>585.99627685547</ele>
        <time>2013-06-30T12:55:39.999Z</time>
      </trkpt>
      <trkpt lat="46.74034" lon="5.90867">
        <ele>584.70452880859</ele>
        <time>2013-06-30T12:55:41.999Z</time>
      </trkpt>
      <trkpt lat="46.74045" lon="5.9089">
        <ele>583.69927978516</ele>
        <time>2013-06-30T12:55:43.999Z</time>
      </trkpt>
      <trkpt lat="46.74056" lon="5.90912">
        <ele>582.88488769531</ele>
        <time>2013-06-30T12:55:45.999Z</time>
      </trkpt>
      <trkpt lat="46.74067" lon="5.90934">
        <ele>582.34246826172</ele>
        <time>2013-06-30T12:55:47.999Z</time>
      </trkpt>
      <trkpt lat="46.74077" lon="5.90955">
        <ele>581.10241699219</ele>
        <time>2013-06-30T12:55:49.999Z</time>
      </trkpt>
      <trkpt lat="46.74087" lon="5.90976">
        <ele>580.12371826172</ele>
        <time>2013-06-30T12:55:51.999Z</time>
      </trkpt>
      <trkpt lat="46.74097" lon="5.90995">
        <ele>580.16015625</ele>
        <time>2013-06-30T12:55:53.999Z</time>
      </trkpt>
      <trkpt lat="46.74106" lon="5.91015">
        <ele>580.58489990234</ele>
        <time>2013-06-30T12:55:55.999Z</time>
      </trkpt>
      <trkpt lat="46.74109" lon="5.91038">
        <ele>580.7978515625</ele>
        <time>2013-06-30T12:55:57.999Z</time>
      </trkpt>
      <trkpt lat="46.74108" lon="5.91062">
        <ele>581.59240722656</ele>
        <time>2013-06-30T12:55:59.999Z</time>
      </trkpt>
      <trkpt lat="46.74105" lon="5.91083">
        <ele>582.60095214844</ele>
        <time>2013-06-30T12:56:01.999Z</time>
      </trkpt>
      <trkpt lat="46.74101" lon="5.91104">
        <ele>582.73291015625</ele>
        <time>2013-06-30T12:56:03.999Z</time>
      </trkpt>
      <trkpt lat="46.74096" lon="5.91125">
        <ele>582.11553955078</ele>
        <time>2013-06-30T12:56:05.999Z</time>
      </trkpt>
      <trkpt lat="46.74091" lon="5.91146">
        <ele>581.41571044922</ele>
        <time>2013-06-30T12:56:07.999Z</time>
      </trkpt>
      <trkpt lat="46.74094" lon="5.91166">
        <ele>580.65734863281</ele>
        <time>2013-06-30T12:56:09.999Z</time>
      </trkpt>
      <trkpt lat="46.74097" lon="5.91184">
        <ele>580.13818359375</ele>
        <time>2013-06-30T12:56:11.999Z</time>
      </trkpt>
      <trkpt lat="46.74103" lon="5.912">
        <ele>579.82849121094</ele>
        <time>2013-06-30T12:56:13.999Z</time>
      </trkpt>
      <trkpt lat="46.74109" lon="5.91216">
        <ele>579.85583496094</ele>
        <time>2013-06-30T12:56:15.999Z</time>
      </trkpt>
      <trkpt lat="46.74114" lon="5.91228">
        <ele>580.19995117188</ele>
        <time>2013-06-30T12:56:17.999Z</time>
      </trkpt>
      <trkpt lat="46.74119" lon="5.91241">
        <ele>580.68353271484</ele>
        <time>2013-06-30T12:56:19.999Z</time>
      </trkpt>
      <trkpt lat="46.74122" lon="5.91253">
        <ele>581.73785400391</ele>
        <time>2013-06-30T12:56:21.999Z</time>
      </trkpt>
      <trkpt lat="46.74124" lon="5.91261">
        <ele>581.94580078125</ele>
        <time>2013-06-30T12:56:23.999Z</time>
      </trkpt>
      <trkpt lat="46.74128" lon="5.91266">
        <ele>582.24340820312</ele>
        <time>2013-06-30T12:56:25.999Z</time>
      </trkpt>
      <trkpt lat="46.74133" lon="5.91265">
        <ele>582.53088378906</ele>
        <time>2013-06-30T12:56:27.999Z</time>
      </trkpt>
      <trkpt lat="46.74139" lon="5.91261">
        <ele>582.75146484375</ele>
        <time>2013-06-30T12:56:29.999Z</time>
      </trkpt>
      <trkpt lat="46.74146" lon="5.91256">
        <ele>583.37969970703</ele>
        <time>2013-06-30T12:56:31.999Z</time>
      </trkpt>
      <trkpt lat="46.74155" lon="5.91248">
        <ele>583.38482666016</ele>
        <time>2013-06-30T12:56:33.999Z</time>
      </trkpt>
      <trkpt lat="46.74164" lon="5.91241">
        <ele>583.73229980469</ele>
        <time>2013-06-30T12:56:35.999Z</time>
      </trkpt>
      <trkpt lat="46.74175" lon="5.9123">
        <ele>584.02819824219</ele>
        <time>2013-06-30T12:56:37.999Z</time>
      </trkpt>
      <trkpt lat="46.74187" lon="5.91215">
        <ele>584.03240966797</ele>
        <time>2013-06-30T12:56:39.999Z</time>
      </trkpt>
      <trkpt lat="46.74198" lon="5.91201">
        <ele>583.25964355469</ele>
        <time>2013-06-30T12:56:41.999Z</time>
      </trkpt>
      <trkpt lat="46.74205" lon="5.91187">
        <ele>582.07006835938</ele>
        <time>2013-06-30T12:56:43.999Z</time>
      </trkpt>
      <trkpt lat="46.74209" lon="5.91173">
        <ele>580.97503662109</ele>
        <time>2013-06-30T12:56:45.999Z</time>
      </trkpt>
      <trkpt lat="46.74211" lon="5.91157">
        <ele>579.60552978516</ele>
        <time>2013-06-30T12:56:47.999Z</time>
      </trkpt>
      <trkpt lat="46.7421" lon="5.91142">
        <ele>578.52001953125</ele>
        <time>2013-06-30T12:56:49.999Z</time>
      </trkpt>
      <trkpt lat="46.74206" lon="5.91127">
        <ele>577.72467041016</ele>
        <time>2013-06-30T12:56:51.999Z</time>
      </trkpt>
      <trkpt lat="46.74202" lon="5.91117">
        <ele>576.52209472656</ele>
        <time>2013-06-30T12:56:53.999Z</time>
      </trkpt>
      <trkpt lat="46.74201" lon="5.91109">
        <ele>576.28253173828</ele>
        <time>2013-06-30T12:56:57.999Z</time>
      </trkpt>
      <trkpt lat="46.74206" lon="5.91104">
        <ele>575.92132568359</ele>
        <time>2013-06-30T12:57:02.999Z</time>
      </trkpt>
      <trkpt lat="46.74209" lon="5.91101">
        <ele>575.80621337891</ele>
        <time>2013-06-30T12:57:05.999Z</time>
      </trkpt>
      <trkpt lat="46.74214" lon="5.91096">
        <ele>575.70922851562</ele>
        <time>2013-06-30T12:57:07.999Z</time>
      </trkpt>
      <trkpt lat="46.7422" lon="5.9109">
        <ele>575.52239990234</ele>
        <time>2013-06-30T12:57:10.999Z</time>
      </trkpt>
      <trkpt lat="46.74223" lon="5.91087">
        <ele>575.44671630859</ele>
        <time>2013-06-30T12:57:15.999Z</time>
      </trkpt>
      <trkpt lat="46.74222" lon="5.91089">
        <ele>577.78619384766</ele>
        <time>2013-06-30T12:58:02.999Z</time>
      </trkpt>
      <trkpt lat="46.74218" lon="5.91091">
        <ele>578.28533935547</ele>
        <time>2013-06-30T12:58:06.999Z</time>
      </trkpt>
      <trkpt lat="46.74213" lon="5.91094">
        <ele>578.38439941406</ele>
        <time>2013-06-30T12:58:12.999Z</time>
      </trkpt>
      <trkpt lat="46.74206" lon="5.911">
        <ele>578.39703369141</ele>
        <time>2013-06-30T12:58:16.999Z</time>
      </trkpt>
      <trkpt lat="46.74203" lon="5.91106">
        <ele>578.15026855469</ele>
        <time>2013-06-30T12:58:21.999Z</time>
      </trkpt>
      <trkpt lat="46.74202" lon="5.91115">
        <ele>577.97906494141</ele>
        <time>2013-06-30T12:58:23.999Z</time>
      </trkpt>
      <trkpt lat="46.74204" lon="5.91124">
        <ele>577.64233398438</ele>
        <time>2013-06-30T12:58:26.999Z</time>
      </trkpt>
      <trkpt lat="46.74208" lon="5.9113">
        <ele>577.35589599609</ele>
        <time>2013-06-30T12:58:28.999Z</time>
      </trkpt>
      <trkpt lat="46.74212" lon="5.91138">
        <ele>577.17114257812</ele>
        <time>2013-06-30T12:58:30.999Z</time>
      </trkpt>
      <trkpt lat="46.74215" lon="5.91144">
        <ele>577.01684570312</ele>
        <time>2013-06-30T12:58:32.999Z</time>
      </trkpt>
      <trkpt lat="46.74218" lon="5.91149">
        <ele>576.89166259766</ele>
        <time>2013-06-30T12:58:34.999Z</time>
      </trkpt>
      <trkpt lat="46.74223" lon="5.91155">
        <ele>576.92681884766</ele>
        <time>2013-06-30T12:58:37.999Z</time>
      </trkpt>
      <trkpt lat="46.74228" lon="5.91157">
        <ele>577.15563964844</ele>
        <time>2013-06-30T12:58:41.999Z</time>
      </trkpt>
      <trkpt lat="46.74233" lon="5.91156">
        <ele>577.54016113281</ele>
        <time>2013-06-30T12:58:46.999Z</time>
      </trkpt>
      <trkpt lat="46.74232" lon="5.91155">
        <ele>578.00726318359</ele>
        <time>2013-06-30T12:58:49.999Z</time>
      </trkpt>
      <trkpt lat="46.74231" lon="5.91155">
        <ele>581.12664794922</ele>
        <time>2013-06-30T12:59:24.999Z</time>
      </trkpt>
      <trkpt lat="46.74236" lon="5.91152">
        <ele>581.45654296875</ele>
        <time>2013-06-30T12:59:26.999Z</time>
      </trkpt>
      <trkpt lat="46.74242" lon="5.91148">
        <ele>581.66339111328</ele>
        <time>2013-06-30T12:59:29.999Z</time>
      </trkpt>
      <trkpt lat="46.74246" lon="5.91145">
        <ele>581.86016845703</ele>
        <time>2013-06-30T12:59:32.999Z</time>
      </trkpt>
      <trkpt lat="46.74251" lon="5.91142">
        <ele>582.24267578125</ele>
        <time>2013-06-30T12:59:36.999Z</time>
      </trkpt>
      <trkpt lat="46.74255" lon="5.9114">
        <ele>582.47937011719</ele>
        <time>2013-06-30T12:59:39.999Z</time>
      </trkpt>
      <trkpt lat="46.74261" lon="5.91138">
        <ele>582.84436035156</ele>
        <time>2013-06-30T12:59:42.999Z</time>
      </trkpt>
      <trkpt lat="46.74265" lon="5.91135">
        <ele>582.98138427734</ele>
        <time>2013-06-30T12:59:45.999Z</time>
      </trkpt>
      <trkpt lat="46.7427" lon="5.91133">
        <ele>583.19122314453</ele>
        <time>2013-06-30T12:59:48.999Z</time>
      </trkpt>
      <trkpt lat="46.74276" lon="5.91131">
        <ele>583.60455322266</ele>
        <time>2013-06-30T12:59:52.999Z</time>
      </trkpt>
      <trkpt lat="46.74278" lon="5.91138">
        <ele>584.11242675781</ele>
        <time>2013-06-30T12:59:55.999Z</time>
      </trkpt>
      <trkpt lat="46.74275" lon="5.91143">
        <ele>584.61334228516</ele>
        <time>2013-06-30T12:59:59.999Z</time>
      </trkpt>
      <trkpt lat="46.74271" lon="5.91147">
        <ele>584.79583740234</ele>
        <time>2013-06-30T13:00:02.999Z</time>
      </trkpt>
      <trkpt lat="46.74268" lon="5.91152">
        <ele>585.00372314453</ele>
        <time>2013-06-30T13:00:05.999Z</time>
      </trkpt>
      <trkpt lat="46.74263" lon="5.91157">
        <ele>585.24816894531</ele>
        <time>2013-06-30T13:00:10.999Z</time>
      </trkpt>
      <trkpt lat="46.74261" lon="5.91162">
        <ele>585.46185302734</ele>
        <time>2013-06-30T13:00:13.999Z</time>
      </trkpt>
      <trkpt lat="46.74264" lon="5.91163">
        <ele>586.20098876953</ele>
        <time>2013-06-30T13:00:23.999Z</time>
      </trkpt>
      <trkpt lat="46.74269" lon="5.91159">
        <ele>586.64385986328</ele>
        <time>2013-06-30T13:00:26.999Z</time>
      </trkpt>
      <trkpt lat="46.74274" lon="5.91156">
        <ele>587.26788330078</ele>
        <time>2013-06-30T13:00:30.999Z</time>
      </trkpt>
      <trkpt lat="46.74279" lon="5.91155">
        <ele>588.21099853516</ele>
        <time>2013-06-30T13:00:34.999Z</time>
      </trkpt>
      <trkpt lat="46.74279" lon="5.91161">
        <ele>589.55865478516</ele>
        <time>2013-06-30T13:00:39.999Z</time>
      </trkpt>
      <trkpt lat="46.74276" lon="5.91166">
        <ele>590.58843994141</ele>
        <time>2013-06-30T13:00:42.999Z</time>
      </trkpt>
      <trkpt lat="46.74272" lon="5.91171">
        <ele>591.62469482422</ele>
        <time>2013-06-30T13:00:45.999Z</time>
      </trkpt>
      <trkpt lat="46.74268" lon="5.91178">
        <ele>592.38513183594</ele>
        <time>2013-06-30T13:00:48.999Z</time>
      </trkpt>
      <trkpt lat="46.74267" lon="5.91183">
        <ele>595.76489257812</ele>
        <time>2013-06-30T13:01:38.999Z</time>
      </trkpt>
      <trkpt lat="46.74269" lon="5.91192">
        <ele>596.15716552734</ele>
        <time>2013-06-30T13:01:41.999Z</time>
      </trkpt>
      <trkpt lat="46.74274" lon="5.91195">
        <ele>596.25616455078</ele>
        <time>2013-06-30T13:01:44.999Z</time>
      </trkpt>
      <trkpt lat="46.74278" lon="5.91191">
        <ele>596.24719238281</ele>
        <time>2013-06-30T13:01:46.999Z</time>
      </trkpt>
      <trkpt lat="46.74284" lon="5.91187">
        <ele>596.19647216797</ele>
        <time>2013-06-30T13:01:49.999Z</time>
      </trkpt>
      <trkpt lat="46.74289" lon="5.91183">
        <ele>596.08319091797</ele>
        <time>2013-06-30T13:01:52.999Z</time>
      </trkpt>
      <trkpt lat="46.74292" lon="5.91176">
        <ele>595.80017089844</ele>
        <time>2013-06-30T13:01:55.999Z</time>
      </trkpt>
      <trkpt lat="46.74295" lon="5.9117">
        <ele>595.52252197266</ele>
        <time>2013-06-30T13:01:57.999Z</time>
      </trkpt>
      <trkpt lat="46.74299" lon="5.91164">
        <ele>595.20501708984</ele>
        <time>2013-06-30T13:01:59.999Z</time>
      </trkpt>
      <trkpt lat="46.74302" lon="5.91159">
        <ele>594.87280273438</ele>
        <time>2013-06-30T13:02:01.999Z</time>
      </trkpt>
      <trkpt lat="46.74308" lon="5.91152">
        <ele>594.51379394531</ele>
        <time>2013-06-30T13:02:03.999Z</time>
      </trkpt>
      <trkpt lat="46.74313" lon="5.91145">
        <ele>592.52313232422</ele>
        <time>2013-06-30T13:02:05.999Z</time>
      </trkpt>
      <trkpt lat="46.74321" lon="5.91135">
        <ele>590.22033691406</ele>
        <time>2013-06-30T13:02:07.999Z</time>
      </trkpt>
      <trkpt lat="46.74328" lon="5.91125">
        <ele>589.04656982422</ele>
        <time>2013-06-30T13:02:09.999Z</time>
      </trkpt>
      <trkpt lat="46.74336" lon="5.91115">
        <ele>588.40728759766</ele>
        <time>2013-06-30T13:02:11.999Z</time>
      </trkpt>
      <trkpt lat="46.74344" lon="5.91104">
        <ele>587.99395751953</ele>
        <time>2013-06-30T13:02:13.999Z</time>
      </trkpt>
      <trkpt lat="46.74352" lon="5.91092">
        <ele>588.02166748047</ele>
        <time>2013-06-30T13:02:15.999Z</time>
      </trkpt>
      <trkpt lat="46.74361" lon="5.91081">
        <ele>588.36358642578</ele>
        <time>2013-06-30T13:02:17.999Z</time>
      </trkpt>
      <trkpt lat="46.74368" lon="5.91071">
        <ele>588.45947265625</ele>
        <time>2013-06-30T13:02:19.999Z</time>
      </trkpt>
      <trkpt lat="46.74374" lon="5.91062">
        <ele>588.71807861328</ele>
        <time>2013-06-30T13:02:21.999Z</time>
      </trkpt>
      <trkpt lat="46.74379" lon="5.91053">
        <ele>588.74371337891</ele>
        <time>2013-06-30T13:02:23.999Z</time>
      </trkpt>
      <trkpt lat="46.74383" lon="5.91048">
        <ele>588.794921875</ele>
        <time>2013-06-30T13:02:25.999Z</time>
      </trkpt>
      <trkpt lat="46.74389" lon="5.91051">
        <ele>588.91998291016</ele>
        <time>2013-06-30T13:02:28.999Z</time>
      </trkpt>
      <trkpt lat="46.74393" lon="5.91058">
        <ele>589.10198974609</ele>
        <time>2013-06-30T13:02:30.999Z</time>
      </trkpt>
      <trkpt lat="46.74398" lon="5.91066">
        <ele>589.31884765625</ele>
        <time>2013-06-30T13:02:32.999Z</time>
      </trkpt>
      <trkpt lat="46.74402" lon="5.91072">
        <ele>589.66204833984</ele>
        <time>2013-06-30T13:02:34.999Z</time>
      </trkpt>
      <trkpt lat="46.74405" lon="5.91079">
        <ele>590.06451416016</ele>
        <time>2013-06-30T13:02:36.999Z</time>
      </trkpt>
      <trkpt lat="46.74408" lon="5.91085">
        <ele>590.54016113281</ele>
        <time>2013-06-30T13:02:38.999Z</time>
      </trkpt>
      <trkpt lat="46.74413" lon="5.91093">
        <ele>591.21795654297</ele>
        <time>2013-06-30T13:02:41.999Z</time>
      </trkpt>
      <trkpt lat="46.74415" lon="5.91098">
        <ele>591.42761230469</ele>
        <time>2013-06-30T13:02:43.999Z</time>
      </trkpt>
      <trkpt lat="46.74418" lon="5.91104">
        <ele>591.53985595703</ele>
        <time>2013-06-30T13:02:45.999Z</time>
      </trkpt>
      <trkpt lat="46.74422" lon="5.9111">
        <ele>591.65356445312</ele>
        <time>2013-06-30T13:02:47.999Z</time>
      </trkpt>
      <trkpt lat="46.74428" lon="5.91112">
        <ele>591.84063720703</ele>
        <time>2013-06-30T13:02:50.999Z</time>
      </trkpt>
      <trkpt lat="46.74433" lon="5.91111">
        <ele>591.95440673828</ele>
        <time>2013-06-30T13:02:52.999Z</time>
      </trkpt>
      <trkpt lat="46.74437" lon="5.9111">
        <ele>592.15588378906</ele>
        <time>2013-06-30T13:02:54.999Z</time>
      </trkpt>
      <trkpt lat="46.74443" lon="5.91107">
        <ele>592.34979248047</ele>
        <time>2013-06-30T13:02:56.999Z</time>
      </trkpt>
      <trkpt lat="46.74447" lon="5.91104">
        <ele>592.59088134766</ele>
        <time>2013-06-30T13:02:58.999Z</time>
      </trkpt>
      <trkpt lat="46.74452" lon="5.91099">
        <ele>592.88537597656</ele>
        <time>2013-06-30T13:03:00.999Z</time>
      </trkpt>
      <trkpt lat="46.74456" lon="5.91094">
        <ele>593.26129150391</ele>
        <time>2013-06-30T13:03:02.999Z</time>
      </trkpt>
      <trkpt lat="46.7446" lon="5.9109">
        <ele>593.72918701172</ele>
        <time>2013-06-30T13:03:04.999Z</time>
      </trkpt>
      <trkpt lat="46.74465" lon="5.91085">
        <ele>594.14453125</ele>
        <time>2013-06-30T13:03:06.999Z</time>
      </trkpt>
      <trkpt lat="46.74469" lon="5.91079">
        <ele>594.50628662109</ele>
        <time>2013-06-30T13:03:08.999Z</time>
      </trkpt>
      <trkpt lat="46.74473" lon="5.91074">
        <ele>594.80090332031</ele>
        <time>2013-06-30T13:03:10.999Z</time>
      </trkpt>
      <trkpt lat="46.74477" lon="5.9107">
        <ele>594.93798828125</ele>
        <time>2013-06-30T13:03:12.999Z</time>
      </trkpt>
      <trkpt lat="46.74482" lon="5.91065">
        <ele>595.07867431641</ele>
        <time>2013-06-30T13:03:14.999Z</time>
      </trkpt>
      <trkpt lat="46.74486" lon="5.9106">
        <ele>595.28161621094</ele>
        <time>2013-06-30T13:03:16.999Z</time>
      </trkpt>
      <trkpt lat="46.74491" lon="5.91054">
        <ele>595.58258056641</ele>
        <time>2013-06-30T13:03:18.999Z</time>
      </trkpt>
      <trkpt lat="46.74496" lon="5.9105">
        <ele>595.95050048828</ele>
        <time>2013-06-30T13:03:20.999Z</time>
      </trkpt>
      <trkpt lat="46.74501" lon="5.91046">
        <ele>596.30822753906</ele>
        <time>2013-06-30T13:03:22.999Z</time>
      </trkpt>
      <trkpt lat="46.74506" lon="5.91042">
        <ele>596.73278808594</ele>
        <time>2013-06-30T13:03:24.999Z</time>
      </trkpt>
      <trkpt lat="46.74511" lon="5.91036">
        <ele>597.10083007812</ele>
        <time>2013-06-30T13:03:26.999Z</time>
      </trkpt>
      <trkpt lat="46.74517" lon="5.9103">
        <ele>597.39031982422</ele>
        <time>2013-06-30T13:03:28.999Z</time>
      </trkpt>
      <trkpt lat="46.74523" lon="5.91025">
        <ele>597.51354980469</ele>
        <time>2013-06-30T13:03:30.999Z</time>
      </trkpt>
      <trkpt lat="46.7453" lon="5.9102">
        <ele>597.51135253906</ele>
        <time>2013-06-30T13:03:32.999Z</time>
      </trkpt>
      <trkpt lat="46.74536" lon="5.91014">
        <ele>597.48095703125</ele>
        <time>2013-06-30T13:03:34.999Z</time>
      </trkpt>
      <trkpt lat="46.74543" lon="5.91009">
        <ele>597.59936523438</ele>
        <time>2013-06-30T13:03:36.999Z</time>
      </trkpt>
      <trkpt lat="46.74549" lon="5.91004">
        <ele>597.65472412109</ele>
        <time>2013-06-30T13:03:38.999Z</time>
      </trkpt>
      <trkpt lat="46.74556" lon="5.91">
        <ele>598.92541503906</ele>
        <time>2013-06-30T13:03:40.999Z</time>
      </trkpt>
      <trkpt lat="46.74563" lon="5.90995">
        <ele>599.42047119141</ele>
        <time>2013-06-30T13:03:42.999Z</time>
      </trkpt>
      <trkpt lat="46.7457" lon="5.9099">
        <ele>599.47662353516</ele>
        <time>2013-06-30T13:03:44.999Z</time>
      </trkpt>
      <trkpt lat="46.74577" lon="5.90985">
        <ele>598.89154052734</ele>
        <time>2013-06-30T13:03:46.999Z</time>
      </trkpt>
      <trkpt lat="46.74584" lon="5.9098">
        <ele>597.84350585938</ele>
        <time>2013-06-30T13:03:48.999Z</time>
      </trkpt>
      <trkpt lat="46.74591" lon="5.90974">
        <ele>597.39996337891</ele>
        <time>2013-06-30T13:03:50.999Z</time>
      </trkpt>
      <trkpt lat="46.74599" lon="5.9097">
        <ele>597.28271484375</ele>
        <time>2013-06-30T13:03:52.999Z</time>
      </trkpt>
      <trkpt lat="46.74605" lon="5.90965">
        <ele>597.17657470703</ele>
        <time>2013-06-30T13:03:54.999Z</time>
      </trkpt>
      <trkpt lat="46.74613" lon="5.9096">
        <ele>596.53430175781</ele>
        <time>2013-06-30T13:03:56.999Z</time>
      </trkpt>
      <trkpt lat="46.7462" lon="5.90954">
        <ele>595.62823486328</ele>
        <time>2013-06-30T13:03:58.999Z</time>
      </trkpt>
      <trkpt lat="46.74627" lon="5.90949">
        <ele>595.15240478516</ele>
        <time>2013-06-30T13:04:00.999Z</time>
      </trkpt>
      <trkpt lat="46.74633" lon="5.90944">
        <ele>595.3515625</ele>
        <time>2013-06-30T13:04:02.999Z</time>
      </trkpt>
      <trkpt lat="46.7464" lon="5.9094">
        <ele>596.36511230469</ele>
        <time>2013-06-30T13:04:04.999Z</time>
      </trkpt>
      <trkpt lat="46.74647" lon="5.90936">
        <ele>596.5263671875</ele>
        <time>2013-06-30T13:04:06.999Z</time>
      </trkpt>
      <trkpt lat="46.74656" lon="5.90937">
        <ele>596.35632324219</ele>
        <time>2013-06-30T13:04:08.999Z</time>
      </trkpt>
      <trkpt lat="46.74662" lon="5.90943">
        <ele>595.73583984375</ele>
        <time>2013-06-30T13:04:10.999Z</time>
      </trkpt>
      <trkpt lat="46.74669" lon="5.9095">
        <ele>595.26159667969</ele>
        <time>2013-06-30T13:04:12.999Z</time>
      </trkpt>
      <trkpt lat="46.74674" lon="5.90959">
        <ele>595.05627441406</ele>
        <time>2013-06-30T13:04:14.999Z</time>
      </trkpt>
      <trkpt lat="46.7468" lon="5.90966">
        <ele>594.79229736328</ele>
        <time>2013-06-30T13:04:16.999Z</time>
      </trkpt>
      <trkpt lat="46.74686" lon="5.90968">
        <ele>594.50732421875</ele>
        <time>2013-06-30T13:04:18.999Z</time>
      </trkpt>
      <trkpt lat="46.7469" lon="5.9097">
        <ele>594.20037841797</ele>
        <time>2013-06-30T13:04:21.999Z</time>
      </trkpt>
      <trkpt lat="46.74695" lon="5.90972">
        <ele>593.81951904297</ele>
        <time>2013-06-30T13:04:25.999Z</time>
      </trkpt>
      <trkpt lat="46.747" lon="5.90973">
        <ele>593.35437011719</ele>
        <time>2013-06-30T13:04:30.999Z</time>
      </trkpt>
      <trkpt lat="46.74704" lon="5.90969">
        <ele>591.58001708984</ele>
        <time>2013-06-30T13:08:03.999Z</time>
      </trkpt>
      <trkpt lat="46.74701" lon="5.90975">
        <ele>591.35925292969</ele>
        <time>2013-06-30T13:08:20.999Z</time>
      </trkpt>
      <trkpt lat="46.74697" lon="5.90973">
        <ele>589.79553222656</ele>
        <time>2013-06-30T13:09:23.999Z</time>
      </trkpt>
      <trkpt lat="46.74695" lon="5.90967">
        <ele>588.97534179688</ele>
        <time>2013-06-30T13:09:45.999Z</time>
      </trkpt>
      <trkpt lat="46.74696" lon="5.90958">
        <ele>588.65539550781</ele>
        <time>2013-06-30T13:09:48.999Z</time>
      </trkpt>
      <trkpt lat="46.74696" lon="5.90951">
        <ele>588.43151855469</ele>
        <time>2013-06-30T13:09:51.999Z</time>
      </trkpt>
      <trkpt lat="46.74694" lon="5.90944">
        <ele>588.30291748047</ele>
        <time>2013-06-30T13:09:54.999Z</time>
      </trkpt>
      <trkpt lat="46.74694" lon="5.90935">
        <ele>588.31292724609</ele>
        <time>2013-06-30T13:09:57.999Z</time>
      </trkpt>
      <trkpt lat="46.74696" lon="5.90929">
        <ele>588.34704589844</ele>
        <time>2013-06-30T13:09:59.999Z</time>
      </trkpt>
      <trkpt lat="46.74698" lon="5.90922">
        <ele>588.41192626953</ele>
        <time>2013-06-30T13:10:02.999Z</time>
      </trkpt>
      <trkpt lat="46.74702" lon="5.90915">
        <ele>588.61602783203</ele>
        <time>2013-06-30T13:10:05.999Z</time>
      </trkpt>
      <trkpt lat="46.74706" lon="5.9091">
        <ele>588.53973388672</ele>
        <time>2013-06-30T13:10:07.999Z</time>
      </trkpt>
      <trkpt lat="46.7471" lon="5.90906">
        <ele>588.38092041016</ele>
        <time>2013-06-30T13:10:09.999Z</time>
      </trkpt>
      <trkpt lat="46.74713" lon="5.90902">
        <ele>588.20666503906</ele>
        <time>2013-06-30T13:10:11.999Z</time>
      </trkpt>
      <trkpt lat="46.74717" lon="5.90897">
        <ele>588.01989746094</ele>
        <time>2013-06-30T13:10:13.999Z</time>
      </trkpt>
      <trkpt lat="46.7472" lon="5.90892">
        <ele>587.74047851562</ele>
        <time>2013-06-30T13:10:16.999Z</time>
      </trkpt>
      <trkpt lat="46.74722" lon="5.90886">
        <ele>587.47906494141</ele>
        <time>2013-06-30T13:10:20.999Z</time>
      </trkpt>
      <trkpt lat="46.74724" lon="5.9088">
        <ele>587.3681640625</ele>
        <time>2013-06-30T13:10:26.999Z</time>
      </trkpt>
      <trkpt lat="46.74729" lon="5.90877">
        <ele>587.25158691406</ele>
        <time>2013-06-30T13:10:30.999Z</time>
      </trkpt>
      <trkpt lat="46.74733" lon="5.90875">
        <ele>587.13806152344</ele>
        <time>2013-06-30T13:10:34.999Z</time>
      </trkpt>
      <trkpt lat="46.74738" lon="5.90872">
        <ele>586.97332763672</ele>
        <time>2013-06-30T13:10:38.999Z</time>
      </trkpt>
      <trkpt lat="46.74742" lon="5.90868">
        <ele>586.93310546875</ele>
        <time>2013-06-30T13:10:42.999Z</time>
      </trkpt>
      <trkpt lat="46.74749" lon="5.90865">
        <ele>586.88812255859</ele>
        <time>2013-06-30T13:10:45.999Z</time>
      </trkpt>
      <trkpt lat="46.74753" lon="5.90863">
        <ele>586.79577636719</ele>
        <time>2013-06-30T13:10:47.999Z</time>
      </trkpt>
      <trkpt lat="46.74759" lon="5.90861">
        <ele>586.62451171875</ele>
        <time>2013-06-30T13:10:50.999Z</time>
      </trkpt>
      <trkpt lat="46.74764" lon="5.90858">
        <ele>586.63500976562</ele>
        <time>2013-06-30T13:10:53.999Z</time>
      </trkpt>
      <trkpt lat="46.7477" lon="5.90857">
        <ele>586.70703125</ele>
        <time>2013-06-30T13:10:56.999Z</time>
      </trkpt>
      <trkpt lat="46.74775" lon="5.90856">
        <ele>586.79290771484</ele>
        <time>2013-06-30T13:10:58.999Z</time>
      </trkpt>
      <trkpt lat="46.74781" lon="5.90855">
        <ele>586.904296875</ele>
        <time>2013-06-30T13:11:01.999Z</time>
      </trkpt>
      <trkpt lat="46.74786" lon="5.90855">
        <ele>587.09155273438</ele>
        <time>2013-06-30T13:11:04.999Z</time>
      </trkpt>
      <trkpt lat="46.74792" lon="5.90855">
        <ele>587.22845458984</ele>
        <time>2013-06-30T13:11:07.999Z</time>
      </trkpt>
      <trkpt lat="46.74798" lon="5.90855">
        <ele>587.43255615234</ele>
        <time>2013-06-30T13:11:10.999Z</time>
      </trkpt>
      <trkpt lat="46.74804" lon="5.90856">
        <ele>587.46087646484</ele>
        <time>2013-06-30T13:11:13.999Z</time>
      </trkpt>
      <trkpt lat="46.7481" lon="5.90856">
        <ele>587.60986328125</ele>
        <time>2013-06-30T13:11:16.999Z</time>
      </trkpt>
      <trkpt lat="46.74816" lon="5.90856">
        <ele>587.78839111328</ele>
        <time>2013-06-30T13:11:19.999Z</time>
      </trkpt>
      <trkpt lat="46.74821" lon="5.90855">
        <ele>587.92144775391</ele>
        <time>2013-06-30T13:11:22.999Z</time>
      </trkpt>
      <trkpt lat="46.74826" lon="5.90853">
        <ele>588.12121582031</ele>
        <time>2013-06-30T13:11:26.999Z</time>
      </trkpt>
      <trkpt lat="46.7483" lon="5.90846">
        <ele>588.25555419922</ele>
        <time>2013-06-30T13:11:29.999Z</time>
      </trkpt>
      <trkpt lat="46.74831" lon="5.9084">
        <ele>588.29254150391</ele>
        <time>2013-06-30T13:11:31.999Z</time>
      </trkpt>
      <trkpt lat="46.74833" lon="5.90833">
        <ele>588.29022216797</ele>
        <time>2013-06-30T13:11:33.999Z</time>
      </trkpt>
      <trkpt lat="46.74835" lon="5.90828">
        <ele>588.32171630859</ele>
        <time>2013-06-30T13:11:35.999Z</time>
      </trkpt>
      <trkpt lat="46.74838" lon="5.90819">
        <ele>588.41046142578</ele>
        <time>2013-06-30T13:11:38.999Z</time>
      </trkpt>
      <trkpt lat="46.7484" lon="5.90812">
        <ele>588.56921386719</ele>
        <time>2013-06-30T13:11:41.999Z</time>
      </trkpt>
      <trkpt lat="46.74841" lon="5.90804">
        <ele>589.0439453125</ele>
        <time>2013-06-30T13:11:44.999Z</time>
      </trkpt>
      <trkpt lat="46.74842" lon="5.90797">
        <ele>589.38372802734</ele>
        <time>2013-06-30T13:11:46.999Z</time>
      </trkpt>
      <trkpt lat="46.74842" lon="5.9079">
        <ele>589.67468261719</ele>
        <time>2013-06-30T13:11:48.999Z</time>
      </trkpt>
      <trkpt lat="46.74842" lon="5.90783">
        <ele>589.88604736328</ele>
        <time>2013-06-30T13:11:50.999Z</time>
      </trkpt>
      <trkpt lat="46.74843" lon="5.90775">
        <ele>590.05255126953</ele>
        <time>2013-06-30T13:11:52.999Z</time>
      </trkpt>
      <trkpt lat="46.74842" lon="5.90767">
        <ele>590.14916992188</ele>
        <time>2013-06-30T13:11:54.999Z</time>
      </trkpt>
      <trkpt lat="46.74843" lon="5.90758">
        <ele>590.11804199219</ele>
        <time>2013-06-30T13:11:56.999Z</time>
      </trkpt>
      <trkpt lat="46.74844" lon="5.9075">
        <ele>590.00823974609</ele>
        <time>2013-06-30T13:11:58.999Z</time>
      </trkpt>
      <trkpt lat="46.74848" lon="5.90742">
        <ele>589.93243408203</ele>
        <time>2013-06-30T13:12:01.999Z</time>
      </trkpt>
      <trkpt lat="46.74852" lon="5.90739">
        <ele>589.94580078125</ele>
        <time>2013-06-30T13:12:03.999Z</time>
      </trkpt>
      <trkpt lat="46.74858" lon="5.90737">
        <ele>590.00103759766</ele>
        <time>2013-06-30T13:12:05.999Z</time>
      </trkpt>
      <trkpt lat="46.74864" lon="5.90736">
        <ele>590.14862060547</ele>
        <time>2013-06-30T13:12:07.999Z</time>
      </trkpt>
      <trkpt lat="46.74869" lon="5.9074">
        <ele>590.35559082031</ele>
        <time>2013-06-30T13:12:09.999Z</time>
      </trkpt>
      <trkpt lat="46.74874" lon="5.90747">
        <ele>590.57458496094</ele>
        <time>2013-06-30T13:12:11.999Z</time>
      </trkpt>
      <trkpt lat="46.74879" lon="5.90755">
        <ele>590.810546875</ele>
        <time>2013-06-30T13:12:13.999Z</time>
      </trkpt>
      <trkpt lat="46.74884" lon="5.90761">
        <ele>590.95831298828</ele>
        <time>2013-06-30T13:12:15.999Z</time>
      </trkpt>
      <trkpt lat="46.74889" lon="5.90768">
        <ele>591.046875</ele>
        <time>2013-06-30T13:12:17.999Z</time>
      </trkpt>
      <trkpt lat="46.74893" lon="5.90774">
        <ele>591.12725830078</ele>
        <time>2013-06-30T13:12:19.999Z</time>
      </trkpt>
      <trkpt lat="46.74896" lon="5.9078">
        <ele>591.25225830078</ele>
        <time>2013-06-30T13:12:21.999Z</time>
      </trkpt>
      <trkpt lat="46.749" lon="5.90784">
        <ele>591.45910644531</ele>
        <time>2013-06-30T13:12:24.999Z</time>
      </trkpt>
    </trkseg>
  </trk>
</gpx>